<?xml version='1.0' encoding='UTF-8'?><gpx version="1.1" creator="JPX - https://github.com/jenetics/jpx" xmlns="http://www.topografix.com/GPX/1/1"><trk><trkseg><trkpt lat="41.096381591428084" lon="14.453540810264956"><ele>85.0</ele><time>2026-04-04T07:00:41.001Z</time></trkpt><trkpt lat="41.09645840328357" lon="14.45365245921473"><ele>85.0</ele><time>2026-04-04T07:00:42.001Z</time></trkpt><trkpt lat="41.09653748632955" lon="14.453770173494245"><ele>85.0</ele><time>2026-04-04T07:00:43.001Z</time></trkpt><trkpt lat="41.09663617364542" lon="14.453924490460054"><ele>85.0</ele><time>2026-04-04T07:00:44.001Z</time></trkpt><trkpt lat="41.09674825423879" lon="14.454108384667617"><ele>82.66666666666666</ele><time>2026-04-04T07:00:45.001Z</time></trkpt><trkpt lat="41.096865156200735" lon="14.454294001592709"><ele>80.33333333333333</ele><time>2026-04-04T07:00:46.001Z</time></trkpt><trkpt lat="41.09703021559341" lon="14.454530334592937"><ele>78.0</ele><time>2026-04-04T07:00:47.001Z</time></trkpt><trkpt lat="41.097164180364736" lon="14.454738824387343"><ele>77.66666666666667</ele><time>2026-04-04T07:00:48.001Z</time></trkpt><trkpt lat="41.09729857845684" lon="14.45495638345303"><ele>77.33333333333334</ele><time>2026-04-04T07:00:49.001Z</time></trkpt><trkpt lat="41.097420304360625" lon="14.455157934290204"><ele>77.0</ele><time>2026-04-04T07:00:50.001Z</time></trkpt><trkpt lat="41.09753454318421" lon="14.455339377300053"><ele>75.0</ele><time>2026-04-04T07:00:51.001Z</time></trkpt><trkpt lat="41.097654103588326" lon="14.455530056501084"><ele>73.0</ele><time>2026-04-04T07:00:52.001Z</time></trkpt><trkpt lat="41.09777553483455" lon="14.455725866943432"><ele>71.0</ele><time>2026-04-04T07:00:53.001Z</time></trkpt><trkpt lat="41.09789807510306" lon="14.455927604604733"><ele>71.0</ele><time>2026-04-04T07:00:54.001Z</time></trkpt><trkpt lat="41.09802078623538" lon="14.45613018821657"><ele>71.0</ele><time>2026-04-04T07:00:55.001Z</time></trkpt><trkpt lat="41.09814596674626" lon="14.456333860904925"><ele>71.0</ele><time>2026-04-04T07:00:56.001Z</time></trkpt><trkpt lat="41.09827297962242" lon="14.45653412125681"><ele>69.33333333333334</ele><time>2026-04-04T07:00:57.001Z</time></trkpt><trkpt lat="41.09840019907267" lon="14.456731195113543"><ele>67.66666666666667</ele><time>2026-04-04T07:00:58.001Z</time></trkpt><trkpt lat="41.098524586669825" lon="14.456929418744512"><ele>66.0</ele><time>2026-04-04T07:00:59.001Z</time></trkpt><trkpt lat="41.098646695575226" lon="14.457127140494348"><ele>66.0</ele><time>2026-04-04T07:01:00.001Z</time></trkpt><trkpt lat="41.09877307299778" lon="14.457326360389434"><ele>66.0</ele><time>2026-04-04T07:01:01.001Z</time></trkpt><trkpt lat="41.09890150992571" lon="14.457528703812818"><ele>66.0</ele><time>2026-04-04T07:01:02.001Z</time></trkpt><trkpt lat="41.09902803497832" lon="14.4577334093723"><ele>64.66666666666667</ele><time>2026-04-04T07:01:03.001Z</time></trkpt><trkpt lat="41.09915398947497" lon="14.457926082617197"><ele>63.333333333333336</ele><time>2026-04-04T07:01:04.001Z</time></trkpt><trkpt lat="41.09927343323493" lon="14.45808900536428"><ele>62.0</ele><time>2026-04-04T07:01:05.001Z</time></trkpt><trkpt lat="41.09938793037201" lon="14.458227924390032"><ele>61.6</ele><time>2026-04-04T07:01:06.001Z</time></trkpt><trkpt lat="41.099480084049866" lon="14.458335833609313"><ele>61.2</ele><time>2026-04-04T07:01:07.001Z</time></trkpt><trkpt lat="41.099543306096656" lon="14.458413786359042"><ele>60.8</ele><time>2026-04-04T07:01:08.001Z</time></trkpt><trkpt lat="41.09959330605609" lon="14.45846915966637"><ele>60.4</ele><time>2026-04-04T07:01:09.001Z</time></trkpt><trkpt lat="41.099719482404296" lon="14.458476022909403"><ele>60.0</ele><time>2026-04-04T07:01:11.001Z</time></trkpt><trkpt lat="41.099782728770826" lon="14.458456790217046"><ele>60.0</ele><time>2026-04-04T07:01:12.001Z</time></trkpt><trkpt lat="41.09983278838539" lon="14.458357836112063"><ele>60.0</ele><time>2026-04-04T07:01:13Z</time></trkpt><trkpt lat="41.099818920116384" lon="14.458166193410122"><ele>60.0</ele><time>2026-04-04T07:01:14Z</time></trkpt><trkpt lat="41.09983937654427" lon="14.457999364309163"><ele>60.0</ele><time>2026-04-04T07:01:15Z</time></trkpt><trkpt lat="41.09987359408306" lon="14.4577960542734"><ele>60.66666666666667</ele><time>2026-04-04T07:01:16Z</time></trkpt><trkpt lat="41.09991142552447" lon="14.457577256108804"><ele>61.333333333333336</ele><time>2026-04-04T07:01:17Z</time></trkpt><trkpt lat="41.09995337571878" lon="14.457315640471354"><ele>62.0</ele><time>2026-04-04T07:01:18Z</time></trkpt><trkpt lat="41.100014242466116" lon="14.456970519277574"><ele>62.0</ele><time>2026-04-04T07:01:19Z</time></trkpt><trkpt lat="41.100069389196825" lon="14.456632753221326"><ele>62.0</ele><time>2026-04-04T07:01:20Z</time></trkpt><trkpt lat="41.100105520931876" lon="14.456390756822477"><ele>62.0</ele><time>2026-04-04T07:01:21Z</time></trkpt><trkpt lat="41.10015711647508" lon="14.456039719038525"><ele>62.0</ele><time>2026-04-04T07:01:22Z</time></trkpt><trkpt lat="41.100211707447485" lon="14.45567650921813"><ele>62.0</ele><time>2026-04-04T07:01:23Z</time></trkpt><trkpt lat="41.10026651926028" lon="14.455317967174077"><ele>63.5</ele><time>2026-04-04T07:01:24Z</time></trkpt><trkpt lat="41.10032467359231" lon="14.45494475595858"><ele>65.0</ele><time>2026-04-04T07:01:25Z</time></trkpt><trkpt lat="41.10037928349169" lon="14.45460056759313"><ele>65.0</ele><time>2026-04-04T07:01:26Z</time></trkpt><trkpt lat="41.10043085406853" lon="14.454274813337841"><ele>65.0</ele><time>2026-04-04T07:01:27Z</time></trkpt><trkpt lat="41.10047981279543" lon="14.45395852491203"><ele>65.33333333333334</ele><time>2026-04-04T07:01:28Z</time></trkpt><trkpt lat="41.100522311725115" lon="14.453665963013218"><ele>65.66666666666667</ele><time>2026-04-04T07:01:29Z</time></trkpt><trkpt lat="41.10056358646733" lon="14.453400890244033"><ele>66.0</ele><time>2026-04-04T07:01:30Z</time></trkpt><trkpt lat="41.100619320751406" lon="14.453134553558105"><ele>66.0</ele><time>2026-04-04T07:01:31Z</time></trkpt><trkpt lat="41.100698268392804" lon="14.45288927911895"><ele>66.0</ele><time>2026-04-04T07:01:32Z</time></trkpt><trkpt lat="41.100772773249915" lon="14.452618662750067"><ele>66.0</ele><time>2026-04-04T07:01:33Z</time></trkpt><trkpt lat="41.10084302176542" lon="14.452312823835637"><ele>65.0</ele><time>2026-04-04T07:01:34Z</time></trkpt><trkpt lat="41.10093914686852" lon="14.452012217829443"><ele>64.0</ele><time>2026-04-04T07:01:35Z</time></trkpt><trkpt lat="41.101020128453904" lon="14.45171236798759"><ele>64.0</ele><time>2026-04-04T07:01:36Z</time></trkpt><trkpt lat="41.10110043034938" lon="14.451415034897694"><ele>64.0</ele><time>2026-04-04T07:01:37Z</time></trkpt><trkpt lat="41.101169329385826" lon="14.45116432694161"><ele>64.0</ele><time>2026-04-04T07:01:38Z</time></trkpt><trkpt lat="41.10121747253161" lon="14.450885860674688"><ele>64.0</ele><time>2026-04-04T07:01:39Z</time></trkpt><trkpt lat="41.10128892080031" lon="14.450647466233589"><ele>64.0</ele><time>2026-04-04T07:01:40Z</time></trkpt><trkpt lat="41.10135542940984" lon="14.45041840871723"><ele>64.0</ele><time>2026-04-04T07:01:41Z</time></trkpt><trkpt lat="41.10142070841573" lon="14.450216571855115"><ele>63.33333333333333</ele><time>2026-04-04T07:01:42Z</time></trkpt><trkpt lat="41.10152121997109" lon="14.450024250090008"><ele>62.66666666666667</ele><time>2026-04-04T07:01:43Z</time></trkpt><trkpt lat="41.10163160429797" lon="14.449844307678738"><ele>62.0</ele><time>2026-04-04T07:01:44Z</time></trkpt><trkpt lat="41.10176971196891" lon="14.44966738010869"><ele>60.66666666666667</ele><time>2026-04-04T07:01:45Z</time></trkpt><trkpt lat="41.10191217919509" lon="14.449479149224908"><ele>59.33333333333333</ele><time>2026-04-04T07:01:46Z</time></trkpt><trkpt lat="41.10202799632068" lon="14.44928824632905"><ele>58.0</ele><time>2026-04-04T07:01:47Z</time></trkpt><trkpt lat="41.10211254038377" lon="14.449081749299355"><ele>58.0</ele><time>2026-04-04T07:01:48Z</time></trkpt><trkpt lat="41.10220528215131" lon="14.448873724518947"><ele>58.0</ele><time>2026-04-04T07:01:49Z</time></trkpt><trkpt lat="41.1022687122228" lon="14.44869356185913"><ele>58.0</ele><time>2026-04-04T07:01:50Z</time></trkpt><trkpt lat="41.10233834695426" lon="14.448494697219447"><ele>57.25</ele><time>2026-04-04T07:01:51Z</time></trkpt><trkpt lat="41.102394374824065" lon="14.448329780985429"><ele>56.5</ele><time>2026-04-04T07:01:52Z</time></trkpt><trkpt lat="41.10244816695846" lon="14.448198930915348"><ele>55.75</ele><time>2026-04-04T07:01:53Z</time></trkpt><trkpt lat="41.102516531003545" lon="14.448081548801055"><ele>55.0</ele><time>2026-04-04T07:01:54Z</time></trkpt><trkpt lat="41.102608194953554" lon="14.44800299211624"><ele>55.75</ele><time>2026-04-04T07:01:55Z</time></trkpt><trkpt lat="41.10272891196939" lon="14.4479388296976"><ele>56.5</ele><time>2026-04-04T07:01:56Z</time></trkpt><trkpt lat="41.102872359293066" lon="14.447886679699328"><ele>57.25</ele><time>2026-04-04T07:01:57Z</time></trkpt><trkpt lat="41.10303544601057" lon="14.447824442362833"><ele>58.0</ele><time>2026-04-04T07:01:58Z</time></trkpt><trkpt lat="41.10322266408187" lon="14.447756838626374"><ele>58.33333333333333</ele><time>2026-04-04T07:01:59Z</time></trkpt><trkpt lat="41.10342808297216" lon="14.44770104426594"><ele>58.66666666666667</ele><time>2026-04-04T07:02:00Z</time></trkpt><trkpt lat="41.103645994589456" lon="14.447661555698602"><ele>59.0</ele><time>2026-04-04T07:02:01Z</time></trkpt><trkpt lat="41.10385407855754" lon="14.447643374670722"><ele>59.0</ele><time>2026-04-04T07:02:02Z</time></trkpt><trkpt lat="41.104036385190746" lon="14.447617954899309"><ele>59.0</ele><time>2026-04-04T07:02:03Z</time></trkpt><trkpt lat="41.104201555650974" lon="14.44755581418394"><ele>59.0</ele><time>2026-04-04T07:02:04Z</time></trkpt><trkpt lat="41.10436227782817" lon="14.447451624840436"><ele>60.0</ele><time>2026-04-04T07:02:05Z</time></trkpt><trkpt lat="41.10452153053245" lon="14.447318846136067"><ele>61.0</ele><time>2026-04-04T07:02:06Z</time></trkpt><trkpt lat="41.104647190158325" lon="14.44714959789642"><ele>62.0</ele><time>2026-04-04T07:02:07Z</time></trkpt><trkpt lat="41.10477406961546" lon="14.44697806185855"><ele>62.333333333333336</ele><time>2026-04-04T07:02:08Z</time></trkpt><trkpt lat="41.10493103757283" lon="14.446816955483364"><ele>62.66666666666667</ele><time>2026-04-04T07:02:09Z</time></trkpt><trkpt lat="41.10509491796734" lon="14.446707435086253"><ele>63.0</ele><time>2026-04-04T07:02:10Z</time></trkpt><trkpt lat="41.1052751655078" lon="14.44663459818706"><ele>63.0</ele><time>2026-04-04T07:02:11Z</time></trkpt><trkpt lat="41.105481792216295" lon="14.44660645363329"><ele>63.0</ele><time>2026-04-04T07:02:12Z</time></trkpt><trkpt lat="41.10570352441393" lon="14.446608813431299"><ele>63.0</ele><time>2026-04-04T07:02:13Z</time></trkpt><trkpt lat="41.105936647162956" lon="14.446635268901929"><ele>62.0</ele><time>2026-04-04T07:02:14Z</time></trkpt><trkpt lat="41.106143140918995" lon="14.44665162827107"><ele>61.0</ele><time>2026-04-04T07:02:15Z</time></trkpt><trkpt lat="41.10631291503826" lon="14.446644936881086"><ele>60.0</ele><time>2026-04-04T07:02:16Z</time></trkpt><trkpt lat="41.10646062083455" lon="14.44659746172315"><ele>59.0</ele><time>2026-04-04T07:02:17Z</time></trkpt><trkpt lat="41.10659081809027" lon="14.44649243398094"><ele>58.0</ele><time>2026-04-04T07:02:18Z</time></trkpt><trkpt lat="41.1067104850818" lon="14.4463187887263"><ele>57.0</ele><time>2026-04-04T07:02:19Z</time></trkpt><trkpt lat="41.10685552124031" lon="14.446101467898849"><ele>56.66666666666667</ele><time>2026-04-04T07:02:20Z</time></trkpt><trkpt lat="41.10700881927344" lon="14.445871879396476"><ele>56.333333333333336</ele><time>2026-04-04T07:02:21Z</time></trkpt><trkpt lat="41.10714836136128" lon="14.445660504416708"><ele>56.0</ele><time>2026-04-04T07:02:22Z</time></trkpt><trkpt lat="41.10726171982866" lon="14.445471826500658"><ele>57.0</ele><time>2026-04-04T07:02:23Z</time></trkpt><trkpt lat="41.10734552634763" lon="14.445294287889892"><ele>58.0</ele><time>2026-04-04T07:02:24Z</time></trkpt><trkpt lat="41.107403362935216" lon="14.445131704639591"><ele>59.0</ele><time>2026-04-04T07:02:25Z</time></trkpt><trkpt lat="41.10744114769854" lon="14.445016729607056"><ele>60.0</ele><time>2026-04-04T07:02:26Z</time></trkpt><trkpt lat="41.107481321760915" lon="14.444902312877431"><ele>60.75</ele><time>2026-04-04T07:02:27Z</time></trkpt><trkpt lat="41.1075255566553" lon="14.444772448709397"><ele>61.5</ele><time>2026-04-04T07:02:28Z</time></trkpt><trkpt lat="41.107562397338164" lon="14.44459495232024"><ele>62.25</ele><time>2026-04-04T07:02:29Z</time></trkpt><trkpt lat="41.10758232584938" lon="14.444387766048974"><ele>63.0</ele><time>2026-04-04T07:02:30Z</time></trkpt><trkpt lat="41.107614752031445" lon="14.444203696957857"><ele>64.0</ele><time>2026-04-04T07:02:31Z</time></trkpt><trkpt lat="41.10767736218969" lon="14.444059925219758"><ele>65.0</ele><time>2026-04-04T07:02:32Z</time></trkpt><trkpt lat="41.10776020965049" lon="14.443944951910284"><ele>66.0</ele><time>2026-04-04T07:02:33Z</time></trkpt><trkpt lat="41.10787129661715" lon="14.443888432943318"><ele>67.0</ele><time>2026-04-04T07:02:34Z</time></trkpt><trkpt lat="41.108000855452126" lon="14.443862002559381"><ele>67.0</ele><time>2026-04-04T07:02:35Z</time></trkpt><trkpt lat="41.10814381276969" lon="14.443895958700828"><ele>67.0</ele><time>2026-04-04T07:02:36Z</time></trkpt><trkpt lat="41.10830557358097" lon="14.443971041717505"><ele>67.0</ele><time>2026-04-04T07:02:37Z</time></trkpt><trkpt lat="41.10848609759166" lon="14.444083551693428"><ele>67.0</ele><time>2026-04-04T07:02:38Z</time></trkpt><trkpt lat="41.108671838048664" lon="14.444222611960948"><ele>67.0</ele><time>2026-04-04T07:02:39Z</time></trkpt><trkpt lat="41.10884684634427" lon="14.444374464116377"><ele>67.0</ele><time>2026-04-04T07:02:40Z</time></trkpt><trkpt lat="41.10900199607139" lon="14.444528379566405"><ele>66.33333333333333</ele><time>2026-04-04T07:02:41Z</time></trkpt><trkpt lat="41.10915221279911" lon="14.444684838625184"><ele>65.66666666666667</ele><time>2026-04-04T07:02:42Z</time></trkpt><trkpt lat="41.10929809201444" lon="14.444843653332963"><ele>65.0</ele><time>2026-04-04T07:02:43Z</time></trkpt><trkpt lat="41.10943485868479" lon="14.445008390371958"><ele>65.0</ele><time>2026-04-04T07:02:44.001Z</time></trkpt><trkpt lat="41.10957458212776" lon="14.445193127579527"><ele>65.0</ele><time>2026-04-04T07:02:45.001Z</time></trkpt><trkpt lat="41.10970235720249" lon="14.445374771809885"><ele>65.0</ele><time>2026-04-04T07:02:46.001Z</time></trkpt><trkpt lat="41.10983261284094" lon="14.445566914939972"><ele>65.66666666666667</ele><time>2026-04-04T07:02:47.001Z</time></trkpt><trkpt lat="41.10996536098423" lon="14.445773061475512"><ele>66.33333333333333</ele><time>2026-04-04T07:02:48.001Z</time></trkpt><trkpt lat="41.11009685594171" lon="14.445998913779503"><ele>67.0</ele><time>2026-04-04T07:02:49.001Z</time></trkpt><trkpt lat="41.11022408206711" lon="14.446239241062543"><ele>66.33333333333333</ele><time>2026-04-04T07:02:50.001Z</time></trkpt><trkpt lat="41.11034471594813" lon="14.446466054681018"><ele>65.66666666666667</ele><time>2026-04-04T07:02:51.001Z</time></trkpt><trkpt lat="41.110457312054024" lon="14.446670710224545"><ele>65.0</ele><time>2026-04-04T07:02:52.001Z</time></trkpt><trkpt lat="41.110566676295655" lon="14.446866148293147"><ele>65.0</ele><time>2026-04-04T07:02:53.001Z</time></trkpt><trkpt lat="41.11067070118883" lon="14.447057233263916"><ele>65.0</ele><time>2026-04-04T07:02:54.001Z</time></trkpt><trkpt lat="41.11076568426556" lon="14.447241782058414"><ele>65.0</ele><time>2026-04-04T07:02:55.001Z</time></trkpt><trkpt lat="41.11085683475358" lon="14.447425169668348"><ele>63.0</ele><time>2026-04-04T07:02:56.001Z</time></trkpt><trkpt lat="41.11094316479474" lon="14.447606798429643"><ele>61.0</ele><time>2026-04-04T07:02:57.001Z</time></trkpt><trkpt lat="41.11101301937308" lon="14.447781594535206"><ele>59.0</ele><time>2026-04-04T07:02:58.001Z</time></trkpt><trkpt lat="41.11107603378305" lon="14.447954221779343"><ele>58.0</ele><time>2026-04-04T07:02:59.001Z</time></trkpt><trkpt lat="41.11113390959891" lon="14.448125351608182"><ele>57.0</ele><time>2026-04-04T07:03:00.001Z</time></trkpt><trkpt lat="41.111183854959926" lon="14.448289730214878"><ele>56.0</ele><time>2026-04-04T07:03:01.001Z</time></trkpt><trkpt lat="41.11123899175407" lon="14.448468133763923"><ele>55.0</ele><time>2026-04-04T07:03:02.001Z</time></trkpt><trkpt lat="41.1113062131404" lon="14.448676583450712"><ele>53.33333333333333</ele><time>2026-04-04T07:03:03.001Z</time></trkpt><trkpt lat="41.11137343021478" lon="14.4488937830595"><ele>51.66666666666667</ele><time>2026-04-04T07:03:04.001Z</time></trkpt><trkpt lat="41.11144056302026" lon="14.44912663265387"><ele>50.0</ele><time>2026-04-04T07:03:05.001Z</time></trkpt><trkpt lat="41.11150530800626" lon="14.449369266339385"><ele>50.0</ele><time>2026-04-04T07:03:06.001Z</time></trkpt><trkpt lat="41.1115721342377" lon="14.449615948031273"><ele>50.0</ele><time>2026-04-04T07:03:07.001Z</time></trkpt><trkpt lat="41.111646184729295" lon="14.449875548434589"><ele>50.0</ele><time>2026-04-04T07:03:08.001Z</time></trkpt><trkpt lat="41.111720323129504" lon="14.450140258299909"><ele>49.66666666666667</ele><time>2026-04-04T07:03:09.001Z</time></trkpt><trkpt lat="41.111794063746615" lon="14.450406721289273"><ele>49.33333333333333</ele><time>2026-04-04T07:03:10.001Z</time></trkpt><trkpt lat="41.11186647933344" lon="14.450670417420705"><ele>49.0</ele><time>2026-04-04T07:03:11.001Z</time></trkpt><trkpt lat="41.11194006886805" lon="14.450925583372067"><ele>49.0</ele><time>2026-04-04T07:03:12.001Z</time></trkpt><trkpt lat="41.11201802732489" lon="14.451177958674878"><ele>49.0</ele><time>2026-04-04T07:03:13.001Z</time></trkpt><trkpt lat="41.112097466727334" lon="14.45143399605797"><ele>49.0</ele><time>2026-04-04T07:03:14.001Z</time></trkpt><trkpt lat="41.11217764503379" lon="14.451674932139039"><ele>50.666666666666664</ele><time>2026-04-04T07:03:15.001Z</time></trkpt><trkpt lat="41.112265970313985" lon="14.451913940554867"><ele>52.33333333333333</ele><time>2026-04-04T07:03:16.001Z</time></trkpt><trkpt lat="41.1123674057195" lon="14.452141496980483"><ele>54.0</ele><time>2026-04-04T07:03:17.001Z</time></trkpt><trkpt lat="41.11247818758623" lon="14.452361253224487"><ele>56.33333333333333</ele><time>2026-04-04T07:03:18.001Z</time></trkpt><trkpt lat="41.11259408982638" lon="14.452581731173005"><ele>58.666666666666664</ele><time>2026-04-04T07:03:19Z</time></trkpt><trkpt lat="41.11271699439228" lon="14.452801781798971"><ele>61.0</ele><time>2026-04-04T07:03:20Z</time></trkpt><trkpt lat="41.11284835738594" lon="14.453017748745875"><ele>61.33333333333333</ele><time>2026-04-04T07:03:21Z</time></trkpt><trkpt lat="41.112984058926344" lon="14.453218477505056"><ele>61.66666666666667</ele><time>2026-04-04T07:03:22Z</time></trkpt><trkpt lat="41.1131294581761" lon="14.45341814743606"><ele>62.0</ele><time>2026-04-04T07:03:23Z</time></trkpt><trkpt lat="41.113281387983314" lon="14.45360641801449"><ele>62.0</ele><time>2026-04-04T07:03:24Z</time></trkpt><trkpt lat="41.11344164250637" lon="14.453789166317536"><ele>62.0</ele><time>2026-04-04T07:03:25Z</time></trkpt><trkpt lat="41.11361505620984" lon="14.45397254357131"><ele>62.0</ele><time>2026-04-04T07:03:26Z</time></trkpt><trkpt lat="41.113784327387314" lon="14.454119115151006"><ele>62.0</ele><time>2026-04-04T07:03:27Z</time></trkpt><trkpt lat="41.11396737336015" lon="14.454278263159166"><ele>62.0</ele><time>2026-04-04T07:03:28Z</time></trkpt><trkpt lat="41.114144502614124" lon="14.454412807861011"><ele>62.0</ele><time>2026-04-04T07:03:29Z</time></trkpt><trkpt lat="41.114337097884416" lon="14.454543342867606"><ele>62.0</ele><time>2026-04-04T07:03:30Z</time></trkpt><trkpt lat="41.11453911450612" lon="14.454659069728422"><ele>62.0</ele><time>2026-04-04T07:03:31Z</time></trkpt><trkpt lat="41.1147356456193" lon="14.454759352809566"><ele>62.0</ele><time>2026-04-04T07:03:32Z</time></trkpt><trkpt lat="41.1149444169337" lon="14.454859074946835"><ele>61.333333333333336</ele><time>2026-04-04T07:03:33Z</time></trkpt><trkpt lat="41.11515515396515" lon="14.454955182976828"><ele>60.66666666666667</ele><time>2026-04-04T07:03:34Z</time></trkpt><trkpt lat="41.1153579484591" lon="14.455031135181963"><ele>60.0</ele><time>2026-04-04T07:03:35Z</time></trkpt><trkpt lat="41.115574234175966" lon="14.455096617364289"><ele>59.33333333333333</ele><time>2026-04-04T07:03:36Z</time></trkpt><trkpt lat="41.11579278584635" lon="14.455152337100051"><ele>58.666666666666664</ele><time>2026-04-04T07:03:37Z</time></trkpt><trkpt lat="41.116011669299965" lon="14.455206494296013"><ele>58.0</ele><time>2026-04-04T07:03:38Z</time></trkpt><trkpt lat="41.11622231208867" lon="14.455262401641647"><ele>58.0</ele><time>2026-04-04T07:03:39Z</time></trkpt><trkpt lat="41.11643539846015" lon="14.455322818819953"><ele>58.0</ele><time>2026-04-04T07:03:40Z</time></trkpt><trkpt lat="41.1166459670271" lon="14.455384423909683"><ele>58.0</ele><time>2026-04-04T07:03:41Z</time></trkpt><trkpt lat="41.116824514409" lon="14.455438253062884"><ele>60.0</ele><time>2026-04-04T07:03:42Z</time></trkpt><trkpt lat="41.11699486490879" lon="14.45548499315359"><ele>62.0</ele><time>2026-04-04T07:03:43Z</time></trkpt><trkpt lat="41.11717239043436" lon="14.455531655626169"><ele>64.0</ele><time>2026-04-04T07:03:44Z</time></trkpt><trkpt lat="41.117349010805896" lon="14.455580000858458"><ele>64.33333333333333</ele><time>2026-04-04T07:03:45Z</time></trkpt><trkpt lat="41.11752629141721" lon="14.45562778028683"><ele>64.66666666666667</ele><time>2026-04-04T07:03:46Z</time></trkpt><trkpt lat="41.117704629719086" lon="14.455674953673444"><ele>65.0</ele><time>2026-04-04T07:03:47Z</time></trkpt><trkpt lat="41.11787746285518" lon="14.45571917632773"><ele>65.0</ele><time>2026-04-04T07:03:48Z</time></trkpt><trkpt lat="41.11805707728885" lon="14.455767881385048"><ele>65.0</ele><time>2026-04-04T07:03:49Z</time></trkpt><trkpt lat="41.118225838918775" lon="14.455814151798185"><ele>65.0</ele><time>2026-04-04T07:03:50Z</time></trkpt><trkpt lat="41.118402019464185" lon="14.455859230268315"><ele>65.66666666666667</ele><time>2026-04-04T07:03:51Z</time></trkpt><trkpt lat="41.1185814332261" lon="14.455903558765224"><ele>66.33333333333333</ele><time>2026-04-04T07:03:52Z</time></trkpt><trkpt lat="41.118761178948105" lon="14.455950373948957"><ele>67.0</ele><time>2026-04-04T07:03:53Z</time></trkpt><trkpt lat="41.11894409114381" lon="14.455998797373688"><ele>66.66666666666666</ele><time>2026-04-04T07:03:54Z</time></trkpt><trkpt lat="41.11912957926814" lon="14.456048674485885"><ele>66.33333333333333</ele><time>2026-04-04T07:03:55Z</time></trkpt><trkpt lat="41.11931987120657" lon="14.456095398066779"><ele>66.0</ele><time>2026-04-04T07:03:56Z</time></trkpt><trkpt lat="41.11950901105085" lon="14.456143103976647"><ele>66.0</ele><time>2026-04-04T07:03:57Z</time></trkpt><trkpt lat="41.1197025172038" lon="14.456194245914705"><ele>66.0</ele><time>2026-04-04T07:03:58Z</time></trkpt><trkpt lat="41.119890479971176" lon="14.456250091297068"><ele>66.0</ele><time>2026-04-04T07:03:59Z</time></trkpt><trkpt lat="41.12008340372728" lon="14.456309157240499"><ele>66.0</ele><time>2026-04-04T07:04:00Z</time></trkpt><trkpt lat="41.1202789777846" lon="14.456367116816336"><ele>66.0</ele><time>2026-04-04T07:04:01Z</time></trkpt><trkpt lat="41.120476165534896" lon="14.45642107633801"><ele>66.0</ele><time>2026-04-04T07:04:02Z</time></trkpt><trkpt lat="41.12067492894562" lon="14.456477442172643"><ele>65.0</ele><time>2026-04-04T07:04:03Z</time></trkpt><trkpt lat="41.1208747269803" lon="14.456534395990666"><ele>64.0</ele><time>2026-04-04T07:04:04Z</time></trkpt><trkpt lat="41.1210768306766" lon="14.456587326559356"><ele>63.0</ele><time>2026-04-04T07:04:05Z</time></trkpt><trkpt lat="41.12127523680839" lon="14.456633645606134"><ele>63.0</ele><time>2026-04-04T07:04:06Z</time></trkpt><trkpt lat="41.12148445295065" lon="14.456689829015302"><ele>63.0</ele><time>2026-04-04T07:04:07Z</time></trkpt><trkpt lat="41.12167847572845" lon="14.456747485440728"><ele>63.0</ele><time>2026-04-04T07:04:08Z</time></trkpt><trkpt lat="41.12187868431435" lon="14.456817176980968"><ele>62.33333333333333</ele><time>2026-04-04T07:04:09Z</time></trkpt><trkpt lat="41.12207821994667" lon="14.456883931978599"><ele>61.666666666666664</ele><time>2026-04-04T07:04:10Z</time></trkpt><trkpt lat="41.12228328700131" lon="14.456954608749822"><ele>61.0</ele><time>2026-04-04T07:04:11Z</time></trkpt><trkpt lat="41.122481881907845" lon="14.45702107742339"><ele>60.666666666666664</ele><time>2026-04-04T07:04:12Z</time></trkpt><trkpt lat="41.122683772105354" lon="14.457092355667099"><ele>60.33333333333333</ele><time>2026-04-04T07:04:13Z</time></trkpt><trkpt lat="41.122888970994865" lon="14.45716814584449"><ele>60.0</ele><time>2026-04-04T07:04:14Z</time></trkpt><trkpt lat="41.123094349866534" lon="14.457246441757196"><ele>59.33333333333333</ele><time>2026-04-04T07:04:15Z</time></trkpt><trkpt lat="41.12329819858677" lon="14.45732427750861"><ele>58.666666666666664</ele><time>2026-04-04T07:04:16Z</time></trkpt><trkpt lat="41.12349955324505" lon="14.457402278363572"><ele>58.0</ele><time>2026-04-04T07:04:17Z</time></trkpt><trkpt lat="41.123704247197765" lon="14.457483000920917"><ele>58.0</ele><time>2026-04-04T07:04:18Z</time></trkpt><trkpt lat="41.123904563022556" lon="14.45756614120437"><ele>58.0</ele><time>2026-04-04T07:04:19Z</time></trkpt><trkpt lat="41.12410954949863" lon="14.457656422223678"><ele>58.0</ele><time>2026-04-04T07:04:20Z</time></trkpt><trkpt lat="41.12431198192503" lon="14.457739599916282"><ele>58.0</ele><time>2026-04-04T07:04:21Z</time></trkpt><trkpt lat="41.12451505573835" lon="14.457822725427587"><ele>58.0</ele><time>2026-04-04T07:04:22Z</time></trkpt><trkpt lat="41.12470074769615" lon="14.457901043977552"><ele>58.0</ele><time>2026-04-04T07:04:23Z</time></trkpt><trkpt lat="41.12485589578494" lon="14.457972886692021"><ele>57.666666666666664</ele><time>2026-04-04T07:04:24Z</time></trkpt><trkpt lat="41.12500951942734" lon="14.458038478720457"><ele>57.33333333333333</ele><time>2026-04-04T07:04:25Z</time></trkpt><trkpt lat="41.12516154305122" lon="14.458105465730554"><ele>57.0</ele><time>2026-04-04T07:04:26Z</time></trkpt><trkpt lat="41.12531701607788" lon="14.45817478953638"><ele>57.0</ele><time>2026-04-04T07:04:27Z</time></trkpt><trkpt lat="41.125475992607754" lon="14.458245600253663"><ele>57.0</ele><time>2026-04-04T07:04:28Z</time></trkpt><trkpt lat="41.12563300489303" lon="14.458311870539184"><ele>57.0</ele><time>2026-04-04T07:04:29Z</time></trkpt><trkpt lat="41.12579608716177" lon="14.458379020386051"><ele>57.0</ele><time>2026-04-04T07:04:30Z</time></trkpt><trkpt lat="41.12595254536145" lon="14.458447099099072"><ele>57.0</ele><time>2026-04-04T07:04:31Z</time></trkpt><trkpt lat="41.12611248076985" lon="14.458515657263877"><ele>57.0</ele><time>2026-04-04T07:04:32Z</time></trkpt><trkpt lat="41.12627612221776" lon="14.458581990594286"><ele>57.0</ele><time>2026-04-04T07:04:33Z</time></trkpt><trkpt lat="41.12643809079209" lon="14.458646088433373"><ele>57.0</ele><time>2026-04-04T07:04:34Z</time></trkpt><trkpt lat="41.12660353343487" lon="14.458714315841501"><ele>57.0</ele><time>2026-04-04T07:04:35Z</time></trkpt><trkpt lat="41.12676549255194" lon="14.45878270133617"><ele>57.33333333333333</ele><time>2026-04-04T07:04:36Z</time></trkpt><trkpt lat="41.12692912553665" lon="14.458847515178983"><ele>57.666666666666664</ele><time>2026-04-04T07:04:37Z</time></trkpt><trkpt lat="41.12709319729491" lon="14.458910603564346"><ele>58.0</ele><time>2026-04-04T07:04:38Z</time></trkpt><trkpt lat="41.127258752620705" lon="14.45897456284562"><ele>58.0</ele><time>2026-04-04T07:04:39Z</time></trkpt><trkpt lat="41.12742494652791" lon="14.45903675452813"><ele>58.0</ele><time>2026-04-04T07:04:40Z</time></trkpt><trkpt lat="41.12759073276397" lon="14.459093278039099"><ele>58.0</ele><time>2026-04-04T07:04:41Z</time></trkpt><trkpt lat="41.127759330775184" lon="14.459146691796233"><ele>58.0</ele><time>2026-04-04T07:04:42Z</time></trkpt><trkpt lat="41.12792808431037" lon="14.459199305132033"><ele>58.0</ele><time>2026-04-04T07:04:43Z</time></trkpt><trkpt lat="41.12809562227809" lon="14.45925438591651"><ele>58.0</ele><time>2026-04-04T07:04:44Z</time></trkpt><trkpt lat="41.12826446225572" lon="14.459310295325178"><ele>57.666666666666664</ele><time>2026-04-04T07:04:45Z</time></trkpt><trkpt lat="41.12843300133467" lon="14.459359432759232"><ele>57.33333333333333</ele><time>2026-04-04T07:04:46Z</time></trkpt><trkpt lat="41.128604366437365" lon="14.459404170294379"><ele>57.0</ele><time>2026-04-04T07:04:47Z</time></trkpt><trkpt lat="41.128774748774454" lon="14.459449444397265"><ele>57.0</ele><time>2026-04-04T07:04:48Z</time></trkpt><trkpt lat="41.1289440417439" lon="14.459493765384781"><ele>57.0</ele><time>2026-04-04T07:04:49Z</time></trkpt><trkpt lat="41.12911496986879" lon="14.459537866279646"><ele>57.0</ele><time>2026-04-04T07:04:50Z</time></trkpt><trkpt lat="41.129291210168795" lon="14.459578146539737"><ele>57.33333333333333</ele><time>2026-04-04T07:04:51Z</time></trkpt><trkpt lat="41.129467797261086" lon="14.45961415347013"><ele>57.666666666666664</ele><time>2026-04-04T07:04:52.001Z</time></trkpt><trkpt lat="41.129644448373874" lon="14.45964501231402"><ele>58.0</ele><time>2026-04-04T07:04:53.001Z</time></trkpt><trkpt lat="41.12982829156325" lon="14.459675994681898"><ele>58.0</ele><time>2026-04-04T07:04:54.001Z</time></trkpt><trkpt lat="41.13000758046927" lon="14.459709468111342"><ele>58.0</ele><time>2026-04-04T07:04:55.001Z</time></trkpt><trkpt lat="41.13018684182064" lon="14.459743388453905"><ele>58.0</ele><time>2026-04-04T07:04:56.001Z</time></trkpt><trkpt lat="41.13036463571908" lon="14.459772746822237"><ele>58.0</ele><time>2026-04-04T07:04:57.001Z</time></trkpt><trkpt lat="41.130546917530005" lon="14.45979988489494"><ele>58.0</ele><time>2026-04-04T07:04:58.001Z</time></trkpt><trkpt lat="41.13072426704198" lon="14.459827430666754"><ele>58.0</ele><time>2026-04-04T07:04:59.001Z</time></trkpt><trkpt lat="41.13090957717069" lon="14.459852623635287"><ele>58.33333333333333</ele><time>2026-04-04T07:05:00.001Z</time></trkpt><trkpt lat="41.13108987493425" lon="14.459873892755667"><ele>58.66666666666667</ele><time>2026-04-04T07:05:01.001Z</time></trkpt><trkpt lat="41.13127339395217" lon="14.45989368967885"><ele>59.0</ele><time>2026-04-04T07:05:02.001Z</time></trkpt><trkpt lat="41.131455136507206" lon="14.45991263912773"><ele>57.66666666666667</ele><time>2026-04-04T07:05:03.001Z</time></trkpt><trkpt lat="41.131639019888304" lon="14.459934406119007"><ele>56.33333333333333</ele><time>2026-04-04T07:05:04.001Z</time></trkpt><trkpt lat="41.13181849545783" lon="14.459958588901072"><ele>55.0</ele><time>2026-04-04T07:05:05.001Z</time></trkpt><trkpt lat="41.13200079744105" lon="14.459984452475755"><ele>55.0</ele><time>2026-04-04T07:05:06.001Z</time></trkpt><trkpt lat="41.13218085316693" lon="14.460008298181213"><ele>55.0</ele><time>2026-04-04T07:05:07.001Z</time></trkpt><trkpt lat="41.13236302168561" lon="14.460031510442741"><ele>55.0</ele><time>2026-04-04T07:05:08.001Z</time></trkpt><trkpt lat="41.132545517423345" lon="14.460055245362485"><ele>53.0</ele><time>2026-04-04T07:05:09.001Z</time></trkpt><trkpt lat="41.13272461052428" lon="14.46008085200508"><ele>51.0</ele><time>2026-04-04T07:05:10.001Z</time></trkpt><trkpt lat="41.1329071414546" lon="14.460110017696762"><ele>49.0</ele><time>2026-04-04T07:05:11.001Z</time></trkpt><trkpt lat="41.13308738043028" lon="14.460135817835427"><ele>49.33333333333333</ele><time>2026-04-04T07:05:12.001Z</time></trkpt><trkpt lat="41.13326969268045" lon="14.460160279202999"><ele>49.66666666666667</ele><time>2026-04-04T07:05:13.001Z</time></trkpt><trkpt lat="41.13344973054324" lon="14.460182903953571"><ele>50.0</ele><time>2026-04-04T07:05:14.001Z</time></trkpt><trkpt lat="41.13363249623166" lon="14.460206776806908"><ele>50.0</ele><time>2026-04-04T07:05:15.001Z</time></trkpt><trkpt lat="41.13381182167194" lon="14.460229747044831"><ele>50.0</ele><time>2026-04-04T07:05:16.001Z</time></trkpt><trkpt lat="41.13399370697766" lon="14.460254029504178"><ele>50.0</ele><time>2026-04-04T07:05:17.001Z</time></trkpt><trkpt lat="41.13417346643122" lon="14.460279426854425"><ele>52.333333333333336</ele><time>2026-04-04T07:05:18.001Z</time></trkpt><trkpt lat="41.134351438680724" lon="14.460304955000655"><ele>54.66666666666667</ele><time>2026-04-04T07:05:19.001Z</time></trkpt><trkpt lat="41.13453313675597" lon="14.460333609621589"><ele>57.0</ele><time>2026-04-04T07:05:20.001Z</time></trkpt><trkpt lat="41.13471192813344" lon="14.46036662306263"><ele>57.33333333333333</ele><time>2026-04-04T07:05:21.001Z</time></trkpt><trkpt lat="41.134888596484835" lon="14.460401709507419"><ele>57.666666666666664</ele><time>2026-04-04T07:05:22.001Z</time></trkpt><trkpt lat="41.13506620111314" lon="14.46045275591482"><ele>58.0</ele><time>2026-04-04T07:05:23.001Z</time></trkpt><trkpt lat="41.13524129710851" lon="14.460505412545992"><ele>58.0</ele><time>2026-04-04T07:05:24.001Z</time></trkpt><trkpt lat="41.13541623848068" lon="14.460559277091159"><ele>58.0</ele><time>2026-04-04T07:05:25Z</time></trkpt><trkpt lat="41.13559463307085" lon="14.460621135784661"><ele>58.0</ele><time>2026-04-04T07:05:26Z</time></trkpt><trkpt lat="41.1357683681819" lon="14.46068910805078"><ele>58.0</ele><time>2026-04-04T07:05:27Z</time></trkpt><trkpt lat="41.13594040091438" lon="14.460766007024851"><ele>58.0</ele><time>2026-04-04T07:05:28Z</time></trkpt><trkpt lat="41.13610877598638" lon="14.460846750457288"><ele>58.0</ele><time>2026-04-04T07:05:29Z</time></trkpt><trkpt lat="41.13628128660152" lon="14.460926002847616"><ele>58.0</ele><time>2026-04-04T07:05:30Z</time></trkpt><trkpt lat="41.13645546045624" lon="14.461004231017329"><ele>58.0</ele><time>2026-04-04T07:05:31Z</time></trkpt><trkpt lat="41.13662865036325" lon="14.461076978552143"><ele>58.0</ele><time>2026-04-04T07:05:32Z</time></trkpt><trkpt lat="41.13680515234807" lon="14.461147529496982"><ele>57.0</ele><time>2026-04-04T07:05:33Z</time></trkpt><trkpt lat="41.13698451159859" lon="14.46121452239458"><ele>56.0</ele><time>2026-04-04T07:05:34Z</time></trkpt><trkpt lat="41.137164275055994" lon="14.46127787709128"><ele>55.0</ele><time>2026-04-04T07:05:35Z</time></trkpt><trkpt lat="41.13734852371155" lon="14.461333114456647"><ele>55.0</ele><time>2026-04-04T07:05:36Z</time></trkpt><trkpt lat="41.13752937860646" lon="14.46138271752446"><ele>55.0</ele><time>2026-04-04T07:05:37Z</time></trkpt><trkpt lat="41.137714759352534" lon="14.46142019082912"><ele>55.0</ele><time>2026-04-04T07:05:38Z</time></trkpt><trkpt lat="41.13790157658666" lon="14.461454493917188"><ele>55.0</ele><time>2026-04-04T07:05:39Z</time></trkpt><trkpt lat="41.13808775951561" lon="14.461486083144504"><ele>55.0</ele><time>2026-04-04T07:05:40Z</time></trkpt><trkpt lat="41.13827598582097" lon="14.461511117408486"><ele>55.0</ele><time>2026-04-04T07:05:41Z</time></trkpt><trkpt lat="41.138464233620624" lon="14.461525074100624"><ele>55.0</ele><time>2026-04-04T07:05:42Z</time></trkpt><trkpt lat="41.13865072240838" lon="14.461533964155839"><ele>55.0</ele><time>2026-04-04T07:05:43Z</time></trkpt><trkpt lat="41.13884395986233" lon="14.46153300357808"><ele>55.0</ele><time>2026-04-04T07:05:44Z</time></trkpt><trkpt lat="41.13902988147619" lon="14.461533969571075"><ele>55.33333333333333</ele><time>2026-04-04T07:05:45Z</time></trkpt><trkpt lat="41.1392182584989" lon="14.461534334714829"><ele>55.66666666666667</ele><time>2026-04-04T07:05:46Z</time></trkpt><trkpt lat="41.139410368326345" lon="14.461540250951037"><ele>56.0</ele><time>2026-04-04T07:05:47Z</time></trkpt><trkpt lat="41.13960146545345" lon="14.461548450589833"><ele>56.0</ele><time>2026-04-04T07:05:48Z</time></trkpt><trkpt lat="41.13978849631818" lon="14.461552111980778"><ele>56.0</ele><time>2026-04-04T07:05:49Z</time></trkpt><trkpt lat="41.1399862916854" lon="14.461548337710818"><ele>56.0</ele><time>2026-04-04T07:05:50Z</time></trkpt><trkpt lat="41.1401698242125" lon="14.461561370245413"><ele>56.0</ele><time>2026-04-04T07:05:51Z</time></trkpt><trkpt lat="41.140358716726595" lon="14.461576182307178"><ele>56.0</ele><time>2026-04-04T07:05:52Z</time></trkpt><trkpt lat="41.14054811714862" lon="14.461596215537226"><ele>56.0</ele><time>2026-04-04T07:05:53Z</time></trkpt><trkpt lat="41.140737983716896" lon="14.461622105112646"><ele>56.0</ele><time>2026-04-04T07:05:54Z</time></trkpt><trkpt lat="41.14093115468867" lon="14.461653889590108"><ele>56.0</ele><time>2026-04-04T07:05:55Z</time></trkpt><trkpt lat="41.141126616055196" lon="14.461697242130539"><ele>56.0</ele><time>2026-04-04T07:05:56Z</time></trkpt><trkpt lat="41.14130820728436" lon="14.461747202569823"><ele>56.0</ele><time>2026-04-04T07:05:57Z</time></trkpt><trkpt lat="41.14150470893757" lon="14.461805490453225"><ele>56.0</ele><time>2026-04-04T07:05:58Z</time></trkpt><trkpt lat="41.141701304213804" lon="14.461864982432648"><ele>56.0</ele><time>2026-04-04T07:05:59Z</time></trkpt><trkpt lat="41.14190065543974" lon="14.46192063568538"><ele>56.0</ele><time>2026-04-04T07:06:00Z</time></trkpt><trkpt lat="41.142102830689254" lon="14.461983255705036"><ele>56.0</ele><time>2026-04-04T07:06:01Z</time></trkpt><trkpt lat="41.142291576429635" lon="14.462052588271005"><ele>56.0</ele><time>2026-04-04T07:06:02Z</time></trkpt><trkpt lat="41.14248548803306" lon="14.46213170531608"><ele>56.0</ele><time>2026-04-04T07:06:03Z</time></trkpt><trkpt lat="41.1426807521576" lon="14.462211852807622"><ele>56.0</ele><time>2026-04-04T07:06:04Z</time></trkpt><trkpt lat="41.14287391217667" lon="14.46229215235949"><ele>56.0</ele><time>2026-04-04T07:06:05Z</time></trkpt><trkpt lat="41.14306867204659" lon="14.462373806380908"><ele>55.333333333333336</ele><time>2026-04-04T07:06:06Z</time></trkpt><trkpt lat="41.143265487384156" lon="14.462457307564808"><ele>54.66666666666667</ele><time>2026-04-04T07:06:07Z</time></trkpt><trkpt lat="41.14345909678818" lon="14.462538291099309"><ele>54.0</ele><time>2026-04-04T07:06:08Z</time></trkpt><trkpt lat="41.1436491599542" lon="14.462618688333801"><ele>54.0</ele><time>2026-04-04T07:06:09Z</time></trkpt><trkpt lat="41.143843716673935" lon="14.462702268823572"><ele>54.0</ele><time>2026-04-04T07:06:10Z</time></trkpt><trkpt lat="41.14403493837545" lon="14.46278425474879"><ele>54.0</ele><time>2026-04-04T07:06:11Z</time></trkpt><trkpt lat="41.144225959257604" lon="14.462865899446765"><ele>54.66666666666667</ele><time>2026-04-04T07:06:12Z</time></trkpt><trkpt lat="41.14441389472739" lon="14.462942304988772"><ele>55.333333333333336</ele><time>2026-04-04T07:06:13Z</time></trkpt><trkpt lat="41.14460348635534" lon="14.463014738659409"><ele>56.0</ele><time>2026-04-04T07:06:14Z</time></trkpt><trkpt lat="41.14479552001602" lon="14.463074716814063"><ele>56.0</ele><time>2026-04-04T07:06:15Z</time></trkpt><trkpt lat="41.14498617937307" lon="14.463115101524933"><ele>56.0</ele><time>2026-04-04T07:06:16Z</time></trkpt><trkpt lat="41.1451789893883" lon="14.46313989943807"><ele>56.0</ele><time>2026-04-04T07:06:17Z</time></trkpt><trkpt lat="41.145372471978575" lon="14.463152293152417"><ele>56.0</ele><time>2026-04-04T07:06:18Z</time></trkpt><trkpt lat="41.145565909265855" lon="14.463152230122862"><ele>56.0</ele><time>2026-04-04T07:06:19Z</time></trkpt><trkpt lat="41.145759564865216" lon="14.4631350512682"><ele>56.0</ele><time>2026-04-04T07:06:20Z</time></trkpt><trkpt lat="41.14595628202601" lon="14.463103439162403"><ele>56.0</ele><time>2026-04-04T07:06:21Z</time></trkpt><trkpt lat="41.14615067919419" lon="14.463050289300552"><ele>56.0</ele><time>2026-04-04T07:06:22Z</time></trkpt><trkpt lat="41.146338808914656" lon="14.46297535468408"><ele>56.0</ele><time>2026-04-04T07:06:23Z</time></trkpt><trkpt lat="41.14653045763487" lon="14.46289215907274"><ele>55.333333333333336</ele><time>2026-04-04T07:06:24Z</time></trkpt><trkpt lat="41.14671956426861" lon="14.462799212183352"><ele>54.66666666666667</ele><time>2026-04-04T07:06:25Z</time></trkpt><trkpt lat="41.14690372544034" lon="14.462686948201638"><ele>54.0</ele><time>2026-04-04T07:06:26Z</time></trkpt><trkpt lat="41.147085358048145" lon="14.462558514195686"><ele>54.0</ele><time>2026-04-04T07:06:27Z</time></trkpt><trkpt lat="41.147261592275925" lon="14.462422141490588"><ele>54.0</ele><time>2026-04-04T07:06:28Z</time></trkpt><trkpt lat="41.147444908276356" lon="14.462286973966878"><ele>54.0</ele><time>2026-04-04T07:06:29Z</time></trkpt><trkpt lat="41.147631983002135" lon="14.462151935786661"><ele>53.33333333333333</ele><time>2026-04-04T07:06:30Z</time></trkpt><trkpt lat="41.14781791169993" lon="14.46201775169478"><ele>52.666666666666664</ele><time>2026-04-04T07:06:31Z</time></trkpt><trkpt lat="41.148006527077825" lon="14.461879936060766"><ele>52.0</ele><time>2026-04-04T07:06:32Z</time></trkpt><trkpt lat="41.148205478072974" lon="14.461728604460385"><ele>51.0</ele><time>2026-04-04T07:06:33Z</time></trkpt><trkpt lat="41.14842500500751" lon="14.461580100703207"><ele>50.0</ele><time>2026-04-04T07:06:34Z</time></trkpt><trkpt lat="41.148581913234" lon="14.4614428768548"><ele>49.0</ele><time>2026-04-04T07:06:35Z</time></trkpt><trkpt lat="41.14877712093444" lon="14.461300314765516"><ele>49.33333333333333</ele><time>2026-04-04T07:06:36Z</time></trkpt><trkpt lat="41.14897209524492" lon="14.46115886477118"><ele>49.66666666666667</ele><time>2026-04-04T07:06:37Z</time></trkpt><trkpt lat="41.149168307567" lon="14.4610158336697"><ele>50.0</ele><time>2026-04-04T07:06:38Z</time></trkpt><trkpt lat="41.149362298413074" lon="14.460871647945787"><ele>47.66666666666667</ele><time>2026-04-04T07:06:39Z</time></trkpt><trkpt lat="41.149556031739024" lon="14.460727891768721"><ele>45.333333333333336</ele><time>2026-04-04T07:06:40Z</time></trkpt><trkpt lat="41.149747030163965" lon="14.460584975258906"><ele>43.0</ele><time>2026-04-04T07:06:41Z</time></trkpt><trkpt lat="41.1499404308603" lon="14.460442842431641"><ele>43.0</ele><time>2026-04-04T07:06:42Z</time></trkpt><trkpt lat="41.15012973030471" lon="14.460302333126776"><ele>43.0</ele><time>2026-04-04T07:06:43Z</time></trkpt><trkpt lat="41.15032102765532" lon="14.460165535052948"><ele>43.0</ele><time>2026-04-04T07:06:44Z</time></trkpt><trkpt lat="41.15050472737187" lon="14.460030703477214"><ele>43.0</ele><time>2026-04-04T07:06:45Z</time></trkpt><trkpt lat="41.15069724037345" lon="14.4598933953391"><ele>43.0</ele><time>2026-04-04T07:06:46Z</time></trkpt><trkpt lat="41.15088690298863" lon="14.459765001466932"><ele>43.0</ele><time>2026-04-04T07:06:47Z</time></trkpt><trkpt lat="41.151079418879675" lon="14.459647329576395"><ele>43.333333333333336</ele><time>2026-04-04T07:06:48Z</time></trkpt><trkpt lat="41.15127634811404" lon="14.459537123222132"><ele>43.666666666666664</ele><time>2026-04-04T07:06:49Z</time></trkpt><trkpt lat="41.1514770940588" lon="14.459439290146475"><ele>44.0</ele><time>2026-04-04T07:06:50Z</time></trkpt><trkpt lat="41.15167714970016" lon="14.459354989922884"><ele>44.0</ele><time>2026-04-04T07:06:51Z</time></trkpt><trkpt lat="41.15188603606976" lon="14.459289109019718"><ele>44.0</ele><time>2026-04-04T07:06:52Z</time></trkpt><trkpt lat="41.15209591424312" lon="14.45923983218075"><ele>44.0</ele><time>2026-04-04T07:06:53Z</time></trkpt><trkpt lat="41.1523142607543" lon="14.459205640022994"><ele>45.666666666666664</ele><time>2026-04-04T07:06:54Z</time></trkpt><trkpt lat="41.15252849369375" lon="14.459184357103249"><ele>47.33333333333333</ele><time>2026-04-04T07:06:55Z</time></trkpt><trkpt lat="41.15275645025298" lon="14.45918341047381"><ele>49.0</ele><time>2026-04-04T07:06:56Z</time></trkpt><trkpt lat="41.152980195022835" lon="14.45919587536116"><ele>49.0</ele><time>2026-04-04T07:06:57Z</time></trkpt><trkpt lat="41.153198713721345" lon="14.459221448232357"><ele>49.0</ele><time>2026-04-04T07:06:58Z</time></trkpt><trkpt lat="41.15341809792692" lon="14.459260578593494"><ele>49.0</ele><time>2026-04-04T07:06:59Z</time></trkpt><trkpt lat="41.15364079006075" lon="14.459256122406549"><ele>47.0</ele><time>2026-04-04T07:07:00Z</time></trkpt><trkpt lat="41.153861841315866" lon="14.459382318031045"><ele>45.0</ele><time>2026-04-04T07:07:01Z</time></trkpt><trkpt lat="41.1540782614164" lon="14.459468223355302"><ele>44.5</ele><time>2026-04-04T07:07:02Z</time></trkpt><trkpt lat="41.15429351182721" lon="14.459580091917697"><ele>44.0</ele><time>2026-04-04T07:07:03Z</time></trkpt><trkpt lat="41.154508544778444" lon="14.459711133590949"><ele>44.0</ele><time>2026-04-04T07:07:04Z</time></trkpt><trkpt lat="41.15471717973563" lon="14.459841847265368"><ele>44.0</ele><time>2026-04-04T07:07:05Z</time></trkpt><trkpt lat="41.15492877609894" lon="14.45997300990975"><ele>41.0</ele><time>2026-04-04T07:07:06Z</time></trkpt><trkpt lat="41.15514097765066" lon="14.460100282535718"><ele>38.0</ele><time>2026-04-04T07:07:07Z</time></trkpt><trkpt lat="41.15535188139038" lon="14.46022714838089"><ele>38.0</ele><time>2026-04-04T07:07:08Z</time></trkpt><trkpt lat="41.15556369732977" lon="14.460358354743715"><ele>38.0</ele><time>2026-04-04T07:07:09Z</time></trkpt><trkpt lat="41.15576962064732" lon="14.460484786849563"><ele>35.5</ele><time>2026-04-04T07:07:10Z</time></trkpt><trkpt lat="41.15597791552253" lon="14.46061413941042"><ele>33.0</ele><time>2026-04-04T07:07:11Z</time></trkpt><trkpt lat="41.156178921401" lon="14.460735591466857"><ele>33.0</ele><time>2026-04-04T07:07:12Z</time></trkpt><trkpt lat="41.156387204250976" lon="14.460861049095044"><ele>33.0</ele><time>2026-04-04T07:07:13Z</time></trkpt><trkpt lat="41.156592166137315" lon="14.460979076392027"><ele>34.0</ele><time>2026-04-04T07:07:14Z</time></trkpt><trkpt lat="41.15679568289388" lon="14.461097677646903"><ele>35.0</ele><time>2026-04-04T07:07:15Z</time></trkpt><trkpt lat="41.1569963452892" lon="14.461214340704114"><ele>36.0</ele><time>2026-04-04T07:07:16Z</time></trkpt><trkpt lat="41.157209064171845" lon="14.461336404249817"><ele>36.0</ele><time>2026-04-04T07:07:17Z</time></trkpt><trkpt lat="41.15742088885967" lon="14.461441391555114"><ele>36.0</ele><time>2026-04-04T07:07:18Z</time></trkpt><trkpt lat="41.157632730369116" lon="14.461540798800664"><ele>36.0</ele><time>2026-04-04T07:07:19.001Z</time></trkpt><trkpt lat="41.157845262167285" lon="14.461638072602963"><ele>36.0</ele><time>2026-04-04T07:07:20.001Z</time></trkpt><trkpt lat="41.158059506674" lon="14.46173256438623"><ele>35.5</ele><time>2026-04-04T07:07:21.001Z</time></trkpt><trkpt lat="41.15827697930224" lon="14.461817238151605"><ele>35.0</ele><time>2026-04-04T07:07:22.001Z</time></trkpt><trkpt lat="41.15849659871376" lon="14.461893848291641"><ele>35.0</ele><time>2026-04-04T07:07:23.001Z</time></trkpt><trkpt lat="41.15871578416043" lon="14.461965697853005"><ele>35.0</ele><time>2026-04-04T07:07:24.001Z</time></trkpt><trkpt lat="41.158936261591336" lon="14.462033309737846"><ele>35.5</ele><time>2026-04-04T07:07:25.001Z</time></trkpt><trkpt lat="41.1591573583245" lon="14.462101679827095"><ele>36.0</ele><time>2026-04-04T07:07:26.001Z</time></trkpt><trkpt lat="41.15937991917681" lon="14.462167650841202"><ele>36.0</ele><time>2026-04-04T07:07:27.001Z</time></trkpt><trkpt lat="41.159600569587795" lon="14.462233191189478"><ele>36.0</ele><time>2026-04-04T07:07:28.001Z</time></trkpt><trkpt lat="41.15982038836004" lon="14.4622985591236"><ele>36.0</ele><time>2026-04-04T07:07:29.001Z</time></trkpt><trkpt lat="41.160039579078976" lon="14.462361093017789"><ele>36.0</ele><time>2026-04-04T07:07:30.001Z</time></trkpt><trkpt lat="41.160254045478574" lon="14.462421991891816"><ele>36.0</ele><time>2026-04-04T07:07:31Z</time></trkpt><trkpt lat="41.1604731487437" lon="14.46248101496628"><ele>36.0</ele><time>2026-04-04T07:07:32Z</time></trkpt><trkpt lat="41.160685553264095" lon="14.462538911281285"><ele>36.0</ele><time>2026-04-04T07:07:33Z</time></trkpt><trkpt lat="41.16089686184289" lon="14.462598649399803"><ele>36.0</ele><time>2026-04-04T07:07:34Z</time></trkpt><trkpt lat="41.16111486283663" lon="14.46266555523279"><ele>36.333333333333336</ele><time>2026-04-04T07:07:35Z</time></trkpt><trkpt lat="41.161366191967176" lon="14.462749424905963"><ele>36.66666666666667</ele><time>2026-04-04T07:07:36Z</time></trkpt><trkpt lat="41.16151146460441" lon="14.462774158145985"><ele>37.0</ele><time>2026-04-04T07:07:37Z</time></trkpt><trkpt lat="41.16169097764799" lon="14.462832322478615"><ele>37.0</ele><time>2026-04-04T07:07:38Z</time></trkpt><trkpt lat="41.161871951817254" lon="14.4628931774676"><ele>37.0</ele><time>2026-04-04T07:07:39Z</time></trkpt><trkpt lat="41.16205192719439" lon="14.462950494291464"><ele>37.0</ele><time>2026-04-04T07:07:40Z</time></trkpt><trkpt lat="41.162223087185694" lon="14.463005097691761"><ele>36.333333333333336</ele><time>2026-04-04T07:07:41Z</time></trkpt><trkpt lat="41.1623991434739" lon="14.463057667828117"><ele>35.666666666666664</ele><time>2026-04-04T07:07:42Z</time></trkpt><trkpt lat="41.16257765277911" lon="14.463106937325787"><ele>35.0</ele><time>2026-04-04T07:07:43Z</time></trkpt><trkpt lat="41.162754652913776" lon="14.463151975556405"><ele>35.0</ele><time>2026-04-04T07:07:44Z</time></trkpt><trkpt lat="41.16293918259477" lon="14.463202558499011"><ele>35.0</ele><time>2026-04-04T07:07:45Z</time></trkpt><trkpt lat="41.163124178657284" lon="14.463256916152396"><ele>35.0</ele><time>2026-04-04T07:07:46Z</time></trkpt><trkpt lat="41.16331166732204" lon="14.46331548453691"><ele>36.0</ele><time>2026-04-04T07:07:47Z</time></trkpt><trkpt lat="41.1635012828234" lon="14.463366311474706"><ele>37.0</ele><time>2026-04-04T07:07:48Z</time></trkpt><trkpt lat="41.16369284220098" lon="14.46341950150725"><ele>38.0</ele><time>2026-04-04T07:07:49Z</time></trkpt><trkpt lat="41.163883504717276" lon="14.463472847152245"><ele>38.0</ele><time>2026-04-04T07:07:50Z</time></trkpt><trkpt lat="41.164079105763044" lon="14.46352665657761"><ele>38.0</ele><time>2026-04-04T07:07:51Z</time></trkpt><trkpt lat="41.164272308449085" lon="14.463580110511167"><ele>38.0</ele><time>2026-04-04T07:07:52Z</time></trkpt><trkpt lat="41.16447109809479" lon="14.463629724969874"><ele>38.0</ele><time>2026-04-04T07:07:53Z</time></trkpt><trkpt lat="41.164669796023745" lon="14.46368291109501"><ele>38.0</ele><time>2026-04-04T07:07:54Z</time></trkpt><trkpt lat="41.16486653220446" lon="14.46373911003785"><ele>38.0</ele><time>2026-04-04T07:07:55Z</time></trkpt><trkpt lat="41.16506359215205" lon="14.463795486720187"><ele>37.666666666666664</ele><time>2026-04-04T07:07:56Z</time></trkpt><trkpt lat="41.16524883570598" lon="14.463847049339893"><ele>37.333333333333336</ele><time>2026-04-04T07:07:57Z</time></trkpt><trkpt lat="41.16542039430161" lon="14.463903362972223"><ele>37.0</ele><time>2026-04-04T07:07:58Z</time></trkpt><trkpt lat="41.16559563560503" lon="14.463957397238763"><ele>36.66666666666667</ele><time>2026-04-04T07:07:59Z</time></trkpt><trkpt lat="41.16578452293769" lon="14.464024602961945"><ele>36.333333333333336</ele><time>2026-04-04T07:08:00Z</time></trkpt><trkpt lat="41.16597594566672" lon="14.464099852491666"><ele>36.0</ele><time>2026-04-04T07:08:01Z</time></trkpt><trkpt lat="41.16617226340216" lon="14.464178260341196"><ele>36.0</ele><time>2026-04-04T07:08:02Z</time></trkpt><trkpt lat="41.166368859895485" lon="14.464256260643904"><ele>36.0</ele><time>2026-04-04T07:08:03Z</time></trkpt><trkpt lat="41.166571221820035" lon="14.464345811258669"><ele>36.0</ele><time>2026-04-04T07:08:04Z</time></trkpt><trkpt lat="41.16677560188175" lon="14.464439154312892"><ele>36.333333333333336</ele><time>2026-04-04T07:08:05Z</time></trkpt><trkpt lat="41.16697998102418" lon="14.464545653269635"><ele>36.66666666666667</ele><time>2026-04-04T07:08:06Z</time></trkpt><trkpt lat="41.16718446881775" lon="14.464661446899823"><ele>37.0</ele><time>2026-04-04T07:08:07Z</time></trkpt><trkpt lat="41.16738896126148" lon="14.464775476721183"><ele>37.0</ele><time>2026-04-04T07:08:08Z</time></trkpt><trkpt lat="41.167596913404985" lon="14.464900182024913"><ele>37.0</ele><time>2026-04-04T07:08:09Z</time></trkpt><trkpt lat="41.16780272717702" lon="14.46503129454788"><ele>37.0</ele><time>2026-04-04T07:08:10Z</time></trkpt><trkpt lat="41.1680095284237" lon="14.465168312735402"><ele>37.0</ele><time>2026-04-04T07:08:11Z</time></trkpt><trkpt lat="41.16821302501245" lon="14.465304790717786"><ele>38.0</ele><time>2026-04-04T07:08:12Z</time></trkpt><trkpt lat="41.168418976611754" lon="14.465449861155369"><ele>39.0</ele><time>2026-04-04T07:08:13Z</time></trkpt><trkpt lat="41.16862141104049" lon="14.465597203615994"><ele>39.0</ele><time>2026-04-04T07:08:14Z</time></trkpt><trkpt lat="41.168821511311606" lon="14.465756850672681"><ele>39.0</ele><time>2026-04-04T07:08:15Z</time></trkpt><trkpt lat="41.169021340162175" lon="14.465915545634644"><ele>37.0</ele><time>2026-04-04T07:08:16Z</time></trkpt><trkpt lat="41.16922078030204" lon="14.466071567160743"><ele>35.0</ele><time>2026-04-04T07:08:17Z</time></trkpt><trkpt lat="41.16942204816111" lon="14.466228437015996"><ele>37.5</ele><time>2026-04-04T07:08:18Z</time></trkpt><trkpt lat="41.16962547843075" lon="14.46637896933714"><ele>40.0</ele><time>2026-04-04T07:08:19Z</time></trkpt><trkpt lat="41.16982716139133" lon="14.466524061055837"><ele>39.0</ele><time>2026-04-04T07:08:20Z</time></trkpt><trkpt lat="41.17002955476096" lon="14.466672132479983"><ele>38.0</ele><time>2026-04-04T07:08:21Z</time></trkpt><trkpt lat="41.170230422759474" lon="14.466823684741717"><ele>38.0</ele><time>2026-04-04T07:08:22Z</time></trkpt><trkpt lat="41.17043014987646" lon="14.466975648693225"><ele>38.0</ele><time>2026-04-04T07:08:23Z</time></trkpt><trkpt lat="41.17063551041915" lon="14.467134120702362"><ele>37.0</ele><time>2026-04-04T07:08:24Z</time></trkpt><trkpt lat="41.170833133908346" lon="14.467281456307974"><ele>36.0</ele><time>2026-04-04T07:08:25Z</time></trkpt><trkpt lat="41.17103341625519" lon="14.467431480274422"><ele>36.0</ele><time>2026-04-04T07:08:26Z</time></trkpt><trkpt lat="41.17123564769405" lon="14.467583628213191"><ele>36.0</ele><time>2026-04-04T07:08:27Z</time></trkpt><trkpt lat="41.171436650652545" lon="14.46773604823087"><ele>36.0</ele><time>2026-04-04T07:08:28Z</time></trkpt><trkpt lat="41.171636211225" lon="14.46788676139366"><ele>36.0</ele><time>2026-04-04T07:08:29Z</time></trkpt><trkpt lat="41.171836986546204" lon="14.468039115405935"><ele>40.0</ele><time>2026-04-04T07:08:30Z</time></trkpt><trkpt lat="41.17203729630693" lon="14.46819013680723"><ele>44.0</ele><time>2026-04-04T07:08:31Z</time></trkpt><trkpt lat="41.17223527061276" lon="14.468338467014943"><ele>41.0</ele><time>2026-04-04T07:08:32Z</time></trkpt><trkpt lat="41.17243635276157" lon="14.468491297641425"><ele>38.0</ele><time>2026-04-04T07:08:33Z</time></trkpt><trkpt lat="41.17263581339353" lon="14.468641671079512"><ele>42.0</ele><time>2026-04-04T07:08:34Z</time></trkpt><trkpt lat="41.172838103367965" lon="14.468792448681231"><ele>46.0</ele><time>2026-04-04T07:08:35Z</time></trkpt><trkpt lat="41.1730406826732" lon="14.468946846285325"><ele>44.0</ele><time>2026-04-04T07:08:36Z</time></trkpt><trkpt lat="41.17324289858034" lon="14.469098397088361"><ele>42.0</ele><time>2026-04-04T07:08:37Z</time></trkpt><trkpt lat="41.1734452081928" lon="14.469256836691365"><ele>42.0</ele><time>2026-04-04T07:08:38Z</time></trkpt><trkpt lat="41.17364906305565" lon="14.46941033858206"><ele>42.0</ele><time>2026-04-04T07:08:39Z</time></trkpt><trkpt lat="41.173853436127544" lon="14.46955958912748"><ele>42.0</ele><time>2026-04-04T07:08:40Z</time></trkpt><trkpt lat="41.174058430559704" lon="14.469704732888893"><ele>42.0</ele><time>2026-04-04T07:08:41Z</time></trkpt><trkpt lat="41.17426335177485" lon="14.469853474196322"><ele>42.0</ele><time>2026-04-04T07:08:42Z</time></trkpt><trkpt lat="41.174466855768266" lon="14.470001347342258"><ele>42.0</ele><time>2026-04-04T07:08:43Z</time></trkpt><trkpt lat="41.17467342086773" lon="14.470161001513311"><ele>42.0</ele><time>2026-04-04T07:08:44Z</time></trkpt><trkpt lat="41.17487764114305" lon="14.470303941598196"><ele>42.0</ele><time>2026-04-04T07:08:45Z</time></trkpt><trkpt lat="41.17508456154725" lon="14.470440189406004"><ele>42.5</ele><time>2026-04-04T07:08:46Z</time></trkpt><trkpt lat="41.17529234506058" lon="14.470572799479841"><ele>43.0</ele><time>2026-04-04T07:08:47Z</time></trkpt><trkpt lat="41.175498093879455" lon="14.470700531346086"><ele>42.5</ele><time>2026-04-04T07:08:48Z</time></trkpt><trkpt lat="41.175704828020876" lon="14.470832766581145"><ele>42.0</ele><time>2026-04-04T07:08:49Z</time></trkpt><trkpt lat="41.1759125797582" lon="14.470964203935864"><ele>42.0</ele><time>2026-04-04T07:08:50Z</time></trkpt><trkpt lat="41.176116446071745" lon="14.471083967151584"><ele>42.0</ele><time>2026-04-04T07:08:51Z</time></trkpt><trkpt lat="41.17632212241416" lon="14.471205876384056"><ele>42.0</ele><time>2026-04-04T07:08:52Z</time></trkpt><trkpt lat="41.17652616685102" lon="14.471323367764825"><ele>42.666666666666664</ele><time>2026-04-04T07:08:53Z</time></trkpt><trkpt lat="41.17672995142102" lon="14.47144424191993"><ele>43.33333333333333</ele><time>2026-04-04T07:08:54Z</time></trkpt><trkpt lat="41.17693390863025" lon="14.47156142603305"><ele>44.0</ele><time>2026-04-04T07:08:55Z</time></trkpt><trkpt lat="41.177137214773616" lon="14.471673628675964"><ele>44.0</ele><time>2026-04-04T07:08:56Z</time></trkpt><trkpt lat="41.17734099519549" lon="14.471788032393773"><ele>44.0</ele><time>2026-04-04T07:08:57Z</time></trkpt><trkpt lat="41.177543659665545" lon="14.47190672132913"><ele>44.0</ele><time>2026-04-04T07:08:58Z</time></trkpt><trkpt lat="41.1777476205288" lon="14.472032465478508"><ele>44.666666666666664</ele><time>2026-04-04T07:08:59Z</time></trkpt><trkpt lat="41.177950724651396" lon="14.472153287481982"><ele>45.333333333333336</ele><time>2026-04-04T07:09:00Z</time></trkpt><trkpt lat="41.17815321867604" lon="14.47226980580036"><ele>46.0</ele><time>2026-04-04T07:09:01Z</time></trkpt><trkpt lat="41.17836062304544" lon="14.472393901197517"><ele>44.0</ele><time>2026-04-04T07:09:02Z</time></trkpt><trkpt lat="41.17856246928857" lon="14.472513125076633"><ele>42.0</ele><time>2026-04-04T07:09:03Z</time></trkpt><trkpt lat="41.17876767766977" lon="14.472634321876912"><ele>40.0</ele><time>2026-04-04T07:09:04Z</time></trkpt><trkpt lat="41.17897440885407" lon="14.472751566927371"><ele>40.0</ele><time>2026-04-04T07:09:05Z</time></trkpt><trkpt lat="41.17918201715814" lon="14.472868949034496"><ele>40.0</ele><time>2026-04-04T07:09:06Z</time></trkpt><trkpt lat="41.17939042206867" lon="14.472989692555018"><ele>40.5</ele><time>2026-04-04T07:09:07Z</time></trkpt><trkpt lat="41.17959946092823" lon="14.473108997471208"><ele>41.0</ele><time>2026-04-04T07:09:08Z</time></trkpt><trkpt lat="41.17981039121842" lon="14.47322677857897"><ele>40.0</ele><time>2026-04-04T07:09:09Z</time></trkpt><trkpt lat="41.18002539212044" lon="14.473341332046148"><ele>39.0</ele><time>2026-04-04T07:09:10Z</time></trkpt><trkpt lat="41.180241610617834" lon="14.47344189881862"><ele>39.0</ele><time>2026-04-04T07:09:11Z</time></trkpt><trkpt lat="41.180461704219944" lon="14.473529848864835"><ele>39.0</ele><time>2026-04-04T07:09:12Z</time></trkpt><trkpt lat="41.18068822623124" lon="14.47360452699694"><ele>39.5</ele><time>2026-04-04T07:09:13Z</time></trkpt><trkpt lat="41.180912385426446" lon="14.473655414226243"><ele>40.0</ele><time>2026-04-04T07:09:14Z</time></trkpt><trkpt lat="41.18114256108255" lon="14.473697352630506"><ele>40.0</ele><time>2026-04-04T07:09:15Z</time></trkpt><trkpt lat="41.18137304704177" lon="14.473717192231904"><ele>40.0</ele><time>2026-04-04T07:09:16Z</time></trkpt><trkpt lat="41.18160020927978" lon="14.473720606635135"><ele>39.5</ele><time>2026-04-04T07:09:17Z</time></trkpt><trkpt lat="41.181830184381226" lon="14.47371357628477"><ele>39.0</ele><time>2026-04-04T07:09:18Z</time></trkpt><trkpt lat="41.18205717329487" lon="14.473688586641718"><ele>39.0</ele><time>2026-04-04T07:09:19Z</time></trkpt><trkpt lat="41.18228303815564" lon="14.473650322580268"><ele>39.0</ele><time>2026-04-04T07:09:20Z</time></trkpt><trkpt lat="41.18250495253437" lon="14.473593710288519"><ele>39.0</ele><time>2026-04-04T07:09:21Z</time></trkpt><trkpt lat="41.182727182704355" lon="14.473530732249099"><ele>39.0</ele><time>2026-04-04T07:09:22Z</time></trkpt><trkpt lat="41.18295178609647" lon="14.473472736961902"><ele>39.0</ele><time>2026-04-04T07:09:23Z</time></trkpt><trkpt lat="41.18317109437878" lon="14.473415758095207"><ele>39.0</ele><time>2026-04-04T07:09:24Z</time></trkpt><trkpt lat="41.18339197178464" lon="14.473356758826924"><ele>39.0</ele><time>2026-04-04T07:09:25Z</time></trkpt><trkpt lat="41.18361140612128" lon="14.473295703962092"><ele>38.5</ele><time>2026-04-04T07:09:26Z</time></trkpt><trkpt lat="41.18383357459101" lon="14.473236123556621"><ele>38.0</ele><time>2026-04-04T07:09:27Z</time></trkpt><trkpt lat="41.18405344450517" lon="14.47317680691794"><ele>38.0</ele><time>2026-04-04T07:09:28Z</time></trkpt><trkpt lat="41.18427638613185" lon="14.473121404675432"><ele>38.0</ele><time>2026-04-04T07:09:29Z</time></trkpt><trkpt lat="41.18449713048377" lon="14.473071655408576"><ele>38.0</ele><time>2026-04-04T07:09:30Z</time></trkpt><trkpt lat="41.184716102464954" lon="14.47302910749663"><ele>38.0</ele><time>2026-04-04T07:09:31Z</time></trkpt><trkpt lat="41.18494002252462" lon="14.472999134669164"><ele>38.0</ele><time>2026-04-04T07:09:32Z</time></trkpt><trkpt lat="41.18516578018187" lon="14.472985612865909"><ele>38.5</ele><time>2026-04-04T07:09:33Z</time></trkpt><trkpt lat="41.18539070727577" lon="14.472991498242108"><ele>39.0</ele><time>2026-04-04T07:09:34Z</time></trkpt><trkpt lat="41.18561550040986" lon="14.47301101109568"><ele>39.5</ele><time>2026-04-04T07:09:35Z</time></trkpt><trkpt lat="41.18583994118732" lon="14.473047352130296"><ele>40.0</ele><time>2026-04-04T07:09:36Z</time></trkpt><trkpt lat="41.18606522080107" lon="14.473100536989143"><ele>40.0</ele><time>2026-04-04T07:09:37Z</time></trkpt><trkpt lat="41.18628573411466" lon="14.473170372500986"><ele>40.0</ele><time>2026-04-04T07:09:38Z</time></trkpt><trkpt lat="41.18650256484677" lon="14.47324793006962"><ele>39.5</ele><time>2026-04-04T07:09:39Z</time></trkpt><trkpt lat="41.186715727645016" lon="14.473351221441057"><ele>39.0</ele><time>2026-04-04T07:09:40Z</time></trkpt><trkpt lat="41.186928324353175" lon="14.473462482541667"><ele>39.0</ele><time>2026-04-04T07:09:41Z</time></trkpt><trkpt lat="41.18714049140702" lon="14.473571741004505"><ele>39.0</ele><time>2026-04-04T07:09:42Z</time></trkpt><trkpt lat="41.18735540680245" lon="14.473673344133733"><ele>40.0</ele><time>2026-04-04T07:09:43Z</time></trkpt><trkpt lat="41.187569971639846" lon="14.473780961245662"><ele>41.0</ele><time>2026-04-04T07:09:44Z</time></trkpt><trkpt lat="41.18778247005576" lon="14.473898901416975"><ele>41.0</ele><time>2026-04-04T07:09:45Z</time></trkpt><trkpt lat="41.187991631144456" lon="14.474008183922406"><ele>41.0</ele><time>2026-04-04T07:09:46Z</time></trkpt><trkpt lat="41.18820506224999" lon="14.474116291859545"><ele>41.0</ele><time>2026-04-04T07:09:47Z</time></trkpt><trkpt lat="41.188417026450516" lon="14.474226549098427"><ele>41.0</ele><time>2026-04-04T07:09:48Z</time></trkpt><trkpt lat="41.18863111271398" lon="14.474337324615618"><ele>41.0</ele><time>2026-04-04T07:09:49Z</time></trkpt><trkpt lat="41.18884628601362" lon="14.474447134038776"><ele>41.0</ele><time>2026-04-04T07:09:50Z</time></trkpt><trkpt lat="41.18906204758543" lon="14.474556700441914"><ele>40.5</ele><time>2026-04-04T07:09:51Z</time></trkpt><trkpt lat="41.18928069952216" lon="14.474669012186306"><ele>40.0</ele><time>2026-04-04T07:09:52Z</time></trkpt><trkpt lat="41.18949736204687" lon="14.474779846437439"><ele>40.0</ele><time>2026-04-04T07:09:53Z</time></trkpt><trkpt lat="41.18971388647985" lon="14.47489029878484"><ele>40.0</ele><time>2026-04-04T07:09:54Z</time></trkpt><trkpt lat="41.18993568145608" lon="14.475004495126393"><ele>41.0</ele><time>2026-04-04T07:09:55Z</time></trkpt><trkpt lat="41.19015279794163" lon="14.475114814268792"><ele>42.0</ele><time>2026-04-04T07:09:56Z</time></trkpt><trkpt lat="41.19037633523312" lon="14.475228210496416"><ele>42.0</ele><time>2026-04-04T07:09:57Z</time></trkpt><trkpt lat="41.19059375950535" lon="14.4753376558129"><ele>42.0</ele><time>2026-04-04T07:09:58Z</time></trkpt><trkpt lat="41.19081241673983" lon="14.475449627259625"><ele>42.0</ele><time>2026-04-04T07:09:59Z</time></trkpt><trkpt lat="41.19102917909816" lon="14.475562217169681"><ele>42.0</ele><time>2026-04-04T07:10:00Z</time></trkpt><trkpt lat="41.19125151767853" lon="14.475678164580476"><ele>42.0</ele><time>2026-04-04T07:10:01Z</time></trkpt><trkpt lat="41.191455084119056" lon="14.475786701771828"><ele>42.0</ele><time>2026-04-04T07:10:02Z</time></trkpt><trkpt lat="41.1916457945911" lon="14.475895623970615"><ele>42.0</ele><time>2026-04-04T07:10:03Z</time></trkpt><trkpt lat="41.1918145619684" lon="14.475994374401795"><ele>41.333333333333336</ele><time>2026-04-04T07:10:04Z</time></trkpt><trkpt lat="41.19197476365876" lon="14.476090533358212"><ele>40.66666666666667</ele><time>2026-04-04T07:10:05Z</time></trkpt><trkpt lat="41.19213333922268" lon="14.476192705302077"><ele>40.0</ele><time>2026-04-04T07:10:06Z</time></trkpt><trkpt lat="41.19229053400297" lon="14.476299109301392"><ele>40.333333333333336</ele><time>2026-04-04T07:10:07Z</time></trkpt><trkpt lat="41.19245352657587" lon="14.476420241190509"><ele>40.666666666666664</ele><time>2026-04-04T07:10:08Z</time></trkpt><trkpt lat="41.19261636186394" lon="14.476550289004045"><ele>41.0</ele><time>2026-04-04T07:10:09Z</time></trkpt><trkpt lat="41.19277866830946" lon="14.4766903547312"><ele>41.0</ele><time>2026-04-04T07:10:10Z</time></trkpt><trkpt lat="41.192939453837525" lon="14.476837614719313"><ele>41.0</ele><time>2026-04-04T07:10:11Z</time></trkpt><trkpt lat="41.19309906997325" lon="14.476994809589803"><ele>41.0</ele><time>2026-04-04T07:10:12Z</time></trkpt><trkpt lat="41.19326012383682" lon="14.477160421343832"><ele>41.666666666666664</ele><time>2026-04-04T07:10:13Z</time></trkpt><trkpt lat="41.1934171490298" lon="14.47733397223304"><ele>42.333333333333336</ele><time>2026-04-04T07:10:14Z</time></trkpt><trkpt lat="41.193571086723246" lon="14.477514262257513"><ele>43.0</ele><time>2026-04-04T07:10:15Z</time></trkpt><trkpt lat="41.19371906011431" lon="14.477709872687608"><ele>43.0</ele><time>2026-04-04T07:10:16Z</time></trkpt><trkpt lat="41.193862682353405" lon="14.477913188257073"><ele>43.0</ele><time>2026-04-04T07:10:17Z</time></trkpt><trkpt lat="41.194000692038756" lon="14.478124676811879"><ele>43.0</ele><time>2026-04-04T07:10:18Z</time></trkpt><trkpt lat="41.19413875712335" lon="14.478349308758006"><ele>43.0</ele><time>2026-04-04T07:10:19Z</time></trkpt><trkpt lat="41.194273223320394" lon="14.478585945558073"><ele>43.0</ele><time>2026-04-04T07:10:20Z</time></trkpt><trkpt lat="41.19442226988999" lon="14.478871336271816"><ele>43.0</ele><time>2026-04-04T07:10:21Z</time></trkpt><trkpt lat="41.1945178791963" lon="14.479067773165095"><ele>43.0</ele><time>2026-04-04T07:10:22Z</time></trkpt><trkpt lat="41.1946350870867" lon="14.479317245116704"><ele>43.0</ele><time>2026-04-04T07:10:23Z</time></trkpt><trkpt lat="41.19475128390707" lon="14.479575653795852"><ele>44.0</ele><time>2026-04-04T07:10:24Z</time></trkpt><trkpt lat="41.19486332447634" lon="14.47983353351592"><ele>45.0</ele><time>2026-04-04T07:10:25Z</time></trkpt><trkpt lat="41.19497711533253" lon="14.48009741879957"><ele>45.0</ele><time>2026-04-04T07:10:26Z</time></trkpt><trkpt lat="41.195098117190696" lon="14.48035448623981"><ele>45.0</ele><time>2026-04-04T07:10:27Z</time></trkpt><trkpt lat="41.1952307948323" lon="14.480600562061532"><ele>44.0</ele><time>2026-04-04T07:10:28Z</time></trkpt><trkpt lat="41.19537299592232" lon="14.480839836327592"><ele>43.0</ele><time>2026-04-04T07:10:29Z</time></trkpt><trkpt lat="41.19552283564338" lon="14.481061319750356"><ele>48.0</ele><time>2026-04-04T07:10:30Z</time></trkpt><trkpt lat="41.195682213099055" lon="14.481278349826079"><ele>53.0</ele><time>2026-04-04T07:10:31Z</time></trkpt><trkpt lat="41.1958519104304" lon="14.481476359865217"><ele>53.0</ele><time>2026-04-04T07:10:32Z</time></trkpt><trkpt lat="41.19602699784319" lon="14.48166514810148"><ele>53.0</ele><time>2026-04-04T07:10:33Z</time></trkpt><trkpt lat="41.19621043771274" lon="14.48183658865798"><ele>53.0</ele><time>2026-04-04T07:10:34Z</time></trkpt><trkpt lat="41.196402939538" lon="14.482001788482696"><ele>53.0</ele><time>2026-04-04T07:10:35Z</time></trkpt><trkpt lat="41.19659351341262" lon="14.482140952310697"><ele>53.0</ele><time>2026-04-04T07:10:36Z</time></trkpt><trkpt lat="41.19679347812914" lon="14.482269888648885"><ele>54.66666666666667</ele><time>2026-04-04T07:10:37Z</time></trkpt><trkpt lat="41.19699557310719" lon="14.482388524118564"><ele>56.33333333333333</ele><time>2026-04-04T07:10:38Z</time></trkpt><trkpt lat="41.197204521612136" lon="14.482488195184999"><ele>58.0</ele><time>2026-04-04T07:10:39Z</time></trkpt><trkpt lat="41.1974146795342" lon="14.482572816905911"><ele>58.0</ele><time>2026-04-04T07:10:40Z</time></trkpt><trkpt lat="41.197631211938564" lon="14.482644960214394"><ele>58.0</ele><time>2026-04-04T07:10:41Z</time></trkpt><trkpt lat="41.19784813483411" lon="14.482704594954761"><ele>58.0</ele><time>2026-04-04T07:10:42Z</time></trkpt><trkpt lat="41.198071847037795" lon="14.482744269933244"><ele>57.33333333333333</ele><time>2026-04-04T07:10:43Z</time></trkpt><trkpt lat="41.1982940471278" lon="14.48275913989798"><ele>56.66666666666667</ele><time>2026-04-04T07:10:44Z</time></trkpt><trkpt lat="41.19852092854368" lon="14.482758727023226"><ele>56.0</ele><time>2026-04-04T07:10:45Z</time></trkpt><trkpt lat="41.19874857027162" lon="14.482749407235916"><ele>56.0</ele><time>2026-04-04T07:10:46Z</time></trkpt><trkpt lat="41.19896639945405" lon="14.482731203659409"><ele>56.0</ele><time>2026-04-04T07:10:47Z</time></trkpt><trkpt lat="41.19918651063272" lon="14.482697103668661"><ele>56.0</ele><time>2026-04-04T07:10:48Z</time></trkpt><trkpt lat="41.19940136685437" lon="14.48265658722354"><ele>56.0</ele><time>2026-04-04T07:10:49Z</time></trkpt><trkpt lat="41.19961940022458" lon="14.482613583475807"><ele>56.0</ele><time>2026-04-04T07:10:50Z</time></trkpt><trkpt lat="41.19983036433119" lon="14.4825737639051"><ele>56.0</ele><time>2026-04-04T07:10:51Z</time></trkpt><trkpt lat="41.20002997240719" lon="14.48253990939444"><ele>56.0</ele><time>2026-04-04T07:10:52Z</time></trkpt><trkpt lat="41.20023310604531" lon="14.482504304562292"><ele>56.0</ele><time>2026-04-04T07:10:53Z</time></trkpt><trkpt lat="41.2004313614404" lon="14.482464681451015"><ele>56.0</ele><time>2026-04-04T07:10:54Z</time></trkpt><trkpt lat="41.20063375627693" lon="14.4824226802197"><ele>57.333333333333336</ele><time>2026-04-04T07:10:55Z</time></trkpt><trkpt lat="41.200835384071276" lon="14.48238154255249"><ele>58.66666666666667</ele><time>2026-04-04T07:10:56Z</time></trkpt><trkpt lat="41.20103851078044" lon="14.482342870230296"><ele>60.0</ele><time>2026-04-04T07:10:57Z</time></trkpt><trkpt lat="41.20123699253633" lon="14.482306081325493"><ele>60.0</ele><time>2026-04-04T07:10:58Z</time></trkpt><trkpt lat="41.201439307962055" lon="14.482269535532394"><ele>60.0</ele><time>2026-04-04T07:10:59Z</time></trkpt><trkpt lat="41.20164701102251" lon="14.482239310061473"><ele>60.0</ele><time>2026-04-04T07:11:00Z</time></trkpt><trkpt lat="41.20184840874775" lon="14.482217377212452"><ele>61.33333333333333</ele><time>2026-04-04T07:11:01Z</time></trkpt><trkpt lat="41.20205646693446" lon="14.482209366480125"><ele>62.666666666666664</ele><time>2026-04-04T07:11:02Z</time></trkpt><trkpt lat="41.202259215652376" lon="14.482219449706445"><ele>64.0</ele><time>2026-04-04T07:11:03Z</time></trkpt><trkpt lat="41.20246554653509" lon="14.482243432891883"><ele>65.33333333333333</ele><time>2026-04-04T07:11:04Z</time></trkpt><trkpt lat="41.20266912736906" lon="14.482279260857467"><ele>66.66666666666667</ele><time>2026-04-04T07:11:05Z</time></trkpt><trkpt lat="41.202874312824065" lon="14.482331100643814"><ele>68.0</ele><time>2026-04-04T07:11:06Z</time></trkpt><trkpt lat="41.20307347236445" lon="14.482394708130679"><ele>68.33333333333334</ele><time>2026-04-04T07:11:07Z</time></trkpt><trkpt lat="41.20326912848388" lon="14.482477103740546"><ele>68.66666666666667</ele><time>2026-04-04T07:11:08Z</time></trkpt><trkpt lat="41.20346616621141" lon="14.482568579886097"><ele>69.0</ele><time>2026-04-04T07:11:09Z</time></trkpt><trkpt lat="41.20365957592054" lon="14.482674754299783"><ele>69.0</ele><time>2026-04-04T07:11:10Z</time></trkpt><trkpt lat="41.20384731480369" lon="14.482789092287945"><ele>69.0</ele><time>2026-04-04T07:11:11Z</time></trkpt><trkpt lat="41.20403303767921" lon="14.482921615145267"><ele>69.0</ele><time>2026-04-04T07:11:12Z</time></trkpt><trkpt lat="41.20421131801926" lon="14.483068405864858"><ele>68.66666666666667</ele><time>2026-04-04T07:11:13Z</time></trkpt><trkpt lat="41.20438607653267" lon="14.483229614809149"><ele>68.33333333333334</ele><time>2026-04-04T07:11:14Z</time></trkpt><trkpt lat="41.20455713520933" lon="14.483401770177982"><ele>68.0</ele><time>2026-04-04T07:11:15Z</time></trkpt><trkpt lat="41.204725290799026" lon="14.483585394384905"><ele>68.0</ele><time>2026-04-04T07:11:16Z</time></trkpt><trkpt lat="41.20487847321223" lon="14.483780290827866"><ele>68.0</ele><time>2026-04-04T07:11:17Z</time></trkpt><trkpt lat="41.20502478064954" lon="14.48398115711575"><ele>68.0</ele><time>2026-04-04T07:11:18Z</time></trkpt><trkpt lat="41.20514635800337" lon="14.484143824270825"><ele>68.0</ele><time>2026-04-04T07:11:19Z</time></trkpt><trkpt lat="41.20525470190135" lon="14.484279025181356"><ele>68.0</ele><time>2026-04-04T07:11:20Z</time></trkpt><trkpt lat="41.20543591367229" lon="14.48465416196626"><ele>68.66666666666667</ele><time>2026-04-04T07:11:21Z</time></trkpt><trkpt lat="41.20556224427161" lon="14.484894172805863"><ele>69.33333333333333</ele><time>2026-04-04T07:11:22Z</time></trkpt><trkpt lat="41.205688209033994" lon="14.485130341079346"><ele>70.0</ele><time>2026-04-04T07:11:23Z</time></trkpt><trkpt lat="41.2058140323628" lon="14.485363366415106"><ele>70.66666666666666</ele><time>2026-04-04T07:11:24Z</time></trkpt><trkpt lat="41.20594087727485" lon="14.485604554300155"><ele>71.33333333333333</ele><time>2026-04-04T07:11:25Z</time></trkpt><trkpt lat="41.20606981501948" lon="14.485838378859867"><ele>72.0</ele><time>2026-04-04T07:11:26Z</time></trkpt><trkpt lat="41.20621131999358" lon="14.486065857560268"><ele>72.33333333333333</ele><time>2026-04-04T07:11:27Z</time></trkpt><trkpt lat="41.20635511982697" lon="14.486284003147306"><ele>72.66666666666666</ele><time>2026-04-04T07:11:28Z</time></trkpt><trkpt lat="41.206505632040916" lon="14.486494231132538"><ele>73.0</ele><time>2026-04-04T07:11:29Z</time></trkpt><trkpt lat="41.20666187389487" lon="14.48670133281227"><ele>73.0</ele><time>2026-04-04T07:11:30Z</time></trkpt><trkpt lat="41.2068241601665" lon="14.48689790306789"><ele>73.0</ele><time>2026-04-04T07:11:31Z</time></trkpt><trkpt lat="41.20699154118232" lon="14.487079511946972"><ele>73.0</ele><time>2026-04-04T07:11:32Z</time></trkpt><trkpt lat="41.207164356609276" lon="14.487251995019854"><ele>72.66666666666666</ele><time>2026-04-04T07:11:33Z</time></trkpt><trkpt lat="41.207342687028266" lon="14.487420787531411"><ele>72.33333333333333</ele><time>2026-04-04T07:11:34Z</time></trkpt><trkpt lat="41.207525376219195" lon="14.487576402686575"><ele>72.0</ele><time>2026-04-04T07:11:35Z</time></trkpt><trkpt lat="41.20771752734997" lon="14.487727414019039"><ele>72.0</ele><time>2026-04-04T07:11:36Z</time></trkpt><trkpt lat="41.207910771334696" lon="14.487859766211919"><ele>72.0</ele><time>2026-04-04T07:11:37Z</time></trkpt><trkpt lat="41.20810919179306" lon="14.487986119761995"><ele>72.0</ele><time>2026-04-04T07:11:38Z</time></trkpt><trkpt lat="41.208306238401136" lon="14.488101916900048"><ele>72.66666666666667</ele><time>2026-04-04T07:11:39Z</time></trkpt><trkpt lat="41.208507518332645" lon="14.488208727624212"><ele>73.33333333333334</ele><time>2026-04-04T07:11:40Z</time></trkpt><trkpt lat="41.208705693798734" lon="14.48831768605999"><ele>74.0</ele><time>2026-04-04T07:11:41Z</time></trkpt><trkpt lat="41.2089103030711" lon="14.488419647084092"><ele>73.66666666666667</ele><time>2026-04-04T07:11:42Z</time></trkpt><trkpt lat="41.209115728610676" lon="14.488514129022674"><ele>73.33333333333333</ele><time>2026-04-04T07:11:43Z</time></trkpt><trkpt lat="41.20932639161283" lon="14.48861263200353"><ele>73.0</ele><time>2026-04-04T07:11:44Z</time></trkpt><trkpt lat="41.20953285275545" lon="14.488704351716539"><ele>73.33333333333333</ele><time>2026-04-04T07:11:45Z</time></trkpt><trkpt lat="41.20974194983885" lon="14.48878847065388"><ele>73.66666666666667</ele><time>2026-04-04T07:11:46Z</time></trkpt><trkpt lat="41.20995467482714" lon="14.488863227230222"><ele>74.0</ele><time>2026-04-04T07:11:47Z</time></trkpt><trkpt lat="41.21017051209617" lon="14.488927806645318"><ele>74.0</ele><time>2026-04-04T07:11:48Z</time></trkpt><trkpt lat="41.21038721343848" lon="14.48897191069431"><ele>74.0</ele><time>2026-04-04T07:11:49Z</time></trkpt><trkpt lat="41.210604997041564" lon="14.489000619302711"><ele>74.0</ele><time>2026-04-04T07:11:50Z</time></trkpt><trkpt lat="41.21082299315665" lon="14.48901491722435"><ele>74.0</ele><time>2026-04-04T07:11:51Z</time></trkpt><trkpt lat="41.21104782832974" lon="14.489015779910028"><ele>74.0</ele><time>2026-04-04T07:11:52Z</time></trkpt><trkpt lat="41.21127366162143" lon="14.489002543856307"><ele>74.0</ele><time>2026-04-04T07:11:53Z</time></trkpt><trkpt lat="41.21149541626559" lon="14.488964733249452"><ele>74.0</ele><time>2026-04-04T07:11:54Z</time></trkpt><trkpt lat="41.211713826551836" lon="14.488918899560344"><ele>74.0</ele><time>2026-04-04T07:11:55Z</time></trkpt><trkpt lat="41.211936168889295" lon="14.488864819533797"><ele>74.0</ele><time>2026-04-04T07:11:56Z</time></trkpt><trkpt lat="41.21215446449879" lon="14.488793847464265"><ele>74.0</ele><time>2026-04-04T07:11:57Z</time></trkpt><trkpt lat="41.21237232245438" lon="14.488708360028683"><ele>75.0</ele><time>2026-04-04T07:11:58Z</time></trkpt><trkpt lat="41.21258748481322" lon="14.488605489019418"><ele>76.0</ele><time>2026-04-04T07:11:59Z</time></trkpt><trkpt lat="41.21279742697483" lon="14.488487012177856"><ele>76.0</ele><time>2026-04-04T07:12:00Z</time></trkpt><trkpt lat="41.212998929448545" lon="14.488350975921314"><ele>76.0</ele><time>2026-04-04T07:12:01Z</time></trkpt><trkpt lat="41.21319864329601" lon="14.488208777055906"><ele>76.5</ele><time>2026-04-04T07:12:02Z</time></trkpt><trkpt lat="41.21339393406819" lon="14.488055201094912"><ele>77.0</ele><time>2026-04-04T07:12:03Z</time></trkpt><trkpt lat="41.2135850751368" lon="14.487889089288027"><ele>77.0</ele><time>2026-04-04T07:12:04Z</time></trkpt><trkpt lat="41.21376160802362" lon="14.487695011629928"><ele>77.0</ele><time>2026-04-04T07:12:05Z</time></trkpt><trkpt lat="41.21393709148067" lon="14.487503266165048"><ele>77.0</ele><time>2026-04-04T07:12:06Z</time></trkpt><trkpt lat="41.21410345543236" lon="14.487295877987371"><ele>77.0</ele><time>2026-04-04T07:12:07Z</time></trkpt><trkpt lat="41.21426366874481" lon="14.487080635076287"><ele>77.5</ele><time>2026-04-04T07:12:08Z</time></trkpt><trkpt lat="41.2144138269912" lon="14.486853528448929"><ele>78.0</ele><time>2026-04-04T07:12:09Z</time></trkpt><trkpt lat="41.21455768586353" lon="14.486615379540837"><ele>78.0</ele><time>2026-04-04T07:12:10Z</time></trkpt><trkpt lat="41.21469144547997" lon="14.486369201251895"><ele>78.0</ele><time>2026-04-04T07:12:11Z</time></trkpt><trkpt lat="41.214818054383294" lon="14.486107909719909"><ele>78.5</ele><time>2026-04-04T07:12:12Z</time></trkpt><trkpt lat="41.2149388700026" lon="14.485849164363884"><ele>79.0</ele><time>2026-04-04T07:12:13Z</time></trkpt><trkpt lat="41.21505314194747" lon="14.485585511845361"><ele>79.5</ele><time>2026-04-04T07:12:14Z</time></trkpt><trkpt lat="41.215164398330565" lon="14.485325867404743"><ele>80.0</ele><time>2026-04-04T07:12:15Z</time></trkpt><trkpt lat="41.21527509793019" lon="14.48505869304031"><ele>80.0</ele><time>2026-04-04T07:12:16Z</time></trkpt><trkpt lat="41.21538470556497" lon="14.484791146454876"><ele>80.0</ele><time>2026-04-04T07:12:17Z</time></trkpt><trkpt lat="41.215495470142365" lon="14.48452036039351"><ele>80.5</ele><time>2026-04-04T07:12:18Z</time></trkpt><trkpt lat="41.21560661297202" lon="14.484253704138078"><ele>81.0</ele><time>2026-04-04T07:12:19Z</time></trkpt><trkpt lat="41.21571712895245" lon="14.483983867769119"><ele>81.5</ele><time>2026-04-04T07:12:20Z</time></trkpt><trkpt lat="41.215825657665334" lon="14.48371842825337"><ele>82.0</ele><time>2026-04-04T07:12:21Z</time></trkpt><trkpt lat="41.215933968883554" lon="14.483444621553035"><ele>82.0</ele><time>2026-04-04T07:12:22Z</time></trkpt><trkpt lat="41.21604279348464" lon="14.483175439569765"><ele>82.0</ele><time>2026-04-04T07:12:23Z</time></trkpt><trkpt lat="41.21615355392397" lon="14.482905774012536"><ele>82.5</ele><time>2026-04-04T07:12:24Z</time></trkpt><trkpt lat="41.216263835827746" lon="14.482641463031722"><ele>83.0</ele><time>2026-04-04T07:12:25Z</time></trkpt><trkpt lat="41.21637493765886" lon="14.482372662595903"><ele>83.0</ele><time>2026-04-04T07:12:26Z</time></trkpt><trkpt lat="41.21648403749284" lon="14.482108626184093"><ele>83.0</ele><time>2026-04-04T07:12:27Z</time></trkpt><trkpt lat="41.21658988103994" lon="14.481848933307225"><ele>83.0</ele><time>2026-04-04T07:12:28Z</time></trkpt><trkpt lat="41.216688668852356" lon="14.4816025344067"><ele>83.0</ele><time>2026-04-04T07:12:29Z</time></trkpt><trkpt lat="41.21678285154298" lon="14.481368978141544"><ele>83.0</ele><time>2026-04-04T07:12:30Z</time></trkpt><trkpt lat="41.21687960906091" lon="14.481139247553473"><ele>83.0</ele><time>2026-04-04T07:12:31Z</time></trkpt><trkpt lat="41.21697677283548" lon="14.480904104704104"><ele>83.33333333333334</ele><time>2026-04-04T07:12:32Z</time></trkpt><trkpt lat="41.217071799966135" lon="14.48067123119803"><ele>83.66666666666667</ele><time>2026-04-04T07:12:33Z</time></trkpt><trkpt lat="41.21716715028967" lon="14.480438260202526"><ele>84.0</ele><time>2026-04-04T07:12:34Z</time></trkpt><trkpt lat="41.21726311949175" lon="14.480203193892715"><ele>84.0</ele><time>2026-04-04T07:12:35Z</time></trkpt><trkpt lat="41.21735781151273" lon="14.479973518052072"><ele>84.0</ele><time>2026-04-04T07:12:36Z</time></trkpt><trkpt lat="41.217451836498554" lon="14.47974296796561"><ele>84.0</ele><time>2026-04-04T07:12:37Z</time></trkpt><trkpt lat="41.2175452227343" lon="14.479513693755205"><ele>83.33333333333333</ele><time>2026-04-04T07:12:38Z</time></trkpt><trkpt lat="41.217636136441726" lon="14.479281613906196"><ele>82.66666666666666</ele><time>2026-04-04T07:12:39Z</time></trkpt><trkpt lat="41.217724511493074" lon="14.479054078067932"><ele>82.0</ele><time>2026-04-04T07:12:40Z</time></trkpt><trkpt lat="41.21781630989658" lon="14.478823895200179"><ele>82.0</ele><time>2026-04-04T07:12:41Z</time></trkpt><trkpt lat="41.2179105726594" lon="14.478600348064722"><ele>82.0</ele><time>2026-04-04T07:12:42Z</time></trkpt><trkpt lat="41.218006232768715" lon="14.478377678129077"><ele>82.0</ele><time>2026-04-04T07:12:43Z</time></trkpt><trkpt lat="41.21810129021874" lon="14.478155641056944"><ele>81.66666666666666</ele><time>2026-04-04T07:12:44Z</time></trkpt><trkpt lat="41.218197403299655" lon="14.477933283859535"><ele>81.33333333333333</ele><time>2026-04-04T07:12:45Z</time></trkpt><trkpt lat="41.21829335729949" lon="14.477716662347978"><ele>81.0</ele><time>2026-04-04T07:12:46Z</time></trkpt><trkpt lat="41.21839419429399" lon="14.477497402834413"><ele>81.0</ele><time>2026-04-04T07:12:47Z</time></trkpt><trkpt lat="41.218496648055655" lon="14.47728104053039"><ele>81.0</ele><time>2026-04-04T07:12:48Z</time></trkpt><trkpt lat="41.21860257564473" lon="14.47706650623306"><ele>81.0</ele><time>2026-04-04T07:12:49Z</time></trkpt><trkpt lat="41.21871172545539" lon="14.47685307697467"><ele>81.0</ele><time>2026-04-04T07:12:50Z</time></trkpt><trkpt lat="41.218825877643795" lon="14.476643779662236"><ele>81.0</ele><time>2026-04-04T07:12:51Z</time></trkpt><trkpt lat="41.2189479053175" lon="14.47643952202997"><ele>81.0</ele><time>2026-04-04T07:12:52Z</time></trkpt><trkpt lat="41.219082038037335" lon="14.476239945820664"><ele>81.0</ele><time>2026-04-04T07:12:53Z</time></trkpt><trkpt lat="41.21921702818013" lon="14.476048544440857"><ele>81.0</ele><time>2026-04-04T07:12:54Z</time></trkpt><trkpt lat="41.2193559170617" lon="14.475862703345376"><ele>81.0</ele><time>2026-04-04T07:12:55Z</time></trkpt><trkpt lat="41.219499205637675" lon="14.475678861931918"><ele>81.0</ele><time>2026-04-04T07:12:56Z</time></trkpt><trkpt lat="41.219643779373584" lon="14.475499536996221"><ele>81.0</ele><time>2026-04-04T07:12:57Z</time></trkpt><trkpt lat="41.21979381634877" lon="14.475325654399857"><ele>81.0</ele><time>2026-04-04T07:12:58Z</time></trkpt><trkpt lat="41.21995110233119" lon="14.475157233500676"><ele>81.33333333333333</ele><time>2026-04-04T07:12:59Z</time></trkpt><trkpt lat="41.2201104451359" lon="14.474996492777379"><ele>81.66666666666666</ele><time>2026-04-04T07:13:00Z</time></trkpt><trkpt lat="41.22027725802132" lon="14.474840681406834"><ele>82.0</ele><time>2026-04-04T07:13:01Z</time></trkpt><trkpt lat="41.2204489846421" lon="14.474692853967218"><ele>82.66666666666666</ele><time>2026-04-04T07:13:02Z</time></trkpt><trkpt lat="41.220624089527355" lon="14.4745513498932"><ele>83.33333333333333</ele><time>2026-04-04T07:13:03Z</time></trkpt><trkpt lat="41.22080121556856" lon="14.474415162097833"><ele>84.0</ele><time>2026-04-04T07:13:04Z</time></trkpt><trkpt lat="41.22098857599776" lon="14.47428567300747"><ele>84.0</ele><time>2026-04-04T07:13:05Z</time></trkpt><trkpt lat="41.22118612233315" lon="14.474175679302046"><ele>84.0</ele><time>2026-04-04T07:13:06Z</time></trkpt><trkpt lat="41.22138435292218" lon="14.474053122664314"><ele>84.0</ele><time>2026-04-04T07:13:07Z</time></trkpt><trkpt lat="41.22159336297162" lon="14.473958769152526"><ele>84.0</ele><time>2026-04-04T07:13:08Z</time></trkpt><trkpt lat="41.22181333735032" lon="14.47387968058222"><ele>84.0</ele><time>2026-04-04T07:13:09Z</time></trkpt><trkpt lat="41.22199041843878" lon="14.473747134096232"><ele>84.0</ele><time>2026-04-04T07:13:10Z</time></trkpt><trkpt lat="41.222201795122345" lon="14.473668642447052"><ele>83.66666666666667</ele><time>2026-04-04T07:13:11Z</time></trkpt><trkpt lat="41.22241723617009" lon="14.47359484771613"><ele>83.33333333333334</ele><time>2026-04-04T07:13:12Z</time></trkpt><trkpt lat="41.22263665775909" lon="14.47353809079709"><ele>83.0</ele><time>2026-04-04T07:13:13Z</time></trkpt><trkpt lat="41.222858333272654" lon="14.47349107621817"><ele>83.0</ele><time>2026-04-04T07:13:14Z</time></trkpt><trkpt lat="41.22308224603091" lon="14.47344873421583"><ele>83.0</ele><time>2026-04-04T07:13:15Z</time></trkpt><trkpt lat="41.22331028992601" lon="14.473424031316293"><ele>83.0</ele><time>2026-04-04T07:13:16Z</time></trkpt><trkpt lat="41.22353720821231" lon="14.473405118303667"><ele>83.0</ele><time>2026-04-04T07:13:17Z</time></trkpt><trkpt lat="41.22376317045933" lon="14.473391924155818"><ele>82.5</ele><time>2026-04-04T07:13:18Z</time></trkpt><trkpt lat="41.22399252323396" lon="14.473393699928346"><ele>82.0</ele><time>2026-04-04T07:13:19Z</time></trkpt><trkpt lat="41.22421601428249" lon="14.47340614045866"><ele>82.0</ele><time>2026-04-04T07:13:20Z</time></trkpt><trkpt lat="41.2244399014797" lon="14.473426142336956"><ele>82.0</ele><time>2026-04-04T07:13:21Z</time></trkpt><trkpt lat="41.22466940602419" lon="14.473452441964"><ele>83.0</ele><time>2026-04-04T07:13:22Z</time></trkpt><trkpt lat="41.224896026508276" lon="14.473477037886035"><ele>84.0</ele><time>2026-04-04T07:13:23Z</time></trkpt><trkpt lat="41.225125621282274" lon="14.473509375213442"><ele>84.0</ele><time>2026-04-04T07:13:24Z</time></trkpt><trkpt lat="41.22535599425879" lon="14.473550111075925"><ele>84.0</ele><time>2026-04-04T07:13:25Z</time></trkpt><trkpt lat="41.22558161808067" lon="14.473594132195624"><ele>83.0</ele><time>2026-04-04T07:13:26Z</time></trkpt><trkpt lat="41.225808760651525" lon="14.473640047407727"><ele>82.0</ele><time>2026-04-04T07:13:27Z</time></trkpt><trkpt lat="41.22603388397636" lon="14.473689641537138"><ele>82.0</ele><time>2026-04-04T07:13:28Z</time></trkpt><trkpt lat="41.22625935945315" lon="14.473740528491225"><ele>82.0</ele><time>2026-04-04T07:13:29Z</time></trkpt><trkpt lat="41.22648172419363" lon="14.47378888525921"><ele>82.0</ele><time>2026-04-04T07:13:30Z</time></trkpt><trkpt lat="41.22670438830304" lon="14.473837653146795"><ele>82.0</ele><time>2026-04-04T07:13:31Z</time></trkpt><trkpt lat="41.22692130369389" lon="14.473884368551905"><ele>82.0</ele><time>2026-04-04T07:13:32Z</time></trkpt><trkpt lat="41.22714254521015" lon="14.473932622397841"><ele>82.33333333333333</ele><time>2026-04-04T07:13:33Z</time></trkpt><trkpt lat="41.227360285387505" lon="14.473977318263772"><ele>82.66666666666667</ele><time>2026-04-04T07:13:34Z</time></trkpt><trkpt lat="41.227575494411894" lon="14.474022684985588"><ele>83.0</ele><time>2026-04-04T07:13:35Z</time></trkpt><trkpt lat="41.22779080425435" lon="14.474065166108936"><ele>83.0</ele><time>2026-04-04T07:13:36Z</time></trkpt><trkpt lat="41.22800503552264" lon="14.474108178093655"><ele>83.0</ele><time>2026-04-04T07:13:37Z</time></trkpt><trkpt lat="41.22822006861827" lon="14.474153968881781"><ele>83.0</ele><time>2026-04-04T07:13:38Z</time></trkpt><trkpt lat="41.22842620511604" lon="14.474195998039184"><ele>83.0</ele><time>2026-04-04T07:13:39Z</time></trkpt><trkpt lat="41.22865401115673" lon="14.47423992798314"><ele>83.0</ele><time>2026-04-04T07:13:40Z</time></trkpt><trkpt lat="41.2288967262951" lon="14.474287366533824"><ele>83.0</ele><time>2026-04-04T07:13:41Z</time></trkpt><trkpt lat="41.22908068397011" lon="14.474336507222098"><ele>83.0</ele><time>2026-04-04T07:13:42Z</time></trkpt><trkpt lat="41.2292932656845" lon="14.474391405922686"><ele>83.0</ele><time>2026-04-04T07:13:43Z</time></trkpt><trkpt lat="41.22951120523786" lon="14.4744493382338"><ele>83.0</ele><time>2026-04-04T07:13:44Z</time></trkpt><trkpt lat="41.229727442001916" lon="14.47451559883728"><ele>83.0</ele><time>2026-04-04T07:13:45Z</time></trkpt><trkpt lat="41.22994258800486" lon="14.474588627066634"><ele>83.0</ele><time>2026-04-04T07:13:46Z</time></trkpt><trkpt lat="41.23015735746244" lon="14.474669866117338"><ele>83.66666666666667</ele><time>2026-04-04T07:13:47Z</time></trkpt><trkpt lat="41.23036610030297" lon="14.47476291446979"><ele>84.33333333333333</ele><time>2026-04-04T07:13:48Z</time></trkpt><trkpt lat="41.23057549352925" lon="14.474859591638037"><ele>85.0</ele><time>2026-04-04T07:13:49Z</time></trkpt><trkpt lat="41.23077943368163" lon="14.474966022353703"><ele>86.33333333333333</ele><time>2026-04-04T07:13:50Z</time></trkpt><trkpt lat="41.23098371039606" lon="14.47508361437181"><ele>87.66666666666667</ele><time>2026-04-04T07:13:51Z</time></trkpt><trkpt lat="41.23118452695185" lon="14.475199065718211"><ele>89.0</ele><time>2026-04-04T07:13:52Z</time></trkpt><trkpt lat="41.231388133813425" lon="14.475315852053892"><ele>89.66666666666667</ele><time>2026-04-04T07:13:53Z</time></trkpt><trkpt lat="41.231585493283674" lon="14.475423728004294"><ele>90.33333333333333</ele><time>2026-04-04T07:13:54Z</time></trkpt><trkpt lat="41.23178647390445" lon="14.475527443936976"><ele>91.0</ele><time>2026-04-04T07:13:55Z</time></trkpt><trkpt lat="41.23199804609068" lon="14.475639803837018"><ele>91.0</ele><time>2026-04-04T07:13:56Z</time></trkpt><trkpt lat="41.23221032875216" lon="14.47575820568186"><ele>91.0</ele><time>2026-04-04T07:13:57Z</time></trkpt><trkpt lat="41.232408942202355" lon="14.47587830680102"><ele>91.0</ele><time>2026-04-04T07:13:58Z</time></trkpt><trkpt lat="41.23260455819166" lon="14.476004780966331"><ele>92.66666666666666</ele><time>2026-04-04T07:13:59Z</time></trkpt><trkpt lat="41.232798920856354" lon="14.476133972422497"><ele>94.33333333333333</ele><time>2026-04-04T07:14:00Z</time></trkpt><trkpt lat="41.23298864226856" lon="14.476248944589116"><ele>96.0</ele><time>2026-04-04T07:14:01Z</time></trkpt><trkpt lat="41.23318359445279" lon="14.476357982550269"><ele>97.0</ele><time>2026-04-04T07:14:02Z</time></trkpt><trkpt lat="41.23336816397365" lon="14.476460836448329"><ele>98.0</ele><time>2026-04-04T07:14:03Z</time></trkpt><trkpt lat="41.23353424271028" lon="14.47655274624745"><ele>99.0</ele><time>2026-04-04T07:14:04Z</time></trkpt><trkpt lat="41.233688965174274" lon="14.476636720716415"><ele>99.0</ele><time>2026-04-04T07:14:05Z</time></trkpt><trkpt lat="41.2338349062327" lon="14.476726207198551"><ele>99.0</ele><time>2026-04-04T07:14:06Z</time></trkpt><trkpt lat="41.23397165154435" lon="14.476818650981178"><ele>99.0</ele><time>2026-04-04T07:14:07Z</time></trkpt><trkpt lat="41.234087438417454" lon="14.47693626046193"><ele>98.75</ele><time>2026-04-04T07:14:08Z</time></trkpt><trkpt lat="41.23418154051005" lon="14.477075405441216"><ele>98.5</ele><time>2026-04-04T07:14:09Z</time></trkpt><trkpt lat="41.23425727272086" lon="14.47722683853824"><ele>98.25</ele><time>2026-04-04T07:14:10Z</time></trkpt><trkpt lat="41.234306321631166" lon="14.477388007563132"><ele>98.0</ele><time>2026-04-04T07:14:11Z</time></trkpt><trkpt lat="41.23432773963936" lon="14.477554970296861"><ele>98.5</ele><time>2026-04-04T07:14:12Z</time></trkpt><trkpt lat="41.234318733006724" lon="14.477716243773681"><ele>99.0</ele><time>2026-04-04T07:14:13Z</time></trkpt><trkpt lat="41.2342792686675" lon="14.47787350647048"><ele>99.5</ele><time>2026-04-04T07:14:14Z</time></trkpt><trkpt lat="41.23421920355751" lon="14.478023385138961"><ele>100.0</ele><time>2026-04-04T07:14:15Z</time></trkpt><trkpt lat="41.23413610136814" lon="14.478141937817881"><ele>99.75</ele><time>2026-04-04T07:14:16Z</time></trkpt><trkpt lat="41.234030753063074" lon="14.478230762018919"><ele>99.5</ele><time>2026-04-04T07:14:17Z</time></trkpt><trkpt lat="41.233904660891525" lon="14.478291877673387"><ele>99.25</ele><time>2026-04-04T07:14:18Z</time></trkpt><trkpt lat="41.23377395289614" lon="14.47832482306584"><ele>99.0</ele><time>2026-04-04T07:14:19Z</time></trkpt><trkpt lat="41.23364040863185" lon="14.47830797850344"><ele>99.0</ele><time>2026-04-04T07:14:20Z</time></trkpt><trkpt lat="41.23352312421849" lon="14.47823655204392"><ele>99.0</ele><time>2026-04-04T07:14:21Z</time></trkpt><trkpt lat="41.23340640148708" lon="14.478135669579128"><ele>99.0</ele><time>2026-04-04T07:14:22Z</time></trkpt><trkpt lat="41.23330575663008" lon="14.478000460485905"><ele>99.0</ele><time>2026-04-04T07:14:23Z</time></trkpt><trkpt lat="41.23323513139427" lon="14.477825001062836"><ele>98.0</ele><time>2026-04-04T07:14:24Z</time></trkpt><trkpt lat="41.23319085549841" lon="14.47763547603253"><ele>97.0</ele><time>2026-04-04T07:14:25Z</time></trkpt><trkpt lat="41.233178231587495" lon="14.477432289989961"><ele>96.0</ele><time>2026-04-04T07:14:26Z</time></trkpt><trkpt lat="41.23318337688928" lon="14.477229706075914"><ele>97.0</ele><time>2026-04-04T07:14:27Z</time></trkpt><trkpt lat="41.23321348195813" lon="14.477026996871079"><ele>98.0</ele><time>2026-04-04T07:14:28Z</time></trkpt><trkpt lat="41.23325149244513" lon="14.47681313992429"><ele>99.0</ele><time>2026-04-04T07:14:29Z</time></trkpt><trkpt lat="41.233314814463924" lon="14.476566129858933"><ele>97.5</ele><time>2026-04-04T07:14:30Z</time></trkpt><trkpt lat="41.23341295076918" lon="14.476260876235576"><ele>96.0</ele><time>2026-04-04T07:14:31Z</time></trkpt><trkpt lat="41.23351146451484" lon="14.47594218471389"><ele>96.0</ele><time>2026-04-04T07:14:32Z</time></trkpt><trkpt lat="41.23359923373242" lon="14.47563944735434"><ele>96.0</ele><time>2026-04-04T07:14:33Z</time></trkpt><trkpt lat="41.233720887901" lon="14.47524482238754"><ele>95.0</ele><time>2026-04-04T07:14:34Z</time></trkpt><trkpt lat="41.233827667694335" lon="14.47488387747038"><ele>94.0</ele><time>2026-04-04T07:14:35Z</time></trkpt><trkpt lat="41.233938201460106" lon="14.474526572882933"><ele>94.0</ele><time>2026-04-04T07:14:36Z</time></trkpt><trkpt lat="41.23404353228617" lon="14.474187570315905"><ele>94.0</ele><time>2026-04-04T07:14:37Z</time></trkpt><trkpt lat="41.234147816136385" lon="14.47385676295914"><ele>93.0</ele><time>2026-04-04T07:14:38Z</time></trkpt><trkpt lat="41.234247936766856" lon="14.47353453841647"><ele>92.0</ele><time>2026-04-04T07:14:39Z</time></trkpt><trkpt lat="41.23434909019416" lon="14.47320933115216"><ele>91.5</ele><time>2026-04-04T07:14:40Z</time></trkpt><trkpt lat="41.23445644183391" lon="14.472880269672286"><ele>91.0</ele><time>2026-04-04T07:14:41Z</time></trkpt><trkpt lat="41.23455912118619" lon="14.472546036694693"><ele>91.0</ele><time>2026-04-04T07:14:42Z</time></trkpt><trkpt lat="41.234662000467246" lon="14.472222581571001"><ele>91.0</ele><time>2026-04-04T07:14:43Z</time></trkpt><trkpt lat="41.23476240480519" lon="14.471893985645064"><ele>91.5</ele><time>2026-04-04T07:14:44Z</time></trkpt><trkpt lat="41.23486492009266" lon="14.471560387035133"><ele>92.0</ele><time>2026-04-04T07:14:45Z</time></trkpt><trkpt lat="41.23496923286597" lon="14.471243278808934"><ele>91.33333333333334</ele><time>2026-04-04T07:14:46Z</time></trkpt><trkpt lat="41.2350490045841" lon="14.47100442374657"><ele>90.66666666666667</ele><time>2026-04-04T07:14:47Z</time></trkpt><trkpt lat="41.23511309613196" lon="14.470809558628451"><ele>90.0</ele><time>2026-04-04T07:14:48Z</time></trkpt><trkpt lat="41.23517731875643" lon="14.470604643093946"><ele>89.0</ele><time>2026-04-04T07:14:49Z</time></trkpt><trkpt lat="41.235242807212124" lon="14.470391956639038"><ele>88.0</ele><time>2026-04-04T07:14:50Z</time></trkpt><trkpt lat="41.235311959988856" lon="14.470167852966615"><ele>87.0</ele><time>2026-04-04T07:14:51Z</time></trkpt><trkpt lat="41.235384056398466" lon="14.46993904391796"><ele>87.0</ele><time>2026-04-04T07:14:52Z</time></trkpt><trkpt lat="41.23546626754696" lon="14.469680487879135"><ele>87.0</ele><time>2026-04-04T07:14:53Z</time></trkpt><trkpt lat="41.23555632649803" lon="14.469385680740563"><ele>87.5</ele><time>2026-04-04T07:14:54Z</time></trkpt><trkpt lat="41.235658758077236" lon="14.469071660403362"><ele>88.0</ele><time>2026-04-04T07:14:55Z</time></trkpt><trkpt lat="41.23576956906613" lon="14.468734303726366"><ele>89.0</ele><time>2026-04-04T07:14:56Z</time></trkpt><trkpt lat="41.23587985376176" lon="14.468376067590413"><ele>90.0</ele><time>2026-04-04T07:14:57Z</time></trkpt><trkpt lat="41.23599540610728" lon="14.46800764091009"><ele>89.5</ele><time>2026-04-04T07:14:58Z</time></trkpt><trkpt lat="41.236117089341256" lon="14.46762482130105"><ele>89.0</ele><time>2026-04-04T07:14:59Z</time></trkpt><trkpt lat="41.236238833186945" lon="14.467232274343594"><ele>88.0</ele><time>2026-04-04T07:15:00Z</time></trkpt><trkpt lat="41.23636093684205" lon="14.466837672369046"><ele>87.0</ele><time>2026-04-04T07:15:01Z</time></trkpt><trkpt lat="41.23647974756765" lon="14.466453018288904"><ele>89.5</ele><time>2026-04-04T07:15:02Z</time></trkpt><trkpt lat="41.23659873149336" lon="14.466068829177354"><ele>92.0</ele><time>2026-04-04T07:15:03Z</time></trkpt><trkpt lat="41.23671680836174" lon="14.465687454026055"><ele>91.5</ele><time>2026-04-04T07:15:04Z</time></trkpt><trkpt lat="41.236832227061946" lon="14.465314919414633"><ele>91.0</ele><time>2026-04-04T07:15:05Z</time></trkpt><trkpt lat="41.23694627702612" lon="14.464942235852668"><ele>89.0</ele><time>2026-04-04T07:15:06Z</time></trkpt><trkpt lat="41.23706320988963" lon="14.464574299855576"><ele>87.0</ele><time>2026-04-04T07:15:07Z</time></trkpt><trkpt lat="41.237179965136455" lon="14.464210380616505"><ele>87.0</ele><time>2026-04-04T07:15:08Z</time></trkpt><trkpt lat="41.23729645091087" lon="14.463850568498257"><ele>87.0</ele><time>2026-04-04T07:15:09Z</time></trkpt><trkpt lat="41.23740845587321" lon="14.4635012138774"><ele>86.0</ele><time>2026-04-04T07:15:10Z</time></trkpt><trkpt lat="41.237519313345786" lon="14.463142768897114"><ele>85.0</ele><time>2026-04-04T07:15:11Z</time></trkpt><trkpt lat="41.2376292828431" lon="14.46278644103474"><ele>85.0</ele><time>2026-04-04T07:15:12Z</time></trkpt><trkpt lat="41.237743357156525" lon="14.462423137940894"><ele>85.0</ele><time>2026-04-04T07:15:13Z</time></trkpt><trkpt lat="41.23785421792064" lon="14.462072361206525"><ele>85.0</ele><time>2026-04-04T07:15:14Z</time></trkpt><trkpt lat="41.237965362288804" lon="14.46171542011956"><ele>85.0</ele><time>2026-04-04T07:15:15Z</time></trkpt><trkpt lat="41.23807708720564" lon="14.461353309716754"><ele>86.0</ele><time>2026-04-04T07:15:16Z</time></trkpt><trkpt lat="41.23818980035584" lon="14.460998490724387"><ele>87.0</ele><time>2026-04-04T07:15:17Z</time></trkpt><trkpt lat="41.238304025827674" lon="14.460644066484281"><ele>85.5</ele><time>2026-04-04T07:15:18Z</time></trkpt><trkpt lat="41.238418038064616" lon="14.460285341656894"><ele>84.0</ele><time>2026-04-04T07:15:19Z</time></trkpt><trkpt lat="41.23853108311299" lon="14.45992538681706"><ele>84.5</ele><time>2026-04-04T07:15:20Z</time></trkpt><trkpt lat="41.23864321960672" lon="14.459573025385863"><ele>85.0</ele><time>2026-04-04T07:15:21Z</time></trkpt><trkpt lat="41.23875568036571" lon="14.459224181348725"><ele>85.0</ele><time>2026-04-04T07:15:22Z</time></trkpt><trkpt lat="41.23886139308689" lon="14.458863589851221"><ele>85.0</ele><time>2026-04-04T07:15:23Z</time></trkpt><trkpt lat="41.23896628834576" lon="14.458528373924763"><ele>84.5</ele><time>2026-04-04T07:15:24Z</time></trkpt><trkpt lat="41.23906734982258" lon="14.458187679978327"><ele>84.0</ele><time>2026-04-04T07:15:25Z</time></trkpt><trkpt lat="41.2391758230667" lon="14.457849584825338"><ele>82.0</ele><time>2026-04-04T07:15:26Z</time></trkpt><trkpt lat="41.23928524920843" lon="14.457525285969083"><ele>80.0</ele><time>2026-04-04T07:15:27Z</time></trkpt><trkpt lat="41.23939028027183" lon="14.457201740445681"><ele>80.0</ele><time>2026-04-04T07:15:28Z</time></trkpt><trkpt lat="41.2394965639501" lon="14.456879653671132"><ele>80.0</ele><time>2026-04-04T07:15:29Z</time></trkpt><trkpt lat="41.239597674448596" lon="14.456558722774611"><ele>80.0</ele><time>2026-04-04T07:15:30Z</time></trkpt><trkpt lat="41.2396935796351" lon="14.456239614945561"><ele>80.0</ele><time>2026-04-04T07:15:31Z</time></trkpt><trkpt lat="41.239788767851344" lon="14.45592448929811"><ele>80.0</ele><time>2026-04-04T07:15:32Z</time></trkpt><trkpt lat="41.2398845693957" lon="14.455613885120167"><ele>80.0</ele><time>2026-04-04T07:15:33Z</time></trkpt><trkpt lat="41.23998353023503" lon="14.455298616395412"><ele>80.0</ele><time>2026-04-04T07:15:34Z</time></trkpt><trkpt lat="41.24008195648103" lon="14.45499178916075"><ele>80.0</ele><time>2026-04-04T07:15:35Z</time></trkpt><trkpt lat="41.24018204477925" lon="14.454681533052018"><ele>79.0</ele><time>2026-04-04T07:15:36Z</time></trkpt><trkpt lat="41.24027538927768" lon="14.454375144119162"><ele>78.0</ele><time>2026-04-04T07:15:37Z</time></trkpt><trkpt lat="41.24037459748763" lon="14.454065910558157"><ele>77.0</ele><time>2026-04-04T07:15:38Z</time></trkpt><trkpt lat="41.24047445575287" lon="14.453760423605264"><ele>76.0</ele><time>2026-04-04T07:15:39Z</time></trkpt><trkpt lat="41.24056974267153" lon="14.453455370692222"><ele>76.5</ele><time>2026-04-04T07:15:40Z</time></trkpt><trkpt lat="41.2406614433298" lon="14.45314482385419"><ele>77.0</ele><time>2026-04-04T07:15:41Z</time></trkpt><trkpt lat="41.24075792462742" lon="14.45283789570621"><ele>77.0</ele><time>2026-04-04T07:15:42Z</time></trkpt><trkpt lat="41.24085296046642" lon="14.452531640635826"><ele>77.0</ele><time>2026-04-04T07:15:43Z</time></trkpt><trkpt lat="41.240948981274414" lon="14.452224760615916"><ele>76.5</ele><time>2026-04-04T07:15:44Z</time></trkpt><trkpt lat="41.241046916154986" lon="14.451920141756789"><ele>76.0</ele><time>2026-04-04T07:15:45Z</time></trkpt><trkpt lat="41.24114416950242" lon="14.451620474070063"><ele>76.0</ele><time>2026-04-04T07:15:46Z</time></trkpt><trkpt lat="41.241240294913155" lon="14.451319093175709"><ele>76.0</ele><time>2026-04-04T07:15:47Z</time></trkpt><trkpt lat="41.241334135784186" lon="14.451017256735035"><ele>75.0</ele><time>2026-04-04T07:15:48Z</time></trkpt><trkpt lat="41.24142855771572" lon="14.450718777770854"><ele>74.0</ele><time>2026-04-04T07:15:49Z</time></trkpt><trkpt lat="41.24152514690281" lon="14.450416443926555"><ele>73.5</ele><time>2026-04-04T07:15:50Z</time></trkpt><trkpt lat="41.241620451027536" lon="14.450113185082825"><ele>73.0</ele><time>2026-04-04T07:15:51Z</time></trkpt><trkpt lat="41.241715317876" lon="14.44980151871217"><ele>74.0</ele><time>2026-04-04T07:15:52Z</time></trkpt><trkpt lat="41.2418087957114" lon="14.449493869925169"><ele>75.0</ele><time>2026-04-04T07:15:53Z</time></trkpt><trkpt lat="41.24190549823592" lon="14.449181633624933"><ele>75.0</ele><time>2026-04-04T07:15:54Z</time></trkpt><trkpt lat="41.242003161919236" lon="14.448869222908609"><ele>75.0</ele><time>2026-04-04T07:15:55Z</time></trkpt><trkpt lat="41.24209842739111" lon="14.448557351622302"><ele>74.5</ele><time>2026-04-04T07:15:56Z</time></trkpt><trkpt lat="41.242198100758394" lon="14.448239227729303"><ele>74.0</ele><time>2026-04-04T07:15:57Z</time></trkpt><trkpt lat="41.242299391777046" lon="14.447922620071559"><ele>74.0</ele><time>2026-04-04T07:15:58Z</time></trkpt><trkpt lat="41.24240302396281" lon="14.447600253387755"><ele>74.0</ele><time>2026-04-04T07:15:59Z</time></trkpt><trkpt lat="41.242505422328534" lon="14.447281489121599"><ele>74.0</ele><time>2026-04-04T07:16:00Z</time></trkpt><trkpt lat="41.24260945412451" lon="14.446956535716433"><ele>74.0</ele><time>2026-04-04T07:16:01Z</time></trkpt><trkpt lat="41.24271008371223" lon="14.446629770465822"><ele>74.0</ele><time>2026-04-04T07:16:02Z</time></trkpt><trkpt lat="41.24281215753011" lon="14.44630099871946"><ele>74.0</ele><time>2026-04-04T07:16:03Z</time></trkpt><trkpt lat="41.242913540632316" lon="14.445976582676568"><ele>73.5</ele><time>2026-04-04T07:16:04Z</time></trkpt><trkpt lat="41.243015027925196" lon="14.445652037346779"><ele>73.0</ele><time>2026-04-04T07:16:05Z</time></trkpt><trkpt lat="41.243114089128866" lon="14.4453257743954"><ele>73.5</ele><time>2026-04-04T07:16:06Z</time></trkpt><trkpt lat="41.243218813042" lon="14.444994816176955"><ele>74.0</ele><time>2026-04-04T07:16:07Z</time></trkpt><trkpt lat="41.243320495540864" lon="14.444669452036566"><ele>73.0</ele><time>2026-04-04T07:16:08Z</time></trkpt><trkpt lat="41.24342134673549" lon="14.444342444828605"><ele>72.0</ele><time>2026-04-04T07:16:09Z</time></trkpt><trkpt lat="41.24352350521242" lon="14.444015887926136"><ele>71.5</ele><time>2026-04-04T07:16:10Z</time></trkpt><trkpt lat="41.24362720661521" lon="14.443691594328381"><ele>71.0</ele><time>2026-04-04T07:16:11Z</time></trkpt><trkpt lat="41.24372863373559" lon="14.443368602141495"><ele>71.0</ele><time>2026-04-04T07:16:12Z</time></trkpt><trkpt lat="41.24383047310871" lon="14.44304805643247"><ele>71.0</ele><time>2026-04-04T07:16:13Z</time></trkpt><trkpt lat="41.24393559116014" lon="14.442728596407976"><ele>71.5</ele><time>2026-04-04T07:16:14Z</time></trkpt><trkpt lat="41.24403667698336" lon="14.442400277301426"><ele>72.0</ele><time>2026-04-04T07:16:15Z</time></trkpt><trkpt lat="41.24414533194996" lon="14.442051216354256"><ele>72.0</ele><time>2026-04-04T07:16:16Z</time></trkpt><trkpt lat="41.24425931573699" lon="14.441707252568937"><ele>72.0</ele><time>2026-04-04T07:16:17Z</time></trkpt><trkpt lat="41.24434973549099" lon="14.441399088111046"><ele>71.5</ele><time>2026-04-04T07:16:18Z</time></trkpt><trkpt lat="41.24444162445133" lon="14.441110102570034"><ele>71.0</ele><time>2026-04-04T07:16:19Z</time></trkpt><trkpt lat="41.24452919740017" lon="14.440838268873913"><ele>71.0</ele><time>2026-04-04T07:16:20Z</time></trkpt><trkpt lat="41.244613819407554" lon="14.4405750431991"><ele>71.0</ele><time>2026-04-04T07:16:21Z</time></trkpt><trkpt lat="41.24469094040917" lon="14.440332235459689"><ele>71.0</ele><time>2026-04-04T07:16:22Z</time></trkpt><trkpt lat="41.244773959043656" lon="14.440076706912873"><ele>70.66666666666667</ele><time>2026-04-04T07:16:23Z</time></trkpt><trkpt lat="41.24486043125189" lon="14.439803765439057"><ele>70.33333333333333</ele><time>2026-04-04T07:16:24Z</time></trkpt><trkpt lat="41.2449477109108" lon="14.439528520882085"><ele>70.0</ele><time>2026-04-04T07:16:25Z</time></trkpt><trkpt lat="41.245039976590725" lon="14.439240009289328"><ele>70.0</ele><time>2026-04-04T07:16:26Z</time></trkpt><trkpt lat="41.2451372428639" lon="14.438940357344064"><ele>70.0</ele><time>2026-04-04T07:16:27Z</time></trkpt><trkpt lat="41.245232877138186" lon="14.438639187144384"><ele>70.0</ele><time>2026-04-04T07:16:28Z</time></trkpt><trkpt lat="41.24533488167466" lon="14.438332361946744"><ele>70.0</ele><time>2026-04-04T07:16:29Z</time></trkpt><trkpt lat="41.245438795032314" lon="14.438020885490523"><ele>69.5</ele><time>2026-04-04T07:16:30Z</time></trkpt><trkpt lat="41.2455430930523" lon="14.43770634334194"><ele>69.0</ele><time>2026-04-04T07:16:31Z</time></trkpt><trkpt lat="41.24564795487444" lon="14.43739053883939"><ele>67.5</ele><time>2026-04-04T07:16:32Z</time></trkpt><trkpt lat="41.245758274034905" lon="14.437069367903286"><ele>66.0</ele><time>2026-04-04T07:16:33Z</time></trkpt><trkpt lat="41.245870493094465" lon="14.436745180257551"><ele>66.0</ele><time>2026-04-04T07:16:34Z</time></trkpt><trkpt lat="41.245979750074994" lon="14.436424366273593"><ele>66.0</ele><time>2026-04-04T07:16:35Z</time></trkpt><trkpt lat="41.24609257474823" lon="14.436097537741452"><ele>65.5</ele><time>2026-04-04T07:16:36Z</time></trkpt><trkpt lat="41.246204993512535" lon="14.4357698450321"><ele>65.0</ele><time>2026-04-04T07:16:37Z</time></trkpt><trkpt lat="41.24631471696583" lon="14.43544103426169"><ele>64.0</ele><time>2026-04-04T07:16:38Z</time></trkpt><trkpt lat="41.24642939619801" lon="14.435113809687278"><ele>63.0</ele><time>2026-04-04T07:16:39Z</time></trkpt><trkpt lat="41.246539987957206" lon="14.434790860916767"><ele>62.0</ele><time>2026-04-04T07:16:40Z</time></trkpt><trkpt lat="41.24664606696849" lon="14.434472463053176"><ele>61.0</ele><time>2026-04-04T07:16:41Z</time></trkpt><trkpt lat="41.246751028892064" lon="14.434157281463749"><ele>61.0</ele><time>2026-04-04T07:16:42Z</time></trkpt><trkpt lat="41.24685935051327" lon="14.433842799735764"><ele>61.0</ele><time>2026-04-04T07:16:43Z</time></trkpt><trkpt lat="41.246966604486005" lon="14.433532627248807"><ele>60.5</ele><time>2026-04-04T07:16:44Z</time></trkpt><trkpt lat="41.24707477126201" lon="14.433224426372231"><ele>60.0</ele><time>2026-04-04T07:16:45Z</time></trkpt><trkpt lat="41.24718174535287" lon="14.432918920504537"><ele>60.0</ele><time>2026-04-04T07:16:46Z</time></trkpt><trkpt lat="41.24728508711792" lon="14.432616175041769"><ele>60.0</ele><time>2026-04-04T07:16:47Z</time></trkpt><trkpt lat="41.247383314359894" lon="14.432319146739157"><ele>61.0</ele><time>2026-04-04T07:16:48Z</time></trkpt><trkpt lat="41.24747543194358" lon="14.432042211772762"><ele>62.0</ele><time>2026-04-04T07:16:49Z</time></trkpt><trkpt lat="41.247570057477574" lon="14.431774652084313"><ele>62.0</ele><time>2026-04-04T07:16:50Z</time></trkpt><trkpt lat="41.24766016701944" lon="14.431498143976848"><ele>62.0</ele><time>2026-04-04T07:16:51Z</time></trkpt><trkpt lat="41.24775700348499" lon="14.431214633158717"><ele>61.0</ele><time>2026-04-04T07:16:52Z</time></trkpt><trkpt lat="41.24785949601577" lon="14.430925188489056"><ele>60.0</ele><time>2026-04-04T07:16:53Z</time></trkpt><trkpt lat="41.24796403624852" lon="14.430631350074417"><ele>60.5</ele><time>2026-04-04T07:16:54Z</time></trkpt><trkpt lat="41.24806755287747" lon="14.430330022738485"><ele>61.0</ele><time>2026-04-04T07:16:55Z</time></trkpt><trkpt lat="41.248170074712405" lon="14.43002398903642"><ele>61.5</ele><time>2026-04-04T07:16:56Z</time></trkpt><trkpt lat="41.24827777463297" lon="14.429713613381109"><ele>62.0</ele><time>2026-04-04T07:16:57Z</time></trkpt><trkpt lat="41.24838927471863" lon="14.429412513637956"><ele>62.0</ele><time>2026-04-04T07:16:58Z</time></trkpt><trkpt lat="41.24849994504311" lon="14.429101685725122"><ele>62.0</ele><time>2026-04-04T07:16:59Z</time></trkpt><trkpt lat="41.24860748200057" lon="14.42879040270285"><ele>62.0</ele><time>2026-04-04T07:17:00Z</time></trkpt><trkpt lat="41.24871369053721" lon="14.428479093083713"><ele>62.0</ele><time>2026-04-04T07:17:01Z</time></trkpt><trkpt lat="41.24882003820075" lon="14.428160388536856"><ele>62.0</ele><time>2026-04-04T07:17:02Z</time></trkpt><trkpt lat="41.248924346216754" lon="14.42784575817635"><ele>62.0</ele><time>2026-04-04T07:17:03Z</time></trkpt><trkpt lat="41.24902937989176" lon="14.427528284337193"><ele>62.0</ele><time>2026-04-04T07:17:04Z</time></trkpt><trkpt lat="41.249137483947145" lon="14.42720833157333"><ele>62.0</ele><time>2026-04-04T07:17:05Z</time></trkpt><trkpt lat="41.24924535419297" lon="14.426891024670219"><ele>64.5</ele><time>2026-04-04T07:17:06Z</time></trkpt><trkpt lat="41.24935286394408" lon="14.42657441198369"><ele>67.0</ele><time>2026-04-04T07:17:07Z</time></trkpt><trkpt lat="41.24945939938665" lon="14.426250872975313"><ele>67.0</ele><time>2026-04-04T07:17:08Z</time></trkpt><trkpt lat="41.24956296881053" lon="14.42592979339303"><ele>67.0</ele><time>2026-04-04T07:17:09Z</time></trkpt><trkpt lat="41.24966352625052" lon="14.4256108505432"><ele>66.5</ele><time>2026-04-04T07:17:10Z</time></trkpt><trkpt lat="41.2497706329826" lon="14.425282866916596"><ele>66.0</ele><time>2026-04-04T07:17:11Z</time></trkpt><trkpt lat="41.249874729229944" lon="14.424956985884096"><ele>61.5</ele><time>2026-04-04T07:17:12Z</time></trkpt><trkpt lat="41.24998069488487" lon="14.424634128571718"><ele>57.0</ele><time>2026-04-04T07:17:13Z</time></trkpt><trkpt lat="41.25008699674868" lon="14.424310243904005"><ele>57.0</ele><time>2026-04-04T07:17:14Z</time></trkpt><trkpt lat="41.25019118247716" lon="14.423986497215882"><ele>57.0</ele><time>2026-04-04T07:17:15Z</time></trkpt><trkpt lat="41.250293798149194" lon="14.423652361095806"><ele>56.5</ele><time>2026-04-04T07:17:16Z</time></trkpt><trkpt lat="41.250391705364734" lon="14.423319508687353"><ele>56.0</ele><time>2026-04-04T07:17:17Z</time></trkpt><trkpt lat="41.250489653340836" lon="14.42298364481026"><ele>55.5</ele><time>2026-04-04T07:17:18Z</time></trkpt><trkpt lat="41.250588322222214" lon="14.422648581185861"><ele>55.0</ele><time>2026-04-04T07:17:19Z</time></trkpt><trkpt lat="41.25068831641104" lon="14.42231038539618"><ele>55.0</ele><time>2026-04-04T07:17:20Z</time></trkpt><trkpt lat="41.25078764231235" lon="14.42197487116318"><ele>55.0</ele><time>2026-04-04T07:17:21Z</time></trkpt><trkpt lat="41.25088830312236" lon="14.4216363473877"><ele>54.5</ele><time>2026-04-04T07:17:22Z</time></trkpt><trkpt lat="41.25098667630805" lon="14.421299642392563"><ele>54.0</ele><time>2026-04-04T07:17:23Z</time></trkpt><trkpt lat="41.25108198460403" lon="14.420965935360442"><ele>54.0</ele><time>2026-04-04T07:17:24Z</time></trkpt><trkpt lat="41.2511786637032" lon="14.420629520898295"><ele>54.0</ele><time>2026-04-04T07:17:25Z</time></trkpt><trkpt lat="41.25127769577624" lon="14.420288288077698"><ele>54.5</ele><time>2026-04-04T07:17:26Z</time></trkpt><trkpt lat="41.25137498667631" lon="14.4199503633142"><ele>55.0</ele><time>2026-04-04T07:17:27Z</time></trkpt><trkpt lat="41.251472671892394" lon="14.419610139173558"><ele>55.0</ele><time>2026-04-04T07:17:28Z</time></trkpt><trkpt lat="41.251571744423984" lon="14.41926601434397"><ele>55.0</ele><time>2026-04-04T07:17:29Z</time></trkpt><trkpt lat="41.25167128468265" lon="14.418924685643582"><ele>55.0</ele><time>2026-04-04T07:17:30Z</time></trkpt><trkpt lat="41.251770775587" lon="14.418578222750055"><ele>55.0</ele><time>2026-04-04T07:17:31Z</time></trkpt><trkpt lat="41.25186635025972" lon="14.418234847489982"><ele>55.0</ele><time>2026-04-04T07:17:32Z</time></trkpt><trkpt lat="41.25196494501819" lon="14.41789862655091"><ele>55.0</ele><time>2026-04-04T07:17:33Z</time></trkpt><trkpt lat="41.252070025244805" lon="14.417554078646402"><ele>55.0</ele><time>2026-04-04T07:17:34Z</time></trkpt><trkpt lat="41.252172008455744" lon="14.417214879185135"><ele>55.0</ele><time>2026-04-04T07:17:35Z</time></trkpt><trkpt lat="41.252271803688444" lon="14.416877739599396"><ele>55.5</ele><time>2026-04-04T07:17:36Z</time></trkpt><trkpt lat="41.25237115166866" lon="14.416543289854948"><ele>56.0</ele><time>2026-04-04T07:17:37Z</time></trkpt><trkpt lat="41.2524701584312" lon="14.416204509361071"><ele>56.5</ele><time>2026-04-04T07:17:38Z</time></trkpt><trkpt lat="41.25256649820698" lon="14.415879018048653"><ele>57.0</ele><time>2026-04-04T07:17:39Z</time></trkpt><trkpt lat="41.25266351102931" lon="14.415547603729546"><ele>56.0</ele><time>2026-04-04T07:17:40Z</time></trkpt><trkpt lat="41.25276041309229" lon="14.415216996445972"><ele>55.0</ele><time>2026-04-04T07:17:41Z</time></trkpt><trkpt lat="41.25285607015412" lon="14.414889147337151"><ele>55.0</ele><time>2026-04-04T07:17:42Z</time></trkpt><trkpt lat="41.252950411222976" lon="14.414562240140926"><ele>55.0</ele><time>2026-04-04T07:17:43Z</time></trkpt><trkpt lat="41.25304235347595" lon="14.414240109502018"><ele>56.0</ele><time>2026-04-04T07:17:44Z</time></trkpt><trkpt lat="41.25313353330742" lon="14.413923821368757"><ele>57.0</ele><time>2026-04-04T07:17:45Z</time></trkpt><trkpt lat="41.25321639409384" lon="14.413637497191788"><ele>58.0</ele><time>2026-04-04T07:17:46Z</time></trkpt><trkpt lat="41.25329308608002" lon="14.41337130584994"><ele>59.0</ele><time>2026-04-04T07:17:47Z</time></trkpt><trkpt lat="41.253362793186795" lon="14.413129001070255"><ele>60.0</ele><time>2026-04-04T07:17:48Z</time></trkpt><trkpt lat="41.253434649242834" lon="14.412875952626896"><ele>60.66666666666667</ele><time>2026-04-04T07:17:49Z</time></trkpt><trkpt lat="41.253501774399076" lon="14.412648810691367"><ele>61.333333333333336</ele><time>2026-04-04T07:17:50Z</time></trkpt><trkpt lat="41.25356670093456" lon="14.412443367018454"><ele>62.0</ele><time>2026-04-04T07:17:51Z</time></trkpt><trkpt lat="41.25362778335668" lon="14.412248507033178"><ele>63.333333333333336</ele><time>2026-04-04T07:17:52Z</time></trkpt><trkpt lat="41.25368427248694" lon="14.412057418239412"><ele>64.66666666666667</ele><time>2026-04-04T07:17:53Z</time></trkpt><trkpt lat="41.25374206415756" lon="14.411861789263323"><ele>66.0</ele><time>2026-04-04T07:17:54Z</time></trkpt><trkpt lat="41.25380214062332" lon="14.41165012342661"><ele>66.0</ele><time>2026-04-04T07:17:55Z</time></trkpt><trkpt lat="41.253864581530884" lon="14.411427075633037"><ele>66.0</ele><time>2026-04-04T07:17:56Z</time></trkpt><trkpt lat="41.25393113960218" lon="14.411195487186118"><ele>66.0</ele><time>2026-04-04T07:17:57Z</time></trkpt><trkpt lat="41.25400012213015" lon="14.410954711453888"><ele>67.0</ele><time>2026-04-04T07:17:58Z</time></trkpt><trkpt lat="41.25407240162974" lon="14.410714366382596"><ele>68.0</ele><time>2026-04-04T07:17:59Z</time></trkpt><trkpt lat="41.25414701495019" lon="14.41046517359045"><ele>69.0</ele><time>2026-04-04T07:18:00Z</time></trkpt><trkpt lat="41.25422045512673" lon="14.410217332443706"><ele>70.0</ele><time>2026-04-04T07:18:01Z</time></trkpt><trkpt lat="41.25429614321784" lon="14.409955571712274"><ele>71.0</ele><time>2026-04-04T07:18:02Z</time></trkpt><trkpt lat="41.25437127590378" lon="14.40969426218162"><ele>72.0</ele><time>2026-04-04T07:18:03Z</time></trkpt><trkpt lat="41.25445006434649" lon="14.409428294999179"><ele>73.66666666666667</ele><time>2026-04-04T07:18:04Z</time></trkpt><trkpt lat="41.254534612331675" lon="14.409163857217216"><ele>75.33333333333334</ele><time>2026-04-04T07:18:05Z</time></trkpt><trkpt lat="41.25462225573939" lon="14.408897101831803"><ele>77.0</ele><time>2026-04-04T07:18:06Z</time></trkpt><trkpt lat="41.2547228094714" lon="14.408625236045657"><ele>77.33333333333334</ele><time>2026-04-04T07:18:07Z</time></trkpt><trkpt lat="41.25481755897871" lon="14.408377960141214"><ele>77.66666666666667</ele><time>2026-04-04T07:18:08Z</time></trkpt><trkpt lat="41.25492446812532" lon="14.408122661961015"><ele>78.0</ele><time>2026-04-04T07:18:09Z</time></trkpt><trkpt lat="41.25503347150195" lon="14.40786771762071"><ele>78.33333333333333</ele><time>2026-04-04T07:18:10Z</time></trkpt><trkpt lat="41.255148895354786" lon="14.4076123942077"><ele>78.66666666666666</ele><time>2026-04-04T07:18:11Z</time></trkpt><trkpt lat="41.25527009477642" lon="14.407361134609452"><ele>79.0</ele><time>2026-04-04T07:18:12Z</time></trkpt><trkpt lat="41.255395660843156" lon="14.40711654677657"><ele>78.0</ele><time>2026-04-04T07:18:13Z</time></trkpt><trkpt lat="41.255526409191695" lon="14.406872615680639"><ele>77.0</ele><time>2026-04-04T07:18:14Z</time></trkpt><trkpt lat="41.2556565254996" lon="14.406641060468564"><ele>76.0</ele><time>2026-04-04T07:18:15Z</time></trkpt><trkpt lat="41.25579309768987" lon="14.40640642828246"><ele>73.33333333333333</ele><time>2026-04-04T07:18:16Z</time></trkpt><trkpt lat="41.25593327885048" lon="14.406181027163694"><ele>70.66666666666667</ele><time>2026-04-04T07:18:17Z</time></trkpt><trkpt lat="41.25608021385347" lon="14.405957237875485"><ele>68.0</ele><time>2026-04-04T07:18:18Z</time></trkpt><trkpt lat="41.25623290164403" lon="14.405741950586364"><ele>68.0</ele><time>2026-04-04T07:18:19Z</time></trkpt><trkpt lat="41.256390432584" lon="14.405533986963984"><ele>68.0</ele><time>2026-04-04T07:18:20Z</time></trkpt><trkpt lat="41.256553763736534" lon="14.405332518697657"><ele>68.0</ele><time>2026-04-04T07:18:21Z</time></trkpt><trkpt lat="41.25671792079928" lon="14.40513420409803"><ele>68.0</ele><time>2026-04-04T07:18:22Z</time></trkpt><trkpt lat="41.25688412890414" lon="14.404932066099235"><ele>68.0</ele><time>2026-04-04T07:18:23Z</time></trkpt><trkpt lat="41.25705447521699" lon="14.404730365673698"><ele>67.5</ele><time>2026-04-04T07:18:24Z</time></trkpt><trkpt lat="41.257227479093935" lon="14.404535556758528"><ele>67.0</ele><time>2026-04-04T07:18:25Z</time></trkpt><trkpt lat="41.257406888071735" lon="14.40434827290258"><ele>67.0</ele><time>2026-04-04T07:18:26Z</time></trkpt><trkpt lat="41.25758467348628" lon="14.40416541661998"><ele>67.0</ele><time>2026-04-04T07:18:27Z</time></trkpt><trkpt lat="41.25776052253658" lon="14.403985363097544"><ele>67.0</ele><time>2026-04-04T07:18:28Z</time></trkpt><trkpt lat="41.25794028764675" lon="14.40380135861257"><ele>66.5</ele><time>2026-04-04T07:18:29Z</time></trkpt><trkpt lat="41.2581204142516" lon="14.40361350354236"><ele>66.0</ele><time>2026-04-04T07:18:30Z</time></trkpt><trkpt lat="41.25829936011301" lon="14.40342458404789"><ele>66.0</ele><time>2026-04-04T07:18:31Z</time></trkpt><trkpt lat="41.2584813005506" lon="14.403234167766653"><ele>66.0</ele><time>2026-04-04T07:18:32Z</time></trkpt><trkpt lat="41.25866635942578" lon="14.403042832007728"><ele>67.0</ele><time>2026-04-04T07:18:33Z</time></trkpt><trkpt lat="41.25884828590733" lon="14.402853704062377"><ele>68.0</ele><time>2026-04-04T07:18:34Z</time></trkpt><trkpt lat="41.259035449114464" lon="14.402659329578652"><ele>68.0</ele><time>2026-04-04T07:18:35Z</time></trkpt><trkpt lat="41.25921990110914" lon="14.402463562079298"><ele>68.0</ele><time>2026-04-04T07:18:36Z</time></trkpt><trkpt lat="41.25940184535417" lon="14.402265354804097"><ele>65.0</ele><time>2026-04-04T07:18:37Z</time></trkpt><trkpt lat="41.25958850917336" lon="14.402063561756135"><ele>62.0</ele><time>2026-04-04T07:18:38Z</time></trkpt><trkpt lat="41.25977079510653" lon="14.401865761125732"><ele>66.5</ele><time>2026-04-04T07:18:39Z</time></trkpt><trkpt lat="41.259957944669" lon="14.401663807090081"><ele>71.0</ele><time>2026-04-04T07:18:40Z</time></trkpt><trkpt lat="41.26015346762986" lon="14.401452412077202"><ele>68.0</ele><time>2026-04-04T07:18:41Z</time></trkpt><trkpt lat="41.260369142023265" lon="14.401222838421997"><ele>65.0</ele><time>2026-04-04T07:18:42Z</time></trkpt><trkpt lat="41.26060232344457" lon="14.400985532884985"><ele>65.0</ele><time>2026-04-04T07:18:43Z</time></trkpt><trkpt lat="41.2608532378773" lon="14.40073871783901"><ele>65.0</ele><time>2026-04-04T07:18:44Z</time></trkpt><trkpt lat="41.261100378597384" lon="14.400484883578"><ele>65.0</ele><time>2026-04-04T07:18:45Z</time></trkpt><trkpt lat="41.26132737155391" lon="14.400245792426528"><ele>65.0</ele><time>2026-04-04T07:18:46Z</time></trkpt><trkpt lat="41.261537420431814" lon="14.400020254944849"><ele>65.5</ele><time>2026-04-04T07:18:47Z</time></trkpt><trkpt lat="41.261733544721295" lon="14.399803746705334"><ele>66.0</ele><time>2026-04-04T07:18:48Z</time></trkpt><trkpt lat="41.26192577866312" lon="14.399576625533427"><ele>66.0</ele><time>2026-04-04T07:18:49Z</time></trkpt><trkpt lat="41.262110769516084" lon="14.399338889062006"><ele>66.0</ele><time>2026-04-04T07:18:50Z</time></trkpt><trkpt lat="41.262291125352625" lon="14.39908716479204"><ele>66.0</ele><time>2026-04-04T07:18:51Z</time></trkpt><trkpt lat="41.262467873421755" lon="14.398816350350291"><ele>66.0</ele><time>2026-04-04T07:18:52Z</time></trkpt><trkpt lat="41.26263877645596" lon="14.398521716625373"><ele>66.0</ele><time>2026-04-04T07:18:53Z</time></trkpt><trkpt lat="41.2628091459478" lon="14.398208169038755"><ele>66.0</ele><time>2026-04-04T07:18:54Z</time></trkpt><trkpt lat="41.262974459364074" lon="14.39787821196337"><ele>67.5</ele><time>2026-04-04T07:18:55Z</time></trkpt><trkpt lat="41.263117126139534" lon="14.397569782032248"><ele>69.0</ele><time>2026-04-04T07:18:56Z</time></trkpt><trkpt lat="41.26324086427533" lon="14.397285769907187"><ele>67.5</ele><time>2026-04-04T07:18:57Z</time></trkpt><trkpt lat="41.26337519161853" lon="14.39699587965352"><ele>66.0</ele><time>2026-04-04T07:18:58Z</time></trkpt><trkpt lat="41.2635211546152" lon="14.396717382887982"><ele>66.0</ele><time>2026-04-04T07:18:59Z</time></trkpt><trkpt lat="41.26368716037248" lon="14.396451431142836"><ele>66.0</ele><time>2026-04-04T07:19:00Z</time></trkpt><trkpt lat="41.26386698283128" lon="14.396198738619008"><ele>70.0</ele><time>2026-04-04T07:19:01Z</time></trkpt><trkpt lat="41.26405657119655" lon="14.395961216884722"><ele>74.0</ele><time>2026-04-04T07:19:02Z</time></trkpt><trkpt lat="41.26425089556345" lon="14.39573516091882"><ele>74.0</ele><time>2026-04-04T07:19:03Z</time></trkpt><trkpt lat="41.26445486105135" lon="14.395527681961063"><ele>74.0</ele><time>2026-04-04T07:19:04Z</time></trkpt><trkpt lat="41.264667014256695" lon="14.39533816431462"><ele>71.5</ele><time>2026-04-04T07:19:05Z</time></trkpt><trkpt lat="41.264888181743686" lon="14.395160195329579"><ele>69.0</ele><time>2026-04-04T07:19:06Z</time></trkpt><trkpt lat="41.26511965452279" lon="14.395002503207662"><ele>69.0</ele><time>2026-04-04T07:19:07Z</time></trkpt><trkpt lat="41.2653609263874" lon="14.394860375033357"><ele>69.0</ele><time>2026-04-04T07:19:08Z</time></trkpt><trkpt lat="41.26560708323043" lon="14.394734100382431"><ele>66.0</ele><time>2026-04-04T07:19:09Z</time></trkpt><trkpt lat="41.265870222684455" lon="14.394619508358254"><ele>63.0</ele><time>2026-04-04T07:19:10Z</time></trkpt><trkpt lat="41.266141029378765" lon="14.394509212697747"><ele>63.0</ele><time>2026-04-04T07:19:11Z</time></trkpt><trkpt lat="41.266415081241774" lon="14.394394832757929"><ele>63.0</ele><time>2026-04-04T07:19:12Z</time></trkpt><trkpt lat="41.26670335150111" lon="14.394267681019322"><ele>65.0</ele><time>2026-04-04T07:19:13Z</time></trkpt><trkpt lat="41.26699613191342" lon="14.394134592284438"><ele>67.0</ele><time>2026-04-04T07:19:14Z</time></trkpt><trkpt lat="41.267292634145605" lon="14.39399101173251"><ele>65.0</ele><time>2026-04-04T07:19:15Z</time></trkpt><trkpt lat="41.267577262480096" lon="14.393830098397839"><ele>63.0</ele><time>2026-04-04T07:19:16Z</time></trkpt><trkpt lat="41.26784402464792" lon="14.393645477542261"><ele>63.0</ele><time>2026-04-04T07:19:17Z</time></trkpt><trkpt lat="41.2681046615531" lon="14.393422125421798"><ele>63.0</ele><time>2026-04-04T07:19:18Z</time></trkpt><trkpt lat="41.268353152594216" lon="14.393169393231918"><ele>63.0</ele><time>2026-04-04T07:19:19Z</time></trkpt><trkpt lat="41.26858920742324" lon="14.392894197121137"><ele>63.0</ele><time>2026-04-04T07:19:20Z</time></trkpt><trkpt lat="41.26881717170276" lon="14.392592443788633"><ele>63.5</ele><time>2026-04-04T07:19:21Z</time></trkpt><trkpt lat="41.269027959410586" lon="14.39227620257913"><ele>64.0</ele><time>2026-04-04T07:19:22Z</time></trkpt><trkpt lat="41.26922152188796" lon="14.391932599103018"><ele>64.0</ele><time>2026-04-04T07:19:23Z</time></trkpt><trkpt lat="41.26940882398128" lon="14.391564297595107"><ele>64.0</ele><time>2026-04-04T07:19:24Z</time></trkpt><trkpt lat="41.26956755740214" lon="14.391180550056909"><ele>63.0</ele><time>2026-04-04T07:19:25Z</time></trkpt><trkpt lat="41.26971084158449" lon="14.390784485527913"><ele>62.0</ele><time>2026-04-04T07:19:26Z</time></trkpt><trkpt lat="41.26982951822464" lon="14.390376183722871"><ele>65.0</ele><time>2026-04-04T07:19:27Z</time></trkpt><trkpt lat="41.26992011185967" lon="14.389950511178327"><ele>68.0</ele><time>2026-04-04T07:19:28Z</time></trkpt><trkpt lat="41.269996925846236" lon="14.389501325444995"><ele>68.5</ele><time>2026-04-04T07:19:29Z</time></trkpt><trkpt lat="41.27006713974311" lon="14.38904244596203"><ele>69.0</ele><time>2026-04-04T07:19:30Z</time></trkpt><trkpt lat="41.27014309963614" lon="14.388575183202148"><ele>70.5</ele><time>2026-04-04T07:19:31Z</time></trkpt><trkpt lat="41.27022506654035" lon="14.388109055479397"><ele>72.0</ele><time>2026-04-04T07:19:32Z</time></trkpt><trkpt lat="41.27031070731524" lon="14.38764972914716"><ele>73.0</ele><time>2026-04-04T07:19:33Z</time></trkpt><trkpt lat="41.27040935271789" lon="14.387188247372809"><ele>74.0</ele><time>2026-04-04T07:19:34Z</time></trkpt><trkpt lat="41.27053863733965" lon="14.386751692598374"><ele>79.5</ele><time>2026-04-04T07:19:35Z</time></trkpt><trkpt lat="41.27066246074182" lon="14.386300780670616"><ele>85.0</ele><time>2026-04-04T07:19:36Z</time></trkpt><trkpt lat="41.270821556764" lon="14.385862754246444"><ele>91.5</ele><time>2026-04-04T07:19:37Z</time></trkpt><trkpt lat="41.27100094376859" lon="14.385430387663915"><ele>98.0</ele><time>2026-04-04T07:19:38Z</time></trkpt><trkpt lat="41.27119400083056" lon="14.385001663195757"><ele>102.0</ele><time>2026-04-04T07:19:39Z</time></trkpt><trkpt lat="41.27139009602546" lon="14.384570121238937"><ele>106.0</ele><time>2026-04-04T07:19:40Z</time></trkpt><trkpt lat="41.27158274969547" lon="14.384134197135948"><ele>99.5</ele><time>2026-04-04T07:19:41Z</time></trkpt><trkpt lat="41.271774667448284" lon="14.383687081815763"><ele>93.0</ele><time>2026-04-04T07:19:42Z</time></trkpt><trkpt lat="41.27196544520725" lon="14.383239942379824"><ele>93.5</ele><time>2026-04-04T07:19:43Z</time></trkpt><trkpt lat="41.27215880572068" lon="14.382790919184737"><ele>94.0</ele><time>2026-04-04T07:19:44Z</time></trkpt><trkpt lat="41.27234880755939" lon="14.382347307039918"><ele>86.0</ele><time>2026-04-04T07:19:45Z</time></trkpt><trkpt lat="41.27254590849394" lon="14.381900323408093"><ele>78.0</ele><time>2026-04-04T07:19:46Z</time></trkpt><trkpt lat="41.27273809041625" lon="14.38145979290652"><ele>76.5</ele><time>2026-04-04T07:19:47Z</time></trkpt><trkpt lat="41.272924674882525" lon="14.381023276268474"><ele>75.0</ele><time>2026-04-04T07:19:48Z</time></trkpt><trkpt lat="41.27310714092569" lon="14.38060284170362"><ele>75.0</ele><time>2026-04-04T07:19:49Z</time></trkpt><trkpt lat="41.27327628823157" lon="14.380198374417787"><ele>75.0</ele><time>2026-04-04T07:19:50Z</time></trkpt><trkpt lat="41.27343379200895" lon="14.379793112161202"><ele>75.5</ele><time>2026-04-04T07:19:51Z</time></trkpt><trkpt lat="41.273573286696994" lon="14.379380060599134"><ele>76.0</ele><time>2026-04-04T07:19:52Z</time></trkpt><trkpt lat="41.27369740314578" lon="14.378956107427067"><ele>73.5</ele><time>2026-04-04T07:19:53Z</time></trkpt><trkpt lat="41.27379333996871" lon="14.378534416335778"><ele>71.0</ele><time>2026-04-04T07:19:54Z</time></trkpt><trkpt lat="41.273865395707354" lon="14.378104707691557"><ele>70.5</ele><time>2026-04-04T07:19:55Z</time></trkpt><trkpt lat="41.27391474999479" lon="14.377673737446681"><ele>70.0</ele><time>2026-04-04T07:19:56Z</time></trkpt><trkpt lat="41.273931398892735" lon="14.377224517998522"><ele>69.0</ele><time>2026-04-04T07:19:57Z</time></trkpt><trkpt lat="41.27392732119278" lon="14.376766941958476"><ele>68.0</ele><time>2026-04-04T07:19:58Z</time></trkpt><trkpt lat="41.27390765418497" lon="14.376291650656977"><ele>67.5</ele><time>2026-04-04T07:19:59Z</time></trkpt><trkpt lat="41.273861035297614" lon="14.375805988094799"><ele>67.0</ele><time>2026-04-04T07:20:00Z</time></trkpt><trkpt lat="41.273808245893804" lon="14.375311827042015"><ele>67.0</ele><time>2026-04-04T07:20:01Z</time></trkpt><trkpt lat="41.27375207703862" lon="14.37481174320335"><ele>67.0</ele><time>2026-04-04T07:20:02Z</time></trkpt><trkpt lat="41.27369334018589" lon="14.374297362388937"><ele>67.0</ele><time>2026-04-04T07:20:03Z</time></trkpt><trkpt lat="41.2736350429057" lon="14.373773685027048"><ele>67.0</ele><time>2026-04-04T07:20:04Z</time></trkpt><trkpt lat="41.27357956178345" lon="14.373245614307887"><ele>69.5</ele><time>2026-04-04T07:20:05Z</time></trkpt><trkpt lat="41.2735244558147" lon="14.372710032289856"><ele>72.0</ele><time>2026-04-04T07:20:06Z</time></trkpt><trkpt lat="41.273468691084005" lon="14.372190940619685"><ele>71.5</ele><time>2026-04-04T07:20:07Z</time></trkpt><trkpt lat="41.27341025722738" lon="14.371689099738145"><ele>71.0</ele><time>2026-04-04T07:20:08Z</time></trkpt><trkpt lat="41.27335746418657" lon="14.371225574024088"><ele>71.0</ele><time>2026-04-04T07:20:09Z</time></trkpt><trkpt lat="41.273307894821464" lon="14.37080093008862"><ele>71.0</ele><time>2026-04-04T07:20:10Z</time></trkpt><trkpt lat="41.27325966876788" lon="14.370408447739724"><ele>73.0</ele><time>2026-04-04T07:20:11Z</time></trkpt><trkpt lat="41.27320564508838" lon="14.370033145196825"><ele>75.0</ele><time>2026-04-04T07:20:12Z</time></trkpt><trkpt lat="41.27314403890636" lon="14.369676985505158"><ele>84.5</ele><time>2026-04-04T07:20:13Z</time></trkpt><trkpt lat="41.27309692000896" lon="14.369315298470902"><ele>94.0</ele><time>2026-04-04T07:20:14Z</time></trkpt><trkpt lat="41.27300516560573" lon="14.368957255008835"><ele>92.5</ele><time>2026-04-04T07:20:15Z</time></trkpt><trkpt lat="41.272928526990555" lon="14.368587070238592"><ele>91.0</ele><time>2026-04-04T07:20:16Z</time></trkpt><trkpt lat="41.272846626967166" lon="14.368220469181649"><ele>90.0</ele><time>2026-04-04T07:20:17Z</time></trkpt><trkpt lat="41.27275648694827" lon="14.36785269608306"><ele>89.0</ele><time>2026-04-04T07:20:18Z</time></trkpt><trkpt lat="41.27265699884681" lon="14.367474327200116"><ele>88.5</ele><time>2026-04-04T07:20:19Z</time></trkpt><trkpt lat="41.2725477133625" lon="14.36710863243517"><ele>88.0</ele><time>2026-04-04T07:20:20Z</time></trkpt><trkpt lat="41.27243709358208" lon="14.3667297857481"><ele>87.5</ele><time>2026-04-04T07:20:21Z</time></trkpt><trkpt lat="41.27232511331858" lon="14.366357021779733"><ele>87.0</ele><time>2026-04-04T07:20:22Z</time></trkpt><trkpt lat="41.27221045324808" lon="14.365988361464227"><ele>87.0</ele><time>2026-04-04T07:20:23Z</time></trkpt><trkpt lat="41.27210287285391" lon="14.36564101284046"><ele>87.0</ele><time>2026-04-04T07:20:24Z</time></trkpt><trkpt lat="41.27199894813909" lon="14.365303774342365"><ele>87.5</ele><time>2026-04-04T07:20:25Z</time></trkpt><trkpt lat="41.27190242672126" lon="14.364983151736029"><ele>88.0</ele><time>2026-04-04T07:20:26Z</time></trkpt><trkpt lat="41.271809835429345" lon="14.364670243246655"><ele>88.5</ele><time>2026-04-04T07:20:27Z</time></trkpt><trkpt lat="41.27171473153474" lon="14.364359199952586"><ele>89.0</ele><time>2026-04-04T07:20:28Z</time></trkpt><trkpt lat="41.27161428829309" lon="14.364040453555944"><ele>89.0</ele><time>2026-04-04T07:20:29Z</time></trkpt><trkpt lat="41.27151939025713" lon="14.36373289887258"><ele>89.0</ele><time>2026-04-04T07:20:30Z</time></trkpt><trkpt lat="41.271431320163025" lon="14.363446735221032"><ele>89.0</ele><time>2026-04-04T07:20:31Z</time></trkpt><trkpt lat="41.27134999953977" lon="14.363178204971883"><ele>89.0</ele><time>2026-04-04T07:20:32Z</time></trkpt><trkpt lat="41.271278698935156" lon="14.36293298371612"><ele>89.0</ele><time>2026-04-04T07:20:33Z</time></trkpt><trkpt lat="41.271208515540245" lon="14.362690830268107"><ele>89.0</ele><time>2026-04-04T07:20:34Z</time></trkpt><trkpt lat="41.27114626608292" lon="14.362467859004854"><ele>89.0</ele><time>2026-04-04T07:20:35Z</time></trkpt><trkpt lat="41.271091740643364" lon="14.362264491335521"><ele>89.0</ele><time>2026-04-04T07:20:36Z</time></trkpt><trkpt lat="41.27104153031267" lon="14.362094590248306"><ele>89.0</ele><time>2026-04-04T07:20:37Z</time></trkpt><trkpt lat="41.27101649048014" lon="14.361953118886314"><ele>89.0</ele><time>2026-04-04T07:20:38Z</time></trkpt><trkpt lat="41.27102640166447" lon="14.361817858740503"><ele>89.0</ele><time>2026-04-04T07:20:39Z</time></trkpt><trkpt lat="41.27108077388348" lon="14.36168024727274"><ele>89.0</ele><time>2026-04-04T07:20:40Z</time></trkpt><trkpt lat="41.27116704471887" lon="14.361551703775982"><ele>89.0</ele><time>2026-04-04T07:20:41Z</time></trkpt><trkpt lat="41.27126927612737" lon="14.361464939810583"><ele>89.0</ele><time>2026-04-04T07:20:42Z</time></trkpt><trkpt lat="41.27138901768373" lon="14.36143903237972"><ele>89.0</ele><time>2026-04-04T07:20:43Z</time></trkpt><trkpt lat="41.27151512820691" lon="14.3614672504866"><ele>89.0</ele><time>2026-04-04T07:20:44Z</time></trkpt><trkpt lat="41.27160935861474" lon="14.361528644982142"><ele>89.0</ele><time>2026-04-04T07:20:45Z</time></trkpt><trkpt lat="41.27166351970874" lon="14.361606541192659"><ele>89.0</ele><time>2026-04-04T07:20:46Z</time></trkpt><trkpt lat="41.27169959990414" lon="14.361677998264225"><ele>89.0</ele><time>2026-04-04T07:20:47Z</time></trkpt><trkpt lat="41.271843638030546" lon="14.361947615978345"><ele>89.0</ele><time>2026-04-04T07:20:48Z</time></trkpt><trkpt lat="41.271882385330926" lon="14.362139021958061"><ele>88.0</ele><time>2026-04-04T07:20:49Z</time></trkpt><trkpt lat="41.27190610764858" lon="14.362378894297951"><ele>87.0</ele><time>2026-04-04T07:20:50Z</time></trkpt><trkpt lat="41.27187040700264" lon="14.362632493221518"><ele>86.0</ele><time>2026-04-04T07:20:51Z</time></trkpt><trkpt lat="41.27183723146472" lon="14.362982485766725"><ele>86.0</ele><time>2026-04-04T07:20:52Z</time></trkpt><trkpt lat="41.27182748897579" lon="14.363210715671624"><ele>86.0</ele><time>2026-04-04T07:20:53Z</time></trkpt><trkpt lat="41.27182009769028" lon="14.363411952389319"><ele>86.0</ele><time>2026-04-04T07:20:54Z</time></trkpt><trkpt lat="41.27181623379654" lon="14.36349808687083"><ele>86.0</ele><time>2026-04-04T07:20:56Z</time></trkpt><trkpt lat="41.27194324567868" lon="14.363572756626306"><ele>86.0</ele><time>2026-04-04T07:21:00Z</time></trkpt><trkpt lat="41.272085745360194" lon="14.363589579549233"><ele>86.0</ele><time>2026-04-04T07:21:01Z</time></trkpt><trkpt lat="41.27221758948256" lon="14.363604673917514"><ele>86.0</ele><time>2026-04-04T07:21:02Z</time></trkpt><trkpt lat="41.272362992232594" lon="14.363621472519048"><ele>86.0</ele><time>2026-04-04T07:21:03Z</time></trkpt><trkpt lat="41.27257439731189" lon="14.363650312596238"><ele>85.0</ele><time>2026-04-04T07:21:04Z</time></trkpt><trkpt lat="41.27281244510255" lon="14.36368121352498"><ele>84.0</ele><time>2026-04-04T07:21:05Z</time></trkpt><trkpt lat="41.27297780291792" lon="14.36371360940837"><ele>83.0</ele><time>2026-04-04T07:21:06Z</time></trkpt><trkpt lat="41.273163252427025" lon="14.363728033247734"><ele>81.0</ele><time>2026-04-04T07:21:07Z</time></trkpt><trkpt lat="41.2733927674692" lon="14.363759256964123"><ele>79.0</ele><time>2026-04-04T07:21:08Z</time></trkpt><trkpt lat="41.2736234901136" lon="14.36377844291637"><ele>79.0</ele><time>2026-04-04T07:21:09Z</time></trkpt><trkpt lat="41.2738601768702" lon="14.363795381647284"><ele>79.0</ele><time>2026-04-04T07:21:10Z</time></trkpt><trkpt lat="41.27409689398556" lon="14.363795085261838"><ele>75.5</ele><time>2026-04-04T07:21:11Z</time></trkpt><trkpt lat="41.274328996342824" lon="14.363773208913328"><ele>72.0</ele><time>2026-04-04T07:21:12Z</time></trkpt><trkpt lat="41.27455798749846" lon="14.363721934023525"><ele>71.5</ele><time>2026-04-04T07:21:13Z</time></trkpt><trkpt lat="41.27478134733561" lon="14.363625431725442"><ele>71.0</ele><time>2026-04-04T07:21:14Z</time></trkpt><trkpt lat="41.27500381546187" lon="14.363515538764542"><ele>71.0</ele><time>2026-04-04T07:21:15Z</time></trkpt><trkpt lat="41.27521431464553" lon="14.36337930195211"><ele>71.0</ele><time>2026-04-04T07:21:16Z</time></trkpt><trkpt lat="41.27542489229264" lon="14.363206381320907"><ele>70.5</ele><time>2026-04-04T07:21:17Z</time></trkpt><trkpt lat="41.27562891154029" lon="14.362988421828716"><ele>70.0</ele><time>2026-04-04T07:21:18Z</time></trkpt><trkpt lat="41.27583193439704" lon="14.362742336686235"><ele>70.0</ele><time>2026-04-04T07:21:19Z</time></trkpt><trkpt lat="41.27604629201213" lon="14.36247843274827"><ele>70.0</ele><time>2026-04-04T07:21:20Z</time></trkpt><trkpt lat="41.27627645554364" lon="14.362194789450676"><ele>69.0</ele><time>2026-04-04T07:21:21Z</time></trkpt><trkpt lat="41.27651891435821" lon="14.361905235690337"><ele>68.0</ele><time>2026-04-04T07:21:22Z</time></trkpt><trkpt lat="41.27676962856893" lon="14.361612877324239"><ele>67.5</ele><time>2026-04-04T07:21:23Z</time></trkpt><trkpt lat="41.27701989490385" lon="14.361323271631713"><ele>67.0</ele><time>2026-04-04T07:21:24Z</time></trkpt><trkpt lat="41.27726145500234" lon="14.361041067210264"><ele>67.5</ele><time>2026-04-04T07:21:25Z</time></trkpt><trkpt lat="41.277486954581605" lon="14.360775610348812"><ele>68.0</ele><time>2026-04-04T07:21:26Z</time></trkpt><trkpt lat="41.27769235470185" lon="14.36053380213917"><ele>68.5</ele><time>2026-04-04T07:21:27Z</time></trkpt><trkpt lat="41.2778938579295" lon="14.360304595459459"><ele>69.0</ele><time>2026-04-04T07:21:28Z</time></trkpt><trkpt lat="41.27809150367999" lon="14.360078508383301"><ele>69.5</ele><time>2026-04-04T07:21:29Z</time></trkpt><trkpt lat="41.27828904269818" lon="14.359864397364628"><ele>70.0</ele><time>2026-04-04T07:21:30Z</time></trkpt><trkpt lat="41.278483352665575" lon="14.359685944829614"><ele>70.5</ele><time>2026-04-04T07:21:31Z</time></trkpt><trkpt lat="41.278688647268275" lon="14.359558466731443"><ele>71.0</ele><time>2026-04-04T07:21:32Z</time></trkpt><trkpt lat="41.27889414000977" lon="14.359407057800452"><ele>72.5</ele><time>2026-04-04T07:21:33Z</time></trkpt><trkpt lat="41.27913439191155" lon="14.35929142995606"><ele>74.0</ele><time>2026-04-04T07:21:34Z</time></trkpt><trkpt lat="41.27939171705869" lon="14.359184738565876"><ele>74.0</ele><time>2026-04-04T07:21:35Z</time></trkpt><trkpt lat="41.27966422759538" lon="14.359089955163215"><ele>74.0</ele><time>2026-04-04T07:21:36Z</time></trkpt><trkpt lat="41.279947604650275" lon="14.358997629518782"><ele>72.5</ele><time>2026-04-04T07:21:37Z</time></trkpt><trkpt lat="41.28023807538" lon="14.358906192110405"><ele>71.0</ele><time>2026-04-04T07:21:38Z</time></trkpt><trkpt lat="41.2805405988653" lon="14.358811098977656"><ele>70.0</ele><time>2026-04-04T07:21:39Z</time></trkpt><trkpt lat="41.280826020260776" lon="14.358722196281365"><ele>69.0</ele><time>2026-04-04T07:21:40Z</time></trkpt><trkpt lat="41.28108665317847" lon="14.35863817660326"><ele>69.0</ele><time>2026-04-04T07:21:41Z</time></trkpt><trkpt lat="41.281332161755444" lon="14.358556462990785"><ele>69.0</ele><time>2026-04-04T07:21:42Z</time></trkpt><trkpt lat="41.28156967699255" lon="14.358479394429848"><ele>70.5</ele><time>2026-04-04T07:21:43Z</time></trkpt><trkpt lat="41.281803720084724" lon="14.358404908788318"><ele>72.0</ele><time>2026-04-04T07:21:44Z</time></trkpt><trkpt lat="41.28203313944673" lon="14.358325713355118"><ele>71.5</ele><time>2026-04-04T07:21:45Z</time></trkpt><trkpt lat="41.28226671236578" lon="14.35825205785912"><ele>71.0</ele><time>2026-04-04T07:21:46Z</time></trkpt><trkpt lat="41.28250369979352" lon="14.358178904717974"><ele>71.0</ele><time>2026-04-04T07:21:47Z</time></trkpt><trkpt lat="41.28274075859195" lon="14.358098695271948"><ele>71.0</ele><time>2026-04-04T07:21:48Z</time></trkpt><trkpt lat="41.28297983318098" lon="14.358017822174835"><ele>71.5</ele><time>2026-04-04T07:21:49Z</time></trkpt><trkpt lat="41.28321662007369" lon="14.357945997620709"><ele>72.0</ele><time>2026-04-04T07:21:50Z</time></trkpt><trkpt lat="41.2834563089814" lon="14.3578679592081"><ele>72.0</ele><time>2026-04-04T07:21:51Z</time></trkpt><trkpt lat="41.28369792813602" lon="14.357793408908018"><ele>72.0</ele><time>2026-04-04T07:21:52Z</time></trkpt><trkpt lat="41.283935475135856" lon="14.357718255195925"><ele>72.0</ele><time>2026-04-04T07:21:53Z</time></trkpt><trkpt lat="41.284174392055284" lon="14.357639382806664"><ele>72.0</ele><time>2026-04-04T07:21:54Z</time></trkpt><trkpt lat="41.28441146962415" lon="14.357557864726061"><ele>72.0</ele><time>2026-04-04T07:21:55Z</time></trkpt><trkpt lat="41.28464810463235" lon="14.357476119520529"><ele>72.0</ele><time>2026-04-04T07:21:56Z</time></trkpt><trkpt lat="41.284883227954715" lon="14.357396682253002"><ele>72.0</ele><time>2026-04-04T07:21:57Z</time></trkpt><trkpt lat="41.285119091450426" lon="14.357323029286157"><ele>72.0</ele><time>2026-04-04T07:21:58Z</time></trkpt><trkpt lat="41.28535584685704" lon="14.357251641787414"><ele>73.5</ele><time>2026-04-04T07:21:59Z</time></trkpt><trkpt lat="41.28560010102494" lon="14.357173216470061"><ele>75.0</ele><time>2026-04-04T07:22:00Z</time></trkpt><trkpt lat="41.28584461739744" lon="14.357099850265534"><ele>75.0</ele><time>2026-04-04T07:22:01Z</time></trkpt><trkpt lat="41.286096758869434" lon="14.357014478193719"><ele>75.0</ele><time>2026-04-04T07:22:02Z</time></trkpt><trkpt lat="41.2863553672305" lon="14.356929663580406"><ele>75.0</ele><time>2026-04-04T07:22:03Z</time></trkpt><trkpt lat="41.28659599588016" lon="14.356846791471781"><ele>75.0</ele><time>2026-04-04T07:22:04Z</time></trkpt><trkpt lat="41.28680714524233" lon="14.356782513129088"><ele>75.0</ele><time>2026-04-04T07:22:05Z</time></trkpt><trkpt lat="41.28700585923264" lon="14.356716466349585"><ele>75.0</ele><time>2026-04-04T07:22:06Z</time></trkpt><trkpt lat="41.28719475767567" lon="14.35665227254014"><ele>75.0</ele><time>2026-04-04T07:22:07Z</time></trkpt><trkpt lat="41.287378439450194" lon="14.356590732293737"><ele>74.66666666666667</ele><time>2026-04-04T07:22:08Z</time></trkpt><trkpt lat="41.28757262890563" lon="14.356522320778275"><ele>74.33333333333334</ele><time>2026-04-04T07:22:09Z</time></trkpt><trkpt lat="41.28776585491794" lon="14.3564480637383"><ele>74.0</ele><time>2026-04-04T07:22:10Z</time></trkpt><trkpt lat="41.287947383677114" lon="14.356352930872212"><ele>74.0</ele><time>2026-04-04T07:22:11Z</time></trkpt><trkpt lat="41.28807083485198" lon="14.356365622384276"><ele>74.0</ele><time>2026-04-04T07:22:12Z</time></trkpt><trkpt lat="41.28814909088108" lon="14.356361858221671"><ele>74.0</ele><time>2026-04-04T07:22:13Z</time></trkpt><trkpt lat="41.28819630160498" lon="14.356434004217851"><ele>74.0</ele><time>2026-04-04T07:22:17Z</time></trkpt><trkpt lat="41.28827897393905" lon="14.35650356849394"><ele>74.0</ele><time>2026-04-04T07:22:19Z</time></trkpt><trkpt lat="41.28834995481186" lon="14.35654827251319"><ele>74.4</ele><time>2026-04-04T07:22:20Z</time></trkpt><trkpt lat="41.2884360114768" lon="14.356563672299918"><ele>74.80000000000001</ele><time>2026-04-04T07:22:21Z</time></trkpt><trkpt lat="41.28851442987836" lon="14.356546937642065"><ele>75.19999999999999</ele><time>2026-04-04T07:22:22Z</time></trkpt><trkpt lat="41.28859267711139" lon="14.356498485164735"><ele>75.6</ele><time>2026-04-04T07:22:23Z</time></trkpt><trkpt lat="41.2886637396384" lon="14.35641030536835"><ele>76.0</ele><time>2026-04-04T07:22:24Z</time></trkpt><trkpt lat="41.28871023770832" lon="14.35628563647518"><ele>76.0</ele><time>2026-04-04T07:22:25Z</time></trkpt><trkpt lat="41.28873558358174" lon="14.356196165030616"><ele>76.0</ele><time>2026-04-04T07:22:26Z</time></trkpt><trkpt lat="41.28877233355974" lon="14.356125442011086"><ele>76.0</ele><time>2026-04-04T07:22:27Z</time></trkpt><trkpt lat="41.288841389177726" lon="14.356078308384879"><ele>76.0</ele><time>2026-04-04T07:22:28Z</time></trkpt><trkpt lat="41.28892410463423" lon="14.356051237507854"><ele>76.0</ele><time>2026-04-04T07:22:29Z</time></trkpt><trkpt lat="41.28903597081144" lon="14.35602786396457"><ele>76.0</ele><time>2026-04-04T07:22:30Z</time></trkpt><trkpt lat="41.289193934840064" lon="14.355967134940164"><ele>77.0</ele><time>2026-04-04T07:22:31Z</time></trkpt><trkpt lat="41.28937277576981" lon="14.355905350310238"><ele>78.0</ele><time>2026-04-04T07:22:32Z</time></trkpt><trkpt lat="41.289521587769514" lon="14.355856476616184"><ele>79.0</ele><time>2026-04-04T07:22:33Z</time></trkpt><trkpt lat="41.289610262564" lon="14.355809827620684"><ele>80.0</ele><time>2026-04-04T07:22:34Z</time></trkpt><trkpt lat="41.28978860117044" lon="14.355776408970765"><ele>80.0</ele><time>2026-04-04T07:22:35Z</time></trkpt><trkpt lat="41.28993913425596" lon="14.355726640851543"><ele>80.0</ele><time>2026-04-04T07:22:36Z</time></trkpt><trkpt lat="41.290092157864606" lon="14.355681442126269"><ele>80.0</ele><time>2026-04-04T07:22:37Z</time></trkpt><trkpt lat="41.29024997772562" lon="14.35562860980823"><ele>80.0</ele><time>2026-04-04T07:22:38Z</time></trkpt><trkpt lat="41.29043114346128" lon="14.355543548949512"><ele>80.0</ele><time>2026-04-04T07:22:39Z</time></trkpt><trkpt lat="41.290665037220094" lon="14.355455125508609"><ele>80.0</ele><time>2026-04-04T07:22:40Z</time></trkpt><trkpt lat="41.29094034527269" lon="14.35538744993745"><ele>79.5</ele><time>2026-04-04T07:22:41Z</time></trkpt><trkpt lat="41.29122060747308" lon="14.355318481968895"><ele>79.0</ele><time>2026-04-04T07:22:42Z</time></trkpt><trkpt lat="41.291520932232935" lon="14.355226495345779"><ele>79.0</ele><time>2026-04-04T07:22:43Z</time></trkpt><trkpt lat="41.291820730412795" lon="14.355126132722354"><ele>79.0</ele><time>2026-04-04T07:22:44Z</time></trkpt><trkpt lat="41.29209376483496" lon="14.355035677137945"><ele>79.33333333333333</ele><time>2026-04-04T07:22:45Z</time></trkpt><trkpt lat="41.29231188632592" lon="14.354970686360916"><ele>79.66666666666667</ele><time>2026-04-04T07:22:46Z</time></trkpt><trkpt lat="41.29252169407106" lon="14.354908802421503"><ele>80.0</ele><time>2026-04-04T07:22:47Z</time></trkpt><trkpt lat="41.292822693346906" lon="14.354798250975932"><ele>80.0</ele><time>2026-04-04T07:22:48Z</time></trkpt><trkpt lat="41.29303707855631" lon="14.354732828615147"><ele>80.0</ele><time>2026-04-04T07:22:49Z</time></trkpt><trkpt lat="41.293249581467016" lon="14.354669079234238"><ele>80.0</ele><time>2026-04-04T07:22:50Z</time></trkpt><trkpt lat="41.293451993553894" lon="14.354596584536349"><ele>80.66666666666667</ele><time>2026-04-04T07:22:51Z</time></trkpt><trkpt lat="41.293643408204424" lon="14.3545324962844"><ele>81.33333333333333</ele><time>2026-04-04T07:22:52Z</time></trkpt><trkpt lat="41.293823699953926" lon="14.354483544545785"><ele>82.0</ele><time>2026-04-04T07:22:53Z</time></trkpt><trkpt lat="41.29399246209684" lon="14.35443111749918"><ele>82.33333333333333</ele><time>2026-04-04T07:22:54Z</time></trkpt><trkpt lat="41.29415817927411" lon="14.354370218540302"><ele>82.66666666666667</ele><time>2026-04-04T07:22:55Z</time></trkpt><trkpt lat="41.29432276469105" lon="14.3543036103376"><ele>83.0</ele><time>2026-04-04T07:22:56Z</time></trkpt><trkpt lat="41.294474899541285" lon="14.354251444352942"><ele>83.0</ele><time>2026-04-04T07:22:57Z</time></trkpt><trkpt lat="41.29460889404163" lon="14.354211767235542"><ele>83.0</ele><time>2026-04-04T07:22:58Z</time></trkpt><trkpt lat="41.29467612212484" lon="14.354195512376384"><ele>83.0</ele><time>2026-04-04T07:22:59Z</time></trkpt><trkpt lat="41.29474665365277" lon="14.354225166685952"><ele>83.0</ele><time>2026-04-04T07:23:04Z</time></trkpt><trkpt lat="41.29483061563139" lon="14.354290305380703"><ele>83.0</ele><time>2026-04-04T07:23:06Z</time></trkpt><trkpt lat="41.29491740234144" lon="14.354381266290503"><ele>83.0</ele><time>2026-04-04T07:23:08Z</time></trkpt><trkpt lat="41.29497612970704" lon="14.354420216580177"><ele>83.0</ele><time>2026-04-04T07:23:09Z</time></trkpt><trkpt lat="41.29505742944107" lon="14.35441725129626"><ele>83.0</ele><time>2026-04-04T07:23:10Z</time></trkpt><trkpt lat="41.29513824538713" lon="14.354392667949234"><ele>83.0</ele><time>2026-04-04T07:23:11Z</time></trkpt><trkpt lat="41.29521472368805" lon="14.354349984248103"><ele>83.0</ele><time>2026-04-04T07:23:12Z</time></trkpt><trkpt lat="41.29528657573672" lon="14.35431023034585"><ele>83.0</ele><time>2026-04-04T07:23:13Z</time></trkpt><trkpt lat="41.29536006257233" lon="14.354289936575546"><ele>83.0</ele><time>2026-04-04T07:23:14Z</time></trkpt><trkpt lat="41.2954425618838" lon="14.35429752652275"><ele>83.0</ele><time>2026-04-04T07:23:15Z</time></trkpt><trkpt lat="41.295529303252636" lon="14.354335733195061"><ele>83.0</ele><time>2026-04-04T07:23:16Z</time></trkpt><trkpt lat="41.29561369355723" lon="14.354383938058012"><ele>83.0</ele><time>2026-04-04T07:23:17Z</time></trkpt><trkpt lat="41.29570481216564" lon="14.35443575635466"><ele>83.0</ele><time>2026-04-04T07:23:18Z</time></trkpt><trkpt lat="41.29581012504457" lon="14.354489355590648"><ele>83.0</ele><time>2026-04-04T07:23:19Z</time></trkpt><trkpt lat="41.295959641830684" lon="14.354555121122129"><ele>83.0</ele><time>2026-04-04T07:23:20Z</time></trkpt><trkpt lat="41.2961571181705" lon="14.354641403869962"><ele>83.0</ele><time>2026-04-04T07:23:21Z</time></trkpt><trkpt lat="41.2963772187037" lon="14.354743898393357"><ele>85.5</ele><time>2026-04-04T07:23:22Z</time></trkpt><trkpt lat="41.296610177258295" lon="14.354873453931813"><ele>88.0</ele><time>2026-04-04T07:23:23Z</time></trkpt><trkpt lat="41.296883441143656" lon="14.35506939541104"><ele>88.0</ele><time>2026-04-04T07:23:24Z</time></trkpt><trkpt lat="41.297119541212595" lon="14.355231425568961"><ele>88.0</ele><time>2026-04-04T07:23:25Z</time></trkpt><trkpt lat="41.297318340674934" lon="14.35535341228725"><ele>87.0</ele><time>2026-04-04T07:23:26Z</time></trkpt><trkpt lat="41.297534198780916" lon="14.355499362582393"><ele>86.0</ele><time>2026-04-04T07:23:27Z</time></trkpt><trkpt lat="41.29778354686486" lon="14.35563122198193"><ele>86.0</ele><time>2026-04-04T07:23:28Z</time></trkpt><trkpt lat="41.29802075412691" lon="14.35577622077333"><ele>86.0</ele><time>2026-04-04T07:23:29Z</time></trkpt><trkpt lat="41.29825301151311" lon="14.35591949450725"><ele>86.0</ele><time>2026-04-04T07:23:30Z</time></trkpt><trkpt lat="41.29847846176902" lon="14.356063527969198"><ele>86.0</ele><time>2026-04-04T07:23:31Z</time></trkpt><trkpt lat="41.29870254095282" lon="14.3562119490299"><ele>86.0</ele><time>2026-04-04T07:23:32Z</time></trkpt><trkpt lat="41.298922016245456" lon="14.356347560315264"><ele>86.0</ele><time>2026-04-04T07:23:33Z</time></trkpt><trkpt lat="41.29914569440639" lon="14.35648649244035"><ele>87.5</ele><time>2026-04-04T07:23:34Z</time></trkpt><trkpt lat="41.299375552448794" lon="14.356629812722423"><ele>89.0</ele><time>2026-04-04T07:23:35Z</time></trkpt><trkpt lat="41.29960757868605" lon="14.356769608155131"><ele>89.0</ele><time>2026-04-04T07:23:36Z</time></trkpt><trkpt lat="41.299837539667394" lon="14.356906271100888"><ele>89.0</ele><time>2026-04-04T07:23:37Z</time></trkpt><trkpt lat="41.30006902620495" lon="14.357067987712519"><ele>89.5</ele><time>2026-04-04T07:23:38Z</time></trkpt><trkpt lat="41.30032290319052" lon="14.357229598701643"><ele>90.0</ele><time>2026-04-04T07:23:39Z</time></trkpt><trkpt lat="41.30059423382472" lon="14.357402320212861"><ele>90.0</ele><time>2026-04-04T07:23:40Z</time></trkpt><trkpt lat="41.30088287117818" lon="14.357586058649549"><ele>90.0</ele><time>2026-04-04T07:23:41Z</time></trkpt><trkpt lat="41.301177355748635" lon="14.357755564957829"><ele>89.0</ele><time>2026-04-04T07:23:42Z</time></trkpt><trkpt lat="41.30144418390304" lon="14.35793560203152"><ele>88.0</ele><time>2026-04-04T07:23:43Z</time></trkpt><trkpt lat="41.30169259990379" lon="14.358118330729537"><ele>88.0</ele><time>2026-04-04T07:23:44Z</time></trkpt><trkpt lat="41.30193092327105" lon="14.358296179008653"><ele>88.0</ele><time>2026-04-04T07:23:45Z</time></trkpt><trkpt lat="41.302159716470776" lon="14.358471897220012"><ele>87.5</ele><time>2026-04-04T07:23:46Z</time></trkpt><trkpt lat="41.30238332331126" lon="14.358652801884771"><ele>87.0</ele><time>2026-04-04T07:23:47Z</time></trkpt><trkpt lat="41.302608910257256" lon="14.358833573137122"><ele>87.5</ele><time>2026-04-04T07:23:48Z</time></trkpt><trkpt lat="41.302843582344764" lon="14.359013605501762"><ele>88.0</ele><time>2026-04-04T07:23:49Z</time></trkpt><trkpt lat="41.303080987414305" lon="14.359203827933472"><ele>89.0</ele><time>2026-04-04T07:23:50Z</time></trkpt><trkpt lat="41.3033198488714" lon="14.359391381134188"><ele>90.0</ele><time>2026-04-04T07:23:51Z</time></trkpt><trkpt lat="41.30356252248381" lon="14.35958504882226"><ele>90.0</ele><time>2026-04-04T07:23:52Z</time></trkpt><trkpt lat="41.303802914857926" lon="14.359777560926094"><ele>90.0</ele><time>2026-04-04T07:23:53Z</time></trkpt><trkpt lat="41.30404967946995" lon="14.359972165524912"><ele>89.5</ele><time>2026-04-04T07:23:54Z</time></trkpt><trkpt lat="41.30429405406948" lon="14.36016587390439"><ele>89.0</ele><time>2026-04-04T07:23:55Z</time></trkpt><trkpt lat="41.304540900301106" lon="14.360363681923975"><ele>90.0</ele><time>2026-04-04T07:23:56Z</time></trkpt><trkpt lat="41.30479054409724" lon="14.360564264810362"><ele>91.0</ele><time>2026-04-04T07:23:57Z</time></trkpt><trkpt lat="41.30504036456559" lon="14.360763817271119"><ele>91.0</ele><time>2026-04-04T07:23:58Z</time></trkpt><trkpt lat="41.30528973910708" lon="14.360961555969052"><ele>91.0</ele><time>2026-04-04T07:23:59Z</time></trkpt><trkpt lat="41.30553844977124" lon="14.361158806959077"><ele>91.0</ele><time>2026-04-04T07:24:00Z</time></trkpt><trkpt lat="41.30578416289779" lon="14.361355874967936"><ele>91.0</ele><time>2026-04-04T07:24:01Z</time></trkpt><trkpt lat="41.306021163808246" lon="14.361546031869409"><ele>91.0</ele><time>2026-04-04T07:24:02Z</time></trkpt><trkpt lat="41.3062481944334" lon="14.36172626110534"><ele>91.0</ele><time>2026-04-04T07:24:03Z</time></trkpt><trkpt lat="41.30647218051803" lon="14.361900865439768"><ele>92.5</ele><time>2026-04-04T07:24:04Z</time></trkpt><trkpt lat="41.3066734518097" lon="14.362061140747993"><ele>94.0</ele><time>2026-04-04T07:24:05Z</time></trkpt><trkpt lat="41.306862984994304" lon="14.362211470981183"><ele>94.0</ele><time>2026-04-04T07:24:06Z</time></trkpt><trkpt lat="41.307025565096076" lon="14.362341605120239"><ele>94.0</ele><time>2026-04-04T07:24:07Z</time></trkpt><trkpt lat="41.30715362477589" lon="14.362444061890885"><ele>94.0</ele><time>2026-04-04T07:24:08Z</time></trkpt><trkpt lat="41.30725937098315" lon="14.362539657455033"><ele>94.0</ele><time>2026-04-04T07:24:09Z</time></trkpt><trkpt lat="41.30731968271292" lon="14.362620639352023"><ele>94.0</ele><time>2026-04-04T07:24:10Z</time></trkpt><trkpt lat="41.30735989899043" lon="14.36271536110088"><ele>94.0</ele><time>2026-04-04T07:24:11Z</time></trkpt><trkpt lat="41.30739684948575" lon="14.362823168782258"><ele>94.0</ele><time>2026-04-04T07:24:12Z</time></trkpt><trkpt lat="41.30738199411696" lon="14.362977409214052"><ele>94.0</ele><time>2026-04-04T07:24:13Z</time></trkpt><trkpt lat="41.30742236180565" lon="14.36309806887305"><ele>94.0</ele><time>2026-04-04T07:24:14Z</time></trkpt><trkpt lat="41.30750949529756" lon="14.363180061895209"><ele>94.0</ele><time>2026-04-04T07:24:15Z</time></trkpt><trkpt lat="41.307615336052784" lon="14.363216137118648"><ele>94.0</ele><time>2026-04-04T07:24:16Z</time></trkpt><trkpt lat="41.30772293409485" lon="14.363199463041909"><ele>94.0</ele><time>2026-04-04T07:24:17Z</time></trkpt><trkpt lat="41.30782844363424" lon="14.363114702534876"><ele>94.0</ele><time>2026-04-04T07:24:18Z</time></trkpt><trkpt lat="41.30791352665379" lon="14.363003693088558"><ele>94.0</ele><time>2026-04-04T07:24:19Z</time></trkpt><trkpt lat="41.307996401150504" lon="14.362911846913136"><ele>94.0</ele><time>2026-04-04T07:24:20Z</time></trkpt><trkpt lat="41.30811106311858" lon="14.362897375136491"><ele>94.0</ele><time>2026-04-04T07:24:21Z</time></trkpt><trkpt lat="41.30825219686056" lon="14.362933749409226"><ele>94.0</ele><time>2026-04-04T07:24:22Z</time></trkpt><trkpt lat="41.3084223224525" lon="14.36297088537266"><ele>94.0</ele><time>2026-04-04T07:24:23Z</time></trkpt><trkpt lat="41.308603260762055" lon="14.362990094234322"><ele>94.0</ele><time>2026-04-04T07:24:24Z</time></trkpt><trkpt lat="41.30880549799187" lon="14.363014474999707"><ele>94.0</ele><time>2026-04-04T07:24:25Z</time></trkpt><trkpt lat="41.309020867023236" lon="14.363052926611173"><ele>94.5</ele><time>2026-04-04T07:24:26Z</time></trkpt><trkpt lat="41.30924166236939" lon="14.363098821095443"><ele>95.0</ele><time>2026-04-04T07:24:27Z</time></trkpt><trkpt lat="41.30946620158113" lon="14.36313980099957"><ele>95.0</ele><time>2026-04-04T07:24:28Z</time></trkpt><trkpt lat="41.30971029009135" lon="14.363185048321228"><ele>95.0</ele><time>2026-04-04T07:24:29Z</time></trkpt><trkpt lat="41.30995530610101" lon="14.363239411984235"><ele>97.0</ele><time>2026-04-04T07:24:30Z</time></trkpt><trkpt lat="41.310198707171175" lon="14.36328889025863"><ele>99.0</ele><time>2026-04-04T07:24:31Z</time></trkpt><trkpt lat="41.3104377146144" lon="14.363350505945755"><ele>98.0</ele><time>2026-04-04T07:24:32Z</time></trkpt><trkpt lat="41.310671834253974" lon="14.363414501974145"><ele>97.0</ele><time>2026-04-04T07:24:33Z</time></trkpt><trkpt lat="41.31089269743797" lon="14.363475446117024"><ele>97.0</ele><time>2026-04-04T07:24:34Z</time></trkpt><trkpt lat="41.311112089031354" lon="14.36355809264658"><ele>97.0</ele><time>2026-04-04T07:24:35Z</time></trkpt><trkpt lat="41.31134137196532" lon="14.363668641088024"><ele>97.5</ele><time>2026-04-04T07:24:36Z</time></trkpt><trkpt lat="41.3115787683437" lon="14.363791434554273"><ele>98.0</ele><time>2026-04-04T07:24:37Z</time></trkpt><trkpt lat="41.311823565704636" lon="14.363915912239534"><ele>98.0</ele><time>2026-04-04T07:24:38Z</time></trkpt><trkpt lat="41.31206943002524" lon="14.36403485585484"><ele>98.0</ele><time>2026-04-04T07:24:39Z</time></trkpt><trkpt lat="41.31231451232815" lon="14.364148199606118"><ele>98.5</ele><time>2026-04-04T07:24:40Z</time></trkpt><trkpt lat="41.312558313251664" lon="14.364259811380059"><ele>99.0</ele><time>2026-04-04T07:24:41Z</time></trkpt><trkpt lat="41.31280136171585" lon="14.364372056462429"><ele>99.0</ele><time>2026-04-04T07:24:42Z</time></trkpt><trkpt lat="41.31303952078706" lon="14.364489413891569"><ele>99.0</ele><time>2026-04-04T07:24:43Z</time></trkpt><trkpt lat="41.313282018973446" lon="14.364623732849457"><ele>99.0</ele><time>2026-04-04T07:24:44Z</time></trkpt><trkpt lat="41.31351537529503" lon="14.364761735843604"><ele>99.0</ele><time>2026-04-04T07:24:45Z</time></trkpt><trkpt lat="41.31375561857" lon="14.36489361623953"><ele>100.0</ele><time>2026-04-04T07:24:46Z</time></trkpt><trkpt lat="41.31399603105518" lon="14.365017806173578"><ele>101.0</ele><time>2026-04-04T07:24:47Z</time></trkpt><trkpt lat="41.3142374599458" lon="14.36513855191864"><ele>101.0</ele><time>2026-04-04T07:24:48Z</time></trkpt><trkpt lat="41.31447981433315" lon="14.365255428617553"><ele>101.0</ele><time>2026-04-04T07:24:49Z</time></trkpt><trkpt lat="41.31472049906921" lon="14.365371292058633"><ele>102.0</ele><time>2026-04-04T07:24:50Z</time></trkpt><trkpt lat="41.31495731705264" lon="14.365496237620757"><ele>103.0</ele><time>2026-04-04T07:24:51Z</time></trkpt><trkpt lat="41.315195683244916" lon="14.365623214731665"><ele>103.0</ele><time>2026-04-04T07:24:52Z</time></trkpt><trkpt lat="41.315436096665735" lon="14.36574680012388"><ele>103.0</ele><time>2026-04-04T07:24:53Z</time></trkpt><trkpt lat="41.31568026410641" lon="14.365863298495773"><ele>103.5</ele><time>2026-04-04T07:24:54Z</time></trkpt><trkpt lat="41.31592834789837" lon="14.365986469009062"><ele>104.0</ele><time>2026-04-04T07:24:55Z</time></trkpt><trkpt lat="41.316173166628275" lon="14.366118729245548"><ele>104.0</ele><time>2026-04-04T07:24:56Z</time></trkpt><trkpt lat="41.31642019938109" lon="14.366246766354902"><ele>104.0</ele><time>2026-04-04T07:24:57Z</time></trkpt><trkpt lat="41.3166656382826" lon="14.36637175808777"><ele>104.0</ele><time>2026-04-04T07:24:58Z</time></trkpt><trkpt lat="41.31691102751199" lon="14.366496773117733"><ele>104.0</ele><time>2026-04-04T07:24:59Z</time></trkpt><trkpt lat="41.31715292460664" lon="14.366615412467489"><ele>104.0</ele><time>2026-04-04T07:25:00Z</time></trkpt><trkpt lat="41.31739999723695" lon="14.36673439225229"><ele>104.0</ele><time>2026-04-04T07:25:01Z</time></trkpt><trkpt lat="41.317643691319255" lon="14.366850543680178"><ele>104.0</ele><time>2026-04-04T07:25:02Z</time></trkpt><trkpt lat="41.317882452400134" lon="14.366963322951504"><ele>104.0</ele><time>2026-04-04T07:25:03Z</time></trkpt><trkpt lat="41.3181245837362" lon="14.367080371598659"><ele>105.0</ele><time>2026-04-04T07:25:04Z</time></trkpt><trkpt lat="41.3183602727561" lon="14.367197931729926"><ele>106.0</ele><time>2026-04-04T07:25:05Z</time></trkpt><trkpt lat="41.318598902517465" lon="14.36732608096784"><ele>106.0</ele><time>2026-04-04T07:25:06Z</time></trkpt><trkpt lat="41.31883008626431" lon="14.367439918051398"><ele>106.0</ele><time>2026-04-04T07:25:07Z</time></trkpt><trkpt lat="41.31905387338871" lon="14.367548479007908"><ele>106.66666666666667</ele><time>2026-04-04T07:25:08Z</time></trkpt><trkpt lat="41.319252214002404" lon="14.367655793053832"><ele>107.33333333333334</ele><time>2026-04-04T07:25:09Z</time></trkpt><trkpt lat="41.31944023376044" lon="14.367784944835284"><ele>108.0</ele><time>2026-04-04T07:25:10Z</time></trkpt><trkpt lat="41.31962697259122" lon="14.36795643099842"><ele>108.33333333333334</ele><time>2026-04-04T07:25:11Z</time></trkpt><trkpt lat="41.31978477389709" lon="14.368140473673108"><ele>108.66666666666667</ele><time>2026-04-04T07:25:12Z</time></trkpt><trkpt lat="41.31995178372854" lon="14.36835799796892"><ele>109.0</ele><time>2026-04-04T07:25:13Z</time></trkpt><trkpt lat="41.32012398017632" lon="14.368585946389432"><ele>109.0</ele><time>2026-04-04T07:25:14Z</time></trkpt><trkpt lat="41.32030453364348" lon="14.36881396536151"><ele>109.0</ele><time>2026-04-04T07:25:15Z</time></trkpt><trkpt lat="41.32048998699002" lon="14.369034820928974"><ele>110.5</ele><time>2026-04-04T07:25:16Z</time></trkpt><trkpt lat="41.320677937952254" lon="14.369261864473215"><ele>112.0</ele><time>2026-04-04T07:25:17Z</time></trkpt><trkpt lat="41.320861239693116" lon="14.369489216625816"><ele>113.0</ele><time>2026-04-04T07:25:18Z</time></trkpt><trkpt lat="41.321043881280424" lon="14.369715135555714"><ele>114.0</ele><time>2026-04-04T07:25:19Z</time></trkpt><trkpt lat="41.32122354256438" lon="14.369932591371178"><ele>114.5</ele><time>2026-04-04T07:25:20Z</time></trkpt><trkpt lat="41.321401220972604" lon="14.370143049081168"><ele>115.0</ele><time>2026-04-04T07:25:21Z</time></trkpt><trkpt lat="41.32158697685959" lon="14.370339303120565"><ele>117.0</ele><time>2026-04-04T07:25:22Z</time></trkpt><trkpt lat="41.321786844550395" lon="14.370525281049703"><ele>119.0</ele><time>2026-04-04T07:25:23Z</time></trkpt><trkpt lat="41.3219987972762" lon="14.370708496537478"><ele>119.0</ele><time>2026-04-04T07:25:24Z</time></trkpt><trkpt lat="41.32221738682436" lon="14.370893055438454"><ele>119.0</ele><time>2026-04-04T07:25:25Z</time></trkpt><trkpt lat="41.32244040477622" lon="14.371076263909353"><ele>118.5</ele><time>2026-04-04T07:25:26Z</time></trkpt><trkpt lat="41.32266485175618" lon="14.37125808571723"><ele>118.0</ele><time>2026-04-04T07:25:27Z</time></trkpt><trkpt lat="41.322886905630206" lon="14.371440414725216"><ele>118.5</ele><time>2026-04-04T07:25:28Z</time></trkpt><trkpt lat="41.323109523742225" lon="14.371629701935865"><ele>119.0</ele><time>2026-04-04T07:25:29Z</time></trkpt><trkpt lat="41.32332441436216" lon="14.371830331408388"><ele>119.0</ele><time>2026-04-04T07:25:30Z</time></trkpt><trkpt lat="41.323536136664" lon="14.372041065717031"><ele>119.0</ele><time>2026-04-04T07:25:31Z</time></trkpt><trkpt lat="41.32374829303964" lon="14.372254543965086"><ele>122.0</ele><time>2026-04-04T07:25:32Z</time></trkpt><trkpt lat="41.32396617059535" lon="14.37245897839375"><ele>125.0</ele><time>2026-04-04T07:25:33Z</time></trkpt><trkpt lat="41.324191374698685" lon="14.372638522955056"><ele>125.0</ele><time>2026-04-04T07:25:34Z</time></trkpt><trkpt lat="41.324418038443426" lon="14.372800247757242"><ele>125.0</ele><time>2026-04-04T07:25:35Z</time></trkpt><trkpt lat="41.32462300554839" lon="14.37294056841586"><ele>125.66666666666666</ele><time>2026-04-04T07:25:36Z</time></trkpt><trkpt lat="41.32481217358882" lon="14.373077335152642"><ele>126.33333333333334</ele><time>2026-04-04T07:25:37Z</time></trkpt><trkpt lat="41.324985485921836" lon="14.373194614275848"><ele>127.0</ele><time>2026-04-04T07:25:38Z</time></trkpt><trkpt lat="41.32517069081975" lon="14.373296012973265"><ele>127.0</ele><time>2026-04-04T07:25:39Z</time></trkpt><trkpt lat="41.32536247919253" lon="14.373361896764692"><ele>127.0</ele><time>2026-04-04T07:25:40Z</time></trkpt><trkpt lat="41.325569908593145" lon="14.373398058838328"><ele>127.0</ele><time>2026-04-04T07:25:41Z</time></trkpt><trkpt lat="41.32578320906444" lon="14.373406075890891"><ele>128.5</ele><time>2026-04-04T07:25:42Z</time></trkpt><trkpt lat="41.32600525910955" lon="14.373393427507683"><ele>130.0</ele><time>2026-04-04T07:25:43Z</time></trkpt><trkpt lat="41.32623943503715" lon="14.373379090544105"><ele>129.5</ele><time>2026-04-04T07:25:44Z</time></trkpt><trkpt lat="41.326477857236085" lon="14.373370775369356"><ele>129.0</ele><time>2026-04-04T07:25:45Z</time></trkpt><trkpt lat="41.32671705258428" lon="14.37336676120987"><ele>129.0</ele><time>2026-04-04T07:25:46Z</time></trkpt><trkpt lat="41.32695163366461" lon="14.373364254133383"><ele>129.0</ele><time>2026-04-04T07:25:47Z</time></trkpt><trkpt lat="41.327180572946375" lon="14.37336185682132"><ele>130.0</ele><time>2026-04-04T07:25:48Z</time></trkpt><trkpt lat="41.32740008098058" lon="14.37336518394865"><ele>131.0</ele><time>2026-04-04T07:25:49Z</time></trkpt><trkpt lat="41.327611210585026" lon="14.373379368754202"><ele>132.0</ele><time>2026-04-04T07:25:50Z</time></trkpt><trkpt lat="41.3278015027663" lon="14.373420518459362"><ele>132.0</ele><time>2026-04-04T07:25:51Z</time></trkpt><trkpt lat="41.32798205658251" lon="14.373494113519346"><ele>132.0</ele><time>2026-04-04T07:25:52Z</time></trkpt><trkpt lat="41.32816721818964" lon="14.373599948858265"><ele>132.0</ele><time>2026-04-04T07:25:53Z</time></trkpt><trkpt lat="41.328338659214765" lon="14.373711882890055"><ele>132.2</ele><time>2026-04-04T07:25:54Z</time></trkpt><trkpt lat="41.32848519613658" lon="14.373799933370575"><ele>132.39999999999998</ele><time>2026-04-04T07:25:55Z</time></trkpt><trkpt lat="41.32859121109995" lon="14.37385274108971"><ele>132.60000000000002</ele><time>2026-04-04T07:25:56Z</time></trkpt><trkpt lat="41.3286644594056" lon="14.37388018106897"><ele>132.8</ele><time>2026-04-04T07:25:57Z</time></trkpt><trkpt lat="41.32874179187219" lon="14.37390092448441"><ele>133.0</ele><time>2026-04-04T07:25:59Z</time></trkpt><trkpt lat="41.32881718964536" lon="14.373954273698661"><ele>133.5</ele><time>2026-04-04T07:26:01Z</time></trkpt><trkpt lat="41.328886748202756" lon="14.3740365226692"><ele>134.0</ele><time>2026-04-04T07:26:03Z</time></trkpt><trkpt lat="41.32889930609207" lon="14.374174089421038"><ele>134.5</ele><time>2026-04-04T07:26:05Z</time></trkpt><trkpt lat="41.32892308395243" lon="14.37425688009638"><ele>135.0</ele><time>2026-04-04T07:26:06Z</time></trkpt><trkpt lat="41.32896276989482" lon="14.374326607732701"><ele>135.5</ele><time>2026-04-04T07:26:07Z</time></trkpt><trkpt lat="41.32901794272973" lon="14.37438485924233"><ele>136.0</ele><time>2026-04-04T07:26:08Z</time></trkpt><trkpt lat="41.32913226895208" lon="14.374420887156951"><ele>136.14285714285714</ele><time>2026-04-04T07:26:10Z</time></trkpt><trkpt lat="41.329208252057725" lon="14.374409929378373"><ele>136.28571428571428</ele><time>2026-04-04T07:26:11Z</time></trkpt><trkpt lat="41.32927617015574" lon="14.37437931172736"><ele>136.42857142857144</ele><time>2026-04-04T07:26:12Z</time></trkpt><trkpt lat="41.32933531169508" lon="14.374317248436684"><ele>136.57142857142856</ele><time>2026-04-04T07:26:13Z</time></trkpt><trkpt lat="41.32937980095108" lon="14.374234084102541"><ele>136.71428571428572</ele><time>2026-04-04T07:26:14Z</time></trkpt><trkpt lat="41.329404250768064" lon="14.374142504853479"><ele>136.85714285714286</ele><time>2026-04-04T07:26:15Z</time></trkpt><trkpt lat="41.329411464021184" lon="14.374053597010827"><ele>137.0</ele><time>2026-04-04T07:26:16Z</time></trkpt><trkpt lat="41.32942745594648" lon="14.373874229230852"><ele>136.79999999999998</ele><time>2026-04-04T07:26:18Z</time></trkpt><trkpt lat="41.32949180243303" lon="14.373778337632494"><ele>136.6</ele><time>2026-04-04T07:26:20Z</time></trkpt><trkpt lat="41.32962667955317" lon="14.373711658798419"><ele>136.39999999999998</ele><time>2026-04-04T07:26:22Z</time></trkpt><trkpt lat="41.32971541749944" lon="14.373705819731219"><ele>136.2</ele><time>2026-04-04T07:26:23Z</time></trkpt><trkpt lat="41.32982534561202" lon="14.373707851086763"><ele>136.0</ele><time>2026-04-04T07:26:24Z</time></trkpt><trkpt lat="41.32995290728204" lon="14.373710857132503"><ele>136.0</ele><time>2026-04-04T07:26:25Z</time></trkpt><trkpt lat="41.33009919235594" lon="14.37371811859686"><ele>136.0</ele><time>2026-04-04T07:26:26Z</time></trkpt><trkpt lat="41.330258736701545" lon="14.373760106788632"><ele>136.0</ele><time>2026-04-04T07:26:27Z</time></trkpt><trkpt lat="41.330421892203105" lon="14.3737733852269"><ele>136.66666666666669</ele><time>2026-04-04T07:26:28Z</time></trkpt><trkpt lat="41.33059055793501" lon="14.37383342217349"><ele>137.33333333333334</ele><time>2026-04-04T07:26:29Z</time></trkpt><trkpt lat="41.330776144661044" lon="14.373878374728111"><ele>138.0</ele><time>2026-04-04T07:26:30Z</time></trkpt><trkpt lat="41.33097199706452" lon="14.373907143021974"><ele>139.0</ele><time>2026-04-04T07:26:31Z</time></trkpt><trkpt lat="41.3311602158654" lon="14.373945120036677"><ele>140.0</ele><time>2026-04-04T07:26:32Z</time></trkpt><trkpt lat="41.33134714318045" lon="14.373991796296746"><ele>141.0</ele><time>2026-04-04T07:26:33Z</time></trkpt><trkpt lat="41.33154151327011" lon="14.374028340858075"><ele>141.0</ele><time>2026-04-04T07:26:34Z</time></trkpt><trkpt lat="41.331719795894195" lon="14.374053604143358"><ele>141.0</ele><time>2026-04-04T07:26:35Z</time></trkpt><trkpt lat="41.33188917903145" lon="14.374080142354199"><ele>141.0</ele><time>2026-04-04T07:26:36Z</time></trkpt><trkpt lat="41.33205925366595" lon="14.374095149661255"><ele>141.0</ele><time>2026-04-04T07:26:37Z</time></trkpt><trkpt lat="41.33223964949384" lon="14.374101832132784"><ele>141.0</ele><time>2026-04-04T07:26:38Z</time></trkpt><trkpt lat="41.332419344673696" lon="14.374090891043283"><ele>141.0</ele><time>2026-04-04T07:26:39Z</time></trkpt><trkpt lat="41.33260059760373" lon="14.374086670095126"><ele>141.0</ele><time>2026-04-04T07:26:40Z</time></trkpt><trkpt lat="41.33278302385537" lon="14.374092482393781"><ele>141.0</ele><time>2026-04-04T07:26:41Z</time></trkpt><trkpt lat="41.33294535384827" lon="14.37410350112537"><ele>141.0</ele><time>2026-04-04T07:26:42Z</time></trkpt><trkpt lat="41.333092898624685" lon="14.374119932937836"><ele>141.33333333333334</ele><time>2026-04-04T07:26:43Z</time></trkpt><trkpt lat="41.33320345150148" lon="14.374139372552"><ele>141.66666666666666</ele><time>2026-04-04T07:26:44Z</time></trkpt><trkpt lat="41.333286295813025" lon="14.374147917212543"><ele>142.0</ele><time>2026-04-04T07:26:45Z</time></trkpt><trkpt lat="41.3333570411524" lon="14.374150029851949"><ele>142.33333333333331</ele><time>2026-04-04T07:26:49Z</time></trkpt><trkpt lat="41.333426644013024" lon="14.3741503641758"><ele>142.66666666666666</ele><time>2026-04-04T07:26:53Z</time></trkpt><trkpt lat="41.33349837835039" lon="14.374152120248423"><ele>143.0</ele><time>2026-04-04T07:26:58Z</time></trkpt><trkpt lat="41.33358946565839" lon="14.374150928271524"><ele>143.0</ele><time>2026-04-04T07:27:03Z</time></trkpt><trkpt lat="41.33368869036487" lon="14.374142104930018"><ele>143.0</ele><time>2026-04-04T07:27:06Z</time></trkpt><trkpt lat="41.33378099034224" lon="14.37414874513991"><ele>143.0</ele><time>2026-04-04T07:27:08Z</time></trkpt><trkpt lat="41.33388830801074" lon="14.374149369883051"><ele>143.0</ele><time>2026-04-04T07:27:10Z</time></trkpt><trkpt lat="41.33401951732765" lon="14.374154802579385"><ele>143.0</ele><time>2026-04-04T07:27:12Z</time></trkpt><trkpt lat="41.33410430617721" lon="14.374161016379675"><ele>143.5</ele><time>2026-04-04T07:27:13Z</time></trkpt><trkpt lat="41.3342144277845" lon="14.37416737200525"><ele>144.0</ele><time>2026-04-04T07:27:14Z</time></trkpt><trkpt lat="41.33433344047786" lon="14.374171930923293"><ele>144.5</ele><time>2026-04-04T07:27:15Z</time></trkpt><trkpt lat="41.33447252608004" lon="14.374178913958179"><ele>145.0</ele><time>2026-04-04T07:27:16Z</time></trkpt><trkpt lat="41.33463303721274" lon="14.374188997664884"><ele>145.66666666666669</ele><time>2026-04-04T07:27:17Z</time></trkpt><trkpt lat="41.3348192817777" lon="14.37419731326391"><ele>146.33333333333334</ele><time>2026-04-04T07:27:18Z</time></trkpt><trkpt lat="41.335015343221286" lon="14.374208511926991"><ele>147.0</ele><time>2026-04-04T07:27:19Z</time></trkpt><trkpt lat="41.335243564513604" lon="14.374224428096586"><ele>147.0</ele><time>2026-04-04T07:27:20Z</time></trkpt><trkpt lat="41.33546705731347" lon="14.374237102809106"><ele>147.0</ele><time>2026-04-04T07:27:21Z</time></trkpt><trkpt lat="41.335656755717146" lon="14.374249189267157"><ele>147.0</ele><time>2026-04-04T07:27:22Z</time></trkpt><trkpt lat="41.335821061487785" lon="14.374256984610508"><ele>147.66666666666666</ele><time>2026-04-04T07:27:23Z</time></trkpt><trkpt lat="41.33598462751733" lon="14.374266011636758"><ele>148.33333333333331</ele><time>2026-04-04T07:27:24Z</time></trkpt><trkpt lat="41.336144876619336" lon="14.374277509044294"><ele>149.0</ele><time>2026-04-04T07:27:25Z</time></trkpt><trkpt lat="41.33633017868765" lon="14.374286933147312"><ele>148.66666666666666</ele><time>2026-04-04T07:27:26Z</time></trkpt><trkpt lat="41.33651960166686" lon="14.374294453884673"><ele>148.33333333333334</ele><time>2026-04-04T07:27:27Z</time></trkpt><trkpt lat="41.33671031908738" lon="14.374306134905135"><ele>148.0</ele><time>2026-04-04T07:27:28Z</time></trkpt><trkpt lat="41.33690177509188" lon="14.374316930780958"><ele>148.0</ele><time>2026-04-04T07:27:29Z</time></trkpt><trkpt lat="41.337100235777754" lon="14.374329302717697"><ele>148.0</ele><time>2026-04-04T07:27:30Z</time></trkpt><trkpt lat="41.33730289012771" lon="14.374341597448751"><ele>148.0</ele><time>2026-04-04T07:27:31Z</time></trkpt><trkpt lat="41.33751008124726" lon="14.37435366384478"><ele>149.0</ele><time>2026-04-04T07:27:32Z</time></trkpt><trkpt lat="41.3377208168277" lon="14.374364748617998"><ele>150.0</ele><time>2026-04-04T07:27:33Z</time></trkpt><trkpt lat="41.33793267321988" lon="14.374371697156473"><ele>151.0</ele><time>2026-04-04T07:27:34Z</time></trkpt><trkpt lat="41.338140788350906" lon="14.374372040182635"><ele>152.66666666666669</ele><time>2026-04-04T07:27:35Z</time></trkpt><trkpt lat="41.33833768564652" lon="14.374368455044522"><ele>154.33333333333334</ele><time>2026-04-04T07:27:36Z</time></trkpt><trkpt lat="41.338529569112715" lon="14.374364365862341"><ele>156.0</ele><time>2026-04-04T07:27:37Z</time></trkpt><trkpt lat="41.33872375337075" lon="14.374363755120509"><ele>156.66666666666666</ele><time>2026-04-04T07:27:38Z</time></trkpt><trkpt lat="41.338914930944746" lon="14.37436371602272"><ele>157.33333333333331</ele><time>2026-04-04T07:27:39Z</time></trkpt><trkpt lat="41.339107698481314" lon="14.374360592785427"><ele>158.0</ele><time>2026-04-04T07:27:40Z</time></trkpt><trkpt lat="41.339321837217156" lon="14.374355068974644"><ele>158.0</ele><time>2026-04-04T07:27:41Z</time></trkpt><trkpt lat="41.33954526073857" lon="14.374358138568523"><ele>158.0</ele><time>2026-04-04T07:27:42Z</time></trkpt><trkpt lat="41.339667963194266" lon="14.374343401794333"><ele>158.0</ele><time>2026-04-04T07:27:43Z</time></trkpt><trkpt lat="41.339854016259864" lon="14.374348088765498"><ele>159.0</ele><time>2026-04-04T07:27:44Z</time></trkpt><trkpt lat="41.340043862870324" lon="14.37435887003593"><ele>160.0</ele><time>2026-04-04T07:27:45Z</time></trkpt><trkpt lat="41.340229100208965" lon="14.374371178955741"><ele>161.0</ele><time>2026-04-04T07:27:46Z</time></trkpt><trkpt lat="41.34041694997382" lon="14.374383185158424"><ele>162.0</ele><time>2026-04-04T07:27:47Z</time></trkpt><trkpt lat="41.34060307246716" lon="14.374394863452988"><ele>163.0</ele><time>2026-04-04T07:27:48Z</time></trkpt><trkpt lat="41.34078865501068" lon="14.374405835057596"><ele>164.0</ele><time>2026-04-04T07:27:49Z</time></trkpt><trkpt lat="41.34097726555253" lon="14.374416008060479"><ele>164.0</ele><time>2026-04-04T07:27:50Z</time></trkpt><trkpt lat="41.341162807666606" lon="14.37442515085619"><ele>164.0</ele><time>2026-04-04T07:27:51Z</time></trkpt><trkpt lat="41.34134005156824" lon="14.374435868561001"><ele>164.0</ele><time>2026-04-04T07:27:52Z</time></trkpt><trkpt lat="41.34150020124425" lon="14.37444829176384"><ele>164.75</ele><time>2026-04-04T07:27:53Z</time></trkpt><trkpt lat="41.34164887960147" lon="14.374452883705496"><ele>165.5</ele><time>2026-04-04T07:27:54Z</time></trkpt><trkpt lat="41.34179000209992" lon="14.374446124726008"><ele>166.25</ele><time>2026-04-04T07:27:55Z</time></trkpt><trkpt lat="41.34193708643648" lon="14.374466713713964"><ele>167.0</ele><time>2026-04-04T07:27:56Z</time></trkpt><trkpt lat="41.342092658385766" lon="14.374460433362346"><ele>167.0</ele><time>2026-04-04T07:27:57Z</time></trkpt><trkpt lat="41.342248041368755" lon="14.374490788160383"><ele>167.0</ele><time>2026-04-04T07:27:58Z</time></trkpt><trkpt lat="41.3424061610238" lon="14.37451891330384"><ele>167.0</ele><time>2026-04-04T07:27:59Z</time></trkpt><trkpt lat="41.342568181290254" lon="14.374535998374759"><ele>167.0</ele><time>2026-04-04T07:28:00Z</time></trkpt><trkpt lat="41.34273103230707" lon="14.374550040127682"><ele>167.0</ele><time>2026-04-04T07:28:01Z</time></trkpt><trkpt lat="41.34289366651654" lon="14.374560833218844"><ele>167.0</ele><time>2026-04-04T07:28:02Z</time></trkpt><trkpt lat="41.343057471669475" lon="14.374572331055807"><ele>167.33333333333331</ele><time>2026-04-04T07:28:03Z</time></trkpt><trkpt lat="41.34322674761934" lon="14.374585946585542"><ele>167.66666666666666</ele><time>2026-04-04T07:28:04Z</time></trkpt><trkpt lat="41.34339566437282" lon="14.374601748563604"><ele>168.0</ele><time>2026-04-04T07:28:05Z</time></trkpt><trkpt lat="41.343561074088036" lon="14.374613076340312"><ele>168.0</ele><time>2026-04-04T07:28:06Z</time></trkpt><trkpt lat="41.34372881071273" lon="14.374627072611167"><ele>168.0</ele><time>2026-04-04T07:28:07Z</time></trkpt><trkpt lat="41.34389294157308" lon="14.374638690131016"><ele>168.0</ele><time>2026-04-04T07:28:08Z</time></trkpt><trkpt lat="41.344052536662424" lon="14.374651086927804"><ele>168.33333333333334</ele><time>2026-04-04T07:28:09Z</time></trkpt><trkpt lat="41.34421541957962" lon="14.374663214440439"><ele>168.66666666666669</ele><time>2026-04-04T07:28:10Z</time></trkpt><trkpt lat="41.34438119159852" lon="14.374674161319001"><ele>169.0</ele><time>2026-04-04T07:28:11Z</time></trkpt><trkpt lat="41.344550167946245" lon="14.374683479704558"><ele>168.66666666666669</ele><time>2026-04-04T07:28:12Z</time></trkpt><trkpt lat="41.34471605850885" lon="14.374689000931337"><ele>168.33333333333334</ele><time>2026-04-04T07:28:13Z</time></trkpt><trkpt lat="41.344886127873664" lon="14.37469383345647"><ele>168.0</ele><time>2026-04-04T07:28:14Z</time></trkpt><trkpt lat="41.345055684518066" lon="14.374699578154445"><ele>168.0</ele><time>2026-04-04T07:28:15Z</time></trkpt><trkpt lat="41.34522068783828" lon="14.374705168158433"><ele>168.0</ele><time>2026-04-04T07:28:16Z</time></trkpt><trkpt lat="41.3453780833403" lon="14.374712407581358"><ele>168.0</ele><time>2026-04-04T07:28:17Z</time></trkpt><trkpt lat="41.345522235867186" lon="14.374721124555037"><ele>168.0</ele><time>2026-04-04T07:28:18Z</time></trkpt><trkpt lat="41.34565487593606" lon="14.374732981375148"><ele>168.0</ele><time>2026-04-04T07:28:19Z</time></trkpt><trkpt lat="41.34577970864574" lon="14.37474914647045"><ele>168.0</ele><time>2026-04-04T07:28:20Z</time></trkpt><trkpt lat="41.345891064593616" lon="14.374764244762376"><ele>168.0</ele><time>2026-04-04T07:28:21Z</time></trkpt><trkpt lat="41.34597522912722" lon="14.374769025067245"><ele>168.0</ele><time>2026-04-04T07:28:22Z</time></trkpt><trkpt lat="41.34605886586458" lon="14.37476810398387"><ele>168.0</ele><time>2026-04-04T07:28:23Z</time></trkpt><trkpt lat="41.346133014890775" lon="14.374762132595999"><ele>168.0</ele><time>2026-04-04T07:28:24Z</time></trkpt><trkpt lat="41.34621952940028" lon="14.374768724840633"><ele>168.0</ele><time>2026-04-04T07:28:25Z</time></trkpt><trkpt lat="41.34631423692725" lon="14.374777567222038"><ele>168.0</ele><time>2026-04-04T07:28:26Z</time></trkpt><trkpt lat="41.346419712898054" lon="14.374790515453869"><ele>168.0</ele><time>2026-04-04T07:28:27Z</time></trkpt><trkpt lat="41.34653352567311" lon="14.37480008154705"><ele>168.5</ele><time>2026-04-04T07:28:28Z</time></trkpt><trkpt lat="41.34666033153963" lon="14.3748065165123"><ele>169.0</ele><time>2026-04-04T07:28:29Z</time></trkpt><trkpt lat="41.34680702042273" lon="14.374813428812113"><ele>169.5</ele><time>2026-04-04T07:28:30Z</time></trkpt><trkpt lat="41.346980338604" lon="14.374825394049603"><ele>170.0</ele><time>2026-04-04T07:28:31Z</time></trkpt><trkpt lat="41.3471769418792" lon="14.374843507724178"><ele>170.33333333333331</ele><time>2026-04-04T07:28:32Z</time></trkpt><trkpt lat="41.347379880903596" lon="14.374867541436789"><ele>170.66666666666666</ele><time>2026-04-04T07:28:33Z</time></trkpt><trkpt lat="41.34756384812302" lon="14.374876573294939"><ele>171.0</ele><time>2026-04-04T07:28:34Z</time></trkpt><trkpt lat="41.34776209031108" lon="14.374865180385772"><ele>171.0</ele><time>2026-04-04T07:28:35Z</time></trkpt><trkpt lat="41.3479560189555" lon="14.374855150297906"><ele>171.0</ele><time>2026-04-04T07:28:36Z</time></trkpt><trkpt lat="41.348127731894174" lon="14.374845696695242"><ele>171.0</ele><time>2026-04-04T07:28:37Z</time></trkpt><trkpt lat="41.348289144365594" lon="14.374836055547236"><ele>171.25</ele><time>2026-04-04T07:28:38Z</time></trkpt><trkpt lat="41.34843930536863" lon="14.374827994021484"><ele>171.5</ele><time>2026-04-04T07:28:39Z</time></trkpt><trkpt lat="41.34856898280532" lon="14.374823123678276"><ele>171.75</ele><time>2026-04-04T07:28:40Z</time></trkpt><trkpt lat="41.34868726379391" lon="14.374820656023852"><ele>172.0</ele><time>2026-04-04T07:28:41Z</time></trkpt><trkpt lat="41.3488034795992" lon="14.374816854046948"><ele>171.8</ele><time>2026-04-04T07:28:42Z</time></trkpt><trkpt lat="41.3489138592391" lon="14.374810039531065"><ele>171.6</ele><time>2026-04-04T07:28:43Z</time></trkpt><trkpt lat="41.3490226760752" lon="14.374801832832402"><ele>171.4</ele><time>2026-04-04T07:28:44Z</time></trkpt><trkpt lat="41.349118210033765" lon="14.374798216912"><ele>171.20000000000002</ele><time>2026-04-04T07:28:45Z</time></trkpt><trkpt lat="41.34921186095571" lon="14.37479260287466"><ele>171.0</ele><time>2026-04-04T07:28:46Z</time></trkpt><trkpt lat="41.34929636685407" lon="14.374783709904532"><ele>171.0</ele><time>2026-04-04T07:28:47Z</time></trkpt><trkpt lat="41.34937561425666" lon="14.37477673729928"><ele>171.0</ele><time>2026-04-04T07:28:48Z</time></trkpt><trkpt lat="41.34944440728139" lon="14.374775602340739"><ele>171.0</ele><time>2026-04-04T07:28:49Z</time></trkpt><trkpt lat="41.34953138418998" lon="14.374773621539838"><ele>171.0</ele><time>2026-04-04T07:28:52Z</time></trkpt><trkpt lat="41.34959723708164" lon="14.374770826483797"><ele>171.0</ele><time>2026-04-04T07:28:54Z</time></trkpt><trkpt lat="41.349660704574966" lon="14.374773622553636"><ele>171.0</ele><time>2026-04-04T07:29:00Z</time></trkpt><trkpt lat="41.34976646282699" lon="14.374765324261865"><ele>171.16666666666666</ele><time>2026-04-04T07:29:03Z</time></trkpt><trkpt lat="41.34988455406584" lon="14.374736479105776"><ele>171.33333333333334</ele><time>2026-04-04T07:29:05Z</time></trkpt><trkpt lat="41.34994713678099" lon="14.37471900404519"><ele>171.5</ele><time>2026-04-04T07:29:06Z</time></trkpt><trkpt lat="41.35006616761648" lon="14.374687997005262"><ele>171.66666666666669</ele><time>2026-04-04T07:29:08Z</time></trkpt><trkpt lat="41.35012871669697" lon="14.374663431943654"><ele>171.83333333333334</ele><time>2026-04-04T07:29:09Z</time></trkpt><trkpt lat="41.35019088021808" lon="14.374635563819849"><ele>172.0</ele><time>2026-04-04T07:29:10Z</time></trkpt><trkpt lat="41.35025539285397" lon="14.374614138736359"><ele>171.83333333333334</ele><time>2026-04-04T07:29:11Z</time></trkpt><trkpt lat="41.350378363296564" lon="14.374564887831683"><ele>171.66666666666669</ele><time>2026-04-04T07:29:13Z</time></trkpt><trkpt lat="41.35044520404165" lon="14.374539526172045"><ele>171.5</ele><time>2026-04-04T07:29:14Z</time></trkpt><trkpt lat="41.350506478073186" lon="14.37451123117376"><ele>171.33333333333334</ele><time>2026-04-04T07:29:15Z</time></trkpt><trkpt lat="41.350574252345375" lon="14.374463308019392"><ele>171.16666666666666</ele><time>2026-04-04T07:29:16Z</time></trkpt><trkpt lat="41.350646867985176" lon="14.37442578229741"><ele>171.0</ele><time>2026-04-04T07:29:17Z</time></trkpt><trkpt lat="41.35072667242756" lon="14.374380843853922"><ele>171.0</ele><time>2026-04-04T07:29:18Z</time></trkpt><trkpt lat="41.35082247350831" lon="14.374332177500152"><ele>171.0</ele><time>2026-04-04T07:29:19Z</time></trkpt><trkpt lat="41.350926045552995" lon="14.37429320857231"><ele>171.0</ele><time>2026-04-04T07:29:20Z</time></trkpt><trkpt lat="41.35102853617409" lon="14.374252919559343"><ele>171.0</ele><time>2026-04-04T07:29:21Z</time></trkpt><trkpt lat="41.35114317565722" lon="14.374208683182726"><ele>171.0</ele><time>2026-04-04T07:29:22Z</time></trkpt><trkpt lat="41.35124387027353" lon="14.374154834598137"><ele>171.0</ele><time>2026-04-04T07:29:23Z</time></trkpt><trkpt lat="41.35133154951917" lon="14.374104375133419"><ele>171.0</ele><time>2026-04-04T07:29:24Z</time></trkpt><trkpt lat="41.351399658302526" lon="14.374066482823855"><ele>171.0</ele><time>2026-04-04T07:29:25Z</time></trkpt><trkpt lat="41.351467073776284" lon="14.37403656354484"><ele>171.0</ele><time>2026-04-04T07:29:26Z</time></trkpt><trkpt lat="41.35158184270148" lon="14.37398745007512"><ele>171.0</ele><time>2026-04-04T07:29:28Z</time></trkpt><trkpt lat="41.35165716346787" lon="14.373952995425997"><ele>171.0</ele><time>2026-04-04T07:29:29Z</time></trkpt><trkpt lat="41.35174135020845" lon="14.373909903783268"><ele>171.0</ele><time>2026-04-04T07:29:30Z</time></trkpt><trkpt lat="41.35183675208332" lon="14.373858507540719"><ele>171.0</ele><time>2026-04-04T07:29:31Z</time></trkpt><trkpt lat="41.35192929277681" lon="14.373809393909058"><ele>171.0</ele><time>2026-04-04T07:29:32Z</time></trkpt><trkpt lat="41.352021241989064" lon="14.373765827076692"><ele>171.0</ele><time>2026-04-04T07:29:33Z</time></trkpt><trkpt lat="41.352112501726744" lon="14.373726505183374"><ele>171.0</ele><time>2026-04-04T07:29:34Z</time></trkpt><trkpt lat="41.352206498181786" lon="14.37368620690381"><ele>169.83333333333334</ele><time>2026-04-04T07:29:35Z</time></trkpt><trkpt lat="41.35229041766919" lon="14.37364490455486"><ele>168.66666666666666</ele><time>2026-04-04T07:29:36Z</time></trkpt><trkpt lat="41.352370998440364" lon="14.373604928626037"><ele>167.5</ele><time>2026-04-04T07:29:37Z</time></trkpt><trkpt lat="41.352450553771604" lon="14.373568150530563"><ele>166.33333333333331</ele><time>2026-04-04T07:29:38Z</time></trkpt><trkpt lat="41.352525624916794" lon="14.373537037754383"><ele>165.16666666666666</ele><time>2026-04-04T07:29:39Z</time></trkpt><trkpt lat="41.35259317266167" lon="14.373510388001582"><ele>164.0</ele><time>2026-04-04T07:29:40Z</time></trkpt><trkpt lat="41.352693583756285" lon="14.373485213572035"><ele>164.0</ele><time>2026-04-04T07:29:42Z</time></trkpt><trkpt lat="41.35276714398897" lon="14.373472876264158"><ele>164.0</ele><time>2026-04-04T07:29:44Z</time></trkpt><trkpt lat="41.35288657647841" lon="14.373435614950456"><ele>164.0</ele><time>2026-04-04T07:29:46Z</time></trkpt><trkpt lat="41.3529800734596" lon="14.373410807770282"><ele>164.0</ele><time>2026-04-04T07:29:48Z</time></trkpt><trkpt lat="41.35304935281219" lon="14.373246796669696"><ele>164.0</ele><time>2026-04-04T07:29:50Z</time></trkpt><trkpt lat="41.3530989701093" lon="14.373143538698473"><ele>164.6</ele><time>2026-04-04T07:29:51Z</time></trkpt><trkpt lat="41.35317270901197" lon="14.373076470506712"><ele>165.2</ele><time>2026-04-04T07:29:52Z</time></trkpt><trkpt lat="41.353249303883416" lon="14.373015752614346"><ele>165.79999999999998</ele><time>2026-04-04T07:29:53Z</time></trkpt><trkpt lat="41.353335907278115" lon="14.3729494602243"><ele>166.39999999999998</ele><time>2026-04-04T07:29:54Z</time></trkpt><trkpt lat="41.35342736825241" lon="14.372895134850916"><ele>167.0</ele><time>2026-04-04T07:29:55Z</time></trkpt><trkpt lat="41.35353075158874" lon="14.372872594397446"><ele>167.0</ele><time>2026-04-04T07:29:56Z</time></trkpt><trkpt lat="41.353635264404176" lon="14.372821583813515"><ele>167.0</ele><time>2026-04-04T07:29:57Z</time></trkpt><trkpt lat="41.35374542814898" lon="14.37282194691213"><ele>167.0</ele><time>2026-04-04T07:29:58Z</time></trkpt><trkpt lat="41.35385986327985" lon="14.37285678143906"><ele>167.0</ele><time>2026-04-04T07:29:59Z</time></trkpt><trkpt lat="41.35395911464304" lon="14.372856891039625"><ele>167.0</ele><time>2026-04-04T07:30:00Z</time></trkpt><trkpt lat="41.35405998359675" lon="14.373010242602689"><ele>167.33333333333331</ele><time>2026-04-04T07:30:01Z</time></trkpt><trkpt lat="41.35413475899192" lon="14.373117525004854"><ele>167.66666666666666</ele><time>2026-04-04T07:30:02Z</time></trkpt><trkpt lat="41.35419011746066" lon="14.37321474713717"><ele>168.0</ele><time>2026-04-04T07:30:03Z</time></trkpt><trkpt lat="41.35423647031641" lon="14.373301323015028"><ele>168.33333333333334</ele><time>2026-04-04T07:30:04Z</time></trkpt><trkpt lat="41.35428250688946" lon="14.373368674511713"><ele>168.66666666666669</ele><time>2026-04-04T07:30:05Z</time></trkpt><trkpt lat="41.35432469560279" lon="14.373432795014862"><ele>169.0</ele><time>2026-04-04T07:30:06Z</time></trkpt><trkpt lat="41.35441309153562" lon="14.373533043296495"><ele>169.0</ele><time>2026-04-04T07:30:08Z</time></trkpt><trkpt lat="41.35446007560191" lon="14.373603375346043"><ele>169.0</ele><time>2026-04-04T07:30:09Z</time></trkpt><trkpt lat="41.35451133061159" lon="14.373680100694862"><ele>169.0</ele><time>2026-04-04T07:30:10Z</time></trkpt><trkpt lat="41.35456273815139" lon="14.37375705438102"><ele>169.0</ele><time>2026-04-04T07:30:11Z</time></trkpt><trkpt lat="41.354607023843975" lon="14.373855492364983"><ele>169.0</ele><time>2026-04-04T07:30:12Z</time></trkpt><trkpt lat="41.3546655942512" lon="14.373941718274159"><ele>169.0</ele><time>2026-04-04T07:30:13Z</time></trkpt><trkpt lat="41.354733873216524" lon="14.374012884332924"><ele>169.79999999999998</ele><time>2026-04-04T07:30:14Z</time></trkpt><trkpt lat="41.35478466492749" lon="14.374115358434473"><ele>170.6</ele><time>2026-04-04T07:30:15Z</time></trkpt><trkpt lat="41.354843848324016" lon="14.374206433925972"><ele>171.4</ele><time>2026-04-04T07:30:16Z</time></trkpt><trkpt lat="41.35490415416288" lon="14.374296489389677"><ele>172.2</ele><time>2026-04-04T07:30:17Z</time></trkpt><trkpt lat="41.354965875672576" lon="14.374387087532595"><ele>173.0</ele><time>2026-04-04T07:30:18Z</time></trkpt><trkpt lat="41.35502352717804" lon="14.374472265465542"><ele>173.0</ele><time>2026-04-04T07:30:19Z</time></trkpt><trkpt lat="41.35508123697312" lon="14.37455516788798"><ele>173.0</ele><time>2026-04-04T07:30:20Z</time></trkpt><trkpt lat="41.35513422251916" lon="14.374630705074988"><ele>173.0</ele><time>2026-04-04T07:30:21Z</time></trkpt><trkpt lat="41.35518968809406" lon="14.374712104533664"><ele>173.0</ele><time>2026-04-04T07:30:22Z</time></trkpt><trkpt lat="41.35524405679054" lon="14.374798810658953"><ele>173.0</ele><time>2026-04-04T07:30:23Z</time></trkpt><trkpt lat="41.35529813174375" lon="14.374886366139316"><ele>173.0</ele><time>2026-04-04T07:30:24Z</time></trkpt><trkpt lat="41.35535860855321" lon="14.374973195639402"><ele>173.0</ele><time>2026-04-04T07:30:25Z</time></trkpt><trkpt lat="41.35542164511742" lon="14.375051636147342"><ele>173.0</ele><time>2026-04-04T07:30:26Z</time></trkpt><trkpt lat="41.355474332783366" lon="14.375133643676573"><ele>173.0</ele><time>2026-04-04T07:30:27Z</time></trkpt><trkpt lat="41.3555362510632" lon="14.375193793384303"><ele>173.0</ele><time>2026-04-04T07:30:28Z</time></trkpt><trkpt lat="41.35558575852531" lon="14.375266155386038"><ele>173.0</ele><time>2026-04-04T07:30:29Z</time></trkpt><trkpt lat="41.35566977417754" lon="14.375276841989146"><ele>173.0</ele><time>2026-04-04T07:30:30Z</time></trkpt><trkpt lat="41.3557351300562" lon="14.375304199636865"><ele>173.0</ele><time>2026-04-04T07:30:31Z</time></trkpt><trkpt lat="41.3558495721548" lon="14.375264173885862"><ele>173.0</ele><time>2026-04-04T07:30:33Z</time></trkpt><trkpt lat="41.35590470215895" lon="14.37521781065178"><ele>173.0</ele><time>2026-04-04T07:30:34Z</time></trkpt><trkpt lat="41.35596563164068" lon="14.375170604585882"><ele>173.0</ele><time>2026-04-04T07:30:35Z</time></trkpt><trkpt lat="41.35606341734912" lon="14.375086014059333"><ele>173.0</ele><time>2026-04-04T07:30:37Z</time></trkpt><trkpt lat="41.35612148578652" lon="14.375040838073641"><ele>173.0</ele><time>2026-04-04T07:30:38Z</time></trkpt><trkpt lat="41.35618606373758" lon="14.374982433058468"><ele>173.0</ele><time>2026-04-04T07:30:39Z</time></trkpt><trkpt lat="41.3562468399806" lon="14.37493110444808"><ele>173.0</ele><time>2026-04-04T07:30:40Z</time></trkpt><trkpt lat="41.356338268021666" lon="14.374842051522748"><ele>173.0</ele><time>2026-04-04T07:30:42Z</time></trkpt><trkpt lat="41.356411433501236" lon="14.374780425762937"><ele>173.0</ele><time>2026-04-04T07:30:44Z</time></trkpt><trkpt lat="41.35647526772859" lon="14.374718059149437"><ele>173.0</ele><time>2026-04-04T07:30:46Z</time></trkpt><trkpt lat="41.35653977741" lon="14.374674216361678"><ele>173.0</ele><time>2026-04-04T07:30:48Z</time></trkpt><trkpt lat="41.35662356759129" lon="14.37465932269472"><ele>174.16666666666666</ele><time>2026-04-04T07:30:51Z</time></trkpt><trkpt lat="41.35667555551051" lon="14.374589595719172"><ele>175.33333333333331</ele><time>2026-04-04T07:30:54Z</time></trkpt><trkpt lat="41.356596950067285" lon="14.374498863124547"><ele>176.5</ele><time>2026-04-04T07:30:55Z</time></trkpt><trkpt lat="41.35653026554065" lon="14.374436262600355"><ele>177.66666666666666</ele><time>2026-04-04T07:30:57Z</time></trkpt><trkpt lat="41.35645531358343" lon="14.37432215714623"><ele>178.83333333333334</ele><time>2026-04-04T07:30:59Z</time></trkpt><trkpt lat="41.35641491211707" lon="14.37423845005681"><ele>180.0</ele><time>2026-04-04T07:31:01Z</time></trkpt><trkpt lat="41.3563742419192" lon="14.37413599530265"><ele>179.2</ele><time>2026-04-04T07:31:04Z</time></trkpt><trkpt lat="41.35632926700656" lon="14.374053501404893"><ele>178.4</ele><time>2026-04-04T07:31:06Z</time></trkpt><trkpt lat="41.35626218280056" lon="14.373938218422559"><ele>177.60000000000002</ele><time>2026-04-04T07:31:09Z</time></trkpt><trkpt lat="41.35621147255364" lon="14.373822763800431"><ele>176.8</ele><time>2026-04-04T07:31:11Z</time></trkpt><trkpt lat="41.356165432666806" lon="14.37372291815972"><ele>176.0</ele><time>2026-04-04T07:31:13Z</time></trkpt><trkpt lat="41.356120751602575" lon="14.373629118190593"><ele>176.0</ele><time>2026-04-04T07:31:15Z</time></trkpt><trkpt lat="41.3560830640847" lon="14.37355035767422"><ele>176.0</ele><time>2026-04-04T07:31:17Z</time></trkpt><trkpt lat="41.35604632765327" lon="14.373464577553351"><ele>176.0</ele><time>2026-04-04T07:31:19Z</time></trkpt><trkpt lat="41.35601257075836" lon="14.373389114530884"><ele>176.0</ele><time>2026-04-04T07:31:21Z</time></trkpt><trkpt lat="41.355975763941686" lon="14.37331013891403"><ele>176.0</ele><time>2026-04-04T07:31:23Z</time></trkpt><trkpt lat="41.35594011445906" lon="14.373230313088575"><ele>176.0</ele><time>2026-04-04T07:31:25Z</time></trkpt><trkpt lat="41.3558977263095" lon="14.373138312673643"><ele>176.0</ele><time>2026-04-04T07:31:28Z</time></trkpt><trkpt lat="41.35588520668674" lon="14.373025778691076"><ele>175.60000000000002</ele><time>2026-04-04T07:31:31Z</time></trkpt><trkpt lat="41.355813532659845" lon="14.372883772579032"><ele>175.2</ele><time>2026-04-04T07:31:33Z</time></trkpt><trkpt lat="41.35577688179377" lon="14.372811854016845"><ele>174.8</ele><time>2026-04-04T07:31:34Z</time></trkpt><trkpt lat="41.35571460162448" lon="14.3726823636703"><ele>174.39999999999998</ele><time>2026-04-04T07:31:36Z</time></trkpt><trkpt lat="41.35563979435791" lon="14.372578513815215"><ele>174.0</ele><time>2026-04-04T07:31:38Z</time></trkpt><trkpt lat="41.35561416776824" lon="14.372498080394946"><ele>174.0</ele><time>2026-04-04T07:31:40Z</time></trkpt><trkpt lat="41.35566765144556" lon="14.372408818018755"><ele>174.0</ele><time>2026-04-04T07:31:45Z</time></trkpt><trkpt lat="41.355735846235845" lon="14.372354494027892"><ele>174.0</ele><time>2026-04-04T07:31:46Z</time></trkpt><trkpt lat="41.35580522098533" lon="14.372288997679979"><ele>174.0</ele><time>2026-04-04T07:31:47Z</time></trkpt><trkpt lat="41.35587912940132" lon="14.372234975678714"><ele>174.0</ele><time>2026-04-04T07:31:48Z</time></trkpt><trkpt lat="41.3559377099841" lon="14.372186034638618"><ele>174.0</ele><time>2026-04-04T07:31:49Z</time></trkpt><trkpt lat="41.35603923971327" lon="14.372086357591147"><ele>174.0</ele><time>2026-04-04T07:31:51Z</time></trkpt><trkpt lat="41.35613765263318" lon="14.372003590398071"><ele>174.0</ele><time>2026-04-04T07:31:53Z</time></trkpt><trkpt lat="41.35621688547162" lon="14.37193070984896"><ele>174.0</ele><time>2026-04-04T07:31:55Z</time></trkpt><trkpt lat="41.35622523399023" lon="14.371779444201296"><ele>174.0</ele><time>2026-04-04T07:31:57Z</time></trkpt><trkpt lat="41.35622454164321" lon="14.371644502177489"><ele>174.0</ele><time>2026-04-04T07:31:58Z</time></trkpt><trkpt lat="41.356213681736115" lon="14.371524676499781"><ele>174.0</ele><time>2026-04-04T07:31:59Z</time></trkpt><trkpt lat="41.356206613400865" lon="14.3714357906295"><ele>174.0</ele><time>2026-04-04T07:32:00Z</time></trkpt><trkpt lat="41.35619917009448" lon="14.371263564135187"><ele>174.0</ele><time>2026-04-04T07:32:02Z</time></trkpt><trkpt lat="41.35619151319204" lon="14.371165602265211"><ele>174.0</ele><time>2026-04-04T07:32:03Z</time></trkpt><trkpt lat="41.356182885307234" lon="14.371067165544968"><ele>174.0</ele><time>2026-04-04T07:32:05Z</time></trkpt><trkpt lat="41.3561889890483" lon="14.370939735498643"><ele>174.0</ele><time>2026-04-04T07:32:07Z</time></trkpt><trkpt lat="41.356202310534684" lon="14.370840520284156"><ele>174.6</ele><time>2026-04-04T07:32:08Z</time></trkpt><trkpt lat="41.35622721365763" lon="14.370729899019159"><ele>175.2</ele><time>2026-04-04T07:32:09Z</time></trkpt><trkpt lat="41.35623707847463" lon="14.370607031990033"><ele>175.79999999999998</ele><time>2026-04-04T07:32:10Z</time></trkpt><trkpt lat="41.35624757857598" lon="14.370478405683391"><ele>176.39999999999998</ele><time>2026-04-04T07:32:11Z</time></trkpt><trkpt lat="41.35624360117935" lon="14.370333846062264"><ele>177.0</ele><time>2026-04-04T07:32:12Z</time></trkpt><trkpt lat="41.35625767451766" lon="14.370198105323366"><ele>178.0</ele><time>2026-04-04T07:32:13Z</time></trkpt><trkpt lat="41.3562746123301" lon="14.370051868719637"><ele>179.0</ele><time>2026-04-04T07:32:14Z</time></trkpt><trkpt lat="41.356289347782756" lon="14.369903476120186"><ele>180.0</ele><time>2026-04-04T07:32:15Z</time></trkpt><trkpt lat="41.356300585125" lon="14.369746332036625"><ele>181.0</ele><time>2026-04-04T07:32:16Z</time></trkpt><trkpt lat="41.35631658966019" lon="14.369575706949588"><ele>181.5</ele><time>2026-04-04T07:32:17Z</time></trkpt><trkpt lat="41.35632536948934" lon="14.369429913164227"><ele>182.0</ele><time>2026-04-04T07:32:18Z</time></trkpt><trkpt lat="41.35633113004242" lon="14.369318889664584"><ele>182.5</ele><time>2026-04-04T07:32:19Z</time></trkpt><trkpt lat="41.35633734622169" lon="14.369230993933938"><ele>183.0</ele><time>2026-04-04T07:32:20Z</time></trkpt><trkpt lat="41.35634122127576" lon="14.369134507606752"><ele>183.5</ele><time>2026-04-04T07:32:21Z</time></trkpt><trkpt lat="41.356355067403065" lon="14.369028950724417"><ele>184.0</ele><time>2026-04-04T07:32:22Z</time></trkpt><trkpt lat="41.356366053666015" lon="14.368913481020536"><ele>184.33333333333334</ele><time>2026-04-04T07:32:23Z</time></trkpt><trkpt lat="41.35640308505544" lon="14.368793417615915"><ele>184.66666666666669</ele><time>2026-04-04T07:32:24Z</time></trkpt><trkpt lat="41.35647050591492" lon="14.368666568468896"><ele>185.0</ele><time>2026-04-04T07:32:25Z</time></trkpt><trkpt lat="41.35651220017904" lon="14.36853671214452"><ele>185.33333333333334</ele><time>2026-04-04T07:32:26Z</time></trkpt><trkpt lat="41.35654922236843" lon="14.368468441708773"><ele>185.66666666666666</ele><time>2026-04-04T07:32:27Z</time></trkpt><trkpt lat="41.35661199125719" lon="14.368485261351829"><ele>186.0</ele><time>2026-04-04T07:32:28Z</time></trkpt><trkpt lat="41.35667960521926" lon="14.3685003992691"><ele>186.0</ele><time>2026-04-04T07:32:29Z</time></trkpt><trkpt lat="41.356781782365154" lon="14.368517414767979"><ele>186.0</ele><time>2026-04-04T07:32:30Z</time></trkpt><trkpt lat="41.356900869555254" lon="14.368521769224536"><ele>186.0</ele><time>2026-04-04T07:32:31Z</time></trkpt><trkpt lat="41.35697545872298" lon="14.368521095948593"><ele>186.0</ele><time>2026-04-04T07:32:32Z</time></trkpt><trkpt lat="41.35701591048568" lon="14.368398853140466"><ele>186.0</ele><time>2026-04-04T07:32:33Z</time></trkpt><trkpt lat="41.357050749725886" lon="14.368268825433551"><ele>186.0</ele><time>2026-04-04T07:32:34Z</time></trkpt><trkpt lat="41.35708898527647" lon="14.368099079404677"><ele>186.0</ele><time>2026-04-04T07:32:35Z</time></trkpt><trkpt lat="41.357156938049805" lon="14.367903300273957"><ele>186.0</ele><time>2026-04-04T07:32:36Z</time></trkpt><trkpt lat="41.35721773075522" lon="14.367699284949893"><ele>187.33333333333334</ele><time>2026-04-04T07:32:37Z</time></trkpt><trkpt lat="41.35728773253647" lon="14.367461180620317"><ele>188.66666666666669</ele><time>2026-04-04T07:32:38Z</time></trkpt><trkpt lat="41.35734370379832" lon="14.367220704180317"><ele>190.0</ele><time>2026-04-04T07:32:39Z</time></trkpt><trkpt lat="41.35739856257579" lon="14.367036282396565"><ele>190.4</ele><time>2026-04-04T07:32:40Z</time></trkpt><trkpt lat="41.357443096691306" lon="14.366876521061613"><ele>190.8</ele><time>2026-04-04T07:32:41Z</time></trkpt><trkpt lat="41.35748236661823" lon="14.366736730872399"><ele>191.2</ele><time>2026-04-04T07:32:42Z</time></trkpt><trkpt lat="41.357523627343404" lon="14.366601940174032"><ele>191.6</ele><time>2026-04-04T07:32:43Z</time></trkpt><trkpt lat="41.35756158261792" lon="14.366502471683111"><ele>192.0</ele><time>2026-04-04T07:32:44Z</time></trkpt><trkpt lat="41.35759626419068" lon="14.366412549862615"><ele>193.0</ele><time>2026-04-04T07:32:45Z</time></trkpt><trkpt lat="41.357633984161396" lon="14.366311588517622"><ele>194.0</ele><time>2026-04-04T07:32:46Z</time></trkpt><trkpt lat="41.3576759559219" lon="14.366198189111536"><ele>195.0</ele><time>2026-04-04T07:32:47Z</time></trkpt><trkpt lat="41.35771565028815" lon="14.366087540723909"><ele>196.0</ele><time>2026-04-04T07:32:48Z</time></trkpt><trkpt lat="41.3577482638791" lon="14.365975477286822"><ele>197.0</ele><time>2026-04-04T07:32:49Z</time></trkpt><trkpt lat="41.35776739051407" lon="14.365850924580126"><ele>197.0</ele><time>2026-04-04T07:32:50Z</time></trkpt><trkpt lat="41.3577892746791" lon="14.365725865536204"><ele>197.0</ele><time>2026-04-04T07:32:51Z</time></trkpt><trkpt lat="41.357802360651" lon="14.365627730108192"><ele>197.0</ele><time>2026-04-04T07:32:52Z</time></trkpt><trkpt lat="41.357821039448474" lon="14.36546322935447"><ele>197.0</ele><time>2026-04-04T07:32:54Z</time></trkpt><trkpt lat="41.3578350379812" lon="14.36535203566276"><ele>197.0</ele><time>2026-04-04T07:32:55Z</time></trkpt><trkpt lat="41.35786800118313" lon="14.365207787143623"><ele>198.0</ele><time>2026-04-04T07:32:56Z</time></trkpt><trkpt lat="41.357884917137504" lon="14.36504127494856"><ele>199.0</ele><time>2026-04-04T07:32:57Z</time></trkpt><trkpt lat="41.35787665146665" lon="14.36486413102503"><ele>200.0</ele><time>2026-04-04T07:32:58Z</time></trkpt><trkpt lat="41.357906011833435" lon="14.364662027572562"><ele>201.0</ele><time>2026-04-04T07:32:59Z</time></trkpt><trkpt lat="41.35793563703933" lon="14.364468600916458"><ele>201.66666666666669</ele><time>2026-04-04T07:33:00Z</time></trkpt><trkpt lat="41.35797278984661" lon="14.364231279196083"><ele>202.33333333333334</ele><time>2026-04-04T07:33:01Z</time></trkpt><trkpt lat="41.358014291690246" lon="14.363922821528234"><ele>203.0</ele><time>2026-04-04T07:33:02Z</time></trkpt><trkpt lat="41.358064560291574" lon="14.363623393584378"><ele>206.0</ele><time>2026-04-04T07:33:03Z</time></trkpt><trkpt lat="41.3581250876301" lon="14.363348839030948"><ele>209.0</ele><time>2026-04-04T07:33:04Z</time></trkpt><trkpt lat="41.35815349094401" lon="14.36311758464332"><ele>212.0</ele><time>2026-04-04T07:33:05Z</time></trkpt><trkpt lat="41.358186579696984" lon="14.362933148290523"><ele>213.66666666666669</ele><time>2026-04-04T07:33:06Z</time></trkpt><trkpt lat="41.35817885777211" lon="14.362739415713023"><ele>215.33333333333331</ele><time>2026-04-04T07:33:07Z</time></trkpt><trkpt lat="41.35814842646779" lon="14.362527776774877"><ele>217.0</ele><time>2026-04-04T07:33:08Z</time></trkpt><trkpt lat="41.35813023373029" lon="14.362306322806377"><ele>217.33333333333331</ele><time>2026-04-04T07:33:09Z</time></trkpt><trkpt lat="41.35813971088405" lon="14.362094256118565"><ele>217.66666666666669</ele><time>2026-04-04T07:33:10Z</time></trkpt><trkpt lat="41.35814296165801" lon="14.361898847298475"><ele>218.0</ele><time>2026-04-04T07:33:11Z</time></trkpt><trkpt lat="41.35813151527675" lon="14.361701170074731"><ele>218.0</ele><time>2026-04-04T07:33:12Z</time></trkpt><trkpt lat="41.35813070409335" lon="14.361536154470125"><ele>218.0</ele><time>2026-04-04T07:33:13Z</time></trkpt><trkpt lat="41.35812817069262" lon="14.361395373122937"><ele>218.0</ele><time>2026-04-04T07:33:14Z</time></trkpt><trkpt lat="41.358118446845765" lon="14.361268386537123"><ele>218.0</ele><time>2026-04-04T07:33:15Z</time></trkpt><trkpt lat="41.35810555416491" lon="14.361159539248769"><ele>218.0</ele><time>2026-04-04T07:33:16Z</time></trkpt><trkpt lat="41.35817140636709" lon="14.361063886422462"><ele>219.5</ele><time>2026-04-04T07:33:17Z</time></trkpt><trkpt lat="41.35825077631832" lon="14.360964291993104"><ele>221.0</ele><time>2026-04-04T07:33:18Z</time></trkpt><trkpt lat="41.35832512295466" lon="14.360801795673337"><ele>222.5</ele><time>2026-04-04T07:33:19Z</time></trkpt><trkpt lat="41.35843674396169" lon="14.360662731684572"><ele>224.0</ele><time>2026-04-04T07:33:20Z</time></trkpt><trkpt lat="41.3585405143122" lon="14.360562314256759"><ele>226.39999999999998</ele><time>2026-04-04T07:33:21Z</time></trkpt><trkpt lat="41.358608534353166" lon="14.36050578661548"><ele>228.79999999999998</ele><time>2026-04-04T07:33:22Z</time></trkpt><trkpt lat="41.358622763401286" lon="14.360384127006165"><ele>231.20000000000002</ele><time>2026-04-04T07:33:24Z</time></trkpt><trkpt lat="41.358546192897556" lon="14.360350544046188"><ele>233.60000000000002</ele><time>2026-04-04T07:33:25Z</time></trkpt><trkpt lat="41.358458476565765" lon="14.360368041779564"><ele>236.0</ele><time>2026-04-04T07:33:26Z</time></trkpt><trkpt lat="41.358344602584616" lon="14.36039853698304"><ele>236.0</ele><time>2026-04-04T07:33:27Z</time></trkpt><trkpt lat="41.35825266347009" lon="14.360325214914578"><ele>236.0</ele><time>2026-04-04T07:33:28Z</time></trkpt><trkpt lat="41.358196333030385" lon="14.36020608901879"><ele>236.0</ele><time>2026-04-04T07:33:29Z</time></trkpt><trkpt lat="41.35810308410073" lon="14.36008158724235"><ele>236.0</ele><time>2026-04-04T07:33:30Z</time></trkpt><trkpt lat="41.35798470571227" lon="14.359950597479703"><ele>234.66666666666669</ele><time>2026-04-04T07:33:31Z</time></trkpt><trkpt lat="41.35783384633187" lon="14.359812609234833"><ele>233.33333333333331</ele><time>2026-04-04T07:33:32Z</time></trkpt><trkpt lat="41.357668770242" lon="14.359661347953615"><ele>232.0</ele><time>2026-04-04T07:33:33Z</time></trkpt><trkpt lat="41.35750122336712" lon="14.359553989835534"><ele>232.0</ele><time>2026-04-04T07:33:34Z</time></trkpt><trkpt lat="41.35734862486218" lon="14.3594829196288"><ele>232.0</ele><time>2026-04-04T07:33:35Z</time></trkpt><trkpt lat="41.35721836336624" lon="14.359415487625242"><ele>232.0</ele><time>2026-04-04T07:33:36Z</time></trkpt><trkpt lat="41.35709800989986" lon="14.359380365781664"><ele>232.0</ele><time>2026-04-04T07:33:37Z</time></trkpt><trkpt lat="41.356977973752656" lon="14.35934139623619"><ele>232.0</ele><time>2026-04-04T07:33:38Z</time></trkpt><trkpt lat="41.35683556985393" lon="14.359350108076434"><ele>232.0</ele><time>2026-04-04T07:33:39Z</time></trkpt><trkpt lat="41.35669493655391" lon="14.359339583380457"><ele>232.0</ele><time>2026-04-04T07:33:40Z</time></trkpt><trkpt lat="41.35656589127424" lon="14.35932359981564"><ele>232.0</ele><time>2026-04-04T07:33:41Z</time></trkpt><trkpt lat="41.35646618062961" lon="14.359234140704455"><ele>231.0</ele><time>2026-04-04T07:33:42Z</time></trkpt><trkpt lat="41.35635894020152" lon="14.359159101491219"><ele>230.0</ele><time>2026-04-04T07:33:43Z</time></trkpt><trkpt lat="41.356286384517446" lon="14.359026600886128"><ele>229.0</ele><time>2026-04-04T07:33:44Z</time></trkpt><trkpt lat="41.35619704805456" lon="14.358939529597592"><ele>228.0</ele><time>2026-04-04T07:33:45Z</time></trkpt><trkpt lat="41.35605962074453" lon="14.358902939899657"><ele>228.66666666666669</ele><time>2026-04-04T07:33:46Z</time></trkpt><trkpt lat="41.35588730195858" lon="14.358855075705153"><ele>229.33333333333334</ele><time>2026-04-04T07:33:47Z</time></trkpt><trkpt lat="41.3557228932001" lon="14.358777803858581"><ele>230.0</ele><time>2026-04-04T07:33:48Z</time></trkpt><trkpt lat="41.355579365219576" lon="14.358700057436979"><ele>229.25</ele><time>2026-04-04T07:33:49Z</time></trkpt><trkpt lat="41.355459495431795" lon="14.35861116666486"><ele>228.5</ele><time>2026-04-04T07:33:50Z</time></trkpt><trkpt lat="41.355365080507205" lon="14.358510480129715"><ele>227.75</ele><time>2026-04-04T07:33:51Z</time></trkpt><trkpt lat="41.35524546745512" lon="14.358380175928806"><ele>227.0</ele><time>2026-04-04T07:33:52Z</time></trkpt><trkpt lat="41.35511663121964" lon="14.358237427429977"><ele>227.0</ele><time>2026-04-04T07:33:53Z</time></trkpt><trkpt lat="41.35498658866914" lon="14.358093343504537"><ele>227.0</ele><time>2026-04-04T07:33:54Z</time></trkpt><trkpt lat="41.354848196965094" lon="14.35794248176531"><ele>227.0</ele><time>2026-04-04T07:33:55Z</time></trkpt><trkpt lat="41.354702744219075" lon="14.357789502780095"><ele>226.5</ele><time>2026-04-04T07:33:56Z</time></trkpt><trkpt lat="41.354577778033814" lon="14.357659266105312"><ele>226.0</ele><time>2026-04-04T07:33:57Z</time></trkpt><trkpt lat="41.354458580842646" lon="14.357554471031134"><ele>225.5</ele><time>2026-04-04T07:33:58Z</time></trkpt><trkpt lat="41.354340147600404" lon="14.357464071381383"><ele>225.0</ele><time>2026-04-04T07:33:59Z</time></trkpt><trkpt lat="41.35422979303139" lon="14.35738777659267"><ele>225.0</ele><time>2026-04-04T07:34:00Z</time></trkpt><trkpt lat="41.35412053502688" lon="14.357322936683298"><ele>225.0</ele><time>2026-04-04T07:34:01Z</time></trkpt><trkpt lat="41.35400948174205" lon="14.357278692270109"><ele>225.0</ele><time>2026-04-04T07:34:02Z</time></trkpt><trkpt lat="41.35389138061165" lon="14.357259509902006"><ele>225.0</ele><time>2026-04-04T07:34:03Z</time></trkpt><trkpt lat="41.353779357867886" lon="14.357251976937622"><ele>224.25</ele><time>2026-04-04T07:34:04Z</time></trkpt><trkpt lat="41.353666035351765" lon="14.357276664495089"><ele>223.5</ele><time>2026-04-04T07:34:05Z</time></trkpt><trkpt lat="41.35353388728735" lon="14.357278160774502"><ele>222.75</ele><time>2026-04-04T07:34:06Z</time></trkpt><trkpt lat="41.35338058043784" lon="14.357282944916866"><ele>222.0</ele><time>2026-04-04T07:34:07Z</time></trkpt><trkpt lat="41.35324168727003" lon="14.357265893184238"><ele>222.0</ele><time>2026-04-04T07:34:08Z</time></trkpt><trkpt lat="41.353140086988745" lon="14.357265893181282"><ele>222.0</ele><time>2026-04-04T07:34:09Z</time></trkpt><trkpt lat="41.353079491165126" lon="14.357242935070797"><ele>222.0</ele><time>2026-04-04T07:34:11Z</time></trkpt><trkpt lat="41.35302079978585" lon="14.357194985491251"><ele>222.0</ele><time>2026-04-04T07:34:13Z</time></trkpt><trkpt lat="41.35304081275722" lon="14.356985888838304"><ele>222.0</ele><time>2026-04-04T07:34:15Z</time></trkpt><trkpt lat="41.353033193405196" lon="14.356861433235457"><ele>222.2</ele><time>2026-04-04T07:34:16Z</time></trkpt><trkpt lat="41.353024307885605" lon="14.356737634251168"><ele>222.39999999999998</ele><time>2026-04-04T07:34:18Z</time></trkpt><trkpt lat="41.353011437255105" lon="14.356558312149968"><ele>222.60000000000002</ele><time>2026-04-04T07:34:20Z</time></trkpt><trkpt lat="41.35300345301544" lon="14.356447070435772"><ele>222.8</ele><time>2026-04-04T07:34:21Z</time></trkpt><trkpt lat="41.352990433488884" lon="14.356328427595779"><ele>223.0</ele><time>2026-04-04T07:34:22Z</time></trkpt><trkpt lat="41.352983071261505" lon="14.356223883737227"><ele>223.0</ele><time>2026-04-04T07:34:23Z</time></trkpt><trkpt lat="41.35297726922617" lon="14.356139171159162"><ele>223.0</ele><time>2026-04-04T07:34:24Z</time></trkpt><trkpt lat="41.352966228809684" lon="14.356033154048014"><ele>223.0</ele><time>2026-04-04T07:34:25Z</time></trkpt><trkpt lat="41.35296501133324" lon="14.355898855357365"><ele>223.0</ele><time>2026-04-04T07:34:26Z</time></trkpt><trkpt lat="41.35295425850739" lon="14.355738417251015"><ele>223.0</ele><time>2026-04-04T07:34:27Z</time></trkpt><trkpt lat="41.35294092595055" lon="14.355520300729447"><ele>224.66666666666666</ele><time>2026-04-04T07:34:28Z</time></trkpt><trkpt lat="41.35291387547993" lon="14.3552825770524"><ele>226.33333333333331</ele><time>2026-04-04T07:34:29Z</time></trkpt><trkpt lat="41.35289958499611" lon="14.355018192658168"><ele>228.0</ele><time>2026-04-04T07:34:30Z</time></trkpt><trkpt lat="41.35294123475277" lon="14.35470216851154"><ele>229.0</ele><time>2026-04-04T07:34:31Z</time></trkpt><trkpt lat="41.35291765017586" lon="14.354384312818675"><ele>230.0</ele><time>2026-04-04T07:34:32Z</time></trkpt><trkpt lat="41.35284584937177" lon="14.354123282280167"><ele>231.0</ele><time>2026-04-04T07:34:33Z</time></trkpt><trkpt lat="41.35282678637105" lon="14.353877844681154"><ele>231.0</ele><time>2026-04-04T07:34:34Z</time></trkpt><trkpt lat="41.35283524936897" lon="14.353670417336428"><ele>231.00000000000003</ele><time>2026-04-04T07:34:35Z</time></trkpt><trkpt lat="41.352840309122854" lon="14.353522679032697"><ele>231.00000000000003</ele><time>2026-04-04T07:34:36Z</time></trkpt><trkpt lat="41.35286111925545" lon="14.353421354037206"><ele>231.0</ele><time>2026-04-04T07:34:37Z</time></trkpt><trkpt lat="41.35290841003404" lon="14.353348277229177"><ele>231.0</ele><time>2026-04-04T07:34:39Z</time></trkpt><trkpt lat="41.35302311657343" lon="14.353403731849742"><ele>232.25</ele><time>2026-04-04T07:34:40Z</time></trkpt><trkpt lat="41.35311663882187" lon="14.35344347230316"><ele>233.5</ele><time>2026-04-04T07:34:41Z</time></trkpt><trkpt lat="41.35320394260085" lon="14.353597532205256"><ele>234.75</ele><time>2026-04-04T07:34:42Z</time></trkpt><trkpt lat="41.35331033730004" lon="14.353769696997281"><ele>236.0</ele><time>2026-04-04T07:34:43Z</time></trkpt><trkpt lat="41.35342681413473" lon="14.353962800924904"><ele>236.0</ele><time>2026-04-04T07:34:44Z</time></trkpt><trkpt lat="41.353567344349294" lon="14.354167071375702"><ele>236.0</ele><time>2026-04-04T07:34:45Z</time></trkpt><trkpt lat="41.35371052481737" lon="14.354354429947989"><ele>236.0</ele><time>2026-04-04T07:34:46Z</time></trkpt><trkpt lat="41.353844919233765" lon="14.354479038464692"><ele>238.0</ele><time>2026-04-04T07:34:47Z</time></trkpt><trkpt lat="41.35399677506034" lon="14.354558028146947"><ele>240.0</ele><time>2026-04-04T07:34:48Z</time></trkpt><trkpt lat="41.35417041325957" lon="14.354589472836683"><ele>242.0</ele><time>2026-04-04T07:34:49Z</time></trkpt><trkpt lat="41.35437625840994" lon="14.354612332606413"><ele>242.0</ele><time>2026-04-04T07:34:50Z</time></trkpt><trkpt lat="41.35461927507406" lon="14.35464153876584"><ele>242.0</ele><time>2026-04-04T07:34:51Z</time></trkpt><trkpt lat="41.35486734003924" lon="14.354684660893692"><ele>246.0</ele><time>2026-04-04T07:34:52Z</time></trkpt><trkpt lat="41.355127229940656" lon="14.354740721964928"><ele>250.0</ele><time>2026-04-04T07:34:53Z</time></trkpt><trkpt lat="41.35540743061438" lon="14.354800305944321"><ele>251.5</ele><time>2026-04-04T07:34:54Z</time></trkpt><trkpt lat="41.355673763281985" lon="14.35485944921752"><ele>253.0</ele><time>2026-04-04T07:34:55Z</time></trkpt><trkpt lat="41.355930337895124" lon="14.354911967334543"><ele>253.0</ele><time>2026-04-04T07:34:56Z</time></trkpt><trkpt lat="41.35616828403934" lon="14.354957530776868"><ele>253.0</ele><time>2026-04-04T07:34:57Z</time></trkpt><trkpt lat="41.356384621595126" lon="14.355002010439339"><ele>255.0</ele><time>2026-04-04T07:34:58Z</time></trkpt><trkpt lat="41.35657548772631" lon="14.355046712466272"><ele>257.0</ele><time>2026-04-04T07:34:59Z</time></trkpt><trkpt lat="41.356747229233186" lon="14.355087746016649"><ele>259.0</ele><time>2026-04-04T07:35:00Z</time></trkpt><trkpt lat="41.35690272602304" lon="14.355115910509651"><ele>259.0</ele><time>2026-04-04T07:35:01Z</time></trkpt><trkpt lat="41.357056537619826" lon="14.35511134185057"><ele>259.0</ele><time>2026-04-04T07:35:02Z</time></trkpt><trkpt lat="41.35723031671144" lon="14.355074664315925"><ele>259.0</ele><time>2026-04-04T07:35:03Z</time></trkpt><trkpt lat="41.357420723148074" lon="14.355008814055934"><ele>260.3333333333333</ele><time>2026-04-04T07:35:04Z</time></trkpt><trkpt lat="41.35762153046588" lon="14.354929168630706"><ele>261.6666666666667</ele><time>2026-04-04T07:35:05Z</time></trkpt><trkpt lat="41.35783210101487" lon="14.354854755858053"><ele>263.0</ele><time>2026-04-04T07:35:06Z</time></trkpt><trkpt lat="41.35803948275132" lon="14.354791567682112"><ele>263.6666666666667</ele><time>2026-04-04T07:35:07Z</time></trkpt><trkpt lat="41.358220258368924" lon="14.354741250115863"><ele>264.3333333333333</ele><time>2026-04-04T07:35:08Z</time></trkpt><trkpt lat="41.35839977422826" lon="14.354711136010021"><ele>265.0</ele><time>2026-04-04T07:35:09Z</time></trkpt><trkpt lat="41.358586439533546" lon="14.354712045176615"><ele>265.0</ele><time>2026-04-04T07:35:10Z</time></trkpt><trkpt lat="41.35876399075824" lon="14.354750316308143"><ele>265.0</ele><time>2026-04-04T07:35:11Z</time></trkpt><trkpt lat="41.35891647373323" lon="14.354813206284291"><ele>265.0</ele><time>2026-04-04T07:35:12Z</time></trkpt><trkpt lat="41.35906209334442" lon="14.354905384536272"><ele>269.0</ele><time>2026-04-04T07:35:13Z</time></trkpt><trkpt lat="41.35917155086867" lon="14.3550363675105"><ele>273.0</ele><time>2026-04-04T07:35:14Z</time></trkpt><trkpt lat="41.3592866940292" lon="14.355177043961437"><ele>277.0</ele><time>2026-04-04T07:35:15Z</time></trkpt><trkpt lat="41.359395803024206" lon="14.355374694051935"><ele>273.3333333333333</ele><time>2026-04-04T07:35:16Z</time></trkpt><trkpt lat="41.35952034508494" lon="14.355589908374656"><ele>269.6666666666667</ele><time>2026-04-04T07:35:17Z</time></trkpt><trkpt lat="41.35965512994935" lon="14.355814926930275"><ele>266.0</ele><time>2026-04-04T07:35:18Z</time></trkpt><trkpt lat="41.35979801414766" lon="14.356045589755526"><ele>271.5</ele><time>2026-04-04T07:35:19Z</time></trkpt><trkpt lat="41.359950910787724" lon="14.356290502836112"><ele>277.0</ele><time>2026-04-04T07:35:20Z</time></trkpt><trkpt lat="41.36009314570362" lon="14.356540281480008"><ele>277.0</ele><time>2026-04-04T07:35:21Z</time></trkpt><trkpt lat="41.36022309054233" lon="14.356755874059113"><ele>277.0</ele><time>2026-04-04T07:35:22Z</time></trkpt><trkpt lat="41.36034126112754" lon="14.356949454026022"><ele>277.0</ele><time>2026-04-04T07:35:23Z</time></trkpt><trkpt lat="41.36044419062004" lon="14.35711069263392"><ele>275.75</ele><time>2026-04-04T07:35:24Z</time></trkpt><trkpt lat="41.36053091378626" lon="14.357227557924404"><ele>274.5</ele><time>2026-04-04T07:35:25Z</time></trkpt><trkpt lat="41.360620054839124" lon="14.357304363834087"><ele>273.25</ele><time>2026-04-04T07:35:26Z</time></trkpt><trkpt lat="41.36073913609339" lon="14.357335874404107"><ele>272.0</ele><time>2026-04-04T07:35:27Z</time></trkpt><trkpt lat="41.36087838366997" lon="14.35731711598174"><ele>272.0</ele><time>2026-04-04T07:35:28Z</time></trkpt><trkpt lat="41.36102735521032" lon="14.35725773818366"><ele>272.0</ele><time>2026-04-04T07:35:29Z</time></trkpt><trkpt lat="41.361163666311356" lon="14.357164826555303"><ele>272.0</ele><time>2026-04-04T07:35:30Z</time></trkpt><trkpt lat="41.36128594146493" lon="14.357041400757256"><ele>276.6666666666667</ele><time>2026-04-04T07:35:31Z</time></trkpt><trkpt lat="41.36139259163749" lon="14.3568867285003"><ele>281.3333333333333</ele><time>2026-04-04T07:35:32Z</time></trkpt><trkpt lat="41.36150489142396" lon="14.35675314274196"><ele>286.0</ele><time>2026-04-04T07:35:33Z</time></trkpt><trkpt lat="41.361588641079344" lon="14.356587869121793"><ele>286.0</ele><time>2026-04-04T07:35:34Z</time></trkpt><trkpt lat="41.36167277744497" lon="14.356426592723162"><ele>286.0</ele><time>2026-04-04T07:35:35Z</time></trkpt><trkpt lat="41.3617724373768" lon="14.35628595579745"><ele>286.0</ele><time>2026-04-04T07:35:36Z</time></trkpt><trkpt lat="41.36191255801963" lon="14.356195591205015"><ele>286.0</ele><time>2026-04-04T07:35:37Z</time></trkpt><trkpt lat="41.36205560616338" lon="14.35609441359415"><ele>290.0</ele><time>2026-04-04T07:35:38Z</time></trkpt><trkpt lat="41.36218445250253" lon="14.355965245682857"><ele>294.0</ele><time>2026-04-04T07:35:39Z</time></trkpt><trkpt lat="41.36231960349177" lon="14.355850486849057"><ele>298.0</ele><time>2026-04-04T07:35:40Z</time></trkpt><trkpt lat="41.36246253951555" lon="14.355782681042902"><ele>298.0</ele><time>2026-04-04T07:35:41Z</time></trkpt><trkpt lat="41.36257244144166" lon="14.355702426528257"><ele>298.0</ele><time>2026-04-04T07:35:42Z</time></trkpt><trkpt lat="41.362662768236476" lon="14.355646357419849"><ele>298.0</ele><time>2026-04-04T07:35:43Z</time></trkpt><trkpt lat="41.36274131382948" lon="14.355600196188158"><ele>298.0</ele><time>2026-04-04T07:35:44Z</time></trkpt><trkpt lat="41.36284742478965" lon="14.355620963863414"><ele>298.0</ele><time>2026-04-04T07:35:46Z</time></trkpt><trkpt lat="41.362894644040225" lon="14.355739312025191"><ele>298.0</ele><time>2026-04-04T07:35:48Z</time></trkpt><trkpt lat="41.36291363875823" lon="14.355871634766732"><ele>298.0</ele><time>2026-04-04T07:35:50Z</time></trkpt><trkpt lat="41.36294644922567" lon="14.356004896507732"><ele>298.0</ele><time>2026-04-04T07:35:52Z</time></trkpt><trkpt lat="41.362971981742945" lon="14.35615778544611"><ele>298.0</ele><time>2026-04-04T07:35:54Z</time></trkpt><trkpt lat="41.36295718873594" lon="14.35627825086072"><ele>298.0</ele><time>2026-04-04T07:35:55Z</time></trkpt><trkpt lat="41.36288070786532" lon="14.356390922056196"><ele>295.0</ele><time>2026-04-04T07:35:56Z</time></trkpt><trkpt lat="41.362787858311385" lon="14.356559036292014"><ele>292.0</ele><time>2026-04-04T07:35:57Z</time></trkpt><trkpt lat="41.362656542923574" lon="14.356732705253583"><ele>289.0</ele><time>2026-04-04T07:35:58Z</time></trkpt><trkpt lat="41.36252443533854" lon="14.356924891847768"><ele>289.0</ele><time>2026-04-04T07:35:59Z</time></trkpt><trkpt lat="41.3624092377508" lon="14.357121719656742"><ele>289.0</ele><time>2026-04-04T07:36:00Z</time></trkpt><trkpt lat="41.36233993576829" lon="14.357289492362376"><ele>289.0</ele><time>2026-04-04T07:36:01Z</time></trkpt><trkpt lat="41.362225563233295" lon="14.357474788822177"><ele>286.66666666666663</ele><time>2026-04-04T07:36:02Z</time></trkpt><trkpt lat="41.362172167241646" lon="14.35766049365458"><ele>284.3333333333333</ele><time>2026-04-04T07:36:03Z</time></trkpt><trkpt lat="41.362141333663494" lon="14.35790891305267"><ele>282.0</ele><time>2026-04-04T07:36:04Z</time></trkpt><trkpt lat="41.362100479823845" lon="14.358144344854999"><ele>282.0</ele><time>2026-04-04T07:36:05Z</time></trkpt><trkpt lat="41.361995125188365" lon="14.35834302253185"><ele>282.0</ele><time>2026-04-04T07:36:06Z</time></trkpt><trkpt lat="41.36188193826078" lon="14.358581198679257"><ele>282.0</ele><time>2026-04-04T07:36:07Z</time></trkpt><trkpt lat="41.36175929628451" lon="14.358824095408671"><ele>291.3333333333333</ele><time>2026-04-04T07:36:08Z</time></trkpt><trkpt lat="41.361659528414904" lon="14.359046751543785"><ele>300.66666666666663</ele><time>2026-04-04T07:36:09Z</time></trkpt><trkpt lat="41.3615815687431" lon="14.359281906272404"><ele>310.0</ele><time>2026-04-04T07:36:10Z</time></trkpt><trkpt lat="41.361512881780065" lon="14.359557938419016"><ele>318.0</ele><time>2026-04-04T07:36:11Z</time></trkpt><trkpt lat="41.36144178077643" lon="14.35986264404984"><ele>326.0</ele><time>2026-04-04T07:36:12Z</time></trkpt><trkpt lat="41.3613732627804" lon="14.360160377724013"><ele>307.0</ele><time>2026-04-04T07:36:13Z</time></trkpt><trkpt lat="41.36131553974965" lon="14.360456184225841"><ele>288.0</ele><time>2026-04-04T07:36:14Z</time></trkpt><trkpt lat="41.36127393068809" lon="14.360777646514034"><ele>288.0</ele><time>2026-04-04T07:36:15Z</time></trkpt><trkpt lat="41.36124270293585" lon="14.361126709316027"><ele>288.0</ele><time>2026-04-04T07:36:16Z</time></trkpt><trkpt lat="41.361223441664215" lon="14.361431618014661"><ele>292.25</ele><time>2026-04-04T07:36:17Z</time></trkpt><trkpt lat="41.36120581100507" lon="14.361667620674385"><ele>296.5</ele><time>2026-04-04T07:36:18Z</time></trkpt><trkpt lat="41.36116952425602" lon="14.36180927327857"><ele>300.75</ele><time>2026-04-04T07:36:19Z</time></trkpt><trkpt lat="41.36109745372912" lon="14.361912253578216"><ele>305.0</ele><time>2026-04-04T07:36:20Z</time></trkpt><trkpt lat="41.3610108127414" lon="14.362070535824028"><ele>310.0</ele><time>2026-04-04T07:36:21Z</time></trkpt><trkpt lat="41.360928506942265" lon="14.362256046766202"><ele>315.0</ele><time>2026-04-04T07:36:22Z</time></trkpt><trkpt lat="41.36087381141141" lon="14.362469114960406"><ele>320.0</ele><time>2026-04-04T07:36:23Z</time></trkpt><trkpt lat="41.36083937479922" lon="14.362749309180359"><ele>320.0</ele><time>2026-04-04T07:36:24Z</time></trkpt><trkpt lat="41.36082311523317" lon="14.362999568657996"><ele>320.0</ele><time>2026-04-04T07:36:25Z</time></trkpt><trkpt lat="41.36078716633155" lon="14.363304349434383"><ele>320.0</ele><time>2026-04-04T07:36:26Z</time></trkpt><trkpt lat="41.36077493052646" lon="14.36363846606877"><ele>328.5</ele><time>2026-04-04T07:36:27Z</time></trkpt><trkpt lat="41.36076495214414" lon="14.363971980314558"><ele>337.0</ele><time>2026-04-04T07:36:28Z</time></trkpt><trkpt lat="41.36074952080903" lon="14.364278841886852"><ele>337.0</ele><time>2026-04-04T07:36:29Z</time></trkpt><trkpt lat="41.360731848963944" lon="14.364529177648926"><ele>337.0</ele><time>2026-04-04T07:36:30Z</time></trkpt><trkpt lat="41.36071957400333" lon="14.364787017755168"><ele>337.0</ele><time>2026-04-04T07:36:31Z</time></trkpt><trkpt lat="41.36071611116029" lon="14.364986759946067"><ele>338.0</ele><time>2026-04-04T07:36:32Z</time></trkpt><trkpt lat="41.360741279941585" lon="14.365210358313966"><ele>339.0</ele><time>2026-04-04T07:36:33Z</time></trkpt><trkpt lat="41.3607897633101" lon="14.365472591389773"><ele>340.0</ele><time>2026-04-04T07:36:34Z</time></trkpt><trkpt lat="41.360839153409295" lon="14.365747635775122"><ele>338.0</ele><time>2026-04-04T07:36:35Z</time></trkpt><trkpt lat="41.36088047772637" lon="14.365981908286253"><ele>336.0</ele><time>2026-04-04T07:36:36Z</time></trkpt><trkpt lat="41.360921185435515" lon="14.36618010684833"><ele>334.0</ele><time>2026-04-04T07:36:37Z</time></trkpt><trkpt lat="41.36096680361553" lon="14.366363264797416"><ele>331.0</ele><time>2026-04-04T07:36:38Z</time></trkpt><trkpt lat="41.36102362063857" lon="14.366532472466295"><ele>328.0</ele><time>2026-04-04T07:36:39Z</time></trkpt><trkpt lat="41.36108314248392" lon="14.366696817381184"><ele>325.0</ele><time>2026-04-04T07:36:40Z</time></trkpt><trkpt lat="41.36114571297054" lon="14.366830134503152"><ele>322.0</ele><time>2026-04-04T07:36:41Z</time></trkpt><trkpt lat="41.36123314716572" lon="14.36693706236722"><ele>322.0</ele><time>2026-04-04T07:36:42Z</time></trkpt><trkpt lat="41.36130731605761" lon="14.367039024324262"><ele>322.0</ele><time>2026-04-04T07:36:43Z</time></trkpt><trkpt lat="41.3613308076422" lon="14.36716642962841"><ele>322.0</ele><time>2026-04-04T07:36:44Z</time></trkpt><trkpt lat="41.361291781065994" lon="14.367329705588187"><ele>322.0</ele><time>2026-04-04T07:36:45Z</time></trkpt><trkpt lat="41.36122015931477" lon="14.367519114732834"><ele>323.3333333333333</ele><time>2026-04-04T07:36:46Z</time></trkpt><trkpt lat="41.36109890329387" lon="14.367712323918386"><ele>324.6666666666667</ele><time>2026-04-04T07:36:47Z</time></trkpt><trkpt lat="41.36100197265035" lon="14.36789795688422"><ele>326.0</ele><time>2026-04-04T07:36:48Z</time></trkpt><trkpt lat="41.36091204746728" lon="14.368037651727946"><ele>330.75</ele><time>2026-04-04T07:36:49Z</time></trkpt><trkpt lat="41.36086425545845" lon="14.368184796318724"><ele>335.5</ele><time>2026-04-04T07:36:50Z</time></trkpt><trkpt lat="41.36084334035356" lon="14.36838349499225"><ele>340.25</ele><time>2026-04-04T07:36:51Z</time></trkpt><trkpt lat="41.36081775670789" lon="14.368607223617982"><ele>345.0</ele><time>2026-04-04T07:36:52Z</time></trkpt><trkpt lat="41.36078336380734" lon="14.368820733285034"><ele>347.25</ele><time>2026-04-04T07:36:53Z</time></trkpt><trkpt lat="41.36075995307738" lon="14.369002231489265"><ele>349.5</ele><time>2026-04-04T07:36:54Z</time></trkpt><trkpt lat="41.360770464677216" lon="14.369180460095947"><ele>351.75</ele><time>2026-04-04T07:36:55Z</time></trkpt><trkpt lat="41.36080587564624" lon="14.369352589662114"><ele>354.0</ele><time>2026-04-04T07:36:56Z</time></trkpt><trkpt lat="41.36083625237255" lon="14.369507252297662"><ele>354.0</ele><time>2026-04-04T07:36:57Z</time></trkpt><trkpt lat="41.360840511823696" lon="14.369648182692481"><ele>354.0</ele><time>2026-04-04T07:36:58Z</time></trkpt><trkpt lat="41.3607839944676" lon="14.369792139500257"><ele>354.0</ele><time>2026-04-04T07:36:59Z</time></trkpt><trkpt lat="41.36074999707874" lon="14.369992687081142"><ele>354.0</ele><time>2026-04-04T07:37:00Z</time></trkpt><trkpt lat="41.36073041117238" lon="14.3702283862574"><ele>355.6666666666667</ele><time>2026-04-04T07:37:01Z</time></trkpt><trkpt lat="41.36074127599135" lon="14.37050997338549"><ele>357.33333333333337</ele><time>2026-04-04T07:37:02Z</time></trkpt><trkpt lat="41.36078268322085" lon="14.370792090277613"><ele>359.0</ele><time>2026-04-04T07:37:03Z</time></trkpt><trkpt lat="41.36083103206578" lon="14.371044823644894"><ele>359.0</ele><time>2026-04-04T07:37:04Z</time></trkpt><trkpt lat="41.360862349599635" lon="14.37120096602432"><ele>359.0</ele><time>2026-04-04T07:37:05Z</time></trkpt><trkpt lat="41.36087319875079" lon="14.371287283916796"><ele>359.0</ele><time>2026-04-04T07:37:06Z</time></trkpt><trkpt lat="41.360880986317866" lon="14.371385416731378"><ele>359.0</ele><time>2026-04-04T07:37:07Z</time></trkpt><trkpt lat="41.360889919315596" lon="14.371474778487977"><ele>359.0</ele><time>2026-04-04T07:37:08Z</time></trkpt><trkpt lat="41.36091310999592" lon="14.371655317414454"><ele>358.2</ele><time>2026-04-04T07:37:10Z</time></trkpt><trkpt lat="41.36094301610988" lon="14.371760640938751"><ele>357.4</ele><time>2026-04-04T07:37:11Z</time></trkpt><trkpt lat="41.36098656924054" lon="14.371876645496677"><ele>356.6</ele><time>2026-04-04T07:37:12Z</time></trkpt><trkpt lat="41.361037016094805" lon="14.372014948854503"><ele>355.8</ele><time>2026-04-04T07:37:13Z</time></trkpt><trkpt lat="41.361072459701894" lon="14.372143572892123"><ele>355.0</ele><time>2026-04-04T07:37:14Z</time></trkpt><trkpt lat="41.36109698936067" lon="14.372239993994068"><ele>352.6</ele><time>2026-04-04T07:37:15Z</time></trkpt><trkpt lat="41.36115136668007" lon="14.372359947972257"><ele>350.2</ele><time>2026-04-04T07:37:17Z</time></trkpt><trkpt lat="41.36121514908302" lon="14.372525225525118"><ele>347.79999999999995</ele><time>2026-04-04T07:37:19Z</time></trkpt><trkpt lat="41.361251331997956" lon="14.372652346292643"><ele>345.4</ele><time>2026-04-04T07:37:20Z</time></trkpt><trkpt lat="41.361276905676654" lon="14.372769295341827"><ele>343.0</ele><time>2026-04-04T07:37:21Z</time></trkpt><trkpt lat="41.36130106942037" lon="14.372857487193803"><ele>343.0</ele><time>2026-04-04T07:37:22Z</time></trkpt><trkpt lat="41.36133905567422" lon="14.372953940066605"><ele>343.0</ele><time>2026-04-04T07:37:23Z</time></trkpt><trkpt lat="41.36137073353668" lon="14.373086786453793"><ele>343.0</ele><time>2026-04-04T07:37:24Z</time></trkpt><trkpt lat="41.36142353063656" lon="14.373244389773024"><ele>343.0</ele><time>2026-04-04T07:37:25Z</time></trkpt><trkpt lat="41.361496559298914" lon="14.373405478545921"><ele>350.0</ele><time>2026-04-04T07:37:26Z</time></trkpt><trkpt lat="41.36155819699944" lon="14.373590654284838"><ele>357.0</ele><time>2026-04-04T07:37:27Z</time></trkpt><trkpt lat="41.361611538156744" lon="14.373756794307894"><ele>364.0</ele><time>2026-04-04T07:37:28Z</time></trkpt><trkpt lat="41.361690422674506" lon="14.37396672808869"><ele>364.0</ele><time>2026-04-04T07:37:29Z</time></trkpt><trkpt lat="41.361766206724944" lon="14.374160253518905"><ele>364.0</ele><time>2026-04-04T07:37:30Z</time></trkpt><trkpt lat="41.361847323312816" lon="14.374335884856132"><ele>364.0</ele><time>2026-04-04T07:37:31Z</time></trkpt><trkpt lat="41.36191533024507" lon="14.374471072250463"><ele>364.0</ele><time>2026-04-04T07:37:32Z</time></trkpt><trkpt lat="41.36198025796571" lon="14.374569248016556"><ele>364.0</ele><time>2026-04-04T07:37:33Z</time></trkpt><trkpt lat="41.36205808354801" lon="14.374641818234982"><ele>364.0</ele><time>2026-04-04T07:37:34Z</time></trkpt><trkpt lat="41.3621573678282" lon="14.37469241256924"><ele>364.0</ele><time>2026-04-04T07:37:35Z</time></trkpt><trkpt lat="41.36226597995868" lon="14.374696597399753"><ele>364.0</ele><time>2026-04-04T07:37:36Z</time></trkpt><trkpt lat="41.36237014470254" lon="14.3746439049366"><ele>364.0</ele><time>2026-04-04T07:37:37Z</time></trkpt><trkpt lat="41.36247517208928" lon="14.374605381033215"><ele>366.6</ele><time>2026-04-04T07:37:38Z</time></trkpt><trkpt lat="41.36259281163797" lon="14.374591022245713"><ele>369.2</ele><time>2026-04-04T07:37:39Z</time></trkpt><trkpt lat="41.3626865829534" lon="14.374585893319924"><ele>371.8</ele><time>2026-04-04T07:37:40Z</time></trkpt><trkpt lat="41.362763257770375" lon="14.374598290027327"><ele>374.40000000000003</ele><time>2026-04-04T07:37:41Z</time></trkpt><trkpt lat="41.36284131396589" lon="14.37465060933602"><ele>377.0</ele><time>2026-04-04T07:37:42Z</time></trkpt><trkpt lat="41.362897943973415" lon="14.374752294435307"><ele>377.0</ele><time>2026-04-04T07:37:43Z</time></trkpt><trkpt lat="41.362959708508804" lon="14.374849525256336"><ele>377.0</ele><time>2026-04-04T07:37:44Z</time></trkpt><trkpt lat="41.363024240966496" lon="14.37494621188082"><ele>377.0</ele><time>2026-04-04T07:37:45Z</time></trkpt><trkpt lat="41.36308451884145" lon="14.375043543216737"><ele>377.0</ele><time>2026-04-04T07:37:46Z</time></trkpt><trkpt lat="41.363131715340494" lon="14.375108997912092"><ele>377.0</ele><time>2026-04-04T07:37:47Z</time></trkpt><trkpt lat="41.363187074951895" lon="14.375167491927906"><ele>377.0</ele><time>2026-04-04T07:37:48Z</time></trkpt><trkpt lat="41.363248554728095" lon="14.375189043804403"><ele>381.83333333333337</ele><time>2026-04-04T07:37:49Z</time></trkpt><trkpt lat="41.363329433146" lon="14.375185698011105"><ele>386.6666666666667</ele><time>2026-04-04T07:37:50Z</time></trkpt><trkpt lat="41.36340876180237" lon="14.375162670098204"><ele>391.5</ele><time>2026-04-04T07:37:51Z</time></trkpt><trkpt lat="41.363481058031056" lon="14.37511324520508"><ele>396.33333333333337</ele><time>2026-04-04T07:37:52Z</time></trkpt><trkpt lat="41.36355289893127" lon="14.375044082690298"><ele>401.1666666666667</ele><time>2026-04-04T07:37:53Z</time></trkpt><trkpt lat="41.363622085568224" lon="14.374974166074932"><ele>406.0</ele><time>2026-04-04T07:37:54Z</time></trkpt><trkpt lat="41.363699764257035" lon="14.37490689002093"><ele>406.0</ele><time>2026-04-04T07:37:55Z</time></trkpt><trkpt lat="41.36376322831436" lon="14.374825461148303"><ele>406.0</ele><time>2026-04-04T07:37:56Z</time></trkpt><trkpt lat="41.363836876794856" lon="14.3747430111186"><ele>406.0</ele><time>2026-04-04T07:37:57Z</time></trkpt><trkpt lat="41.363922275869335" lon="14.374676697761009"><ele>406.0</ele><time>2026-04-04T07:37:58Z</time></trkpt><trkpt lat="41.3640115680628" lon="14.374618004990351"><ele>406.0</ele><time>2026-04-04T07:37:59Z</time></trkpt><trkpt lat="41.36410333896044" lon="14.374554713406997"><ele>402.6</ele><time>2026-04-04T07:38:00Z</time></trkpt><trkpt lat="41.364179517620414" lon="14.374471107981215"><ele>399.20000000000005</ele><time>2026-04-04T07:38:01Z</time></trkpt><trkpt lat="41.364224867782504" lon="14.374357783647534"><ele>395.79999999999995</ele><time>2026-04-04T07:38:02Z</time></trkpt><trkpt lat="41.36428606813298" lon="14.374274331030524"><ele>392.4</ele><time>2026-04-04T07:38:03Z</time></trkpt><trkpt lat="41.36433615340002" lon="14.374223380695561"><ele>389.0</ele><time>2026-04-04T07:38:04Z</time></trkpt><trkpt lat="41.364389023576116" lon="14.374076447074469"><ele>389.0</ele><time>2026-04-04T07:38:06Z</time></trkpt><trkpt lat="41.364380081919315" lon="14.373966029394868"><ele>389.0</ele><time>2026-04-04T07:38:07Z</time></trkpt><trkpt lat="41.36437503942491" lon="14.37386072454561"><ele>389.0</ele><time>2026-04-04T07:38:08Z</time></trkpt><trkpt lat="41.364442758497546" lon="14.373777550044103"><ele>389.0</ele><time>2026-04-04T07:38:09Z</time></trkpt><trkpt lat="41.36447397815323" lon="14.373655444355432"><ele>389.0</ele><time>2026-04-04T07:38:10Z</time></trkpt><trkpt lat="41.3644568370096" lon="14.373506608935271"><ele>404.5</ele><time>2026-04-04T07:38:11Z</time></trkpt><trkpt lat="41.364484578837036" lon="14.3733640252465"><ele>420.0</ele><time>2026-04-04T07:38:12Z</time></trkpt><trkpt lat="41.364515756044845" lon="14.373215921768008"><ele>435.5</ele><time>2026-04-04T07:38:13Z</time></trkpt><trkpt lat="41.36456667416523" lon="14.373076565001307"><ele>451.0</ele><time>2026-04-04T07:38:14Z</time></trkpt><trkpt lat="41.36464662307495" lon="14.372944089756542"><ele>442.75</ele><time>2026-04-04T07:38:15Z</time></trkpt><trkpt lat="41.364714057194995" lon="14.372793566352808"><ele>434.5</ele><time>2026-04-04T07:38:16Z</time></trkpt><trkpt lat="41.364779687181425" lon="14.372629102097047"><ele>426.25</ele><time>2026-04-04T07:38:17Z</time></trkpt><trkpt lat="41.36488096708292" lon="14.3725529492794"><ele>418.0</ele><time>2026-04-04T07:38:18Z</time></trkpt><trkpt lat="41.36494507044163" lon="14.372384387308438"><ele>418.0</ele><time>2026-04-04T07:38:19Z</time></trkpt><trkpt lat="41.36501417926128" lon="14.372242592874807"><ele>418.0</ele><time>2026-04-04T07:38:20Z</time></trkpt><trkpt lat="41.365118356534545" lon="14.372125447791342"><ele>418.0</ele><time>2026-04-04T07:38:21Z</time></trkpt><trkpt lat="41.365227986975235" lon="14.372000519678124"><ele>418.0</ele><time>2026-04-04T07:38:22Z</time></trkpt><trkpt lat="41.365326611779395" lon="14.371886828387778"><ele>410.25</ele><time>2026-04-04T07:38:23Z</time></trkpt><trkpt lat="41.365409456747265" lon="14.371798850913947"><ele>402.5</ele><time>2026-04-04T07:38:24Z</time></trkpt><trkpt lat="41.36546448904932" lon="14.371692409015434"><ele>394.75</ele><time>2026-04-04T07:38:25Z</time></trkpt><trkpt lat="41.36551493505663" lon="14.371538832807582"><ele>387.0</ele><time>2026-04-04T07:38:26Z</time></trkpt><trkpt lat="41.36559570152879" lon="14.371362938795667"><ele>399.0</ele><time>2026-04-04T07:38:27Z</time></trkpt><trkpt lat="41.36568065063433" lon="14.371149879306296"><ele>411.0</ele><time>2026-04-04T07:38:28Z</time></trkpt><trkpt lat="41.365757084217186" lon="14.370958849660468"><ele>423.0</ele><time>2026-04-04T07:38:29Z</time></trkpt><trkpt lat="41.36584281681949" lon="14.370813950294844"><ele>423.0</ele><time>2026-04-04T07:38:30Z</time></trkpt><trkpt lat="41.365947278656414" lon="14.370675769602661"><ele>423.0</ele><time>2026-04-04T07:38:31Z</time></trkpt><trkpt lat="41.366070052610134" lon="14.370568390015784"><ele>423.0</ele><time>2026-04-04T07:38:32Z</time></trkpt><trkpt lat="41.36622628462199" lon="14.370483135237246"><ele>424.66666666666663</ele><time>2026-04-04T07:38:33Z</time></trkpt><trkpt lat="41.36639016211753" lon="14.37037277512377"><ele>426.3333333333333</ele><time>2026-04-04T07:38:34Z</time></trkpt><trkpt lat="41.3665372038211" lon="14.370280883135585"><ele>428.0</ele><time>2026-04-04T07:38:35Z</time></trkpt><trkpt lat="41.366654595924125" lon="14.37018197228736"><ele>428.0</ele><time>2026-04-04T07:38:36Z</time></trkpt><trkpt lat="41.36674888568094" lon="14.3700584033093"><ele>428.0</ele><time>2026-04-04T07:38:37Z</time></trkpt><trkpt lat="41.3668436742944" lon="14.369912059759285"><ele>428.0</ele><time>2026-04-04T07:38:38Z</time></trkpt><trkpt lat="41.366946882809614" lon="14.369744357036593"><ele>428.0</ele><time>2026-04-04T07:38:39Z</time></trkpt><trkpt lat="41.367065070640386" lon="14.369569043150694"><ele>429.3333333333333</ele><time>2026-04-04T07:38:40Z</time></trkpt><trkpt lat="41.36717775042144" lon="14.36939168362002"><ele>430.66666666666663</ele><time>2026-04-04T07:38:41Z</time></trkpt><trkpt lat="41.36728829063644" lon="14.369194757075563"><ele>432.0</ele><time>2026-04-04T07:38:42Z</time></trkpt><trkpt lat="41.36741415882815" lon="14.368999927991148"><ele>442.0</ele><time>2026-04-04T07:38:43Z</time></trkpt><trkpt lat="41.36755207074712" lon="14.368818715454312"><ele>452.0</ele><time>2026-04-04T07:38:44Z</time></trkpt><trkpt lat="41.367667017118585" lon="14.368648339151658"><ele>462.0</ele><time>2026-04-04T07:38:45Z</time></trkpt><trkpt lat="41.36776761706825" lon="14.368506284385196"><ele>462.0</ele><time>2026-04-04T07:38:46Z</time></trkpt><trkpt lat="41.36786693186759" lon="14.368399047992215"><ele>462.00000000000006</ele><time>2026-04-04T07:38:47Z</time></trkpt><trkpt lat="41.3679317089662" lon="14.368329715095774"><ele>462.00000000000006</ele><time>2026-04-04T07:38:48Z</time></trkpt><trkpt lat="41.36803118633821" lon="14.36828420720785"><ele>462.0</ele><time>2026-04-04T07:38:50Z</time></trkpt><trkpt lat="41.36813998001287" lon="14.368379072766393"><ele>462.0</ele><time>2026-04-04T07:38:52Z</time></trkpt><trkpt lat="41.36818278877222" lon="14.368468441707526"><ele>456.25</ele><time>2026-04-04T07:38:53Z</time></trkpt><trkpt lat="41.36818658198047" lon="14.368575233897063"><ele>450.5</ele><time>2026-04-04T07:38:54Z</time></trkpt><trkpt lat="41.36811280405337" lon="14.368689110801268"><ele>444.75</ele><time>2026-04-04T07:38:55Z</time></trkpt><trkpt lat="41.36802953799766" lon="14.368830412450599"><ele>439.0</ele><time>2026-04-04T07:38:56Z</time></trkpt><trkpt lat="41.367933916252845" lon="14.368976317952711"><ele>436.6666666666667</ele><time>2026-04-04T07:38:57Z</time></trkpt><trkpt lat="41.367851421027595" lon="14.369165353878328"><ele>434.33333333333337</ele><time>2026-04-04T07:38:58Z</time></trkpt><trkpt lat="41.367772218701525" lon="14.369355315380208"><ele>432.0</ele><time>2026-04-04T07:38:59Z</time></trkpt><trkpt lat="41.367694453009406" lon="14.36953871464473"><ele>431.75</ele><time>2026-04-04T07:39:00Z</time></trkpt><trkpt lat="41.36763192306057" lon="14.369732108687934"><ele>431.5</ele><time>2026-04-04T07:39:01Z</time></trkpt><trkpt lat="41.36758949453785" lon="14.369905406657903"><ele>431.25</ele><time>2026-04-04T07:39:02Z</time></trkpt><trkpt lat="41.36749840608795" lon="14.37004456050384"><ele>431.0</ele><time>2026-04-04T07:39:03Z</time></trkpt><trkpt lat="41.367399920641525" lon="14.370208419863893"><ele>431.0</ele><time>2026-04-04T07:39:04Z</time></trkpt><trkpt lat="41.367297181637106" lon="14.370398084866602"><ele>431.0</ele><time>2026-04-04T07:39:05Z</time></trkpt><trkpt lat="41.36719033528366" lon="14.37057527782538"><ele>431.0</ele><time>2026-04-04T07:39:06Z</time></trkpt><trkpt lat="41.36710969543825" lon="14.370755910969747"><ele>427.6</ele><time>2026-04-04T07:39:07Z</time></trkpt><trkpt lat="41.36706795188555" lon="14.370919823413221"><ele>424.20000000000005</ele><time>2026-04-04T07:39:08Z</time></trkpt><trkpt lat="41.36699587678487" lon="14.371027351055943"><ele>420.79999999999995</ele><time>2026-04-04T07:39:09Z</time></trkpt><trkpt lat="41.36691811168291" lon="14.371096066941545"><ele>417.4</ele><time>2026-04-04T07:39:10Z</time></trkpt><trkpt lat="41.366830885387834" lon="14.371142414202223"><ele>414.0</ele><time>2026-04-04T07:39:11Z</time></trkpt><trkpt lat="41.36676278981005" lon="14.371231062026297"><ele>414.0</ele><time>2026-04-04T07:39:12Z</time></trkpt><trkpt lat="41.36671199522757" lon="14.371351171220551"><ele>414.0</ele><time>2026-04-04T07:39:13Z</time></trkpt><trkpt lat="41.36669906266291" lon="14.371489968822713"><ele>414.0</ele><time>2026-04-04T07:39:14Z</time></trkpt><trkpt lat="41.366723771965404" lon="14.371669810953513"><ele>414.0</ele><time>2026-04-04T07:39:15Z</time></trkpt><trkpt lat="41.36677277279831" lon="14.371840462417175"><ele>417.5</ele><time>2026-04-04T07:39:16Z</time></trkpt><trkpt lat="41.36681784680079" lon="14.372012051250994"><ele>421.0</ele><time>2026-04-04T07:39:17Z</time></trkpt><trkpt lat="41.36681714363215" lon="14.372166774329015"><ele>424.5</ele><time>2026-04-04T07:39:18Z</time></trkpt><trkpt lat="41.366774385043996" lon="14.372302995021574"><ele>428.0</ele><time>2026-04-04T07:39:19Z</time></trkpt><trkpt lat="41.36674784961314" lon="14.372468265789195"><ele>430.5</ele><time>2026-04-04T07:39:20Z</time></trkpt><trkpt lat="41.3667271449846" lon="14.372629362255452"><ele>433.0</ele><time>2026-04-04T07:39:21Z</time></trkpt><trkpt lat="41.366742861200834" lon="14.372789663775917"><ele>435.5</ele><time>2026-04-04T07:39:22Z</time></trkpt><trkpt lat="41.36673770775058" lon="14.372928398358148"><ele>438.0</ele><time>2026-04-04T07:39:23Z</time></trkpt><trkpt lat="41.366668332884714" lon="14.373045496060467"><ele>440.0</ele><time>2026-04-04T07:39:24Z</time></trkpt><trkpt lat="41.36659810278806" lon="14.373185449078022"><ele>442.0</ele><time>2026-04-04T07:39:25Z</time></trkpt><trkpt lat="41.366533003187335" lon="14.373317191566"><ele>444.0</ele><time>2026-04-04T07:39:26Z</time></trkpt><trkpt lat="41.366515804516986" lon="14.373451226381578"><ele>446.0</ele><time>2026-04-04T07:39:27Z</time></trkpt><trkpt lat="41.36655001141039" lon="14.373593699979947"><ele>446.0</ele><time>2026-04-04T07:39:28Z</time></trkpt><trkpt lat="41.36661405592483" lon="14.37374316597412"><ele>446.0</ele><time>2026-04-04T07:39:29Z</time></trkpt><trkpt lat="41.366692099619854" lon="14.373876815994691"><ele>446.0</ele><time>2026-04-04T07:39:30Z</time></trkpt><trkpt lat="41.36679060004089" lon="14.37398907502725"><ele>446.0</ele><time>2026-04-04T07:39:31Z</time></trkpt><trkpt lat="41.36690210339083" lon="14.37409413151073"><ele>445.0</ele><time>2026-04-04T07:39:32Z</time></trkpt><trkpt lat="41.367013563100336" lon="14.374209758052352"><ele>444.0</ele><time>2026-04-04T07:39:33Z</time></trkpt><trkpt lat="41.36711796764402" lon="14.37433936502918"><ele>443.0</ele><time>2026-04-04T07:39:34Z</time></trkpt><trkpt lat="41.367219906149884" lon="14.374476447689043"><ele>442.0</ele><time>2026-04-04T07:39:35Z</time></trkpt><trkpt lat="41.36731565492105" lon="14.374608123406555"><ele>445.0</ele><time>2026-04-04T07:39:36Z</time></trkpt><trkpt lat="41.36739487236856" lon="14.374720321275754"><ele>448.00000000000006</ele><time>2026-04-04T07:39:37Z</time></trkpt><trkpt lat="41.367459365965466" lon="14.374821190171927"><ele>451.00000000000006</ele><time>2026-04-04T07:39:38Z</time></trkpt><trkpt lat="41.36750767876066" lon="14.374922615326946"><ele>454.0</ele><time>2026-04-04T07:39:39Z</time></trkpt><trkpt lat="41.367518345483234" lon="14.375035422015667"><ele>457.0</ele><time>2026-04-04T07:39:40Z</time></trkpt><trkpt lat="41.367502213085544" lon="14.375157605391685"><ele>457.0</ele><time>2026-04-04T07:39:41Z</time></trkpt><trkpt lat="41.36745706747031" lon="14.375270878172783"><ele>457.00000000000006</ele><time>2026-04-04T07:39:42Z</time></trkpt><trkpt lat="41.36738780770165" lon="14.37536895591372"><ele>457.00000000000006</ele><time>2026-04-04T07:39:43Z</time></trkpt><trkpt lat="41.367307633810306" lon="14.375450884156376"><ele>457.0</ele><time>2026-04-04T07:39:44Z</time></trkpt><trkpt lat="41.3672416031072" lon="14.375520409636055"><ele>457.0</ele><time>2026-04-04T07:39:45Z</time></trkpt><trkpt lat="41.36722433433406" lon="14.375612519025733"><ele>457.83333333333337</ele><time>2026-04-04T07:39:50Z</time></trkpt><trkpt lat="41.36725630500068" lon="14.375697093714326"><ele>458.6666666666667</ele><time>2026-04-04T07:40:01Z</time></trkpt><trkpt lat="41.367315970004576" lon="14.375751386593363"><ele>459.5</ele><time>2026-04-04T07:40:02Z</time></trkpt><trkpt lat="41.36738437368394" lon="14.375819965115864"><ele>460.33333333333337</ele><time>2026-04-04T07:40:03Z</time></trkpt><trkpt lat="41.36744941490863" lon="14.375912290351007"><ele>461.1666666666667</ele><time>2026-04-04T07:40:04Z</time></trkpt><trkpt lat="41.367524571919134" lon="14.376006290020188"><ele>462.0</ele><time>2026-04-04T07:40:05Z</time></trkpt><trkpt lat="41.367610714559014" lon="14.37611021553454"><ele>462.0</ele><time>2026-04-04T07:40:06Z</time></trkpt><trkpt lat="41.36770869314205" lon="14.376225106943581"><ele>462.0</ele><time>2026-04-04T07:40:07Z</time></trkpt><trkpt lat="41.367808894895454" lon="14.376346990471353"><ele>462.0</ele><time>2026-04-04T07:40:08Z</time></trkpt><trkpt lat="41.36789907195128" lon="14.376449324975049"><ele>462.0</ele><time>2026-04-04T07:40:09Z</time></trkpt><trkpt lat="41.36800166814481" lon="14.376563698071388"><ele>462.8</ele><time>2026-04-04T07:40:10Z</time></trkpt><trkpt lat="41.368106289508724" lon="14.376661168731982"><ele>463.6</ele><time>2026-04-04T07:40:11Z</time></trkpt><trkpt lat="41.368194925954704" lon="14.376736516550654"><ele>464.40000000000003</ele><time>2026-04-04T07:40:12Z</time></trkpt><trkpt lat="41.36827185775795" lon="14.376795847889605"><ele>465.20000000000005</ele><time>2026-04-04T07:40:13Z</time></trkpt><trkpt lat="41.368358460300634" lon="14.376836080335746"><ele>466.0</ele><time>2026-04-04T07:40:14Z</time></trkpt><trkpt lat="41.368452895351965" lon="14.376847018186952"><ele>466.0</ele><time>2026-04-04T07:40:15Z</time></trkpt><trkpt lat="41.368554965117404" lon="14.376830670449024"><ele>466.0</ele><time>2026-04-04T07:40:16Z</time></trkpt><trkpt lat="41.36867512400967" lon="14.376789775795748"><ele>466.0</ele><time>2026-04-04T07:40:17Z</time></trkpt><trkpt lat="41.36879969228249" lon="14.376738746578157"><ele>466.0</ele><time>2026-04-04T07:40:18Z</time></trkpt><trkpt lat="41.368939942053885" lon="14.376703084724783"><ele>467.0</ele><time>2026-04-04T07:40:19Z</time></trkpt><trkpt lat="41.36907123221301" lon="14.376664918298916"><ele>468.0</ele><time>2026-04-04T07:40:20Z</time></trkpt><trkpt lat="41.369168157263566" lon="14.376606716660225"><ele>469.0</ele><time>2026-04-04T07:40:21Z</time></trkpt><trkpt lat="41.36924989955203" lon="14.376516190262137"><ele>470.0</ele><time>2026-04-04T07:40:22Z</time></trkpt><trkpt lat="41.369317942444695" lon="14.376376443097785"><ele>470.0</ele><time>2026-04-04T07:40:23Z</time></trkpt><trkpt lat="41.36935709408774" lon="14.376203257225335"><ele>470.0</ele><time>2026-04-04T07:40:24Z</time></trkpt><trkpt lat="41.36936970879553" lon="14.376017660825351"><ele>470.0</ele><time>2026-04-04T07:40:25Z</time></trkpt><trkpt lat="41.369358881821526" lon="14.375827231217702"><ele>470.0</ele><time>2026-04-04T07:40:26Z</time></trkpt><trkpt lat="41.36932389214425" lon="14.375633548458936"><ele>472.66666666666663</ele><time>2026-04-04T07:40:27Z</time></trkpt><trkpt lat="41.369259289228" lon="14.375456332954077"><ele>475.33333333333337</ele><time>2026-04-04T07:40:28Z</time></trkpt><trkpt lat="41.36916889456878" lon="14.375282441221604"><ele>478.0</ele><time>2026-04-04T07:40:29Z</time></trkpt><trkpt lat="41.36909142537094" lon="14.375102400761987"><ele>478.0</ele><time>2026-04-04T07:40:30Z</time></trkpt><trkpt lat="41.368997200641864" lon="14.374924661104725"><ele>478.0</ele><time>2026-04-04T07:40:31Z</time></trkpt><trkpt lat="41.36895882518215" lon="14.374715395748604"><ele>478.0</ele><time>2026-04-04T07:40:32Z</time></trkpt><trkpt lat="41.368930252899446" lon="14.374505857298512"><ele>478.75</ele><time>2026-04-04T07:40:33Z</time></trkpt><trkpt lat="41.36891275500741" lon="14.374317694963029"><ele>479.5</ele><time>2026-04-04T07:40:34Z</time></trkpt><trkpt lat="41.368930192753325" lon="14.374153426321493"><ele>480.25</ele><time>2026-04-04T07:40:35Z</time></trkpt><trkpt lat="41.36897211898445" lon="14.373986000877844"><ele>481.0</ele><time>2026-04-04T07:40:36Z</time></trkpt><trkpt lat="41.36902608288053" lon="14.373792695724577"><ele>481.33333333333337</ele><time>2026-04-04T07:40:37Z</time></trkpt><trkpt lat="41.369087685966" lon="14.373573974714445"><ele>481.66666666666663</ele><time>2026-04-04T07:40:38Z</time></trkpt><trkpt lat="41.36913776153047" lon="14.373339227219965"><ele>482.0</ele><time>2026-04-04T07:40:39Z</time></trkpt><trkpt lat="41.369202454744126" lon="14.373100465364255"><ele>482.0</ele><time>2026-04-04T07:40:40Z</time></trkpt><trkpt lat="41.36925870110949" lon="14.372882504659806"><ele>482.0</ele><time>2026-04-04T07:40:41Z</time></trkpt><trkpt lat="41.369310584712586" lon="14.372705299013099"><ele>482.0</ele><time>2026-04-04T07:40:42Z</time></trkpt><trkpt lat="41.36935757335202" lon="14.37256765094428"><ele>482.0</ele><time>2026-04-04T07:40:43Z</time></trkpt><trkpt lat="41.36941685730801" lon="14.372477259885738"><ele>482.0</ele><time>2026-04-04T07:40:44Z</time></trkpt><trkpt lat="41.36950469019713" lon="14.372435910380494"><ele>482.00000000000006</ele><time>2026-04-04T07:40:45Z</time></trkpt><trkpt lat="41.36960921324363" lon="14.37244564336737"><ele>482.00000000000006</ele><time>2026-04-04T07:40:46Z</time></trkpt><trkpt lat="41.369700048974806" lon="14.372527169686668"><ele>482.0</ele><time>2026-04-04T07:40:47Z</time></trkpt><trkpt lat="41.36976525089411" lon="14.372670180393808"><ele>482.0</ele><time>2026-04-04T07:40:48Z</time></trkpt><trkpt lat="41.369785383152184" lon="14.372856096510754"><ele>486.66666666666663</ele><time>2026-04-04T07:40:49Z</time></trkpt><trkpt lat="41.36978709040284" lon="14.373072770060263"><ele>491.33333333333337</ele><time>2026-04-04T07:40:50Z</time></trkpt><trkpt lat="41.36979585925265" lon="14.373300933510787"><ele>496.0</ele><time>2026-04-04T07:40:51Z</time></trkpt><trkpt lat="41.36981625327265" lon="14.37355271773759"><ele>496.0</ele><time>2026-04-04T07:40:52Z</time></trkpt><trkpt lat="41.36983581783324" lon="14.373756247514262"><ele>496.0</ele><time>2026-04-04T07:40:53Z</time></trkpt><trkpt lat="41.369851397178415" lon="14.373971364479374"><ele>496.0</ele><time>2026-04-04T07:40:54Z</time></trkpt><trkpt lat="41.36986694159544" lon="14.374162437381385"><ele>495.5</ele><time>2026-04-04T07:40:55Z</time></trkpt><trkpt lat="41.369905292302114" lon="14.374316953693379"><ele>495.0</ele><time>2026-04-04T07:40:56Z</time></trkpt><trkpt lat="41.369984121439174" lon="14.374439717297927"><ele>494.5</ele><time>2026-04-04T07:40:57Z</time></trkpt><trkpt lat="41.37010953212618" lon="14.374559718321029"><ele>494.0</ele><time>2026-04-04T07:40:58Z</time></trkpt><trkpt lat="41.370256202034966" lon="14.374673579864144"><ele>496.0</ele><time>2026-04-04T07:40:59Z</time></trkpt><trkpt lat="41.37041773778837" lon="14.374786559750891"><ele>498.0</ele><time>2026-04-04T07:41:00Z</time></trkpt><trkpt lat="41.37057870803441" lon="14.37488628086204"><ele>500.0</ele><time>2026-04-04T07:41:01Z</time></trkpt><trkpt lat="41.370755765596364" lon="14.37497907203769"><ele>500.0</ele><time>2026-04-04T07:41:02Z</time></trkpt><trkpt lat="41.37092207949486" lon="14.375066715583662"><ele>500.0</ele><time>2026-04-04T07:41:03Z</time></trkpt><trkpt lat="41.37106471511086" lon="14.375117808427945"><ele>500.0</ele><time>2026-04-04T07:41:04Z</time></trkpt><trkpt lat="41.37119638868893" lon="14.375140447718925"><ele>500.0</ele><time>2026-04-04T07:41:05Z</time></trkpt><trkpt lat="41.371318947112705" lon="14.375174666169547"><ele>500.0</ele><time>2026-04-04T07:41:06Z</time></trkpt><trkpt lat="41.37142758297203" lon="14.375259166044454"><ele>500.0</ele><time>2026-04-04T07:41:07Z</time></trkpt><trkpt lat="41.37153456434677" lon="14.375398624227337"><ele>500.0</ele><time>2026-04-04T07:41:08Z</time></trkpt><trkpt lat="41.37165644951889" lon="14.375562580168346"><ele>501.0</ele><time>2026-04-04T07:41:09Z</time></trkpt><trkpt lat="41.371805121646496" lon="14.375697369339054"><ele>502.0</ele><time>2026-04-04T07:41:10Z</time></trkpt><trkpt lat="41.371957880593285" lon="14.375786742877768"><ele>503.0</ele><time>2026-04-04T07:41:11Z</time></trkpt><trkpt lat="41.372061634772415" lon="14.375829680906312"><ele>503.0</ele><time>2026-04-04T07:41:12Z</time></trkpt><trkpt lat="41.37214487402816" lon="14.375830529592845"><ele>502.99999999999994</ele><time>2026-04-04T07:41:13Z</time></trkpt><trkpt lat="41.3722298913177" lon="14.375768543826846"><ele>502.99999999999994</ele><time>2026-04-04T07:41:14Z</time></trkpt><trkpt lat="41.37229129089282" lon="14.37563838664434"><ele>503.0</ele><time>2026-04-04T07:41:15Z</time></trkpt><trkpt lat="41.372290746520186" lon="14.375475865002652"><ele>503.0</ele><time>2026-04-04T07:41:16Z</time></trkpt><trkpt lat="41.37222319162027" lon="14.375332109499169"><ele>504.75</ele><time>2026-04-04T07:41:17Z</time></trkpt><trkpt lat="41.37213793989946" lon="14.375183727823165"><ele>506.5</ele><time>2026-04-04T07:41:18Z</time></trkpt><trkpt lat="41.37204027769865" lon="14.375025783607141"><ele>508.25</ele><time>2026-04-04T07:41:19Z</time></trkpt><trkpt lat="41.37194342303368" lon="14.374864655084144"><ele>510.0</ele><time>2026-04-04T07:41:20Z</time></trkpt><trkpt lat="41.37187048896562" lon="14.374716740150316"><ele>512.75</ele><time>2026-04-04T07:41:21Z</time></trkpt><trkpt lat="41.37183421519714" lon="14.374586427263479"><ele>515.5</ele><time>2026-04-04T07:41:22Z</time></trkpt><trkpt lat="41.37184705616138" lon="14.374458722078286"><ele>518.25</ele><time>2026-04-04T07:41:23Z</time></trkpt><trkpt lat="41.37190579404262" lon="14.37432009465235"><ele>521.0</ele><time>2026-04-04T07:41:24Z</time></trkpt><trkpt lat="41.37196172686022" lon="14.37411294281781"><ele>521.0</ele><time>2026-04-04T07:41:25Z</time></trkpt><trkpt lat="41.37200138695491" lon="14.37389130111079"><ele>521.0</ele><time>2026-04-04T07:41:26Z</time></trkpt><trkpt lat="41.37207201776025" lon="14.373662846767932"><ele>521.0</ele><time>2026-04-04T07:41:27Z</time></trkpt><trkpt lat="41.37216874006753" lon="14.373448986538056"><ele>520.3333333333333</ele><time>2026-04-04T07:41:28Z</time></trkpt><trkpt lat="41.37226479224099" lon="14.37322198334379"><ele>519.6666666666666</ele><time>2026-04-04T07:41:29Z</time></trkpt><trkpt lat="41.37235222697124" lon="14.372977523310876"><ele>519.0</ele><time>2026-04-04T07:41:30Z</time></trkpt><trkpt lat="41.372454278435484" lon="14.372727224754572"><ele>519.0</ele><time>2026-04-04T07:41:31Z</time></trkpt><trkpt lat="41.37254876879306" lon="14.37248910458147"><ele>519.0</ele><time>2026-04-04T07:41:32Z</time></trkpt><trkpt lat="41.37265772106632" lon="14.372280569083628"><ele>519.0</ele><time>2026-04-04T07:41:33Z</time></trkpt><trkpt lat="41.37274383427207" lon="14.372056141908802"><ele>519.0</ele><time>2026-04-04T07:41:34Z</time></trkpt><trkpt lat="41.37286553662796" lon="14.371868525104757"><ele>519.0</ele><time>2026-04-04T07:41:35Z</time></trkpt><trkpt lat="41.37300551118592" lon="14.371677579750314"><ele>519.0</ele><time>2026-04-04T07:41:36Z</time></trkpt><trkpt lat="41.373129079213975" lon="14.371457264798575"><ele>519.0</ele><time>2026-04-04T07:41:37Z</time></trkpt><trkpt lat="41.373223445496166" lon="14.371209068047726"><ele>519.0</ele><time>2026-04-04T07:41:38Z</time></trkpt><trkpt lat="41.373318964484724" lon="14.37099098042767"><ele>519.0</ele><time>2026-04-04T07:41:39Z</time></trkpt><trkpt lat="41.373459787233415" lon="14.37082091269614"><ele>519.0</ele><time>2026-04-04T07:41:40Z</time></trkpt><trkpt lat="41.37359512939523" lon="14.370628901822007"><ele>519.0</ele><time>2026-04-04T07:41:41Z</time></trkpt><trkpt lat="41.373719330209205" lon="14.370434045930567"><ele>519.0</ele><time>2026-04-04T07:41:42Z</time></trkpt><trkpt lat="41.373845564415916" lon="14.370254124714949"><ele>521.6666666666666</ele><time>2026-04-04T07:41:43Z</time></trkpt><trkpt lat="41.373970227539544" lon="14.370078306719758"><ele>524.3333333333333</ele><time>2026-04-04T07:41:44Z</time></trkpt><trkpt lat="41.37409172137307" lon="14.369905209229492"><ele>527.0</ele><time>2026-04-04T07:41:45Z</time></trkpt><trkpt lat="41.374206815885685" lon="14.36973585876605"><ele>527.3333333333333</ele><time>2026-04-04T07:41:46Z</time></trkpt><trkpt lat="41.374317924764284" lon="14.369572106786322"><ele>527.6666666666666</ele><time>2026-04-04T07:41:47Z</time></trkpt><trkpt lat="41.37443323817758" lon="14.36941256149694"><ele>528.0</ele><time>2026-04-04T07:41:48Z</time></trkpt><trkpt lat="41.374553045333705" lon="14.369258123122512"><ele>528.0</ele><time>2026-04-04T07:41:49Z</time></trkpt><trkpt lat="41.37466977921483" lon="14.369081493017216"><ele>528.0</ele><time>2026-04-04T07:41:50Z</time></trkpt><trkpt lat="41.374767754483806" lon="14.368878978650123"><ele>528.0</ele><time>2026-04-04T07:41:51Z</time></trkpt><trkpt lat="41.374851433955925" lon="14.368694992794223"><ele>530.3333333333334</ele><time>2026-04-04T07:41:52Z</time></trkpt><trkpt lat="41.37494094892603" lon="14.368546870652638"><ele>532.6666666666667</ele><time>2026-04-04T07:41:53Z</time></trkpt><trkpt lat="41.37506061915943" lon="14.368430568074363"><ele>535.0</ele><time>2026-04-04T07:41:54Z</time></trkpt><trkpt lat="41.375210903753526" lon="14.368333435810701"><ele>535.0</ele><time>2026-04-04T07:41:55Z</time></trkpt><trkpt lat="41.37536449557087" lon="14.368222948798717"><ele>535.0</ele><time>2026-04-04T07:41:56Z</time></trkpt><trkpt lat="41.375501426498225" lon="14.368067497651394"><ele>535.0</ele><time>2026-04-04T07:41:57Z</time></trkpt><trkpt lat="41.375616921475746" lon="14.36786307149443"><ele>537.0</ele><time>2026-04-04T07:41:58Z</time></trkpt><trkpt lat="41.375709946312355" lon="14.367652792843213"><ele>539.0</ele><time>2026-04-04T07:41:59Z</time></trkpt><trkpt lat="41.37579261037984" lon="14.367470419875328"><ele>541.0</ele><time>2026-04-04T07:42:00Z</time></trkpt><trkpt lat="41.37587088386128" lon="14.367316037976803"><ele>539.5</ele><time>2026-04-04T07:42:01Z</time></trkpt><trkpt lat="41.37595129507275" lon="14.367182762575702"><ele>538.0</ele><time>2026-04-04T07:42:02Z</time></trkpt><trkpt lat="41.376037100136536" lon="14.367094519405956"><ele>536.5</ele><time>2026-04-04T07:42:03Z</time></trkpt><trkpt lat="41.37613709706006" lon="14.367055662326502"><ele>535.0</ele><time>2026-04-04T07:42:04Z</time></trkpt><trkpt lat="41.37626497836459" lon="14.36702401003593"><ele>537.6666666666667</ele><time>2026-04-04T07:42:05Z</time></trkpt><trkpt lat="41.37639849470591" lon="14.366955843671452"><ele>540.3333333333334</ele><time>2026-04-04T07:42:06Z</time></trkpt><trkpt lat="41.37652643975576" lon="14.366831719744265"><ele>543.0</ele><time>2026-04-04T07:42:07Z</time></trkpt><trkpt lat="41.376646283891944" lon="14.366691174484277"><ele>543.0</ele><time>2026-04-04T07:42:08Z</time></trkpt><trkpt lat="41.376750150252086" lon="14.36659343035782"><ele>543.0</ele><time>2026-04-04T07:42:09Z</time></trkpt><trkpt lat="41.376839934771446" lon="14.366541866717593"><ele>543.0</ele><time>2026-04-04T07:42:10Z</time></trkpt><trkpt lat="41.37692672424179" lon="14.366549185311701"><ele>543.0</ele><time>2026-04-04T07:42:11Z</time></trkpt><trkpt lat="41.377036741010905" lon="14.366587785519865"><ele>543.0</ele><time>2026-04-04T07:42:12Z</time></trkpt><trkpt lat="41.37716446492227" lon="14.366642596238508"><ele>544.25</ele><time>2026-04-04T07:42:13Z</time></trkpt><trkpt lat="41.37730385408731" lon="14.366704879366814"><ele>545.5</ele><time>2026-04-04T07:42:14Z</time></trkpt><trkpt lat="41.37744494680646" lon="14.3667624610007"><ele>546.75</ele><time>2026-04-04T07:42:15Z</time></trkpt><trkpt lat="41.377576934604996" lon="14.366788985414543"><ele>548.0</ele><time>2026-04-04T07:42:16Z</time></trkpt><trkpt lat="41.377709452184476" lon="14.36677264944745"><ele>548.0</ele><time>2026-04-04T07:42:17Z</time></trkpt><trkpt lat="41.377843804981346" lon="14.36672581827255"><ele>548.0</ele><time>2026-04-04T07:42:18Z</time></trkpt><trkpt lat="41.377963460206026" lon="14.366664748699773"><ele>548.0</ele><time>2026-04-04T07:42:19Z</time></trkpt><trkpt lat="41.37805320815542" lon="14.366589937722669"><ele>548.0</ele><time>2026-04-04T07:42:20Z</time></trkpt><trkpt lat="41.37811850221374" lon="14.366506708071372"><ele>548.4</ele><time>2026-04-04T07:42:21Z</time></trkpt><trkpt lat="41.3781447729769" lon="14.366413141457869"><ele>548.8</ele><time>2026-04-04T07:42:22Z</time></trkpt><trkpt lat="41.37815849898815" lon="14.366274829990495"><ele>549.2</ele><time>2026-04-04T07:42:23Z</time></trkpt><trkpt lat="41.37820548097891" lon="14.366129539433334"><ele>549.6</ele><time>2026-04-04T07:42:24Z</time></trkpt><trkpt lat="41.37823239497003" lon="14.365986640866902"><ele>550.0</ele><time>2026-04-04T07:42:25Z</time></trkpt><trkpt lat="41.37830519008488" lon="14.365880786058849"><ele>550.0</ele><time>2026-04-04T07:42:26Z</time></trkpt><trkpt lat="41.37838521400339" lon="14.365831359855743"><ele>550.0</ele><time>2026-04-04T07:42:27Z</time></trkpt><trkpt lat="41.37846087313869" lon="14.365852573708432"><ele>550.0</ele><time>2026-04-04T07:42:28Z</time></trkpt><trkpt lat="41.37855206526163" lon="14.365913586369562"><ele>550.0</ele><time>2026-04-04T07:42:29Z</time></trkpt><trkpt lat="41.37865917380029" lon="14.365974890420611"><ele>550.0</ele><time>2026-04-04T07:42:30Z</time></trkpt><trkpt lat="41.37877227872471" lon="14.366020105067637"><ele>551.0</ele><time>2026-04-04T07:42:31Z</time></trkpt><trkpt lat="41.37888949530234" lon="14.366026066903322"><ele>552.0</ele><time>2026-04-04T07:42:32Z</time></trkpt><trkpt lat="41.37900344443616" lon="14.36597393006605"><ele>553.0</ele><time>2026-04-04T07:42:33Z</time></trkpt><trkpt lat="41.379109368513404" lon="14.365877922603882"><ele>554.0</ele><time>2026-04-04T07:42:34Z</time></trkpt><trkpt lat="41.379213950994355" lon="14.3657772800221"><ele>554.0</ele><time>2026-04-04T07:42:35Z</time></trkpt><trkpt lat="41.379324258472195" lon="14.36572081801121"><ele>554.0</ele><time>2026-04-04T07:42:36Z</time></trkpt><trkpt lat="41.37944882979901" lon="14.365723664537525"><ele>554.0</ele><time>2026-04-04T07:42:37Z</time></trkpt><trkpt lat="41.379573643637464" lon="14.365756550332495"><ele>554.0</ele><time>2026-04-04T07:42:38Z</time></trkpt><trkpt lat="41.379715177806325" lon="14.365761675881878"><ele>554.75</ele><time>2026-04-04T07:42:39Z</time></trkpt><trkpt lat="41.37986071576581" lon="14.365719373813086"><ele>555.5</ele><time>2026-04-04T07:42:40Z</time></trkpt><trkpt lat="41.38000361468543" lon="14.365665542370925"><ele>556.25</ele><time>2026-04-04T07:42:41Z</time></trkpt><trkpt lat="41.380135923004545" lon="14.365643578928282"><ele>557.0</ele><time>2026-04-04T07:42:42Z</time></trkpt><trkpt lat="41.38024716987616" lon="14.365663138628433"><ele>557.0</ele><time>2026-04-04T07:42:43Z</time></trkpt><trkpt lat="41.38034525098761" lon="14.365713081499836"><ele>557.0</ele><time>2026-04-04T07:42:44Z</time></trkpt><trkpt lat="41.380442386389824" lon="14.365785887697182"><ele>557.0</ele><time>2026-04-04T07:42:45Z</time></trkpt><trkpt lat="41.38053286227521" lon="14.36585611158677"><ele>557.0</ele><time>2026-04-04T07:42:46Z</time></trkpt><trkpt lat="41.38062153813242" lon="14.365896869533845"><ele>557.0</ele><time>2026-04-04T07:42:47Z</time></trkpt><trkpt lat="41.380728387813505" lon="14.365908551799416"><ele>557.75</ele><time>2026-04-04T07:42:48Z</time></trkpt><trkpt lat="41.380848787391564" lon="14.365898113950484"><ele>558.5</ele><time>2026-04-04T07:42:49Z</time></trkpt><trkpt lat="41.38097404878256" lon="14.365871021937865"><ele>559.25</ele><time>2026-04-04T07:42:50Z</time></trkpt><trkpt lat="41.381091985602126" lon="14.365845331175958"><ele>560.0</ele><time>2026-04-04T07:42:51Z</time></trkpt><trkpt lat="41.38118284439169" lon="14.365810550645854"><ele>560.0</ele><time>2026-04-04T07:42:52Z</time></trkpt><trkpt lat="41.381257915433046" lon="14.365750986373113"><ele>560.0</ele><time>2026-04-04T07:42:53Z</time></trkpt><trkpt lat="41.38132517152877" lon="14.365651216854408"><ele>560.0</ele><time>2026-04-04T07:42:54Z</time></trkpt><trkpt lat="41.38137515684298" lon="14.365522725934882"><ele>560.0</ele><time>2026-04-04T07:42:55Z</time></trkpt><trkpt lat="41.38143123280513" lon="14.3653852834993"><ele>560.0</ele><time>2026-04-04T07:42:56Z</time></trkpt><trkpt lat="41.38147577954483" lon="14.365230581535423"><ele>565.25</ele><time>2026-04-04T07:42:57Z</time></trkpt><trkpt lat="41.381513579402366" lon="14.36506928789242"><ele>570.5</ele><time>2026-04-04T07:42:58Z</time></trkpt><trkpt lat="41.38152521266638" lon="14.364905001887628"><ele>575.75</ele><time>2026-04-04T07:42:59Z</time></trkpt><trkpt lat="41.38147406602368" lon="14.364733121370692"><ele>581.0</ele><time>2026-04-04T07:43:00Z</time></trkpt><trkpt lat="41.38138390012784" lon="14.364579625598848"><ele>575.0</ele><time>2026-04-04T07:43:01Z</time></trkpt><trkpt lat="41.38130146265964" lon="14.364438710821954"><ele>569.0</ele><time>2026-04-04T07:43:02Z</time></trkpt><trkpt lat="41.38122853093002" lon="14.364301755820653"><ele>563.0</ele><time>2026-04-04T07:43:03Z</time></trkpt><trkpt lat="41.38116942488672" lon="14.364178381193183"><ele>557.0</ele><time>2026-04-04T07:43:04Z</time></trkpt><trkpt lat="41.38112551770001" lon="14.364075006979169"><ele>557.0</ele><time>2026-04-04T07:43:05Z</time></trkpt><trkpt lat="41.381092273775465" lon="14.363969298209337"><ele>557.0</ele><time>2026-04-04T07:43:06Z</time></trkpt><trkpt lat="41.38107960157375" lon="14.363843545823814"><ele>557.0</ele><time>2026-04-04T07:43:07Z</time></trkpt><trkpt lat="41.38109524867645" lon="14.36370008814118"><ele>557.0</ele><time>2026-04-04T07:43:08Z</time></trkpt><trkpt lat="41.38110993492137" lon="14.363538652246215"><ele>557.0</ele><time>2026-04-04T07:43:09Z</time></trkpt><trkpt lat="41.38109721794076" lon="14.36337493290152"><ele>558.4</ele><time>2026-04-04T07:43:10Z</time></trkpt><trkpt lat="41.38109867653895" lon="14.363208894836804"><ele>559.8000000000001</ele><time>2026-04-04T07:43:11Z</time></trkpt><trkpt lat="41.38107725234043" lon="14.363069171679568"><ele>561.2</ele><time>2026-04-04T07:43:12Z</time></trkpt><trkpt lat="41.38104428752053" lon="14.36295351671525"><ele>562.6</ele><time>2026-04-04T07:43:13Z</time></trkpt><trkpt lat="41.38096323688976" lon="14.362863469544658"><ele>564.0</ele><time>2026-04-04T07:43:14Z</time></trkpt><trkpt lat="41.38085336668004" lon="14.362837614005082"><ele>563.6</ele><time>2026-04-04T07:43:15Z</time></trkpt><trkpt lat="41.38075463264307" lon="14.362811023699077"><ele>563.2</ele><time>2026-04-04T07:43:16Z</time></trkpt><trkpt lat="41.3806603363886" lon="14.362776384248635"><ele>562.8000000000001</ele><time>2026-04-04T07:43:17Z</time></trkpt><trkpt lat="41.38057579527756" lon="14.362710945719433"><ele>562.4</ele><time>2026-04-04T07:43:18Z</time></trkpt><trkpt lat="41.38049589091668" lon="14.362606194160394"><ele>562.0</ele><time>2026-04-04T07:43:19Z</time></trkpt><trkpt lat="41.380414620719826" lon="14.36247977536066"><ele>562.0</ele><time>2026-04-04T07:43:20Z</time></trkpt><trkpt lat="41.38032829861508" lon="14.362330304877327"><ele>562.0</ele><time>2026-04-04T07:43:21Z</time></trkpt><trkpt lat="41.38024360185008" lon="14.362180074001861"><ele>562.0</ele><time>2026-04-04T07:43:22Z</time></trkpt><trkpt lat="41.380154106859884" lon="14.362024962435207"><ele>562.0</ele><time>2026-04-04T07:43:23Z</time></trkpt><trkpt lat="41.38007154669917" lon="14.361904483841343"><ele>565.1666666666667</ele><time>2026-04-04T07:43:24Z</time></trkpt><trkpt lat="41.38000550264444" lon="14.361809367073073"><ele>568.3333333333334</ele><time>2026-04-04T07:43:25Z</time></trkpt><trkpt lat="41.379964048078534" lon="14.361744752465897"><ele>571.5</ele><time>2026-04-04T07:43:26Z</time></trkpt><trkpt lat="41.37992518618584" lon="14.361641473610709"><ele>574.6666666666666</ele><time>2026-04-04T07:43:28Z</time></trkpt><trkpt lat="41.37999694959128" lon="14.361517718113753"><ele>577.8333333333333</ele><time>2026-04-04T07:43:30Z</time></trkpt><trkpt lat="41.38007416560492" lon="14.36151489479432"><ele>581.0</ele><time>2026-04-04T07:43:31Z</time></trkpt><trkpt lat="41.38014367204216" lon="14.361577380436344"><ele>581.0</ele><time>2026-04-04T07:43:32Z</time></trkpt><trkpt lat="41.380171556052964" lon="14.361689967969204"><ele>581.0</ele><time>2026-04-04T07:43:33Z</time></trkpt><trkpt lat="41.38018586270586" lon="14.36182071807562"><ele>581.0</ele><time>2026-04-04T07:43:34Z</time></trkpt><trkpt lat="41.38022441211313" lon="14.361954169399425"><ele>581.0</ele><time>2026-04-04T07:43:35Z</time></trkpt><trkpt lat="41.38029234394162" lon="14.36209849524446"><ele>581.0</ele><time>2026-04-04T07:43:36Z</time></trkpt><trkpt lat="41.3803776173141" lon="14.36223543793541"><ele>580.75</ele><time>2026-04-04T07:43:37Z</time></trkpt><trkpt lat="41.38047483298047" lon="14.362355843190242"><ele>580.5</ele><time>2026-04-04T07:43:38Z</time></trkpt><trkpt lat="41.380574608655586" lon="14.362435758045512"><ele>580.25</ele><time>2026-04-04T07:43:39Z</time></trkpt><trkpt lat="41.38067195182373" lon="14.362455001502076"><ele>580.0</ele><time>2026-04-04T07:43:40Z</time></trkpt><trkpt lat="41.38078103644709" lon="14.362434059741856"><ele>580.0</ele><time>2026-04-04T07:43:41Z</time></trkpt><trkpt lat="41.380899352893906" lon="14.362383934266322"><ele>580.0</ele><time>2026-04-04T07:43:42Z</time></trkpt><trkpt lat="41.381026048250305" lon="14.362331291122251"><ele>580.0</ele><time>2026-04-04T07:43:43Z</time></trkpt><trkpt lat="41.38115703576305" lon="14.362288136779762"><ele>580.0</ele><time>2026-04-04T07:43:44Z</time></trkpt><trkpt lat="41.38128801163978" lon="14.362250317013297"><ele>582.0</ele><time>2026-04-04T07:43:45Z</time></trkpt><trkpt lat="41.381401249378264" lon="14.362236500859744"><ele>584.0</ele><time>2026-04-04T07:43:46Z</time></trkpt><trkpt lat="41.38149862837691" lon="14.36225633297356"><ele>586.0</ele><time>2026-04-04T07:43:47Z</time></trkpt><trkpt lat="41.38159811576064" lon="14.362315654435108"><ele>588.0</ele><time>2026-04-04T07:43:48Z</time></trkpt><trkpt lat="41.381689848391" lon="14.362413404816916"><ele>590.0</ele><time>2026-04-04T07:43:49Z</time></trkpt><trkpt lat="41.38178924165914" lon="14.362534628554101"><ele>590.0</ele><time>2026-04-04T07:43:50Z</time></trkpt><trkpt lat="41.3818981404271" lon="14.362661743660846"><ele>590.0</ele><time>2026-04-04T07:43:51Z</time></trkpt><trkpt lat="41.382011106243716" lon="14.362779256098415"><ele>590.0</ele><time>2026-04-04T07:43:52Z</time></trkpt><trkpt lat="41.38211927612859" lon="14.362896109279092"><ele>590.0</ele><time>2026-04-04T07:43:53Z</time></trkpt><trkpt lat="41.3822062847104" lon="14.362997712676862"><ele>596.0</ele><time>2026-04-04T07:43:54Z</time></trkpt><trkpt lat="41.382274949929204" lon="14.363097331061944"><ele>602.0</ele><time>2026-04-04T07:43:55Z</time></trkpt><trkpt lat="41.38232981868896" lon="14.363212263759683"><ele>608.0</ele><time>2026-04-04T07:43:56Z</time></trkpt><trkpt lat="41.38236644902359" lon="14.363343545003891"><ele>614.0</ele><time>2026-04-04T07:43:57Z</time></trkpt><trkpt lat="41.38235701750622" lon="14.363484355338917"><ele>620.0</ele><time>2026-04-04T07:43:58Z</time></trkpt><trkpt lat="41.38231304044134" lon="14.363624682868835"><ele>620.0</ele><time>2026-04-04T07:43:59Z</time></trkpt><trkpt lat="41.38224692891942" lon="14.363763021581276"><ele>620.0</ele><time>2026-04-04T07:44:00Z</time></trkpt><trkpt lat="41.38218335867872" lon="14.363916304829896"><ele>620.0</ele><time>2026-04-04T07:44:01Z</time></trkpt><trkpt lat="41.38211869740102" lon="14.364085719490957"><ele>620.0</ele><time>2026-04-04T07:44:02Z</time></trkpt><trkpt lat="41.38205326534317" lon="14.364260420287605"><ele>610.5</ele><time>2026-04-04T07:44:03Z</time></trkpt><trkpt lat="41.381989255635155" lon="14.36441895193922"><ele>601.0</ele><time>2026-04-04T07:44:04Z</time></trkpt><trkpt lat="41.38194363250063" lon="14.364554893939863"><ele>591.5</ele><time>2026-04-04T07:44:05Z</time></trkpt><trkpt lat="41.38192050214506" lon="14.364707675823109"><ele>582.0</ele><time>2026-04-04T07:44:06Z</time></trkpt><trkpt lat="41.38191905872748" lon="14.36488386544456"><ele>582.0</ele><time>2026-04-04T07:44:07Z</time></trkpt><trkpt lat="41.38193264532394" lon="14.365092036474843"><ele>582.0</ele><time>2026-04-04T07:44:08Z</time></trkpt><trkpt lat="41.38195591364228" lon="14.365271373015135"><ele>582.0</ele><time>2026-04-04T07:44:09Z</time></trkpt><trkpt lat="41.38201649699876" lon="14.365419069758607"><ele>582.0</ele><time>2026-04-04T07:44:10Z</time></trkpt><trkpt lat="41.38205453097187" lon="14.365565489082336"><ele>581.6</ele><time>2026-04-04T07:44:11Z</time></trkpt><trkpt lat="41.38209558572408" lon="14.365679733410119"><ele>581.2</ele><time>2026-04-04T07:44:12Z</time></trkpt><trkpt lat="41.382161446974926" lon="14.36577732889305"><ele>580.8</ele><time>2026-04-04T07:44:13Z</time></trkpt><trkpt lat="41.382249852131906" lon="14.365872921778708"><ele>580.4</ele><time>2026-04-04T07:44:14Z</time></trkpt><trkpt lat="41.38233781467168" lon="14.365969535539039"><ele>580.0</ele><time>2026-04-04T07:44:15Z</time></trkpt><trkpt lat="41.38240280581341" lon="14.366058889053432"><ele>586.2</ele><time>2026-04-04T07:44:16Z</time></trkpt><trkpt lat="41.382470800540325" lon="14.366127129431302"><ele>592.4</ele><time>2026-04-04T07:44:17Z</time></trkpt><trkpt lat="41.382569977804245" lon="14.36615703187012"><ele>598.6</ele><time>2026-04-04T07:44:18Z</time></trkpt><trkpt lat="41.38268641287716" lon="14.366180955869677"><ele>604.8</ele><time>2026-04-04T07:44:19Z</time></trkpt><trkpt lat="41.382789298717874" lon="14.36626050283259"><ele>611.0</ele><time>2026-04-04T07:44:20Z</time></trkpt><trkpt lat="41.38286564390161" lon="14.366397058423471"><ele>611.0</ele><time>2026-04-04T07:44:21Z</time></trkpt><trkpt lat="41.382928837870814" lon="14.366551040343245"><ele>611.0</ele><time>2026-04-04T07:44:22Z</time></trkpt><trkpt lat="41.382994424002995" lon="14.366674774057836"><ele>611.0</ele><time>2026-04-04T07:44:23Z</time></trkpt><trkpt lat="41.383071569288084" lon="14.366742388251515"><ele>611.0</ele><time>2026-04-04T07:44:24Z</time></trkpt><trkpt lat="41.38314550872164" lon="14.366789467880077"><ele>611.0</ele><time>2026-04-04T07:44:25Z</time></trkpt><trkpt lat="41.38319215597156" lon="14.366861349704534"><ele>611.0</ele><time>2026-04-04T07:44:26Z</time></trkpt><trkpt lat="41.38319830068427" lon="14.366964914583813"><ele>611.0</ele><time>2026-04-04T07:44:27Z</time></trkpt><trkpt lat="41.38317586535551" lon="14.367067691537542"><ele>611.0</ele><time>2026-04-04T07:44:28Z</time></trkpt><trkpt lat="41.38312649382077" lon="14.36713447002107"><ele>611.0</ele><time>2026-04-04T07:44:29Z</time></trkpt><trkpt lat="41.38304666576898" lon="14.36711824440426"><ele>611.0</ele><time>2026-04-04T07:44:30Z</time></trkpt><trkpt lat="41.382969232008236" lon="14.367075122135873"><ele>611.0</ele><time>2026-04-04T07:44:31Z</time></trkpt><trkpt lat="41.38288328399762" lon="14.367045573392458"><ele>611.0</ele><time>2026-04-04T07:44:32Z</time></trkpt><trkpt lat="41.3827932901558" lon="14.366979979765722"><ele>611.0</ele><time>2026-04-04T07:44:33Z</time></trkpt><trkpt lat="41.382710123990286" lon="14.366907065527043"><ele>611.0</ele><time>2026-04-04T07:44:34Z</time></trkpt><trkpt lat="41.38261695402971" lon="14.366838785227497"><ele>611.0</ele><time>2026-04-04T07:44:35Z</time></trkpt><trkpt lat="41.38250726783723" lon="14.366820709053163"><ele>611.0</ele><time>2026-04-04T07:44:36Z</time></trkpt><trkpt lat="41.382392635461066" lon="14.366844695146295"><ele>611.0</ele><time>2026-04-04T07:44:37Z</time></trkpt><trkpt lat="41.38227603049883" lon="14.366863884454594"><ele>611.0</ele><time>2026-04-04T07:44:38Z</time></trkpt><trkpt lat="41.38218299790426" lon="14.366910391280792"><ele>611.0</ele><time>2026-04-04T07:44:39Z</time></trkpt><trkpt lat="41.38211014140826" lon="14.366959902257712"><ele>611.0</ele><time>2026-04-04T07:44:40Z</time></trkpt><trkpt lat="41.382056112464" lon="14.367061981923548"><ele>611.0</ele><time>2026-04-04T07:44:41Z</time></trkpt><trkpt lat="41.38204496051285" lon="14.367187684028146"><ele>606.75</ele><time>2026-04-04T07:44:42Z</time></trkpt><trkpt lat="41.382062433710054" lon="14.367326677938648"><ele>602.5</ele><time>2026-04-04T07:44:43Z</time></trkpt><trkpt lat="41.38208515925165" lon="14.367488626964244"><ele>598.25</ele><time>2026-04-04T07:44:44Z</time></trkpt><trkpt lat="41.38210461960423" lon="14.367656901070777"><ele>594.0</ele><time>2026-04-04T07:44:45Z</time></trkpt><trkpt lat="41.382132889277386" lon="14.367821368910521"><ele>594.0</ele><time>2026-04-04T07:44:46Z</time></trkpt><trkpt lat="41.38216476993066" lon="14.367978165402022"><ele>594.0</ele><time>2026-04-04T07:44:47Z</time></trkpt><trkpt lat="41.38222329089411" lon="14.368174612453885"><ele>594.0</ele><time>2026-04-04T07:44:48Z</time></trkpt><trkpt lat="41.38227542816953" lon="14.368334582508863"><ele>594.0</ele><time>2026-04-04T07:44:49Z</time></trkpt><trkpt lat="41.38232398850516" lon="14.368463055754503"><ele>597.25</ele><time>2026-04-04T07:44:50Z</time></trkpt><trkpt lat="41.38239830891548" lon="14.368588805325263"><ele>600.5</ele><time>2026-04-04T07:44:51Z</time></trkpt><trkpt lat="41.38249176607347" lon="14.368708485307613"><ele>603.75</ele><time>2026-04-04T07:44:52Z</time></trkpt><trkpt lat="41.38258475241871" lon="14.368828674468954"><ele>607.0</ele><time>2026-04-04T07:44:53Z</time></trkpt><trkpt lat="41.38267459103975" lon="14.368965371818827"><ele>607.0</ele><time>2026-04-04T07:44:54Z</time></trkpt><trkpt lat="41.382751595929285" lon="14.36912840462623"><ele>607.0</ele><time>2026-04-04T07:44:55Z</time></trkpt><trkpt lat="41.38280462465799" lon="14.36930263992923"><ele>607.0</ele><time>2026-04-04T07:44:56Z</time></trkpt><trkpt lat="41.382855157358705" lon="14.369491618463565"><ele>607.0</ele><time>2026-04-04T07:44:57Z</time></trkpt><trkpt lat="41.382919969189174" lon="14.369677195231693"><ele>604.2</ele><time>2026-04-04T07:44:58Z</time></trkpt><trkpt lat="41.38298529641864" lon="14.36982852219599"><ele>601.4000000000001</ele><time>2026-04-04T07:44:59Z</time></trkpt><trkpt lat="41.38303270546945" lon="14.369949863428587"><ele>598.5999999999999</ele><time>2026-04-04T07:45:00Z</time></trkpt><trkpt lat="41.38307261194766" lon="14.370026357323532"><ele>595.8</ele><time>2026-04-04T07:45:01Z</time></trkpt><trkpt lat="41.3831375038491" lon="14.370060737046305"><ele>593.0</ele><time>2026-04-04T07:45:02Z</time></trkpt><trkpt lat="41.38322354175134" lon="14.370043827765148"><ele>604.0</ele><time>2026-04-04T07:45:03Z</time></trkpt><trkpt lat="41.383278271237074" lon="14.369970983708196"><ele>615.0</ele><time>2026-04-04T07:45:04Z</time></trkpt><trkpt lat="41.383284019001614" lon="14.369870550061911"><ele>626.0</ele><time>2026-04-04T07:45:05Z</time></trkpt><trkpt lat="41.3832843148954" lon="14.369761149489111"><ele>637.0</ele><time>2026-04-04T07:45:06Z</time></trkpt><trkpt lat="41.38321007801109" lon="14.369654130541145"><ele>648.0</ele><time>2026-04-04T07:45:07Z</time></trkpt><trkpt lat="41.383118374379904" lon="14.369579530585153"><ele>649.8</ele><time>2026-04-04T07:45:08Z</time></trkpt><trkpt lat="41.38304194185895" lon="14.36946743330924"><ele>651.5999999999999</ele><time>2026-04-04T07:45:09Z</time></trkpt><trkpt lat="41.38297172753664" lon="14.369363569625886"><ele>653.4000000000001</ele><time>2026-04-04T07:45:10Z</time></trkpt><trkpt lat="41.382932371920006" lon="14.369263897794887"><ele>655.2</ele><time>2026-04-04T07:45:11Z</time></trkpt><trkpt lat="41.382908352111734" lon="14.369133380119145"><ele>657.0</ele><time>2026-04-04T07:45:12Z</time></trkpt><trkpt lat="41.38287754799399" lon="14.368970301920807"><ele>647.75</ele><time>2026-04-04T07:45:13Z</time></trkpt><trkpt lat="41.38284147038598" lon="14.368801436151903"><ele>638.5</ele><time>2026-04-04T07:45:14Z</time></trkpt><trkpt lat="41.382802347717906" lon="14.368620617111594"><ele>629.25</ele><time>2026-04-04T07:45:15Z</time></trkpt><trkpt lat="41.38276074380573" lon="14.368425295906365"><ele>620.0</ele><time>2026-04-04T07:45:16Z</time></trkpt><trkpt lat="41.382718186252966" lon="14.368236366590171"><ele>620.0</ele><time>2026-04-04T07:45:17Z</time></trkpt><trkpt lat="41.38266040246391" lon="14.36805593390384"><ele>620.0</ele><time>2026-04-04T07:45:18Z</time></trkpt><trkpt lat="41.38260257977908" lon="14.367906467493112"><ele>620.0</ele><time>2026-04-04T07:45:19Z</time></trkpt><trkpt lat="41.38256170571196" lon="14.367786989383523"><ele>620.0</ele><time>2026-04-04T07:45:20Z</time></trkpt><trkpt lat="41.382553321781835" lon="14.367692416402567"><ele>620.0</ele><time>2026-04-04T07:45:21Z</time></trkpt><trkpt lat="41.38256992831154" lon="14.367607853194963"><ele>621.2</ele><time>2026-04-04T07:45:22Z</time></trkpt><trkpt lat="41.38263310623751" lon="14.367567560496086"><ele>622.4</ele><time>2026-04-04T07:45:23Z</time></trkpt><trkpt lat="41.38271006157352" lon="14.367584414356008"><ele>623.6</ele><time>2026-04-04T07:45:24Z</time></trkpt><trkpt lat="41.382802064689606" lon="14.367766528908536"><ele>624.8</ele><time>2026-04-04T07:45:26Z</time></trkpt><trkpt lat="41.38279444536687" lon="14.36789544653076"><ele>626.0</ele><time>2026-04-04T07:45:27Z</time></trkpt><trkpt lat="41.3827958927427" lon="14.368020418193348"><ele>624.5</ele><time>2026-04-04T07:45:28Z</time></trkpt><trkpt lat="41.38283609751389" lon="14.368160132224272"><ele>623.0</ele><time>2026-04-04T07:45:29Z</time></trkpt><trkpt lat="41.38290251556718" lon="14.368311518360802"><ele>621.5</ele><time>2026-04-04T07:45:30Z</time></trkpt><trkpt lat="41.382973899762305" lon="14.368465104990491"><ele>620.0</ele><time>2026-04-04T07:45:31Z</time></trkpt><trkpt lat="41.38304657700152" lon="14.368622923268461"><ele>629.25</ele><time>2026-04-04T07:45:32Z</time></trkpt><trkpt lat="41.38312181895078" lon="14.368790271964246"><ele>638.5</ele><time>2026-04-04T07:45:33Z</time></trkpt><trkpt lat="41.38320741131064" lon="14.368952883892508"><ele>647.75</ele><time>2026-04-04T07:45:34Z</time></trkpt><trkpt lat="41.38330162009851" lon="14.369095243043756"><ele>657.0</ele><time>2026-04-04T07:45:35Z</time></trkpt><trkpt lat="41.383382656115515" lon="14.369203994899442"><ele>657.0</ele><time>2026-04-04T07:45:36Z</time></trkpt><trkpt lat="41.383435718911755" lon="14.369302282478916"><ele>657.0</ele><time>2026-04-04T07:45:37Z</time></trkpt><trkpt lat="41.38351102400177" lon="14.369498650691282"><ele>657.0</ele><time>2026-04-04T07:45:38Z</time></trkpt><trkpt lat="41.38353825617365" lon="14.369721762526014"><ele>657.0</ele><time>2026-04-04T07:45:39Z</time></trkpt><trkpt lat="41.38354692165152" lon="14.369938401751963"><ele>656.25</ele><time>2026-04-04T07:45:40Z</time></trkpt><trkpt lat="41.38354999578717" lon="14.37005910758581"><ele>655.5</ele><time>2026-04-04T07:45:41Z</time></trkpt><trkpt lat="41.38352898281191" lon="14.370268591016501"><ele>654.75</ele><time>2026-04-04T07:45:42Z</time></trkpt><trkpt lat="41.38350532937887" lon="14.370480551947052"><ele>654.0</ele><time>2026-04-04T07:45:43Z</time></trkpt><trkpt lat="41.38349660284876" lon="14.37069031789206"><ele>654.0</ele><time>2026-04-04T07:45:44Z</time></trkpt><trkpt lat="41.38349628712853" lon="14.370902436861012"><ele>654.0</ele><time>2026-04-04T07:45:45Z</time></trkpt><trkpt lat="41.38348564717657" lon="14.37110996128146"><ele>654.0</ele><time>2026-04-04T07:45:46Z</time></trkpt><trkpt lat="41.3834519402371" lon="14.3713144118107"><ele>656.0</ele><time>2026-04-04T07:45:47Z</time></trkpt><trkpt lat="41.38340313801999" lon="14.37148183554467"><ele>658.0</ele><time>2026-04-04T07:45:48Z</time></trkpt><trkpt lat="41.383367760696366" lon="14.371632198319135"><ele>660.0</ele><time>2026-04-04T07:45:49Z</time></trkpt><trkpt lat="41.383356651697135" lon="14.371793626231351"><ele>662.0</ele><time>2026-04-04T07:45:50Z</time></trkpt><trkpt lat="41.38336708999375" lon="14.37197142125394"><ele>662.0</ele><time>2026-04-04T07:45:51Z</time></trkpt><trkpt lat="41.3833771218132" lon="14.372150300373734"><ele>662.0</ele><time>2026-04-04T07:45:52Z</time></trkpt><trkpt lat="41.38336338789223" lon="14.372343598692686"><ele>662.0</ele><time>2026-04-04T07:45:53Z</time></trkpt><trkpt lat="41.383335386391586" lon="14.37253963430942"><ele>662.0</ele><time>2026-04-04T07:45:54Z</time></trkpt><trkpt lat="41.38330261035452" lon="14.372730037084214"><ele>663.2</ele><time>2026-04-04T07:45:55Z</time></trkpt><trkpt lat="41.38327889186046" lon="14.372912863389423"><ele>664.4000000000001</ele><time>2026-04-04T07:45:56Z</time></trkpt><trkpt lat="41.38326178633867" lon="14.373044106318924"><ele>665.5999999999999</ele><time>2026-04-04T07:45:57Z</time></trkpt><trkpt lat="41.38325477161742" lon="14.373129464141861"><ele>666.8</ele><time>2026-04-04T07:45:58Z</time></trkpt><trkpt lat="41.38332819108842" lon="14.373255973555741"><ele>668.0</ele><time>2026-04-04T07:46:00Z</time></trkpt><trkpt lat="41.38339993663249" lon="14.373241129143073"><ele>668.0</ele><time>2026-04-04T07:46:01Z</time></trkpt><trkpt lat="41.3834631388002" lon="14.373165156552714"><ele>668.0</ele><time>2026-04-04T07:46:02Z</time></trkpt><trkpt lat="41.38348585143931" lon="14.373051755551234"><ele>668.0</ele><time>2026-04-04T07:46:03Z</time></trkpt><trkpt lat="41.38347003735515" lon="14.372919592977125"><ele>668.0</ele><time>2026-04-04T07:46:04Z</time></trkpt><trkpt lat="41.38346855900286" lon="14.372781934386758"><ele>668.0</ele><time>2026-04-04T07:46:05Z</time></trkpt><trkpt lat="41.383491879486265" lon="14.372636919127887"><ele>668.0</ele><time>2026-04-04T07:46:06Z</time></trkpt><trkpt lat="41.38352102065266" lon="14.372464921877887"><ele>668.0</ele><time>2026-04-04T07:46:07Z</time></trkpt><trkpt lat="41.38355070246575" lon="14.372285272556775"><ele>668.0</ele><time>2026-04-04T07:46:08Z</time></trkpt><trkpt lat="41.38357817114563" lon="14.372108054488674"><ele>668.0</ele><time>2026-04-04T07:46:09Z</time></trkpt><trkpt lat="41.3836075287613" lon="14.37191864967858"><ele>666.0</ele><time>2026-04-04T07:46:10Z</time></trkpt><trkpt lat="41.38363766181958" lon="14.371724242000806"><ele>664.0</ele><time>2026-04-04T07:46:11Z</time></trkpt><trkpt lat="41.383668676153924" lon="14.37152348234355"><ele>662.0</ele><time>2026-04-04T07:46:12Z</time></trkpt><trkpt lat="41.383700163985516" lon="14.371318289108855"><ele>659.3333333333333</ele><time>2026-04-04T07:46:13Z</time></trkpt><trkpt lat="41.383733789821214" lon="14.371116546239106"><ele>656.6666666666666</ele><time>2026-04-04T07:46:14Z</time></trkpt><trkpt lat="41.38377192403045" lon="14.370904194120138"><ele>654.0</ele><time>2026-04-04T07:46:15Z</time></trkpt><trkpt lat="41.383817941468884" lon="14.370692585563106"><ele>673.3333333333334</ele><time>2026-04-04T07:46:16Z</time></trkpt><trkpt lat="41.38386971874699" lon="14.37048033407776"><ele>692.6666666666667</ele><time>2026-04-04T07:46:17Z</time></trkpt><trkpt lat="41.383912540941125" lon="14.370261558269545"><ele>712.0</ele><time>2026-04-04T07:46:18Z</time></trkpt><trkpt lat="41.3839685606497" lon="14.37005732922479"><ele>712.0</ele><time>2026-04-04T07:46:19Z</time></trkpt><trkpt lat="41.38402791626103" lon="14.369841856741147"><ele>712.0</ele><time>2026-04-04T07:46:20Z</time></trkpt><trkpt lat="41.384077986622096" lon="14.369621980635587"><ele>712.0</ele><time>2026-04-04T07:46:21Z</time></trkpt><trkpt lat="41.384123622543775" lon="14.369403832571228"><ele>709.75</ele><time>2026-04-04T07:46:22Z</time></trkpt><trkpt lat="41.38417753968902" lon="14.369192570153622"><ele>707.5</ele><time>2026-04-04T07:46:23Z</time></trkpt><trkpt lat="41.38420967222604" lon="14.369008142722508"><ele>705.25</ele><time>2026-04-04T07:46:24Z</time></trkpt><trkpt lat="41.384215496502655" lon="14.368834487098601"><ele>703.0</ele><time>2026-04-04T07:46:25Z</time></trkpt><trkpt lat="41.38418259120914" lon="14.368691421801579"><ele>701.1666666666667</ele><time>2026-04-04T07:46:26Z</time></trkpt><trkpt lat="41.384195040216255" lon="14.368559586603885"><ele>699.3333333333334</ele><time>2026-04-04T07:46:27Z</time></trkpt><trkpt lat="41.384206920971934" lon="14.368451373112483"><ele>697.5</ele><time>2026-04-04T07:46:28Z</time></trkpt><trkpt lat="41.38427744787705" lon="14.368416720335357"><ele>695.6666666666666</ele><time>2026-04-04T07:46:29Z</time></trkpt><trkpt lat="41.38436164289069" lon="14.368461604649706"><ele>693.8333333333333</ele><time>2026-04-04T07:46:30Z</time></trkpt><trkpt lat="41.38441123808057" lon="14.368570207519365"><ele>692.0</ele><time>2026-04-04T07:46:31Z</time></trkpt><trkpt lat="41.38439421467094" lon="14.368706643119127"><ele>692.0</ele><time>2026-04-04T07:46:32Z</time></trkpt><trkpt lat="41.3843451204117" lon="14.368836588741711"><ele>692.0</ele><time>2026-04-04T07:46:33Z</time></trkpt><trkpt lat="41.384300480087305" lon="14.368970966156839"><ele>692.0</ele><time>2026-04-04T07:46:34Z</time></trkpt><trkpt lat="41.38427402389206" lon="14.369127291149425"><ele>692.0</ele><time>2026-04-04T07:46:35Z</time></trkpt><trkpt lat="41.38426089726949" lon="14.369307692483732"><ele>694.75</ele><time>2026-04-04T07:46:36Z</time></trkpt><trkpt lat="41.38425322829519" lon="14.369485398010228"><ele>697.5</ele><time>2026-04-04T07:46:37Z</time></trkpt><trkpt lat="41.384241913524875" lon="14.36964887393559"><ele>700.25</ele><time>2026-04-04T07:46:38Z</time></trkpt><trkpt lat="41.384225356100984" lon="14.369818392733098"><ele>703.0</ele><time>2026-04-04T07:46:39Z</time></trkpt><trkpt lat="41.38419943225705" lon="14.369980706293985"><ele>704.8</ele><time>2026-04-04T07:46:40Z</time></trkpt><trkpt lat="41.384174650977535" lon="14.370141516781866"><ele>706.5999999999999</ele><time>2026-04-04T07:46:41Z</time></trkpt><trkpt lat="41.384155159150794" lon="14.370297826210585"><ele>708.4000000000001</ele><time>2026-04-04T07:46:42Z</time></trkpt><trkpt lat="41.384140523010274" lon="14.370439240239335"><ele>710.2</ele><time>2026-04-04T07:46:43Z</time></trkpt><trkpt lat="41.384128729514565" lon="14.370556770737482"><ele>712.0</ele><time>2026-04-04T07:46:44Z</time></trkpt><trkpt lat="41.384117786916" lon="14.370671975590067"><ele>713.1666666666667</ele><time>2026-04-04T07:46:45Z</time></trkpt><trkpt lat="41.38410739607519" lon="14.37078901824229"><ele>714.3333333333334</ele><time>2026-04-04T07:46:46Z</time></trkpt><trkpt lat="41.38409465127132" lon="14.370911284750688"><ele>715.5</ele><time>2026-04-04T07:46:47Z</time></trkpt><trkpt lat="41.38407990917099" lon="14.371034037120303"><ele>716.6666666666666</ele><time>2026-04-04T07:46:48Z</time></trkpt><trkpt lat="41.38406843406014" lon="14.371150250816864"><ele>717.8333333333333</ele><time>2026-04-04T07:46:49Z</time></trkpt><trkpt lat="41.384058949950955" lon="14.371241632533716"><ele>719.0</ele><time>2026-04-04T07:46:50Z</time></trkpt><trkpt lat="41.38404403344395" lon="14.37139634811447"><ele>719.0</ele><time>2026-04-04T07:46:52Z</time></trkpt><trkpt lat="41.38403891922677" lon="14.371566419234815"><ele>719.0</ele><time>2026-04-04T07:46:54Z</time></trkpt><trkpt lat="41.38404906746949" lon="14.371663292821538"><ele>719.0</ele><time>2026-04-04T07:46:55Z</time></trkpt><trkpt lat="41.38406796891329" lon="14.371770648628875"><ele>719.0</ele><time>2026-04-04T07:46:56Z</time></trkpt><trkpt lat="41.38409375627586" lon="14.371885337172495"><ele>719.0</ele><time>2026-04-04T07:46:57Z</time></trkpt><trkpt lat="41.38412270648217" lon="14.37200462347333"><ele>719.0</ele><time>2026-04-04T07:46:58Z</time></trkpt><trkpt lat="41.384153424764925" lon="14.372136503611548"><ele>719.0</ele><time>2026-04-04T07:46:59Z</time></trkpt><trkpt lat="41.38417946030242" lon="14.372264865809194"><ele>719.0</ele><time>2026-04-04T07:47:00Z</time></trkpt><trkpt lat="41.38420021490423" lon="14.37240427731671"><ele>719.0</ele><time>2026-04-04T07:47:01Z</time></trkpt><trkpt lat="41.3842068525105" lon="14.372547723929458"><ele>719.0</ele><time>2026-04-04T07:47:02Z</time></trkpt><trkpt lat="41.38419244616646" lon="14.372683207162794"><ele>719.5</ele><time>2026-04-04T07:47:03Z</time></trkpt><trkpt lat="41.38416804953929" lon="14.372800348217243"><ele>720.0</ele><time>2026-04-04T07:47:04Z</time></trkpt><trkpt lat="41.38413536977794" lon="14.372894604685955"><ele>720.5</ele><time>2026-04-04T07:47:05Z</time></trkpt><trkpt lat="41.38411314639366" lon="14.372977102945447"><ele>721.0</ele><time>2026-04-04T07:47:06Z</time></trkpt><trkpt lat="41.384107059373264" lon="14.373090198043023"><ele>721.5</ele><time>2026-04-04T07:47:08Z</time></trkpt><trkpt lat="41.3841410263957" lon="14.37321335029667"><ele>722.0</ele><time>2026-04-04T07:47:10Z</time></trkpt><trkpt lat="41.384243737683576" lon="14.373313057346074"><ele>722.0</ele><time>2026-04-04T07:47:12Z</time></trkpt><trkpt lat="41.38431476311209" lon="14.37333897771656"><ele>722.0</ele><time>2026-04-04T07:47:13Z</time></trkpt><trkpt lat="41.38438928876146" lon="14.373378748640022"><ele>722.0</ele><time>2026-04-04T07:47:14Z</time></trkpt><trkpt lat="41.38446648059005" lon="14.373431539029232"><ele>722.0</ele><time>2026-04-04T07:47:15Z</time></trkpt><trkpt lat="41.38455199946851" lon="14.373487855964209"><ele>722.0</ele><time>2026-04-04T07:47:16Z</time></trkpt><trkpt lat="41.38463098353658" lon="14.373537378126596"><ele>722.0</ele><time>2026-04-04T07:47:17Z</time></trkpt><trkpt lat="41.384711992168214" lon="14.373600299504524"><ele>724.6666666666666</ele><time>2026-04-04T07:47:18Z</time></trkpt><trkpt lat="41.384770563409916" lon="14.373683087831388"><ele>727.3333333333333</ele><time>2026-04-04T07:47:19Z</time></trkpt><trkpt lat="41.384804492731995" lon="14.373791374076546"><ele>730.0</ele><time>2026-04-04T07:47:20Z</time></trkpt><trkpt lat="41.38482106198876" lon="14.373910621060688"><ele>732.6666666666666</ele><time>2026-04-04T07:47:21Z</time></trkpt><trkpt lat="41.38482471443752" lon="14.37403003352214"><ele>735.3333333333334</ele><time>2026-04-04T07:47:22Z</time></trkpt><trkpt lat="41.384826534557966" lon="14.374152271781087"><ele>738.0</ele><time>2026-04-04T07:47:23Z</time></trkpt><trkpt lat="41.38483711296751" lon="14.374268444609376"><ele>738.0</ele><time>2026-04-04T07:47:24Z</time></trkpt><trkpt lat="41.384847621413854" lon="14.374369642295358"><ele>738.0</ele><time>2026-04-04T07:47:25Z</time></trkpt><trkpt lat="41.38486811737681" lon="14.374507986741264"><ele>738.0</ele><time>2026-04-04T07:47:27Z</time></trkpt><trkpt lat="41.38492291652417" lon="14.374603731643187"><ele>738.0</ele><time>2026-04-04T07:47:30Z</time></trkpt><trkpt lat="41.38496909399238" lon="14.37469098033571"><ele>738.0</ele><time>2026-04-04T07:47:32Z</time></trkpt><trkpt lat="41.38502532195327" lon="14.3747523679454"><ele>738.0</ele><time>2026-04-04T07:47:34Z</time></trkpt><trkpt lat="41.385084909544915" lon="14.374838156622069"><ele>737.8571428571429</ele><time>2026-04-04T07:47:36Z</time></trkpt><trkpt lat="41.385108799655704" lon="14.374921573840137"><ele>737.7142857142857</ele><time>2026-04-04T07:47:38Z</time></trkpt><trkpt lat="41.38510694844283" lon="14.375015350856355"><ele>737.5714285714287</ele><time>2026-04-04T07:47:56Z</time></trkpt><trkpt lat="41.385082144654845" lon="14.374932410589572"><ele>737.4285714285714</ele><time>2026-04-04T07:49:50Z</time></trkpt><trkpt lat="41.38503352122829" lon="14.374834534559612"><ele>737.2857142857143</ele><time>2026-04-04T07:50:01Z</time></trkpt><trkpt lat="41.38507769683409" lon="14.374928131580134"><ele>737.1428571428572</ele><time>2026-04-04T07:51:10Z</time></trkpt><trkpt lat="41.38505282090923" lon="14.374842994294122"><ele>737.0</ele><time>2026-04-04T07:52:29Z</time></trkpt><trkpt lat="41.38509279581078" lon="14.374916172396704"><ele>737.0</ele><time>2026-04-04T07:52:37Z</time></trkpt><trkpt lat="41.3851393232684" lon="14.374979165438555"><ele>737.0</ele><time>2026-04-04T07:52:46Z</time></trkpt><trkpt lat="41.38514636929411" lon="14.375102937720852"><ele>737.0</ele><time>2026-04-04T07:57:27Z</time></trkpt><trkpt lat="41.38513244565552" lon="14.37518994472573"><ele>737.0</ele><time>2026-04-04T07:57:28Z</time></trkpt><trkpt lat="41.385105583109976" lon="14.375286579675754"><ele>737.0</ele><time>2026-04-04T07:57:29Z</time></trkpt><trkpt lat="41.385065333406544" lon="14.375391014226784"><ele>737.0</ele><time>2026-04-04T07:57:30Z</time></trkpt><trkpt lat="41.385009642140886" lon="14.375500214984566"><ele>737.25</ele><time>2026-04-04T07:57:31Z</time></trkpt><trkpt lat="41.384947066328834" lon="14.375616814121384"><ele>737.5</ele><time>2026-04-04T07:57:32Z</time></trkpt><trkpt lat="41.38490791143032" lon="14.375765960913206"><ele>737.75</ele><time>2026-04-04T07:57:33Z</time></trkpt><trkpt lat="41.3848996130899" lon="14.375955757780225"><ele>738.0</ele><time>2026-04-04T07:57:34Z</time></trkpt><trkpt lat="41.38491347315663" lon="14.376156150030628"><ele>738.0</ele><time>2026-04-04T07:57:35Z</time></trkpt><trkpt lat="41.38492392684272" lon="14.376351756265544"><ele>738.0</ele><time>2026-04-04T07:57:36Z</time></trkpt><trkpt lat="41.384948241555534" lon="14.376543585174634"><ele>738.0</ele><time>2026-04-04T07:57:37Z</time></trkpt><trkpt lat="41.384997967007344" lon="14.376735476689548"><ele>738.0</ele><time>2026-04-04T07:57:38Z</time></trkpt><trkpt lat="41.38504344101044" lon="14.376920406714467"><ele>738.0</ele><time>2026-04-04T07:57:39Z</time></trkpt><trkpt lat="41.38505955324837" lon="14.37711219167599"><ele>738.0</ele><time>2026-04-04T07:57:40Z</time></trkpt><trkpt lat="41.38504024687886" lon="14.37729644993784"><ele>738.0</ele><time>2026-04-04T07:57:41Z</time></trkpt><trkpt lat="41.3850089700287" lon="14.377478870095548"><ele>738.0</ele><time>2026-04-04T07:57:42Z</time></trkpt><trkpt lat="41.38498472925242" lon="14.3776560414304"><ele>738.0</ele><time>2026-04-04T07:57:43Z</time></trkpt><trkpt lat="41.38497275465779" lon="14.377830968271239"><ele>738.0</ele><time>2026-04-04T07:57:44Z</time></trkpt><trkpt lat="41.384980110197525" lon="14.378001286265842"><ele>738.0</ele><time>2026-04-04T07:57:45Z</time></trkpt><trkpt lat="41.385004600706" lon="14.3781650744824"><ele>738.0</ele><time>2026-04-04T07:57:46Z</time></trkpt><trkpt lat="41.38503582024836" lon="14.37830997543493"><ele>738.75</ele><time>2026-04-04T07:57:47Z</time></trkpt><trkpt lat="41.38507333814149" lon="14.378465118138932"><ele>739.5</ele><time>2026-04-04T07:57:48Z</time></trkpt><trkpt lat="41.3851196968107" lon="14.378616257128824"><ele>740.25</ele><time>2026-04-04T07:57:49Z</time></trkpt><trkpt lat="41.385175917880744" lon="14.378773740576785"><ele>741.0</ele><time>2026-04-04T07:57:50Z</time></trkpt><trkpt lat="41.38521596939721" lon="14.378945288329446"><ele>741.75</ele><time>2026-04-04T07:57:51Z</time></trkpt><trkpt lat="41.385225191786326" lon="14.379122291634788"><ele>742.5</ele><time>2026-04-04T07:57:52Z</time></trkpt><trkpt lat="41.38522062480248" lon="14.37931741592317"><ele>743.25</ele><time>2026-04-04T07:57:53Z</time></trkpt><trkpt lat="41.38521005769878" lon="14.379514536056728"><ele>744.0</ele><time>2026-04-04T07:57:54Z</time></trkpt><trkpt lat="41.38519663812001" lon="14.37970746886765"><ele>744.75</ele><time>2026-04-04T07:57:55Z</time></trkpt><trkpt lat="41.3851845841537" lon="14.379896228133868"><ele>745.5</ele><time>2026-04-04T07:57:56Z</time></trkpt><trkpt lat="41.38515430067141" lon="14.380079538690849"><ele>746.25</ele><time>2026-04-04T07:57:57Z</time></trkpt><trkpt lat="41.38509638344491" lon="14.380226440109638"><ele>747.0</ele><time>2026-04-04T07:57:58Z</time></trkpt><trkpt lat="41.3850363819183" lon="14.380344327922488"><ele>747.0</ele><time>2026-04-04T07:57:59Z</time></trkpt><trkpt lat="41.3849992622614" lon="14.380465796953414"><ele>747.0</ele><time>2026-04-04T07:58:00Z</time></trkpt><trkpt lat="41.3849890050986" lon="14.38061198062959"><ele>747.0</ele><time>2026-04-04T07:58:01Z</time></trkpt><trkpt lat="41.38499166629139" lon="14.380778007399316"><ele>747.0</ele><time>2026-04-04T07:58:02Z</time></trkpt><trkpt lat="41.384995307875286" lon="14.380923838236926"><ele>747.0</ele><time>2026-04-04T07:58:03Z</time></trkpt><trkpt lat="41.38500169059707" lon="14.381023316773264"><ele>746.75</ele><time>2026-04-04T07:58:04Z</time></trkpt><trkpt lat="41.38510948959604" lon="14.38111823906809"><ele>746.5</ele><time>2026-04-04T07:58:06Z</time></trkpt><trkpt lat="41.38518640634532" lon="14.381081418929208"><ele>746.25</ele><time>2026-04-04T07:58:07Z</time></trkpt><trkpt lat="41.3852452804795" lon="14.380938922192902"><ele>746.0</ele><time>2026-04-04T07:58:09Z</time></trkpt><trkpt lat="41.38522231194139" lon="14.380724755649956"><ele>746.0</ele><time>2026-04-04T07:58:11Z</time></trkpt><trkpt lat="41.385211755606946" lon="14.380570362263331"><ele>746.0</ele><time>2026-04-04T07:58:12Z</time></trkpt><trkpt lat="41.385216566585065" lon="14.380399047859601"><ele>746.0</ele><time>2026-04-04T07:58:13Z</time></trkpt><trkpt lat="41.385251344746806" lon="14.380221329165009"><ele>746.0</ele><time>2026-04-04T07:58:14Z</time></trkpt><trkpt lat="41.385321120373604" lon="14.380012665172183"><ele>746.3333333333333</ele><time>2026-04-04T07:58:15Z</time></trkpt><trkpt lat="41.38539131136295" lon="14.379805339417558"><ele>746.6666666666666</ele><time>2026-04-04T07:58:16Z</time></trkpt><trkpt lat="41.38545478354051" lon="14.379537926375477"><ele>747.0</ele><time>2026-04-04T07:58:17Z</time></trkpt><trkpt lat="41.3855010613456" lon="14.379282192762469"><ele>757.3333333333333</ele><time>2026-04-04T07:58:18Z</time></trkpt><trkpt lat="41.38553908350293" lon="14.379054403596053"><ele>767.6666666666666</ele><time>2026-04-04T07:58:19Z</time></trkpt><trkpt lat="41.385596155805366" lon="14.378825822424949"><ele>778.0</ele><time>2026-04-04T07:58:20Z</time></trkpt><trkpt lat="41.38568283982574" lon="14.37858124426816"><ele>778.0</ele><time>2026-04-04T07:58:21Z</time></trkpt><trkpt lat="41.38577211688952" lon="14.378332604796428"><ele>778.0</ele><time>2026-04-04T07:58:22Z</time></trkpt><trkpt lat="41.38586270165398" lon="14.378080323334277"><ele>778.0</ele><time>2026-04-04T07:58:23Z</time></trkpt><trkpt lat="41.38594440880701" lon="14.377852784713175"><ele>775.6666666666666</ele><time>2026-04-04T07:58:24Z</time></trkpt><trkpt lat="41.38600311732336" lon="14.377633287359089"><ele>773.3333333333333</ele><time>2026-04-04T07:58:25Z</time></trkpt><trkpt lat="41.386060731245124" lon="14.377432311883851"><ele>771.0</ele><time>2026-04-04T07:58:26Z</time></trkpt><trkpt lat="41.38608666112391" lon="14.377215158707491"><ele>769.6666666666666</ele><time>2026-04-04T07:58:27Z</time></trkpt><trkpt lat="41.386094781934986" lon="14.376990060710437"><ele>768.3333333333333</ele><time>2026-04-04T07:58:28Z</time></trkpt><trkpt lat="41.386102365510986" lon="14.376763818220317"><ele>767.0</ele><time>2026-04-04T07:58:29Z</time></trkpt><trkpt lat="41.386116848239375" lon="14.376550408965382"><ele>767.0</ele><time>2026-04-04T07:58:30Z</time></trkpt><trkpt lat="41.38613433745556" lon="14.37635928850125"><ele>767.0</ele><time>2026-04-04T07:58:31Z</time></trkpt><trkpt lat="41.38614514584282" lon="14.3761992021313"><ele>767.0</ele><time>2026-04-04T07:58:32Z</time></trkpt><trkpt lat="41.38613349776105" lon="14.376003395368913"><ele>767.0</ele><time>2026-04-04T07:58:34Z</time></trkpt><trkpt lat="41.38603437386248" lon="14.375874129734171"><ele>768.0</ele><time>2026-04-04T07:58:35Z</time></trkpt><trkpt lat="41.385974046908096" lon="14.375720985850363"><ele>769.0</ele><time>2026-04-04T07:58:36Z</time></trkpt><trkpt lat="41.38592381963184" lon="14.37558037275244"><ele>770.0</ele><time>2026-04-04T07:58:37Z</time></trkpt><trkpt lat="41.38589451598107" lon="14.375452068678088"><ele>771.0</ele><time>2026-04-04T07:58:38Z</time></trkpt><trkpt lat="41.38591467201042" lon="14.375328209446051"><ele>772.0</ele><time>2026-04-04T07:58:39Z</time></trkpt><trkpt lat="41.38589854030669" lon="14.375233554579053"><ele>774.0</ele><time>2026-04-04T07:58:40Z</time></trkpt><trkpt lat="41.38589453577315" lon="14.375144264180971"><ele>776.0</ele><time>2026-04-04T07:58:41Z</time></trkpt><trkpt lat="41.385901144094795" lon="14.375039016044823"><ele>778.0</ele><time>2026-04-04T07:58:42Z</time></trkpt><trkpt lat="41.385889431363125" lon="14.374913248916076"><ele>780.0</ele><time>2026-04-04T07:58:43Z</time></trkpt><trkpt lat="41.38590645893128" lon="14.374776595292714"><ele>782.0</ele><time>2026-04-04T07:58:44Z</time></trkpt><trkpt lat="41.38592237309748" lon="14.374608889910322"><ele>783.0</ele><time>2026-04-04T07:58:45Z</time></trkpt><trkpt lat="41.38593531471076" lon="14.374435622778641"><ele>784.0</ele><time>2026-04-04T07:58:46Z</time></trkpt><trkpt lat="41.38596382155366" lon="14.37425527876914"><ele>785.0</ele><time>2026-04-04T07:58:47Z</time></trkpt><trkpt lat="41.38597136928531" lon="14.374072853943643"><ele>786.0</ele><time>2026-04-04T07:58:48Z</time></trkpt><trkpt lat="41.38597540243409" lon="14.37388363416912"><ele>787.0</ele><time>2026-04-04T07:58:49Z</time></trkpt><trkpt lat="41.385982385841075" lon="14.373693012492476"><ele>788.0</ele><time>2026-04-04T07:58:50Z</time></trkpt><trkpt lat="41.38599430948392" lon="14.373497520319184"><ele>789.0</ele><time>2026-04-04T07:58:51Z</time></trkpt><trkpt lat="41.386014635689214" lon="14.37330284547654"><ele>790.0</ele><time>2026-04-04T07:58:52Z</time></trkpt><trkpt lat="41.386035245414554" lon="14.373112107408996"><ele>787.25</ele><time>2026-04-04T07:58:53Z</time></trkpt><trkpt lat="41.38605057836687" lon="14.372947906653266"><ele>784.5</ele><time>2026-04-04T07:58:54Z</time></trkpt><trkpt lat="41.38606026194835" lon="14.3728095123615"><ele>781.75</ele><time>2026-04-04T07:58:55Z</time></trkpt><trkpt lat="41.38612340524457" lon="14.372680523030608"><ele>779.0</ele><time>2026-04-04T07:58:56Z</time></trkpt><trkpt lat="41.38621630421924" lon="14.372552642407994"><ele>779.0</ele><time>2026-04-04T07:58:57Z</time></trkpt><trkpt lat="41.386311969583005" lon="14.372404515567355"><ele>779.0</ele><time>2026-04-04T07:58:58Z</time></trkpt><trkpt lat="41.386396962486465" lon="14.372239611100442"><ele>779.0</ele><time>2026-04-04T07:58:59Z</time></trkpt><trkpt lat="41.38646714159014" lon="14.372058521018415"><ele>789.3333333333334</ele><time>2026-04-04T07:59:00Z</time></trkpt><trkpt lat="41.386522501343194" lon="14.371870300014022"><ele>799.6666666666667</ele><time>2026-04-04T07:59:01Z</time></trkpt><trkpt lat="41.38658340214387" lon="14.37168070320151"><ele>810.0</ele><time>2026-04-04T07:59:02Z</time></trkpt><trkpt lat="41.386648429953716" lon="14.371497204908133"><ele>807.0</ele><time>2026-04-04T07:59:03Z</time></trkpt><trkpt lat="41.38670728239944" lon="14.37131195153016"><ele>804.0</ele><time>2026-04-04T07:59:04Z</time></trkpt><trkpt lat="41.38675808603405" lon="14.371123669859111"><ele>801.0</ele><time>2026-04-04T07:59:05Z</time></trkpt><trkpt lat="41.38681893076512" lon="14.370943437865508"><ele>798.0</ele><time>2026-04-04T07:59:06Z</time></trkpt><trkpt lat="41.386867543775786" lon="14.37075441018665"><ele>798.0</ele><time>2026-04-04T07:59:07Z</time></trkpt><trkpt lat="41.38691722336533" lon="14.370573425053072"><ele>798.0</ele><time>2026-04-04T07:59:08Z</time></trkpt><trkpt lat="41.38696785582854" lon="14.37039728445804"><ele>798.0</ele><time>2026-04-04T07:59:09Z</time></trkpt><trkpt lat="41.387048929481075" lon="14.370242430301568"><ele>798.0</ele><time>2026-04-04T07:59:10Z</time></trkpt><trkpt lat="41.38713556523729" lon="14.370098403916835"><ele>802.75</ele><time>2026-04-04T07:59:11Z</time></trkpt><trkpt lat="41.387230342005864" lon="14.36995320334693"><ele>807.5</ele><time>2026-04-04T07:59:12Z</time></trkpt><trkpt lat="41.38731988698291" lon="14.369807943728542"><ele>812.25</ele><time>2026-04-04T07:59:13Z</time></trkpt><trkpt lat="41.38738986689197" lon="14.369647198655818"><ele>817.0</ele><time>2026-04-04T07:59:14Z</time></trkpt><trkpt lat="41.38743823676711" lon="14.369491727385773"><ele>817.0</ele><time>2026-04-04T07:59:15Z</time></trkpt><trkpt lat="41.38747944940606" lon="14.369370890453096"><ele>817.0</ele><time>2026-04-04T07:59:16Z</time></trkpt><trkpt lat="41.387526806791996" lon="14.369303671227712"><ele>817.0</ele><time>2026-04-04T07:59:17Z</time></trkpt><trkpt lat="41.38764357991288" lon="14.369328754430244"><ele>817.0</ele><time>2026-04-04T07:59:19Z</time></trkpt><trkpt lat="41.387677321184775" lon="14.369428126840841"><ele>817.0</ele><time>2026-04-04T07:59:20Z</time></trkpt><trkpt lat="41.387645583454436" lon="14.369549088687481"><ele>817.0</ele><time>2026-04-04T07:59:21Z</time></trkpt><trkpt lat="41.38756591008668" lon="14.369677463984578"><ele>817.0</ele><time>2026-04-04T07:59:22Z</time></trkpt><trkpt lat="41.38746629747738" lon="14.369842487768194"><ele>817.0</ele><time>2026-04-04T07:59:23Z</time></trkpt><trkpt lat="41.38737968211173" lon="14.370011073535336"><ele>817.0</ele><time>2026-04-04T07:59:24Z</time></trkpt><trkpt lat="41.38729278409058" lon="14.370185453670242"><ele>821.0</ele><time>2026-04-04T07:59:25Z</time></trkpt><trkpt lat="41.387203546424864" lon="14.370360071737887"><ele>825.0</ele><time>2026-04-04T07:59:26Z</time></trkpt><trkpt lat="41.38711792369326" lon="14.370533539909284"><ele>829.0</ele><time>2026-04-04T07:59:27Z</time></trkpt><trkpt lat="41.387066039437485" lon="14.370749200562388"><ele>822.6666666666666</ele><time>2026-04-04T07:59:28Z</time></trkpt><trkpt lat="41.38702649364514" lon="14.371024623343995"><ele>816.3333333333333</ele><time>2026-04-04T07:59:29Z</time></trkpt><trkpt lat="41.38699440151896" lon="14.371326674154712"><ele>810.0</ele><time>2026-04-04T07:59:30Z</time></trkpt><trkpt lat="41.38696019008199" lon="14.371613522251103"><ele>810.0</ele><time>2026-04-04T07:59:31Z</time></trkpt><trkpt lat="41.38692950768793" lon="14.371893477362704"><ele>810.0</ele><time>2026-04-04T07:59:32Z</time></trkpt><trkpt lat="41.386874453371604" lon="14.372198028106267"><ele>810.0</ele><time>2026-04-04T07:59:33Z</time></trkpt><trkpt lat="41.386811765079614" lon="14.372465617591109"><ele>814.6666666666667</ele><time>2026-04-04T07:59:34Z</time></trkpt><trkpt lat="41.38674508020616" lon="14.372692953007537"><ele>819.3333333333334</ele><time>2026-04-04T07:59:35Z</time></trkpt><trkpt lat="41.38670206166103" lon="14.372896885240522"><ele>824.0</ele><time>2026-04-04T07:59:36Z</time></trkpt><trkpt lat="41.38667993561003" lon="14.373105301172089"><ele>828.0</ele><time>2026-04-04T07:59:37Z</time></trkpt><trkpt lat="41.38667758127162" lon="14.373320068244224"><ele>832.0</ele><time>2026-04-04T07:59:38Z</time></trkpt><trkpt lat="41.386693016653155" lon="14.373543222790806"><ele>836.0</ele><time>2026-04-04T07:59:39Z</time></trkpt><trkpt lat="41.38672595056077" lon="14.37376522449057"><ele>835.6666666666667</ele><time>2026-04-04T07:59:40Z</time></trkpt><trkpt lat="41.38676009779092" lon="14.374005878575803"><ele>835.3333333333333</ele><time>2026-04-04T07:59:41Z</time></trkpt><trkpt lat="41.38678823707064" lon="14.374262093645042"><ele>835.0</ele><time>2026-04-04T07:59:42Z</time></trkpt><trkpt lat="41.38681516549946" lon="14.374532210612582"><ele>833.6666666666666</ele><time>2026-04-04T07:59:43Z</time></trkpt><trkpt lat="41.38684165058471" lon="14.374780769541939"><ele>832.3333333333333</ele><time>2026-04-04T07:59:44Z</time></trkpt><trkpt lat="41.38686584311634" lon="14.37498194505899"><ele>831.0</ele><time>2026-04-04T07:59:45Z</time></trkpt><trkpt lat="41.3868894096611" lon="14.375156160488327"><ele>831.0</ele><time>2026-04-04T07:59:46Z</time></trkpt><trkpt lat="41.386932153445905" lon="14.375340405702362"><ele>831.0</ele><time>2026-04-04T07:59:47Z</time></trkpt><trkpt lat="41.3870085434977" lon="14.375535906412193"><ele>831.0</ele><time>2026-04-04T07:59:48Z</time></trkpt><trkpt lat="41.38710155886702" lon="14.375743309090545"><ele>840.3333333333333</ele><time>2026-04-04T07:59:49Z</time></trkpt><trkpt lat="41.387184852443966" lon="14.375971679102584"><ele>849.6666666666666</ele><time>2026-04-04T07:59:50Z</time></trkpt><trkpt lat="41.387246127259765" lon="14.376218128782122"><ele>859.0</ele><time>2026-04-04T07:59:51Z</time></trkpt><trkpt lat="41.3872828433678" lon="14.376475163273964"><ele>859.0</ele><time>2026-04-04T07:59:52Z</time></trkpt><trkpt lat="41.387317365034306" lon="14.376720467862445"><ele>859.0</ele><time>2026-04-04T07:59:53Z</time></trkpt><trkpt lat="41.387379734913495" lon="14.376946521975164"><ele>859.0</ele><time>2026-04-04T07:59:54Z</time></trkpt><trkpt lat="41.38745965659736" lon="14.377140973697594"><ele>858.25</ele><time>2026-04-04T07:59:55Z</time></trkpt><trkpt lat="41.38752476720783" lon="14.3773014106672"><ele>857.5</ele><time>2026-04-04T07:59:55.999Z</time></trkpt><trkpt lat="41.38759499629255" lon="14.377433487873185"><ele>856.75</ele><time>2026-04-04T07:59:56.999Z</time></trkpt><trkpt lat="41.3876786020081" lon="14.377562679036036"><ele>856.0</ele><time>2026-04-04T07:59:57.999Z</time></trkpt><trkpt lat="41.387769401897366" lon="14.377706457523487"><ele>856.0</ele><time>2026-04-04T07:59:58.999Z</time></trkpt><trkpt lat="41.38786761710031" lon="14.377868537939102"><ele>856.0</ele><time>2026-04-04T07:59:59.999Z</time></trkpt><trkpt lat="41.387970947602184" lon="14.378038025926806"><ele>856.0</ele><time>2026-04-04T08:00:00.999Z</time></trkpt><trkpt lat="41.388077249209985" lon="14.378226215777254"><ele>856.6666666666666</ele><time>2026-04-04T08:00:01.999Z</time></trkpt><trkpt lat="41.38818198493816" lon="14.37842068962197"><ele>857.3333333333333</ele><time>2026-04-04T08:00:02.999Z</time></trkpt><trkpt lat="41.388295403341615" lon="14.378621171908371"><ele>858.0</ele><time>2026-04-04T08:00:03.999Z</time></trkpt><trkpt lat="41.38841309124278" lon="14.378817285202244"><ele>857.3333333333333</ele><time>2026-04-04T08:00:04.999Z</time></trkpt><trkpt lat="41.38853128608347" lon="14.379018591945188"><ele>856.6666666666666</ele><time>2026-04-04T08:00:05.999Z</time></trkpt><trkpt lat="41.38865638421198" lon="14.379233172870896"><ele>856.0</ele><time>2026-04-04T08:00:06.999Z</time></trkpt><trkpt lat="41.38878003660727" lon="14.37945250118602"><ele>855.3333333333333</ele><time>2026-04-04T08:00:07.999Z</time></trkpt><trkpt lat="41.38889999014704" lon="14.379664015470075"><ele>854.6666666666667</ele><time>2026-04-04T08:00:08.999Z</time></trkpt><trkpt lat="41.38901463574177" lon="14.379860427496792"><ele>854.0</ele><time>2026-04-04T08:00:09.999Z</time></trkpt><trkpt lat="41.3891233689429" lon="14.380044965296875"><ele>854.0</ele><time>2026-04-04T08:00:10.999Z</time></trkpt><trkpt lat="41.38921617128918" lon="14.38021660931601"><ele>854.0</ele><time>2026-04-04T08:00:12Z</time></trkpt><trkpt lat="41.38928932383343" lon="14.380382610279787"><ele>854.0</ele><time>2026-04-04T08:00:13Z</time></trkpt><trkpt lat="41.38932848060772" lon="14.380556249804396"><ele>854.0</ele><time>2026-04-04T08:00:14Z</time></trkpt><trkpt lat="41.38931547361219" lon="14.38073056676918"><ele>853.75</ele><time>2026-04-04T08:00:15Z</time></trkpt><trkpt lat="41.389239113486674" lon="14.380874778275059"><ele>853.5</ele><time>2026-04-04T08:00:16Z</time></trkpt><trkpt lat="41.38913740749485" lon="14.380986424016623"><ele>853.25</ele><time>2026-04-04T08:00:17Z</time></trkpt><trkpt lat="41.38904058503329" lon="14.381131527162568"><ele>853.0</ele><time>2026-04-04T08:00:18Z</time></trkpt><trkpt lat="41.38892689769813" lon="14.381269900682634"><ele>848.6666666666666</ele><time>2026-04-04T08:00:19Z</time></trkpt><trkpt lat="41.38881926688627" lon="14.381430438782806"><ele>844.3333333333333</ele><time>2026-04-04T08:00:20Z</time></trkpt><trkpt lat="41.388718472257416" lon="14.381606307960885"><ele>840.0</ele><time>2026-04-04T08:00:21Z</time></trkpt><trkpt lat="41.38863816091688" lon="14.381791109698373"><ele>840.0</ele><time>2026-04-04T08:00:22Z</time></trkpt><trkpt lat="41.388578591723" lon="14.381960041323104"><ele>840.0</ele><time>2026-04-04T08:00:23Z</time></trkpt><trkpt lat="41.388549195043126" lon="14.382113867204895"><ele>840.0</ele><time>2026-04-04T08:00:24Z</time></trkpt><trkpt lat="41.38856198663779" lon="14.38225905386466"><ele>840.0</ele><time>2026-04-04T08:00:25Z</time></trkpt><trkpt lat="41.38862047333803" lon="14.382402828676929"><ele>840.25</ele><time>2026-04-04T08:00:26Z</time></trkpt><trkpt lat="41.3887110611486" lon="14.38254288243988"><ele>840.5</ele><time>2026-04-04T08:00:27Z</time></trkpt><trkpt lat="41.38880588234108" lon="14.382690909186657"><ele>840.75</ele><time>2026-04-04T08:00:28Z</time></trkpt><trkpt lat="41.38887538132419" lon="14.382847414487347"><ele>841.0</ele><time>2026-04-04T08:00:29Z</time></trkpt><trkpt lat="41.38897668193906" lon="14.382995033355195"><ele>839.8</ele><time>2026-04-04T08:00:30Z</time></trkpt><trkpt lat="41.38890519478028" lon="14.383196078160074"><ele>838.5999999999999</ele><time>2026-04-04T08:00:31Z</time></trkpt><trkpt lat="41.38889444052885" lon="14.383316593169356"><ele>837.4</ele><time>2026-04-04T08:00:32Z</time></trkpt><trkpt lat="41.388860455103575" lon="14.38340096005797"><ele>836.2</ele><time>2026-04-04T08:00:33Z</time></trkpt><trkpt lat="41.38879166566895" lon="14.383462391537348"><ele>835.0</ele><time>2026-04-04T08:00:34Z</time></trkpt><trkpt lat="41.388698284194376" lon="14.383510215099522"><ele>835.0</ele><time>2026-04-04T08:00:35Z</time></trkpt><trkpt lat="41.38862955926756" lon="14.38360047213204"><ele>835.0</ele><time>2026-04-04T08:00:36Z</time></trkpt><trkpt lat="41.38860395844842" lon="14.383739590300797"><ele>835.0</ele><time>2026-04-04T08:00:37Z</time></trkpt><trkpt lat="41.388591671772915" lon="14.38390763920435"><ele>835.0</ele><time>2026-04-04T08:00:38Z</time></trkpt><trkpt lat="41.38852856810164" lon="14.384042339836189"><ele>841.3333333333333</ele><time>2026-04-04T08:00:39Z</time></trkpt><trkpt lat="41.38841970216725" lon="14.384195599780549"><ele>847.6666666666667</ele><time>2026-04-04T08:00:40Z</time></trkpt><trkpt lat="41.38829860312093" lon="14.384368481183694"><ele>854.0</ele><time>2026-04-04T08:00:41Z</time></trkpt><trkpt lat="41.38817281911643" lon="14.384554700183182"><ele>860.75</ele><time>2026-04-04T08:00:42Z</time></trkpt><trkpt lat="41.38809080695917" lon="14.384695415913466"><ele>867.5</ele><time>2026-04-04T08:00:43Z</time></trkpt><trkpt lat="41.38805441320542" lon="14.384804125648715"><ele>874.25</ele><time>2026-04-04T08:00:44Z</time></trkpt><trkpt lat="41.388053951276525" lon="14.384956149981111"><ele>881.0</ele><time>2026-04-04T08:00:45Z</time></trkpt><trkpt lat="41.38809596822404" lon="14.385115581458942"><ele>881.0</ele><time>2026-04-04T08:00:46Z</time></trkpt><trkpt lat="41.38811784024286" lon="14.385248409657153"><ele>880.9999999999999</ele><time>2026-04-04T08:00:47Z</time></trkpt><trkpt lat="41.38807399048508" lon="14.385334823576436"><ele>880.9999999999999</ele><time>2026-04-04T08:00:48Z</time></trkpt><trkpt lat="41.3879659171223" lon="14.385383159437623"><ele>881.0</ele><time>2026-04-04T08:00:49Z</time></trkpt><trkpt lat="41.38783772412622" lon="14.38540671615125"><ele>881.0</ele><time>2026-04-04T08:00:50Z</time></trkpt><trkpt lat="41.387712695245405" lon="14.385457310964892"><ele>879.0</ele><time>2026-04-04T08:00:51Z</time></trkpt><trkpt lat="41.387619210056364" lon="14.385524666095955"><ele>877.0</ele><time>2026-04-04T08:00:52Z</time></trkpt><trkpt lat="41.38755490905574" lon="14.385662566166578"><ele>875.0</ele><time>2026-04-04T08:00:53Z</time></trkpt><trkpt lat="41.38748700778539" lon="14.385835144955337"><ele>873.0</ele><time>2026-04-04T08:00:54Z</time></trkpt><trkpt lat="41.387424965228284" lon="14.386027011443698"><ele>873.0</ele><time>2026-04-04T08:00:55Z</time></trkpt><trkpt lat="41.38737498754213" lon="14.386248872996292"><ele>873.0</ele><time>2026-04-04T08:00:56Z</time></trkpt><trkpt lat="41.38733041280502" lon="14.386464447440044"><ele>873.0</ele><time>2026-04-04T08:00:57Z</time></trkpt><trkpt lat="41.38728713084342" lon="14.386685234271418"><ele>877.0</ele><time>2026-04-04T08:00:58Z</time></trkpt><trkpt lat="41.38727943033884" lon="14.386898118447641"><ele>881.0</ele><time>2026-04-04T08:00:59Z</time></trkpt><trkpt lat="41.38730795846331" lon="14.387163779297799"><ele>885.0</ele><time>2026-04-04T08:01:00Z</time></trkpt><trkpt lat="41.3873298451551" lon="14.387405338224651"><ele>886.75</ele><time>2026-04-04T08:01:01Z</time></trkpt><trkpt lat="41.387339692020646" lon="14.38755320809034"><ele>888.5</ele><time>2026-04-04T08:01:02Z</time></trkpt><trkpt lat="41.38724713046005" lon="14.387679797700619"><ele>890.25</ele><time>2026-04-04T08:01:04Z</time></trkpt><trkpt lat="41.387130549700075" lon="14.387715901417302"><ele>892.0</ele><time>2026-04-04T08:01:05Z</time></trkpt><trkpt lat="41.38699798401026" lon="14.387809379084082"><ele>890.25</ele><time>2026-04-04T08:01:06Z</time></trkpt><trkpt lat="41.386868313887106" lon="14.387842106957835"><ele>888.5</ele><time>2026-04-04T08:01:07Z</time></trkpt><trkpt lat="41.386732924307566" lon="14.387860440125278"><ele>886.75</ele><time>2026-04-04T08:01:08Z</time></trkpt><trkpt lat="41.386633363460525" lon="14.387905473606484"><ele>885.0</ele><time>2026-04-04T08:01:09Z</time></trkpt><trkpt lat="41.38659349806709" lon="14.388012222620022"><ele>885.0</ele><time>2026-04-04T08:01:10Z</time></trkpt><trkpt lat="41.38657983571253" lon="14.388156163594108"><ele>885.0</ele><time>2026-04-04T08:01:11Z</time></trkpt><trkpt lat="41.386592864282214" lon="14.388365914464485"><ele>885.0</ele><time>2026-04-04T08:01:12Z</time></trkpt><trkpt lat="41.386611580145306" lon="14.38860451864777"><ele>885.0</ele><time>2026-04-04T08:01:13Z</time></trkpt><trkpt lat="41.386652845260464" lon="14.388837193741569"><ele>886.0</ele><time>2026-04-04T08:01:14Z</time></trkpt><trkpt lat="41.386716279812255" lon="14.388994492191921"><ele>887.0</ele><time>2026-04-04T08:01:15Z</time></trkpt><trkpt lat="41.38671681758717" lon="14.389138137258415"><ele>888.0</ele><time>2026-04-04T08:01:16Z</time></trkpt><trkpt lat="41.38664915437528" lon="14.38923993418396"><ele>889.0</ele><time>2026-04-04T08:01:17Z</time></trkpt><trkpt lat="41.386583966827935" lon="14.389419186206162"><ele>889.6666666666666</ele><time>2026-04-04T08:01:18Z</time></trkpt><trkpt lat="41.38654984224141" lon="14.389679640967552"><ele>890.3333333333333</ele><time>2026-04-04T08:01:19Z</time></trkpt><trkpt lat="41.38652591581533" lon="14.389908639458772"><ele>891.0</ele><time>2026-04-04T08:01:20Z</time></trkpt><trkpt lat="41.38652724126107" lon="14.390088494410199"><ele>891.0</ele><time>2026-04-04T08:01:21Z</time></trkpt><trkpt lat="41.38654822621269" lon="14.390210954622125"><ele>890.9999999999999</ele><time>2026-04-04T08:01:22Z</time></trkpt><trkpt lat="41.38660718560839" lon="14.390309861045058"><ele>890.9999999999999</ele><time>2026-04-04T08:01:23Z</time></trkpt><trkpt lat="41.386699095374325" lon="14.390340435029639"><ele>891.0</ele><time>2026-04-04T08:01:24Z</time></trkpt><trkpt lat="41.386802224090175" lon="14.390310142959098"><ele>891.0</ele><time>2026-04-04T08:01:25Z</time></trkpt><trkpt lat="41.386932633817764" lon="14.390335589049318"><ele>891.0</ele><time>2026-04-04T08:01:26Z</time></trkpt><trkpt lat="41.38703956203742" lon="14.390417344812116"><ele>891.0</ele><time>2026-04-04T08:01:27Z</time></trkpt><trkpt lat="41.38713755712187" lon="14.390537518917998"><ele>891.0</ele><time>2026-04-04T08:01:28Z</time></trkpt><trkpt lat="41.38724186817072" lon="14.390651206641012"><ele>891.0</ele><time>2026-04-04T08:01:29Z</time></trkpt><trkpt lat="41.387354973630785" lon="14.390747271052252"><ele>893.5</ele><time>2026-04-04T08:01:30Z</time></trkpt><trkpt lat="41.38747214130225" lon="14.390815934301216"><ele>896.0</ele><time>2026-04-04T08:01:31Z</time></trkpt><trkpt lat="41.38759475440347" lon="14.390852828679066"><ele>898.5</ele><time>2026-04-04T08:01:32Z</time></trkpt><trkpt lat="41.387715000930534" lon="14.390875594961898"><ele>901.0</ele><time>2026-04-04T08:01:33Z</time></trkpt><trkpt lat="41.38782672120829" lon="14.390913445393322"><ele>901.0</ele><time>2026-04-04T08:01:34Z</time></trkpt><trkpt lat="41.38793372904365" lon="14.390961721379137"><ele>900.9999999999999</ele><time>2026-04-04T08:01:35Z</time></trkpt><trkpt lat="41.388035952760106" lon="14.391035409226824"><ele>900.9999999999999</ele><time>2026-04-04T08:01:36Z</time></trkpt><trkpt lat="41.38811174381586" lon="14.391141502908598"><ele>901.0</ele><time>2026-04-04T08:01:37Z</time></trkpt><trkpt lat="41.38815543611293" lon="14.39126424398573"><ele>901.0</ele><time>2026-04-04T08:01:38Z</time></trkpt><trkpt lat="41.388166477179794" lon="14.391383199897286"><ele>899.8</ele><time>2026-04-04T08:01:39Z</time></trkpt><trkpt lat="41.38814806257845" lon="14.391493585943442"><ele>898.5999999999999</ele><time>2026-04-04T08:01:40Z</time></trkpt><trkpt lat="41.38805354204972" lon="14.391542447437851"><ele>897.4</ele><time>2026-04-04T08:01:41Z</time></trkpt><trkpt lat="41.387983428699854" lon="14.391628874902997"><ele>896.2</ele><time>2026-04-04T08:01:42Z</time></trkpt><trkpt lat="41.38790357532255" lon="14.39172412652959"><ele>895.0</ele><time>2026-04-04T08:01:43Z</time></trkpt><trkpt lat="41.38782587262809" lon="14.391841271506884"><ele>895.0</ele><time>2026-04-04T08:01:44Z</time></trkpt><trkpt lat="41.38772794509606" lon="14.391950377706268"><ele>895.0</ele><time>2026-04-04T08:01:45Z</time></trkpt><trkpt lat="41.387634441775035" lon="14.392116111696192"><ele>895.0</ele><time>2026-04-04T08:01:46Z</time></trkpt><trkpt lat="41.3875326338729" lon="14.392286668962697"><ele>895.0</ele><time>2026-04-04T08:01:47Z</time></trkpt><trkpt lat="41.38746444296148" lon="14.392449734054983"><ele>898.5</ele><time>2026-04-04T08:01:48Z</time></trkpt><trkpt lat="41.38745523745694" lon="14.392645312857097"><ele>902.0</ele><time>2026-04-04T08:01:49Z</time></trkpt><trkpt lat="41.38746259683548" lon="14.392818192985297"><ele>905.5</ele><time>2026-04-04T08:01:50Z</time></trkpt><trkpt lat="41.38750411813525" lon="14.392986354508807"><ele>909.0</ele><time>2026-04-04T08:01:51Z</time></trkpt><trkpt lat="41.38755685449493" lon="14.393177129109898"><ele>911.6666666666667</ele><time>2026-04-04T08:01:52Z</time></trkpt><trkpt lat="41.387591194889104" lon="14.393413710829108"><ele>914.3333333333334</ele><time>2026-04-04T08:01:53Z</time></trkpt><trkpt lat="41.387594232111375" lon="14.393672543221413"><ele>917.0</ele><time>2026-04-04T08:01:54Z</time></trkpt><trkpt lat="41.38759778104983" lon="14.393960280741018"><ele>917.3333333333334</ele><time>2026-04-04T08:01:55Z</time></trkpt><trkpt lat="41.38760790043102" lon="14.394251972415468"><ele>917.6666666666667</ele><time>2026-04-04T08:01:56Z</time></trkpt><trkpt lat="41.38760780459441" lon="14.394511990221089"><ele>918.0</ele><time>2026-04-04T08:01:57Z</time></trkpt><trkpt lat="41.38763038499947" lon="14.394772086944013"><ele>918.5</ele><time>2026-04-04T08:01:58Z</time></trkpt><trkpt lat="41.387642631219904" lon="14.394970477957951"><ele>919.0</ele><time>2026-04-04T08:01:59Z</time></trkpt><trkpt lat="41.38767203248801" lon="14.395138715873573"><ele>919.5</ele><time>2026-04-04T08:02:00Z</time></trkpt><trkpt lat="41.38773993186859" lon="14.395307595158998"><ele>920.0</ele><time>2026-04-04T08:02:01Z</time></trkpt><trkpt lat="41.387840782551656" lon="14.395470226743393"><ele>918.75</ele><time>2026-04-04T08:02:02Z</time></trkpt><trkpt lat="41.38793469804751" lon="14.395624228446342"><ele>917.5</ele><time>2026-04-04T08:02:03Z</time></trkpt><trkpt lat="41.387982064006586" lon="14.395785422910082"><ele>916.25</ele><time>2026-04-04T08:02:04Z</time></trkpt><trkpt lat="41.38798625807491" lon="14.395969491717949"><ele>915.0</ele><time>2026-04-04T08:02:05Z</time></trkpt><trkpt lat="41.38795594354164" lon="14.396169230518149"><ele>915.6666666666667</ele><time>2026-04-04T08:02:06Z</time></trkpt><trkpt lat="41.38790068749617" lon="14.396383054468798"><ele>916.3333333333334</ele><time>2026-04-04T08:02:07Z</time></trkpt><trkpt lat="41.38784296016635" lon="14.396600453765226"><ele>917.0</ele><time>2026-04-04T08:02:08Z</time></trkpt><trkpt lat="41.38781581083023" lon="14.396840623994489"><ele>917.0</ele><time>2026-04-04T08:02:09Z</time></trkpt><trkpt lat="41.38782224973552" lon="14.397136697890094"><ele>917.0</ele><time>2026-04-04T08:02:10Z</time></trkpt><trkpt lat="41.38784072482335" lon="14.397478358484221"><ele>919.5</ele><time>2026-04-04T08:02:11Z</time></trkpt><trkpt lat="41.38786006086253" lon="14.397870026723487"><ele>922.0</ele><time>2026-04-04T08:02:12Z</time></trkpt><trkpt lat="41.38783910248925" lon="14.39826491818856"><ele>924.5</ele><time>2026-04-04T08:02:13Z</time></trkpt><trkpt lat="41.38780980502719" lon="14.398563996132003"><ele>927.0</ele><time>2026-04-04T08:02:14Z</time></trkpt><trkpt lat="41.38777860473646" lon="14.398913539673554"><ele>929.6666666666667</ele><time>2026-04-04T08:02:15Z</time></trkpt><trkpt lat="41.387758403266474" lon="14.399032300108155"><ele>932.3333333333334</ele><time>2026-04-04T08:02:16Z</time></trkpt><trkpt lat="41.38769579112423" lon="14.399302597902048"><ele>935.0</ele><time>2026-04-04T08:02:17Z</time></trkpt><trkpt lat="41.387622849472855" lon="14.399573804408535"><ele>938.3333333333334</ele><time>2026-04-04T08:02:18Z</time></trkpt><trkpt lat="41.38755491981687" lon="14.399838335186267"><ele>941.6666666666667</ele><time>2026-04-04T08:02:19Z</time></trkpt><trkpt lat="41.38750641520264" lon="14.40010701797434"><ele>945.0</ele><time>2026-04-04T08:02:20Z</time></trkpt><trkpt lat="41.387470453704324" lon="14.400380031633539"><ele>947.0</ele><time>2026-04-04T08:02:21Z</time></trkpt><trkpt lat="41.38743432374097" lon="14.40067330946867"><ele>949.0</ele><time>2026-04-04T08:02:22Z</time></trkpt><trkpt lat="41.38740912645589" lon="14.400954050366266"><ele>951.0</ele><time>2026-04-04T08:02:23Z</time></trkpt><trkpt lat="41.38739150635634" lon="14.401158045518923"><ele>951.0</ele><time>2026-04-04T08:02:24Z</time></trkpt><trkpt lat="41.387392944426914" lon="14.401289318167946"><ele>950.9999999999999</ele><time>2026-04-04T08:02:25Z</time></trkpt><trkpt lat="41.38741435320077" lon="14.401399666075465"><ele>950.9999999999999</ele><time>2026-04-04T08:02:26Z</time></trkpt><trkpt lat="41.387491241427476" lon="14.401505012081262"><ele>951.0</ele><time>2026-04-04T08:02:27Z</time></trkpt><trkpt lat="41.38755895186864" lon="14.401643120452627"><ele>951.0</ele><time>2026-04-04T08:02:28Z</time></trkpt><trkpt lat="41.38762519206152" lon="14.401818185049994"><ele>952.0</ele><time>2026-04-04T08:02:29Z</time></trkpt><trkpt lat="41.38765580159589" lon="14.402074721275296"><ele>953.0</ele><time>2026-04-04T08:02:30Z</time></trkpt><trkpt lat="41.38766304620225" lon="14.402366341453646"><ele>954.0</ele><time>2026-04-04T08:02:31Z</time></trkpt><trkpt lat="41.387638045944264" lon="14.402667889851063"><ele>958.5</ele><time>2026-04-04T08:02:32Z</time></trkpt><trkpt lat="41.38760154989442" lon="14.403003129917241"><ele>963.0</ele><time>2026-04-04T08:02:33Z</time></trkpt><trkpt lat="41.38759642112593" lon="14.403348489451911"><ele>963.0</ele><time>2026-04-04T08:02:34Z</time></trkpt><trkpt lat="41.38760217176258" lon="14.403653311289533"><ele>963.0</ele><time>2026-04-04T08:02:35Z</time></trkpt><trkpt lat="41.38755027821024" lon="14.403903845718713"><ele>963.0</ele><time>2026-04-04T08:02:36Z</time></trkpt><trkpt lat="41.38751912595874" lon="14.404087467088805"><ele>964.25</ele><time>2026-04-04T08:02:37Z</time></trkpt><trkpt lat="41.38749049733997" lon="14.404221019581271"><ele>965.5</ele><time>2026-04-04T08:02:38Z</time></trkpt><trkpt lat="41.38750771429858" lon="14.404374910787233"><ele>966.75</ele><time>2026-04-04T08:02:39Z</time></trkpt><trkpt lat="41.38757343737234" lon="14.404583823552521"><ele>968.0</ele><time>2026-04-04T08:02:40Z</time></trkpt><trkpt lat="41.38762839185085" lon="14.404823315210628"><ele>968.3333333333334</ele><time>2026-04-04T08:02:41Z</time></trkpt><trkpt lat="41.38760512562968" lon="14.405053101530957"><ele>968.6666666666667</ele><time>2026-04-04T08:02:42Z</time></trkpt><trkpt lat="41.38757714989723" lon="14.405291639931892"><ele>969.0</ele><time>2026-04-04T08:02:43Z</time></trkpt><trkpt lat="41.38754219567669" lon="14.40545718823756"><ele>970.5</ele><time>2026-04-04T08:02:44Z</time></trkpt><trkpt lat="41.38755104954567" lon="14.405596876701782"><ele>972.0</ele><time>2026-04-04T08:02:45Z</time></trkpt><trkpt lat="41.38760386620242" lon="14.405778481477"><ele>973.5</ele><time>2026-04-04T08:02:46Z</time></trkpt><trkpt lat="41.38762484980293" lon="14.405964226507047"><ele>975.0</ele><time>2026-04-04T08:02:47Z</time></trkpt><trkpt lat="41.38758510351731" lon="14.406132335450874"><ele>975.0</ele><time>2026-04-04T08:02:48Z</time></trkpt><trkpt lat="41.387484567848546" lon="14.406268621792266"><ele>975.0</ele><time>2026-04-04T08:02:49Z</time></trkpt><trkpt lat="41.38744809855777" lon="14.406394610403986"><ele>975.0</ele><time>2026-04-04T08:02:50Z</time></trkpt><trkpt lat="41.38745330537468" lon="14.406531787864346"><ele>975.0</ele><time>2026-04-04T08:02:51Z</time></trkpt><trkpt lat="41.38752833665499" lon="14.406657485737352"><ele>976.0</ele><time>2026-04-04T08:02:52Z</time></trkpt><trkpt lat="41.387641871403716" lon="14.406772616944327"><ele>977.0</ele><time>2026-04-04T08:02:53Z</time></trkpt><trkpt lat="41.387742578828586" lon="14.406910408440869"><ele>978.0</ele><time>2026-04-04T08:02:54Z</time></trkpt><trkpt lat="41.387765962326036" lon="14.407015915805339"><ele>979.0</ele><time>2026-04-04T08:02:55Z</time></trkpt><trkpt lat="41.38774297903307" lon="14.407095962073765"><ele>980.0</ele><time>2026-04-04T08:02:56Z</time></trkpt><trkpt lat="41.387663698896496" lon="14.407155543942148"><ele>980.4</ele><time>2026-04-04T08:02:57Z</time></trkpt><trkpt lat="41.38760793929307" lon="14.4072755388241"><ele>980.8</ele><time>2026-04-04T08:02:58Z</time></trkpt><trkpt lat="41.387571186853236" lon="14.407421428166243"><ele>981.2</ele><time>2026-04-04T08:02:59Z</time></trkpt><trkpt lat="41.38759188396328" lon="14.40755080314389"><ele>981.6</ele><time>2026-04-04T08:03:00Z</time></trkpt><trkpt lat="41.38765590109608" lon="14.407672487940912"><ele>982.0</ele><time>2026-04-04T08:03:01Z</time></trkpt><trkpt lat="41.387759613365226" lon="14.407777606305762"><ele>982.0</ele><time>2026-04-04T08:03:02Z</time></trkpt><trkpt lat="41.38782033241767" lon="14.40789736383237"><ele>982.0</ele><time>2026-04-04T08:03:03Z</time></trkpt><trkpt lat="41.387820000779136" lon="14.408013625614014"><ele>982.0</ele><time>2026-04-04T08:03:04Z</time></trkpt><trkpt lat="41.38774635831685" lon="14.408127655960403"><ele>982.0</ele><time>2026-04-04T08:03:05Z</time></trkpt><trkpt lat="41.38768009145066" lon="14.408273295548499"><ele>982.0</ele><time>2026-04-04T08:03:06Z</time></trkpt><trkpt lat="41.387619435598076" lon="14.408416150103136"><ele>982.6666666666666</ele><time>2026-04-04T08:03:07Z</time></trkpt><trkpt lat="41.38760173608495" lon="14.408587398825176"><ele>983.3333333333333</ele><time>2026-04-04T08:03:08Z</time></trkpt><trkpt lat="41.38763976565967" lon="14.408786500361964"><ele>984.0</ele><time>2026-04-04T08:03:09Z</time></trkpt><trkpt lat="41.38769301030616" lon="14.409004446983836"><ele>984.5</ele><time>2026-04-04T08:03:10Z</time></trkpt><trkpt lat="41.38774711809152" lon="14.409166361219203"><ele>985.0</ele><time>2026-04-04T08:03:11Z</time></trkpt><trkpt lat="41.387831585460575" lon="14.409264208708462"><ele>985.5</ele><time>2026-04-04T08:03:12Z</time></trkpt><trkpt lat="41.3879170602883" lon="14.40937721994664"><ele>986.0</ele><time>2026-04-04T08:03:13Z</time></trkpt><trkpt lat="41.3879900591784" lon="14.409463515258317"><ele>986.1999999999999</ele><time>2026-04-04T08:03:14Z</time></trkpt><trkpt lat="41.3880255879891" lon="14.409573129352442"><ele>986.3999999999999</ele><time>2026-04-04T08:03:15Z</time></trkpt><trkpt lat="41.38799596529096" lon="14.409699943406245"><ele>986.6</ele><time>2026-04-04T08:03:16Z</time></trkpt><trkpt lat="41.38794603363868" lon="14.409821847890953"><ele>986.8</ele><time>2026-04-04T08:03:17Z</time></trkpt><trkpt lat="41.38793487911854" lon="14.409973974451463"><ele>987.0</ele><time>2026-04-04T08:03:18Z</time></trkpt><trkpt lat="41.38793414872923" lon="14.410119159739043"><ele>987.0</ele><time>2026-04-04T08:03:19Z</time></trkpt><trkpt lat="41.38798026407319" lon="14.410258702721146"><ele>987.0</ele><time>2026-04-04T08:03:20Z</time></trkpt><trkpt lat="41.38807349552367" lon="14.410351777206985"><ele>987.0</ele><time>2026-04-04T08:03:21Z</time></trkpt><trkpt lat="41.388180461998154" lon="14.410405369020038"><ele>987.0</ele><time>2026-04-04T08:03:22Z</time></trkpt><trkpt lat="41.38829673300793" lon="14.410466049058906"><ele>989.0</ele><time>2026-04-04T08:03:23Z</time></trkpt><trkpt lat="41.38837159642387" lon="14.410561788345191"><ele>991.0</ele><time>2026-04-04T08:03:24Z</time></trkpt><trkpt lat="41.38839984248296" lon="14.410687796548793"><ele>993.0</ele><time>2026-04-04T08:03:25Z</time></trkpt><trkpt lat="41.38838439035763" lon="14.410821200697555"><ele>995.0</ele><time>2026-04-04T08:03:26Z</time></trkpt><trkpt lat="41.38838308278789" lon="14.410957889634986"><ele>997.0</ele><time>2026-04-04T08:03:27Z</time></trkpt><trkpt lat="41.38842920480523" lon="14.411051846768219"><ele>997.0</ele><time>2026-04-04T08:03:28Z</time></trkpt><trkpt lat="41.388506080806756" lon="14.41108399302578"><ele>997.0</ele><time>2026-04-04T08:03:29Z</time></trkpt><trkpt lat="41.38858320424976" lon="14.41105462405002"><ele>997.0</ele><time>2026-04-04T08:03:30Z</time></trkpt><trkpt lat="41.38866789887368" lon="14.410971006658247"><ele>997.0</ele><time>2026-04-04T08:03:31Z</time></trkpt><trkpt lat="41.38876740042304" lon="14.410870034925422"><ele>997.0</ele><time>2026-04-04T08:03:32Z</time></trkpt><trkpt lat="41.38888467911392" lon="14.410763494458177"><ele>999.25</ele><time>2026-04-04T08:03:33Z</time></trkpt><trkpt lat="41.389024466646894" lon="14.410664639943436"><ele>1001.5</ele><time>2026-04-04T08:03:34Z</time></trkpt><trkpt lat="41.38910961220744" lon="14.410578256652597"><ele>1003.75</ele><time>2026-04-04T08:03:35Z</time></trkpt><trkpt lat="41.38919198905186" lon="14.410517252531179"><ele>1006.0</ele><time>2026-04-04T08:03:36Z</time></trkpt><trkpt lat="41.389278589462585" lon="14.410482606479103"><ele>1006.0</ele><time>2026-04-04T08:03:37Z</time></trkpt><trkpt lat="41.3893760140473" lon="14.410480121415693"><ele>1005.9999999999999</ele><time>2026-04-04T08:03:38Z</time></trkpt><trkpt lat="41.38946245545685" lon="14.41049890461728"><ele>1005.9999999999999</ele><time>2026-04-04T08:03:39Z</time></trkpt><trkpt lat="41.389531330274856" lon="14.41055582739358"><ele>1006.0</ele><time>2026-04-04T08:03:40Z</time></trkpt><trkpt lat="41.38960498766902" lon="14.410710397835897"><ele>1006.0</ele><time>2026-04-04T08:03:42Z</time></trkpt><trkpt lat="41.389602859502496" lon="14.410800498119297"><ele>1006.0</ele><time>2026-04-04T08:03:43Z</time></trkpt><trkpt lat="41.389598372701364" lon="14.410889890701933"><ele>1005.9999999999999</ele><time>2026-04-04T08:03:44Z</time></trkpt><trkpt lat="41.38960356894498" lon="14.410992395404842"><ele>1005.9999999999999</ele><time>2026-04-04T08:03:45Z</time></trkpt><trkpt lat="41.38961932961646" lon="14.411114531490416"><ele>1006.0</ele><time>2026-04-04T08:03:46Z</time></trkpt><trkpt lat="41.389649240636466" lon="14.41124395498833"><ele>1006.0</ele><time>2026-04-04T08:03:47Z</time></trkpt><trkpt lat="41.38969444806937" lon="14.411381292473905"><ele>1008.4</ele><time>2026-04-04T08:03:48Z</time></trkpt><trkpt lat="41.389746333789724" lon="14.411503521199874"><ele>1010.8</ele><time>2026-04-04T08:03:49Z</time></trkpt><trkpt lat="41.38979339126577" lon="14.411617042306267"><ele>1013.1999999999999</ele><time>2026-04-04T08:03:50Z</time></trkpt><trkpt lat="41.38984592346707" lon="14.411719072979361"><ele>1015.5999999999999</ele><time>2026-04-04T08:03:51Z</time></trkpt><trkpt lat="41.38991105544652" lon="14.411803346424604"><ele>1018.0</ele><time>2026-04-04T08:03:52Z</time></trkpt><trkpt lat="41.38998916059936" lon="14.411879227861963"><ele>1017.9999999999999</ele><time>2026-04-04T08:03:53Z</time></trkpt><trkpt lat="41.39006207162683" lon="14.411929965918644"><ele>1018.0</ele><time>2026-04-04T08:03:54Z</time></trkpt><trkpt lat="41.39013035360294" lon="14.411970113642132"><ele>1018.0</ele><time>2026-04-04T08:03:55Z</time></trkpt><trkpt lat="41.39021490881885" lon="14.412009111879373"><ele>1018.0</ele><time>2026-04-04T08:03:56Z</time></trkpt><trkpt lat="41.39028533198868" lon="14.412079238933519"><ele>1017.9999999999999</ele><time>2026-04-04T08:03:57Z</time></trkpt><trkpt lat="41.39033085079633" lon="14.412160025375899"><ele>1018.0</ele><time>2026-04-04T08:03:58Z</time></trkpt><trkpt lat="41.39034916448785" lon="14.412264445816097"><ele>1015.8333333333333</ele><time>2026-04-04T08:03:59Z</time></trkpt><trkpt lat="41.39033213466626" lon="14.412432543770498"><ele>1013.6666666666666</ele><time>2026-04-04T08:04:01Z</time></trkpt><trkpt lat="41.390312277142044" lon="14.412531748085804"><ele>1011.5</ele><time>2026-04-04T08:04:02Z</time></trkpt><trkpt lat="41.39027806428912" lon="14.412633118496233"><ele>1009.3333333333333</ele><time>2026-04-04T08:04:03Z</time></trkpt><trkpt lat="41.39024698381343" lon="14.412732870958735"><ele>1007.1666666666666</ele><time>2026-04-04T08:04:04Z</time></trkpt><trkpt lat="41.39023469642293" lon="14.412836896145889"><ele>1005.0</ele><time>2026-04-04T08:04:05Z</time></trkpt><trkpt lat="41.39023277097746" lon="14.41293519940408"><ele>1004.5</ele><time>2026-04-04T08:04:06Z</time></trkpt><trkpt lat="41.39025367499695" lon="14.41303640962861"><ele>1004.0</ele><time>2026-04-04T08:04:07Z</time></trkpt><trkpt lat="41.39028781480496" lon="14.41312688282563"><ele>1003.5</ele><time>2026-04-04T08:04:08Z</time></trkpt><trkpt lat="41.39032591324473" lon="14.413214806023745"><ele>1003.0</ele><time>2026-04-04T08:04:09Z</time></trkpt><trkpt lat="41.390373047305644" lon="14.413306076910462"><ele>1002.5</ele><time>2026-04-04T08:04:10Z</time></trkpt><trkpt lat="41.39042469799628" lon="14.413391905841543"><ele>1002.0</ele><time>2026-04-04T08:04:11Z</time></trkpt><trkpt lat="41.39048672313427" lon="14.413463852624036"><ele>1009.75</ele><time>2026-04-04T08:04:12Z</time></trkpt><trkpt lat="41.39057869275451" lon="14.413519937120553"><ele>1017.5</ele><time>2026-04-04T08:04:13Z</time></trkpt><trkpt lat="41.39071267174878" lon="14.41358460810887"><ele>1025.25</ele><time>2026-04-04T08:04:14Z</time></trkpt><trkpt lat="41.39085586749116" lon="14.41365711823394"><ele>1033.0</ele><time>2026-04-04T08:04:15Z</time></trkpt><trkpt lat="41.390973461047004" lon="14.413753644545178"><ele>1030.0</ele><time>2026-04-04T08:04:16Z</time></trkpt><trkpt lat="41.39105692850319" lon="14.413879485969721"><ele>1027.0</ele><time>2026-04-04T08:04:17Z</time></trkpt><trkpt lat="41.391119501788026" lon="14.414038026360268"><ele>1024.0</ele><time>2026-04-04T08:04:18Z</time></trkpt><trkpt lat="41.391202869550916" lon="14.414170213568203"><ele>1021.0</ele><time>2026-04-04T08:04:19Z</time></trkpt><trkpt lat="41.39116620612397" lon="14.414439477321457"><ele>1018.0</ele><time>2026-04-04T08:04:20Z</time></trkpt><trkpt lat="41.391179921129805" lon="14.414671672187549"><ele>1015.0</ele><time>2026-04-04T08:04:21Z</time></trkpt><trkpt lat="41.391205213480134" lon="14.414913495744178"><ele>1012.0</ele><time>2026-04-04T08:04:22Z</time></trkpt><trkpt lat="41.391233980341134" lon="14.415160095036049"><ele>1012.0</ele><time>2026-04-04T08:04:23Z</time></trkpt><trkpt lat="41.39124872262422" lon="14.415422480827324"><ele>1012.0</ele><time>2026-04-04T08:04:24Z</time></trkpt><trkpt lat="41.39125479550658" lon="14.415674857362749"><ele>1012.0</ele><time>2026-04-04T08:04:25Z</time></trkpt><trkpt lat="41.39127712315885" lon="14.415926226934394"><ele>1010.5</ele><time>2026-04-04T08:04:26Z</time></trkpt><trkpt lat="41.391309451118765" lon="14.41614092588929"><ele>1009.0</ele><time>2026-04-04T08:04:27Z</time></trkpt><trkpt lat="41.39134430306272" lon="14.416334328353123"><ele>1007.5</ele><time>2026-04-04T08:04:28Z</time></trkpt><trkpt lat="41.39137678044929" lon="14.416498725562976"><ele>1006.0</ele><time>2026-04-04T08:04:29Z</time></trkpt><trkpt lat="41.39142526828399" lon="14.416659489586308"><ele>1012.25</ele><time>2026-04-04T08:04:30Z</time></trkpt><trkpt lat="41.391492051087255" lon="14.416814360503313"><ele>1018.5</ele><time>2026-04-04T08:04:31Z</time></trkpt><trkpt lat="41.39156628696571" lon="14.416976117674402"><ele>1024.75</ele><time>2026-04-04T08:04:32Z</time></trkpt><trkpt lat="41.39164480386847" lon="14.417135263863868"><ele>1031.0</ele><time>2026-04-04T08:04:33Z</time></trkpt><trkpt lat="41.39171737595937" lon="14.41727092978148"><ele>1031.0</ele><time>2026-04-04T08:04:34Z</time></trkpt><trkpt lat="41.391794269569" lon="14.417366234141047"><ele>1031.0</ele><time>2026-04-04T08:04:35Z</time></trkpt><trkpt lat="41.39188879180449" lon="14.417414087749853"><ele>1031.0</ele><time>2026-04-04T08:04:36Z</time></trkpt><trkpt lat="41.391989151426245" lon="14.417405848656667"><ele>1031.0</ele><time>2026-04-04T08:04:37Z</time></trkpt><trkpt lat="41.392093529598306" lon="14.41737372698952"><ele>1031.0</ele><time>2026-04-04T08:04:38Z</time></trkpt><trkpt lat="41.39219591479288" lon="14.41733594392747"><ele>1034.0</ele><time>2026-04-04T08:04:39Z</time></trkpt><trkpt lat="41.39230094760356" lon="14.417313362932514"><ele>1037.0</ele><time>2026-04-04T08:04:40Z</time></trkpt><trkpt lat="41.39241591886078" lon="14.417300794116922"><ele>1040.0</ele><time>2026-04-04T08:04:41Z</time></trkpt><trkpt lat="41.392550989503235" lon="14.417287238214966"><ele>1043.0</ele><time>2026-04-04T08:04:42Z</time></trkpt><trkpt lat="41.3926934921992" lon="14.417272872695913"><ele>1043.0</ele><time>2026-04-04T08:04:43Z</time></trkpt><trkpt lat="41.392842960005716" lon="14.417250083863546"><ele>1043.0</ele><time>2026-04-04T08:04:44Z</time></trkpt><trkpt lat="41.39299574513011" lon="14.417209272462358"><ele>1043.0</ele><time>2026-04-04T08:04:45Z</time></trkpt><trkpt lat="41.39315699959317" lon="14.417134626478003"><ele>1052.0</ele><time>2026-04-04T08:04:46Z</time></trkpt><trkpt lat="41.39332575698076" lon="14.417030708293744"><ele>1061.0</ele><time>2026-04-04T08:04:47Z</time></trkpt><trkpt lat="41.393488240585576" lon="14.416959441792924"><ele>1070.0</ele><time>2026-04-04T08:04:48Z</time></trkpt><trkpt lat="41.39362818182982" lon="14.41690120618666"><ele>1070.0</ele><time>2026-04-04T08:04:49Z</time></trkpt><trkpt lat="41.39375807170097" lon="14.416822053870321"><ele>1070.0</ele><time>2026-04-04T08:04:50Z</time></trkpt><trkpt lat="41.39389078138435" lon="14.416754535777338"><ele>1070.0</ele><time>2026-04-04T08:04:51Z</time></trkpt><trkpt lat="41.39403545637118" lon="14.416737920819067"><ele>1070.0</ele><time>2026-04-04T08:04:52Z</time></trkpt><trkpt lat="41.394179206995716" lon="14.41677165920493"><ele>1067.75</ele><time>2026-04-04T08:04:53Z</time></trkpt><trkpt lat="41.39430475687342" lon="14.416815396359263"><ele>1065.5</ele><time>2026-04-04T08:04:54Z</time></trkpt><trkpt lat="41.39441560822714" lon="14.416810158972275"><ele>1063.25</ele><time>2026-04-04T08:04:55Z</time></trkpt><trkpt lat="41.39453739705236" lon="14.416752156371867"><ele>1061.0</ele><time>2026-04-04T08:04:56Z</time></trkpt><trkpt lat="41.39462964491033" lon="14.416669929623351"><ele>1060.8333333333335</ele><time>2026-04-04T08:04:57Z</time></trkpt><trkpt lat="41.394695967399706" lon="14.416595903922717"><ele>1060.6666666666667</ele><time>2026-04-04T08:04:58Z</time></trkpt><trkpt lat="41.39475164688152" lon="14.416534398107746"><ele>1060.5</ele><time>2026-04-04T08:04:59Z</time></trkpt><trkpt lat="41.394803481619235" lon="14.416483697808482"><ele>1060.3333333333333</ele><time>2026-04-04T08:05:00Z</time></trkpt><trkpt lat="41.39487526324293" lon="14.416428186262907"><ele>1060.1666666666665</ele><time>2026-04-04T08:05:01Z</time></trkpt><trkpt lat="41.39496490310759" lon="14.416409639670848"><ele>1060.0</ele><time>2026-04-04T08:05:02Z</time></trkpt><trkpt lat="41.39507423300116" lon="14.41637823275912"><ele>1068.6666666666665</ele><time>2026-04-04T08:05:03Z</time></trkpt><trkpt lat="41.395211533627375" lon="14.416316220878487"><ele>1077.3333333333333</ele><time>2026-04-04T08:05:04Z</time></trkpt><trkpt lat="41.39534809642919" lon="14.416205422347115"><ele>1086.0</ele><time>2026-04-04T08:05:05Z</time></trkpt><trkpt lat="41.39548415353986" lon="14.416054337052058"><ele>1082.0</ele><time>2026-04-04T08:05:06Z</time></trkpt><trkpt lat="41.39561766551109" lon="14.415932885638933"><ele>1078.0</ele><time>2026-04-04T08:05:07Z</time></trkpt><trkpt lat="41.39576139282635" lon="14.415847203874357"><ele>1074.0</ele><time>2026-04-04T08:05:08Z</time></trkpt><trkpt lat="41.39589729110647" lon="14.415775336848387"><ele>1074.0</ele><time>2026-04-04T08:05:09Z</time></trkpt><trkpt lat="41.39600056430599" lon="14.415720674967226"><ele>1074.0</ele><time>2026-04-04T08:05:10Z</time></trkpt><trkpt lat="41.39608012593458" lon="14.415691453842912"><ele>1074.0</ele><time>2026-04-04T08:05:11Z</time></trkpt><trkpt lat="41.39614457217046" lon="14.415705601774583"><ele>1074.0</ele><time>2026-04-04T08:05:12Z</time></trkpt><trkpt lat="41.396208874106904" lon="14.415781068615047"><ele>1074.0</ele><time>2026-04-04T08:05:13Z</time></trkpt><trkpt lat="41.3962662041181" lon="14.415907370975209"><ele>1074.0</ele><time>2026-04-04T08:05:14Z</time></trkpt><trkpt lat="41.3963109254837" lon="14.416038469543244"><ele>1074.0</ele><time>2026-04-04T08:05:15Z</time></trkpt><trkpt lat="41.39631985706006" lon="14.416154809255374"><ele>1074.0</ele><time>2026-04-04T08:05:16Z</time></trkpt><trkpt lat="41.39627141411641" lon="14.416266450044562"><ele>1074.0</ele><time>2026-04-04T08:05:17Z</time></trkpt><trkpt lat="41.39619270581077" lon="14.416395822683548"><ele>1074.0</ele><time>2026-04-04T08:05:18Z</time></trkpt><trkpt lat="41.39611666218438" lon="14.41654623893772"><ele>1073.0</ele><time>2026-04-04T08:05:19Z</time></trkpt><trkpt lat="41.39607216580485" lon="14.416725836037418"><ele>1072.0</ele><time>2026-04-04T08:05:20Z</time></trkpt><trkpt lat="41.39604618970158" lon="14.416939609746716"><ele>1071.0</ele><time>2026-04-04T08:05:21Z</time></trkpt><trkpt lat="41.39602066623991" lon="14.417184682986107"><ele>1071.0</ele><time>2026-04-04T08:05:22Z</time></trkpt><trkpt lat="41.39597095605361" lon="14.417438662192913"><ele>1071.0</ele><time>2026-04-04T08:05:23Z</time></trkpt><trkpt lat="41.39591463719327" lon="14.41766049306117"><ele>1071.0</ele><time>2026-04-04T08:05:24Z</time></trkpt><trkpt lat="41.395877054099216" lon="14.417835996668162"><ele>1071.0</ele><time>2026-04-04T08:05:25Z</time></trkpt><trkpt lat="41.395861224817374" lon="14.417976634662518"><ele>1071.0</ele><time>2026-04-04T08:05:26Z</time></trkpt><trkpt lat="41.395861322561736" lon="14.418093974038326"><ele>1071.0</ele><time>2026-04-04T08:05:27Z</time></trkpt><trkpt lat="41.395888185832845" lon="14.418195230287244"><ele>1071.0</ele><time>2026-04-04T08:05:28Z</time></trkpt><trkpt lat="41.39595693442092" lon="14.418273632950752"><ele>1071.0</ele><time>2026-04-04T08:05:29Z</time></trkpt><trkpt lat="41.396066950759845" lon="14.418326732268723"><ele>1068.6666666666667</ele><time>2026-04-04T08:05:30Z</time></trkpt><trkpt lat="41.39620106399575" lon="14.418379580868155"><ele>1066.3333333333335</ele><time>2026-04-04T08:05:31Z</time></trkpt><trkpt lat="41.3963528317344" lon="14.418450074756587"><ele>1064.0</ele><time>2026-04-04T08:05:32Z</time></trkpt><trkpt lat="41.396525561899914" lon="14.418530827829366"><ele>1073.6666666666667</ele><time>2026-04-04T08:05:33Z</time></trkpt><trkpt lat="41.39670386101531" lon="14.418611014359"><ele>1083.3333333333333</ele><time>2026-04-04T08:05:34Z</time></trkpt><trkpt lat="41.39690060517127" lon="14.418687442094946"><ele>1093.0</ele><time>2026-04-04T08:05:35Z</time></trkpt><trkpt lat="41.39708282203938" lon="14.418762924960392"><ele>1089.0</ele><time>2026-04-04T08:05:36Z</time></trkpt><trkpt lat="41.397234730368815" lon="14.418851572576754"><ele>1085.0</ele><time>2026-04-04T08:05:37Z</time></trkpt><trkpt lat="41.39736088267353" lon="14.418937847705365"><ele>1081.0</ele><time>2026-04-04T08:05:38Z</time></trkpt><trkpt lat="41.3975009813702" lon="14.41898447433248"><ele>1081.0</ele><time>2026-04-04T08:05:39Z</time></trkpt><trkpt lat="41.39766605031135" lon="14.418998707197426"><ele>1081.0</ele><time>2026-04-04T08:05:40Z</time></trkpt><trkpt lat="41.397850667737" lon="14.419019430454497"><ele>1081.0</ele><time>2026-04-04T08:05:41Z</time></trkpt><trkpt lat="41.39803175888382" lon="14.419038097598504"><ele>1084.2</ele><time>2026-04-04T08:05:42Z</time></trkpt><trkpt lat="41.39818554113417" lon="14.41904707905757"><ele>1087.3999999999999</ele><time>2026-04-04T08:05:43Z</time></trkpt><trkpt lat="41.39829461492615" lon="14.419053174484196"><ele>1090.6</ele><time>2026-04-04T08:05:44Z</time></trkpt><trkpt lat="41.39837704071677" lon="14.419067583037231"><ele>1093.8</ele><time>2026-04-04T08:05:45Z</time></trkpt><trkpt lat="41.39844569502924" lon="14.419120318894517"><ele>1097.0</ele><time>2026-04-04T08:05:46Z</time></trkpt><trkpt lat="41.39849975986493" lon="14.419203418297288"><ele>1097.0</ele><time>2026-04-04T08:05:47Z</time></trkpt><trkpt lat="41.39855291540875" lon="14.419321888619965"><ele>1097.0</ele><time>2026-04-04T08:05:48Z</time></trkpt><trkpt lat="41.39861681519965" lon="14.419436083389748"><ele>1097.0</ele><time>2026-04-04T08:05:49Z</time></trkpt><trkpt lat="41.39872363518488" lon="14.419527549833067"><ele>1097.0</ele><time>2026-04-04T08:05:50Z</time></trkpt><trkpt lat="41.3988602864698" lon="14.41961701307937"><ele>1095.6666666666667</ele><time>2026-04-04T08:05:51Z</time></trkpt><trkpt lat="41.39900685795921" lon="14.419680806735975"><ele>1094.3333333333333</ele><time>2026-04-04T08:05:52Z</time></trkpt><trkpt lat="41.39915871287506" lon="14.419761341358836"><ele>1093.0</ele><time>2026-04-04T08:05:53Z</time></trkpt><trkpt lat="41.39930713391911" lon="14.419881158846907"><ele>1093.0</ele><time>2026-04-04T08:05:54Z</time></trkpt><trkpt lat="41.39942406810891" lon="14.420028511563668"><ele>1093.0</ele><time>2026-04-04T08:05:55Z</time></trkpt><trkpt lat="41.399536243545334" lon="14.420170160251708"><ele>1093.0</ele><time>2026-04-04T08:05:56Z</time></trkpt><trkpt lat="41.39964711080488" lon="14.420301141752526"><ele>1094.75</ele><time>2026-04-04T08:05:57Z</time></trkpt><trkpt lat="41.39974053428607" lon="14.42040367129989"><ele>1096.5</ele><time>2026-04-04T08:05:58Z</time></trkpt><trkpt lat="41.39984023609519" lon="14.42048410963392"><ele>1098.25</ele><time>2026-04-04T08:05:59Z</time></trkpt><trkpt lat="41.39994906871403" lon="14.420544516289205"><ele>1100.0</ele><time>2026-04-04T08:06:00Z</time></trkpt><trkpt lat="41.400072134611534" lon="14.42061048114911"><ele>1100.0</ele><time>2026-04-04T08:06:01Z</time></trkpt><trkpt lat="41.40019244449984" lon="14.420656434678682"><ele>1100.0</ele><time>2026-04-04T08:06:02Z</time></trkpt><trkpt lat="41.400295637394564" lon="14.42069851206263"><ele>1100.0</ele><time>2026-04-04T08:06:03Z</time></trkpt><trkpt lat="41.40036097097948" lon="14.42075962049727"><ele>1100.0</ele><time>2026-04-04T08:06:04Z</time></trkpt><trkpt lat="41.40040085685717" lon="14.420841550881974"><ele>1100.0</ele><time>2026-04-04T08:06:05Z</time></trkpt><trkpt lat="41.40045586441462" lon="14.42096392866386"><ele>1102.0</ele><time>2026-04-04T08:06:07Z</time></trkpt><trkpt lat="41.40059810196654" lon="14.421006294929647"><ele>1104.0</ele><time>2026-04-04T08:06:09Z</time></trkpt><trkpt lat="41.400688255345614" lon="14.421014367021506"><ele>1106.0</ele><time>2026-04-04T08:06:10Z</time></trkpt><trkpt lat="41.40078926049609" lon="14.421021797641517"><ele>1108.0</ele><time>2026-04-04T08:06:11Z</time></trkpt><trkpt lat="41.400901137633674" lon="14.42102774738698"><ele>1110.0</ele><time>2026-04-04T08:06:12Z</time></trkpt><trkpt lat="41.40101136296558" lon="14.421034704772755"><ele>1110.0</ele><time>2026-04-04T08:06:13Z</time></trkpt><trkpt lat="41.40113023701435" lon="14.421042523907186"><ele>1110.0</ele><time>2026-04-04T08:06:14Z</time></trkpt><trkpt lat="41.401251885040594" lon="14.421049010421788"><ele>1110.0</ele><time>2026-04-04T08:06:15Z</time></trkpt><trkpt lat="41.4013575501542" lon="14.421045155959803"><ele>1110.0</ele><time>2026-04-04T08:06:16Z</time></trkpt><trkpt lat="41.401467346223455" lon="14.42103563105962"><ele>1110.2</ele><time>2026-04-04T08:06:17Z</time></trkpt><trkpt lat="41.40156461138781" lon="14.421022494660583"><ele>1110.4</ele><time>2026-04-04T08:06:18Z</time></trkpt><trkpt lat="41.40166566280921" lon="14.420994645288921"><ele>1110.6</ele><time>2026-04-04T08:06:19Z</time></trkpt><trkpt lat="41.401765693462075" lon="14.420954632606039"><ele>1110.8</ele><time>2026-04-04T08:06:20Z</time></trkpt><trkpt lat="41.40186447321672" lon="14.420905026571079"><ele>1111.0</ele><time>2026-04-04T08:06:21Z</time></trkpt><trkpt lat="41.40195535529573" lon="14.42085049803479"><ele>1111.0</ele><time>2026-04-04T08:06:22Z</time></trkpt><trkpt lat="41.40204214317915" lon="14.420782330217728"><ele>1111.0</ele><time>2026-04-04T08:06:23Z</time></trkpt><trkpt lat="41.40211464014901" lon="14.420704841034413"><ele>1111.0</ele><time>2026-04-04T08:06:24Z</time></trkpt><trkpt lat="41.40218773902325" lon="14.420602882635034"><ele>1111.0</ele><time>2026-04-04T08:06:25Z</time></trkpt><trkpt lat="41.40225618633804" lon="14.42049245183534"><ele>1111.0</ele><time>2026-04-04T08:06:26Z</time></trkpt><trkpt lat="41.40231747645128" lon="14.420358020484404"><ele>1110.5</ele><time>2026-04-04T08:06:27Z</time></trkpt><trkpt lat="41.40238132401526" lon="14.42021987522729"><ele>1110.0</ele><time>2026-04-04T08:06:28Z</time></trkpt><trkpt lat="41.402456162762626" lon="14.420085257173808"><ele>1109.5</ele><time>2026-04-04T08:06:29Z</time></trkpt><trkpt lat="41.40253669066383" lon="14.419947369580308"><ele>1109.0</ele><time>2026-04-04T08:06:30Z</time></trkpt><trkpt lat="41.402612119348376" lon="14.419820642231116"><ele>1109.0</ele><time>2026-04-04T08:06:31Z</time></trkpt><trkpt lat="41.40269065046398" lon="14.41968509732922"><ele>1109.0</ele><time>2026-04-04T08:06:32Z</time></trkpt><trkpt lat="41.40277094021129" lon="14.419542176607731"><ele>1109.0</ele><time>2026-04-04T08:06:33Z</time></trkpt><trkpt lat="41.4028429774671" lon="14.419414127177511"><ele>1109.0</ele><time>2026-04-04T08:06:34Z</time></trkpt><trkpt lat="41.40290894979732" lon="14.419276031828218"><ele>1105.25</ele><time>2026-04-04T08:06:35Z</time></trkpt><trkpt lat="41.40296116446205" lon="14.419111708204571"><ele>1101.5</ele><time>2026-04-04T08:06:36Z</time></trkpt><trkpt lat="41.403002554957425" lon="14.418925489075068"><ele>1097.75</ele><time>2026-04-04T08:06:37Z</time></trkpt><trkpt lat="41.40304440818266" lon="14.418735440325953"><ele>1094.0</ele><time>2026-04-04T08:06:38Z</time></trkpt><trkpt lat="41.40308820657338" lon="14.418532586481634"><ele>1094.0</ele><time>2026-04-04T08:06:39Z</time></trkpt><trkpt lat="41.40314298318574" lon="14.418336233487981"><ele>1094.0</ele><time>2026-04-04T08:06:40Z</time></trkpt><trkpt lat="41.40320789906968" lon="14.418143644380592"><ele>1094.0</ele><time>2026-04-04T08:06:41Z</time></trkpt><trkpt lat="41.403264765622545" lon="14.41795181088018"><ele>1097.0</ele><time>2026-04-04T08:06:42Z</time></trkpt><trkpt lat="41.403324038804605" lon="14.417759460387726"><ele>1100.0</ele><time>2026-04-04T08:06:43Z</time></trkpt><trkpt lat="41.40337976481321" lon="14.417582816769091"><ele>1103.0</ele><time>2026-04-04T08:06:44Z</time></trkpt><trkpt lat="41.40343135925763" lon="14.417409794850247"><ele>1106.0</ele><time>2026-04-04T08:06:45Z</time></trkpt><trkpt lat="41.40348193479497" lon="14.417243419453417"><ele>1108.75</ele><time>2026-04-04T08:06:46Z</time></trkpt><trkpt lat="41.40353012348502" lon="14.41708773519451"><ele>1111.5</ele><time>2026-04-04T08:06:47Z</time></trkpt><trkpt lat="41.40358001658791" lon="14.41693427068359"><ele>1114.25</ele><time>2026-04-04T08:06:48Z</time></trkpt><trkpt lat="41.40362675110147" lon="14.416792631920686"><ele>1117.0</ele><time>2026-04-04T08:06:49Z</time></trkpt><trkpt lat="41.40366278037926" lon="14.416652330102371"><ele>1117.0</ele><time>2026-04-04T08:06:50Z</time></trkpt><trkpt lat="41.40369133674168" lon="14.416498897812295"><ele>1117.0</ele><time>2026-04-04T08:06:51Z</time></trkpt><trkpt lat="41.40372075693833" lon="14.416328651993961"><ele>1117.0</ele><time>2026-04-04T08:06:52Z</time></trkpt><trkpt lat="41.40374744515818" lon="14.416144277230442"><ele>1117.0</ele><time>2026-04-04T08:06:53Z</time></trkpt><trkpt lat="41.40377128382225" lon="14.41594657232616"><ele>1118.6666666666665</ele><time>2026-04-04T08:06:54Z</time></trkpt><trkpt lat="41.403800490755124" lon="14.415743672180799"><ele>1120.3333333333333</ele><time>2026-04-04T08:06:55Z</time></trkpt><trkpt lat="41.403830834948245" lon="14.415524928254179"><ele>1122.0</ele><time>2026-04-04T08:06:56Z</time></trkpt><trkpt lat="41.40386585986281" lon="14.415287974191926"><ele>1105.3333333333333</ele><time>2026-04-04T08:06:57Z</time></trkpt><trkpt lat="41.403930859991966" lon="14.415115076277962"><ele>1088.6666666666665</ele><time>2026-04-04T08:06:58Z</time></trkpt><trkpt lat="41.403960057081015" lon="14.414881860159126"><ele>1072.0</ele><time>2026-04-04T08:06:59Z</time></trkpt><trkpt lat="41.40399605796979" lon="14.414659403937028"><ele>1072.6666666666665</ele><time>2026-04-04T08:07:00Z</time></trkpt><trkpt lat="41.40403536800614" lon="14.414424040516195"><ele>1073.3333333333333</ele><time>2026-04-04T08:07:01Z</time></trkpt><trkpt lat="41.404079530021626" lon="14.414186145957117"><ele>1074.0</ele><time>2026-04-04T08:07:02Z</time></trkpt><trkpt lat="41.40412959528625" lon="14.413934007435552"><ele>1077.6666666666667</ele><time>2026-04-04T08:07:03Z</time></trkpt><trkpt lat="41.40417775570381" lon="14.413687730035011"><ele>1081.3333333333335</ele><time>2026-04-04T08:07:04Z</time></trkpt><trkpt lat="41.40423490822619" lon="14.413433002261394"><ele>1085.0</ele><time>2026-04-04T08:07:05Z</time></trkpt><trkpt lat="41.40429091044221" lon="14.413185826346158"><ele>1088.0</ele><time>2026-04-04T08:07:06Z</time></trkpt><trkpt lat="41.404350540028" lon="14.412922535178456"><ele>1091.0</ele><time>2026-04-04T08:07:07Z</time></trkpt><trkpt lat="41.40440432373197" lon="14.412661238181744"><ele>1094.0</ele><time>2026-04-04T08:07:08Z</time></trkpt><trkpt lat="41.40445848711077" lon="14.412399013917927"><ele>1097.0</ele><time>2026-04-04T08:07:09Z</time></trkpt><trkpt lat="41.40451662626823" lon="14.412139057582928"><ele>1100.0</ele><time>2026-04-04T08:07:10Z</time></trkpt><trkpt lat="41.404574913208236" lon="14.411879987615595"><ele>1103.0</ele><time>2026-04-04T08:07:11Z</time></trkpt><trkpt lat="41.40464038370881" lon="14.411627658644592"><ele>1089.0</ele><time>2026-04-04T08:07:12.001Z</time></trkpt><trkpt lat="41.404705514141035" lon="14.411370670745754"><ele>1075.0</ele><time>2026-04-04T08:07:13.001Z</time></trkpt><trkpt lat="41.40477113985716" lon="14.411114184822669"><ele>1061.0</ele><time>2026-04-04T08:07:14.001Z</time></trkpt><trkpt lat="41.40484265727173" lon="14.410866753791284"><ele>1061.0</ele><time>2026-04-04T08:07:15.001Z</time></trkpt><trkpt lat="41.404913116915004" lon="14.410633185823716"><ele>1061.0</ele><time>2026-04-04T08:07:16.001Z</time></trkpt><trkpt lat="41.40498073667373" lon="14.410389974422419"><ele>1061.0</ele><time>2026-04-04T08:07:17.001Z</time></trkpt><trkpt lat="41.4050322270764" lon="14.410143528223838"><ele>1064.3333333333335</ele><time>2026-04-04T08:07:18.001Z</time></trkpt><trkpt lat="41.40508509420506" lon="14.40989131386577"><ele>1067.6666666666667</ele><time>2026-04-04T08:07:19.001Z</time></trkpt><trkpt lat="41.4051266781944" lon="14.409659778617671"><ele>1071.0</ele><time>2026-04-04T08:07:20.001Z</time></trkpt><trkpt lat="41.40516593084547" lon="14.409429032967095"><ele>1073.0</ele><time>2026-04-04T08:07:21.001Z</time></trkpt><trkpt lat="41.405209769251044" lon="14.409213764442443"><ele>1075.0</ele><time>2026-04-04T08:07:22.001Z</time></trkpt><trkpt lat="41.40526132470646" lon="14.409003758732435"><ele>1077.0</ele><time>2026-04-04T08:07:23.001Z</time></trkpt><trkpt lat="41.405321477135345" lon="14.408799525722863"><ele>1078.6666666666667</ele><time>2026-04-04T08:07:24.001Z</time></trkpt><trkpt lat="41.405391467859204" lon="14.408587421772665"><ele>1080.3333333333335</ele><time>2026-04-04T08:07:25.001Z</time></trkpt><trkpt lat="41.40547378996046" lon="14.408364902245838"><ele>1082.0</ele><time>2026-04-04T08:07:26.001Z</time></trkpt><trkpt lat="41.40555866654754" lon="14.408140509747785"><ele>1072.6666666666667</ele><time>2026-04-04T08:07:27.001Z</time></trkpt><trkpt lat="41.40563715595895" lon="14.407906374934488"><ele>1063.3333333333333</ele><time>2026-04-04T08:07:28.001Z</time></trkpt><trkpt lat="41.4057145416195" lon="14.407665391602187"><ele>1054.0</ele><time>2026-04-04T08:07:29.001Z</time></trkpt><trkpt lat="41.40579812044677" lon="14.407427091213126"><ele>1054.0</ele><time>2026-04-04T08:07:30.001Z</time></trkpt><trkpt lat="41.40588450612276" lon="14.407187767388255"><ele>1054.0</ele><time>2026-04-04T08:07:31.001Z</time></trkpt><trkpt lat="41.40596367700243" lon="14.406957689950572"><ele>1054.0</ele><time>2026-04-04T08:07:32.001Z</time></trkpt><trkpt lat="41.40603988571213" lon="14.406740424650259"><ele>1057.6666666666665</ele><time>2026-04-04T08:07:33.001Z</time></trkpt><trkpt lat="41.40611139393234" lon="14.406527731140967"><ele>1061.3333333333333</ele><time>2026-04-04T08:07:34.001Z</time></trkpt><trkpt lat="41.406176582454435" lon="14.406324291795773"><ele>1065.0</ele><time>2026-04-04T08:07:35.001Z</time></trkpt><trkpt lat="41.40622812118972" lon="14.406123368812285"><ele>1067.25</ele><time>2026-04-04T08:07:36.001Z</time></trkpt><trkpt lat="41.40627527369335" lon="14.405922332724828"><ele>1069.5</ele><time>2026-04-04T08:07:37.001Z</time></trkpt><trkpt lat="41.40631898528251" lon="14.405736298285746"><ele>1071.75</ele><time>2026-04-04T08:07:38.001Z</time></trkpt><trkpt lat="41.406362882634426" lon="14.405561278846934"><ele>1074.0</ele><time>2026-04-04T08:07:39.001Z</time></trkpt><trkpt lat="41.40640352748288" lon="14.405408776999154"><ele>1067.1666666666667</ele><time>2026-04-04T08:07:40.001Z</time></trkpt><trkpt lat="41.406439157799745" lon="14.405271801009812"><ele>1060.3333333333333</ele><time>2026-04-04T08:07:41.001Z</time></trkpt><trkpt lat="41.40647297305404" lon="14.405156916776669"><ele>1053.5</ele><time>2026-04-04T08:07:42.001Z</time></trkpt><trkpt lat="41.40650255511113" lon="14.405080227021434"><ele>1046.6666666666665</ele><time>2026-04-04T08:07:43.001Z</time></trkpt><trkpt lat="41.40657697910588" lon="14.405011992871767"><ele>1039.8333333333333</ele><time>2026-04-04T08:07:45.001Z</time></trkpt><trkpt lat="41.40663290823694" lon="14.405053953873992"><ele>1033.0</ele><time>2026-04-04T08:07:54.001Z</time></trkpt><trkpt lat="41.40656968352853" lon="14.405120867054853"><ele>1033.0</ele><time>2026-04-04T08:08:08.001Z</time></trkpt><trkpt lat="41.40649105069005" lon="14.405099565243997"><ele>1033.0</ele><time>2026-04-04T08:08:12.001Z</time></trkpt><trkpt lat="41.40648784760903" lon="14.404987021095232"><ele>1033.0</ele><time>2026-04-04T08:08:14.001Z</time></trkpt><trkpt lat="41.40653581298525" lon="14.40485524222664"><ele>1033.0</ele><time>2026-04-04T08:08:15.001Z</time></trkpt><trkpt lat="41.406607809822454" lon="14.404653816737254"><ele>1033.0</ele><time>2026-04-04T08:08:16.001Z</time></trkpt><trkpt lat="41.40666608538428" lon="14.404411842368571"><ele>1034.25</ele><time>2026-04-04T08:08:17.001Z</time></trkpt><trkpt lat="41.40671517885366" lon="14.4041798031271"><ele>1035.5</ele><time>2026-04-04T08:08:18.001Z</time></trkpt><trkpt lat="41.406762077756085" lon="14.404017581874111"><ele>1036.75</ele><time>2026-04-04T08:08:19.001Z</time></trkpt><trkpt lat="41.406790024404486" lon="14.403908736885741"><ele>1038.0</ele><time>2026-04-04T08:08:20.001Z</time></trkpt><trkpt lat="41.40680760713535" lon="14.403790935265398"><ele>1038.0</ele><time>2026-04-04T08:08:22.001Z</time></trkpt><trkpt lat="41.40685983629795" lon="14.40373603254326"><ele>1038.0</ele><time>2026-04-04T08:08:28.001Z</time></trkpt><trkpt lat="41.406904329839875" lon="14.403813529740926"><ele>1038.0</ele><time>2026-04-04T08:08:31.001Z</time></trkpt><trkpt lat="41.4069080929584" lon="14.403910945469274"><ele>1038.0</ele><time>2026-04-04T08:08:33.001Z</time></trkpt><trkpt lat="41.40693464225561" lon="14.404009337048727"><ele>1038.0</ele><time>2026-04-04T08:08:36.001Z</time></trkpt><trkpt lat="41.40696181120371" lon="14.404101204713267"><ele>1038.0</ele><time>2026-04-04T08:08:39.001Z</time></trkpt><trkpt lat="41.406999408610666" lon="14.40424808524192"><ele>1038.0</ele><time>2026-04-04T08:08:41.001Z</time></trkpt><trkpt lat="41.40701977666684" lon="14.40437577460996"><ele>1038.0</ele><time>2026-04-04T08:08:43.001Z</time></trkpt><trkpt lat="41.407053055137126" lon="14.404478200105837"><ele>1038.0</ele><time>2026-04-04T08:08:45.001Z</time></trkpt><trkpt lat="41.407066293101146" lon="14.404584327887667"><ele>1038.0</ele><time>2026-04-04T08:08:48.001Z</time></trkpt><trkpt lat="41.407069426401954" lon="14.404677248843862"><ele>1038.0</ele><time>2026-04-04T08:08:50.001Z</time></trkpt><trkpt lat="41.40704771393943" lon="14.404799011002796"><ele>1038.0</ele><time>2026-04-04T08:08:52.001Z</time></trkpt><trkpt lat="41.40700320880235" lon="14.404940201378892"><ele>1037.0</ele><time>2026-04-04T08:08:54.001Z</time></trkpt><trkpt lat="41.406928159353356" lon="14.405088856490188"><ele>1036.0</ele><time>2026-04-04T08:08:56.001Z</time></trkpt><trkpt lat="41.406881433202265" lon="14.405194836252628"><ele>1035.0</ele><time>2026-04-04T08:08:57.001Z</time></trkpt><trkpt lat="41.40684837942197" lon="14.405302193410305"><ele>1034.0</ele><time>2026-04-04T08:08:58.001Z</time></trkpt><trkpt lat="41.406826183242075" lon="14.405414789299588"><ele>1033.0</ele><time>2026-04-04T08:08:59.001Z</time></trkpt><trkpt lat="41.40682000433561" lon="14.405513800363206"><ele>1032.2</ele><time>2026-04-04T08:09:00.001Z</time></trkpt><trkpt lat="41.40682295981228" lon="14.405636239317777"><ele>1031.4</ele><time>2026-04-04T08:09:01.001Z</time></trkpt><trkpt lat="41.40681551828782" lon="14.40577372149059"><ele>1030.6000000000001</ele><time>2026-04-04T08:09:02.001Z</time></trkpt><trkpt lat="41.406804029672436" lon="14.405885144032206"><ele>1029.8</ele><time>2026-04-04T08:09:03.001Z</time></trkpt><trkpt lat="41.40678029506114" lon="14.406014135613768"><ele>1029.0</ele><time>2026-04-04T08:09:04.001Z</time></trkpt><trkpt lat="41.406739995193824" lon="14.406143299417593"><ele>1029.0</ele><time>2026-04-04T08:09:05.001Z</time></trkpt><trkpt lat="41.406713059941666" lon="14.406235854671658"><ele>1029.0</ele><time>2026-04-04T08:09:06.001Z</time></trkpt><trkpt lat="41.40670603302025" lon="14.406366571335557"><ele>1029.0</ele><time>2026-04-04T08:09:08.001Z</time></trkpt><trkpt lat="41.40667874387475" lon="14.406476092051332"><ele>1029.0</ele><time>2026-04-04T08:09:10.001Z</time></trkpt><trkpt lat="41.40667500068697" lon="14.406595068423028"><ele>1029.0</ele><time>2026-04-04T08:09:12.001Z</time></trkpt><trkpt lat="41.40667066315245" lon="14.406684579161682"><ele>1029.0</ele><time>2026-04-04T08:09:13.001Z</time></trkpt><trkpt lat="41.406639098280294" lon="14.406794119344738"><ele>1027.8333333333333</ele><time>2026-04-04T08:09:15.001Z</time></trkpt><trkpt lat="41.406629488423945" lon="14.406878528515675"><ele>1026.6666666666667</ele><time>2026-04-04T08:09:17.001Z</time></trkpt><trkpt lat="41.406616763326724" lon="14.406971239949634"><ele>1025.5</ele><time>2026-04-04T08:09:19.001Z</time></trkpt><trkpt lat="41.40660038418821" lon="14.40705802699302"><ele>1024.3333333333335</ele><time>2026-04-04T08:09:22.001Z</time></trkpt><trkpt lat="41.40659063639585" lon="14.40716613954019"><ele>1023.1666666666667</ele><time>2026-04-04T08:09:25.001Z</time></trkpt><trkpt lat="41.406596598781434" lon="14.407256994965143"><ele>1022.0</ele><time>2026-04-04T08:09:31.001Z</time></trkpt><trkpt lat="41.40661720727237" lon="14.40739354877586"><ele>1021.5714285714286</ele><time>2026-04-04T08:09:34.001Z</time></trkpt><trkpt lat="41.40663319836352" lon="14.407476384733283"><ele>1021.1428571428571</ele><time>2026-04-04T08:09:36.001Z</time></trkpt><trkpt lat="41.40663463781989" lon="14.407578058955723"><ele>1020.7142857142858</ele><time>2026-04-04T08:09:39.001Z</time></trkpt><trkpt lat="41.40665037730988" lon="14.407673737199534"><ele>1020.2857142857143</ele><time>2026-04-04T08:09:41.001Z</time></trkpt><trkpt lat="41.40665646122488" lon="14.407758853790787"><ele>1019.8571428571429</ele><time>2026-04-04T08:09:43.001Z</time></trkpt><trkpt lat="41.40665986099649" lon="14.407846733889883"><ele>1019.4285714285716</ele><time>2026-04-04T08:09:45.001Z</time></trkpt><trkpt lat="41.40665394490448" lon="14.40796462923673"><ele>1019.0000000000001</ele><time>2026-04-04T08:09:47.001Z</time></trkpt><trkpt lat="41.40665982252136" lon="14.408083695186207"><ele>1019.0</ele><time>2026-04-04T08:09:49.001Z</time></trkpt><trkpt lat="41.40666080532436" lon="14.408279549342105"><ele>1019.0000000000001</ele><time>2026-04-04T08:09:51.001Z</time></trkpt><trkpt lat="41.40666301173248" lon="14.408403780451577"><ele>1019.0000000000001</ele><time>2026-04-04T08:09:52.001Z</time></trkpt><trkpt lat="41.406661472449386" lon="14.4085021730456"><ele>1019.0</ele><time>2026-04-04T08:09:53.001Z</time></trkpt><trkpt lat="41.40665731450547" lon="14.408615162600752"><ele>1019.0</ele><time>2026-04-04T08:09:55.001Z</time></trkpt><trkpt lat="41.40665261511292" lon="14.408710621321607"><ele>1018.5000000000001</ele><time>2026-04-04T08:09:57.001Z</time></trkpt><trkpt lat="41.406628087366954" lon="14.408847783362113"><ele>1018.0</ele><time>2026-04-04T08:09:59.001Z</time></trkpt><trkpt lat="41.40659476174671" lon="14.408956094037114"><ele>1017.5</ele><time>2026-04-04T08:10:02.001Z</time></trkpt><trkpt lat="41.406551744245" lon="14.409024058213475"><ele>1017.0</ele><time>2026-04-04T08:10:04.001Z</time></trkpt><trkpt lat="41.40651348156704" lon="14.409114725233913"><ele>1016.5000000000001</ele><time>2026-04-04T08:10:06.001Z</time></trkpt><trkpt lat="41.40649550283101" lon="14.4092088682271"><ele>1016.0</ele><time>2026-04-04T08:10:08.001Z</time></trkpt><trkpt lat="41.40647662543154" lon="14.409323675855697"><ele>1016.0</ele><time>2026-04-04T08:10:10.001Z</time></trkpt><trkpt lat="41.406441903286115" lon="14.409407427010546"><ele>1016.0</ele><time>2026-04-04T08:10:12.001Z</time></trkpt><trkpt lat="41.40640018979791" lon="14.409499474262404"><ele>1016.0</ele><time>2026-04-04T08:10:15.001Z</time></trkpt><trkpt lat="41.40635372675546" lon="14.40955870098954"><ele>1016.0</ele><time>2026-04-04T08:10:20.001Z</time></trkpt><trkpt lat="41.40631352122308" lon="14.409625017585922"><ele>1016.0</ele><time>2026-04-04T08:10:23.001Z</time></trkpt><trkpt lat="41.40627970175468" lon="14.409709098609477"><ele>1016.0</ele><time>2026-04-04T08:10:26.001Z</time></trkpt><trkpt lat="41.40623929104192" lon="14.409807479112581"><ele>1016.0</ele><time>2026-04-04T08:10:29.001Z</time></trkpt><trkpt lat="41.4062232456134" lon="14.409934051111117"><ele>1017.5000000000001</ele><time>2026-04-04T08:10:32Z</time></trkpt><trkpt lat="41.40621437261634" lon="14.410051401036425"><ele>1019.0</ele><time>2026-04-04T08:10:35Z</time></trkpt><trkpt lat="41.40618917746788" lon="14.410143375735393"><ele>1020.5</ele><time>2026-04-04T08:10:38Z</time></trkpt><trkpt lat="41.4061687223232" lon="14.410226023701124"><ele>1022.0</ele><time>2026-04-04T08:10:40.001Z</time></trkpt><trkpt lat="41.40614660546275" lon="14.410354907861633"><ele>1023.5000000000001</ele><time>2026-04-04T08:10:43.001Z</time></trkpt><trkpt lat="41.40611722020711" lon="14.410431269564853"><ele>1025.0</ele><time>2026-04-04T08:10:45.001Z</time></trkpt><trkpt lat="41.406093160134596" lon="14.410524606123959"><ele>1025.0</ele><time>2026-04-04T08:10:47.001Z</time></trkpt><trkpt lat="41.406081012219666" lon="14.410610061598602"><ele>1025.0</ele><time>2026-04-04T08:10:49.001Z</time></trkpt><trkpt lat="41.406085509095895" lon="14.41071011250889"><ele>1025.0</ele><time>2026-04-04T08:10:51.001Z</time></trkpt><trkpt lat="41.406070196778366" lon="14.410800661525425"><ele>1025.0</ele><time>2026-04-04T08:10:53.001Z</time></trkpt><trkpt lat="41.406041326066145" lon="14.410958000117509"><ele>1025.0</ele><time>2026-04-04T08:10:55.001Z</time></trkpt><trkpt lat="41.4060103285359" lon="14.411076127010343"><ele>1025.0</ele><time>2026-04-04T08:10:56.001Z</time></trkpt><trkpt lat="41.4059751222909" lon="14.411159774382329"><ele>1025.0</ele><time>2026-04-04T08:10:57.001Z</time></trkpt><trkpt lat="41.40594721218868" lon="14.411239972935142"><ele>1025.0</ele><time>2026-04-04T08:10:58.001Z</time></trkpt><trkpt lat="41.405885661493315" lon="14.411373494423424"><ele>1025.0</ele><time>2026-04-04T08:11:00.001Z</time></trkpt><trkpt lat="41.405843333070585" lon="14.411502828036943"><ele>1025.0</ele><time>2026-04-04T08:11:02.001Z</time></trkpt><trkpt lat="41.40582601831225" lon="14.411594364770748"><ele>1025.0</ele><time>2026-04-04T08:11:03.001Z</time></trkpt><trkpt lat="41.405802584779046" lon="14.411698196688686"><ele>1025.0</ele><time>2026-04-04T08:11:04.001Z</time></trkpt><trkpt lat="41.4057851941239" lon="14.411788994439704"><ele>1024.7142857142856</ele><time>2026-04-04T08:11:05.001Z</time></trkpt><trkpt lat="41.4057675990806" lon="14.411916011214958"><ele>1024.4285714285713</ele><time>2026-04-04T08:11:07.001Z</time></trkpt><trkpt lat="41.4057451638707" lon="14.412009509339834"><ele>1024.142857142857</ele><time>2026-04-04T08:11:09.001Z</time></trkpt><trkpt lat="41.40572263937593" lon="14.41210287321025"><ele>1023.8571428571428</ele><time>2026-04-04T08:11:12.001Z</time></trkpt><trkpt lat="41.40570415237892" lon="14.412189617485476"><ele>1023.5714285714284</ele><time>2026-04-04T08:11:24.001Z</time></trkpt><trkpt lat="41.40574656684372" lon="14.412112269325903"><ele>1023.2857142857143</ele><time>2026-04-04T08:12:08.001Z</time></trkpt><trkpt lat="41.40577034723861" lon="14.412031139423371"><ele>1023.0</ele><time>2026-04-04T08:12:10.001Z</time></trkpt><trkpt lat="41.40579641557968" lon="14.411910079820712"><ele>1023.0</ele><time>2026-04-04T08:12:12.001Z</time></trkpt><trkpt lat="41.40582598442294" lon="14.411776696136327"><ele>1023.0</ele><time>2026-04-04T08:12:14.001Z</time></trkpt><trkpt lat="41.405855696608604" lon="14.41167214065396"><ele>1023.0</ele><time>2026-04-04T08:12:16.001Z</time></trkpt><trkpt lat="41.405867186789685" lon="14.41157645690369"><ele>1023.0</ele><time>2026-04-04T08:12:18.001Z</time></trkpt><trkpt lat="41.40588391852982" lon="14.411482372155287"><ele>1023.0</ele><time>2026-04-04T08:12:22.001Z</time></trkpt><trkpt lat="41.405882892429766" lon="14.411392159906308"><ele>1023.0</ele><time>2026-04-04T08:14:34.001Z</time></trkpt><trkpt lat="41.40584206317683" lon="14.411456440665315"><ele>1023.0</ele><time>2026-04-04T08:14:49.001Z</time></trkpt><trkpt lat="41.405889525180136" lon="14.411516455222479"><ele>1023.0</ele><time>2026-04-04T08:15:06.001Z</time></trkpt><trkpt lat="41.40595026467869" lon="14.411461715408816"><ele>1023.0</ele><time>2026-04-04T08:15:11.001Z</time></trkpt><trkpt lat="41.406023050584736" lon="14.411479310603825"><ele>1023.0</ele><time>2026-04-04T08:15:16.001Z</time></trkpt><trkpt lat="41.406088351473215" lon="14.411511584161424"><ele>1023.0</ele><time>2026-04-04T08:15:20.001Z</time></trkpt><trkpt lat="41.406031654533656" lon="14.41142309858594"><ele>1023.0</ele><time>2026-04-04T08:16:52Z</time></trkpt><trkpt lat="41.40595592251072" lon="14.411436709337401"><ele>1023.0</ele><time>2026-04-04T08:16:56Z</time></trkpt><trkpt lat="41.40591321448997" lon="14.411521013336342"><ele>1023.0</ele><time>2026-04-04T08:16:58Z</time></trkpt><trkpt lat="41.405877163826005" lon="14.411417011351702"><ele>1023.0</ele><time>2026-04-04T08:17:03Z</time></trkpt><trkpt lat="41.40594820661871" lon="14.411255077301767"><ele>1023.0</ele><time>2026-04-04T08:17:05Z</time></trkpt><trkpt lat="41.40599463698686" lon="14.411161680617642"><ele>1023.0</ele><time>2026-04-04T08:17:06Z</time></trkpt><trkpt lat="41.40604895445002" lon="14.411023502940523"><ele>1023.0</ele><time>2026-04-04T08:17:08Z</time></trkpt><trkpt lat="41.4060852674693" lon="14.410906176876077"><ele>1023.3333333333334</ele><time>2026-04-04T08:17:10Z</time></trkpt><trkpt lat="41.40611395140427" lon="14.410769918812141"><ele>1023.6666666666667</ele><time>2026-04-04T08:17:12.001Z</time></trkpt><trkpt lat="41.40613569575192" lon="14.410680294117697"><ele>1024.0</ele><time>2026-04-04T08:17:14.001Z</time></trkpt><trkpt lat="41.406147662024495" lon="14.410572722315168"><ele>1024.3333333333335</ele><time>2026-04-04T08:17:18.001Z</time></trkpt><trkpt lat="41.406157459647886" lon="14.41045960640995"><ele>1024.6666666666667</ele><time>2026-04-04T08:17:21.001Z</time></trkpt><trkpt lat="41.406168837003946" lon="14.410375653869552"><ele>1025.0</ele><time>2026-04-04T08:17:23.001Z</time></trkpt><trkpt lat="41.40618114156306" lon="14.410263966324699"><ele>1025.6666666666667</ele><time>2026-04-04T08:17:26.001Z</time></trkpt><trkpt lat="41.40620177589147" lon="14.41017569601919"><ele>1026.3333333333335</ele><time>2026-04-04T08:17:28.001Z</time></trkpt><trkpt lat="41.406241873976" lon="14.410065368150947"><ele>1027.0</ele><time>2026-04-04T08:17:31.001Z</time></trkpt><trkpt lat="41.40624590522303" lon="14.409968839533846"><ele>1027.6666666666667</ele><time>2026-04-04T08:17:33.001Z</time></trkpt><trkpt lat="41.40625552206858" lon="14.409880399279803"><ele>1028.3333333333333</ele><time>2026-04-04T08:17:35.001Z</time></trkpt><trkpt lat="41.406271353903854" lon="14.40975897798662"><ele>1029.0</ele><time>2026-04-04T08:17:38.001Z</time></trkpt><trkpt lat="41.40630335935747" lon="14.409656833461229"><ele>1026.8333333333333</ele><time>2026-04-04T08:17:41.001Z</time></trkpt><trkpt lat="41.40637945999609" lon="14.409556560530042"><ele>1024.6666666666667</ele><time>2026-04-04T08:17:44.001Z</time></trkpt><trkpt lat="41.40642881861146" lon="14.409476812509638"><ele>1022.5</ele><time>2026-04-04T08:17:46.001Z</time></trkpt><trkpt lat="41.406466608033334" lon="14.409388026920958"><ele>1020.3333333333334</ele><time>2026-04-04T08:17:48.001Z</time></trkpt><trkpt lat="41.40649633845045" lon="14.409276732036586"><ele>1018.1666666666667</ele><time>2026-04-04T08:17:51.001Z</time></trkpt><trkpt lat="41.40651930160968" lon="14.409192862681106"><ele>1016.0</ele><time>2026-04-04T08:17:53.001Z</time></trkpt><trkpt lat="41.40655219777896" lon="14.409084536988235"><ele>1016.0</ele><time>2026-04-04T08:17:55.001Z</time></trkpt><trkpt lat="41.406581796204755" lon="14.408991619258229"><ele>1015.9999999999999</ele><time>2026-04-04T08:17:57.001Z</time></trkpt><trkpt lat="41.40661875047368" lon="14.408914084279973"><ele>1015.9999999999999</ele><time>2026-04-04T08:17:59.001Z</time></trkpt><trkpt lat="41.40665518058872" lon="14.408768912994276"><ele>1016.0</ele><time>2026-04-04T08:18:01.001Z</time></trkpt><trkpt lat="41.4066680462772" lon="14.408617149890661"><ele>1016.0</ele><time>2026-04-04T08:18:03.001Z</time></trkpt><trkpt lat="41.4066664764778" lon="14.408504504666514"><ele>1016.5000000000001</ele><time>2026-04-04T08:18:04.001Z</time></trkpt><trkpt lat="41.40667088061888" lon="14.408356688345721"><ele>1017.0</ele><time>2026-04-04T08:18:05.001Z</time></trkpt><trkpt lat="41.406678401996146" lon="14.408229294931772"><ele>1017.5</ele><time>2026-04-04T08:18:06.001Z</time></trkpt><trkpt lat="41.406678913917546" lon="14.40810326127354"><ele>1018.0</ele><time>2026-04-04T08:18:07.001Z</time></trkpt><trkpt lat="41.40667599212783" lon="14.408001947605916"><ele>1018.5000000000001</ele><time>2026-04-04T08:18:08.001Z</time></trkpt><trkpt lat="41.40667320634752" lon="14.407915117670582"><ele>1019.0</ele><time>2026-04-04T08:18:09.001Z</time></trkpt><trkpt lat="41.4066729830843" lon="14.407764336455717"><ele>1019.0000000000001</ele><time>2026-04-04T08:18:11.001Z</time></trkpt><trkpt lat="41.40666735927077" lon="14.407646694420423"><ele>1019.0</ele><time>2026-04-04T08:18:13.001Z</time></trkpt><trkpt lat="41.406659789103465" lon="14.407539795721965"><ele>1019.0</ele><time>2026-04-04T08:18:15.001Z</time></trkpt><trkpt lat="41.40665271447974" lon="14.407452677786235"><ele>1019.0</ele><time>2026-04-04T08:18:17.001Z</time></trkpt><trkpt lat="41.40663479264567" lon="14.407360409146206"><ele>1019.0000000000001</ele><time>2026-04-04T08:18:19.001Z</time></trkpt><trkpt lat="41.40659317493327" lon="14.407279261746599"><ele>1019.0</ele><time>2026-04-04T08:18:21.001Z</time></trkpt><trkpt lat="41.4065940792022" lon="14.4071798167538"><ele>1019.5000000000001</ele><time>2026-04-04T08:18:23.001Z</time></trkpt><trkpt lat="41.40659520176342" lon="14.407058520031905"><ele>1020.0</ele><time>2026-04-04T08:18:25.001Z</time></trkpt><trkpt lat="41.406614220983585" lon="14.406940510524779"><ele>1020.5</ele><time>2026-04-04T08:18:27.001Z</time></trkpt><trkpt lat="41.40664384212819" lon="14.406846652053067"><ele>1021.0</ele><time>2026-04-04T08:18:29.001Z</time></trkpt><trkpt lat="41.4066905302561" lon="14.40677350256189"><ele>1021.5000000000001</ele><time>2026-04-04T08:18:31.001Z</time></trkpt><trkpt lat="41.406705827875264" lon="14.406648663598569"><ele>1022.0</ele><time>2026-04-04T08:18:33.001Z</time></trkpt><trkpt lat="41.40672548125833" lon="14.406535209642847"><ele>1022.0</ele><time>2026-04-04T08:18:35.001Z</time></trkpt><trkpt lat="41.406739190412615" lon="14.406386762086287"><ele>1022.0</ele><time>2026-04-04T08:18:37.001Z</time></trkpt><trkpt lat="41.40675888926331" lon="14.406246779545897"><ele>1022.0</ele><time>2026-04-04T08:18:39.001Z</time></trkpt><trkpt lat="41.4067933088437" lon="14.40609355535288"><ele>1022.0</ele><time>2026-04-04T08:18:41.001Z</time></trkpt><trkpt lat="41.40681850320571" lon="14.405981761545391"><ele>1022.0</ele><time>2026-04-04T08:18:42.001Z</time></trkpt><trkpt lat="41.40685358872202" lon="14.40586683166642"><ele>1023.1666666666667</ele><time>2026-04-04T08:18:43.001Z</time></trkpt><trkpt lat="41.40687122470477" lon="14.405777802252647"><ele>1024.3333333333335</ele><time>2026-04-04T08:18:44.001Z</time></trkpt><trkpt lat="41.40688107533177" lon="14.405653576877397"><ele>1025.5</ele><time>2026-04-04T08:18:45.001Z</time></trkpt><trkpt lat="41.406889993013934" lon="14.405511977645427"><ele>1026.6666666666667</ele><time>2026-04-04T08:18:46.001Z</time></trkpt><trkpt lat="41.40689231549812" lon="14.405417933864287"><ele>1027.8333333333333</ele><time>2026-04-04T08:18:47.001Z</time></trkpt><trkpt lat="41.406902929098464" lon="14.40527527548813"><ele>1029.0</ele><time>2026-04-04T08:18:49Z</time></trkpt><trkpt lat="41.40693122451416" lon="14.405199848922322"><ele>1029.6666666666667</ele><time>2026-04-04T08:18:50Z</time></trkpt><trkpt lat="41.4069758835724" lon="14.405076821218739"><ele>1030.3333333333333</ele><time>2026-04-04T08:18:52Z</time></trkpt><trkpt lat="41.407001908372905" lon="14.404976180116504"><ele>1031.0</ele><time>2026-04-04T08:18:54Z</time></trkpt><trkpt lat="41.407036483227245" lon="14.4048790242255"><ele>1031.6666666666665</ele><time>2026-04-04T08:18:56Z</time></trkpt><trkpt lat="41.407089665956526" lon="14.404816458150659"><ele>1032.3333333333333</ele><time>2026-04-04T08:18:58Z</time></trkpt><trkpt lat="41.40713086094873" lon="14.404751191755595"><ele>1033.0</ele><time>2026-04-04T08:19:00Z</time></trkpt><trkpt lat="41.40712274247505" lon="14.404651544976431"><ele>1034.0</ele><time>2026-04-04T08:19:03Z</time></trkpt><trkpt lat="41.40709706313689" lon="14.404568238494624"><ele>1035.0</ele><time>2026-04-04T08:19:05Z</time></trkpt><trkpt lat="41.40707148968357" lon="14.404439694193039"><ele>1036.0</ele><time>2026-04-04T08:19:07Z</time></trkpt><trkpt lat="41.40703766761857" lon="14.404272420646022"><ele>1037.0</ele><time>2026-04-04T08:19:09Z</time></trkpt><trkpt lat="41.40700638591358" lon="14.404130399053171"><ele>1038.0</ele><time>2026-04-04T08:19:10Z</time></trkpt><trkpt lat="41.40698245440142" lon="14.403986994375638"><ele>1038.0</ele><time>2026-04-04T08:19:11Z</time></trkpt><trkpt lat="41.40695487498474" lon="14.403879183881338"><ele>1038.0</ele><time>2026-04-04T08:19:12Z</time></trkpt><trkpt lat="41.40692354351379" lon="14.403769643193506"><ele>1038.0</ele><time>2026-04-04T08:19:14Z</time></trkpt><trkpt lat="41.40691544535232" lon="14.403639139726991"><ele>1038.0</ele><time>2026-04-04T08:19:17Z</time></trkpt><trkpt lat="41.406930513977116" lon="14.403553713862879"><ele>1038.0</ele><time>2026-04-04T08:19:18Z</time></trkpt><trkpt lat="41.40695744920331" lon="14.403427173779352"><ele>1038.0</ele><time>2026-04-04T08:19:19Z</time></trkpt><trkpt lat="41.406989431513296" lon="14.40327335128231"><ele>1040.6666666666667</ele><time>2026-04-04T08:19:20Z</time></trkpt><trkpt lat="41.40702959252623" lon="14.403065164496777"><ele>1043.3333333333335</ele><time>2026-04-04T08:19:21Z</time></trkpt><trkpt lat="41.407085603159736" lon="14.402781690516743"><ele>1046.0</ele><time>2026-04-04T08:19:22Z</time></trkpt><trkpt lat="41.407141016720026" lon="14.402480979038366"><ele>1037.3333333333335</ele><time>2026-04-04T08:19:23Z</time></trkpt><trkpt lat="41.40721358836922" lon="14.402219683470785"><ele>1028.6666666666667</ele><time>2026-04-04T08:19:24Z</time></trkpt><trkpt lat="41.407246092353766" lon="14.401980697380738"><ele>1020.0</ele><time>2026-04-04T08:19:25Z</time></trkpt><trkpt lat="41.40728075331581" lon="14.401795016940858"><ele>1020.0</ele><time>2026-04-04T08:19:26Z</time></trkpt><trkpt lat="41.407333941227705" lon="14.401521652760447"><ele>1020.0</ele><time>2026-04-04T08:19:27Z</time></trkpt><trkpt lat="41.40738234165042" lon="14.401252323378"><ele>1020.0</ele><time>2026-04-04T08:19:28Z</time></trkpt><trkpt lat="41.40743934208934" lon="14.400953493654036"><ele>1020.6666666666667</ele><time>2026-04-04T08:19:29Z</time></trkpt><trkpt lat="41.40749027891945" lon="14.400684490453852"><ele>1021.3333333333334</ele><time>2026-04-04T08:19:30Z</time></trkpt><trkpt lat="41.4075239180045" lon="14.40045688485051"><ele>1022.0</ele><time>2026-04-04T08:19:31Z</time></trkpt><trkpt lat="41.407555601289815" lon="14.400248108500726"><ele>1022.0</ele><time>2026-04-04T08:19:32Z</time></trkpt><trkpt lat="41.40758408866584" lon="14.400058652370092"><ele>1022.0</ele><time>2026-04-04T08:19:33Z</time></trkpt><trkpt lat="41.407603044652156" lon="14.399879433872167"><ele>1022.0</ele><time>2026-04-04T08:19:34Z</time></trkpt><trkpt lat="41.4076161955829" lon="14.399707085260287"><ele>1022.0</ele><time>2026-04-04T08:19:35Z</time></trkpt><trkpt lat="41.40761945675645" lon="14.399553774327105"><ele>1022.6</ele><time>2026-04-04T08:19:36Z</time></trkpt><trkpt lat="41.40761477851746" lon="14.399409231921638"><ele>1023.2</ele><time>2026-04-04T08:19:37Z</time></trkpt><trkpt lat="41.40761187277272" lon="14.399276585972927"><ele>1023.8</ele><time>2026-04-04T08:19:38Z</time></trkpt><trkpt lat="41.40761547028051" lon="14.399152280750224"><ele>1024.4</ele><time>2026-04-04T08:19:39Z</time></trkpt><trkpt lat="41.407621045530696" lon="14.399041136021749"><ele>1025.0</ele><time>2026-04-04T08:19:40Z</time></trkpt><trkpt lat="41.40762383604987" lon="14.398925212201377"><ele>1025.8</ele><time>2026-04-04T08:19:42Z</time></trkpt><trkpt lat="41.40761527381675" lon="14.398833755291296"><ele>1026.6</ele><time>2026-04-04T08:19:44Z</time></trkpt><trkpt lat="41.407608870565866" lon="14.398651946571086"><ele>1027.4</ele><time>2026-04-04T08:19:46Z</time></trkpt><trkpt lat="41.40760811733193" lon="14.398542036659785"><ele>1028.2</ele><time>2026-04-04T08:19:47Z</time></trkpt><trkpt lat="41.4076030980777" lon="14.398415079477388"><ele>1029.0</ele><time>2026-04-04T08:19:48Z</time></trkpt><trkpt lat="41.407599225120094" lon="14.398279598625027"><ele>1029.0</ele><time>2026-04-04T08:19:49Z</time></trkpt><trkpt lat="41.40759385627658" lon="14.398136171898917"><ele>1029.0</ele><time>2026-04-04T08:19:50Z</time></trkpt><trkpt lat="41.40759333248" lon="14.3979846421451"><ele>1029.0</ele><time>2026-04-04T08:19:51Z</time></trkpt><trkpt lat="41.40759362220562" lon="14.397826470610772"><ele>1029.0</ele><time>2026-04-04T08:19:52Z</time></trkpt><trkpt lat="41.407592121341466" lon="14.397664707079532"><ele>1029.5</ele><time>2026-04-04T08:19:53Z</time></trkpt><trkpt lat="41.40759745672575" lon="14.397497041599282"><ele>1030.0</ele><time>2026-04-04T08:19:54Z</time></trkpt><trkpt lat="41.407608461603864" lon="14.397309612275977"><ele>1030.5</ele><time>2026-04-04T08:19:55Z</time></trkpt><trkpt lat="41.40762258006491" lon="14.39710624333373"><ele>1031.0</ele><time>2026-04-04T08:19:56Z</time></trkpt><trkpt lat="41.40765322523776" lon="14.39688118575826"><ele>1034.6666666666667</ele><time>2026-04-04T08:19:57Z</time></trkpt><trkpt lat="41.40768388237038" lon="14.396656784687899"><ele>1038.3333333333333</ele><time>2026-04-04T08:19:58Z</time></trkpt><trkpt lat="41.407715680573254" lon="14.396429388917918"><ele>1042.0</ele><time>2026-04-04T08:19:59Z</time></trkpt><trkpt lat="41.40772373243442" lon="14.396126459133189"><ele>1044.3333333333333</ele><time>2026-04-04T08:20:00Z</time></trkpt><trkpt lat="41.40774700052789" lon="14.39586819327758"><ele>1046.6666666666667</ele><time>2026-04-04T08:20:01Z</time></trkpt><trkpt lat="41.40776837237771" lon="14.395606914264869"><ele>1049.0</ele><time>2026-04-04T08:20:02.001Z</time></trkpt><trkpt lat="41.40778932407073" lon="14.395350055642362"><ele>1049.6666666666667</ele><time>2026-04-04T08:20:03.001Z</time></trkpt><trkpt lat="41.40780407704769" lon="14.395097284168067"><ele>1050.3333333333333</ele><time>2026-04-04T08:20:04.001Z</time></trkpt><trkpt lat="41.407820119040345" lon="14.394849228714179"><ele>1051.0</ele><time>2026-04-04T08:20:05.001Z</time></trkpt><trkpt lat="41.40784005893714" lon="14.39459410723186"><ele>1050.6666666666665</ele><time>2026-04-04T08:20:06.001Z</time></trkpt><trkpt lat="41.40786041780607" lon="14.394335682642303"><ele>1050.3333333333333</ele><time>2026-04-04T08:20:07.001Z</time></trkpt><trkpt lat="41.407876622686715" lon="14.394079499774676"><ele>1050.0</ele><time>2026-04-04T08:20:08.001Z</time></trkpt><trkpt lat="41.407890208187865" lon="14.393825040747485"><ele>1050.0</ele><time>2026-04-04T08:20:09.001Z</time></trkpt><trkpt lat="41.40790766396109" lon="14.393564499854032"><ele>1050.0</ele><time>2026-04-04T08:20:10.001Z</time></trkpt><trkpt lat="41.4079286567332" lon="14.393301994171317"><ele>1050.0</ele><time>2026-04-04T08:20:11.001Z</time></trkpt><trkpt lat="41.40795854308523" lon="14.393039550399324"><ele>1046.0</ele><time>2026-04-04T08:20:12.001Z</time></trkpt><trkpt lat="41.407989103209744" lon="14.392768555553303"><ele>1042.0</ele><time>2026-04-04T08:20:13.001Z</time></trkpt><trkpt lat="41.40801618912875" lon="14.39249093846609"><ele>1038.0</ele><time>2026-04-04T08:20:14.001Z</time></trkpt><trkpt lat="41.40804372079973" lon="14.392225613241525"><ele>1030.3333333333333</ele><time>2026-04-04T08:20:15.001Z</time></trkpt><trkpt lat="41.40806129402764" lon="14.391952810558601"><ele>1022.6666666666666</ele><time>2026-04-04T08:20:16.001Z</time></trkpt><trkpt lat="41.40807743289258" lon="14.391678601623958"><ele>1015.0</ele><time>2026-04-04T08:20:17.001Z</time></trkpt><trkpt lat="41.408091357768036" lon="14.391414616291486"><ele>1015.0</ele><time>2026-04-04T08:20:18.001Z</time></trkpt><trkpt lat="41.40810653351221" lon="14.391176353105427"><ele>1015.0</ele><time>2026-04-04T08:20:19.001Z</time></trkpt><trkpt lat="41.40813021523342" lon="14.390956349034653"><ele>1015.0</ele><time>2026-04-04T08:20:20.001Z</time></trkpt><trkpt lat="41.40815422825987" lon="14.390756034498345"><ele>1015.0</ele><time>2026-04-04T08:20:21.001Z</time></trkpt><trkpt lat="41.40817955036582" lon="14.39057286549352"><ele>1015.0</ele><time>2026-04-04T08:20:22.001Z</time></trkpt><trkpt lat="41.40817895138654" lon="14.390364017742915"><ele>1015.0</ele><time>2026-04-04T08:20:23.001Z</time></trkpt><trkpt lat="41.40816802367198" lon="14.390152675851494"><ele>1015.3333333333333</ele><time>2026-04-04T08:20:24.001Z</time></trkpt><trkpt lat="41.4081591066114" lon="14.389932042385512"><ele>1015.6666666666667</ele><time>2026-04-04T08:20:25.001Z</time></trkpt><trkpt lat="41.408155550914394" lon="14.389708612207835"><ele>1016.0</ele><time>2026-04-04T08:20:26.001Z</time></trkpt><trkpt lat="41.408152625280074" lon="14.389481465627284"><ele>1016.3333333333334</ele><time>2026-04-04T08:20:27.001Z</time></trkpt><trkpt lat="41.408137572396264" lon="14.389256852260143"><ele>1016.6666666666667</ele><time>2026-04-04T08:20:28.001Z</time></trkpt><trkpt lat="41.40812348640501" lon="14.389022282152947"><ele>1017.0</ele><time>2026-04-04T08:20:29.001Z</time></trkpt><trkpt lat="41.40811912973044" lon="14.388791807209412"><ele>1017.6666666666667</ele><time>2026-04-04T08:20:30.001Z</time></trkpt><trkpt lat="41.4081191190769" lon="14.388560802264692"><ele>1018.3333333333334</ele><time>2026-04-04T08:20:31.001Z</time></trkpt><trkpt lat="41.40812914535634" lon="14.388352741118549"><ele>1019.0</ele><time>2026-04-04T08:20:32.001Z</time></trkpt><trkpt lat="41.40814903819081" lon="14.388149409321255"><ele>1019.6666666666667</ele><time>2026-04-04T08:20:33.001Z</time></trkpt><trkpt lat="41.40817921896271" lon="14.387942838234785"><ele>1020.3333333333333</ele><time>2026-04-04T08:20:34.001Z</time></trkpt><trkpt lat="41.408216957883305" lon="14.387736750252733"><ele>1021.0</ele><time>2026-04-04T08:20:35.001Z</time></trkpt><trkpt lat="41.408259440337055" lon="14.387534627135693"><ele>1021.0</ele><time>2026-04-04T08:20:36.001Z</time></trkpt><trkpt lat="41.408305884700205" lon="14.387336084824652"><ele>1021.0</ele><time>2026-04-04T08:20:37.001Z</time></trkpt><trkpt lat="41.40835542043594" lon="14.387135151823891"><ele>1021.0</ele><time>2026-04-04T08:20:38.001Z</time></trkpt><trkpt lat="41.408408031724946" lon="14.386933308498753"><ele>1020.0</ele><time>2026-04-04T08:20:39.001Z</time></trkpt><trkpt lat="41.40845965968013" lon="14.38673475983416"><ele>1019.0</ele><time>2026-04-04T08:20:40.001Z</time></trkpt><trkpt lat="41.40851412420838" lon="14.386541573338757"><ele>1018.0</ele><time>2026-04-04T08:20:41.001Z</time></trkpt><trkpt lat="41.40857245826667" lon="14.386347385454307"><ele>1017.6666666666666</ele><time>2026-04-04T08:20:42.001Z</time></trkpt><trkpt lat="41.40863731652517" lon="14.386168142747476"><ele>1017.3333333333333</ele><time>2026-04-04T08:20:43.001Z</time></trkpt><trkpt lat="41.40872087658856" lon="14.38599031685434"><ele>1017.0</ele><time>2026-04-04T08:20:44.001Z</time></trkpt><trkpt lat="41.4088186577106" lon="14.385831518691834"><ele>1017.0</ele><time>2026-04-04T08:20:45.001Z</time></trkpt><trkpt lat="41.40892504190889" lon="14.385680104196616"><ele>1017.0</ele><time>2026-04-04T08:20:46.001Z</time></trkpt><trkpt lat="41.40903188077452" lon="14.385520178819334"><ele>1017.0</ele><time>2026-04-04T08:20:47.001Z</time></trkpt><trkpt lat="41.40913452184651" lon="14.385352688056576"><ele>1017.3333333333333</ele><time>2026-04-04T08:20:48.001Z</time></trkpt><trkpt lat="41.409236147778905" lon="14.38518400294093"><ele>1017.6666666666666</ele><time>2026-04-04T08:20:49.001Z</time></trkpt><trkpt lat="41.40933953151871" lon="14.385021242417018"><ele>1018.0</ele><time>2026-04-04T08:20:50.001Z</time></trkpt><trkpt lat="41.4094328314373" lon="14.38487873643535"><ele>1018.0</ele><time>2026-04-04T08:20:51.001Z</time></trkpt><trkpt lat="41.40951879249899" lon="14.3847398547829"><ele>1018.0</ele><time>2026-04-04T08:20:52.001Z</time></trkpt><trkpt lat="41.40959353752296" lon="14.384607703824157"><ele>1018.0</ele><time>2026-04-04T08:20:53.001Z</time></trkpt><trkpt lat="41.40965335861374" lon="14.384475927610897"><ele>1018.0</ele><time>2026-04-04T08:20:54Z</time></trkpt><trkpt lat="41.409684141161264" lon="14.384347099222921"><ele>1017.5</ele><time>2026-04-04T08:20:55Z</time></trkpt><trkpt lat="41.40970220137995" lon="14.384212694214273"><ele>1017.0</ele><time>2026-04-04T08:20:56Z</time></trkpt><trkpt lat="41.40973485296623" lon="14.384071415134008"><ele>1016.5</ele><time>2026-04-04T08:20:57Z</time></trkpt><trkpt lat="41.40977453628097" lon="14.383920923862318"><ele>1016.0</ele><time>2026-04-04T08:20:58Z</time></trkpt><trkpt lat="41.40981762980159" lon="14.383756654225547"><ele>1016.0</ele><time>2026-04-04T08:20:59Z</time></trkpt><trkpt lat="41.409866166448374" lon="14.383584857714702"><ele>1016.0</ele><time>2026-04-04T08:21:00Z</time></trkpt><trkpt lat="41.40993042950255" lon="14.383405545484303"><ele>1016.0</ele><time>2026-04-04T08:21:01Z</time></trkpt><trkpt lat="41.41000071320304" lon="14.383219982708786"><ele>1016.0</ele><time>2026-04-04T08:21:02Z</time></trkpt><trkpt lat="41.410076700800154" lon="14.38303989017343"><ele>1017.3333333333334</ele><time>2026-04-04T08:21:03Z</time></trkpt><trkpt lat="41.410163056366564" lon="14.38284681735515"><ele>1018.6666666666667</ele><time>2026-04-04T08:21:04Z</time></trkpt><trkpt lat="41.410250370403986" lon="14.382653226099455"><ele>1020.0</ele><time>2026-04-04T08:21:05Z</time></trkpt><trkpt lat="41.410337515937755" lon="14.382458247963488"><ele>1020.0</ele><time>2026-04-04T08:21:06Z</time></trkpt><trkpt lat="41.41042438789179" lon="14.382264262302005"><ele>1020.0</ele><time>2026-04-04T08:21:07Z</time></trkpt><trkpt lat="41.41050694941442" lon="14.382070618996941"><ele>1020.0</ele><time>2026-04-04T08:21:08Z</time></trkpt><trkpt lat="41.410581027899354" lon="14.381881140963648"><ele>1021.0</ele><time>2026-04-04T08:21:09Z</time></trkpt><trkpt lat="41.41064932898959" lon="14.381678238426455"><ele>1022.0</ele><time>2026-04-04T08:21:10Z</time></trkpt><trkpt lat="41.41071384440407" lon="14.381468699563555"><ele>1023.0</ele><time>2026-04-04T08:21:11Z</time></trkpt><trkpt lat="41.410777541300185" lon="14.38126206652124"><ele>1023.0</ele><time>2026-04-04T08:21:12Z</time></trkpt><trkpt lat="41.410837275264846" lon="14.38104274438908"><ele>1023.0</ele><time>2026-04-04T08:21:13Z</time></trkpt><trkpt lat="41.410903654420835" lon="14.380822518662958"><ele>1023.0</ele><time>2026-04-04T08:21:14Z</time></trkpt><trkpt lat="41.41097317109872" lon="14.380603220706137"><ele>1025.6666666666667</ele><time>2026-04-04T08:21:15Z</time></trkpt><trkpt lat="41.4110517237077" lon="14.380384906474118"><ele>1028.3333333333335</ele><time>2026-04-04T08:21:16Z</time></trkpt><trkpt lat="41.41113948800033" lon="14.380164446222473"><ele>1031.0</ele><time>2026-04-04T08:21:17Z</time></trkpt><trkpt lat="41.41123393098082" lon="14.379948881165747"><ele>1025.3333333333335</ele><time>2026-04-04T08:21:18Z</time></trkpt><trkpt lat="41.411334778987474" lon="14.379734229192131"><ele>1019.6666666666667</ele><time>2026-04-04T08:21:19Z</time></trkpt><trkpt lat="41.41144009898459" lon="14.379511640749454"><ele>1014.0</ele><time>2026-04-04T08:21:20Z</time></trkpt><trkpt lat="41.41154688700075" lon="14.379292251748819"><ele>1014.0</ele><time>2026-04-04T08:21:21Z</time></trkpt><trkpt lat="41.41165068405989" lon="14.379069200465402"><ele>1014.0</ele><time>2026-04-04T08:21:22Z</time></trkpt><trkpt lat="41.4117504158351" lon="14.378854331679502"><ele>1014.0</ele><time>2026-04-04T08:21:23Z</time></trkpt><trkpt lat="41.4118415959248" lon="14.378666136039223"><ele>1015.6666666666667</ele><time>2026-04-04T08:21:24Z</time></trkpt><trkpt lat="41.4119269331742" lon="14.378490478428988"><ele>1017.3333333333334</ele><time>2026-04-04T08:21:25Z</time></trkpt><trkpt lat="41.412017069804676" lon="14.378317492862273"><ele>1019.0</ele><time>2026-04-04T08:21:26Z</time></trkpt><trkpt lat="41.41211905213016" lon="14.378158572803232"><ele>1021.6666666666667</ele><time>2026-04-04T08:21:27Z</time></trkpt><trkpt lat="41.41224028163483" lon="14.37801656237991"><ele>1024.3333333333333</ele><time>2026-04-04T08:21:28Z</time></trkpt><trkpt lat="41.412380339436226" lon="14.37788942472847"><ele>1027.0</ele><time>2026-04-04T08:21:29Z</time></trkpt><trkpt lat="41.412531985783986" lon="14.377760802447506"><ele>1027.0</ele><time>2026-04-04T08:21:30Z</time></trkpt><trkpt lat="41.41268470371966" lon="14.377638601880845"><ele>1027.0</ele><time>2026-04-04T08:21:31Z</time></trkpt><trkpt lat="41.412826244906185" lon="14.377510728099512"><ele>1027.0</ele><time>2026-04-04T08:21:32Z</time></trkpt><trkpt lat="41.41295347917309" lon="14.377361548436536"><ele>1024.5</ele><time>2026-04-04T08:21:33Z</time></trkpt><trkpt lat="41.4130564365497" lon="14.377200203050135"><ele>1022.0</ele><time>2026-04-04T08:21:34Z</time></trkpt><trkpt lat="41.41313950933411" lon="14.377042117033332"><ele>1019.5</ele><time>2026-04-04T08:21:35.001Z</time></trkpt><trkpt lat="41.41320588338842" lon="14.376898364695412"><ele>1017.0</ele><time>2026-04-04T08:21:36.001Z</time></trkpt><trkpt lat="41.41326221098694" lon="14.376776139377181"><ele>1017.0</ele><time>2026-04-04T08:21:37.001Z</time></trkpt><trkpt lat="41.41330354054679" lon="14.376665671982682"><ele>1017.0</ele><time>2026-04-04T08:21:38.001Z</time></trkpt><trkpt lat="41.41333796988718" lon="14.376566058373603"><ele>1017.0</ele><time>2026-04-04T08:21:39.001Z</time></trkpt><trkpt lat="41.41338037914739" lon="14.376466667950863"><ele>1017.0</ele><time>2026-04-04T08:21:40.001Z</time></trkpt><trkpt lat="41.41343865623579" lon="14.376365219524619"><ele>1017.0</ele><time>2026-04-04T08:21:41.001Z</time></trkpt><trkpt lat="41.41349998079061" lon="14.376263717108932"><ele>1020.0</ele><time>2026-04-04T08:21:42.001Z</time></trkpt><trkpt lat="41.41356187843841" lon="14.376150002996338"><ele>1023.0</ele><time>2026-04-04T08:21:43.001Z</time></trkpt><trkpt lat="41.413623777761956" lon="14.376029640647495"><ele>1026.0</ele><time>2026-04-04T08:21:44.001Z</time></trkpt><trkpt lat="41.413686645518894" lon="14.375890055915972"><ele>1029.0</ele><time>2026-04-04T08:21:45.001Z</time></trkpt><trkpt lat="41.413752028916456" lon="14.375746327303412"><ele>1025.25</ele><time>2026-04-04T08:21:46.001Z</time></trkpt><trkpt lat="41.41382355622894" lon="14.375597533065202"><ele>1021.5</ele><time>2026-04-04T08:21:47.001Z</time></trkpt><trkpt lat="41.41389013279991" lon="14.375438616876695"><ele>1017.75</ele><time>2026-04-04T08:21:48.001Z</time></trkpt><trkpt lat="41.41395307075214" lon="14.375266500455176"><ele>1014.0</ele><time>2026-04-04T08:21:49.001Z</time></trkpt><trkpt lat="41.4140118273752" lon="14.375087363358707"><ele>1014.0</ele><time>2026-04-04T08:21:50.001Z</time></trkpt><trkpt lat="41.41406661582881" lon="14.374911937685296"><ele>1014.0</ele><time>2026-04-04T08:21:51.001Z</time></trkpt><trkpt lat="41.414117804576364" lon="14.374739569918702"><ele>1014.0</ele><time>2026-04-04T08:21:52.001Z</time></trkpt><trkpt lat="41.41416809844903" lon="14.37456599088595"><ele>1014.0</ele><time>2026-04-04T08:21:53.001Z</time></trkpt><trkpt lat="41.41421841055326" lon="14.37439157898102"><ele>1015.75</ele><time>2026-04-04T08:21:54.001Z</time></trkpt><trkpt lat="41.41427732471102" lon="14.374221010122858"><ele>1017.5</ele><time>2026-04-04T08:21:55.001Z</time></trkpt><trkpt lat="41.414339641533154" lon="14.374051203883743"><ele>1019.25</ele><time>2026-04-04T08:21:56.001Z</time></trkpt><trkpt lat="41.41441491650578" lon="14.37387916624718"><ele>1021.0</ele><time>2026-04-04T08:21:57.001Z</time></trkpt><trkpt lat="41.41450946221438" lon="14.373702378286275"><ele>1018.3333333333333</ele><time>2026-04-04T08:21:58.001Z</time></trkpt><trkpt lat="41.4146241860315" lon="14.373504632075589"><ele>1015.6666666666667</ele><time>2026-04-04T08:21:59.001Z</time></trkpt><trkpt lat="41.414740409905306" lon="14.37331267497467"><ele>1013.0</ele><time>2026-04-04T08:22:00.001Z</time></trkpt><trkpt lat="41.414847242353034" lon="14.373130818961098"><ele>1014.6666666666667</ele><time>2026-04-04T08:22:01.001Z</time></trkpt><trkpt lat="41.41494347134534" lon="14.372941849714051"><ele>1016.3333333333333</ele><time>2026-04-04T08:22:02.001Z</time></trkpt><trkpt lat="41.415027155901555" lon="14.372741599827284"><ele>1018.0</ele><time>2026-04-04T08:22:03.001Z</time></trkpt><trkpt lat="41.41510433919447" lon="14.372546395333202"><ele>1018.0</ele><time>2026-04-04T08:22:04.001Z</time></trkpt><trkpt lat="41.41518050047009" lon="14.372368164323062"><ele>1018.0</ele><time>2026-04-04T08:22:05.001Z</time></trkpt><trkpt lat="41.41526846791537" lon="14.372199203704524"><ele>1018.0</ele><time>2026-04-04T08:22:06.001Z</time></trkpt><trkpt lat="41.4153678881856" lon="14.372038110759851"><ele>1017.3333333333333</ele><time>2026-04-04T08:22:07.001Z</time></trkpt><trkpt lat="41.41546746339488" lon="14.371871904102811"><ele>1016.6666666666667</ele><time>2026-04-04T08:22:08.001Z</time></trkpt><trkpt lat="41.415566580481816" lon="14.371699132055342"><ele>1016.0</ele><time>2026-04-04T08:22:09.001Z</time></trkpt><trkpt lat="41.415668775455" lon="14.371528977172288"><ele>1016.0</ele><time>2026-04-04T08:22:10.001Z</time></trkpt><trkpt lat="41.41577261395079" lon="14.371363095390333"><ele>1016.0</ele><time>2026-04-04T08:22:11.001Z</time></trkpt><trkpt lat="41.41587324345221" lon="14.371191834677967"><ele>1016.0</ele><time>2026-04-04T08:22:12.001Z</time></trkpt><trkpt lat="41.41597835653643" lon="14.371015744180916"><ele>1016.0</ele><time>2026-04-04T08:22:13.001Z</time></trkpt><trkpt lat="41.4160822915016" lon="14.370858570454125"><ele>1016.0</ele><time>2026-04-04T08:22:14.001Z</time></trkpt><trkpt lat="41.41619661632502" lon="14.370730433915147"><ele>1016.0</ele><time>2026-04-04T08:22:15.001Z</time></trkpt><trkpt lat="41.41632271036524" lon="14.37062387046085"><ele>1018.0</ele><time>2026-04-04T08:22:16.001Z</time></trkpt><trkpt lat="41.41645749435281" lon="14.370521636104774"><ele>1020.0</ele><time>2026-04-04T08:22:17.001Z</time></trkpt><trkpt lat="41.41657863611448" lon="14.370424934315672"><ele>1022.0</ele><time>2026-04-04T08:22:18.001Z</time></trkpt><trkpt lat="41.41667522671498" lon="14.370331361783625"><ele>1024.0</ele><time>2026-04-04T08:22:19.001Z</time></trkpt><trkpt lat="41.4167444461878" lon="14.370227454583587"><ele>1024.0</ele><time>2026-04-04T08:22:20.001Z</time></trkpt><trkpt lat="41.41679833970099" lon="14.370098401967844"><ele>1024.0</ele><time>2026-04-04T08:22:21.001Z</time></trkpt><trkpt lat="41.41684015027854" lon="14.369938515172374"><ele>1024.0</ele><time>2026-04-04T08:22:22.001Z</time></trkpt><trkpt lat="41.41688147785349" lon="14.369753578947186"><ele>1024.0</ele><time>2026-04-04T08:22:23.001Z</time></trkpt><trkpt lat="41.41693017771083" lon="14.369547973438552"><ele>1025.0</ele><time>2026-04-04T08:22:24.001Z</time></trkpt><trkpt lat="41.41698340751386" lon="14.369323704746725"><ele>1026.0</ele><time>2026-04-04T08:22:25.001Z</time></trkpt><trkpt lat="41.41703723479717" lon="14.369097408234868"><ele>1027.0</ele><time>2026-04-04T08:22:26.001Z</time></trkpt><trkpt lat="41.41708867129729" lon="14.368879272377841"><ele>1025.6666666666665</ele><time>2026-04-04T08:22:27.001Z</time></trkpt><trkpt lat="41.41713614178665" lon="14.368665228300038"><ele>1024.3333333333333</ele><time>2026-04-04T08:22:28.001Z</time></trkpt><trkpt lat="41.417179696631834" lon="14.368463989622974"><ele>1023.0</ele><time>2026-04-04T08:22:29.001Z</time></trkpt><trkpt lat="41.41722575829574" lon="14.368263975442565"><ele>1021.5</ele><time>2026-04-04T08:22:30.001Z</time></trkpt><trkpt lat="41.417267237309964" lon="14.368065445598921"><ele>1020.0</ele><time>2026-04-04T08:22:31.001Z</time></trkpt><trkpt lat="41.417307743474815" lon="14.367879715321777"><ele>1018.5</ele><time>2026-04-04T08:22:32.001Z</time></trkpt><trkpt lat="41.417348731920875" lon="14.367710866722295"><ele>1017.0</ele><time>2026-04-04T08:22:33.001Z</time></trkpt><trkpt lat="41.41738623202713" lon="14.367552490130977"><ele>1017.0</ele><time>2026-04-04T08:22:34.001Z</time></trkpt><trkpt lat="41.417414690498134" lon="14.367413661389062"><ele>1017.0</ele><time>2026-04-04T08:22:35.001Z</time></trkpt><trkpt lat="41.41744383495004" lon="14.367289443730174"><ele>1017.0</ele><time>2026-04-04T08:22:36.001Z</time></trkpt><trkpt lat="41.417476226250386" lon="14.36718786761978"><ele>1017.0</ele><time>2026-04-04T08:22:37.001Z</time></trkpt><trkpt lat="41.417525909342785" lon="14.367092871525712"><ele>1017.0</ele><time>2026-04-04T08:22:39.001Z</time></trkpt><trkpt lat="41.417582921596136" lon="14.36699832396257"><ele>1018.2</ele><time>2026-04-04T08:22:41.001Z</time></trkpt><trkpt lat="41.41765662065496" lon="14.366864864957"><ele>1019.4000000000001</ele><time>2026-04-04T08:22:43.001Z</time></trkpt><trkpt lat="41.41772350006747" lon="14.366736480897432"><ele>1020.5999999999999</ele><time>2026-04-04T08:22:45.001Z</time></trkpt><trkpt lat="41.41776221404679" lon="14.366661583913594"><ele>1021.8</ele><time>2026-04-04T08:22:46.001Z</time></trkpt><trkpt lat="41.417802196978094" lon="14.366585878880887"><ele>1023.0</ele><time>2026-04-04T08:22:47.001Z</time></trkpt><trkpt lat="41.41784833895907" lon="14.366504109483687"><ele>1023.0</ele><time>2026-04-04T08:22:48.001Z</time></trkpt><trkpt lat="41.41789625650034" lon="14.366424014255413"><ele>1023.0</ele><time>2026-04-04T08:22:49.001Z</time></trkpt><trkpt lat="41.41793917303973" lon="14.366358336212327"><ele>1023.0</ele><time>2026-04-04T08:22:50.001Z</time></trkpt><trkpt lat="41.41798880149819" lon="14.366285916443443"><ele>1023.0</ele><time>2026-04-04T08:22:53.001Z</time></trkpt><trkpt lat="41.41803663549009" lon="14.366210419642831"><ele>1023.0</ele><time>2026-04-04T08:22:57.001Z</time></trkpt><trkpt lat="41.41809023344242" lon="14.366130283312284"><ele>1023.0</ele><time>2026-04-04T08:24:22.001Z</time></trkpt><trkpt lat="41.418164420842075" lon="14.366001824473447"><ele>1023.2</ele><time>2026-04-04T08:24:24.001Z</time></trkpt><trkpt lat="41.41822586391566" lon="14.36591162664367"><ele>1023.4</ele><time>2026-04-04T08:24:25.001Z</time></trkpt><trkpt lat="41.41829061969066" lon="14.365815576343579"><ele>1023.6000000000001</ele><time>2026-04-04T08:24:26.001Z</time></trkpt><trkpt lat="41.41832707318724" lon="14.365739043048633"><ele>1023.8000000000001</ele><time>2026-04-04T08:24:27.001Z</time></trkpt><trkpt lat="41.418392511909786" lon="14.365630842568955"><ele>1024.0</ele><time>2026-04-04T08:24:28.001Z</time></trkpt><trkpt lat="41.418463660593545" lon="14.365524621703715"><ele>1024.0</ele><time>2026-04-04T08:24:29.001Z</time></trkpt><trkpt lat="41.41854115822674" lon="14.365399139968051"><ele>1024.0</ele><time>2026-04-04T08:24:30.001Z</time></trkpt><trkpt lat="41.41863513779913" lon="14.365260684474267"><ele>1024.0</ele><time>2026-04-04T08:24:31.001Z</time></trkpt><trkpt lat="41.41874407635844" lon="14.36509734928"><ele>1024.0</ele><time>2026-04-04T08:24:32.001Z</time></trkpt><trkpt lat="41.418862767372985" lon="14.36492977094819"><ele>1021.6666666666666</ele><time>2026-04-04T08:24:33.001Z</time></trkpt><trkpt lat="41.4189776353769" lon="14.364776985045008"><ele>1019.3333333333333</ele><time>2026-04-04T08:24:34.001Z</time></trkpt><trkpt lat="41.419104464917694" lon="14.364610986971709"><ele>1017.0</ele><time>2026-04-04T08:24:35.001Z</time></trkpt><trkpt lat="41.419240546419694" lon="14.364443351448607"><ele>1017.0</ele><time>2026-04-04T08:24:36.001Z</time></trkpt><trkpt lat="41.41937579593609" lon="14.364286998412057"><ele>1017.0</ele><time>2026-04-04T08:24:37.001Z</time></trkpt><trkpt lat="41.41948677891553" lon="14.36414711447577"><ele>1017.0</ele><time>2026-04-04T08:24:38.001Z</time></trkpt><trkpt lat="41.41958782159316" lon="14.364022341221398"><ele>1017.2</ele><time>2026-04-04T08:24:39.001Z</time></trkpt><trkpt lat="41.419682131497346" lon="14.363899209924234"><ele>1017.4000000000001</ele><time>2026-04-04T08:24:40.001Z</time></trkpt><trkpt lat="41.41976527634508" lon="14.363800025845647"><ele>1017.5999999999999</ele><time>2026-04-04T08:24:41.001Z</time></trkpt><trkpt lat="41.41984883674212" lon="14.363715905299237"><ele>1017.8</ele><time>2026-04-04T08:24:42.001Z</time></trkpt><trkpt lat="41.41993371571552" lon="14.363648413891891"><ele>1018.0</ele><time>2026-04-04T08:24:43.001Z</time></trkpt><trkpt lat="41.42003196404513" lon="14.36360311760851"><ele>1018.0</ele><time>2026-04-04T08:24:44.001Z</time></trkpt><trkpt lat="41.42013781153271" lon="14.363569838364285"><ele>1018.0</ele><time>2026-04-04T08:24:45.001Z</time></trkpt><trkpt lat="41.42024781839937" lon="14.36354773737412"><ele>1018.0</ele><time>2026-04-04T08:24:46.001Z</time></trkpt><trkpt lat="41.420343118728454" lon="14.36352553893218"><ele>1018.0</ele><time>2026-04-04T08:24:47.001Z</time></trkpt><trkpt lat="41.42041911627192" lon="14.363517966213816"><ele>1018.0</ele><time>2026-04-04T08:24:48.001Z</time></trkpt><trkpt lat="41.42048310899467" lon="14.363529814849743"><ele>1018.0</ele><time>2026-04-04T08:24:49.001Z</time></trkpt><trkpt lat="41.4205838851361" lon="14.3636285432966"><ele>1018.0</ele><time>2026-04-04T08:24:51.001Z</time></trkpt><trkpt lat="41.42063202575044" lon="14.363703249125265"><ele>1018.0</ele><time>2026-04-04T08:24:52.001Z</time></trkpt><trkpt lat="41.420687760490296" lon="14.363792415138434"><ele>1018.0</ele><time>2026-04-04T08:24:53.001Z</time></trkpt><trkpt lat="41.42075677449776" lon="14.363879953015962"><ele>1018.0</ele><time>2026-04-04T08:24:54.001Z</time></trkpt><trkpt lat="41.42083602681603" lon="14.363943803779984"><ele>1018.0</ele><time>2026-04-04T08:24:55.001Z</time></trkpt><trkpt lat="41.420936212874864" lon="14.36398899179903"><ele>1018.0</ele><time>2026-04-04T08:24:56.001Z</time></trkpt><trkpt lat="41.42103526305455" lon="14.364020660848839"><ele>1018.0</ele><time>2026-04-04T08:24:57.001Z</time></trkpt><trkpt lat="41.42114266478176" lon="14.36406741706631"><ele>1018.0</ele><time>2026-04-04T08:24:58.001Z</time></trkpt><trkpt lat="41.42125397425569" lon="14.364119453026179"><ele>1018.0</ele><time>2026-04-04T08:24:59.001Z</time></trkpt><trkpt lat="41.421365410176094" lon="14.364178213632407"><ele>1018.0</ele><time>2026-04-04T08:25:00.001Z</time></trkpt><trkpt lat="41.42147605498268" lon="14.364218412673766"><ele>1018.0</ele><time>2026-04-04T08:25:01.001Z</time></trkpt><trkpt lat="41.42158376295297" lon="14.36425566486271"><ele>1018.0</ele><time>2026-04-04T08:25:02.001Z</time></trkpt><trkpt lat="41.42169283734757" lon="14.364265384891866"><ele>1018.0</ele><time>2026-04-04T08:25:03.001Z</time></trkpt><trkpt lat="41.42179901860195" lon="14.364271473793506"><ele>1018.0</ele><time>2026-04-04T08:25:04.001Z</time></trkpt><trkpt lat="41.42189869388831" lon="14.36427536473132"><ele>1018.0</ele><time>2026-04-04T08:25:05.001Z</time></trkpt><trkpt lat="41.421984508733686" lon="14.364301999334552"><ele>1018.0</ele><time>2026-04-04T08:25:06Z</time></trkpt><trkpt lat="41.42206422100677" lon="14.364352735152083"><ele>1018.0</ele><time>2026-04-04T08:25:07Z</time></trkpt><trkpt lat="41.42215295048132" lon="14.364404950918384"><ele>1018.0</ele><time>2026-04-04T08:25:08Z</time></trkpt><trkpt lat="41.42224420561727" lon="14.364463007884368"><ele>1018.0</ele><time>2026-04-04T08:25:09Z</time></trkpt><trkpt lat="41.42229974938615" lon="14.364535402971867"><ele>1017.8</ele><time>2026-04-04T08:25:10Z</time></trkpt><trkpt lat="41.422367336683195" lon="14.364619723819958"><ele>1017.5999999999999</ele><time>2026-04-04T08:25:11Z</time></trkpt><trkpt lat="41.42243618359043" lon="14.364718720211918"><ele>1017.4000000000001</ele><time>2026-04-04T08:25:12Z</time></trkpt><trkpt lat="41.4225019638669" lon="14.36481249341684"><ele>1017.2</ele><time>2026-04-04T08:25:13Z</time></trkpt><trkpt lat="41.42256480934672" lon="14.364895953852724"><ele>1017.0</ele><time>2026-04-04T08:25:14Z</time></trkpt><trkpt lat="41.42261977352941" lon="14.364965446340532"><ele>1017.0</ele><time>2026-04-04T08:25:15Z</time></trkpt><trkpt lat="41.422674734549425" lon="14.365027849197256"><ele>1017.0</ele><time>2026-04-04T08:25:16Z</time></trkpt><trkpt lat="41.422724851902956" lon="14.365083880646512"><ele>1017.0</ele><time>2026-04-04T08:25:17Z</time></trkpt><trkpt lat="41.422772690464626" lon="14.36514601232891"><ele>1017.0</ele><time>2026-04-04T08:25:18Z</time></trkpt><trkpt lat="41.42284738131241" lon="14.36525427992276"><ele>1017.0</ele><time>2026-04-04T08:25:20Z</time></trkpt><trkpt lat="41.42292032598788" lon="14.365364826317084"><ele>1017.0</ele><time>2026-04-04T08:25:22Z</time></trkpt><trkpt lat="41.42296777412702" lon="14.365440863592413"><ele>1017.6666666666666</ele><time>2026-04-04T08:25:23Z</time></trkpt><trkpt lat="41.42301182326348" lon="14.365525870620292"><ele>1018.3333333333333</ele><time>2026-04-04T08:25:24Z</time></trkpt><trkpt lat="41.423052523187856" lon="14.365612396145057"><ele>1019.0</ele><time>2026-04-04T08:25:25Z</time></trkpt><trkpt lat="41.42309951683267" lon="14.365703137593913"><ele>1019.6666666666666</ele><time>2026-04-04T08:25:26Z</time></trkpt><trkpt lat="41.42314794407099" lon="14.365787881866924"><ele>1020.3333333333333</ele><time>2026-04-04T08:25:27Z</time></trkpt><trkpt lat="41.423201785415415" lon="14.365889122724527"><ele>1021.0</ele><time>2026-04-04T08:25:28Z</time></trkpt><trkpt lat="41.423255421767344" lon="14.366013531038854"><ele>1021.0</ele><time>2026-04-04T08:25:29Z</time></trkpt><trkpt lat="41.42330449288244" lon="14.366153687845083"><ele>1020.9999999999999</ele><time>2026-04-04T08:25:30Z</time></trkpt><trkpt lat="41.42335003132708" lon="14.366295820884412"><ele>1020.9999999999999</ele><time>2026-04-04T08:25:31Z</time></trkpt><trkpt lat="41.42339247613524" lon="14.36642267940313"><ele>1021.0</ele><time>2026-04-04T08:25:32Z</time></trkpt><trkpt lat="41.423434365494586" lon="14.36654375487782"><ele>1021.0</ele><time>2026-04-04T08:25:33Z</time></trkpt><trkpt lat="41.42346876621737" lon="14.366650976333824"><ele>1021.3333333333333</ele><time>2026-04-04T08:25:34Z</time></trkpt><trkpt lat="41.4235004510292" lon="14.366761569876987"><ele>1021.6666666666666</ele><time>2026-04-04T08:25:35Z</time></trkpt><trkpt lat="41.423527056020205" lon="14.366886553507397"><ele>1022.0</ele><time>2026-04-04T08:25:36Z</time></trkpt><trkpt lat="41.42354003209241" lon="14.367001667645662"><ele>1022.3333333333333</ele><time>2026-04-04T08:25:37Z</time></trkpt><trkpt lat="41.42354541663482" lon="14.367112206992873"><ele>1022.6666666666666</ele><time>2026-04-04T08:25:38Z</time></trkpt><trkpt lat="41.4235493594354" lon="14.367225198086734"><ele>1023.0</ele><time>2026-04-04T08:25:39Z</time></trkpt><trkpt lat="41.42355378036578" lon="14.367345156335338"><ele>1023.0</ele><time>2026-04-04T08:25:40Z</time></trkpt><trkpt lat="41.42356090174101" lon="14.367474778870198"><ele>1023.0</ele><time>2026-04-04T08:25:41Z</time></trkpt><trkpt lat="41.42356720540958" lon="14.367601233920588"><ele>1023.0</ele><time>2026-04-04T08:25:42Z</time></trkpt><trkpt lat="41.423573506512405" lon="14.367718232334797"><ele>1023.0</ele><time>2026-04-04T08:25:43Z</time></trkpt><trkpt lat="41.423583120404075" lon="14.367843764716511"><ele>1023.0</ele><time>2026-04-04T08:25:44Z</time></trkpt><trkpt lat="41.423592792368076" lon="14.367964903665674"><ele>1022.5</ele><time>2026-04-04T08:25:45Z</time></trkpt><trkpt lat="41.423597122813945" lon="14.368084858181316"><ele>1022.0</ele><time>2026-04-04T08:25:46Z</time></trkpt><trkpt lat="41.423596467029775" lon="14.368204091734993"><ele>1021.5</ele><time>2026-04-04T08:25:47Z</time></trkpt><trkpt lat="41.423589728747054" lon="14.368313406566363"><ele>1021.0</ele><time>2026-04-04T08:25:48Z</time></trkpt><trkpt lat="41.423578447740724" lon="14.36840281110082"><ele>1020.5</ele><time>2026-04-04T08:25:49Z</time></trkpt><trkpt lat="41.42355051382703" lon="14.36853460358551"><ele>1020.0</ele><time>2026-04-04T08:25:51Z</time></trkpt><trkpt lat="41.42357630324763" lon="14.368379638178592"><ele>1020.0</ele><time>2026-04-04T08:26:09.001Z</time></trkpt><trkpt lat="41.42359088848323" lon="14.368290191461428"><ele>1020.0</ele><time>2026-04-04T08:26:10.001Z</time></trkpt><trkpt lat="41.423597937564196" lon="14.368185116207899"><ele>1020.0</ele><time>2026-04-04T08:26:11.001Z</time></trkpt><trkpt lat="41.42359788219449" lon="14.368066968004364"><ele>1020.0</ele><time>2026-04-04T08:26:12.001Z</time></trkpt><trkpt lat="41.4235912510486" lon="14.367942141395218"><ele>1020.0</ele><time>2026-04-04T08:26:13.001Z</time></trkpt><trkpt lat="41.42358099024985" lon="14.367809340343978"><ele>1020.0</ele><time>2026-04-04T08:26:14.001Z</time></trkpt><trkpt lat="41.42357095863806" lon="14.367679926923897"><ele>1020.6</ele><time>2026-04-04T08:26:15.001Z</time></trkpt><trkpt lat="41.42355939110424" lon="14.367541207622109"><ele>1021.2</ele><time>2026-04-04T08:26:16.001Z</time></trkpt><trkpt lat="41.423551821233794" lon="14.367396163098274"><ele>1021.8</ele><time>2026-04-04T08:26:17.001Z</time></trkpt><trkpt lat="41.42355015540166" lon="14.367243556155717"><ele>1022.4</ele><time>2026-04-04T08:26:18.001Z</time></trkpt><trkpt lat="41.42354926035448" lon="14.367086686537954"><ele>1023.0</ele><time>2026-04-04T08:26:19.001Z</time></trkpt><trkpt lat="41.42354335309006" lon="14.366940738113229"><ele>1023.0</ele><time>2026-04-04T08:26:20.001Z</time></trkpt><trkpt lat="41.42352198940157" lon="14.366795856089471"><ele>1023.0</ele><time>2026-04-04T08:26:21.001Z</time></trkpt><trkpt lat="41.42348179280769" lon="14.366649627647783"><ele>1023.0</ele><time>2026-04-04T08:26:22.001Z</time></trkpt><trkpt lat="41.42343002316886" lon="14.366508017617633"><ele>1023.0</ele><time>2026-04-04T08:26:23.001Z</time></trkpt><trkpt lat="41.42338197704748" lon="14.366379462189302"><ele>1022.5999999999999</ele><time>2026-04-04T08:26:24.001Z</time></trkpt><trkpt lat="41.42334068593362" lon="14.366261115609953"><ele>1022.1999999999999</ele><time>2026-04-04T08:26:25.001Z</time></trkpt><trkpt lat="41.423302429758266" lon="14.36614920694576"><ele>1021.8</ele><time>2026-04-04T08:26:26.001Z</time></trkpt><trkpt lat="41.42326818038961" lon="14.366040487967416"><ele>1021.4</ele><time>2026-04-04T08:26:27.001Z</time></trkpt><trkpt lat="41.42322536455556" lon="14.365921653983841"><ele>1021.0</ele><time>2026-04-04T08:26:28.001Z</time></trkpt><trkpt lat="41.42317116341219" lon="14.365804086473224"><ele>1021.0</ele><time>2026-04-04T08:26:29.001Z</time></trkpt><trkpt lat="41.423107269458164" lon="14.36568958772154"><ele>1021.0</ele><time>2026-04-04T08:26:30.001Z</time></trkpt><trkpt lat="41.42303959953647" lon="14.365572461150109"><ele>1021.0</ele><time>2026-04-04T08:26:31.001Z</time></trkpt><trkpt lat="41.422970281494564" lon="14.365450280056693"><ele>1021.0</ele><time>2026-04-04T08:26:32.001Z</time></trkpt><trkpt lat="41.422899356968706" lon="14.365326056761086"><ele>1020.1999999999999</ele><time>2026-04-04T08:26:33.001Z</time></trkpt><trkpt lat="41.42282373108414" lon="14.365203497366965"><ele>1019.3999999999999</ele><time>2026-04-04T08:26:34.001Z</time></trkpt><trkpt lat="41.42274555028629" lon="14.365095822260413"><ele>1018.6</ele><time>2026-04-04T08:26:35.001Z</time></trkpt><trkpt lat="41.42266773089521" lon="14.365006271187678"><ele>1017.8</ele><time>2026-04-04T08:26:36.001Z</time></trkpt><trkpt lat="41.422592309910144" lon="14.364925534719244"><ele>1017.0</ele><time>2026-04-04T08:26:37.001Z</time></trkpt><trkpt lat="41.42251806355199" lon="14.364844012558214"><ele>1017.0</ele><time>2026-04-04T08:26:38.001Z</time></trkpt><trkpt lat="41.42244697272278" lon="14.364746883467939"><ele>1017.0</ele><time>2026-04-04T08:26:39.001Z</time></trkpt><trkpt lat="41.42237946107985" lon="14.364643354277852"><ele>1017.0</ele><time>2026-04-04T08:26:40.001Z</time></trkpt><trkpt lat="41.42231436116271" lon="14.364546556036123"><ele>1017.0</ele><time>2026-04-04T08:26:41.001Z</time></trkpt><trkpt lat="41.42224534373391" lon="14.364471444994784"><ele>1017.0</ele><time>2026-04-04T08:26:42.001Z</time></trkpt><trkpt lat="41.42217013475514" lon="14.364417237950859"><ele>1017.2</ele><time>2026-04-04T08:26:43.001Z</time></trkpt><trkpt lat="41.42208147411959" lon="14.364367211424058"><ele>1017.4000000000001</ele><time>2026-04-04T08:26:44.001Z</time></trkpt><trkpt lat="41.4219809213527" lon="14.364316986008609"><ele>1017.5999999999999</ele><time>2026-04-04T08:26:45.001Z</time></trkpt><trkpt lat="41.421875852244504" lon="14.364274126672322"><ele>1017.8</ele><time>2026-04-04T08:26:46.001Z</time></trkpt><trkpt lat="41.421761611606044" lon="14.364242869096142"><ele>1018.0</ele><time>2026-04-04T08:26:47.001Z</time></trkpt><trkpt lat="41.421643895410405" lon="14.364231863274762"><ele>1018.0</ele><time>2026-04-04T08:26:48.001Z</time></trkpt><trkpt lat="41.421518992268204" lon="14.364222150697069"><ele>1018.0</ele><time>2026-04-04T08:26:49.001Z</time></trkpt><trkpt lat="41.421395290996585" lon="14.364190674173907"><ele>1018.0</ele><time>2026-04-04T08:26:50.001Z</time></trkpt><trkpt lat="41.42127212346092" lon="14.364138014979686"><ele>1018.0</ele><time>2026-04-04T08:26:51.001Z</time></trkpt><trkpt lat="41.42114814403254" lon="14.364075661175558"><ele>1018.0</ele><time>2026-04-04T08:26:52.001Z</time></trkpt><trkpt lat="41.421027841469765" lon="14.364015464651997"><ele>1018.0</ele><time>2026-04-04T08:26:53.001Z</time></trkpt><trkpt lat="41.42091275860162" lon="14.363956800930378"><ele>1018.0</ele><time>2026-04-04T08:26:54.001Z</time></trkpt><trkpt lat="41.42080582593486" lon="14.363889780056228"><ele>1018.0</ele><time>2026-04-04T08:26:55.001Z</time></trkpt><trkpt lat="41.42071632846424" lon="14.363816428231285"><ele>1017.9999999999999</ele><time>2026-04-04T08:26:56.001Z</time></trkpt><trkpt lat="41.420641963252784" lon="14.363728149064507"><ele>1018.0</ele><time>2026-04-04T08:26:57.001Z</time></trkpt><trkpt lat="41.42057926363978" lon="14.363643651276016"><ele>1018.0</ele><time>2026-04-04T08:26:58.001Z</time></trkpt><trkpt lat="41.42051368054361" lon="14.363566965513034"><ele>1018.0</ele><time>2026-04-04T08:26:59.001Z</time></trkpt><trkpt lat="41.42044259011659" lon="14.363516960947951"><ele>1017.9999999999999</ele><time>2026-04-04T08:27:00.001Z</time></trkpt><trkpt lat="41.42036237439415" lon="14.363499850205143"><ele>1018.0</ele><time>2026-04-04T08:27:01.001Z</time></trkpt><trkpt lat="41.42027095784205" lon="14.363514526537903"><ele>1018.5999999999999</ele><time>2026-04-04T08:27:02.001Z</time></trkpt><trkpt lat="41.42017305625667" lon="14.363550687526274"><ele>1019.1999999999999</ele><time>2026-04-04T08:27:03.001Z</time></trkpt><trkpt lat="41.42007912168364" lon="14.363588158628911"><ele>1019.8</ele><time>2026-04-04T08:27:04.001Z</time></trkpt><trkpt lat="41.41999278735702" lon="14.363618217187767"><ele>1020.4</ele><time>2026-04-04T08:27:05.001Z</time></trkpt><trkpt lat="41.41990862400927" lon="14.36365759824852"><ele>1021.0</ele><time>2026-04-04T08:27:06.001Z</time></trkpt><trkpt lat="41.419815527593265" lon="14.363735197727186"><ele>1021.0</ele><time>2026-04-04T08:27:07.001Z</time></trkpt><trkpt lat="41.419726206507214" lon="14.363838994533424"><ele>1021.0</ele><time>2026-04-04T08:27:08.001Z</time></trkpt><trkpt lat="41.41963236701364" lon="14.363959047194925"><ele>1021.0</ele><time>2026-04-04T08:27:09.001Z</time></trkpt><trkpt lat="41.41953464713147" lon="14.36408447041803"><ele>1021.0</ele><time>2026-04-04T08:27:10.001Z</time></trkpt><trkpt lat="41.41943470846285" lon="14.364216763834174"><ele>1019.6666666666666</ele><time>2026-04-04T08:27:11Z</time></trkpt><trkpt lat="41.41932800405921" lon="14.364353240022963"><ele>1018.3333333333333</ele><time>2026-04-04T08:27:12Z</time></trkpt><trkpt lat="41.41921453159998" lon="14.364490803161553"><ele>1017.0</ele><time>2026-04-04T08:27:13Z</time></trkpt><trkpt lat="41.41909783329581" lon="14.364634782421861"><ele>1016.6666666666667</ele><time>2026-04-04T08:27:14Z</time></trkpt><trkpt lat="41.4189819543448" lon="14.364785076946726"><ele>1016.3333333333334</ele><time>2026-04-04T08:27:15Z</time></trkpt><trkpt lat="41.41886715216514" lon="14.36493921434324"><ele>1016.0</ele><time>2026-04-04T08:27:16Z</time></trkpt><trkpt lat="41.418754633248646" lon="14.365099469118515"><ele>1016.0</ele><time>2026-04-04T08:27:17Z</time></trkpt><trkpt lat="41.418649947486664" lon="14.365257578667386"><ele>1016.0</ele><time>2026-04-04T08:27:18Z</time></trkpt><trkpt lat="41.41854387860555" lon="14.365418794308802"><ele>1016.0</ele><time>2026-04-04T08:27:19Z</time></trkpt><trkpt lat="41.41843391709904" lon="14.365580424040793"><ele>1016.0</ele><time>2026-04-04T08:27:20Z</time></trkpt><trkpt lat="41.418325688446274" lon="14.36574435178361"><ele>1016.0</ele><time>2026-04-04T08:27:21Z</time></trkpt><trkpt lat="41.418219504728185" lon="14.36591440612208"><ele>1016.0</ele><time>2026-04-04T08:27:22Z</time></trkpt><trkpt lat="41.41812068991646" lon="14.366096796386694"><ele>1016.0</ele><time>2026-04-04T08:27:23Z</time></trkpt><trkpt lat="41.41801366946938" lon="14.366237456042434"><ele>1016.0</ele><time>2026-04-04T08:27:24Z</time></trkpt><trkpt lat="41.417912762032906" lon="14.366396635809265"><ele>1016.0</ele><time>2026-04-04T08:27:25Z</time></trkpt><trkpt lat="41.417816393836944" lon="14.366567584635263"><ele>1017.75</ele><time>2026-04-04T08:27:26Z</time></trkpt><trkpt lat="41.417734256112205" lon="14.366728174398675"><ele>1019.5</ele><time>2026-04-04T08:27:27Z</time></trkpt><trkpt lat="41.417660854258145" lon="14.366875880092625"><ele>1021.25</ele><time>2026-04-04T08:27:28Z</time></trkpt><trkpt lat="41.41759107699073" lon="14.366999441919589"><ele>1023.0</ele><time>2026-04-04T08:27:29Z</time></trkpt><trkpt lat="41.41753097781885" lon="14.367090165987724"><ele>1023.0</ele><time>2026-04-04T08:27:30Z</time></trkpt><trkpt lat="41.417487758864354" lon="14.367158779806752"><ele>1023.0</ele><time>2026-04-04T08:27:31Z</time></trkpt><trkpt lat="41.417453351171524" lon="14.367235075394733"><ele>1023.0</ele><time>2026-04-04T08:27:32Z</time></trkpt><trkpt lat="41.417416616154846" lon="14.367344223186286"><ele>1023.0</ele><time>2026-04-04T08:27:33Z</time></trkpt><trkpt lat="41.41738826502638" lon="14.367470054995934"><ele>1023.0</ele><time>2026-04-04T08:27:34Z</time></trkpt><trkpt lat="41.417362347438605" lon="14.367607050135605"><ele>1023.0</ele><time>2026-04-04T08:27:35Z</time></trkpt><trkpt lat="41.417331294334865" lon="14.367746962856389"><ele>1021.5</ele><time>2026-04-04T08:27:36Z</time></trkpt><trkpt lat="41.41729280402402" lon="14.367883503363528"><ele>1020.0</ele><time>2026-04-04T08:27:37Z</time></trkpt><trkpt lat="41.417255063364095" lon="14.368032884104352"><ele>1018.5</ele><time>2026-04-04T08:27:38Z</time></trkpt><trkpt lat="41.41721819258671" lon="14.368202638720476"><ele>1017.0</ele><time>2026-04-04T08:27:39Z</time></trkpt><trkpt lat="41.41717981984724" lon="14.368375206645277"><ele>1018.5</ele><time>2026-04-04T08:27:40Z</time></trkpt><trkpt lat="41.417139549092106" lon="14.368547415654554"><ele>1020.0</ele><time>2026-04-04T08:27:41Z</time></trkpt><trkpt lat="41.41710314980504" lon="14.368727057159509"><ele>1021.5</ele><time>2026-04-04T08:27:42Z</time></trkpt><trkpt lat="41.417063696953235" lon="14.368918626219557"><ele>1023.0</ele><time>2026-04-04T08:27:43Z</time></trkpt><trkpt lat="41.417020921866566" lon="14.369115298788126"><ele>1023.3333333333333</ele><time>2026-04-04T08:27:44Z</time></trkpt><trkpt lat="41.41697124538334" lon="14.369319824854085"><ele>1023.6666666666666</ele><time>2026-04-04T08:27:45Z</time></trkpt><trkpt lat="41.416920553511616" lon="14.369530351090525"><ele>1024.0</ele><time>2026-04-04T08:27:46Z</time></trkpt><trkpt lat="41.416871462461295" lon="14.36973597577592"><ele>1024.0</ele><time>2026-04-04T08:27:47Z</time></trkpt><trkpt lat="41.41682276133136" lon="14.369931055597153"><ele>1024.0</ele><time>2026-04-04T08:27:48Z</time></trkpt><trkpt lat="41.4167727948135" lon="14.370096928703632"><ele>1024.0</ele><time>2026-04-04T08:27:49Z</time></trkpt><trkpt lat="41.416710903474105" lon="14.370241235103977"><ele>1024.0</ele><time>2026-04-04T08:27:50Z</time></trkpt><trkpt lat="41.4166208930605" lon="14.370373664855341"><ele>1024.0</ele><time>2026-04-04T08:27:51Z</time></trkpt><trkpt lat="41.41650632741454" lon="14.37048630596404"><ele>1024.0</ele><time>2026-04-04T08:27:52Z</time></trkpt><trkpt lat="41.41637442017158" lon="14.37058501475544"><ele>1024.0</ele><time>2026-04-04T08:27:53Z</time></trkpt><trkpt lat="41.416232899384035" lon="14.37068745668803"><ele>1023.3333333333333</ele><time>2026-04-04T08:27:54Z</time></trkpt><trkpt lat="41.41609852450657" lon="14.37080031784048"><ele>1022.6666666666667</ele><time>2026-04-04T08:27:55Z</time></trkpt><trkpt lat="41.41597893465312" lon="14.370946021635637"><ele>1022.0</ele><time>2026-04-04T08:27:56Z</time></trkpt><trkpt lat="41.415878175390816" lon="14.3711276994285"><ele>1022.0</ele><time>2026-04-04T08:27:57Z</time></trkpt><trkpt lat="41.415775234106555" lon="14.371312741481603"><ele>1022.0</ele><time>2026-04-04T08:27:58Z</time></trkpt><trkpt lat="41.41566762714847" lon="14.371493284000023"><ele>1022.0</ele><time>2026-04-04T08:27:59Z</time></trkpt><trkpt lat="41.41555689047634" lon="14.371671624501099"><ele>1022.6666666666667</ele><time>2026-04-04T08:28:00Z</time></trkpt><trkpt lat="41.415452077796125" lon="14.371847606843447"><ele>1023.3333333333333</ele><time>2026-04-04T08:28:01Z</time></trkpt><trkpt lat="41.41534645030667" lon="14.372033478762168"><ele>1024.0</ele><time>2026-04-04T08:28:02Z</time></trkpt><trkpt lat="41.41524398945674" lon="14.37222047378626"><ele>1022.0</ele><time>2026-04-04T08:28:03.001Z</time></trkpt><trkpt lat="41.41514320367955" lon="14.372410182160046"><ele>1020.0</ele><time>2026-04-04T08:28:04.001Z</time></trkpt><trkpt lat="41.41505249315043" lon="14.372596782452908"><ele>1018.0</ele><time>2026-04-04T08:28:05.001Z</time></trkpt><trkpt lat="41.41496841184107" lon="14.37279941969683"><ele>1018.0</ele><time>2026-04-04T08:28:06.001Z</time></trkpt><trkpt lat="41.41489051588154" lon="14.372995606900767"><ele>1018.0</ele><time>2026-04-04T08:28:07.001Z</time></trkpt><trkpt lat="41.41479894730087" lon="14.373185595247998"><ele>1018.0</ele><time>2026-04-04T08:28:08.001Z</time></trkpt><trkpt lat="41.414694694551436" lon="14.373367410891914"><ele>1019.0</ele><time>2026-04-04T08:28:09.001Z</time></trkpt><trkpt lat="41.41458154718838" lon="14.373548291446918"><ele>1020.0</ele><time>2026-04-04T08:28:10.001Z</time></trkpt><trkpt lat="41.41447095943415" lon="14.373725491617176"><ele>1021.0</ele><time>2026-04-04T08:28:11.001Z</time></trkpt><trkpt lat="41.414368381436454" lon="14.373903646533893"><ele>1021.0</ele><time>2026-04-04T08:28:12.001Z</time></trkpt><trkpt lat="41.41428543797356" lon="14.37409083239177"><ele>1021.0</ele><time>2026-04-04T08:28:13.001Z</time></trkpt><trkpt lat="41.41421809390683" lon="14.37429237952335"><ele>1021.0</ele><time>2026-04-04T08:28:14.001Z</time></trkpt><trkpt lat="41.414158848512606" lon="14.374499502226575"><ele>1018.6666666666666</ele><time>2026-04-04T08:28:15.001Z</time></trkpt><trkpt lat="41.41409742794385" lon="14.374709150606034"><ele>1016.3333333333333</ele><time>2026-04-04T08:28:16.001Z</time></trkpt><trkpt lat="41.414031712785935" lon="14.374924786505565"><ele>1014.0</ele><time>2026-04-04T08:28:17.001Z</time></trkpt><trkpt lat="41.41396452111632" lon="14.375144471810932"><ele>1014.0</ele><time>2026-04-04T08:28:18.001Z</time></trkpt><trkpt lat="41.41389374410036" lon="14.375351263319306"><ele>1014.0</ele><time>2026-04-04T08:28:19.001Z</time></trkpt><trkpt lat="41.413811752328506" lon="14.375554823621558"><ele>1014.0</ele><time>2026-04-04T08:28:20.001Z</time></trkpt><trkpt lat="41.413718903707675" lon="14.375752448734206"><ele>1015.0</ele><time>2026-04-04T08:28:21.001Z</time></trkpt><trkpt lat="41.413622874357145" lon="14.375953943300633"><ele>1016.0</ele><time>2026-04-04T08:28:22.001Z</time></trkpt><trkpt lat="41.413519599154526" lon="14.376155800150594"><ele>1017.0</ele><time>2026-04-04T08:28:23.001Z</time></trkpt><trkpt lat="41.41341777617212" lon="14.37635811689803"><ele>1017.0</ele><time>2026-04-04T08:28:24.001Z</time></trkpt><trkpt lat="41.41332147136404" lon="14.37655604444504"><ele>1017.0</ele><time>2026-04-04T08:28:25.001Z</time></trkpt><trkpt lat="41.41322748749564" lon="14.376758696441486"><ele>1017.0</ele><time>2026-04-04T08:28:26.001Z</time></trkpt><trkpt lat="41.41313496597943" lon="14.376964260358916"><ele>1017.0</ele><time>2026-04-04T08:28:27.001Z</time></trkpt><trkpt lat="41.4130393446412" lon="14.377157444977323"><ele>1017.0</ele><time>2026-04-04T08:28:28.001Z</time></trkpt><trkpt lat="41.4129304278003" lon="14.377340111342933"><ele>1017.0</ele><time>2026-04-04T08:28:29.001Z</time></trkpt><trkpt lat="41.41280468324312" lon="14.377495286020357"><ele>1020.3333333333333</ele><time>2026-04-04T08:28:30.001Z</time></trkpt><trkpt lat="41.41265770941874" lon="14.377631066273379"><ele>1023.6666666666666</ele><time>2026-04-04T08:28:31.001Z</time></trkpt><trkpt lat="41.412505892154414" lon="14.377760096357537"><ele>1027.0</ele><time>2026-04-04T08:28:32.001Z</time></trkpt><trkpt lat="41.41235039228661" lon="14.37788598023894"><ele>1027.0</ele><time>2026-04-04T08:28:33.001Z</time></trkpt><trkpt lat="41.41219850010038" lon="14.378016835483267"><ele>1027.0</ele><time>2026-04-04T08:28:34.001Z</time></trkpt><trkpt lat="41.41205671071797" lon="14.37817666042925"><ele>1027.0</ele><time>2026-04-04T08:28:35.001Z</time></trkpt><trkpt lat="41.41194045503448" lon="14.378356767436705"><ele>1024.3333333333333</ele><time>2026-04-04T08:28:36.001Z</time></trkpt><trkpt lat="41.41183968649059" lon="14.378558214179446"><ele>1021.6666666666667</ele><time>2026-04-04T08:28:37.001Z</time></trkpt><trkpt lat="41.411750110641115" lon="14.37876474874579"><ele>1019.0</ele><time>2026-04-04T08:28:38.001Z</time></trkpt><trkpt lat="41.41166348130474" lon="14.378966254850415"><ele>1017.3333333333334</ele><time>2026-04-04T08:28:39.001Z</time></trkpt><trkpt lat="41.411574553908686" lon="14.379165625372174"><ele>1015.6666666666667</ele><time>2026-04-04T08:28:40.001Z</time></trkpt><trkpt lat="41.41148344428822" lon="14.379369137766643"><ele>1014.0</ele><time>2026-04-04T08:28:41.001Z</time></trkpt><trkpt lat="41.4113939679467" lon="14.37956641240132"><ele>1019.6666666666667</ele><time>2026-04-04T08:28:42.001Z</time></trkpt><trkpt lat="41.411304174938074" lon="14.37976949429137"><ele>1025.3333333333335</ele><time>2026-04-04T08:28:43.001Z</time></trkpt><trkpt lat="41.41120939521023" lon="14.379969656306438"><ele>1031.0</ele><time>2026-04-04T08:28:44.001Z</time></trkpt><trkpt lat="41.41111829418003" lon="14.38016871988068"><ele>1031.0</ele><time>2026-04-04T08:28:45.001Z</time></trkpt><trkpt lat="41.41103321364228" lon="14.38037718339836"><ele>1031.0</ele><time>2026-04-04T08:28:46.001Z</time></trkpt><trkpt lat="41.410955967801655" lon="14.380595436057979"><ele>1031.0</ele><time>2026-04-04T08:28:47.001Z</time></trkpt><trkpt lat="41.41088291152773" lon="14.380818972773529"><ele>1028.3333333333335</ele><time>2026-04-04T08:28:48.001Z</time></trkpt><trkpt lat="41.410812633569236" lon="14.381046112762375"><ele>1025.6666666666667</ele><time>2026-04-04T08:28:49.001Z</time></trkpt><trkpt lat="41.410741107440046" lon="14.381280352494356"><ele>1023.0</ele><time>2026-04-04T08:28:50.001Z</time></trkpt><trkpt lat="41.410670431155026" lon="14.381513056497365"><ele>1022.0</ele><time>2026-04-04T08:28:51.001Z</time></trkpt><trkpt lat="41.41060072479012" lon="14.381746260613617"><ele>1021.0</ele><time>2026-04-04T08:28:52.001Z</time></trkpt><trkpt lat="41.41052807750507" lon="14.381975831367484"><ele>1020.0</ele><time>2026-04-04T08:28:53.001Z</time></trkpt><trkpt lat="41.410439561855426" lon="14.382204052602741"><ele>1020.0</ele><time>2026-04-04T08:28:54.001Z</time></trkpt><trkpt lat="41.41033438948244" lon="14.382419286461491"><ele>1020.0</ele><time>2026-04-04T08:28:55.001Z</time></trkpt><trkpt lat="41.410228836370166" lon="14.382636259979417"><ele>1020.0</ele><time>2026-04-04T08:28:56.001Z</time></trkpt><trkpt lat="41.41012810473864" lon="14.382857753600335"><ele>1018.6666666666667</ele><time>2026-04-04T08:28:57.001Z</time></trkpt><trkpt lat="41.41003079326485" lon="14.383082974563203"><ele>1017.3333333333334</ele><time>2026-04-04T08:28:58.001Z</time></trkpt><trkpt lat="41.40994150353218" lon="14.383312781661013"><ele>1016.0</ele><time>2026-04-04T08:28:59.001Z</time></trkpt><trkpt lat="41.40985922588923" lon="14.383546435649386"><ele>1016.0</ele><time>2026-04-04T08:29:00.001Z</time></trkpt><trkpt lat="41.40978752235967" lon="14.38378835420698"><ele>1016.0</ele><time>2026-04-04T08:29:01.001Z</time></trkpt><trkpt lat="41.40972107030918" lon="14.384030615556703"><ele>1016.0</ele><time>2026-04-04T08:29:02.001Z</time></trkpt><trkpt lat="41.409657925126766" lon="14.384273122928521"><ele>1016.6666666666667</ele><time>2026-04-04T08:29:03.001Z</time></trkpt><trkpt lat="41.40959406625937" lon="14.384512138131184"><ele>1017.3333333333333</ele><time>2026-04-04T08:29:04.001Z</time></trkpt><trkpt lat="41.40951420124202" lon="14.384732790070569"><ele>1018.0</ele><time>2026-04-04T08:29:05.001Z</time></trkpt><trkpt lat="41.40940384783942" lon="14.38491133390818"><ele>1018.0</ele><time>2026-04-04T08:29:06.001Z</time></trkpt><trkpt lat="41.40927151078931" lon="14.385091404477262"><ele>1018.0</ele><time>2026-04-04T08:29:07.001Z</time></trkpt><trkpt lat="41.40914052095438" lon="14.385279826957632"><ele>1018.0</ele><time>2026-04-04T08:29:08.001Z</time></trkpt><trkpt lat="41.40901213128809" lon="14.385477670782738"><ele>1017.6666666666666</ele><time>2026-04-04T08:29:09.001Z</time></trkpt><trkpt lat="41.408889865528884" lon="14.385673823200293"><ele>1017.3333333333333</ele><time>2026-04-04T08:29:10.001Z</time></trkpt><trkpt lat="41.40877347081475" lon="14.385861901225187"><ele>1017.0</ele><time>2026-04-04T08:29:11.001Z</time></trkpt><trkpt lat="41.40866209406746" lon="14.386057980330902"><ele>1017.0</ele><time>2026-04-04T08:29:12.001Z</time></trkpt><trkpt lat="41.408569848302946" lon="14.386258496630509"><ele>1017.0</ele><time>2026-04-04T08:29:13.001Z</time></trkpt><trkpt lat="41.40849754099824" lon="14.386468299886475"><ele>1017.0</ele><time>2026-04-04T08:29:14.001Z</time></trkpt><trkpt lat="41.40843966222483" lon="14.38669165324105"><ele>1017.3333333333333</ele><time>2026-04-04T08:29:15.001Z</time></trkpt><trkpt lat="41.40838948634827" lon="14.386911324280327"><ele>1017.6666666666666</ele><time>2026-04-04T08:29:16.001Z</time></trkpt><trkpt lat="41.40833272236117" lon="14.387141770365048"><ele>1018.0</ele><time>2026-04-04T08:29:17Z</time></trkpt><trkpt lat="41.40827788227623" lon="14.387371314070892"><ele>1018.3333333333333</ele><time>2026-04-04T08:29:18Z</time></trkpt><trkpt lat="41.40822191313609" lon="14.387601109396845"><ele>1018.6666666666667</ele><time>2026-04-04T08:29:19Z</time></trkpt><trkpt lat="41.4081758153526" lon="14.387840894427997"><ele>1019.0</ele><time>2026-04-04T08:29:20Z</time></trkpt><trkpt lat="41.40814253186927" lon="14.38808429695653"><ele>1019.0</ele><time>2026-04-04T08:29:21Z</time></trkpt><trkpt lat="41.40811816047832" lon="14.38832734977414"><ele>1019.0</ele><time>2026-04-04T08:29:22Z</time></trkpt><trkpt lat="41.4081066322782" lon="14.388579116589215"><ele>1019.0</ele><time>2026-04-04T08:29:23Z</time></trkpt><trkpt lat="41.40810532028365" lon="14.388829316578475"><ele>1018.3333333333334</ele><time>2026-04-04T08:29:24Z</time></trkpt><trkpt lat="41.40811018428164" lon="14.389078017773615"><ele>1017.6666666666667</ele><time>2026-04-04T08:29:25Z</time></trkpt><trkpt lat="41.40812285804261" lon="14.389331641447967"><ele>1017.0</ele><time>2026-04-04T08:29:26Z</time></trkpt><trkpt lat="41.408130158682795" lon="14.389584438244354"><ele>1016.6666666666667</ele><time>2026-04-04T08:29:27Z</time></trkpt><trkpt lat="41.40813725000696" lon="14.389837505074262"><ele>1016.3333333333334</ele><time>2026-04-04T08:29:28Z</time></trkpt><trkpt lat="41.40814488334754" lon="14.390071667784333"><ele>1016.0</ele><time>2026-04-04T08:29:29Z</time></trkpt><trkpt lat="41.408150263449926" lon="14.39027357465914"><ele>1016.0</ele><time>2026-04-04T08:29:30Z</time></trkpt><trkpt lat="41.4081495164391" lon="14.390470597944432"><ele>1016.0</ele><time>2026-04-04T08:29:31Z</time></trkpt><trkpt lat="41.40813833724024" lon="14.390672174917139"><ele>1016.0</ele><time>2026-04-04T08:29:32Z</time></trkpt><trkpt lat="41.40812202281544" lon="14.390886228709299"><ele>1015.6666666666667</ele><time>2026-04-04T08:29:33Z</time></trkpt><trkpt lat="41.40810314278154" lon="14.391102344409644"><ele>1015.3333333333333</ele><time>2026-04-04T08:29:34Z</time></trkpt><trkpt lat="41.40808163410043" lon="14.391326170559303"><ele>1015.0</ele><time>2026-04-04T08:29:35Z</time></trkpt><trkpt lat="41.40806187520532" lon="14.391553805765229"><ele>1015.0</ele><time>2026-04-04T08:29:36Z</time></trkpt><trkpt lat="41.408042814599355" lon="14.39178945978425"><ele>1015.0</ele><time>2026-04-04T08:29:37Z</time></trkpt><trkpt lat="41.408024270288884" lon="14.392026976004567"><ele>1015.0</ele><time>2026-04-04T08:29:38Z</time></trkpt><trkpt lat="41.40800490801022" lon="14.392266617122406"><ele>1022.6666666666666</ele><time>2026-04-04T08:29:39Z</time></trkpt><trkpt lat="41.40798154755477" lon="14.392510691609443"><ele>1030.3333333333333</ele><time>2026-04-04T08:29:40Z</time></trkpt><trkpt lat="41.407954497225035" lon="14.392754957652627"><ele>1038.0</ele><time>2026-04-04T08:29:41Z</time></trkpt><trkpt lat="41.40792290914938" lon="14.393003144756998"><ele>1042.0</ele><time>2026-04-04T08:29:42Z</time></trkpt><trkpt lat="41.40789283771963" lon="14.39325493781335"><ele>1046.0</ele><time>2026-04-04T08:29:43Z</time></trkpt><trkpt lat="41.40786384390142" lon="14.393510642436611"><ele>1050.0</ele><time>2026-04-04T08:29:44Z</time></trkpt><trkpt lat="41.407840584000255" lon="14.393764762731056"><ele>1052.0</ele><time>2026-04-04T08:29:45Z</time></trkpt><trkpt lat="41.407824485113366" lon="14.394014772366392"><ele>1054.0</ele><time>2026-04-04T08:29:46Z</time></trkpt><trkpt lat="41.40781101578985" lon="14.394261346517338"><ele>1056.0</ele><time>2026-04-04T08:29:47Z</time></trkpt><trkpt lat="41.40779560543477" lon="14.39450468488673"><ele>1054.3333333333333</ele><time>2026-04-04T08:29:48Z</time></trkpt><trkpt lat="41.40777882005899" lon="14.394746123633128"><ele>1052.6666666666665</ele><time>2026-04-04T08:29:49Z</time></trkpt><trkpt lat="41.40775852392828" lon="14.394985303524694"><ele>1051.0</ele><time>2026-04-04T08:29:50Z</time></trkpt><trkpt lat="41.40773826302346" lon="14.395222167147663"><ele>1051.0</ele><time>2026-04-04T08:29:51Z</time></trkpt><trkpt lat="41.40772421326227" lon="14.395464123168152"><ele>1051.0</ele><time>2026-04-04T08:29:52Z</time></trkpt><trkpt lat="41.40770930879798" lon="14.395712547512131"><ele>1051.0</ele><time>2026-04-04T08:29:53Z</time></trkpt><trkpt lat="41.40768682683752" lon="14.395964834979878"><ele>1050.3333333333333</ele><time>2026-04-04T08:29:54Z</time></trkpt><trkpt lat="41.4076616261644" lon="14.39621986849765"><ele>1049.6666666666667</ele><time>2026-04-04T08:29:55Z</time></trkpt><trkpt lat="41.40763224242434" lon="14.396471274798262"><ele>1049.0</ele><time>2026-04-04T08:29:56Z</time></trkpt><trkpt lat="41.40759959185154" lon="14.396731637853382"><ele>1046.6666666666667</ele><time>2026-04-04T08:29:57Z</time></trkpt><trkpt lat="41.40756718063775" lon="14.396990322144559"><ele>1044.3333333333333</ele><time>2026-04-04T08:29:58Z</time></trkpt><trkpt lat="41.407540586971265" lon="14.39724882976659"><ele>1042.0</ele><time>2026-04-04T08:29:59Z</time></trkpt><trkpt lat="41.40752106774185" lon="14.397508938351784"><ele>1038.3333333333333</ele><time>2026-04-04T08:30:00Z</time></trkpt><trkpt lat="41.40751443896007" lon="14.39776799474114"><ele>1034.6666666666667</ele><time>2026-04-04T08:30:01Z</time></trkpt><trkpt lat="41.40752067055738" lon="14.398027043987964"><ele>1031.0</ele><time>2026-04-04T08:30:02Z</time></trkpt><trkpt lat="41.407529828047785" lon="14.39828479903132"><ele>1030.3333333333335</ele><time>2026-04-04T08:30:03Z</time></trkpt><trkpt lat="41.407537860298554" lon="14.398537193731343"><ele>1029.6666666666667</ele><time>2026-04-04T08:30:04Z</time></trkpt><trkpt lat="41.40754366490538" lon="14.398790568195274"><ele>1029.0</ele><time>2026-04-04T08:30:05Z</time></trkpt><trkpt lat="41.40754631800704" lon="14.399041646504719"><ele>1027.6666666666667</ele><time>2026-04-04T08:30:06Z</time></trkpt><trkpt lat="41.407550700092244" lon="14.399295562987497"><ele>1026.3333333333335</ele><time>2026-04-04T08:30:07Z</time></trkpt><trkpt lat="41.40755157374272" lon="14.399547591038326"><ele>1025.0</ele><time>2026-04-04T08:30:08Z</time></trkpt><trkpt lat="41.407540913088326" lon="14.399795506291218"><ele>1024.3333333333335</ele><time>2026-04-04T08:30:09Z</time></trkpt><trkpt lat="41.40751332712677" lon="14.400045083740196"><ele>1023.6666666666667</ele><time>2026-04-04T08:30:10.001Z</time></trkpt><trkpt lat="41.4074794877739" lon="14.400296879600079"><ele>1023.0</ele><time>2026-04-04T08:30:11.001Z</time></trkpt><trkpt lat="41.40744113397468" lon="14.400546613639424"><ele>1023.0</ele><time>2026-04-04T08:30:12.001Z</time></trkpt><trkpt lat="41.407400259365566" lon="14.400797065945644"><ele>1023.0</ele><time>2026-04-04T08:30:13.001Z</time></trkpt><trkpt lat="41.407351573219714" lon="14.401045920237788"><ele>1023.0</ele><time>2026-04-04T08:30:14.001Z</time></trkpt><trkpt lat="41.40730175318759" lon="14.40129397179592"><ele>1022.0</ele><time>2026-04-04T08:30:15.001Z</time></trkpt><trkpt lat="41.40725174615431" lon="14.401545220521953"><ele>1021.0</ele><time>2026-04-04T08:30:16.001Z</time></trkpt><trkpt lat="41.40720227139928" lon="14.401791089083122"><ele>1020.0</ele><time>2026-04-04T08:30:17.001Z</time></trkpt><trkpt lat="41.407155506456796" lon="14.402033801432447"><ele>1033.6666666666667</ele><time>2026-04-04T08:30:18.001Z</time></trkpt><trkpt lat="41.40711045375434" lon="14.402272537356279"><ele>1047.3333333333335</ele><time>2026-04-04T08:30:19.001Z</time></trkpt><trkpt lat="41.40706278461877" lon="14.402516320914412"><ele>1061.0</ele><time>2026-04-04T08:30:20.001Z</time></trkpt><trkpt lat="41.40701458129492" lon="14.402761911670536"><ele>1056.0</ele><time>2026-04-04T08:30:21.001Z</time></trkpt><trkpt lat="41.40696827150937" lon="14.40300960950188"><ele>1051.0</ele><time>2026-04-04T08:30:22.001Z</time></trkpt><trkpt lat="41.40691714146139" lon="14.403253020212443"><ele>1046.0</ele><time>2026-04-04T08:30:23.001Z</time></trkpt><trkpt lat="41.40686726700109" lon="14.403493742982963"><ele>1046.0</ele><time>2026-04-04T08:30:24.001Z</time></trkpt><trkpt lat="41.4068174117061" lon="14.403731335929116"><ele>1046.0</ele><time>2026-04-04T08:30:25.001Z</time></trkpt><trkpt lat="41.406766573584434" lon="14.40396882132893"><ele>1046.0</ele><time>2026-04-04T08:30:26.001Z</time></trkpt><trkpt lat="41.40671344244346" lon="14.404204622807722"><ele>1043.3333333333335</ele><time>2026-04-04T08:30:27.001Z</time></trkpt><trkpt lat="41.406659599700255" lon="14.404435578594121"><ele>1040.6666666666667</ele><time>2026-04-04T08:30:28.001Z</time></trkpt><trkpt lat="41.40660188636" lon="14.404667533101314"><ele>1038.0</ele><time>2026-04-04T08:30:29.001Z</time></trkpt><trkpt lat="41.406539845007806" lon="14.40490028635975"><ele>1036.3333333333333</ele><time>2026-04-04T08:30:30.001Z</time></trkpt><trkpt lat="41.40648138716326" lon="14.405136717631986"><ele>1034.6666666666665</ele><time>2026-04-04T08:30:31.001Z</time></trkpt><trkpt lat="41.406419197669294" lon="14.405376142891825"><ele>1033.0</ele><time>2026-04-04T08:30:32.001Z</time></trkpt><trkpt lat="41.406363534249486" lon="14.40561252407669"><ele>1043.6666666666665</ele><time>2026-04-04T08:30:33.001Z</time></trkpt><trkpt lat="41.40630312344911" lon="14.405857382896341"><ele>1054.3333333333333</ele><time>2026-04-04T08:30:34.001Z</time></trkpt><trkpt lat="41.40624468125853" lon="14.406093763873818"><ele>1065.0</ele><time>2026-04-04T08:30:35.001Z</time></trkpt><trkpt lat="41.40618260404839" lon="14.40632981179696"><ele>1065.0</ele><time>2026-04-04T08:30:36.001Z</time></trkpt><trkpt lat="41.40611242914305" lon="14.406570735390615"><ele>1065.0</ele><time>2026-04-04T08:30:37.001Z</time></trkpt><trkpt lat="41.40603862644359" lon="14.406806018757196"><ele>1065.0</ele><time>2026-04-04T08:30:38.001Z</time></trkpt><trkpt lat="41.40595768302789" lon="14.40703637344843"><ele>1061.3333333333333</ele><time>2026-04-04T08:30:39.001Z</time></trkpt><trkpt lat="41.40587337026313" lon="14.407267384906044"><ele>1057.6666666666665</ele><time>2026-04-04T08:30:40.001Z</time></trkpt><trkpt lat="41.40578886261917" lon="14.407497934827543"><ele>1054.0</ele><time>2026-04-04T08:30:41.001Z</time></trkpt><trkpt lat="41.405711245307145" lon="14.407732513454192"><ele>1054.0</ele><time>2026-04-04T08:30:42.001Z</time></trkpt><trkpt lat="41.40562951691025" lon="14.407962876958587"><ele>1054.0</ele><time>2026-04-04T08:30:43.001Z</time></trkpt><trkpt lat="41.405549099323736" lon="14.408198459285018"><ele>1054.0</ele><time>2026-04-04T08:30:44.001Z</time></trkpt><trkpt lat="41.40546679234962" lon="14.40842698718744"><ele>1061.6666666666665</ele><time>2026-04-04T08:30:45.001Z</time></trkpt><trkpt lat="41.40538523064121" lon="14.40865557444313"><ele>1069.3333333333333</ele><time>2026-04-04T08:30:46.001Z</time></trkpt><trkpt lat="41.405304286143" lon="14.408886571915374"><ele>1077.0</ele><time>2026-04-04T08:30:47.001Z</time></trkpt><trkpt lat="41.40523534411444" lon="14.409116921738725"><ele>1077.0</ele><time>2026-04-04T08:30:48.001Z</time></trkpt><trkpt lat="41.40518123100077" lon="14.409356001531004"><ele>1077.0</ele><time>2026-04-04T08:30:49.001Z</time></trkpt><trkpt lat="41.405137301182684" lon="14.409601010723435"><ele>1077.0</ele><time>2026-04-04T08:30:50.001Z</time></trkpt><trkpt lat="41.40509445862292" lon="14.40984978914103"><ele>1075.0</ele><time>2026-04-04T08:30:51.001Z</time></trkpt><trkpt lat="41.40504728252076" lon="14.410102906360063"><ele>1073.0</ele><time>2026-04-04T08:30:52.001Z</time></trkpt><trkpt lat="41.40499690057545" lon="14.410340563286073"><ele>1071.0</ele><time>2026-04-04T08:30:53.001Z</time></trkpt><trkpt lat="41.40493905045414" lon="14.410573590238336"><ele>1067.6666666666667</ele><time>2026-04-04T08:30:54.001Z</time></trkpt><trkpt lat="41.40487880910462" lon="14.410802623798112"><ele>1064.3333333333335</ele><time>2026-04-04T08:30:55.001Z</time></trkpt><trkpt lat="41.40481829584908" lon="14.411029897917691"><ele>1061.0</ele><time>2026-04-04T08:30:56.001Z</time></trkpt><trkpt lat="41.404749392124764" lon="14.411253966870087"><ele>1058.6666666666667</ele><time>2026-04-04T08:30:57.001Z</time></trkpt><trkpt lat="41.40468852056524" lon="14.411472036485709"><ele>1056.3333333333333</ele><time>2026-04-04T08:30:58.001Z</time></trkpt><trkpt lat="41.40463168692594" lon="14.411695472978304"><ele>1054.0</ele><time>2026-04-04T08:30:59.001Z</time></trkpt><trkpt lat="41.404581033925616" lon="14.411920844618455"><ele>1067.3333333333333</ele><time>2026-04-04T08:31:00.001Z</time></trkpt><trkpt lat="41.4045299931776" lon="14.412150212676988"><ele>1080.6666666666667</ele><time>2026-04-04T08:31:01.001Z</time></trkpt><trkpt lat="41.404482929156494" lon="14.41237883808003"><ele>1094.0</ele><time>2026-04-04T08:31:02.001Z</time></trkpt><trkpt lat="41.40443384531396" lon="14.412605034221645"><ele>1094.0</ele><time>2026-04-04T08:31:03.001Z</time></trkpt><trkpt lat="41.404378913654924" lon="14.412837833564971"><ele>1094.0</ele><time>2026-04-04T08:31:04.001Z</time></trkpt><trkpt lat="41.404329060197085" lon="14.413068466643082"><ele>1094.0</ele><time>2026-04-04T08:31:05.001Z</time></trkpt><trkpt lat="41.40427838088334" lon="14.41330108105956"><ele>1091.0</ele><time>2026-04-04T08:31:06.001Z</time></trkpt><trkpt lat="41.40422669974375" lon="14.413536865602781"><ele>1088.0</ele><time>2026-04-04T08:31:07.001Z</time></trkpt><trkpt lat="41.40417429852322" lon="14.413775966538813"><ele>1085.0</ele><time>2026-04-04T08:31:08.001Z</time></trkpt><trkpt lat="41.40412004998528" lon="14.414013076742936"><ele>1081.3333333333335</ele><time>2026-04-04T08:31:09.001Z</time></trkpt><trkpt lat="41.404067634115485" lon="14.414253379399415"><ele>1077.6666666666667</ele><time>2026-04-04T08:31:10.001Z</time></trkpt><trkpt lat="41.40401462732165" lon="14.4144945937454"><ele>1074.0</ele><time>2026-04-04T08:31:11.001Z</time></trkpt><trkpt lat="41.403960191274635" lon="14.414732607134509"><ele>1073.3333333333333</ele><time>2026-04-04T08:31:12.001Z</time></trkpt><trkpt lat="41.40391617656675" lon="14.414978314123532"><ele>1072.6666666666665</ele><time>2026-04-04T08:31:13.001Z</time></trkpt><trkpt lat="41.40387969057749" lon="14.415226866700676"><ele>1072.0</ele><time>2026-04-04T08:31:14.001Z</time></trkpt><trkpt lat="41.403857454203845" lon="14.415469940896154"><ele>1071.6666666666665</ele><time>2026-04-04T08:31:15.001Z</time></trkpt><trkpt lat="41.403831825362005" lon="14.41571450848414"><ele>1071.3333333333333</ele><time>2026-04-04T08:31:16.001Z</time></trkpt><trkpt lat="41.403802294709955" lon="14.415951622693354"><ele>1071.0</ele><time>2026-04-04T08:31:17.001Z</time></trkpt><trkpt lat="41.40376068164534" lon="14.416180351475807"><ele>1086.3333333333333</ele><time>2026-04-04T08:31:18.001Z</time></trkpt><trkpt lat="41.403715569055606" lon="14.4164020024825"><ele>1101.6666666666665</ele><time>2026-04-04T08:31:19.001Z</time></trkpt><trkpt lat="41.40366823127592" lon="14.416622799270709"><ele>1117.0</ele><time>2026-04-04T08:31:20.001Z</time></trkpt><trkpt lat="41.40361423656215" lon="14.416845518938446"><ele>1117.0</ele><time>2026-04-04T08:31:21.001Z</time></trkpt><trkpt lat="41.4035536497967" lon="14.417060879747986"><ele>1117.0</ele><time>2026-04-04T08:31:22.001Z</time></trkpt><trkpt lat="41.403487228236166" lon="14.417269831227498"><ele>1117.0</ele><time>2026-04-04T08:31:23Z</time></trkpt><trkpt lat="41.403416124073146" lon="14.417485957323176"><ele>1113.3333333333333</ele><time>2026-04-04T08:31:24Z</time></trkpt><trkpt lat="41.403348819732464" lon="14.41770577815031"><ele>1109.6666666666667</ele><time>2026-04-04T08:31:25Z</time></trkpt><trkpt lat="41.403285174820276" lon="14.417926395378855"><ele>1106.0</ele><time>2026-04-04T08:31:26Z</time></trkpt><trkpt lat="41.403228953546716" lon="14.418146154756364"><ele>1102.0</ele><time>2026-04-04T08:31:27Z</time></trkpt><trkpt lat="41.403170599340875" lon="14.418368750097258"><ele>1098.0</ele><time>2026-04-04T08:31:28Z</time></trkpt><trkpt lat="41.403109841487634" lon="14.41858416225093"><ele>1094.0</ele><time>2026-04-04T08:31:29Z</time></trkpt><trkpt lat="41.40305630705779" lon="14.418793220679639"><ele>1091.0</ele><time>2026-04-04T08:31:30Z</time></trkpt><trkpt lat="41.403010266955896" lon="14.418988680180677"><ele>1088.0</ele><time>2026-04-04T08:31:31Z</time></trkpt><trkpt lat="41.40296944523501" lon="14.419162087962677"><ele>1085.0</ele><time>2026-04-04T08:31:32Z</time></trkpt><trkpt lat="41.4029140722283" lon="14.419324638836095"><ele>1082.0</ele><time>2026-04-04T08:31:33Z</time></trkpt><trkpt lat="41.40284617350899" lon="14.419488563446974"><ele>1088.75</ele><time>2026-04-04T08:31:34Z</time></trkpt><trkpt lat="41.402761157056325" lon="14.419641787521362"><ele>1095.5</ele><time>2026-04-04T08:31:35Z</time></trkpt><trkpt lat="41.40266915347077" lon="14.419794723156162"><ele>1102.25</ele><time>2026-04-04T08:31:36Z</time></trkpt><trkpt lat="41.402580657611125" lon="14.419948326314483"><ele>1109.0</ele><time>2026-04-04T08:31:37Z</time></trkpt><trkpt lat="41.40250004025495" lon="14.420099332924211"><ele>1109.0</ele><time>2026-04-04T08:31:38Z</time></trkpt><trkpt lat="41.402433275015404" lon="14.420234170805333"><ele>1109.0</ele><time>2026-04-04T08:31:39Z</time></trkpt><trkpt lat="41.402373199180374" lon="14.420357588743514"><ele>1109.0</ele><time>2026-04-04T08:31:40Z</time></trkpt><trkpt lat="41.402319160077994" lon="14.420458679396823"><ele>1109.0</ele><time>2026-04-04T08:31:41Z</time></trkpt><trkpt lat="41.40226539679871" lon="14.42054784512"><ele>1109.0</ele><time>2026-04-04T08:31:42Z</time></trkpt><trkpt lat="41.40221426841616" lon="14.420628754541339"><ele>1109.3333333333335</ele><time>2026-04-04T08:31:43Z</time></trkpt><trkpt lat="41.4021661784177" lon="14.420700288006637"><ele>1109.6666666666667</ele><time>2026-04-04T08:31:44Z</time></trkpt><trkpt lat="41.40211061723147" lon="14.42075819815308"><ele>1110.0</ele><time>2026-04-04T08:31:45Z</time></trkpt><trkpt lat="41.40204368940938" lon="14.42080392210219"><ele>1110.3333333333333</ele><time>2026-04-04T08:31:46Z</time></trkpt><trkpt lat="41.40197857156583" lon="14.420848647710411"><ele>1110.6666666666665</ele><time>2026-04-04T08:31:47Z</time></trkpt><trkpt lat="41.40190539744974" lon="14.42089842696729"><ele>1111.0</ele><time>2026-04-04T08:31:48Z</time></trkpt><trkpt lat="41.40183288000638" lon="14.420939726140153"><ele>1111.0</ele><time>2026-04-04T08:31:49Z</time></trkpt><trkpt lat="41.40172456847003" lon="14.420982949730437"><ele>1111.0</ele><time>2026-04-04T08:31:51Z</time></trkpt><trkpt lat="41.40160374806713" lon="14.421003225118191"><ele>1111.0</ele><time>2026-04-04T08:31:53Z</time></trkpt><trkpt lat="41.401536514698435" lon="14.421019351327864"><ele>1111.0</ele><time>2026-04-04T08:31:54Z</time></trkpt><trkpt lat="41.40146434585845" lon="14.42103595950387"><ele>1111.0</ele><time>2026-04-04T08:31:55Z</time></trkpt><trkpt lat="41.4013836477256" lon="14.421039448887539"><ele>1110.8333333333333</ele><time>2026-04-04T08:31:56Z</time></trkpt><trkpt lat="41.401295446605445" lon="14.421037167005988"><ele>1110.6666666666665</ele><time>2026-04-04T08:31:57Z</time></trkpt><trkpt lat="41.40120853262181" lon="14.421028584296943"><ele>1110.5</ele><time>2026-04-04T08:31:58Z</time></trkpt><trkpt lat="41.401123815909415" lon="14.421022586641179"><ele>1110.3333333333333</ele><time>2026-04-04T08:31:59Z</time></trkpt><trkpt lat="41.401044158295555" lon="14.421017119732644"><ele>1110.1666666666667</ele><time>2026-04-04T08:32:00Z</time></trkpt><trkpt lat="41.40096668487656" lon="14.421011389997556"><ele>1110.0</ele><time>2026-04-04T08:32:01Z</time></trkpt><trkpt lat="41.400889723832194" lon="14.420999730861086"><ele>1110.0</ele><time>2026-04-04T08:32:02Z</time></trkpt><trkpt lat="41.40080889002894" lon="14.420973793784627"><ele>1110.0</ele><time>2026-04-04T08:32:03Z</time></trkpt><trkpt lat="41.400733442271395" lon="14.420935613114464"><ele>1110.0</ele><time>2026-04-04T08:32:04Z</time></trkpt><trkpt lat="41.400657996529816" lon="14.420885836695888"><ele>1110.0</ele><time>2026-04-04T08:32:05Z</time></trkpt><trkpt lat="41.400579563970204" lon="14.42084037328576"><ele>1110.0</ele><time>2026-04-04T08:32:06Z</time></trkpt><trkpt lat="41.4005047663088" lon="14.420799734367034"><ele>1110.0</ele><time>2026-04-04T08:32:07Z</time></trkpt><trkpt lat="41.40043060809677" lon="14.420763590801608"><ele>1108.0</ele><time>2026-04-04T08:32:08Z</time></trkpt><trkpt lat="41.40035715178051" lon="14.420731947135636"><ele>1106.0</ele><time>2026-04-04T08:32:09Z</time></trkpt><trkpt lat="41.40027681827315" lon="14.420690559835238"><ele>1104.0</ele><time>2026-04-04T08:32:10Z</time></trkpt><trkpt lat="41.4001866820517" lon="14.420643968130706"><ele>1102.0</ele><time>2026-04-04T08:32:11Z</time></trkpt><trkpt lat="41.40009900701359" lon="14.420592035433685"><ele>1100.0</ele><time>2026-04-04T08:32:12Z</time></trkpt><trkpt lat="41.39999886213648" lon="14.420553596148435"><ele>1100.0</ele><time>2026-04-04T08:32:13Z</time></trkpt><trkpt lat="41.3999027529067" lon="14.420516264932388"><ele>1100.0</ele><time>2026-04-04T08:32:14Z</time></trkpt><trkpt lat="41.399812777258326" lon="14.420451940739682"><ele>1100.0</ele><time>2026-04-04T08:32:15Z</time></trkpt><trkpt lat="41.39971941034285" lon="14.420366891044836"><ele>1100.0</ele><time>2026-04-04T08:32:16Z</time></trkpt><trkpt lat="41.39962261358657" lon="14.42026818548626"><ele>1100.0</ele><time>2026-04-04T08:32:17Z</time></trkpt><trkpt lat="41.39953163026839" lon="14.420169184696796"><ele>1098.6</ele><time>2026-04-04T08:32:18Z</time></trkpt><trkpt lat="41.39944794827865" lon="14.420061546194807"><ele>1097.2</ele><time>2026-04-04T08:32:19Z</time></trkpt><trkpt lat="41.399366490263056" lon="14.419962074189888"><ele>1095.8</ele><time>2026-04-04T08:32:20Z</time></trkpt><trkpt lat="41.39928607842926" lon="14.419867909592758"><ele>1094.4</ele><time>2026-04-04T08:32:21Z</time></trkpt><trkpt lat="41.39920032064881" lon="14.419784211870272"><ele>1093.0</ele><time>2026-04-04T08:32:22Z</time></trkpt><trkpt lat="41.399101451928544" lon="14.419722217029825"><ele>1093.0</ele><time>2026-04-04T08:32:23Z</time></trkpt><trkpt lat="41.39900590944488" lon="14.419679004503948"><ele>1093.0</ele><time>2026-04-04T08:32:24Z</time></trkpt><trkpt lat="41.3989070192572" lon="14.419628070882984"><ele>1093.0</ele><time>2026-04-04T08:32:25Z</time></trkpt><trkpt lat="41.398815604833395" lon="14.419579629394878"><ele>1093.0</ele><time>2026-04-04T08:32:26Z</time></trkpt><trkpt lat="41.39872303270956" lon="14.419517451242141"><ele>1093.0</ele><time>2026-04-04T08:32:27Z</time></trkpt><trkpt lat="41.39863663164495" lon="14.41944622200905"><ele>1093.8</ele><time>2026-04-04T08:32:28.001Z</time></trkpt><trkpt lat="41.398563814457574" lon="14.419356191588522"><ele>1094.6</ele><time>2026-04-04T08:32:29.001Z</time></trkpt><trkpt lat="41.39850998964604" lon="14.419247380163174"><ele>1095.4</ele><time>2026-04-04T08:32:30.001Z</time></trkpt><trkpt lat="41.39845202386008" lon="14.419139112834566"><ele>1096.2</ele><time>2026-04-04T08:32:31.001Z</time></trkpt><trkpt lat="41.39837587564449" lon="14.41908255618041"><ele>1097.0</ele><time>2026-04-04T08:32:32.001Z</time></trkpt><trkpt lat="41.39828278928453" lon="14.419063303527748"><ele>1097.0</ele><time>2026-04-04T08:32:33.001Z</time></trkpt><trkpt lat="41.39819913983205" lon="14.419047685935055"><ele>1097.0</ele><time>2026-04-04T08:32:34.001Z</time></trkpt><trkpt lat="41.398104161072474" lon="14.419049541989862"><ele>1097.0</ele><time>2026-04-04T08:32:35.001Z</time></trkpt><trkpt lat="41.39801435561413" lon="14.4190532998726"><ele>1097.0</ele><time>2026-04-04T08:32:36.001Z</time></trkpt><trkpt lat="41.39792186109134" lon="14.419049586441737"><ele>1097.0</ele><time>2026-04-04T08:32:37.001Z</time></trkpt><trkpt lat="41.39782428915437" lon="14.419042376469754"><ele>1093.8</ele><time>2026-04-04T08:32:38.001Z</time></trkpt><trkpt lat="41.39772859935514" lon="14.419023625182803"><ele>1090.6</ele><time>2026-04-04T08:32:39.001Z</time></trkpt><trkpt lat="41.39763373748599" lon="14.419009013239208"><ele>1087.3999999999999</ele><time>2026-04-04T08:32:40.001Z</time></trkpt><trkpt lat="41.39753587057543" lon="14.418985406297065"><ele>1084.2</ele><time>2026-04-04T08:32:41.001Z</time></trkpt><trkpt lat="41.397435149714134" lon="14.418965033351231"><ele>1081.0</ele><time>2026-04-04T08:32:42.001Z</time></trkpt><trkpt lat="41.39733142309677" lon="14.418934843036087"><ele>1081.0</ele><time>2026-04-04T08:32:43.001Z</time></trkpt><trkpt lat="41.39723007896659" lon="14.418887195699327"><ele>1081.0</ele><time>2026-04-04T08:32:44.001Z</time></trkpt><trkpt lat="41.39712997441014" lon="14.418811202274004"><ele>1081.0</ele><time>2026-04-04T08:32:45.001Z</time></trkpt><trkpt lat="41.397025745017196" lon="14.418735989303023"><ele>1081.0</ele><time>2026-04-04T08:32:46.001Z</time></trkpt><trkpt lat="41.396912203904165" lon="14.418681165380736"><ele>1084.0</ele><time>2026-04-04T08:32:47.001Z</time></trkpt><trkpt lat="41.39679102771609" lon="14.418639706990291"><ele>1087.0</ele><time>2026-04-04T08:32:48.001Z</time></trkpt><trkpt lat="41.396668513987514" lon="14.418599044727353"><ele>1090.0</ele><time>2026-04-04T08:32:49.001Z</time></trkpt><trkpt lat="41.39654697385411" lon="14.4185557192535"><ele>1093.0</ele><time>2026-04-04T08:32:50.001Z</time></trkpt><trkpt lat="41.3964314731867" lon="14.418500281641244"><ele>1087.2</ele><time>2026-04-04T08:32:51.001Z</time></trkpt><trkpt lat="41.3963204305272" lon="14.41844320367244"><ele>1081.4</ele><time>2026-04-04T08:32:52.001Z</time></trkpt><trkpt lat="41.39621571993756" lon="14.418388667673645"><ele>1075.6000000000001</ele><time>2026-04-04T08:32:53.001Z</time></trkpt><trkpt lat="41.39611770839129" lon="14.418337671414653"><ele>1069.8</ele><time>2026-04-04T08:32:54.001Z</time></trkpt><trkpt lat="41.39603586010913" lon="14.418287476017579"><ele>1064.0</ele><time>2026-04-04T08:32:55.001Z</time></trkpt><trkpt lat="41.39596867980092" lon="14.418239909409898"><ele>1064.0</ele><time>2026-04-04T08:32:56.001Z</time></trkpt><trkpt lat="41.39591726618536" lon="14.418177892340061"><ele>1064.0</ele><time>2026-04-04T08:32:57.001Z</time></trkpt><trkpt lat="41.3958881675959" lon="14.418090518567297"><ele>1064.0</ele><time>2026-04-04T08:32:58.001Z</time></trkpt><trkpt lat="41.3958870235242" lon="14.41798456600807"><ele>1064.0</ele><time>2026-04-04T08:32:59.001Z</time></trkpt><trkpt lat="41.39590295971761" lon="14.41787093990657"><ele>1064.0</ele><time>2026-04-04T08:33:00.001Z</time></trkpt><trkpt lat="41.395924767750095" lon="14.41775032002531"><ele>1064.0</ele><time>2026-04-04T08:33:01.001Z</time></trkpt><trkpt lat="41.395949020360185" lon="14.417623669275743"><ele>1064.75</ele><time>2026-04-04T08:33:02.001Z</time></trkpt><trkpt lat="41.39598031022054" lon="14.417492607039703"><ele>1065.5</ele><time>2026-04-04T08:33:03.001Z</time></trkpt><trkpt lat="41.39601887446978" lon="14.41735720139536"><ele>1066.25</ele><time>2026-04-04T08:33:04.001Z</time></trkpt><trkpt lat="41.396057218714716" lon="14.417208436823573"><ele>1067.0</ele><time>2026-04-04T08:33:05.001Z</time></trkpt><trkpt lat="41.39608232841729" lon="14.41704861218788"><ele>1067.0</ele><time>2026-04-04T08:33:06.001Z</time></trkpt><trkpt lat="41.396099369240844" lon="14.416885025572565"><ele>1067.0</ele><time>2026-04-04T08:33:07.001Z</time></trkpt><trkpt lat="41.39611600278824" lon="14.416724265689039"><ele>1067.0</ele><time>2026-04-04T08:33:08.001Z</time></trkpt><trkpt lat="41.39614866695425" lon="14.416575765723877"><ele>1067.0</ele><time>2026-04-04T08:33:09.001Z</time></trkpt><trkpt lat="41.39620729849796" lon="14.416449105019051"><ele>1067.0</ele><time>2026-04-04T08:33:10.001Z</time></trkpt><trkpt lat="41.39627963533748" lon="14.416329282126336"><ele>1067.0</ele><time>2026-04-04T08:33:11.001Z</time></trkpt><trkpt lat="41.39633736674345" lon="14.416203433012411"><ele>1067.0</ele><time>2026-04-04T08:33:12.001Z</time></trkpt><trkpt lat="41.39636194360645" lon="14.416061829921738"><ele>1067.0</ele><time>2026-04-04T08:33:13.001Z</time></trkpt><trkpt lat="41.39633353745837" lon="14.41592090415625"><ele>1067.0</ele><time>2026-04-04T08:33:14.001Z</time></trkpt><trkpt lat="41.39626557505291" lon="14.415798986893368"><ele>1068.4</ele><time>2026-04-04T08:33:15.001Z</time></trkpt><trkpt lat="41.39618335372704" lon="14.41570589612267"><ele>1069.8000000000002</ele><time>2026-04-04T08:33:16.001Z</time></trkpt><trkpt lat="41.39608399976048" lon="14.415665755567675"><ele>1071.2</ele><time>2026-04-04T08:33:17.001Z</time></trkpt><trkpt lat="41.39597930515876" lon="14.41569589902637"><ele>1072.6000000000001</ele><time>2026-04-04T08:33:18.001Z</time></trkpt><trkpt lat="41.39588576536501" lon="14.415767566181154"><ele>1074.0</ele><time>2026-04-04T08:33:19.001Z</time></trkpt><trkpt lat="41.39578577390187" lon="14.415843464503352"><ele>1074.0</ele><time>2026-04-04T08:33:20.001Z</time></trkpt><trkpt lat="41.395677224121826" lon="14.415912067654261"><ele>1074.0</ele><time>2026-04-04T08:33:21.001Z</time></trkpt><trkpt lat="41.395563658807454" lon="14.415984127118502"><ele>1074.0</ele><time>2026-04-04T08:33:22.001Z</time></trkpt><trkpt lat="41.39545146020052" lon="14.416069677692983"><ele>1074.0</ele><time>2026-04-04T08:33:23.001Z</time></trkpt><trkpt lat="41.39534928506483" lon="14.416195740470965"><ele>1077.0</ele><time>2026-04-04T08:33:24.001Z</time></trkpt><trkpt lat="41.395246236402954" lon="14.416305181836206"><ele>1080.0</ele><time>2026-04-04T08:33:25.001Z</time></trkpt><trkpt lat="41.39512037518299" lon="14.416371210305334"><ele>1083.0</ele><time>2026-04-04T08:33:26.001Z</time></trkpt><trkpt lat="41.39497886170305" lon="14.416424955001347"><ele>1086.0</ele><time>2026-04-04T08:33:27.001Z</time></trkpt><trkpt lat="41.39484543504036" lon="14.416486952989267"><ele>1079.75</ele><time>2026-04-04T08:33:28.001Z</time></trkpt><trkpt lat="41.39472812559261" lon="14.416574859818487"><ele>1073.5</ele><time>2026-04-04T08:33:29Z</time></trkpt><trkpt lat="41.39462075512162" lon="14.416669640066964"><ele>1067.25</ele><time>2026-04-04T08:33:30Z</time></trkpt><trkpt lat="41.39451353454352" lon="14.416759388770537"><ele>1061.0</ele><time>2026-04-04T08:33:31Z</time></trkpt><trkpt lat="41.39438239360133" lon="14.41679392981488"><ele>1061.0</ele><time>2026-04-04T08:33:32Z</time></trkpt><trkpt lat="41.39425186516529" lon="14.41679178854328"><ele>1061.0</ele><time>2026-04-04T08:33:33Z</time></trkpt><trkpt lat="41.39411595175516" lon="14.416764744224567"><ele>1061.0</ele><time>2026-04-04T08:33:34Z</time></trkpt><trkpt lat="41.39397097691367" lon="14.416745284478143"><ele>1061.0</ele><time>2026-04-04T08:33:35Z</time></trkpt><trkpt lat="41.39383340747441" lon="14.41676686197599"><ele>1064.0</ele><time>2026-04-04T08:33:36Z</time></trkpt><trkpt lat="41.3936947396121" lon="14.416844224505468"><ele>1067.0</ele><time>2026-04-04T08:33:37Z</time></trkpt><trkpt lat="41.39355314563331" lon="14.416924542325672"><ele>1070.0</ele><time>2026-04-04T08:33:38Z</time></trkpt><trkpt lat="41.39341157158073" lon="14.417004301554504"><ele>1070.0</ele><time>2026-04-04T08:33:39Z</time></trkpt><trkpt lat="41.39327120587596" lon="14.417068667824108"><ele>1070.0</ele><time>2026-04-04T08:33:40Z</time></trkpt><trkpt lat="41.393134077654416" lon="14.417131561917067"><ele>1070.0</ele><time>2026-04-04T08:33:41Z</time></trkpt><trkpt lat="41.39300352322141" lon="14.417202378726977"><ele>1070.0</ele><time>2026-04-04T08:33:42Z</time></trkpt><trkpt lat="41.39286927081418" lon="14.417244689749689"><ele>1061.0</ele><time>2026-04-04T08:33:43Z</time></trkpt><trkpt lat="41.39271767960513" lon="14.417258569837687"><ele>1052.0</ele><time>2026-04-04T08:33:44Z</time></trkpt><trkpt lat="41.39255742607325" lon="14.41727012268124"><ele>1043.0</ele><time>2026-04-04T08:33:45Z</time></trkpt><trkpt lat="41.39239118178482" lon="14.417287628337995"><ele>1043.0</ele><time>2026-04-04T08:33:46Z</time></trkpt><trkpt lat="41.39223494567733" lon="14.417314679467006"><ele>1043.0</ele><time>2026-04-04T08:33:47Z</time></trkpt><trkpt lat="41.39209568932697" lon="14.41734803181528"><ele>1043.0</ele><time>2026-04-04T08:33:48Z</time></trkpt><trkpt lat="41.391983438710106" lon="14.417374665773945"><ele>1043.0</ele><time>2026-04-04T08:33:49Z</time></trkpt><trkpt lat="41.39187989187944" lon="14.417370143944737"><ele>1044.0</ele><time>2026-04-04T08:33:50Z</time></trkpt><trkpt lat="41.391779619552466" lon="14.417314754356802"><ele>1045.0</ele><time>2026-04-04T08:33:51Z</time></trkpt><trkpt lat="41.39169745741117" lon="14.417197443104511"><ele>1046.0</ele><time>2026-04-04T08:33:52Z</time></trkpt><trkpt lat="41.39163345714945" lon="14.417043173772798"><ele>1047.0</ele><time>2026-04-04T08:33:53Z</time></trkpt><trkpt lat="41.391563960068574" lon="14.416877264859245"><ele>1047.0</ele><time>2026-04-04T08:33:54Z</time></trkpt><trkpt lat="41.39149129104571" lon="14.416706431982355"><ele>1047.0</ele><time>2026-04-04T08:33:55Z</time></trkpt><trkpt lat="41.39142835220611" lon="14.416523663746522"><ele>1047.0</ele><time>2026-04-04T08:33:56Z</time></trkpt><trkpt lat="41.391374193806975" lon="14.416323186594168"><ele>1033.3333333333333</ele><time>2026-04-04T08:33:57Z</time></trkpt><trkpt lat="41.39133703229581" lon="14.416115357554204"><ele>1019.6666666666666</ele><time>2026-04-04T08:33:58Z</time></trkpt><trkpt lat="41.39131135497851" lon="14.41589973799128"><ele>1006.0</ele><time>2026-04-04T08:33:59Z</time></trkpt><trkpt lat="41.39128805236453" lon="14.415667291707335"><ele>1008.0</ele><time>2026-04-04T08:34:00Z</time></trkpt><trkpt lat="41.39127417001016" lon="14.415444654160222"><ele>1010.0</ele><time>2026-04-04T08:34:01Z</time></trkpt><trkpt lat="41.39126585700573" lon="14.415227099240527"><ele>1012.0</ele><time>2026-04-04T08:34:02Z</time></trkpt><trkpt lat="41.391260564441254" lon="14.415000290558424"><ele>1012.0</ele><time>2026-04-04T08:34:03Z</time></trkpt><trkpt lat="41.39124363141984" lon="14.414765924756288"><ele>1012.0</ele><time>2026-04-04T08:34:04Z</time></trkpt><trkpt lat="41.391214504014535" lon="14.414541581653108"><ele>1012.0</ele><time>2026-04-04T08:34:05Z</time></trkpt><trkpt lat="41.391187586556484" lon="14.414327496874087"><ele>1014.25</ele><time>2026-04-04T08:34:06Z</time></trkpt><trkpt lat="41.391162927984226" lon="14.414131188379695"><ele>1016.5</ele><time>2026-04-04T08:34:07Z</time></trkpt><trkpt lat="41.391129087186755" lon="14.413949099777932"><ele>1018.75</ele><time>2026-04-04T08:34:08Z</time></trkpt><trkpt lat="41.391068467857124" lon="14.413794565668837"><ele>1021.0</ele><time>2026-04-04T08:34:09Z</time></trkpt><trkpt lat="41.390982321170156" lon="14.413676547465892"><ele>1024.0</ele><time>2026-04-04T08:34:10Z</time></trkpt><trkpt lat="41.39087212074341" lon="14.41359096797981"><ele>1027.0</ele><time>2026-04-04T08:34:11Z</time></trkpt><trkpt lat="41.390749675127886" lon="14.413546538639965"><ele>1030.0</ele><time>2026-04-04T08:34:12Z</time></trkpt><trkpt lat="41.3906279895402" lon="14.413508512101053"><ele>1033.0</ele><time>2026-04-04T08:34:13Z</time></trkpt><trkpt lat="41.39051223850324" lon="14.413442798374074"><ele>1026.0</ele><time>2026-04-04T08:34:14Z</time></trkpt><trkpt lat="41.39041667953354" lon="14.413336145668127"><ele>1019.0</ele><time>2026-04-04T08:34:15Z</time></trkpt><trkpt lat="41.39034900691307" lon="14.4131861901963"><ele>1012.0</ele><time>2026-04-04T08:34:16Z</time></trkpt><trkpt lat="41.390279380692526" lon="14.41302316859202"><ele>1005.0</ele><time>2026-04-04T08:34:17Z</time></trkpt><trkpt lat="41.390240843076356" lon="14.412876970193478"><ele>1005.0</ele><time>2026-04-04T08:34:18Z</time></trkpt><trkpt lat="41.39025924299217" lon="14.412722866172405"><ele>1005.0</ele><time>2026-04-04T08:34:19Z</time></trkpt><trkpt lat="41.390320016226674" lon="14.412562708069288"><ele>1005.0</ele><time>2026-04-04T08:34:20Z</time></trkpt><trkpt lat="41.390373271147595" lon="14.412401306075473"><ele>1005.0</ele><time>2026-04-04T08:34:21Z</time></trkpt><trkpt lat="41.390382959269395" lon="14.412239115121737"><ele>1008.25</ele><time>2026-04-04T08:34:22Z</time></trkpt><trkpt lat="41.39033700634153" lon="14.412076458713212"><ele>1011.5</ele><time>2026-04-04T08:34:23Z</time></trkpt><trkpt lat="41.390256363085136" lon="14.411942930237961"><ele>1014.75</ele><time>2026-04-04T08:34:24Z</time></trkpt><trkpt lat="41.39014568235815" lon="14.411870885199361"><ele>1018.0</ele><time>2026-04-04T08:34:25Z</time></trkpt><trkpt lat="41.390026260922795" lon="14.411831499354777"><ele>1018.0</ele><time>2026-04-04T08:34:26Z</time></trkpt><trkpt lat="41.389916484962974" lon="14.411756268356045"><ele>1018.0</ele><time>2026-04-04T08:34:27Z</time></trkpt><trkpt lat="41.389824087150615" lon="14.411624514694086"><ele>1018.0</ele><time>2026-04-04T08:34:28Z</time></trkpt><trkpt lat="41.38975477252217" lon="14.411454128055658"><ele>1018.0</ele><time>2026-04-04T08:34:29Z</time></trkpt><trkpt lat="41.389691208449406" lon="14.411269159559767"><ele>1015.0</ele><time>2026-04-04T08:34:30Z</time></trkpt><trkpt lat="41.38963631586045" lon="14.41108525124965"><ele>1012.0</ele><time>2026-04-04T08:34:31Z</time></trkpt><trkpt lat="41.38960928384363" lon="14.410902970675483"><ele>1009.0</ele><time>2026-04-04T08:34:32Z</time></trkpt><trkpt lat="41.38961091938049" lon="14.410738636191565"><ele>1006.0</ele><time>2026-04-04T08:34:33Z</time></trkpt><trkpt lat="41.38959192428163" lon="14.410604531674812"><ele>1006.0</ele><time>2026-04-04T08:34:34Z</time></trkpt><trkpt lat="41.38952073080856" lon="14.410506138980889"><ele>1006.0</ele><time>2026-04-04T08:34:35Z</time></trkpt><trkpt lat="41.38939854955318" lon="14.410456059704558"><ele>1006.0</ele><time>2026-04-04T08:34:36Z</time></trkpt><trkpt lat="41.389282594159035" lon="14.410476743654046"><ele>1006.0</ele><time>2026-04-04T08:34:37Z</time></trkpt><trkpt lat="41.389162312451646" lon="14.410532617007918"><ele>1006.0</ele><time>2026-04-04T08:34:38Z</time></trkpt><trkpt lat="41.38904513123573" lon="14.410620926873639"><ele>1006.0</ele><time>2026-04-04T08:34:39Z</time></trkpt><trkpt lat="41.388926237899966" lon="14.410729793280712"><ele>1006.0</ele><time>2026-04-04T08:34:40.001Z</time></trkpt><trkpt lat="41.38880807934766" lon="14.410841227783607"><ele>1006.0</ele><time>2026-04-04T08:34:41.001Z</time></trkpt><trkpt lat="41.388697692860624" lon="14.410946796304033"><ele>1004.1999999999999</ele><time>2026-04-04T08:34:42.001Z</time></trkpt><trkpt lat="41.38859301384361" lon="14.411029011039538"><ele>1002.3999999999999</ele><time>2026-04-04T08:34:43.001Z</time></trkpt><trkpt lat="41.38849503969694" lon="14.411059437632304"><ele>1000.6</ele><time>2026-04-04T08:34:44.001Z</time></trkpt><trkpt lat="41.38842519217239" lon="14.41095628694708"><ele>998.8</ele><time>2026-04-04T08:34:45.001Z</time></trkpt><trkpt lat="41.38837672231889" lon="14.410871802410483"><ele>997.0</ele><time>2026-04-04T08:34:46.001Z</time></trkpt><trkpt lat="41.38838601365762" lon="14.41074933445335"><ele>997.0</ele><time>2026-04-04T08:34:47.001Z</time></trkpt><trkpt lat="41.38840955482635" lon="14.410603506927188"><ele>997.0</ele><time>2026-04-04T08:34:48.001Z</time></trkpt><trkpt lat="41.388386379668454" lon="14.410456509106313"><ele>997.0</ele><time>2026-04-04T08:34:49.001Z</time></trkpt><trkpt lat="41.38828026148183" lon="14.41034113952933"><ele>997.0</ele><time>2026-04-04T08:34:50.001Z</time></trkpt><trkpt lat="41.388137541325044" lon="14.410296026350641"><ele>998.4000000000001</ele><time>2026-04-04T08:34:51.001Z</time></trkpt><trkpt lat="41.388039025542554" lon="14.410189740812426"><ele>999.8000000000001</ele><time>2026-04-04T08:34:52.001Z</time></trkpt><trkpt lat="41.38797132902061" lon="14.410070648762945"><ele>1001.2</ele><time>2026-04-04T08:34:53.001Z</time></trkpt><trkpt lat="41.387955467972546" lon="14.409941798076288"><ele>1002.6</ele><time>2026-04-04T08:34:54.001Z</time></trkpt><trkpt lat="41.38797834141594" lon="14.409814034981597"><ele>1004.0</ele><time>2026-04-04T08:34:55.001Z</time></trkpt><trkpt lat="41.38801755894558" lon="14.40966456688931"><ele>1004.0</ele><time>2026-04-04T08:34:56.001Z</time></trkpt><trkpt lat="41.38805061962606" lon="14.409502991611577"><ele>1004.0</ele><time>2026-04-04T08:34:57.001Z</time></trkpt><trkpt lat="41.38800808544938" lon="14.40933346771319"><ele>1004.0</ele><time>2026-04-04T08:34:58.001Z</time></trkpt><trkpt lat="41.38792040663866" lon="14.409219957309594"><ele>1004.0</ele><time>2026-04-04T08:34:59.001Z</time></trkpt><trkpt lat="41.387823238102854" lon="14.409114576129042"><ele>998.0</ele><time>2026-04-04T08:35:00.001Z</time></trkpt><trkpt lat="41.38775599780203" lon="14.40898938098171"><ele>992.0</ele><time>2026-04-04T08:35:01.001Z</time></trkpt><trkpt lat="41.38770525998424" lon="14.408735725307803"><ele>986.0</ele><time>2026-04-04T08:35:02.001Z</time></trkpt><trkpt lat="41.38767045119509" lon="14.40855238671938"><ele>985.5</ele><time>2026-04-04T08:35:03.001Z</time></trkpt><trkpt lat="41.387663854861685" lon="14.408378732441712"><ele>985.0</ele><time>2026-04-04T08:35:04.001Z</time></trkpt><trkpt lat="41.38769923765974" lon="14.408243195326259"><ele>984.5</ele><time>2026-04-04T08:35:05.001Z</time></trkpt><trkpt lat="41.38778092658127" lon="14.408129683515604"><ele>984.0</ele><time>2026-04-04T08:35:06.001Z</time></trkpt><trkpt lat="41.38784524784281" lon="14.407992180143642"><ele>983.5</ele><time>2026-04-04T08:35:07.001Z</time></trkpt><trkpt lat="41.38784365249498" lon="14.407813554675121"><ele>983.0</ele><time>2026-04-04T08:35:08.001Z</time></trkpt><trkpt lat="41.387823423306145" lon="14.407651317667902"><ele>982.5</ele><time>2026-04-04T08:35:09.001Z</time></trkpt><trkpt lat="41.387683500715035" lon="14.40755377553072"><ele>982.0</ele><time>2026-04-04T08:35:10.001Z</time></trkpt><trkpt lat="41.38760261236566" lon="14.407449756383153"><ele>982.0</ele><time>2026-04-04T08:35:11.001Z</time></trkpt><trkpt lat="41.38758271980133" lon="14.407299780520521"><ele>982.0</ele><time>2026-04-04T08:35:12.001Z</time></trkpt><trkpt lat="41.38759604870588" lon="14.407164599069086"><ele>982.0</ele><time>2026-04-04T08:35:13.001Z</time></trkpt><trkpt lat="41.387677569793816" lon="14.407050237150814"><ele>982.0</ele><time>2026-04-04T08:35:14.001Z</time></trkpt><trkpt lat="41.38779791005193" lon="14.406986300442538"><ele>981.5</ele><time>2026-04-04T08:35:15.001Z</time></trkpt><trkpt lat="41.38780639027587" lon="14.406816672643506"><ele>981.0</ele><time>2026-04-04T08:35:16.001Z</time></trkpt><trkpt lat="41.38773498005024" lon="14.406681285301687"><ele>980.5</ele><time>2026-04-04T08:35:17.001Z</time></trkpt><trkpt lat="41.38761710145821" lon="14.406579613048256"><ele>980.0</ele><time>2026-04-04T08:35:18.001Z</time></trkpt><trkpt lat="41.38754340377756" lon="14.40647908799762"><ele>980.0</ele><time>2026-04-04T08:35:19.001Z</time></trkpt><trkpt lat="41.38749415209556" lon="14.406362614675691"><ele>980.0</ele><time>2026-04-04T08:35:20.001Z</time></trkpt><trkpt lat="41.387554570738125" lon="14.406158379920116"><ele>980.0</ele><time>2026-04-04T08:35:22.001Z</time></trkpt><trkpt lat="41.387633379693284" lon="14.406031885303976"><ele>980.0</ele><time>2026-04-04T08:35:23.001Z</time></trkpt><trkpt lat="41.38768654701406" lon="14.405863337246123"><ele>978.75</ele><time>2026-04-04T08:35:24.001Z</time></trkpt><trkpt lat="41.3876574445024" lon="14.405668129169484"><ele>977.5</ele><time>2026-04-04T08:35:25.001Z</time></trkpt><trkpt lat="41.387615161874834" lon="14.405485608275123"><ele>976.25</ele><time>2026-04-04T08:35:26.001Z</time></trkpt><trkpt lat="41.38758227682836" lon="14.405314254673135"><ele>975.0</ele><time>2026-04-04T08:35:27.001Z</time></trkpt><trkpt lat="41.38762072189165" lon="14.40514812924662"><ele>973.5</ele><time>2026-04-04T08:35:28.001Z</time></trkpt><trkpt lat="41.387642612671314" lon="14.404967801985594"><ele>972.0</ele><time>2026-04-04T08:35:29.001Z</time></trkpt><trkpt lat="41.387675428801955" lon="14.404796149883355"><ele>970.5</ele><time>2026-04-04T08:35:30.001Z</time></trkpt><trkpt lat="41.38765312559622" lon="14.404611059568849"><ele>969.0</ele><time>2026-04-04T08:35:31.001Z</time></trkpt><trkpt lat="41.387609706222754" lon="14.404423046324656"><ele>968.75</ele><time>2026-04-04T08:35:32.001Z</time></trkpt><trkpt lat="41.38755885591239" lon="14.404252905885539"><ele>968.5</ele><time>2026-04-04T08:35:33.001Z</time></trkpt><trkpt lat="41.38753566338709" lon="14.404089936496653"><ele>968.25</ele><time>2026-04-04T08:35:34.001Z</time></trkpt><trkpt lat="41.38757892814869" lon="14.403924833702968"><ele>968.0</ele><time>2026-04-04T08:35:35Z</time></trkpt><trkpt lat="41.387613313985874" lon="14.403735503643626"><ele>966.3333333333334</ele><time>2026-04-04T08:35:36Z</time></trkpt><trkpt lat="41.387646578500714" lon="14.403539448393635"><ele>964.6666666666667</ele><time>2026-04-04T08:35:37Z</time></trkpt><trkpt lat="41.38765559278333" lon="14.403332118983258"><ele>963.0</ele><time>2026-04-04T08:35:38Z</time></trkpt><trkpt lat="41.38765036233114" lon="14.403121930970869"><ele>960.6666666666667</ele><time>2026-04-04T08:35:39Z</time></trkpt><trkpt lat="41.38764328433491" lon="14.402910481278857"><ele>958.3333333333334</ele><time>2026-04-04T08:35:40Z</time></trkpt><trkpt lat="41.38764690879295" lon="14.402705414402705"><ele>956.0</ele><time>2026-04-04T08:35:41Z</time></trkpt><trkpt lat="41.387670572342564" lon="14.402508941609346"><ele>956.0</ele><time>2026-04-04T08:35:42Z</time></trkpt><trkpt lat="41.38769733585946" lon="14.402316747288674"><ele>956.0</ele><time>2026-04-04T08:35:43Z</time></trkpt><trkpt lat="41.387703814087004" lon="14.402126910414234"><ele>956.0</ele><time>2026-04-04T08:35:44Z</time></trkpt><trkpt lat="41.38768159101968" lon="14.401941559386076"><ele>956.0</ele><time>2026-04-04T08:35:45Z</time></trkpt><trkpt lat="41.387647757673534" lon="14.401758921823296"><ele>955.5</ele><time>2026-04-04T08:35:46Z</time></trkpt><trkpt lat="41.387603689157174" lon="14.40159011784013"><ele>955.0</ele><time>2026-04-04T08:35:47Z</time></trkpt><trkpt lat="41.387544299947635" lon="14.401430863214213"><ele>954.5</ele><time>2026-04-04T08:35:48Z</time></trkpt><trkpt lat="41.387453354260245" lon="14.401309131526059"><ele>954.0</ele><time>2026-04-04T08:35:49Z</time></trkpt><trkpt lat="41.38742188460212" lon="14.401176809426003"><ele>953.25</ele><time>2026-04-04T08:35:50Z</time></trkpt><trkpt lat="41.387438984515896" lon="14.401035259600814"><ele>952.5</ele><time>2026-04-04T08:35:51Z</time></trkpt><trkpt lat="41.38746781095542" lon="14.400868129575281"><ele>951.75</ele><time>2026-04-04T08:35:52Z</time></trkpt><trkpt lat="41.38749006287785" lon="14.400687254338813"><ele>951.0</ele><time>2026-04-04T08:35:53Z</time></trkpt><trkpt lat="41.38750807418734" lon="14.400485504668767"><ele>949.0</ele><time>2026-04-04T08:35:54Z</time></trkpt><trkpt lat="41.38753256024839" lon="14.400273696149325"><ele>947.0</ele><time>2026-04-04T08:35:55Z</time></trkpt><trkpt lat="41.387565134311906" lon="14.400047681941743"><ele>945.0</ele><time>2026-04-04T08:35:56Z</time></trkpt><trkpt lat="41.38760151532793" lon="14.399807868317405"><ele>941.6666666666667</ele><time>2026-04-04T08:35:57Z</time></trkpt><trkpt lat="41.38763993005939" lon="14.39955302270443"><ele>938.3333333333334</ele><time>2026-04-04T08:35:58Z</time></trkpt><trkpt lat="41.38771200783216" lon="14.399312741728115"><ele>935.0</ele><time>2026-04-04T08:35:59Z</time></trkpt><trkpt lat="41.38777966817306" lon="14.399080181809623"><ele>935.0</ele><time>2026-04-04T08:36:00Z</time></trkpt><trkpt lat="41.387836261803656" lon="14.398855105374183"><ele>935.0</ele><time>2026-04-04T08:36:01Z</time></trkpt><trkpt lat="41.38785405869764" lon="14.398608385960443"><ele>935.0</ele><time>2026-04-04T08:36:02Z</time></trkpt><trkpt lat="41.38786692036702" lon="14.398361729968952"><ele>932.3333333333334</ele><time>2026-04-04T08:36:03Z</time></trkpt><trkpt lat="41.387880247037906" lon="14.398130857089297"><ele>929.6666666666667</ele><time>2026-04-04T08:36:04Z</time></trkpt><trkpt lat="41.38789339119648" lon="14.397908155302101"><ele>927.0</ele><time>2026-04-04T08:36:05Z</time></trkpt><trkpt lat="41.387896348074364" lon="14.397688379373264"><ele>925.3333333333333</ele><time>2026-04-04T08:36:06Z</time></trkpt><trkpt lat="41.387889333476245" lon="14.39747355746582"><ele>923.6666666666666</ele><time>2026-04-04T08:36:07Z</time></trkpt><trkpt lat="41.38788125521226" lon="14.397253235400681"><ele>922.0</ele><time>2026-04-04T08:36:08Z</time></trkpt><trkpt lat="41.387877052575774" lon="14.397046060674958"><ele>920.75</ele><time>2026-04-04T08:36:09Z</time></trkpt><trkpt lat="41.38787221306787" lon="14.396842330292419"><ele>919.5</ele><time>2026-04-04T08:36:10Z</time></trkpt><trkpt lat="41.387877215738094" lon="14.396644772414428"><ele>918.25</ele><time>2026-04-04T08:36:11Z</time></trkpt><trkpt lat="41.387907632245145" lon="14.39645844993266"><ele>917.0</ele><time>2026-04-04T08:36:12Z</time></trkpt><trkpt lat="41.38796154704718" lon="14.396283596623718"><ele>916.5</ele><time>2026-04-04T08:36:13Z</time></trkpt><trkpt lat="41.38800661882645" lon="14.396109903788918"><ele>916.0</ele><time>2026-04-04T08:36:14Z</time></trkpt><trkpt lat="41.388023894719076" lon="14.395935519482467"><ele>915.5</ele><time>2026-04-04T08:36:15Z</time></trkpt><trkpt lat="41.388007159165824" lon="14.395761555270415"><ele>915.0</ele><time>2026-04-04T08:36:16Z</time></trkpt><trkpt lat="41.38796861362946" lon="14.395594757205982"><ele>916.25</ele><time>2026-04-04T08:36:17Z</time></trkpt><trkpt lat="41.3878978731897" lon="14.395454653633948"><ele>917.5</ele><time>2026-04-04T08:36:18Z</time></trkpt><trkpt lat="41.387812209887684" lon="14.395322046499738"><ele>918.75</ele><time>2026-04-04T08:36:19Z</time></trkpt><trkpt lat="41.38773413864996" lon="14.395189328104966"><ele>920.0</ele><time>2026-04-04T08:36:20Z</time></trkpt><trkpt lat="41.387689180456086" lon="14.395038781330584"><ele>920.0</ele><time>2026-04-04T08:36:21Z</time></trkpt><trkpt lat="41.387672025071254" lon="14.394859066802361"><ele>920.0</ele><time>2026-04-04T08:36:22Z</time></trkpt><trkpt lat="41.38766756801124" lon="14.394667541670595"><ele>920.0</ele><time>2026-04-04T08:36:23Z</time></trkpt><trkpt lat="41.387665124467766" lon="14.394458301490559"><ele>920.0</ele><time>2026-04-04T08:36:24Z</time></trkpt><trkpt lat="41.38765953281938" lon="14.394236887449651"><ele>919.3333333333334</ele><time>2026-04-04T08:36:25Z</time></trkpt><trkpt lat="41.38765402919621" lon="14.39400811893843"><ele>918.6666666666667</ele><time>2026-04-04T08:36:26Z</time></trkpt><trkpt lat="41.38764064408716" lon="14.393787730432889"><ele>918.0</ele><time>2026-04-04T08:36:27Z</time></trkpt><trkpt lat="41.387633200146304" lon="14.3935744468296"><ele>917.6666666666667</ele><time>2026-04-04T08:36:28Z</time></trkpt><trkpt lat="41.38762562556467" lon="14.3933739493742"><ele>917.3333333333334</ele><time>2026-04-04T08:36:29Z</time></trkpt><trkpt lat="41.38760746796002" lon="14.393171238426111"><ele>917.0</ele><time>2026-04-04T08:36:30Z</time></trkpt><trkpt lat="41.3875682882707" lon="14.392980144239298"><ele>915.0</ele><time>2026-04-04T08:36:31Z</time></trkpt><trkpt lat="41.38752477418738" lon="14.392815681317156"><ele>913.0</ele><time>2026-04-04T08:36:32Z</time></trkpt><trkpt lat="41.387500354842174" lon="14.392652083805261"><ele>911.0</ele><time>2026-04-04T08:36:33Z</time></trkpt><trkpt lat="41.38752262571418" lon="14.392483033104233"><ele>909.0</ele><time>2026-04-04T08:36:34Z</time></trkpt><trkpt lat="41.38758152893313" lon="14.392305027288987"><ele>904.3333333333333</ele><time>2026-04-04T08:36:35Z</time></trkpt><trkpt lat="41.3876605181385" lon="14.392134450578293"><ele>899.6666666666666</ele><time>2026-04-04T08:36:36.001Z</time></trkpt><trkpt lat="41.387756391385516" lon="14.39196670723348"><ele>895.0</ele><time>2026-04-04T08:36:37.001Z</time></trkpt><trkpt lat="41.387869363838824" lon="14.391828857594094"><ele>895.0</ele><time>2026-04-04T08:36:38.001Z</time></trkpt><trkpt lat="41.387989562356765" lon="14.391709925403664"><ele>895.0</ele><time>2026-04-04T08:36:39.001Z</time></trkpt><trkpt lat="41.388098946577514" lon="14.391591534006414"><ele>895.0</ele><time>2026-04-04T08:36:40.001Z</time></trkpt><trkpt lat="41.38817362888168" lon="14.391467406574126"><ele>895.0</ele><time>2026-04-04T08:36:41.001Z</time></trkpt><trkpt lat="41.38820491990885" lon="14.391344629724978"><ele>896.5</ele><time>2026-04-04T08:36:42.001Z</time></trkpt><trkpt lat="41.38819017975998" lon="14.391218961555344"><ele>898.0</ele><time>2026-04-04T08:36:43.001Z</time></trkpt><trkpt lat="41.38814512577548" lon="14.391090484912786"><ele>899.5</ele><time>2026-04-04T08:36:44.001Z</time></trkpt><trkpt lat="41.388058118782524" lon="14.390972815442685"><ele>901.0</ele><time>2026-04-04T08:36:45.001Z</time></trkpt><trkpt lat="41.38794451396348" lon="14.390884071440174"><ele>901.0</ele><time>2026-04-04T08:36:46.001Z</time></trkpt><trkpt lat="41.3878102407785" lon="14.390832838226157"><ele>901.0</ele><time>2026-04-04T08:36:47.001Z</time></trkpt><trkpt lat="41.38767103541126" lon="14.390783297934446"><ele>901.0</ele><time>2026-04-04T08:36:48.001Z</time></trkpt><trkpt lat="41.38753806655876" lon="14.390744055098727"><ele>901.0</ele><time>2026-04-04T08:36:49.001Z</time></trkpt><trkpt lat="41.38741218784877" lon="14.390691348773272"><ele>901.0</ele><time>2026-04-04T08:36:50.001Z</time></trkpt><trkpt lat="41.387306459856276" lon="14.390597650398464"><ele>901.0</ele><time>2026-04-04T08:36:51.001Z</time></trkpt><trkpt lat="41.38718439688138" lon="14.390474406931913"><ele>901.0</ele><time>2026-04-04T08:36:52.001Z</time></trkpt><trkpt lat="41.387054450924" lon="14.390347709706123"><ele>901.0</ele><time>2026-04-04T08:36:53.001Z</time></trkpt><trkpt lat="41.38693273906365" lon="14.390237524628382"><ele>899.0</ele><time>2026-04-04T08:36:54.001Z</time></trkpt><trkpt lat="41.38682328234856" lon="14.390178812588788"><ele>896.9999999999999</ele><time>2026-04-04T08:36:55.001Z</time></trkpt><trkpt lat="41.386706780234256" lon="14.390200489476106"><ele>894.9999999999999</ele><time>2026-04-04T08:36:56.001Z</time></trkpt><trkpt lat="41.38662451847736" lon="14.390169965977119"><ele>893.0</ele><time>2026-04-04T08:36:57.001Z</time></trkpt><trkpt lat="41.38658755385926" lon="14.390094303439888"><ele>891.0</ele><time>2026-04-04T08:36:58.001Z</time></trkpt><trkpt lat="41.386562908176316" lon="14.38998783662986"><ele>891.0</ele><time>2026-04-04T08:36:59.001Z</time></trkpt><trkpt lat="41.38657882301936" lon="14.389825114176436"><ele>891.0</ele><time>2026-04-04T08:37:00.001Z</time></trkpt><trkpt lat="41.38658194106922" lon="14.389654241938285"><ele>891.0</ele><time>2026-04-04T08:37:01.001Z</time></trkpt><trkpt lat="41.386607218280915" lon="14.389473675189672"><ele>891.0</ele><time>2026-04-04T08:37:02.001Z</time></trkpt><trkpt lat="41.386660085903415" lon="14.38930801916171"><ele>890.5</ele><time>2026-04-04T08:37:03.001Z</time></trkpt><trkpt lat="41.38671721219421" lon="14.389137295455606"><ele>890.0</ele><time>2026-04-04T08:37:04.001Z</time></trkpt><trkpt lat="41.38675894463087" lon="14.38897592550615"><ele>889.5</ele><time>2026-04-04T08:37:05.001Z</time></trkpt><trkpt lat="41.386740455196446" lon="14.3887962300185"><ele>889.0</ele><time>2026-04-04T08:37:06.001Z</time></trkpt><trkpt lat="41.38668616548" lon="14.388628227772491"><ele>888.0</ele><time>2026-04-04T08:37:07.001Z</time></trkpt><trkpt lat="41.38666989237873" lon="14.388450976919534"><ele>887.0</ele><time>2026-04-04T08:37:08.001Z</time></trkpt><trkpt lat="41.386667079653726" lon="14.388264794572065"><ele>886.0</ele><time>2026-04-04T08:37:09.001Z</time></trkpt><trkpt lat="41.386654629248476" lon="14.388098730176356"><ele>885.0</ele><time>2026-04-04T08:37:10.001Z</time></trkpt><trkpt lat="41.38667749439263" lon="14.387982755642875"><ele>886.4</ele><time>2026-04-04T08:37:11.001Z</time></trkpt><trkpt lat="41.386736782119186" lon="14.387908150154177"><ele>887.8</ele><time>2026-04-04T08:37:12.001Z</time></trkpt><trkpt lat="41.386836387137535" lon="14.3878852352057"><ele>889.2</ele><time>2026-04-04T08:37:13.001Z</time></trkpt><trkpt lat="41.386953174064914" lon="14.38788769858274"><ele>890.6</ele><time>2026-04-04T08:37:14.001Z</time></trkpt><trkpt lat="41.38706983271116" lon="14.387853997432176"><ele>892.0</ele><time>2026-04-04T08:37:15.001Z</time></trkpt><trkpt lat="41.38718566076937" lon="14.387772245350895"><ele>892.0</ele><time>2026-04-04T08:37:16.001Z</time></trkpt><trkpt lat="41.387293639737265" lon="14.387679815479768"><ele>892.0</ele><time>2026-04-04T08:37:17.001Z</time></trkpt><trkpt lat="41.38737148335753" lon="14.387585080878933"><ele>892.0</ele><time>2026-04-04T08:37:18.001Z</time></trkpt><trkpt lat="41.38740207941541" lon="14.387471494211502"><ele>892.0</ele><time>2026-04-04T08:37:19.001Z</time></trkpt><trkpt lat="41.387388611364166" lon="14.387326237854206"><ele>892.0</ele><time>2026-04-04T08:37:20.001Z</time></trkpt><trkpt lat="41.38736501242014" lon="14.387168194635326"><ele>890.25</ele><time>2026-04-04T08:37:21.001Z</time></trkpt><trkpt lat="41.387369811294555" lon="14.386993912889166"><ele>888.5</ele><time>2026-04-04T08:37:22.001Z</time></trkpt><trkpt lat="41.38735009019717" lon="14.386813862427209"><ele>886.75</ele><time>2026-04-04T08:37:23.001Z</time></trkpt><trkpt lat="41.38736335081201" lon="14.38662754708298"><ele>885.0</ele><time>2026-04-04T08:37:24.001Z</time></trkpt><trkpt lat="41.38739490703674" lon="14.386438536950081"><ele>881.0</ele><time>2026-04-04T08:37:25.001Z</time></trkpt><trkpt lat="41.387422181941524" lon="14.386232717640814"><ele>877.0</ele><time>2026-04-04T08:37:26.001Z</time></trkpt><trkpt lat="41.38747225732176" lon="14.386032646844948"><ele>873.0</ele><time>2026-04-04T08:37:27.001Z</time></trkpt><trkpt lat="41.38752441709883" lon="14.385846907846693"><ele>873.0</ele><time>2026-04-04T08:37:28.001Z</time></trkpt><trkpt lat="41.38759505513724" lon="14.38568209342026"><ele>873.0</ele><time>2026-04-04T08:37:29.001Z</time></trkpt><trkpt lat="41.387678780849484" lon="14.385541059967625"><ele>873.0</ele><time>2026-04-04T08:37:30.001Z</time></trkpt><trkpt lat="41.387771151695794" lon="14.385459476352544"><ele>873.0</ele><time>2026-04-04T08:37:31.001Z</time></trkpt><trkpt lat="41.38787999055838" lon="14.385425460834451"><ele>875.0</ele><time>2026-04-04T08:37:32.001Z</time></trkpt><trkpt lat="41.38800590076758" lon="14.385421276055261"><ele>877.0</ele><time>2026-04-04T08:37:33.001Z</time></trkpt><trkpt lat="41.3881013717534" lon="14.385363798323036"><ele>879.0</ele><time>2026-04-04T08:37:34.001Z</time></trkpt><trkpt lat="41.388153637564535" lon="14.38522800512145"><ele>881.0</ele><time>2026-04-04T08:37:35.001Z</time></trkpt><trkpt lat="41.3881726595953" lon="14.385089132269766"><ele>881.0</ele><time>2026-04-04T08:37:36.001Z</time></trkpt><trkpt lat="41.38811614854117" lon="14.384945763310235"><ele>880.9999999999999</ele><time>2026-04-04T08:37:37.001Z</time></trkpt><trkpt lat="41.3880981089057" lon="14.38481214286065"><ele>880.9999999999999</ele><time>2026-04-04T08:37:38.001Z</time></trkpt><trkpt lat="41.38814325892844" lon="14.384683554854332"><ele>881.0</ele><time>2026-04-04T08:37:39.001Z</time></trkpt><trkpt lat="41.38820166265242" lon="14.384551366600286"><ele>881.0</ele><time>2026-04-04T08:37:40Z</time></trkpt><trkpt lat="41.38830312149007" lon="14.384424382039688"><ele>874.25</ele><time>2026-04-04T08:37:41Z</time></trkpt><trkpt lat="41.388404477404016" lon="14.384290064670221"><ele>867.5</ele><time>2026-04-04T08:37:42Z</time></trkpt><trkpt lat="41.38850356968199" lon="14.384155255976397"><ele>860.75</ele><time>2026-04-04T08:37:43Z</time></trkpt><trkpt lat="41.388591794575625" lon="14.384022523509545"><ele>854.0</ele><time>2026-04-04T08:37:44Z</time></trkpt><trkpt lat="41.38865874842568" lon="14.383868968540172"><ele>849.25</ele><time>2026-04-04T08:37:45Z</time></trkpt><trkpt lat="41.38867880793751" lon="14.38369352151043"><ele>844.5</ele><time>2026-04-04T08:37:46Z</time></trkpt><trkpt lat="41.38869458659415" lon="14.383548013085738"><ele>839.75</ele><time>2026-04-04T08:37:47Z</time></trkpt><trkpt lat="41.38875929786228" lon="14.383449322723749"><ele>835.0</ele><time>2026-04-04T08:37:48Z</time></trkpt><trkpt lat="41.38886256000328" lon="14.383391093753303"><ele>843.25</ele><time>2026-04-04T08:37:49Z</time></trkpt><trkpt lat="41.388935947801116" lon="14.383288167735554"><ele>851.5</ele><time>2026-04-04T08:37:50Z</time></trkpt><trkpt lat="41.3889447252599" lon="14.38312476176648"><ele>859.75</ele><time>2026-04-04T08:37:51Z</time></trkpt><trkpt lat="41.3889211070602" lon="14.38294156297282"><ele>868.0</ele><time>2026-04-04T08:37:52Z</time></trkpt><trkpt lat="41.38888093247181" lon="14.382770314226082"><ele>861.25</ele><time>2026-04-04T08:37:53Z</time></trkpt><trkpt lat="41.38882274883286" lon="14.38259303676512"><ele>854.5</ele><time>2026-04-04T08:37:54Z</time></trkpt><trkpt lat="41.38872866339993" lon="14.382442574254426"><ele>847.75</ele><time>2026-04-04T08:37:55Z</time></trkpt><trkpt lat="41.38865671943766" lon="14.382298581848923"><ele>841.0</ele><time>2026-04-04T08:37:56Z</time></trkpt><trkpt lat="41.38860919639833" lon="14.382157596468819"><ele>840.75</ele><time>2026-04-04T08:37:57Z</time></trkpt><trkpt lat="41.388614529082" lon="14.382013695830922"><ele>840.5</ele><time>2026-04-04T08:37:58Z</time></trkpt><trkpt lat="41.3886625506183" lon="14.381860361176225"><ele>840.25</ele><time>2026-04-04T08:37:59Z</time></trkpt><trkpt lat="41.38873206804469" lon="14.381682671657366"><ele>840.0</ele><time>2026-04-04T08:38:00Z</time></trkpt><trkpt lat="41.3888088455756" lon="14.38150175311136"><ele>844.3333333333333</ele><time>2026-04-04T08:38:01Z</time></trkpt><trkpt lat="41.38891542555624" lon="14.38133853704433"><ele>848.6666666666666</ele><time>2026-04-04T08:38:02Z</time></trkpt><trkpt lat="41.38903077276312" lon="14.381183470973644"><ele>853.0</ele><time>2026-04-04T08:38:03Z</time></trkpt><trkpt lat="41.38914902139352" lon="14.381039533248043"><ele>853.0</ele><time>2026-04-04T08:38:04Z</time></trkpt><trkpt lat="41.389252772386904" lon="14.380900006798825"><ele>853.0</ele><time>2026-04-04T08:38:05Z</time></trkpt><trkpt lat="41.38933335573053" lon="14.380763685070484"><ele>853.0</ele><time>2026-04-04T08:38:06Z</time></trkpt><trkpt lat="41.38936872425397" lon="14.380616301539835"><ele>853.0</ele><time>2026-04-04T08:38:07Z</time></trkpt><trkpt lat="41.38935536247988" lon="14.380453382036647"><ele>853.25</ele><time>2026-04-04T08:38:08Z</time></trkpt><trkpt lat="41.3893017480754" lon="14.38028955768114"><ele>853.5</ele><time>2026-04-04T08:38:09Z</time></trkpt><trkpt lat="41.38922184175534" lon="14.380129529222941"><ele>853.75</ele><time>2026-04-04T08:38:10Z</time></trkpt><trkpt lat="41.38914552723228" lon="14.379963488791052"><ele>854.0</ele><time>2026-04-04T08:38:11Z</time></trkpt><trkpt lat="41.38905265946707" lon="14.379802931355444"><ele>854.6666666666667</ele><time>2026-04-04T08:38:12Z</time></trkpt><trkpt lat="41.38895842041445" lon="14.379641354744185"><ele>855.3333333333333</ele><time>2026-04-04T08:38:13Z</time></trkpt><trkpt lat="41.38886296152079" lon="14.379477686659529"><ele>856.0</ele><time>2026-04-04T08:38:14Z</time></trkpt><trkpt lat="41.38876540876132" lon="14.379310428573078"><ele>856.0</ele><time>2026-04-04T08:38:15Z</time></trkpt><trkpt lat="41.38866830267061" lon="14.379143936326466"><ele>856.0</ele><time>2026-04-04T08:38:16Z</time></trkpt><trkpt lat="41.38856842115354" lon="14.378970615410674"><ele>856.0</ele><time>2026-04-04T08:38:17Z</time></trkpt><trkpt lat="41.388467679948626" lon="14.378794253726959"><ele>856.6666666666666</ele><time>2026-04-04T08:38:18Z</time></trkpt><trkpt lat="41.38837084453793" lon="14.378623845834506"><ele>857.3333333333333</ele><time>2026-04-04T08:38:19Z</time></trkpt><trkpt lat="41.38826764120784" lon="14.37844516942025"><ele>858.0</ele><time>2026-04-04T08:38:20Z</time></trkpt><trkpt lat="41.388165312781275" lon="14.378271246013943"><ele>858.0</ele><time>2026-04-04T08:38:21Z</time></trkpt><trkpt lat="41.38806199647857" lon="14.37809564380975"><ele>858.0</ele><time>2026-04-04T08:38:22Z</time></trkpt><trkpt lat="41.387956681488646" lon="14.377916645565223"><ele>858.0</ele><time>2026-04-04T08:38:23Z</time></trkpt><trkpt lat="41.38786251387264" lon="14.377741615113896"><ele>858.25</ele><time>2026-04-04T08:38:24Z</time></trkpt><trkpt lat="41.38776788422835" lon="14.377582385673358"><ele>858.5</ele><time>2026-04-04T08:38:25Z</time></trkpt><trkpt lat="41.387682034797876" lon="14.377437930809062"><ele>858.75</ele><time>2026-04-04T08:38:26Z</time></trkpt><trkpt lat="41.38758507796837" lon="14.377300698181294"><ele>859.0</ele><time>2026-04-04T08:38:27Z</time></trkpt><trkpt lat="41.38750437246578" lon="14.37713554429178"><ele>859.0</ele><time>2026-04-04T08:38:28Z</time></trkpt><trkpt lat="41.38745463958983" lon="14.376950425828861"><ele>859.0</ele><time>2026-04-04T08:38:29Z</time></trkpt><trkpt lat="41.387393875852325" lon="14.376770076338532"><ele>859.0</ele><time>2026-04-04T08:38:30Z</time></trkpt><trkpt lat="41.38734437846912" lon="14.376587471614432"><ele>859.0</ele><time>2026-04-04T08:38:31Z</time></trkpt><trkpt lat="41.3873238557" lon="14.376384752122016"><ele>860.0</ele><time>2026-04-04T08:38:32Z</time></trkpt><trkpt lat="41.387275703842334" lon="14.376175219339695"><ele>861.0</ele><time>2026-04-04T08:38:33Z</time></trkpt><trkpt lat="41.387228932689936" lon="14.375966216298556"><ele>862.0</ele><time>2026-04-04T08:38:34Z</time></trkpt><trkpt lat="41.38715978578409" lon="14.375770294633874"><ele>851.6666666666666</ele><time>2026-04-04T08:38:35Z</time></trkpt><trkpt lat="41.3870831275342" lon="14.37558577400106"><ele>841.3333333333333</ele><time>2026-04-04T08:38:36Z</time></trkpt><trkpt lat="41.3870227894223" lon="14.375403124830274"><ele>831.0</ele><time>2026-04-04T08:38:37Z</time></trkpt><trkpt lat="41.38695843700458" lon="14.375225772664383"><ele>831.0</ele><time>2026-04-04T08:38:38Z</time></trkpt><trkpt lat="41.386921279906865" lon="14.375040738035834"><ele>831.0</ele><time>2026-04-04T08:38:39Z</time></trkpt><trkpt lat="41.386897404754116" lon="14.374840066799921"><ele>831.0</ele><time>2026-04-04T08:38:40Z</time></trkpt><trkpt lat="41.38686898808234" lon="14.374626822227617"><ele>832.3333333333333</ele><time>2026-04-04T08:38:41Z</time></trkpt><trkpt lat="41.38684464901789" lon="14.37440562047269"><ele>833.6666666666666</ele><time>2026-04-04T08:38:42Z</time></trkpt><trkpt lat="41.386813477462326" lon="14.374184031951726"><ele>835.0</ele><time>2026-04-04T08:38:43Z</time></trkpt><trkpt lat="41.38678887872889" lon="14.373961775112134"><ele>835.3333333333333</ele><time>2026-04-04T08:38:44Z</time></trkpt><trkpt lat="41.38676458875189" lon="14.373747485551474"><ele>835.6666666666667</ele><time>2026-04-04T08:38:45Z</time></trkpt><trkpt lat="41.38674185062244" lon="14.37354689094451"><ele>836.0</ele><time>2026-04-04T08:38:46Z</time></trkpt><trkpt lat="41.38672275942394" lon="14.373341515930216"><ele>836.0</ele><time>2026-04-04T08:38:47Z</time></trkpt><trkpt lat="41.38672210198191" lon="14.373142011737023"><ele>836.0</ele><time>2026-04-04T08:38:48Z</time></trkpt><trkpt lat="41.38674600817767" lon="14.372936667660815"><ele>836.0</ele><time>2026-04-04T08:38:49Z</time></trkpt><trkpt lat="41.38678861039616" lon="14.372722323705554"><ele>832.0</ele><time>2026-04-04T08:38:50Z</time></trkpt><trkpt lat="41.38684028715806" lon="14.372511157471354"><ele>828.0</ele><time>2026-04-04T08:38:51Z</time></trkpt><trkpt lat="41.386891843980386" lon="14.372290651119725"><ele>824.0</ele><time>2026-04-04T08:38:52Z</time></trkpt><trkpt lat="41.38694041218283" lon="14.372061738723087"><ele>819.3333333333334</ele><time>2026-04-04T08:38:53Z</time></trkpt><trkpt lat="41.38698341029441" lon="14.371831352817527"><ele>814.6666666666667</ele><time>2026-04-04T08:38:54.001Z</time></trkpt><trkpt lat="41.38701239442172" lon="14.371593103065468"><ele>810.0</ele><time>2026-04-04T08:38:55.001Z</time></trkpt><trkpt lat="41.387035423184706" lon="14.37134883851871"><ele>806.0</ele><time>2026-04-04T08:38:56.001Z</time></trkpt><trkpt lat="41.38706238747279" lon="14.371126191225995"><ele>802.0</ele><time>2026-04-04T08:38:57.001Z</time></trkpt><trkpt lat="41.38709315317038" lon="14.370912967709447"><ele>798.0</ele><time>2026-04-04T08:38:58.001Z</time></trkpt><trkpt lat="41.38713209772297" lon="14.370711811949437"><ele>808.3333333333333</ele><time>2026-04-04T08:38:59.001Z</time></trkpt><trkpt lat="41.38718608559011" lon="14.370515312762686"><ele>818.6666666666666</ele><time>2026-04-04T08:39:00.001Z</time></trkpt><trkpt lat="41.38725382300861" lon="14.370338263060539"><ele>829.0</ele><time>2026-04-04T08:39:01.001Z</time></trkpt><trkpt lat="41.38733861647268" lon="14.370178525689305"><ele>829.0</ele><time>2026-04-04T08:39:02.001Z</time></trkpt><trkpt lat="41.38742022617446" lon="14.37002974893155"><ele>829.0</ele><time>2026-04-04T08:39:03.001Z</time></trkpt><trkpt lat="41.38749454930347" lon="14.369888750850167"><ele>829.0</ele><time>2026-04-04T08:39:04.001Z</time></trkpt><trkpt lat="41.387549660328006" lon="14.369783992143716"><ele>829.0</ele><time>2026-04-04T08:39:05.001Z</time></trkpt><trkpt lat="41.38759833918213" lon="14.369696566249548"><ele>829.0</ele><time>2026-04-04T08:39:06.001Z</time></trkpt><trkpt lat="41.387640021834144" lon="14.369619701812587"><ele>826.6</ele><time>2026-04-04T08:39:07.001Z</time></trkpt><trkpt lat="41.3876762762125" lon="14.369547656043958"><ele>824.2</ele><time>2026-04-04T08:39:08.001Z</time></trkpt><trkpt lat="41.387719276891694" lon="14.369425620237955"><ele>821.8000000000001</ele><time>2026-04-04T08:39:10.001Z</time></trkpt><trkpt lat="41.387695000824976" lon="14.369303482955955"><ele>819.4000000000001</ele><time>2026-04-04T08:39:12.001Z</time></trkpt><trkpt lat="41.38758293388446" lon="14.369233489503449"><ele>817.0</ele><time>2026-04-04T08:39:14.001Z</time></trkpt><trkpt lat="41.3875142108588" lon="14.369251686872113"><ele>817.0</ele><time>2026-04-04T08:39:15.001Z</time></trkpt><trkpt lat="41.38746926741406" lon="14.36938190423164"><ele>817.0</ele><time>2026-04-04T08:39:16.001Z</time></trkpt><trkpt lat="41.3874149324821" lon="14.3694837747525"><ele>817.0</ele><time>2026-04-04T08:39:17.001Z</time></trkpt><trkpt lat="41.3873729678785" lon="14.369606938533991"><ele>817.0</ele><time>2026-04-04T08:39:18.001Z</time></trkpt><trkpt lat="41.387316233665295" lon="14.36974068105583"><ele>817.0</ele><time>2026-04-04T08:39:19.001Z</time></trkpt><trkpt lat="41.38724619193212" lon="14.369871900612477"><ele>810.5</ele><time>2026-04-04T08:39:20.001Z</time></trkpt><trkpt lat="41.38716359769492" lon="14.370004749878438"><ele>804.0</ele><time>2026-04-04T08:39:21.001Z</time></trkpt><trkpt lat="41.38707932422081" lon="14.370141607610478"><ele>797.5</ele><time>2026-04-04T08:39:22.001Z</time></trkpt><trkpt lat="41.3869999724469" lon="14.370284207071188"><ele>791.0</ele><time>2026-04-04T08:39:23.001Z</time></trkpt><trkpt lat="41.38692114540819" lon="14.370456290169866"><ele>793.3333333333334</ele><time>2026-04-04T08:39:24.001Z</time></trkpt><trkpt lat="41.38687109981303" lon="14.370662585404002"><ele>795.6666666666667</ele><time>2026-04-04T08:39:25.001Z</time></trkpt><trkpt lat="41.38681960458404" lon="14.37085108827056"><ele>798.0</ele><time>2026-04-04T08:39:26.001Z</time></trkpt><trkpt lat="41.38676314616037" lon="14.371028446860961"><ele>798.0</ele><time>2026-04-04T08:39:27.001Z</time></trkpt><trkpt lat="41.38671809170998" lon="14.371204767488779"><ele>798.0</ele><time>2026-04-04T08:39:28.001Z</time></trkpt><trkpt lat="41.38666862282525" lon="14.371374286077357"><ele>798.0</ele><time>2026-04-04T08:39:29.001Z</time></trkpt><trkpt lat="41.38661718737904" lon="14.371526532427678"><ele>798.0</ele><time>2026-04-04T08:39:30.001Z</time></trkpt><trkpt lat="41.386565171093984" lon="14.371675245025452"><ele>800.0</ele><time>2026-04-04T08:39:31.001Z</time></trkpt><trkpt lat="41.386512903923" lon="14.371816876524358"><ele>802.0</ele><time>2026-04-04T08:39:32.001Z</time></trkpt><trkpt lat="41.386465885191264" lon="14.371949107189371"><ele>804.0</ele><time>2026-04-04T08:39:33.001Z</time></trkpt><trkpt lat="41.386444495009194" lon="14.372040434446735"><ele>806.0</ele><time>2026-04-04T08:39:34.001Z</time></trkpt><trkpt lat="41.38641040237508" lon="14.372117538625917"><ele>808.0</ele><time>2026-04-04T08:39:37.001Z</time></trkpt><trkpt lat="41.38636695332211" lon="14.372192956728655"><ele>810.0</ele><time>2026-04-04T08:40:09Z</time></trkpt><trkpt lat="41.386282136512456" lon="14.372346732250582"><ele>803.8</ele><time>2026-04-04T08:40:11Z</time></trkpt><trkpt lat="41.38621726587034" lon="14.372442984962268"><ele>797.6</ele><time>2026-04-04T08:40:12Z</time></trkpt><trkpt lat="41.38614541097775" lon="14.372558259722396"><ele>791.4000000000001</ele><time>2026-04-04T08:40:13Z</time></trkpt><trkpt lat="41.38607919910331" lon="14.372680262592201"><ele>785.2</ele><time>2026-04-04T08:40:14Z</time></trkpt><trkpt lat="41.386019119502684" lon="14.372820800506291"><ele>779.0</ele><time>2026-04-04T08:40:15Z</time></trkpt><trkpt lat="41.38598976020937" lon="14.372986692130976"><ele>781.75</ele><time>2026-04-04T08:40:16Z</time></trkpt><trkpt lat="41.38599166774402" lon="14.373177773788779"><ele>784.5</ele><time>2026-04-04T08:40:17Z</time></trkpt><trkpt lat="41.38598214739098" lon="14.373376979755047"><ele>787.25</ele><time>2026-04-04T08:40:18Z</time></trkpt><trkpt lat="41.38595871900634" lon="14.373570413174578"><ele>790.0</ele><time>2026-04-04T08:40:19Z</time></trkpt><trkpt lat="41.38594755099306" lon="14.373778637847375"><ele>788.6666666666666</ele><time>2026-04-04T08:40:20Z</time></trkpt><trkpt lat="41.38594199760328" lon="14.373999108251946"><ele>787.3333333333333</ele><time>2026-04-04T08:40:21Z</time></trkpt><trkpt lat="41.38594175661045" lon="14.374212522229053"><ele>786.0</ele><time>2026-04-04T08:40:22Z</time></trkpt><trkpt lat="41.385919321195935" lon="14.374415319020212"><ele>786.0</ele><time>2026-04-04T08:40:23Z</time></trkpt><trkpt lat="41.38590276421616" lon="14.374618014362028"><ele>786.0</ele><time>2026-04-04T08:40:24Z</time></trkpt><trkpt lat="41.3858837370316" lon="14.374812251400678"><ele>786.0</ele><time>2026-04-04T08:40:25Z</time></trkpt><trkpt lat="41.38588021266909" lon="14.375009920902128"><ele>786.0</ele><time>2026-04-04T08:40:26Z</time></trkpt><trkpt lat="41.385865701114476" lon="14.375197077366906"><ele>785.0</ele><time>2026-04-04T08:40:27Z</time></trkpt><trkpt lat="41.3858672469545" lon="14.375370665443493"><ele>784.0</ele><time>2026-04-04T08:40:28Z</time></trkpt><trkpt lat="41.3859038039341" lon="14.375529984042682"><ele>783.0</ele><time>2026-04-04T08:40:29Z</time></trkpt><trkpt lat="41.38596915280382" lon="14.375699353819344"><ele>782.0</ele><time>2026-04-04T08:40:30Z</time></trkpt><trkpt lat="41.38603806940693" lon="14.375863723206772"><ele>779.5</ele><time>2026-04-04T08:40:31Z</time></trkpt><trkpt lat="41.38611412079877" lon="14.376015268669372"><ele>777.0</ele><time>2026-04-04T08:40:32Z</time></trkpt><trkpt lat="41.38611806155225" lon="14.376188993079355"><ele>774.5</ele><time>2026-04-04T08:40:33Z</time></trkpt><trkpt lat="41.38610224713031" lon="14.376359328308425"><ele>772.0</ele><time>2026-04-04T08:40:34Z</time></trkpt><trkpt lat="41.38609906410274" lon="14.376560139232682"><ele>771.75</ele><time>2026-04-04T08:40:35Z</time></trkpt><trkpt lat="41.386079081842354" lon="14.376759795169082"><ele>771.5</ele><time>2026-04-04T08:40:36Z</time></trkpt><trkpt lat="41.38606823420795" lon="14.37694830345033"><ele>771.25</ele><time>2026-04-04T08:40:37Z</time></trkpt><trkpt lat="41.38605845380923" lon="14.377134700124627"><ele>771.0</ele><time>2026-04-04T08:40:38Z</time></trkpt><trkpt lat="41.38604349017674" lon="14.377316352994148"><ele>771.0</ele><time>2026-04-04T08:40:39Z</time></trkpt><trkpt lat="41.38602194337239" lon="14.37749917100963"><ele>771.0</ele><time>2026-04-04T08:40:40Z</time></trkpt><trkpt lat="41.38597235109434" lon="14.377664389866846"><ele>771.0</ele><time>2026-04-04T08:40:41Z</time></trkpt><trkpt lat="41.38592036744986" lon="14.377826678841743"><ele>771.0</ele><time>2026-04-04T08:40:42Z</time></trkpt><trkpt lat="41.38588519977185" lon="14.377995300517503"><ele>772.75</ele><time>2026-04-04T08:40:43Z</time></trkpt><trkpt lat="41.38582166767715" lon="14.378144248087532"><ele>774.5</ele><time>2026-04-04T08:40:44Z</time></trkpt><trkpt lat="41.38575855542151" lon="14.378307961527366"><ele>776.25</ele><time>2026-04-04T08:40:45Z</time></trkpt><trkpt lat="41.38569493941998" lon="14.378487943189528"><ele>778.0</ele><time>2026-04-04T08:40:46Z</time></trkpt><trkpt lat="41.38562727769777" lon="14.378675324032617"><ele>782.3333333333333</ele><time>2026-04-04T08:40:47Z</time></trkpt><trkpt lat="41.38555733190016" lon="14.378871341840025"><ele>786.6666666666667</ele><time>2026-04-04T08:40:48Z</time></trkpt><trkpt lat="41.38550187220683" lon="14.379083499240126"><ele>791.0</ele><time>2026-04-04T08:40:49Z</time></trkpt><trkpt lat="41.38546605156345" lon="14.379305363463944"><ele>776.3333333333334</ele><time>2026-04-04T08:40:50Z</time></trkpt><trkpt lat="41.38543297666668" lon="14.379540529368589"><ele>761.6666666666667</ele><time>2026-04-04T08:40:51Z</time></trkpt><trkpt lat="41.38538514655034" lon="14.379757993122738"><ele>747.0</ele><time>2026-04-04T08:40:52Z</time></trkpt><trkpt lat="41.38531857579443" lon="14.379960577402509"><ele>747.0</ele><time>2026-04-04T08:40:53Z</time></trkpt><trkpt lat="41.38524472878858" lon="14.380157942769488"><ele>747.0</ele><time>2026-04-04T08:40:54Z</time></trkpt><trkpt lat="41.38518457714088" lon="14.380350889129172"><ele>747.0</ele><time>2026-04-04T08:40:55Z</time></trkpt><trkpt lat="41.38516988686177" lon="14.380551996407634"><ele>746.8</ele><time>2026-04-04T08:40:56Z</time></trkpt><trkpt lat="41.385192559161524" lon="14.38073720106999"><ele>746.6</ele><time>2026-04-04T08:40:57Z</time></trkpt><trkpt lat="41.38521851243627" lon="14.38088098947645"><ele>746.4</ele><time>2026-04-04T08:40:58.001Z</time></trkpt><trkpt lat="41.385218604833206" lon="14.380986124734031"><ele>746.1999999999999</ele><time>2026-04-04T08:40:59.001Z</time></trkpt><trkpt lat="41.38518419529238" lon="14.381059403633696"><ele>746.0</ele><time>2026-04-04T08:41:00.001Z</time></trkpt><trkpt lat="41.38511304682284" lon="14.381069335977458"><ele>746.0</ele><time>2026-04-04T08:41:01.001Z</time></trkpt><trkpt lat="41.38503963068737" lon="14.38102079660676"><ele>746.0</ele><time>2026-04-04T08:41:02.001Z</time></trkpt><trkpt lat="41.38500529873957" lon="14.38091531941979"><ele>746.0</ele><time>2026-04-04T08:41:03.001Z</time></trkpt><trkpt lat="41.385042886065136" lon="14.38078490916261"><ele>746.0</ele><time>2026-04-04T08:41:04.001Z</time></trkpt><trkpt lat="41.38503560143612" lon="14.380633567781784"><ele>746.0</ele><time>2026-04-04T08:41:05.001Z</time></trkpt><trkpt lat="41.38504769421232" lon="14.380469412228212"><ele>746.25</ele><time>2026-04-04T08:41:06.001Z</time></trkpt><trkpt lat="41.38508555723504" lon="14.380297423856414"><ele>746.5</ele><time>2026-04-04T08:41:07.001Z</time></trkpt><trkpt lat="41.38514554291641" lon="14.38013032776332"><ele>746.75</ele><time>2026-04-04T08:41:08.001Z</time></trkpt><trkpt lat="41.38519837709117" lon="14.379981807161634"><ele>747.0</ele><time>2026-04-04T08:41:09.001Z</time></trkpt><trkpt lat="41.38523042913597" lon="14.379816912489991"><ele>746.25</ele><time>2026-04-04T08:41:10.001Z</time></trkpt><trkpt lat="41.38524190521902" lon="14.379629316101887"><ele>745.5</ele><time>2026-04-04T08:41:11.001Z</time></trkpt><trkpt lat="41.38524091910037" lon="14.379430580720076"><ele>744.75</ele><time>2026-04-04T08:41:12.001Z</time></trkpt><trkpt lat="41.38524671499503" lon="14.379238125775135"><ele>744.0</ele><time>2026-04-04T08:41:13.001Z</time></trkpt><trkpt lat="41.38525162796044" lon="14.379053767845429"><ele>744.0</ele><time>2026-04-04T08:41:14.001Z</time></trkpt><trkpt lat="41.38523739351421" lon="14.378886511868716"><ele>744.0</ele><time>2026-04-04T08:41:15.001Z</time></trkpt><trkpt lat="41.385198704965504" lon="14.378726841822953"><ele>744.0</ele><time>2026-04-04T08:41:16.001Z</time></trkpt><trkpt lat="41.38515295190096" lon="14.378578365531535"><ele>744.0</ele><time>2026-04-04T08:41:17.001Z</time></trkpt><trkpt lat="41.38510933950619" lon="14.378446592099174"><ele>743.4000000000001</ele><time>2026-04-04T08:41:18.001Z</time></trkpt><trkpt lat="41.385072406623664" lon="14.378328703838905"><ele>742.8</ele><time>2026-04-04T08:41:19.001Z</time></trkpt><trkpt lat="41.38504279233925" lon="14.378209307650827"><ele>742.2</ele><time>2026-04-04T08:41:20.001Z</time></trkpt><trkpt lat="41.385023844502754" lon="14.378081401947748"><ele>741.5999999999999</ele><time>2026-04-04T08:41:21.001Z</time></trkpt><trkpt lat="41.38501226760631" lon="14.377956827177949"><ele>741.0</ele><time>2026-04-04T08:41:22.001Z</time></trkpt><trkpt lat="41.3850051313492" lon="14.37783325023712"><ele>740.5</ele><time>2026-04-04T08:41:23.001Z</time></trkpt><trkpt lat="41.385006143446695" lon="14.377719476827142"><ele>740.0</ele><time>2026-04-04T08:41:24.001Z</time></trkpt><trkpt lat="41.385012334140114" lon="14.377604805113613"><ele>739.5</ele><time>2026-04-04T08:41:25.001Z</time></trkpt><trkpt lat="41.38502916965011" lon="14.377496471838894"><ele>739.0</ele><time>2026-04-04T08:41:26.001Z</time></trkpt><trkpt lat="41.38504479436793" lon="14.377385721667048"><ele>738.5</ele><time>2026-04-04T08:41:27.001Z</time></trkpt><trkpt lat="41.385060267628354" lon="14.377276208995651"><ele>738.0</ele><time>2026-04-04T08:41:28.001Z</time></trkpt><trkpt lat="41.385071762478496" lon="14.377143493523082"><ele>737.25</ele><time>2026-04-04T08:41:29.001Z</time></trkpt><trkpt lat="41.385087317151715" lon="14.37700085894093"><ele>736.5</ele><time>2026-04-04T08:41:30.001Z</time></trkpt><trkpt lat="41.38506387767662" lon="14.376818936692302"><ele>735.75</ele><time>2026-04-04T08:41:31.001Z</time></trkpt><trkpt lat="41.38502424247086" lon="14.376637131764394"><ele>735.0</ele><time>2026-04-04T08:41:32.001Z</time></trkpt><trkpt lat="41.38496867271991" lon="14.37645385554008"><ele>735.75</ele><time>2026-04-04T08:41:33.001Z</time></trkpt><trkpt lat="41.384948196828674" lon="14.376249382929823"><ele>736.5</ele><time>2026-04-04T08:41:34.001Z</time></trkpt><trkpt lat="41.38494566771485" lon="14.3760436238966"><ele>737.25</ele><time>2026-04-04T08:41:35.001Z</time></trkpt><trkpt lat="41.38495077185561" lon="14.37586894043033"><ele>738.0</ele><time>2026-04-04T08:41:36.001Z</time></trkpt><trkpt lat="41.38495656145014" lon="14.375722297124803"><ele>738.0</ele><time>2026-04-04T08:41:37.001Z</time></trkpt><trkpt lat="41.384983765371466" lon="14.375585305246386"><ele>738.0</ele><time>2026-04-04T08:41:38.001Z</time></trkpt><trkpt lat="41.3850440043162" lon="14.37545569916525"><ele>738.0</ele><time>2026-04-04T08:41:39.001Z</time></trkpt><trkpt lat="41.3851248121665" lon="14.375337702084224"><ele>738.0</ele><time>2026-04-04T08:41:40.001Z</time></trkpt><trkpt lat="41.38517993359511" lon="14.375211647999043"><ele>738.0</ele><time>2026-04-04T08:41:41.001Z</time></trkpt><trkpt lat="41.385197856217935" lon="14.375078938508778"><ele>738.0</ele><time>2026-04-04T08:41:42.001Z</time></trkpt><trkpt lat="41.3851826463279" lon="14.374956386476061"><ele>738.0</ele><time>2026-04-04T08:41:43.001Z</time></trkpt><trkpt lat="41.385144946796466" lon="14.374854662494949"><ele>738.0</ele><time>2026-04-04T08:41:44.001Z</time></trkpt><trkpt lat="41.38511165523324" lon="14.37476574325424"><ele>738.0</ele><time>2026-04-04T08:41:45.001Z</time></trkpt><trkpt lat="41.385045387939414" lon="14.374697818023245"><ele>738.0</ele><time>2026-04-04T08:41:46.001Z</time></trkpt><trkpt lat="41.38498742030077" lon="14.37460750557593"><ele>738.0</ele><time>2026-04-04T08:41:47.001Z</time></trkpt><trkpt lat="41.384923342581835" lon="14.374534400287251"><ele>738.0</ele><time>2026-04-04T08:41:48.001Z</time></trkpt><trkpt lat="41.38489296483729" lon="14.374432685667088"><ele>738.0</ele><time>2026-04-04T08:41:49.001Z</time></trkpt><trkpt lat="41.38487445024235" lon="14.374321893080737"><ele>738.0</ele><time>2026-04-04T08:41:50.001Z</time></trkpt><trkpt lat="41.38486721318719" lon="14.37420726691193"><ele>738.0</ele><time>2026-04-04T08:41:51.001Z</time></trkpt><trkpt lat="41.38486558614521" lon="14.374097074004407"><ele>738.0</ele><time>2026-04-04T08:41:52Z</time></trkpt><trkpt lat="41.384862057459785" lon="14.37399529231434"><ele>738.0</ele><time>2026-04-04T08:41:53Z</time></trkpt><trkpt lat="41.38485084760726" lon="14.373893053929573"><ele>738.0</ele><time>2026-04-04T08:41:54Z</time></trkpt><trkpt lat="41.38483574803665" lon="14.373783763387685"><ele>738.0</ele><time>2026-04-04T08:41:55Z</time></trkpt><trkpt lat="41.384809483609395" lon="14.37368357133827"><ele>738.0</ele><time>2026-04-04T08:41:56Z</time></trkpt><trkpt lat="41.384760237166994" lon="14.373593257490114"><ele>738.0</ele><time>2026-04-04T08:41:57Z</time></trkpt><trkpt lat="41.384685220493786" lon="14.373524173034147"><ele>738.0</ele><time>2026-04-04T08:41:58Z</time></trkpt><trkpt lat="41.38459457740562" lon="14.373474132683961"><ele>734.8</ele><time>2026-04-04T08:41:59Z</time></trkpt><trkpt lat="41.3845024164317" lon="14.373398657924561"><ele>731.5999999999999</ele><time>2026-04-04T08:42:00Z</time></trkpt><trkpt lat="41.38440191876033" lon="14.373337866494987"><ele>728.4000000000001</ele><time>2026-04-04T08:42:01Z</time></trkpt><trkpt lat="41.38430765523109" lon="14.37328223568501"><ele>725.2</ele><time>2026-04-04T08:42:02Z</time></trkpt><trkpt lat="41.384234122950325" lon="14.373206600438778"><ele>722.0</ele><time>2026-04-04T08:42:03Z</time></trkpt><trkpt lat="41.38418252546152" lon="14.373113028803498"><ele>722.25</ele><time>2026-04-04T08:42:04Z</time></trkpt><trkpt lat="41.38418209447367" lon="14.372972839404714"><ele>722.5</ele><time>2026-04-04T08:42:05Z</time></trkpt><trkpt lat="41.38420342189003" lon="14.372812908098785"><ele>722.75</ele><time>2026-04-04T08:42:06Z</time></trkpt><trkpt lat="41.38422644194692" lon="14.372650474413977"><ele>723.0</ele><time>2026-04-04T08:42:07Z</time></trkpt><trkpt lat="41.38423604141346" lon="14.372470957808186"><ele>723.0</ele><time>2026-04-04T08:42:08Z</time></trkpt><trkpt lat="41.38423033591983" lon="14.372293389080774"><ele>723.0</ele><time>2026-04-04T08:42:09Z</time></trkpt><trkpt lat="41.38419917465226" lon="14.372128424325483"><ele>723.0</ele><time>2026-04-04T08:42:10Z</time></trkpt><trkpt lat="41.38415822647623" lon="14.371974863777334"><ele>723.0</ele><time>2026-04-04T08:42:11Z</time></trkpt><trkpt lat="41.384115993744615" lon="14.37181981372983"><ele>722.0</ele><time>2026-04-04T08:42:12Z</time></trkpt><trkpt lat="41.38408801336829" lon="14.371664980327392"><ele>721.0</ele><time>2026-04-04T08:42:13Z</time></trkpt><trkpt lat="41.384071477252476" lon="14.371506422912187"><ele>720.0</ele><time>2026-04-04T08:42:14Z</time></trkpt><trkpt lat="41.38407961251433" lon="14.37134932339422"><ele>719.0</ele><time>2026-04-04T08:42:15Z</time></trkpt><trkpt lat="41.38409914842222" lon="14.371176460077537"><ele>719.0</ele><time>2026-04-04T08:42:16Z</time></trkpt><trkpt lat="41.38411986488778" lon="14.370998009012311"><ele>719.0</ele><time>2026-04-04T08:42:17Z</time></trkpt><trkpt lat="41.384141336193174" lon="14.370809014136444"><ele>719.0</ele><time>2026-04-04T08:42:18Z</time></trkpt><trkpt lat="41.38416234382005" lon="14.370607073193073"><ele>719.0</ele><time>2026-04-04T08:42:19Z</time></trkpt><trkpt lat="41.384185593925125" lon="14.370403134635755"><ele>716.6666666666666</ele><time>2026-04-04T08:42:20Z</time></trkpt><trkpt lat="41.38421228192292" lon="14.370193432821159"><ele>714.3333333333334</ele><time>2026-04-04T08:42:21Z</time></trkpt><trkpt lat="41.3842390086015" lon="14.369994128404267"><ele>712.0</ele><time>2026-04-04T08:42:22Z</time></trkpt><trkpt lat="41.384262729636205" lon="14.36979659160286"><ele>709.0</ele><time>2026-04-04T08:42:23Z</time></trkpt><trkpt lat="41.384285193464066" lon="14.369594653871657"><ele>706.0</ele><time>2026-04-04T08:42:24Z</time></trkpt><trkpt lat="41.38430069571313" lon="14.369386502111324"><ele>703.0</ele><time>2026-04-04T08:42:25Z</time></trkpt><trkpt lat="41.38430645173649" lon="14.369184759378332"><ele>703.0</ele><time>2026-04-04T08:42:26Z</time></trkpt><trkpt lat="41.384326597653235" lon="14.368996049114296"><ele>703.0</ele><time>2026-04-04T08:42:27Z</time></trkpt><trkpt lat="41.384373103074246" lon="14.36882307523242"><ele>703.0</ele><time>2026-04-04T08:42:28Z</time></trkpt><trkpt lat="41.38442660337935" lon="14.36869346879105"><ele>703.0</ele><time>2026-04-04T08:42:29Z</time></trkpt><trkpt lat="41.384452026521096" lon="14.368592930248035"><ele>700.8</ele><time>2026-04-04T08:42:30Z</time></trkpt><trkpt lat="41.38443308350949" lon="14.36849885391544"><ele>698.5999999999999</ele><time>2026-04-04T08:42:31Z</time></trkpt><trkpt lat="41.38436887468256" lon="14.368424061979145"><ele>696.4000000000001</ele><time>2026-04-04T08:42:32Z</time></trkpt><trkpt lat="41.384288301189855" lon="14.368384967893583"><ele>694.2</ele><time>2026-04-04T08:42:33Z</time></trkpt><trkpt lat="41.384190033558376" lon="14.368422153908183"><ele>692.0</ele><time>2026-04-04T08:42:34Z</time></trkpt><trkpt lat="41.38413011401271" lon="14.36854891361828"><ele>692.0</ele><time>2026-04-04T08:42:35Z</time></trkpt><trkpt lat="41.38416005382217" lon="14.368704895280654"><ele>692.0</ele><time>2026-04-04T08:42:36Z</time></trkpt><trkpt lat="41.384184152795875" lon="14.368830190223468"><ele>692.0</ele><time>2026-04-04T08:42:37Z</time></trkpt><trkpt lat="41.38417773991003" lon="14.368961881153762"><ele>692.0</ele><time>2026-04-04T08:42:38Z</time></trkpt><trkpt lat="41.384163821797316" lon="14.36909463984343"><ele>692.0</ele><time>2026-04-04T08:42:39Z</time></trkpt><trkpt lat="41.3841410291967" lon="14.369219371645306"><ele>694.2</ele><time>2026-04-04T08:42:40Z</time></trkpt><trkpt lat="41.384114476257" lon="14.369345651609912"><ele>696.4000000000001</ele><time>2026-04-04T08:42:41Z</time></trkpt><trkpt lat="41.38408852018197" lon="14.369465345542562"><ele>698.5999999999999</ele><time>2026-04-04T08:42:42Z</time></trkpt><trkpt lat="41.384060489516926" lon="14.369588991333451"><ele>700.8</ele><time>2026-04-04T08:42:43Z</time></trkpt><trkpt lat="41.384032732484336" lon="14.369711633557095"><ele>703.0</ele><time>2026-04-04T08:42:44Z</time></trkpt><trkpt lat="41.38400524119223" lon="14.369833407936401"><ele>704.8</ele><time>2026-04-04T08:42:45Z</time></trkpt><trkpt lat="41.38397587991711" lon="14.36995494093228"><ele>706.5999999999999</ele><time>2026-04-04T08:42:46Z</time></trkpt><trkpt lat="41.383945589776076" lon="14.370073772720634"><ele>708.4000000000001</ele><time>2026-04-04T08:42:47Z</time></trkpt><trkpt lat="41.383914124395574" lon="14.370190736248414"><ele>710.2</ele><time>2026-04-04T08:42:48Z</time></trkpt><trkpt lat="41.38388092595249" lon="14.370311858130457"><ele>712.0</ele><time>2026-04-04T08:42:49Z</time></trkpt><trkpt lat="41.38384850704388" lon="14.370429787805525"><ele>697.5</ele><time>2026-04-04T08:42:50Z</time></trkpt><trkpt lat="41.38381462923054" lon="14.37056021725394"><ele>683.0</ele><time>2026-04-04T08:42:51Z</time></trkpt><trkpt lat="41.38378092110366" lon="14.370701730206182"><ele>668.5</ele><time>2026-04-04T08:42:52Z</time></trkpt><trkpt lat="41.38374724143559" lon="14.370854180430014"><ele>654.0</ele><time>2026-04-04T08:42:53Z</time></trkpt><trkpt lat="41.38371682285762" lon="14.371017376684694"><ele>654.0</ele><time>2026-04-04T08:42:54Z</time></trkpt><trkpt lat="41.38368738584983" lon="14.371188727513838"><ele>654.0</ele><time>2026-04-04T08:42:55Z</time></trkpt><trkpt lat="41.38365994479826" lon="14.371358844486194"><ele>654.0</ele><time>2026-04-04T08:42:56Z</time></trkpt><trkpt lat="41.38363431856244" lon="14.37152584004"><ele>654.0</ele><time>2026-04-04T08:42:57Z</time></trkpt><trkpt lat="41.38360946436548" lon="14.371686744781526"><ele>656.0</ele><time>2026-04-04T08:42:58Z</time></trkpt><trkpt lat="41.38358523016666" lon="14.371843095101935"><ele>658.0</ele><time>2026-04-04T08:42:59.001Z</time></trkpt><trkpt lat="41.38356120562859" lon="14.371998092798842"><ele>660.0</ele><time>2026-04-04T08:43:00.001Z</time></trkpt><trkpt lat="41.38353747689675" lon="14.372151182018854"><ele>662.0</ele><time>2026-04-04T08:43:01.001Z</time></trkpt><trkpt lat="41.38351442205233" lon="14.372299923537666"><ele>663.2</ele><time>2026-04-04T08:43:02.001Z</time></trkpt><trkpt lat="41.383490471613875" lon="14.372443704273822"><ele>664.4000000000001</ele><time>2026-04-04T08:43:03.001Z</time></trkpt><trkpt lat="41.3834684366039" lon="14.372573759512496"><ele>665.5999999999999</ele><time>2026-04-04T08:43:04.001Z</time></trkpt><trkpt lat="41.38344809388457" lon="14.37269382645572"><ele>666.8</ele><time>2026-04-04T08:43:05.001Z</time></trkpt><trkpt lat="41.383435653062165" lon="14.372814008853235"><ele>668.0</ele><time>2026-04-04T08:43:06.001Z</time></trkpt><trkpt lat="41.38345367713685" lon="14.3729194428388"><ele>668.0</ele><time>2026-04-04T08:43:07.001Z</time></trkpt><trkpt lat="41.38346687010143" lon="14.373068078219454"><ele>668.0</ele><time>2026-04-04T08:43:09.001Z</time></trkpt><trkpt lat="41.383446210836965" lon="14.373161605168738"><ele>668.0</ele><time>2026-04-04T08:43:11.001Z</time></trkpt><trkpt lat="41.38337754505634" lon="14.373167654443705"><ele>668.0</ele><time>2026-04-04T08:43:13.001Z</time></trkpt><trkpt lat="41.38330430464401" lon="14.373133445766848"><ele>668.0</ele><time>2026-04-04T08:43:18.001Z</time></trkpt><trkpt lat="41.38328640816686" lon="14.373017261548629"><ele>668.0</ele><time>2026-04-04T08:49:01Z</time></trkpt><trkpt lat="41.383305569401436" lon="14.372933561312376"><ele>668.0</ele><time>2026-04-04T08:49:02Z</time></trkpt><trkpt lat="41.383325645105955" lon="14.372830806250072"><ele>668.0</ele><time>2026-04-04T08:49:03Z</time></trkpt><trkpt lat="41.383340720483055" lon="14.372707896098001"><ele>668.0</ele><time>2026-04-04T08:49:04Z</time></trkpt><trkpt lat="41.38335654675934" lon="14.372583705937801"><ele>668.0</ele><time>2026-04-04T08:49:05Z</time></trkpt><trkpt lat="41.383375503065906" lon="14.37246746104953"><ele>668.0</ele><time>2026-04-04T08:49:06Z</time></trkpt><trkpt lat="41.3833923429468" lon="14.372349684515715"><ele>668.0</ele><time>2026-04-04T08:49:07Z</time></trkpt><trkpt lat="41.38340725003677" lon="14.372239255922699"><ele>666.8</ele><time>2026-04-04T08:49:08Z</time></trkpt><trkpt lat="41.383414540232145" lon="14.372113767706933"><ele>665.5999999999999</ele><time>2026-04-04T08:49:09Z</time></trkpt><trkpt lat="41.3834153015964" lon="14.371985483912507"><ele>664.4000000000001</ele><time>2026-04-04T08:49:10Z</time></trkpt><trkpt lat="41.383409893466904" lon="14.371860646226828"><ele>663.2</ele><time>2026-04-04T08:49:11Z</time></trkpt><trkpt lat="41.383404131233455" lon="14.371737524184606"><ele>662.0</ele><time>2026-04-04T08:49:12Z</time></trkpt><trkpt lat="41.38340383865064" lon="14.371603193213812"><ele>662.0</ele><time>2026-04-04T08:49:13Z</time></trkpt><trkpt lat="41.383424587682775" lon="14.37145528593233"><ele>662.0</ele><time>2026-04-04T08:49:14Z</time></trkpt><trkpt lat="41.38346244581014" lon="14.371302266703312"><ele>662.0</ele><time>2026-04-04T08:49:15Z</time></trkpt><trkpt lat="41.38349832709085" lon="14.37113910454446"><ele>662.0</ele><time>2026-04-04T08:49:16Z</time></trkpt><trkpt lat="41.38352288599475" lon="14.370967929136622"><ele>660.0</ele><time>2026-04-04T08:49:17Z</time></trkpt><trkpt lat="41.38352978445651" lon="14.370788571583189"><ele>658.0</ele><time>2026-04-04T08:49:18Z</time></trkpt><trkpt lat="41.38353430841917" lon="14.370602476615133"><ele>656.0</ele><time>2026-04-04T08:49:19Z</time></trkpt><trkpt lat="41.383545881648395" lon="14.370421251222893"><ele>654.0</ele><time>2026-04-04T08:49:20Z</time></trkpt><trkpt lat="41.38355451195785" lon="14.37024652262537"><ele>654.75</ele><time>2026-04-04T08:49:21Z</time></trkpt><trkpt lat="41.38356186391198" lon="14.37007586920802"><ele>655.5</ele><time>2026-04-04T08:49:22Z</time></trkpt><trkpt lat="41.383576933592835" lon="14.369907420382692"><ele>656.25</ele><time>2026-04-04T08:49:23Z</time></trkpt><trkpt lat="41.38357508412542" lon="14.369742315223052"><ele>657.0</ele><time>2026-04-04T08:49:24Z</time></trkpt><trkpt lat="41.38355514333819" lon="14.36958275974185"><ele>657.0</ele><time>2026-04-04T08:49:25Z</time></trkpt><trkpt lat="41.383520674467924" lon="14.369433205992326"><ele>657.0</ele><time>2026-04-04T08:49:26Z</time></trkpt><trkpt lat="41.383475863418354" lon="14.369291430064097"><ele>657.0</ele><time>2026-04-04T08:49:27Z</time></trkpt><trkpt lat="41.38341263345573" lon="14.369159472631788"><ele>657.0</ele><time>2026-04-04T08:49:28Z</time></trkpt><trkpt lat="41.38333050782412" lon="14.369031948320014"><ele>657.0</ele><time>2026-04-04T08:49:29Z</time></trkpt><trkpt lat="41.38323943126405" lon="14.368903400600665"><ele>657.0</ele><time>2026-04-04T08:49:30Z</time></trkpt><trkpt lat="41.38314894494933" lon="14.368761030972587"><ele>657.0</ele><time>2026-04-04T08:49:31Z</time></trkpt><trkpt lat="41.38306772422302" lon="14.36860379819463"><ele>657.0</ele><time>2026-04-04T08:49:32Z</time></trkpt><trkpt lat="41.38299442929645" lon="14.368436226251307"><ele>649.25</ele><time>2026-04-04T08:49:33Z</time></trkpt><trkpt lat="41.3829260813212" lon="14.368269492358182"><ele>641.5</ele><time>2026-04-04T08:49:34Z</time></trkpt><trkpt lat="41.38285925250186" lon="14.368111331063615"><ele>633.75</ele><time>2026-04-04T08:49:35Z</time></trkpt><trkpt lat="41.38280185955019" lon="14.367949278954725"><ele>626.0</ele><time>2026-04-04T08:49:36Z</time></trkpt><trkpt lat="41.38281861006366" lon="14.367771899388353"><ele>626.0</ele><time>2026-04-04T08:49:37.001Z</time></trkpt><trkpt lat="41.382800173319445" lon="14.36763526799986"><ele>626.0</ele><time>2026-04-04T08:49:38.001Z</time></trkpt><trkpt lat="41.38276661900119" lon="14.367542248082534"><ele>626.0</ele><time>2026-04-04T08:49:39.001Z</time></trkpt><trkpt lat="41.38267527856462" lon="14.367508712555352"><ele>626.0</ele><time>2026-04-04T08:49:40.001Z</time></trkpt><trkpt lat="41.382578452324125" lon="14.367546470859859"><ele>626.0</ele><time>2026-04-04T08:49:41.001Z</time></trkpt><trkpt lat="41.382519013709526" lon="14.367644744069764"><ele>626.0</ele><time>2026-04-04T08:49:42.001Z</time></trkpt><trkpt lat="41.382512612083325" lon="14.367779316661228"><ele>626.0</ele><time>2026-04-04T08:49:43.001Z</time></trkpt><trkpt lat="41.382565547946335" lon="14.367928767798674"><ele>626.0</ele><time>2026-04-04T08:49:44.001Z</time></trkpt><trkpt lat="41.382628509841375" lon="14.368069291484533"><ele>626.0</ele><time>2026-04-04T08:49:45.001Z</time></trkpt><trkpt lat="41.382686364203884" lon="14.368217834779388"><ele>624.5</ele><time>2026-04-04T08:49:46.001Z</time></trkpt><trkpt lat="41.38273467424085" lon="14.368389201596896"><ele>623.0</ele><time>2026-04-04T08:49:47.001Z</time></trkpt><trkpt lat="41.382772255305866" lon="14.368571811106388"><ele>621.5</ele><time>2026-04-04T08:49:48.001Z</time></trkpt><trkpt lat="41.38280844440363" lon="14.368756179176813"><ele>620.0</ele><time>2026-04-04T08:49:49.001Z</time></trkpt><trkpt lat="41.382842689258574" lon="14.368930223755724"><ele>616.75</ele><time>2026-04-04T08:49:50.001Z</time></trkpt><trkpt lat="41.38287436188768" lon="14.369099036338165"><ele>613.5</ele><time>2026-04-04T08:49:51.001Z</time></trkpt><trkpt lat="41.38291044039112" lon="14.369262297132614"><ele>610.25</ele><time>2026-04-04T08:49:52.001Z</time></trkpt><trkpt lat="41.38295685540557" lon="14.36941365556368"><ele>607.0</ele><time>2026-04-04T08:49:53.001Z</time></trkpt><trkpt lat="41.383030442440294" lon="14.369537740135979"><ele>615.2</ele><time>2026-04-04T08:49:54.001Z</time></trkpt><trkpt lat="41.38312781918631" lon="14.369631173258695"><ele>623.4000000000001</ele><time>2026-04-04T08:49:55.001Z</time></trkpt><trkpt lat="41.38321538642532" lon="14.369712565757544"><ele>631.5999999999999</ele><time>2026-04-04T08:49:56.001Z</time></trkpt><trkpt lat="41.38326485563739" lon="14.369797375817658"><ele>639.8</ele><time>2026-04-04T08:49:57.001Z</time></trkpt><trkpt lat="41.38326825907655" lon="14.369892126135298"><ele>648.0</ele><time>2026-04-04T08:49:58.001Z</time></trkpt><trkpt lat="41.38322582099636" lon="14.369969944399479"><ele>648.0</ele><time>2026-04-04T08:49:59.001Z</time></trkpt><trkpt lat="41.38314789335979" lon="14.369990760187799"><ele>648.0</ele><time>2026-04-04T08:50:00.001Z</time></trkpt><trkpt lat="41.38306453950928" lon="14.36994786968259"><ele>648.0</ele><time>2026-04-04T08:50:01.001Z</time></trkpt><trkpt lat="41.383015657768006" lon="14.36982547792664"><ele>648.0</ele><time>2026-04-04T08:50:02.001Z</time></trkpt><trkpt lat="41.38298804377999" lon="14.369699950465558"><ele>648.0</ele><time>2026-04-04T08:50:03.001Z</time></trkpt><trkpt lat="41.3829217430709" lon="14.369580691439308"><ele>637.75</ele><time>2026-04-04T08:50:04.001Z</time></trkpt><trkpt lat="41.382870168649184" lon="14.369445023672945"><ele>627.5</ele><time>2026-04-04T08:50:05.001Z</time></trkpt><trkpt lat="41.382833513782664" lon="14.369292756907116"><ele>617.25</ele><time>2026-04-04T08:50:06.001Z</time></trkpt><trkpt lat="41.38278904252701" lon="14.369151813823915"><ele>607.0</ele><time>2026-04-04T08:50:07.001Z</time></trkpt><trkpt lat="41.38272381621921" lon="14.369013015149802"><ele>607.0</ele><time>2026-04-04T08:50:08.001Z</time></trkpt><trkpt lat="41.38265894620138" lon="14.36887060748216"><ele>607.0</ele><time>2026-04-04T08:50:09.001Z</time></trkpt><trkpt lat="41.38257280465685" lon="14.368731237744337"><ele>607.0</ele><time>2026-04-04T08:50:10.001Z</time></trkpt><trkpt lat="41.38247896171875" lon="14.368602227895327"><ele>607.0</ele><time>2026-04-04T08:50:11.001Z</time></trkpt><trkpt lat="41.38239121512072" lon="14.368479173766577"><ele>609.6</ele><time>2026-04-04T08:50:12.001Z</time></trkpt><trkpt lat="41.38232020665773" lon="14.368360884110974"><ele>612.2</ele><time>2026-04-04T08:50:13.001Z</time></trkpt><trkpt lat="41.3822938882971" lon="14.368222450539939"><ele>614.8</ele><time>2026-04-04T08:50:14.001Z</time></trkpt><trkpt lat="41.38225563898353" lon="14.368085725586342"><ele>617.4</ele><time>2026-04-04T08:50:15.001Z</time></trkpt><trkpt lat="41.382218578329685" lon="14.367953249609002"><ele>620.0</ele><time>2026-04-04T08:50:16Z</time></trkpt><trkpt lat="41.38218298174158" lon="14.367826007126343"><ele>615.6666666666666</ele><time>2026-04-04T08:50:17Z</time></trkpt><trkpt lat="41.38215250995636" lon="14.367700355074444"><ele>611.3333333333333</ele><time>2026-04-04T08:50:18Z</time></trkpt><trkpt lat="41.38213146623673" lon="14.367577235588836"><ele>607.0</ele><time>2026-04-04T08:50:19Z</time></trkpt><trkpt lat="41.38211780938673" lon="14.367457942985517"><ele>602.6666666666666</ele><time>2026-04-04T08:50:20Z</time></trkpt><trkpt lat="41.38210703654493" lon="14.367354254549737"><ele>598.3333333333334</ele><time>2026-04-04T08:50:21Z</time></trkpt><trkpt lat="41.382099626440805" lon="14.367269203250569"><ele>594.0</ele><time>2026-04-04T08:50:22Z</time></trkpt><trkpt lat="41.38209075586416" lon="14.36711828067099"><ele>593.5</ele><time>2026-04-04T08:50:24Z</time></trkpt><trkpt lat="41.38212826584322" lon="14.36697575160514"><ele>593.0</ele><time>2026-04-04T08:50:26Z</time></trkpt><trkpt lat="41.38219040190481" lon="14.366919506064438"><ele>592.5</ele><time>2026-04-04T08:50:27Z</time></trkpt><trkpt lat="41.382273971880146" lon="14.366909960457987"><ele>592.0</ele><time>2026-04-04T08:50:28Z</time></trkpt><trkpt lat="41.3823464987947" lon="14.366895510118917"><ele>591.5</ele><time>2026-04-04T08:50:29Z</time></trkpt><trkpt lat="41.382422572994116" lon="14.366871215546531"><ele>591.0</ele><time>2026-04-04T08:50:31Z</time></trkpt><trkpt lat="41.38249124713946" lon="14.366865765161704"><ele>595.0</ele><time>2026-04-04T08:50:43Z</time></trkpt><trkpt lat="41.38256248004757" lon="14.36684815635655"><ele>599.0</ele><time>2026-04-04T08:50:47Z</time></trkpt><trkpt lat="41.382662277231695" lon="14.3669161894077"><ele>603.0</ele><time>2026-04-04T08:50:49Z</time></trkpt><trkpt lat="41.38272306263017" lon="14.366970251955593"><ele>607.0</ele><time>2026-04-04T08:50:50Z</time></trkpt><trkpt lat="41.38280699755481" lon="14.36702216895113"><ele>611.0</ele><time>2026-04-04T08:50:52Z</time></trkpt><trkpt lat="41.383056893900054" lon="14.36712193591544"><ele>616.25</ele><time>2026-04-04T08:50:57Z</time></trkpt><trkpt lat="41.38312965976545" lon="14.367108675507572"><ele>621.5</ele><time>2026-04-04T08:50:59Z</time></trkpt><trkpt lat="41.38322976724335" lon="14.366955794250478"><ele>626.75</ele><time>2026-04-04T08:51:01Z</time></trkpt><trkpt lat="41.383216793785046" lon="14.366808296536641"><ele>632.0</ele><time>2026-04-04T08:51:02Z</time></trkpt><trkpt lat="41.383092717066276" lon="14.366756826844139"><ele>632.0</ele><time>2026-04-04T08:51:03Z</time></trkpt><trkpt lat="41.3830160284501" lon="14.366707802438931"><ele>632.0</ele><time>2026-04-04T08:51:04Z</time></trkpt><trkpt lat="41.382936611586125" lon="14.366608809232288"><ele>632.0</ele><time>2026-04-04T08:51:05Z</time></trkpt><trkpt lat="41.38288220011506" lon="14.366459241536873"><ele>632.0</ele><time>2026-04-04T08:51:06Z</time></trkpt><trkpt lat="41.382846345837685" lon="14.366279667075485"><ele>630.25</ele><time>2026-04-04T08:51:07Z</time></trkpt><trkpt lat="41.38274104662231" lon="14.36615527265899"><ele>628.5</ele><time>2026-04-04T08:51:08Z</time></trkpt><trkpt lat="41.38259762628454" lon="14.366083410386159"><ele>626.75</ele><time>2026-04-04T08:51:09Z</time></trkpt><trkpt lat="41.38247336825412" lon="14.366045735529644"><ele>625.0</ele><time>2026-04-04T08:51:10Z</time></trkpt><trkpt lat="41.38238498692749" lon="14.365974212622337"><ele>625.0</ele><time>2026-04-04T08:51:11Z</time></trkpt><trkpt lat="41.38232920265896" lon="14.36585775221372"><ele>625.0</ele><time>2026-04-04T08:51:12Z</time></trkpt><trkpt lat="41.3822285989615" lon="14.365740067556853"><ele>625.0</ele><time>2026-04-04T08:51:13Z</time></trkpt><trkpt lat="41.38214204431872" lon="14.365638084901962"><ele>625.0</ele><time>2026-04-04T08:51:14Z</time></trkpt><trkpt lat="41.3820933079801" lon="14.365526823966741"><ele>614.25</ele><time>2026-04-04T08:51:15Z</time></trkpt><trkpt lat="41.38206234002595" lon="14.365391092346721"><ele>603.5</ele><time>2026-04-04T08:51:16Z</time></trkpt><trkpt lat="41.382024664365275" lon="14.365221162638091"><ele>592.75</ele><time>2026-04-04T08:51:17Z</time></trkpt><trkpt lat="41.381990988252625" lon="14.36504179023911"><ele>582.0</ele><time>2026-04-04T08:51:18Z</time></trkpt><trkpt lat="41.38196720992103" lon="14.364869337369141"><ele>582.0</ele><time>2026-04-04T08:51:19Z</time></trkpt><trkpt lat="41.38197020992238" lon="14.364723957386593"><ele>582.0</ele><time>2026-04-04T08:51:20Z</time></trkpt><trkpt lat="41.38198539882663" lon="14.36456412595884"><ele>582.0</ele><time>2026-04-04T08:51:21Z</time></trkpt><trkpt lat="41.38202697597394" lon="14.364417330843398"><ele>582.0</ele><time>2026-04-04T08:51:22Z</time></trkpt><trkpt lat="41.38209352535791" lon="14.364257421353432"><ele>581.75</ele><time>2026-04-04T08:51:23Z</time></trkpt><trkpt lat="41.3821650871619" lon="14.364076570471378"><ele>581.5</ele><time>2026-04-04T08:51:24Z</time></trkpt><trkpt lat="41.38223053333713" lon="14.36390800665148"><ele>581.25</ele><time>2026-04-04T08:51:25Z</time></trkpt><trkpt lat="41.38229353876509" lon="14.363747623593614"><ele>581.0</ele><time>2026-04-04T08:51:26Z</time></trkpt><trkpt lat="41.38234967502021" lon="14.363599147849897"><ele>590.5</ele><time>2026-04-04T08:51:27Z</time></trkpt><trkpt lat="41.382395837719855" lon="14.363446933106347"><ele>600.0</ele><time>2026-04-04T08:51:28Z</time></trkpt><trkpt lat="41.382395839348554" lon="14.363265330078821"><ele>609.5</ele><time>2026-04-04T08:51:29Z</time></trkpt><trkpt lat="41.382340642835125" lon="14.363097428392217"><ele>619.0</ele><time>2026-04-04T08:51:30Z</time></trkpt><trkpt lat="41.38224013400512" lon="14.362951822544545"><ele>609.3333333333334</ele><time>2026-04-04T08:51:31Z</time></trkpt><trkpt lat="41.382127334372015" lon="14.362819942393214"><ele>599.6666666666666</ele><time>2026-04-04T08:51:32Z</time></trkpt><trkpt lat="41.38200744113133" lon="14.362695465089255"><ele>590.0</ele><time>2026-04-04T08:51:33Z</time></trkpt><trkpt lat="41.38188599171146" lon="14.3625657701441"><ele>590.0</ele><time>2026-04-04T08:51:34Z</time></trkpt><trkpt lat="41.38176626671269" lon="14.362436347139772"><ele>590.0</ele><time>2026-04-04T08:51:35Z</time></trkpt><trkpt lat="41.38165473824146" lon="14.36231888908145"><ele>590.0</ele><time>2026-04-04T08:51:36Z</time></trkpt><trkpt lat="41.3815349022363" lon="14.36221920406259"><ele>590.0</ele><time>2026-04-04T08:51:37Z</time></trkpt><trkpt lat="41.3813989572877" lon="14.362186298293746"><ele>592.6666666666666</ele><time>2026-04-04T08:51:38Z</time></trkpt><trkpt lat="41.38126215606283" lon="14.362197147432171"><ele>595.3333333333334</ele><time>2026-04-04T08:51:39Z</time></trkpt><trkpt lat="41.38111594259534" lon="14.362252964547467"><ele>598.0</ele><time>2026-04-04T08:51:40Z</time></trkpt><trkpt lat="41.38096136875193" lon="14.362313848116475"><ele>593.5</ele><time>2026-04-04T08:51:41Z</time></trkpt><trkpt lat="41.38081387196007" lon="14.362362387678155"><ele>589.0</ele><time>2026-04-04T08:51:42Z</time></trkpt><trkpt lat="41.38068882248808" lon="14.362390428458152"><ele>584.5</ele><time>2026-04-04T08:51:43Z</time></trkpt><trkpt lat="41.38059296983793" lon="14.36239586227198"><ele>580.0</ele><time>2026-04-04T08:51:44Z</time></trkpt><trkpt lat="41.38050359244618" lon="14.362310019341418"><ele>580.25</ele><time>2026-04-04T08:51:45Z</time></trkpt><trkpt lat="41.38042492035393" lon="14.36219088775276"><ele>580.5</ele><time>2026-04-04T08:51:46Z</time></trkpt><trkpt lat="41.38034253034863" lon="14.362057049423898"><ele>580.75</ele><time>2026-04-04T08:51:47Z</time></trkpt><trkpt lat="41.380257742713816" lon="14.361901101208947"><ele>581.0</ele><time>2026-04-04T08:51:48Z</time></trkpt><trkpt lat="41.38021056138743" lon="14.361738130359738"><ele>581.0</ele><time>2026-04-04T08:51:49Z</time></trkpt><trkpt lat="41.38017074195641" lon="14.361588716135131"><ele>581.0</ele><time>2026-04-04T08:51:50Z</time></trkpt><trkpt lat="41.38011948498207" lon="14.361498661457604"><ele>581.0</ele><time>2026-04-04T08:51:51Z</time></trkpt><trkpt lat="41.38006210242939" lon="14.361423125600734"><ele>581.0</ele><time>2026-04-04T08:51:52Z</time></trkpt><trkpt lat="41.37995520822005" lon="14.361478571815773"><ele>581.0</ele><time>2026-04-04T08:51:53Z</time></trkpt><trkpt lat="41.37988700672325" lon="14.361578937356107"><ele>581.0</ele><time>2026-04-04T08:51:54Z</time></trkpt><trkpt lat="41.37988035035477" lon="14.361702795777946"><ele>581.0</ele><time>2026-04-04T08:51:55Z</time></trkpt><trkpt lat="41.37992647821205" lon="14.361811960955562"><ele>581.0</ele><time>2026-04-04T08:51:56Z</time></trkpt><trkpt lat="41.37999823536067" lon="14.361901563598982"><ele>581.0</ele><time>2026-04-04T08:51:57Z</time></trkpt><trkpt lat="41.38007536766267" lon="14.361984079646"><ele>581.0</ele><time>2026-04-04T08:51:58Z</time></trkpt><trkpt lat="41.3801440840738" lon="14.362077453060884"><ele>581.0</ele><time>2026-04-04T08:51:59Z</time></trkpt><trkpt lat="41.380200212788125" lon="14.362181143944735"><ele>581.0</ele><time>2026-04-04T08:52:00Z</time></trkpt><trkpt lat="41.380255796025054" lon="14.362291214397976"><ele>581.0</ele><time>2026-04-04T08:52:01Z</time></trkpt><trkpt lat="41.38031748682718" lon="14.362402663669902"><ele>581.0</ele><time>2026-04-04T08:52:02Z</time></trkpt><trkpt lat="41.38038336314562" lon="14.362502949334285"><ele>581.0</ele><time>2026-04-04T08:52:03Z</time></trkpt><trkpt lat="41.38045385848752" lon="14.36260609217442"><ele>580.8</ele><time>2026-04-04T08:52:04Z</time></trkpt><trkpt lat="41.38052359570297" lon="14.362700961218955"><ele>580.6</ele><time>2026-04-04T08:52:05Z</time></trkpt><trkpt lat="41.38059880235385" lon="14.362784831341246"><ele>580.4</ele><time>2026-04-04T08:52:06Z</time></trkpt><trkpt lat="41.380687011865746" lon="14.362839433201641"><ele>580.2</ele><time>2026-04-04T08:52:07Z</time></trkpt><trkpt lat="41.380785975320514" lon="14.362861372688085"><ele>580.0</ele><time>2026-04-04T08:52:08Z</time></trkpt><trkpt lat="41.38088968785521" lon="14.362878224460859"><ele>580.0</ele><time>2026-04-04T08:52:09Z</time></trkpt><trkpt lat="41.38097704969938" lon="14.362931020330432"><ele>580.0</ele><time>2026-04-04T08:52:10Z</time></trkpt><trkpt lat="41.38104748334158" lon="14.36302952618762"><ele>580.0</ele><time>2026-04-04T08:52:11Z</time></trkpt><trkpt lat="41.381058575852556" lon="14.363167341272513"><ele>580.0</ele><time>2026-04-04T08:52:12Z</time></trkpt><trkpt lat="41.38107759437828" lon="14.3633157397619"><ele>580.0</ele><time>2026-04-04T08:52:13Z</time></trkpt><trkpt lat="41.3810724068309" lon="14.363475594933126"><ele>576.0</ele><time>2026-04-04T08:52:14Z</time></trkpt><trkpt lat="41.38106365757737" lon="14.363638818516606"><ele>572.0</ele><time>2026-04-04T08:52:15Z</time></trkpt><trkpt lat="41.38104640904813" lon="14.363794127610086"><ele>568.0</ele><time>2026-04-04T08:52:16Z</time></trkpt><trkpt lat="41.3810415466812" lon="14.363950432358779"><ele>564.0</ele><time>2026-04-04T08:52:17Z</time></trkpt><trkpt lat="41.38107470187606" lon="14.364111316241617"><ele>562.25</ele><time>2026-04-04T08:52:18Z</time></trkpt><trkpt lat="41.381151427965094" lon="14.364266166890815"><ele>560.5</ele><time>2026-04-04T08:52:19Z</time></trkpt><trkpt lat="41.381243510374404" lon="14.364418768228912"><ele>558.75</ele><time>2026-04-04T08:52:20Z</time></trkpt><trkpt lat="41.38132720223149" lon="14.364560637469921"><ele>557.0</ele><time>2026-04-04T08:52:21Z</time></trkpt><trkpt lat="41.38140435124165" lon="14.3646937070051"><ele>563.25</ele><time>2026-04-04T08:52:22Z</time></trkpt><trkpt lat="41.38146518152797" lon="14.364831866538372"><ele>569.5</ele><time>2026-04-04T08:52:23Z</time></trkpt><trkpt lat="41.38149870300724" lon="14.364983474044504"><ele>575.75</ele><time>2026-04-04T08:52:24Z</time></trkpt><trkpt lat="41.38146739815187" lon="14.365134055151945"><ele>582.0</ele><time>2026-04-04T08:52:25Z</time></trkpt><trkpt lat="41.381432354486385" lon="14.365304801993911"><ele>582.0</ele><time>2026-04-04T08:52:26Z</time></trkpt><trkpt lat="41.381374219319575" lon="14.365466592954757"><ele>582.0</ele><time>2026-04-04T08:52:27Z</time></trkpt><trkpt lat="41.381323306015226" lon="14.365603136203617"><ele>582.0</ele><time>2026-04-04T08:52:28Z</time></trkpt><trkpt lat="41.381258704265065" lon="14.365715095598963"><ele>582.0</ele><time>2026-04-04T08:52:29Z</time></trkpt><trkpt lat="41.38116817331897" lon="14.365785338517748"><ele>576.5</ele><time>2026-04-04T08:52:30Z</time></trkpt><trkpt lat="41.381053236108855" lon="14.365818808562551"><ele>571.0</ele><time>2026-04-04T08:52:31Z</time></trkpt><trkpt lat="41.380933827517104" lon="14.365826624132522"><ele>565.5</ele><time>2026-04-04T08:52:32Z</time></trkpt><trkpt lat="41.38080772542282" lon="14.36583652426989"><ele>560.0</ele><time>2026-04-04T08:52:33Z</time></trkpt><trkpt lat="41.38068604836997" lon="14.365851894713142"><ele>560.0</ele><time>2026-04-04T08:52:34Z</time></trkpt><trkpt lat="41.38056877468189" lon="14.365832984194961"><ele>560.0</ele><time>2026-04-04T08:52:35Z</time></trkpt><trkpt lat="41.38045744548879" lon="14.365736655667408"><ele>560.0</ele><time>2026-04-04T08:52:36Z</time></trkpt><trkpt lat="41.38033507055205" lon="14.365668141790866"><ele>560.0</ele><time>2026-04-04T08:52:37Z</time></trkpt><trkpt lat="41.38023089383031" lon="14.365600565018221"><ele>559.25</ele><time>2026-04-04T08:52:38Z</time></trkpt><trkpt lat="41.38012011429069" lon="14.365577978105293"><ele>558.5</ele><time>2026-04-04T08:52:39Z</time></trkpt><trkpt lat="41.37998956918705" lon="14.365603828378287"><ele>557.75</ele><time>2026-04-04T08:52:40Z</time></trkpt><trkpt lat="41.37985332657866" lon="14.365652661492856"><ele>557.0</ele><time>2026-04-04T08:52:41Z</time></trkpt><trkpt lat="41.37970904455061" lon="14.365698647243818"><ele>556.25</ele><time>2026-04-04T08:52:42Z</time></trkpt><trkpt lat="41.37956017467192" lon="14.365717922539552"><ele>555.5</ele><time>2026-04-04T08:52:43Z</time></trkpt><trkpt lat="41.37941878395705" lon="14.365695892042405"><ele>554.75</ele><time>2026-04-04T08:52:44Z</time></trkpt><trkpt lat="41.37929003217978" lon="14.365684730542652"><ele>554.0</ele><time>2026-04-04T08:52:45Z</time></trkpt><trkpt lat="41.37916888193485" lon="14.365729320936957"><ele>554.0</ele><time>2026-04-04T08:52:46Z</time></trkpt><trkpt lat="41.37906023581126" lon="14.365825211190163"><ele>554.0</ele><time>2026-04-04T08:52:47Z</time></trkpt><trkpt lat="41.378956811207225" lon="14.36592505520374"><ele>554.0</ele><time>2026-04-04T08:52:48Z</time></trkpt><trkpt lat="41.37884757399056" lon="14.365971743896251"><ele>554.0</ele><time>2026-04-04T08:52:49Z</time></trkpt><trkpt lat="41.37872819513103" lon="14.365955979535546"><ele>553.0</ele><time>2026-04-04T08:52:50Z</time></trkpt><trkpt lat="41.37860799820416" lon="14.365888409507894"><ele>552.0</ele><time>2026-04-04T08:52:51Z</time></trkpt><trkpt lat="41.378494093517084" lon="14.36581946849827"><ele>551.0</ele><time>2026-04-04T08:52:52Z</time></trkpt><trkpt lat="41.37838277451127" lon="14.365799887332459"><ele>550.0</ele><time>2026-04-04T08:52:53Z</time></trkpt><trkpt lat="41.37828126651407" lon="14.365838454505964"><ele>550.0</ele><time>2026-04-04T08:52:54Z</time></trkpt><trkpt lat="41.37820969524534" lon="14.365926444803334"><ele>550.0</ele><time>2026-04-04T08:52:55Z</time></trkpt><trkpt lat="41.37817187606833" lon="14.366062993567573"><ele>550.0</ele><time>2026-04-04T08:52:56Z</time></trkpt><trkpt lat="41.37815081007542" lon="14.366227700862193"><ele>550.0</ele><time>2026-04-04T08:52:57Z</time></trkpt><trkpt lat="41.3781318448959" lon="14.366381063751568"><ele>550.0</ele><time>2026-04-04T08:52:58Z</time></trkpt><trkpt lat="41.378090611994196" lon="14.366508960141381"><ele>549.5</ele><time>2026-04-04T08:52:59Z</time></trkpt><trkpt lat="41.37801213135545" lon="14.36659370370353"><ele>549.0</ele><time>2026-04-04T08:53:00Z</time></trkpt><trkpt lat="41.37790480338534" lon="14.366647335508443"><ele>548.5</ele><time>2026-04-04T08:53:01Z</time></trkpt><trkpt lat="41.377789301222386" lon="14.366678916004707"><ele>548.0</ele><time>2026-04-04T08:53:02Z</time></trkpt><trkpt lat="41.377663352051954" lon="14.366700076992274"><ele>548.0</ele><time>2026-04-04T08:53:03Z</time></trkpt><trkpt lat="41.377535284391136" lon="14.366707597657589"><ele>548.0</ele><time>2026-04-04T08:53:04Z</time></trkpt><trkpt lat="41.37739975399804" lon="14.366685601245901"><ele>548.0</ele><time>2026-04-04T08:53:05Z</time></trkpt><trkpt lat="41.37726349532537" lon="14.366631845917217"><ele>548.0</ele><time>2026-04-04T08:53:06Z</time></trkpt><trkpt lat="41.37714236019858" lon="14.366567934310368"><ele>546.75</ele><time>2026-04-04T08:53:07Z</time></trkpt><trkpt lat="41.377028150575434" lon="14.366508058802015"><ele>545.5</ele><time>2026-04-04T08:53:08Z</time></trkpt><trkpt lat="41.37691495509761" lon="14.366482733613923"><ele>544.25</ele><time>2026-04-04T08:53:09Z</time></trkpt><trkpt lat="41.37680478243463" lon="14.366498169385558"><ele>543.0</ele><time>2026-04-04T08:53:10Z</time></trkpt><trkpt lat="41.376702847524115" lon="14.36654830161272"><ele>543.0</ele><time>2026-04-04T08:53:11Z</time></trkpt><trkpt lat="41.37660783283716" lon="14.366648252492245"><ele>543.0</ele><time>2026-04-04T08:53:12Z</time></trkpt><trkpt lat="41.37651780175259" lon="14.366761525624883"><ele>543.0</ele><time>2026-04-04T08:53:13Z</time></trkpt><trkpt lat="41.37641949758388" lon="14.366870952301985"><ele>543.0</ele><time>2026-04-04T08:53:14Z</time></trkpt><trkpt lat="41.376307606355" lon="14.366958972573865"><ele>542.5</ele><time>2026-04-04T08:53:15Z</time></trkpt><trkpt lat="41.376190100881885" lon="14.36701817157473"><ele>542.0</ele><time>2026-04-04T08:53:16Z</time></trkpt><trkpt lat="41.376075471405194" lon="14.367057219990778"><ele>541.5</ele><time>2026-04-04T08:53:17Z</time></trkpt><trkpt lat="41.37597380012984" lon="14.367109931585958"><ele>541.0</ele><time>2026-04-04T08:53:18Z</time></trkpt><trkpt lat="41.37588763563319" lon="14.367211562228569"><ele>541.0</ele><time>2026-04-04T08:53:19Z</time></trkpt><trkpt lat="41.37581408930052" lon="14.367354520343067"><ele>541.0</ele><time>2026-04-04T08:53:20Z</time></trkpt><trkpt lat="41.37574527806909" lon="14.367509693201038"><ele>541.0</ele><time>2026-04-04T08:53:21Z</time></trkpt><trkpt lat="41.37567315294745" lon="14.367669260650477"><ele>541.0</ele><time>2026-04-04T08:53:22Z</time></trkpt><trkpt lat="41.37559520402271" lon="14.367827936083394"><ele>539.5</ele><time>2026-04-04T08:53:23Z</time></trkpt><trkpt lat="41.37551457274898" lon="14.367987219393846"><ele>538.0</ele><time>2026-04-04T08:53:24Z</time></trkpt><trkpt lat="41.375417421079874" lon="14.368131896665851"><ele>536.5</ele><time>2026-04-04T08:53:25Z</time></trkpt><trkpt lat="41.375292016800465" lon="14.368253323704977"><ele>535.0</ele><time>2026-04-04T08:53:26Z</time></trkpt><trkpt lat="41.375150943544014" lon="14.368352705101163"><ele>535.0</ele><time>2026-04-04T08:53:27Z</time></trkpt><trkpt lat="41.37502191965891" lon="14.368445008224834"><ele>535.0</ele><time>2026-04-04T08:53:28Z</time></trkpt><trkpt lat="41.37490894231701" lon="14.368552384970114"><ele>535.0</ele><time>2026-04-04T08:53:29Z</time></trkpt><trkpt lat="41.37481428031718" lon="14.368691709455481"><ele>535.0</ele><time>2026-04-04T08:53:30Z</time></trkpt><trkpt lat="41.37473063929201" lon="14.36886343176029"><ele>533.25</ele><time>2026-04-04T08:53:31Z</time></trkpt><trkpt lat="41.37465274102537" lon="14.36903840832693"><ele>531.5</ele><time>2026-04-04T08:53:32Z</time></trkpt><trkpt lat="41.37456549315157" lon="14.369202013542289"><ele>529.75</ele><time>2026-04-04T08:53:33Z</time></trkpt><trkpt lat="41.37446945157965" lon="14.369341592047734"><ele>528.0</ele><time>2026-04-04T08:53:34Z</time></trkpt><trkpt lat="41.374365041392664" lon="14.369483004435635"><ele>528.0</ele><time>2026-04-04T08:53:35Z</time></trkpt><trkpt lat="41.374256130333485" lon="14.36963413328845"><ele>528.0</ele><time>2026-04-04T08:53:36Z</time></trkpt><trkpt lat="41.37414414457015" lon="14.369793682035368"><ele>528.0</ele><time>2026-04-04T08:53:37Z</time></trkpt><trkpt lat="41.37403110290232" lon="14.369956244586781"><ele>527.6666666666666</ele><time>2026-04-04T08:53:38Z</time></trkpt><trkpt lat="41.373921042303564" lon="14.370112625695839"><ele>527.3333333333333</ele><time>2026-04-04T08:53:39Z</time></trkpt><trkpt lat="41.37381429016451" lon="14.370255309760601"><ele>527.0</ele><time>2026-04-04T08:53:40Z</time></trkpt><trkpt lat="41.37370810551198" lon="14.370398604930966"><ele>524.3333333333333</ele><time>2026-04-04T08:53:41Z</time></trkpt><trkpt lat="41.37359781859769" lon="14.370554013059184"><ele>521.6666666666666</ele><time>2026-04-04T08:53:42Z</time></trkpt><trkpt lat="41.37348465839401" lon="14.370706051674967"><ele>519.0</ele><time>2026-04-04T08:53:43Z</time></trkpt><trkpt lat="41.373377310813105" lon="14.370859544032621"><ele>519.0</ele><time>2026-04-04T08:53:44Z</time></trkpt><trkpt lat="41.37327826100888" lon="14.371021505911896"><ele>519.0</ele><time>2026-04-04T08:53:45Z</time></trkpt><trkpt lat="41.37319276319859" lon="14.371198474818865"><ele>519.0</ele><time>2026-04-04T08:53:46Z</time></trkpt><trkpt lat="41.37311838981512" lon="14.371388153662354"><ele>519.0</ele><time>2026-04-04T08:53:47Z</time></trkpt><trkpt lat="41.37303989423998" lon="14.371577623736522"><ele>519.0</ele><time>2026-04-04T08:53:48Z</time></trkpt><trkpt lat="41.372942133309685" lon="14.37174605013956"><ele>519.0</ele><time>2026-04-04T08:53:49Z</time></trkpt><trkpt lat="41.37282147753122" lon="14.371901038562232"><ele>519.0</ele><time>2026-04-04T08:53:50Z</time></trkpt><trkpt lat="41.37271554817018" lon="14.372056658488638"><ele>519.0</ele><time>2026-04-04T08:53:51Z</time></trkpt><trkpt lat="41.37263465665512" lon="14.372234474033649"><ele>519.0</ele><time>2026-04-04T08:53:52Z</time></trkpt><trkpt lat="41.372555877083556" lon="14.372430396809179"><ele>519.0</ele><time>2026-04-04T08:53:53Z</time></trkpt><trkpt lat="41.37247998191306" lon="14.372609375831237"><ele>519.0</ele><time>2026-04-04T08:53:54.001Z</time></trkpt><trkpt lat="41.372402351563714" lon="14.372783089482061"><ele>519.0</ele><time>2026-04-04T08:53:55.001Z</time></trkpt><trkpt lat="41.372336020507504" lon="14.372949238546834"><ele>519.0</ele><time>2026-04-04T08:53:56.001Z</time></trkpt><trkpt lat="41.37227163322118" lon="14.373101816219632"><ele>516.5</ele><time>2026-04-04T08:53:57.001Z</time></trkpt><trkpt lat="41.37221381252053" lon="14.373251789347671"><ele>514.0</ele><time>2026-04-04T08:53:58.001Z</time></trkpt><trkpt lat="41.37215483897566" lon="14.373394908968878"><ele>511.5</ele><time>2026-04-04T08:53:59.001Z</time></trkpt><trkpt lat="41.37209828715006" lon="14.37353130584977"><ele>509.0</ele><time>2026-04-04T08:54:00.001Z</time></trkpt><trkpt lat="41.37204759823487" lon="14.373663700064286"><ele>511.4</ele><time>2026-04-04T08:54:01.001Z</time></trkpt><trkpt lat="41.372004659358964" lon="14.373794869354724"><ele>513.8</ele><time>2026-04-04T08:54:02.001Z</time></trkpt><trkpt lat="41.37197116261694" lon="14.373924120511472"><ele>516.2</ele><time>2026-04-04T08:54:03.001Z</time></trkpt><trkpt lat="41.371942092703726" lon="14.374045478048197"><ele>518.6</ele><time>2026-04-04T08:54:04.001Z</time></trkpt><trkpt lat="41.37189821589514" lon="14.374199678774373"><ele>521.0</ele><time>2026-04-04T08:54:05.001Z</time></trkpt><trkpt lat="41.371865601083876" lon="14.374330321075067"><ele>521.0</ele><time>2026-04-04T08:54:06.001Z</time></trkpt><trkpt lat="41.37182739887071" lon="14.374450667029805"><ele>521.0</ele><time>2026-04-04T08:54:07.001Z</time></trkpt><trkpt lat="41.37178965879287" lon="14.374567066492633"><ele>521.0</ele><time>2026-04-04T08:54:08.001Z</time></trkpt><trkpt lat="41.37178852866697" lon="14.374679403596623"><ele>521.0</ele><time>2026-04-04T08:54:09.001Z</time></trkpt><trkpt lat="41.371840684647026" lon="14.374799430547597"><ele>521.0</ele><time>2026-04-04T08:54:10.001Z</time></trkpt><trkpt lat="41.37189919536577" lon="14.374920981265488"><ele>518.25</ele><time>2026-04-04T08:54:11.001Z</time></trkpt><trkpt lat="41.37196908974364" lon="14.375047922720443"><ele>515.5</ele><time>2026-04-04T08:54:12.001Z</time></trkpt><trkpt lat="41.37204431746013" lon="14.37517773902305"><ele>512.75</ele><time>2026-04-04T08:54:13.001Z</time></trkpt><trkpt lat="41.37211964017241" lon="14.37529405545413"><ele>510.0</ele><time>2026-04-04T08:54:14.001Z</time></trkpt><trkpt lat="41.37218507994149" lon="14.375416972173943"><ele>508.6</ele><time>2026-04-04T08:54:15.001Z</time></trkpt><trkpt lat="41.37223801727259" lon="14.375529906327703"><ele>507.2</ele><time>2026-04-04T08:54:16.001Z</time></trkpt><trkpt lat="41.37224869350736" lon="14.375625748950693"><ele>505.79999999999995</ele><time>2026-04-04T08:54:17.001Z</time></trkpt><trkpt lat="41.37221450722185" lon="14.375733157954977"><ele>504.4</ele><time>2026-04-04T08:54:18.001Z</time></trkpt><trkpt lat="41.372132582949" lon="14.37579519485696"><ele>503.0</ele><time>2026-04-04T08:54:19.001Z</time></trkpt><trkpt lat="41.37203693267988" lon="14.375768183890417"><ele>503.0</ele><time>2026-04-04T08:54:20.001Z</time></trkpt><trkpt lat="41.37195149906368" lon="14.375710279276047"><ele>503.0</ele><time>2026-04-04T08:54:21.001Z</time></trkpt><trkpt lat="41.37185478055114" lon="14.37563957264667"><ele>503.0</ele><time>2026-04-04T08:54:22.001Z</time></trkpt><trkpt lat="41.37174031571935" lon="14.375578933951275"><ele>503.0</ele><time>2026-04-04T08:54:23.001Z</time></trkpt><trkpt lat="41.37163926381046" lon="14.375478088645291"><ele>502.25</ele><time>2026-04-04T08:54:24.001Z</time></trkpt><trkpt lat="41.371535325721965" lon="14.375368456094156"><ele>501.5</ele><time>2026-04-04T08:54:25.001Z</time></trkpt><trkpt lat="41.37144087409831" lon="14.37524483988918"><ele>500.75</ele><time>2026-04-04T08:54:26.001Z</time></trkpt><trkpt lat="41.37134683008187" lon="14.37513247798417"><ele>500.0</ele><time>2026-04-04T08:54:27Z</time></trkpt><trkpt lat="41.37123549498538" lon="14.375068022701633"><ele>500.0</ele><time>2026-04-04T08:54:28Z</time></trkpt><trkpt lat="41.37110157092066" lon="14.37504101007969"><ele>500.0</ele><time>2026-04-04T08:54:29Z</time></trkpt><trkpt lat="41.37096619483802" lon="14.375022917197626"><ele>500.0</ele><time>2026-04-04T08:54:30Z</time></trkpt><trkpt lat="41.370832904485425" lon="14.374976404497477"><ele>500.0</ele><time>2026-04-04T08:54:31Z</time></trkpt><trkpt lat="41.37070557185685" lon="14.374903515799778"><ele>500.0</ele><time>2026-04-04T08:54:32Z</time></trkpt><trkpt lat="41.37057896478203" lon="14.37482774092663"><ele>500.0</ele><time>2026-04-04T08:54:33Z</time></trkpt><trkpt lat="41.37045448921855" lon="14.374755401547551"><ele>500.0</ele><time>2026-04-04T08:54:34Z</time></trkpt><trkpt lat="41.37033212390286" lon="14.37467792802688"><ele>500.0</ele><time>2026-04-04T08:54:35Z</time></trkpt><trkpt lat="41.37022296553093" lon="14.374598493364843"><ele>498.5</ele><time>2026-04-04T08:54:36Z</time></trkpt><trkpt lat="41.37011888620872" lon="14.374505575079793"><ele>497.0</ele><time>2026-04-04T08:54:37Z</time></trkpt><trkpt lat="41.37002511225257" lon="14.374383492585178"><ele>495.5</ele><time>2026-04-04T08:54:38Z</time></trkpt><trkpt lat="41.369939544953844" lon="14.37426964843955"><ele>494.0</ele><time>2026-04-04T08:54:39Z</time></trkpt><trkpt lat="41.36990534212616" lon="14.374151365012107"><ele>494.0</ele><time>2026-04-04T08:54:40Z</time></trkpt><trkpt lat="41.369895657901495" lon="14.374001113800968"><ele>494.0</ele><time>2026-04-04T08:54:41Z</time></trkpt><trkpt lat="41.36986769873522" lon="14.373831600229009"><ele>494.0</ele><time>2026-04-04T08:54:42Z</time></trkpt><trkpt lat="41.36985952023989" lon="14.373651819714075"><ele>494.0</ele><time>2026-04-04T08:54:43Z</time></trkpt><trkpt lat="41.36984533335106" lon="14.373467495087292"><ele>494.5</ele><time>2026-04-04T08:54:44Z</time></trkpt><trkpt lat="41.36982736098888" lon="14.3732908610052"><ele>495.0</ele><time>2026-04-04T08:54:45Z</time></trkpt><trkpt lat="41.369812406527906" lon="14.373119899165202"><ele>495.5</ele><time>2026-04-04T08:54:46Z</time></trkpt><trkpt lat="41.369803464923656" lon="14.372955093937735"><ele>496.0</ele><time>2026-04-04T08:54:47Z</time></trkpt><trkpt lat="41.36979038805465" lon="14.37279449011235"><ele>495.20000000000005</ele><time>2026-04-04T08:54:48Z</time></trkpt><trkpt lat="41.36977194559869" lon="14.372664082436783"><ele>494.40000000000003</ele><time>2026-04-04T08:54:49Z</time></trkpt><trkpt lat="41.369741537722525" lon="14.372548954129993"><ele>493.6</ele><time>2026-04-04T08:54:50Z</time></trkpt><trkpt lat="41.369681674561924" lon="14.37245097285433"><ele>492.8</ele><time>2026-04-04T08:54:51Z</time></trkpt><trkpt lat="41.36959094780776" lon="14.372394179228824"><ele>492.0</ele><time>2026-04-04T08:54:52Z</time></trkpt><trkpt lat="41.36948811814095" lon="14.372390983576631"><ele>489.5</ele><time>2026-04-04T08:54:53Z</time></trkpt><trkpt lat="41.36939064640748" lon="14.372450491265623"><ele>487.0</ele><time>2026-04-04T08:54:54Z</time></trkpt><trkpt lat="41.36931657469684" lon="14.372565440867218"><ele>484.5</ele><time>2026-04-04T08:54:55Z</time></trkpt><trkpt lat="41.36927365350929" lon="14.372710719185257"><ele>482.0</ele><time>2026-04-04T08:54:56Z</time></trkpt><trkpt lat="41.36924421316756" lon="14.372871112640238"><ele>482.0</ele><time>2026-04-04T08:54:57Z</time></trkpt><trkpt lat="41.36920368401932" lon="14.373035001872376"><ele>482.0</ele><time>2026-04-04T08:54:58Z</time></trkpt><trkpt lat="41.36915568376099" lon="14.373201441597269"><ele>482.0</ele><time>2026-04-04T08:54:59Z</time></trkpt><trkpt lat="41.369102265637096" lon="14.373381131642821"><ele>482.0</ele><time>2026-04-04T08:55:00Z</time></trkpt><trkpt lat="41.369047862194556" lon="14.373570754673281"><ele>482.0</ele><time>2026-04-04T08:55:01Z</time></trkpt><trkpt lat="41.36899705037549" lon="14.37375426415682"><ele>482.0</ele><time>2026-04-04T08:55:02Z</time></trkpt><trkpt lat="41.368949077426905" lon="14.373930523952408"><ele>482.0</ele><time>2026-04-04T08:55:03Z</time></trkpt><trkpt lat="41.36890740481888" lon="14.374095142001426"><ele>482.0</ele><time>2026-04-04T08:55:04Z</time></trkpt><trkpt lat="41.36888493798994" lon="14.374228842678571"><ele>481.8</ele><time>2026-04-04T08:55:05Z</time></trkpt><trkpt lat="41.36888114501997" lon="14.374345650912"><ele>481.6</ele><time>2026-04-04T08:55:06Z</time></trkpt><trkpt lat="41.368890754372885" lon="14.3744673871467"><ele>481.40000000000003</ele><time>2026-04-04T08:55:07Z</time></trkpt><trkpt lat="41.36890724779387" lon="14.374589616191685"><ele>481.20000000000005</ele><time>2026-04-04T08:55:08Z</time></trkpt><trkpt lat="41.36892870916898" lon="14.37471348588014"><ele>481.0</ele><time>2026-04-04T08:55:09Z</time></trkpt><trkpt lat="41.36895532088898" lon="14.374835411730942"><ele>480.4</ele><time>2026-04-04T08:55:10Z</time></trkpt><trkpt lat="41.36898789786593" lon="14.374951518327917"><ele>479.8</ele><time>2026-04-04T08:55:11Z</time></trkpt><trkpt lat="41.36903119216064" lon="14.375058933125699"><ele>479.19999999999993</ele><time>2026-04-04T08:55:12Z</time></trkpt><trkpt lat="41.369079058118906" lon="14.375163470374114"><ele>478.59999999999997</ele><time>2026-04-04T08:55:13Z</time></trkpt><trkpt lat="41.369127314660965" lon="14.37527275940083"><ele>478.0</ele><time>2026-04-04T08:55:14Z</time></trkpt><trkpt lat="41.369173721331066" lon="14.37537780821733"><ele>478.00000000000006</ele><time>2026-04-04T08:55:15Z</time></trkpt><trkpt lat="41.36921656080683" lon="14.375479096680655"><ele>478.0</ele><time>2026-04-04T08:55:16Z</time></trkpt><trkpt lat="41.369257085541726" lon="14.375576597359055"><ele>478.0</ele><time>2026-04-04T08:55:17Z</time></trkpt><trkpt lat="41.369288972050626" lon="14.375676919760075"><ele>478.0</ele><time>2026-04-04T08:55:18Z</time></trkpt><trkpt lat="41.369311149194836" lon="14.375784866843613"><ele>478.00000000000006</ele><time>2026-04-04T08:55:19Z</time></trkpt><trkpt lat="41.369325014564865" lon="14.375903085979774"><ele>478.0</ele><time>2026-04-04T08:55:20Z</time></trkpt><trkpt lat="41.36931924472596" lon="14.37602557919173"><ele>476.6666666666667</ele><time>2026-04-04T08:55:21Z</time></trkpt><trkpt lat="41.36930764094979" lon="14.37614257968879"><ele>475.33333333333337</ele><time>2026-04-04T08:55:22Z</time></trkpt><trkpt lat="41.36929205345304" lon="14.376252721448829"><ele>474.0</ele><time>2026-04-04T08:55:23Z</time></trkpt><trkpt lat="41.36926273820475" lon="14.376357470550253"><ele>472.66666666666663</ele><time>2026-04-04T08:55:24Z</time></trkpt><trkpt lat="41.36921745738396" lon="14.376446493775301"><ele>471.3333333333333</ele><time>2026-04-04T08:55:25Z</time></trkpt><trkpt lat="41.369156479473006" lon="14.376518463396128"><ele>470.0</ele><time>2026-04-04T08:55:26Z</time></trkpt><trkpt lat="41.36909197183335" lon="14.376569981576637"><ele>469.99999999999994</ele><time>2026-04-04T08:55:27Z</time></trkpt><trkpt lat="41.369014925592886" lon="14.3766118269267"><ele>470.0</ele><time>2026-04-04T08:55:28Z</time></trkpt><trkpt lat="41.36893218210817" lon="14.376631353606474"><ele>470.0</ele><time>2026-04-04T08:55:29Z</time></trkpt><trkpt lat="41.36885272252331" lon="14.376645448367926"><ele>470.0</ele><time>2026-04-04T08:55:30Z</time></trkpt><trkpt lat="41.368773314063645" lon="14.37666620383363"><ele>469.99999999999994</ele><time>2026-04-04T08:55:31Z</time></trkpt><trkpt lat="41.3686975022012" lon="14.376695915710917"><ele>470.0</ele><time>2026-04-04T08:55:32Z</time></trkpt><trkpt lat="41.36862327740655" lon="14.376724616153952"><ele>469.3333333333333</ele><time>2026-04-04T08:55:33Z</time></trkpt><trkpt lat="41.36854521665456" lon="14.376747516828253"><ele>468.66666666666663</ele><time>2026-04-04T08:55:34Z</time></trkpt><trkpt lat="41.368467300117246" lon="14.376753240851158"><ele>468.0</ele><time>2026-04-04T08:55:35Z</time></trkpt><trkpt lat="41.36838575089526" lon="14.376747346366717"><ele>467.33333333333337</ele><time>2026-04-04T08:55:36Z</time></trkpt><trkpt lat="41.36830695522175" lon="14.376729351890866"><ele>466.6666666666667</ele><time>2026-04-04T08:55:37Z</time></trkpt><trkpt lat="41.368234939127554" lon="14.376693173083995"><ele>466.0</ele><time>2026-04-04T08:55:38Z</time></trkpt><trkpt lat="41.368167128987785" lon="14.376634001446686"><ele>466.00000000000006</ele><time>2026-04-04T08:55:39Z</time></trkpt><trkpt lat="41.368102961230306" lon="14.376571371698471"><ele>466.0</ele><time>2026-04-04T08:55:40Z</time></trkpt><trkpt lat="41.368030174769736" lon="14.376510869083816"><ele>466.0</ele><time>2026-04-04T08:55:41Z</time></trkpt><trkpt lat="41.36795915637488" lon="14.376448281544638"><ele>466.0</ele><time>2026-04-04T08:55:42Z</time></trkpt><trkpt lat="41.367892384874295" lon="14.376374616652354"><ele>466.00000000000006</ele><time>2026-04-04T08:55:43Z</time></trkpt><trkpt lat="41.367824675171356" lon="14.376290118276513"><ele>466.0</ele><time>2026-04-04T08:55:44Z</time></trkpt><trkpt lat="41.36776048996232" lon="14.376211886261475"><ele>465.33333333333337</ele><time>2026-04-04T08:55:45Z</time></trkpt><trkpt lat="41.36769539082882" lon="14.376131941354373"><ele>464.6666666666667</ele><time>2026-04-04T08:55:46Z</time></trkpt><trkpt lat="41.36763444222801" lon="14.376060445402603"><ele>464.0</ele><time>2026-04-04T08:55:47Z</time></trkpt><trkpt lat="41.3675710639851" lon="14.375984226262831"><ele>463.33333333333337</ele><time>2026-04-04T08:55:48Z</time></trkpt><trkpt lat="41.36752004707481" lon="14.37591966202078"><ele>462.6666666666667</ele><time>2026-04-04T08:55:49Z</time></trkpt><trkpt lat="41.36744932757898" lon="14.375837033421238"><ele>462.0</ele><time>2026-04-04T08:55:51Z</time></trkpt><trkpt lat="41.367402695681875" lon="14.375778935886354"><ele>462.0</ele><time>2026-04-04T08:56:01Z</time></trkpt><trkpt lat="41.36735945944965" lon="14.375676497954077"><ele>462.00000000000006</ele><time>2026-04-04T08:56:03Z</time></trkpt><trkpt lat="41.36734444417325" lon="14.375506785737972"><ele>462.00000000000006</ele><time>2026-04-04T08:56:05Z</time></trkpt><trkpt lat="41.36736524255069" lon="14.375407659739098"><ele>462.0</ele><time>2026-04-04T08:56:06Z</time></trkpt><trkpt lat="41.367430878383985" lon="14.37534888860181"><ele>462.0</ele><time>2026-04-04T08:56:07Z</time></trkpt><trkpt lat="41.36746928583321" lon="14.375239000260132"><ele>461.40000000000003</ele><time>2026-04-04T08:56:08Z</time></trkpt><trkpt lat="41.36752579006379" lon="14.37514712236615"><ele>460.80000000000007</ele><time>2026-04-04T08:56:09.001Z</time></trkpt><trkpt lat="41.36753879223318" lon="14.375024512097069"><ele>460.2</ele><time>2026-04-04T08:56:10.001Z</time></trkpt><trkpt lat="41.36751769393163" lon="14.374885787004246"><ele>459.6</ele><time>2026-04-04T08:56:11.001Z</time></trkpt><trkpt lat="41.367460809477855" lon="14.374755493628607"><ele>459.0</ele><time>2026-04-04T08:56:12.001Z</time></trkpt><trkpt lat="41.36738152349115" lon="14.374643976043602"><ele>459.0</ele><time>2026-04-04T08:56:13.001Z</time></trkpt><trkpt lat="41.36729048207765" lon="14.374524475448865"><ele>459.0</ele><time>2026-04-04T08:56:14.001Z</time></trkpt><trkpt lat="41.36719989105458" lon="14.374398749001422"><ele>459.0</ele><time>2026-04-04T08:56:15.001Z</time></trkpt><trkpt lat="41.36711483650995" lon="14.374274864541908"><ele>459.0</ele><time>2026-04-04T08:56:16.001Z</time></trkpt><trkpt lat="41.367030522237" lon="14.374160868050783"><ele>456.4</ele><time>2026-04-04T08:56:17.001Z</time></trkpt><trkpt lat="41.36694341235534" lon="14.374061217892116"><ele>453.79999999999995</ele><time>2026-04-04T08:56:18.001Z</time></trkpt><trkpt lat="41.36685250941981" lon="14.373977836183029"><ele>451.20000000000005</ele><time>2026-04-04T08:56:19.001Z</time></trkpt><trkpt lat="41.36676396077654" lon="14.373894316818216"><ele>448.6</ele><time>2026-04-04T08:56:20.001Z</time></trkpt><trkpt lat="41.36668371714383" lon="14.37379691662934"><ele>446.0</ele><time>2026-04-04T08:56:21.001Z</time></trkpt><trkpt lat="41.36662648448685" lon="14.373679675752532"><ele>446.0</ele><time>2026-04-04T08:56:22.001Z</time></trkpt><trkpt lat="41.36658762674732" lon="14.373558356636245"><ele>446.0</ele><time>2026-04-04T08:56:23.001Z</time></trkpt><trkpt lat="41.36656137894779" lon="14.373428604453357"><ele>446.0</ele><time>2026-04-04T08:56:24.001Z</time></trkpt><trkpt lat="41.36655936549866" lon="14.373298258749958"><ele>446.0</ele><time>2026-04-04T08:56:25.001Z</time></trkpt><trkpt lat="41.36661564163198" lon="14.37318350463719"><ele>446.0</ele><time>2026-04-04T08:56:26.001Z</time></trkpt><trkpt lat="41.36669343049247" lon="14.373075092357974"><ele>444.0</ele><time>2026-04-04T08:56:27.001Z</time></trkpt><trkpt lat="41.366754538684" lon="14.372926533262756"><ele>442.0</ele><time>2026-04-04T08:56:28.001Z</time></trkpt><trkpt lat="41.3667911565802" lon="14.372768574028512"><ele>440.0</ele><time>2026-04-04T08:56:29.001Z</time></trkpt><trkpt lat="41.366774671330106" lon="14.37258978770847"><ele>438.0</ele><time>2026-04-04T08:56:30.001Z</time></trkpt><trkpt lat="41.36676966154786" lon="14.37241703188212"><ele>438.0</ele><time>2026-04-04T08:56:31.001Z</time></trkpt><trkpt lat="41.36682597171483" lon="14.372256332764284"><ele>438.0</ele><time>2026-04-04T08:56:32.001Z</time></trkpt><trkpt lat="41.3668467691068" lon="14.372087251021682"><ele>438.0</ele><time>2026-04-04T08:56:33Z</time></trkpt><trkpt lat="41.36684049434852" lon="14.37192772752611"><ele>438.0</ele><time>2026-04-04T08:56:34Z</time></trkpt><trkpt lat="41.36679980096975" lon="14.371778676446874"><ele>436.0</ele><time>2026-04-04T08:56:35Z</time></trkpt><trkpt lat="41.36676053905729" lon="14.371637204100036"><ele>433.99999999999994</ele><time>2026-04-04T08:56:36Z</time></trkpt><trkpt lat="41.36673214139068" lon="14.371493081873451"><ele>431.99999999999994</ele><time>2026-04-04T08:56:37Z</time></trkpt><trkpt lat="41.36673380739369" lon="14.371349827484718"><ele>430.0</ele><time>2026-04-04T08:56:38Z</time></trkpt><trkpt lat="41.36678198988773" lon="14.371222852387328"><ele>428.0</ele><time>2026-04-04T08:56:39Z</time></trkpt><trkpt lat="41.36686373105024" lon="14.371138632222436"><ele>424.5</ele><time>2026-04-04T08:56:40Z</time></trkpt><trkpt lat="41.36697529146321" lon="14.37108977153987"><ele>421.0</ele><time>2026-04-04T08:56:41Z</time></trkpt><trkpt lat="41.36706080419431" lon="14.370979564677313"><ele>417.5</ele><time>2026-04-04T08:56:42Z</time></trkpt><trkpt lat="41.367131227765974" lon="14.37083811879073"><ele>414.0</ele><time>2026-04-04T08:56:43Z</time></trkpt><trkpt lat="41.367182833302905" lon="14.370660092907467"><ele>419.66666666666663</ele><time>2026-04-04T08:56:44Z</time></trkpt><trkpt lat="41.36726728937493" lon="14.37050137132542"><ele>425.3333333333333</ele><time>2026-04-04T08:56:45Z</time></trkpt><trkpt lat="41.367360924703696" lon="14.370344298744959"><ele>431.0</ele><time>2026-04-04T08:56:46Z</time></trkpt><trkpt lat="41.36744913719329" lon="14.37016851410094"><ele>431.0</ele><time>2026-04-04T08:56:47Z</time></trkpt><trkpt lat="41.367543665965364" lon="14.370017056015252"><ele>431.0</ele><time>2026-04-04T08:56:48Z</time></trkpt><trkpt lat="41.367619931731674" lon="14.369862216806665"><ele>431.0</ele><time>2026-04-04T08:56:49Z</time></trkpt><trkpt lat="41.36768226288352" lon="14.36969294152858"><ele>431.0</ele><time>2026-04-04T08:56:50Z</time></trkpt><trkpt lat="41.36772816101033" lon="14.369525752234594"><ele>431.25</ele><time>2026-04-04T08:56:51Z</time></trkpt><trkpt lat="41.36777495920808" lon="14.36936213326107"><ele>431.5</ele><time>2026-04-04T08:56:52Z</time></trkpt><trkpt lat="41.36786163291756" lon="14.36923641047537"><ele>431.75</ele><time>2026-04-04T08:56:53Z</time></trkpt><trkpt lat="41.367909284956184" lon="14.369077607553542"><ele>432.0</ele><time>2026-04-04T08:56:54Z</time></trkpt><trkpt lat="41.367973481594326" lon="14.368946801812507"><ele>433.40000000000003</ele><time>2026-04-04T08:56:55Z</time></trkpt><trkpt lat="41.36805290961838" lon="14.368839394818135"><ele>434.80000000000007</ele><time>2026-04-04T08:56:56Z</time></trkpt><trkpt lat="41.36812368901329" lon="14.368726590381614"><ele>436.2</ele><time>2026-04-04T08:56:57Z</time></trkpt><trkpt lat="41.368172542797595" lon="14.368601368220451"><ele>437.6</ele><time>2026-04-04T08:56:58Z</time></trkpt><trkpt lat="41.36821164499777" lon="14.368482719734294"><ele>439.0</ele><time>2026-04-04T08:56:59Z</time></trkpt><trkpt lat="41.36818104536106" lon="14.36836359893611"><ele>439.0</ele><time>2026-04-04T08:57:00Z</time></trkpt><trkpt lat="41.368110477892856" lon="14.368279441717997"><ele>439.0</ele><time>2026-04-04T08:57:01Z</time></trkpt><trkpt lat="41.368022946369784" lon="14.368239805849127"><ele>439.0</ele><time>2026-04-04T08:57:02Z</time></trkpt><trkpt lat="41.36792580272326" lon="14.368265447631503"><ele>439.0</ele><time>2026-04-04T08:57:03Z</time></trkpt><trkpt lat="41.367857560649334" lon="14.368378003347024"><ele>439.0</ele><time>2026-04-04T08:57:04Z</time></trkpt><trkpt lat="41.367786649290636" lon="14.368465531172598"><ele>437.25</ele><time>2026-04-04T08:57:05Z</time></trkpt><trkpt lat="41.367707815909384" lon="14.368538362505207"><ele>435.5</ele><time>2026-04-04T08:57:06Z</time></trkpt><trkpt lat="41.367642485880175" lon="14.368650980506125"><ele>433.75</ele><time>2026-04-04T08:57:07Z</time></trkpt><trkpt lat="41.367551662201045" lon="14.368770159312692"><ele>432.0</ele><time>2026-04-04T08:57:08Z</time></trkpt><trkpt lat="41.36746310266482" lon="14.368906457297136"><ele>432.0</ele><time>2026-04-04T08:57:09Z</time></trkpt><trkpt lat="41.3673671334023" lon="14.369035435976464"><ele>432.0</ele><time>2026-04-04T08:57:10Z</time></trkpt><trkpt lat="41.36727523249418" lon="14.369172088031213"><ele>432.0</ele><time>2026-04-04T08:57:11Z</time></trkpt><trkpt lat="41.3671876133721" lon="14.369329351101774"><ele>432.0</ele><time>2026-04-04T08:57:12Z</time></trkpt><trkpt lat="41.367099417220416" lon="14.369494543414067"><ele>430.66666666666663</ele><time>2026-04-04T08:57:13Z</time></trkpt><trkpt lat="41.366994917277175" lon="14.369653199729482"><ele>429.3333333333333</ele><time>2026-04-04T08:57:14Z</time></trkpt><trkpt lat="41.36688704791091" lon="14.36979911870146"><ele>428.0</ele><time>2026-04-04T08:57:15Z</time></trkpt><trkpt lat="41.36678740092493" lon="14.369942214168768"><ele>428.0</ele><time>2026-04-04T08:57:16Z</time></trkpt><trkpt lat="41.36669344178601" lon="14.370082063727313"><ele>428.0</ele><time>2026-04-04T08:57:17Z</time></trkpt><trkpt lat="41.366594075108715" lon="14.370195581119837"><ele>428.0</ele><time>2026-04-04T08:57:18Z</time></trkpt><trkpt lat="41.366483442317794" lon="14.370281365005615"><ele>428.0</ele><time>2026-04-04T08:57:19Z</time></trkpt><trkpt lat="41.36635246226962" lon="14.370363340442879"><ele>426.75</ele><time>2026-04-04T08:57:20Z</time></trkpt><trkpt lat="41.36622394718209" lon="14.37044986843566"><ele>425.5</ele><time>2026-04-04T08:57:21Z</time></trkpt><trkpt lat="41.36609584989941" lon="14.370523943326187"><ele>424.25</ele><time>2026-04-04T08:57:22Z</time></trkpt><trkpt lat="41.36597570765271" lon="14.370613338054179"><ele>423.0</ele><time>2026-04-04T08:57:23Z</time></trkpt><trkpt lat="41.36586441217158" lon="14.370737919180218"><ele>423.0</ele><time>2026-04-04T08:57:24Z</time></trkpt><trkpt lat="41.36576452734475" lon="14.370893279557109"><ele>423.0</ele><time>2026-04-04T08:57:25Z</time></trkpt><trkpt lat="41.365679148296984" lon="14.371073566722709"><ele>423.0</ele><time>2026-04-04T08:57:26Z</time></trkpt><trkpt lat="41.36560987263503" lon="14.371266257255794"><ele>414.0</ele><time>2026-04-04T08:57:27Z</time></trkpt><trkpt lat="41.36554147077567" lon="14.371448000840996"><ele>405.0</ele><time>2026-04-04T08:57:28Z</time></trkpt><trkpt lat="41.365472361908935" lon="14.371619874252382"><ele>396.0</ele><time>2026-04-04T08:57:29Z</time></trkpt><trkpt lat="41.36541716321249" lon="14.371751660536988"><ele>387.0</ele><time>2026-04-04T08:57:30Z</time></trkpt><trkpt lat="41.365343593920386" lon="14.371858915442921"><ele>394.75</ele><time>2026-04-04T08:57:31Z</time></trkpt><trkpt lat="41.36523550165369" lon="14.371938035574676"><ele>402.5</ele><time>2026-04-04T08:57:32Z</time></trkpt><trkpt lat="41.36515018593827" lon="14.372056458502541"><ele>410.25</ele><time>2026-04-04T08:57:33Z</time></trkpt><trkpt lat="41.365061462975056" lon="14.372154449615282"><ele>418.0</ele><time>2026-04-04T08:57:34Z</time></trkpt><trkpt lat="41.364987700085706" lon="14.37226128569529"><ele>418.00000000000006</ele><time>2026-04-04T08:57:35Z</time></trkpt><trkpt lat="41.36492281000562" lon="14.372376311187542"><ele>418.0</ele><time>2026-04-04T08:57:36Z</time></trkpt><trkpt lat="41.364876398760856" lon="14.372475994996329"><ele>418.0</ele><time>2026-04-04T08:57:37Z</time></trkpt><trkpt lat="41.3648383243692" lon="14.372553807584925"><ele>418.0</ele><time>2026-04-04T08:57:38Z</time></trkpt><trkpt lat="41.36478161441746" lon="14.372638421161884"><ele>418.00000000000006</ele><time>2026-04-04T08:57:40Z</time></trkpt><trkpt lat="41.36471886905224" lon="14.37266107414644"><ele>418.0</ele><time>2026-04-04T08:57:44Z</time></trkpt><trkpt lat="41.36467953425368" lon="14.372763382063377"><ele>423.50000000000006</ele><time>2026-04-04T08:57:52Z</time></trkpt><trkpt lat="41.364650234594805" lon="14.372848502903675"><ele>429.0</ele><time>2026-04-04T08:57:53Z</time></trkpt><trkpt lat="41.36460289046505" lon="14.372954792026123"><ele>434.5</ele><time>2026-04-04T08:57:54Z</time></trkpt><trkpt lat="41.36453838849045" lon="14.373059458673557"><ele>440.0</ele><time>2026-04-04T08:57:55Z</time></trkpt><trkpt lat="41.364486221901906" lon="14.37314792236997"><ele>445.50000000000006</ele><time>2026-04-04T08:57:56Z</time></trkpt><trkpt lat="41.36443620793863" lon="14.373247813199827"><ele>451.0</ele><time>2026-04-04T08:57:57Z</time></trkpt><trkpt lat="41.364412964783696" lon="14.373339782064866"><ele>451.00000000000006</ele><time>2026-04-04T08:59:09Z</time></trkpt><trkpt lat="41.36439724227965" lon="14.373479519897463"><ele>451.0</ele><time>2026-04-04T08:59:11Z</time></trkpt><trkpt lat="41.36439680234306" lon="14.373568384278757"><ele>451.0</ele><time>2026-04-04T08:59:12Z</time></trkpt><trkpt lat="41.364396802341126" lon="14.37365265478992"><ele>451.0</ele><time>2026-04-04T08:59:13Z</time></trkpt><trkpt lat="41.36438155155207" lon="14.373746308598522"><ele>451.00000000000006</ele><time>2026-04-04T08:59:14Z</time></trkpt><trkpt lat="41.36432364389269" lon="14.373822653099234"><ele>451.0</ele><time>2026-04-04T08:59:15Z</time></trkpt><trkpt lat="41.36429802341505" lon="14.37396351046602"><ele>440.6666666666667</ele><time>2026-04-04T08:59:17Z</time></trkpt><trkpt lat="41.36430538458083" lon="14.374079771058655"><ele>430.33333333333337</ele><time>2026-04-04T08:59:19Z</time></trkpt><trkpt lat="41.36429332026318" lon="14.374185328887712"><ele>420.0</ele><time>2026-04-04T08:59:21Z</time></trkpt><trkpt lat="41.36421890010322" lon="14.374261299243992"><ele>409.66666666666663</ele><time>2026-04-04T08:59:23Z</time></trkpt><trkpt lat="41.36415860954543" lon="14.374315713023254"><ele>399.3333333333333</ele><time>2026-04-04T08:59:25Z</time></trkpt><trkpt lat="41.364111002855054" lon="14.374423001940245"><ele>389.0</ele><time>2026-04-04T08:59:27Z</time></trkpt><trkpt lat="41.36405615843271" lon="14.374483412359961"><ele>389.0</ele><time>2026-04-04T08:59:28Z</time></trkpt><trkpt lat="41.36400209860359" lon="14.37455874707903"><ele>389.0</ele><time>2026-04-04T08:59:29Z</time></trkpt><trkpt lat="41.363928673250655" lon="14.374613941270647"><ele>389.0</ele><time>2026-04-04T08:59:30Z</time></trkpt><trkpt lat="41.36384044323645" lon="14.374672205446094"><ele>389.0</ele><time>2026-04-04T08:59:31Z</time></trkpt><trkpt lat="41.36375037754854" lon="14.374741233809313"><ele>389.0</ele><time>2026-04-04T08:59:32Z</time></trkpt><trkpt lat="41.36366620940191" lon="14.374829851627581"><ele>392.4</ele><time>2026-04-04T08:59:33Z</time></trkpt><trkpt lat="41.36358439875382" lon="14.374931089856181"><ele>395.79999999999995</ele><time>2026-04-04T08:59:34Z</time></trkpt><trkpt lat="41.36351637847586" lon="14.37501427149187"><ele>399.20000000000005</ele><time>2026-04-04T08:59:35Z</time></trkpt><trkpt lat="41.363443544799395" lon="14.375074168993926"><ele>402.6</ele><time>2026-04-04T08:59:36Z</time></trkpt><trkpt lat="41.363363961019125" lon="14.37512557245899"><ele>406.0</ele><time>2026-04-04T08:59:37Z</time></trkpt><trkpt lat="41.36327542490599" lon="14.375136340800227"><ele>406.0</ele><time>2026-04-04T08:59:38Z</time></trkpt><trkpt lat="41.363196128514446" lon="14.375122190566975"><ele>406.0</ele><time>2026-04-04T08:59:39Z</time></trkpt><trkpt lat="41.36313628308903" lon="14.375064183156885"><ele>406.0</ele><time>2026-04-04T08:59:40Z</time></trkpt><trkpt lat="41.36304214875894" lon="14.374908535960769"><ele>406.0</ele><time>2026-04-04T08:59:42Z</time></trkpt><trkpt lat="41.36297452494429" lon="14.37481920229334"><ele>406.0</ele><time>2026-04-04T08:59:43Z</time></trkpt><trkpt lat="41.36290577215439" lon="14.374728377011522"><ele>406.5</ele><time>2026-04-04T08:59:44Z</time></trkpt><trkpt lat="41.36284014295627" lon="14.374641678307752"><ele>407.0</ele><time>2026-04-04T08:59:45Z</time></trkpt><trkpt lat="41.36276106421907" lon="14.374557381652787"><ele>407.5</ele><time>2026-04-04T08:59:46Z</time></trkpt><trkpt lat="41.362634501254135" lon="14.374525057178722"><ele>408.0</ele><time>2026-04-04T08:59:47Z</time></trkpt><trkpt lat="41.36250656944221" lon="14.374550723561349"><ele>408.0</ele><time>2026-04-04T08:59:48Z</time></trkpt><trkpt lat="41.36239958386517" lon="14.374559736381407"><ele>408.0</ele><time>2026-04-04T08:59:49Z</time></trkpt><trkpt lat="41.36229581353572" lon="14.374576643052922"><ele>408.0</ele><time>2026-04-04T08:59:50Z</time></trkpt><trkpt lat="41.362207768904476" lon="14.374603379619172"><ele>408.0</ele><time>2026-04-04T08:59:51Z</time></trkpt><trkpt lat="41.36212447982891" lon="14.37460081959283"><ele>408.0</ele><time>2026-04-04T08:59:52Z</time></trkpt><trkpt lat="41.36204402519304" lon="14.374570484930436"><ele>397.0</ele><time>2026-04-04T08:59:53Z</time></trkpt><trkpt lat="41.36198875817169" lon="14.374477710531396"><ele>386.0</ele><time>2026-04-04T08:59:54Z</time></trkpt><trkpt lat="41.361913614471355" lon="14.374367373690054"><ele>375.0</ele><time>2026-04-04T08:59:55Z</time></trkpt><trkpt lat="41.361852573327944" lon="14.374221922504617"><ele>364.0</ele><time>2026-04-04T08:59:56Z</time></trkpt><trkpt lat="41.36177233257268" lon="14.374046486899253"><ele>364.0</ele><time>2026-04-04T08:59:57Z</time></trkpt><trkpt lat="41.36169210630559" lon="14.37386382979431"><ele>364.0</ele><time>2026-04-04T08:59:58Z</time></trkpt><trkpt lat="41.36162692815226" lon="14.373661714327316"><ele>364.0</ele><time>2026-04-04T08:59:59Z</time></trkpt><trkpt lat="41.361544062116224" lon="14.373434382786412"><ele>369.3333333333333</ele><time>2026-04-04T09:00:00Z</time></trkpt><trkpt lat="41.36146279510001" lon="14.373247713348709"><ele>374.6666666666667</ele><time>2026-04-04T09:00:01Z</time></trkpt><trkpt lat="41.36139010987366" lon="14.373034091368226"><ele>380.0</ele><time>2026-04-04T09:00:02Z</time></trkpt><trkpt lat="41.36131631545438" lon="14.372792743728391"><ele>371.6666666666667</ele><time>2026-04-04T09:00:03Z</time></trkpt><trkpt lat="41.36123952784693" lon="14.372539569534219"><ele>363.3333333333333</ele><time>2026-04-04T09:00:04Z</time></trkpt><trkpt lat="41.36116481331502" lon="14.37230442098098"><ele>355.0</ele><time>2026-04-04T09:00:05Z</time></trkpt><trkpt lat="41.36109005521833" lon="14.372089818156992"><ele>355.0</ele><time>2026-04-04T09:00:06Z</time></trkpt><trkpt lat="41.36102091436438" lon="14.371910308333685"><ele>355.0</ele><time>2026-04-04T09:00:07Z</time></trkpt><trkpt lat="41.360965810513356" lon="14.371745242240245"><ele>355.0</ele><time>2026-04-04T09:00:08Z</time></trkpt><trkpt lat="41.36093709634831" lon="14.371559147358234"><ele>355.0</ele><time>2026-04-04T09:00:09Z</time></trkpt><trkpt lat="41.3609089930158" lon="14.371319173321695"><ele>356.3333333333333</ele><time>2026-04-04T09:00:10Z</time></trkpt><trkpt lat="41.360874609582794" lon="14.371049690252953"><ele>357.6666666666667</ele><time>2026-04-04T09:00:11Z</time></trkpt><trkpt lat="41.36083244214764" lon="14.370807077621981"><ele>359.0</ele><time>2026-04-04T09:00:12Z</time></trkpt><trkpt lat="41.360799823229804" lon="14.370591429989204"><ele>359.6666666666667</ele><time>2026-04-04T09:00:13Z</time></trkpt><trkpt lat="41.36078306224673" lon="14.370385140352855"><ele>360.3333333333333</ele><time>2026-04-04T09:00:14Z</time></trkpt><trkpt lat="41.36077973713272" lon="14.3701855670237"><ele>361.0</ele><time>2026-04-04T09:00:15Z</time></trkpt><trkpt lat="41.3607870155175" lon="14.36999166894767"><ele>361.0</ele><time>2026-04-04T09:00:16Z</time></trkpt><trkpt lat="41.36081719832801" lon="14.369809725126423"><ele>361.0</ele><time>2026-04-04T09:00:17Z</time></trkpt><trkpt lat="41.36085795219124" lon="14.369627118035332"><ele>361.0</ele><time>2026-04-04T09:00:18Z</time></trkpt><trkpt lat="41.360865484457065" lon="14.369424366058386"><ele>361.0</ele><time>2026-04-04T09:00:19Z</time></trkpt><trkpt lat="41.36082887888392" lon="14.369215645678409"><ele>359.25</ele><time>2026-04-04T09:00:20Z</time></trkpt><trkpt lat="41.36080607009166" lon="14.369023681010168"><ele>357.5</ele><time>2026-04-04T09:00:21Z</time></trkpt><trkpt lat="41.360809731931056" lon="14.368856433326346"><ele>355.75</ele><time>2026-04-04T09:00:22Z</time></trkpt><trkpt lat="41.360844602462485" lon="14.368666332726507"><ele>354.0</ele><time>2026-04-04T09:00:23Z</time></trkpt><trkpt lat="41.360885938515366" lon="14.36842594804604"><ele>351.75</ele><time>2026-04-04T09:00:24Z</time></trkpt><trkpt lat="41.360916848748005" lon="14.368215452130801"><ele>349.5</ele><time>2026-04-04T09:00:25Z</time></trkpt><trkpt lat="41.36094454985045" lon="14.36805834635039"><ele>347.25</ele><time>2026-04-04T09:00:26Z</time></trkpt><trkpt lat="41.361001064598895" lon="14.367929354171523"><ele>345.0</ele><time>2026-04-04T09:00:27Z</time></trkpt><trkpt lat="41.36109462926795" lon="14.367787157596242"><ele>340.25</ele><time>2026-04-04T09:00:28Z</time></trkpt><trkpt lat="41.36119194875983" lon="14.367623674223337"><ele>335.5</ele><time>2026-04-04T09:00:29.001Z</time></trkpt><trkpt lat="41.3612667081945" lon="14.367453498045473"><ele>330.75</ele><time>2026-04-04T09:00:30.001Z</time></trkpt><trkpt lat="41.361318382684686" lon="14.367287496869482"><ele>326.0</ele><time>2026-04-04T09:00:31.001Z</time></trkpt><trkpt lat="41.361347010538836" lon="14.36714303594145"><ele>325.20000000000005</ele><time>2026-04-04T09:00:32.001Z</time></trkpt><trkpt lat="41.36133148730717" lon="14.367003207921451"><ele>324.40000000000003</ele><time>2026-04-04T09:00:33.001Z</time></trkpt><trkpt lat="41.36126926186588" lon="14.366885342512266"><ele>323.6</ele><time>2026-04-04T09:00:34.001Z</time></trkpt><trkpt lat="41.3611823387456" lon="14.366792051469167"><ele>322.8</ele><time>2026-04-04T09:00:35.001Z</time></trkpt><trkpt lat="41.36111271557022" lon="14.366664238689161"><ele>322.0</ele><time>2026-04-04T09:00:36.001Z</time></trkpt><trkpt lat="41.36105853337274" lon="14.366496885615279"><ele>326.0</ele><time>2026-04-04T09:00:37.001Z</time></trkpt><trkpt lat="41.360992984136566" lon="14.366295586756342"><ele>330.0</ele><time>2026-04-04T09:00:38.001Z</time></trkpt><trkpt lat="41.3609334684918" lon="14.366074743244358"><ele>334.0</ele><time>2026-04-04T09:00:39.001Z</time></trkpt><trkpt lat="41.36088944593527" lon="14.365814173037547"><ele>334.0</ele><time>2026-04-04T09:00:40.001Z</time></trkpt><trkpt lat="41.36084273608977" lon="14.365530416858721"><ele>334.0</ele><time>2026-04-04T09:00:41.001Z</time></trkpt><trkpt lat="41.36080068513448" lon="14.365274962975016"><ele>334.0</ele><time>2026-04-04T09:00:42.001Z</time></trkpt><trkpt lat="41.360766450405" lon="14.365062930532426"><ele>335.0</ele><time>2026-04-04T09:00:43.001Z</time></trkpt><trkpt lat="41.36075394155457" lon="14.364874443821924"><ele>336.0</ele><time>2026-04-04T09:00:44Z</time></trkpt><trkpt lat="41.36076208882855" lon="14.364664343309338"><ele>337.0</ele><time>2026-04-04T09:00:45Z</time></trkpt><trkpt lat="41.36077541687017" lon="14.36441588315458"><ele>337.0</ele><time>2026-04-04T09:00:46Z</time></trkpt><trkpt lat="41.360774143764026" lon="14.3641459816247"><ele>337.0</ele><time>2026-04-04T09:00:47Z</time></trkpt><trkpt lat="41.36080663630509" lon="14.363850739623901"><ele>337.0</ele><time>2026-04-04T09:00:48Z</time></trkpt><trkpt lat="41.36082175444444" lon="14.36355769507686"><ele>335.0</ele><time>2026-04-04T09:00:49Z</time></trkpt><trkpt lat="41.36083440525274" lon="14.36328005638024"><ele>333.0</ele><time>2026-04-04T09:00:50Z</time></trkpt><trkpt lat="41.36084714745804" lon="14.363028433104729"><ele>331.0</ele><time>2026-04-04T09:00:51Z</time></trkpt><trkpt lat="41.36087195836414" lon="14.362799913736005"><ele>328.25</ele><time>2026-04-04T09:00:52Z</time></trkpt><trkpt lat="41.36090474695537" lon="14.362593969846763"><ele>325.5</ele><time>2026-04-04T09:00:53Z</time></trkpt><trkpt lat="41.36093793457422" lon="14.36240485068006"><ele>322.75</ele><time>2026-04-04T09:00:54Z</time></trkpt><trkpt lat="41.3609794750887" lon="14.36223213755083"><ele>320.0</ele><time>2026-04-04T09:00:55Z</time></trkpt><trkpt lat="41.36105000984507" lon="14.362072273290199"><ele>315.0</ele><time>2026-04-04T09:00:56Z</time></trkpt><trkpt lat="41.36114316123166" lon="14.361904410799106"><ele>310.0</ele><time>2026-04-04T09:00:57Z</time></trkpt><trkpt lat="41.36123084745539" lon="14.361725160493483"><ele>305.0</ele><time>2026-04-04T09:00:58Z</time></trkpt><trkpt lat="41.361256139000645" lon="14.361491604720397"><ele>299.33333333333337</ele><time>2026-04-04T09:00:59Z</time></trkpt><trkpt lat="41.361269632063184" lon="14.361229338004314"><ele>293.6666666666667</ele><time>2026-04-04T09:01:00Z</time></trkpt><trkpt lat="41.36130983316456" lon="14.360947432714099"><ele>288.0</ele><time>2026-04-04T09:01:01Z</time></trkpt><trkpt lat="41.361339655583656" lon="14.360670941962807"><ele>300.6666666666667</ele><time>2026-04-04T09:01:02Z</time></trkpt><trkpt lat="41.36137496352784" lon="14.360398929604488"><ele>313.33333333333337</ele><time>2026-04-04T09:01:03Z</time></trkpt><trkpt lat="41.361420382620935" lon="14.360147143785827"><ele>326.0</ele><time>2026-04-04T09:01:04Z</time></trkpt><trkpt lat="41.36147840470231" lon="14.35990384746505"><ele>320.6666666666667</ele><time>2026-04-04T09:01:05Z</time></trkpt><trkpt lat="41.36154305046866" lon="14.359648101199657"><ele>315.3333333333333</ele><time>2026-04-04T09:01:06Z</time></trkpt><trkpt lat="41.36161224068806" lon="14.35937809051512"><ele>310.0</ele><time>2026-04-04T09:01:07Z</time></trkpt><trkpt lat="41.36166540640217" lon="14.359127186457629"><ele>310.0</ele><time>2026-04-04T09:01:08Z</time></trkpt><trkpt lat="41.36176021796488" lon="14.35891194312862"><ele>310.0</ele><time>2026-04-04T09:01:09Z</time></trkpt><trkpt lat="41.36185174776173" lon="14.358677784655029"><ele>310.0</ele><time>2026-04-04T09:01:10Z</time></trkpt><trkpt lat="41.3619733653571" lon="14.358456632678903"><ele>311.0</ele><time>2026-04-04T09:01:11Z</time></trkpt><trkpt lat="41.36208472246656" lon="14.35822928719775"><ele>312.0</ele><time>2026-04-04T09:01:12Z</time></trkpt><trkpt lat="41.36217086977001" lon="14.35801181035849"><ele>313.0</ele><time>2026-04-04T09:01:13Z</time></trkpt><trkpt lat="41.36222423476539" lon="14.357786894763283"><ele>313.0</ele><time>2026-04-04T09:01:14Z</time></trkpt><trkpt lat="41.36225537756102" lon="14.357569410196255"><ele>313.0</ele><time>2026-04-04T09:01:15Z</time></trkpt><trkpt lat="41.36232639855775" lon="14.357382914825397"><ele>313.0</ele><time>2026-04-04T09:01:16Z</time></trkpt><trkpt lat="41.36241827356149" lon="14.357191184679147"><ele>305.0</ele><time>2026-04-04T09:01:17Z</time></trkpt><trkpt lat="41.362526180754124" lon="14.356962624343273"><ele>297.0</ele><time>2026-04-04T09:01:18Z</time></trkpt><trkpt lat="41.36266502398869" lon="14.356749268529727"><ele>289.0</ele><time>2026-04-04T09:01:19Z</time></trkpt><trkpt lat="41.36279710229902" lon="14.356556462303205"><ele>289.0</ele><time>2026-04-04T09:01:20Z</time></trkpt><trkpt lat="41.362895245733675" lon="14.356411595935755"><ele>289.0</ele><time>2026-04-04T09:01:21Z</time></trkpt><trkpt lat="41.362970112788815" lon="14.356287969690145"><ele>289.0</ele><time>2026-04-04T09:01:22Z</time></trkpt><trkpt lat="41.36301185485115" lon="14.35618084215502"><ele>289.0</ele><time>2026-04-04T09:01:23Z</time></trkpt><trkpt lat="41.36302396606315" lon="14.35605988730161"><ele>289.0</ele><time>2026-04-04T09:01:24Z</time></trkpt><trkpt lat="41.362962090277804" lon="14.35590155416908"><ele>290.8</ele><time>2026-04-04T09:01:25Z</time></trkpt><trkpt lat="41.362914838110434" lon="14.355730931488864"><ele>292.59999999999997</ele><time>2026-04-04T09:01:26Z</time></trkpt><trkpt lat="41.36288003665544" lon="14.355603614048729"><ele>294.4</ele><time>2026-04-04T09:01:27Z</time></trkpt><trkpt lat="41.36284951414288" lon="14.355517314899023"><ele>296.2</ele><time>2026-04-04T09:01:28Z</time></trkpt><trkpt lat="41.36276197369987" lon="14.355508169870646"><ele>298.0</ele><time>2026-04-04T09:01:29Z</time></trkpt><trkpt lat="41.36265315314698" lon="14.355595629514355"><ele>298.0</ele><time>2026-04-04T09:01:30Z</time></trkpt><trkpt lat="41.362537290925175" lon="14.355687083949572"><ele>298.0</ele><time>2026-04-04T09:01:31Z</time></trkpt><trkpt lat="41.362403111934924" lon="14.35577671438404"><ele>298.0</ele><time>2026-04-04T09:01:32Z</time></trkpt><trkpt lat="41.362256699877015" lon="14.355865769490208"><ele>298.0</ele><time>2026-04-04T09:01:33Z</time></trkpt><trkpt lat="41.36211369277006" lon="14.355986664445949"><ele>307.66666666666663</ele><time>2026-04-04T09:01:34Z</time></trkpt><trkpt lat="41.36196891067176" lon="14.35611945494327"><ele>317.3333333333333</ele><time>2026-04-04T09:01:35Z</time></trkpt><trkpt lat="41.36182627257118" lon="14.35621986725962"><ele>327.0</ele><time>2026-04-04T09:01:36Z</time></trkpt><trkpt lat="41.36169727461094" lon="14.356327328928659"><ele>313.3333333333333</ele><time>2026-04-04T09:01:37Z</time></trkpt><trkpt lat="41.36159536822179" lon="14.356498100818836"><ele>299.66666666666663</ele><time>2026-04-04T09:01:38Z</time></trkpt><trkpt lat="41.36149599076164" lon="14.356706344381346"><ele>286.0</ele><time>2026-04-04T09:01:39Z</time></trkpt><trkpt lat="41.361376697081276" lon="14.35688128660342"><ele>281.3333333333333</ele><time>2026-04-04T09:01:40Z</time></trkpt><trkpt lat="41.36124225563285" lon="14.357031275318795"><ele>276.6666666666667</ele><time>2026-04-04T09:01:41Z</time></trkpt><trkpt lat="41.36111643554395" lon="14.357164057643951"><ele>272.0</ele><time>2026-04-04T09:01:42Z</time></trkpt><trkpt lat="41.36097277770092" lon="14.357229178806106"><ele>272.0</ele><time>2026-04-04T09:01:43Z</time></trkpt><trkpt lat="41.36082702745387" lon="14.357280435203352"><ele>272.0</ele><time>2026-04-04T09:01:44Z</time></trkpt><trkpt lat="41.36068038328414" lon="14.357268853080443"><ele>272.0</ele><time>2026-04-04T09:01:45Z</time></trkpt><trkpt lat="41.360570625114214" lon="14.357198508375141"><ele>272.0</ele><time>2026-04-04T09:01:46Z</time></trkpt><trkpt lat="41.3604786090455" lon="14.3570879764089"><ele>273.6666666666667</ele><time>2026-04-04T09:01:47Z</time></trkpt><trkpt lat="41.3603803207645" lon="14.356911247309924"><ele>275.3333333333333</ele><time>2026-04-04T09:01:48Z</time></trkpt><trkpt lat="41.360248364136694" lon="14.35670314781455"><ele>277.0</ele><time>2026-04-04T09:01:49Z</time></trkpt><trkpt lat="41.36010696259155" lon="14.35647268573745"><ele>284.5</ele><time>2026-04-04T09:01:50Z</time></trkpt><trkpt lat="41.359964664720486" lon="14.356246201950265"><ele>292.0</ele><time>2026-04-04T09:01:51Z</time></trkpt><trkpt lat="41.35982001744076" lon="14.356007219817634"><ele>287.0</ele><time>2026-04-04T09:01:52Z</time></trkpt><trkpt lat="41.359681589688584" lon="14.355780617239605"><ele>282.0</ele><time>2026-04-04T09:01:53Z</time></trkpt><trkpt lat="41.359548089180436" lon="14.355572408158377"><ele>277.0</ele><time>2026-04-04T09:01:54Z</time></trkpt><trkpt lat="41.359433436214736" lon="14.35538574691859"><ele>277.0</ele><time>2026-04-04T09:01:55Z</time></trkpt><trkpt lat="41.35932035169322" lon="14.355198901967693"><ele>277.0</ele><time>2026-04-04T09:01:56Z</time></trkpt><trkpt lat="41.35920926934052" lon="14.355029097208233"><ele>277.0</ele><time>2026-04-04T09:01:57Z</time></trkpt><trkpt lat="41.35908799355073" lon="14.354880673986743"><ele>277.0</ele><time>2026-04-04T09:01:58Z</time></trkpt><trkpt lat="41.35895091928584" lon="14.354768865686244"><ele>277.0</ele><time>2026-04-04T09:01:59Z</time></trkpt><trkpt lat="41.35878326629526" lon="14.354702771105483"><ele>277.0</ele><time>2026-04-04T09:02:00Z</time></trkpt><trkpt lat="41.358607058926786" lon="14.354670078135408"><ele>275.66666666666663</ele><time>2026-04-04T09:02:01Z</time></trkpt><trkpt lat="41.35842187988247" lon="14.3546741729885"><ele>274.3333333333333</ele><time>2026-04-04T09:02:02Z</time></trkpt><trkpt lat="41.35821813331732" lon="14.354700308314731"><ele>273.0</ele><time>2026-04-04T09:02:03Z</time></trkpt><trkpt lat="41.3580038664701" lon="14.35475770107677"><ele>268.0</ele><time>2026-04-04T09:02:04Z</time></trkpt><trkpt lat="41.357777011766984" lon="14.354836484100208"><ele>263.0</ele><time>2026-04-04T09:02:05Z</time></trkpt><trkpt lat="41.35756234823943" lon="14.35490863811276"><ele>263.0</ele><time>2026-04-04T09:02:06Z</time></trkpt><trkpt lat="41.35736431218185" lon="14.354967517550532"><ele>263.0</ele><time>2026-04-04T09:02:07Z</time></trkpt><trkpt lat="41.35717982614224" lon="14.355020116883438"><ele>263.0</ele><time>2026-04-04T09:02:08Z</time></trkpt><trkpt lat="41.35701175131062" lon="14.355060075340816"><ele>261.6666666666667</ele><time>2026-04-04T09:02:09Z</time></trkpt><trkpt lat="41.356846460597914" lon="14.355040705101327"><ele>260.3333333333333</ele><time>2026-04-04T09:02:10Z</time></trkpt><trkpt lat="41.35667112859111" lon="14.35501063487934"><ele>259.0</ele><time>2026-04-04T09:02:11Z</time></trkpt><trkpt lat="41.3564755788996" lon="14.354975623591214"><ele>257.0</ele><time>2026-04-04T09:02:12Z</time></trkpt><trkpt lat="41.35626458580703" lon="14.354926436514964"><ele>255.0</ele><time>2026-04-04T09:02:13Z</time></trkpt><trkpt lat="41.35604284377409" lon="14.354883075070928"><ele>253.0</ele><time>2026-04-04T09:02:14Z</time></trkpt><trkpt lat="41.35583338970256" lon="14.354841554216321"><ele>253.0</ele><time>2026-04-04T09:02:15Z</time></trkpt><trkpt lat="41.35563552719003" lon="14.354801800761054"><ele>253.0</ele><time>2026-04-04T09:02:16Z</time></trkpt><trkpt lat="41.35543658938248" lon="14.354760861287913"><ele>253.0</ele><time>2026-04-04T09:02:17Z</time></trkpt><trkpt lat="41.35523347799448" lon="14.354719958616032"><ele>252.66666666666666</ele><time>2026-04-04T09:02:18Z</time></trkpt><trkpt lat="41.355025316782566" lon="14.354679443876517"><ele>252.33333333333331</ele><time>2026-04-04T09:02:19Z</time></trkpt><trkpt lat="41.35481634722834" lon="14.354637108627994"><ele>252.0</ele><time>2026-04-04T09:02:20Z</time></trkpt><trkpt lat="41.3546246891078" lon="14.354596584512835"><ele>248.66666666666669</ele><time>2026-04-04T09:02:21Z</time></trkpt><trkpt lat="41.35444528074849" lon="14.354557470686256"><ele>245.33333333333334</ele><time>2026-04-04T09:02:22Z</time></trkpt><trkpt lat="41.354276856761444" lon="14.354522149140424"><ele>242.0</ele><time>2026-04-04T09:02:23Z</time></trkpt><trkpt lat="41.35412702707175" lon="14.354489678541828"><ele>242.0</ele><time>2026-04-04T09:02:24Z</time></trkpt><trkpt lat="41.35399248520409" lon="14.354457944706514"><ele>242.0</ele><time>2026-04-04T09:02:25Z</time></trkpt><trkpt lat="41.35386663458956" lon="14.354405811991086"><ele>242.0</ele><time>2026-04-04T09:02:26Z</time></trkpt><trkpt lat="41.35374774438566" lon="14.354307066918917"><ele>242.0</ele><time>2026-04-04T09:02:27Z</time></trkpt><trkpt lat="41.35362626680392" lon="14.354156520170205"><ele>241.66666666666669</ele><time>2026-04-04T09:02:28Z</time></trkpt><trkpt lat="41.3535022801615" lon="14.353969796543504"><ele>241.33333333333331</ele><time>2026-04-04T09:02:29Z</time></trkpt><trkpt lat="41.35337598558101" lon="14.353775431481202"><ele>241.0</ele><time>2026-04-04T09:02:30Z</time></trkpt><trkpt lat="41.35326623246439" lon="14.353607138983724"><ele>241.0</ele><time>2026-04-04T09:02:31Z</time></trkpt><trkpt lat="41.35317217847828" lon="14.353473726229373"><ele>241.00000000000003</ele><time>2026-04-04T09:02:32Z</time></trkpt><trkpt lat="41.35308910599847" lon="14.353376402051104"><ele>241.00000000000003</ele><time>2026-04-04T09:02:33Z</time></trkpt><trkpt lat="41.35300184709966" lon="14.353319493818528"><ele>241.0</ele><time>2026-04-04T09:02:34.001Z</time></trkpt><trkpt lat="41.35291192030533" lon="14.353342135073307"><ele>241.0</ele><time>2026-04-04T09:02:35.001Z</time></trkpt><trkpt lat="41.35279980699511" lon="14.353573378602949"><ele>238.5</ele><time>2026-04-04T09:02:37.001Z</time></trkpt><trkpt lat="41.35282014421579" lon="14.353747610686035"><ele>236.0</ele><time>2026-04-04T09:02:38.001Z</time></trkpt><trkpt lat="41.3528282311502" lon="14.353931977906338"><ele>233.5</ele><time>2026-04-04T09:02:39.001Z</time></trkpt><trkpt lat="41.352828105602946" lon="14.354159396116037"><ele>231.0</ele><time>2026-04-04T09:02:40.001Z</time></trkpt><trkpt lat="41.352842813289875" lon="14.35439022171805"><ele>231.0</ele><time>2026-04-04T09:02:41.001Z</time></trkpt><trkpt lat="41.35287209291395" lon="14.354629459526022"><ele>231.0</ele><time>2026-04-04T09:02:42.001Z</time></trkpt><trkpt lat="41.35288354119576" lon="14.354878895828268"><ele>231.0</ele><time>2026-04-04T09:02:43.001Z</time></trkpt><trkpt lat="41.35289469276063" lon="14.355117367434243"><ele>230.0</ele><time>2026-04-04T09:02:44.001Z</time></trkpt><trkpt lat="41.35289706174213" lon="14.355334207727212"><ele>229.0</ele><time>2026-04-04T09:02:45.001Z</time></trkpt><trkpt lat="41.35290874845403" lon="14.35554216925797"><ele>228.0</ele><time>2026-04-04T09:02:46.001Z</time></trkpt><trkpt lat="41.35292069834349" lon="14.355736705769349"><ele>226.75</ele><time>2026-04-04T09:02:47.001Z</time></trkpt><trkpt lat="41.35293297774771" lon="14.35591992101317"><ele>225.5</ele><time>2026-04-04T09:02:48.001Z</time></trkpt><trkpt lat="41.35294302296892" lon="14.356069801082729"><ele>224.25</ele><time>2026-04-04T09:02:49.001Z</time></trkpt><trkpt lat="41.35295333495632" lon="14.356215045392977"><ele>223.0</ele><time>2026-04-04T09:02:50Z</time></trkpt><trkpt lat="41.35296432206378" lon="14.35636812510035"><ele>222.25</ele><time>2026-04-04T09:02:51Z</time></trkpt><trkpt lat="41.352976346745976" lon="14.356535660960589"><ele>221.5</ele><time>2026-04-04T09:02:52Z</time></trkpt><trkpt lat="41.352989127730694" lon="14.356713734087469"><ele>220.75</ele><time>2026-04-04T09:02:53Z</time></trkpt><trkpt lat="41.35301724169858" lon="14.356891672024517"><ele>220.0</ele><time>2026-04-04T09:02:54Z</time></trkpt><trkpt lat="41.35302725188382" lon="14.357063606254723"><ele>220.5</ele><time>2026-04-04T09:02:55Z</time></trkpt><trkpt lat="41.35303313895718" lon="14.35723524224299"><ele>221.0</ele><time>2026-04-04T09:02:56Z</time></trkpt><trkpt lat="41.353044974425494" lon="14.357420073097495"><ele>221.5</ele><time>2026-04-04T09:02:57Z</time></trkpt><trkpt lat="41.35305993335901" lon="14.357607888793062"><ele>222.0</ele><time>2026-04-04T09:02:58Z</time></trkpt><trkpt lat="41.35305504117257" lon="14.357787824503003"><ele>222.0</ele><time>2026-04-04T09:02:59Z</time></trkpt><trkpt lat="41.35306563776899" lon="14.357957847287098"><ele>222.0</ele><time>2026-04-04T09:03:00Z</time></trkpt><trkpt lat="41.35307525508997" lon="14.358112157599681"><ele>222.0</ele><time>2026-04-04T09:03:01Z</time></trkpt><trkpt lat="41.353099679475825" lon="14.358242088605577"><ele>222.0</ele><time>2026-04-04T09:03:02Z</time></trkpt><trkpt lat="41.35310450635093" lon="14.358356690650908"><ele>222.0</ele><time>2026-04-04T09:03:03Z</time></trkpt><trkpt lat="41.35311406349015" lon="14.358475528962467"><ele>220.83333333333334</ele><time>2026-04-04T09:03:04Z</time></trkpt><trkpt lat="41.353105187154284" lon="14.358592418729577"><ele>219.66666666666669</ele><time>2026-04-04T09:03:05Z</time></trkpt><trkpt lat="41.3531104836525" lon="14.358677401230935"><ele>218.5</ele><time>2026-04-04T09:03:06Z</time></trkpt><trkpt lat="41.35311663885888" lon="14.35877616174681"><ele>217.33333333333334</ele><time>2026-04-04T09:03:09Z</time></trkpt><trkpt lat="41.35312501490792" lon="14.35890370742958"><ele>216.16666666666669</ele><time>2026-04-04T09:03:11Z</time></trkpt><trkpt lat="41.353130831886375" lon="14.358987576122159"><ele>215.0</ele><time>2026-04-04T09:03:12Z</time></trkpt><trkpt lat="41.35313774576605" lon="14.359087259844792"><ele>213.8</ele><time>2026-04-04T09:03:13Z</time></trkpt><trkpt lat="41.353146634111624" lon="14.359204615895612"><ele>212.6</ele><time>2026-04-04T09:03:14Z</time></trkpt><trkpt lat="41.353175859686154" lon="14.359327831170631"><ele>211.39999999999998</ele><time>2026-04-04T09:03:15Z</time></trkpt><trkpt lat="41.35320030778165" lon="14.359452179849553"><ele>210.2</ele><time>2026-04-04T09:03:16Z</time></trkpt><trkpt lat="41.35323670788246" lon="14.359565070714345"><ele>209.0</ele><time>2026-04-04T09:03:17Z</time></trkpt><trkpt lat="41.353285585948626" lon="14.359667943747338"><ele>208.25</ele><time>2026-04-04T09:03:18Z</time></trkpt><trkpt lat="41.353342454027285" lon="14.359784746240125"><ele>207.5</ele><time>2026-04-04T09:03:19Z</time></trkpt><trkpt lat="41.3533892381491" lon="14.359919430610118"><ele>206.75</ele><time>2026-04-04T09:03:20Z</time></trkpt><trkpt lat="41.353427446312985" lon="14.360065266067712"><ele>206.0</ele><time>2026-04-04T09:03:21Z</time></trkpt><trkpt lat="41.35345261085961" lon="14.360227163000465"><ele>206.0</ele><time>2026-04-04T09:03:22Z</time></trkpt><trkpt lat="41.35345694322108" lon="14.36039438049722"><ele>206.0</ele><time>2026-04-04T09:03:23Z</time></trkpt><trkpt lat="41.35345001729115" lon="14.360570338147845"><ele>206.0</ele><time>2026-04-04T09:03:24Z</time></trkpt><trkpt lat="41.353449112247866" lon="14.360740467649629"><ele>206.0</ele><time>2026-04-04T09:03:25Z</time></trkpt><trkpt lat="41.353448350425396" lon="14.360921794871796"><ele>204.0</ele><time>2026-04-04T09:03:26Z</time></trkpt><trkpt lat="41.35342542461143" lon="14.361113086723218"><ele>202.0</ele><time>2026-04-04T09:03:27Z</time></trkpt><trkpt lat="41.35341519252476" lon="14.361311223183998"><ele>200.0</ele><time>2026-04-04T09:03:28Z</time></trkpt><trkpt lat="41.35337245196188" lon="14.361544746982753"><ele>199.75</ele><time>2026-04-04T09:03:29Z</time></trkpt><trkpt lat="41.35336418953394" lon="14.361726590736863"><ele>199.5</ele><time>2026-04-04T09:03:30Z</time></trkpt><trkpt lat="41.35335140979424" lon="14.361910131959384"><ele>199.25</ele><time>2026-04-04T09:03:31Z</time></trkpt><trkpt lat="41.35333393750187" lon="14.362074658897692"><ele>199.0</ele><time>2026-04-04T09:03:32Z</time></trkpt><trkpt lat="41.353323316750235" lon="14.362235101795497"><ele>198.25</ele><time>2026-04-04T09:03:33Z</time></trkpt><trkpt lat="41.353318334630096" lon="14.362398166084814"><ele>197.5</ele><time>2026-04-04T09:03:34Z</time></trkpt><trkpt lat="41.35330920222147" lon="14.362548006723724"><ele>196.75</ele><time>2026-04-04T09:03:35Z</time></trkpt><trkpt lat="41.353306363880264" lon="14.362702442051168"><ele>196.0</ele><time>2026-04-04T09:03:36Z</time></trkpt><trkpt lat="41.35330486424611" lon="14.362859698266664"><ele>196.0</ele><time>2026-04-04T09:03:37Z</time></trkpt><trkpt lat="41.35329683951942" lon="14.363008666242317"><ele>196.0</ele><time>2026-04-04T09:03:38Z</time></trkpt><trkpt lat="41.35328613659722" lon="14.363158805945922"><ele>196.0</ele><time>2026-04-04T09:03:39Z</time></trkpt><trkpt lat="41.35328073003498" lon="14.363292170265145"><ele>196.0</ele><time>2026-04-04T09:03:40Z</time></trkpt><trkpt lat="41.35327678658072" lon="14.363409558600647"><ele>196.0</ele><time>2026-04-04T09:03:41Z</time></trkpt><trkpt lat="41.353271538130244" lon="14.36352931074046"><ele>195.16666666666666</ele><time>2026-04-04T09:03:42Z</time></trkpt><trkpt lat="41.353256030697715" lon="14.363647674981513"><ele>194.33333333333331</ele><time>2026-04-04T09:03:43Z</time></trkpt><trkpt lat="41.35325217090589" lon="14.363756233473373"><ele>193.5</ele><time>2026-04-04T09:03:44Z</time></trkpt><trkpt lat="41.3532358455803" lon="14.36386207828167"><ele>192.66666666666666</ele><time>2026-04-04T09:03:45Z</time></trkpt><trkpt lat="41.353230276652816" lon="14.36397255025669"><ele>191.83333333333331</ele><time>2026-04-04T09:03:46Z</time></trkpt><trkpt lat="41.35321999515525" lon="14.364077930500503"><ele>191.0</ele><time>2026-04-04T09:03:47Z</time></trkpt><trkpt lat="41.353221955099905" lon="14.364193436995345"><ele>190.8</ele><time>2026-04-04T09:03:48Z</time></trkpt><trkpt lat="41.35322395425753" lon="14.36432752447551"><ele>190.60000000000002</ele><time>2026-04-04T09:03:49Z</time></trkpt><trkpt lat="41.35322095129234" lon="14.364448344911896"><ele>190.4</ele><time>2026-04-04T09:03:50Z</time></trkpt><trkpt lat="41.35321964243205" lon="14.364573754163045"><ele>190.2</ele><time>2026-04-04T09:03:51Z</time></trkpt><trkpt lat="41.35321915088158" lon="14.36471540680447"><ele>190.0</ele><time>2026-04-04T09:03:52Z</time></trkpt><trkpt lat="41.35323564420712" lon="14.364850491283729"><ele>189.4</ele><time>2026-04-04T09:03:53Z</time></trkpt><trkpt lat="41.353254156382285" lon="14.3649824712981"><ele>188.8</ele><time>2026-04-04T09:03:54Z</time></trkpt><trkpt lat="41.35327307928853" lon="14.365103226774261"><ele>188.2</ele><time>2026-04-04T09:03:55Z</time></trkpt><trkpt lat="41.35328719762944" lon="14.365236889268349"><ele>187.6</ele><time>2026-04-04T09:03:56Z</time></trkpt><trkpt lat="41.35331797029245" lon="14.36536176450199"><ele>187.0</ele><time>2026-04-04T09:03:57Z</time></trkpt><trkpt lat="41.353334620979695" lon="14.365474674153283"><ele>186.33333333333334</ele><time>2026-04-04T09:03:58Z</time></trkpt><trkpt lat="41.35334870647021" lon="14.365613704069748"><ele>185.66666666666669</ele><time>2026-04-04T09:03:59Z</time></trkpt><trkpt lat="41.35335412169346" lon="14.365750716205882"><ele>185.0</ele><time>2026-04-04T09:04:00Z</time></trkpt><trkpt lat="41.35337618954726" lon="14.365861963665536"><ele>184.33333333333334</ele><time>2026-04-04T09:04:01Z</time></trkpt><trkpt lat="41.35339124265889" lon="14.36596088115393"><ele>183.66666666666666</ele><time>2026-04-04T09:04:02Z</time></trkpt><trkpt lat="41.35340769079086" lon="14.36605517162946"><ele>183.0</ele><time>2026-04-04T09:04:03Z</time></trkpt><trkpt lat="41.353420893491084" lon="14.366145594642479"><ele>183.0</ele><time>2026-04-04T09:04:04Z</time></trkpt><trkpt lat="41.35343759846031" lon="14.36623312395119"><ele>183.0</ele><time>2026-04-04T09:04:05Z</time></trkpt><trkpt lat="41.35346258947425" lon="14.3663107017376"><ele>183.0</ele><time>2026-04-04T09:04:06Z</time></trkpt><trkpt lat="41.353503337082245" lon="14.366465594270279"><ele>183.0</ele><time>2026-04-04T09:04:08Z</time></trkpt><trkpt lat="41.35352418587449" lon="14.366563110791885"><ele>183.0</ele><time>2026-04-04T09:04:09Z</time></trkpt><trkpt lat="41.353543866850714" lon="14.366662009409078"><ele>183.0</ele><time>2026-04-04T09:04:10Z</time></trkpt><trkpt lat="41.353569258166814" lon="14.36677202299124"><ele>182.16666666666666</ele><time>2026-04-04T09:04:11Z</time></trkpt><trkpt lat="41.35359368077161" lon="14.366871090603743"><ele>181.33333333333334</ele><time>2026-04-04T09:04:12Z</time></trkpt><trkpt lat="41.353611369169236" lon="14.366964034235925"><ele>180.5</ele><time>2026-04-04T09:04:13Z</time></trkpt><trkpt lat="41.35363344445914" lon="14.36706406413737"><ele>179.66666666666669</ele><time>2026-04-04T09:04:14Z</time></trkpt><trkpt lat="41.353662096691956" lon="14.36718048116249"><ele>178.83333333333334</ele><time>2026-04-04T09:04:15Z</time></trkpt><trkpt lat="41.35369187171078" lon="14.36730050343349"><ele>178.0</ele><time>2026-04-04T09:04:16Z</time></trkpt><trkpt lat="41.353726047132" lon="14.367433322811207"><ele>177.5</ele><time>2026-04-04T09:04:17Z</time></trkpt><trkpt lat="41.35375382695537" lon="14.367555121380207"><ele>177.0</ele><time>2026-04-04T09:04:18Z</time></trkpt><trkpt lat="41.35377912914314" lon="14.36766960837647"><ele>176.5</ele><time>2026-04-04T09:04:19Z</time></trkpt><trkpt lat="41.35380195989552" lon="14.367780095682694"><ele>176.0</ele><time>2026-04-04T09:04:20Z</time></trkpt><trkpt lat="41.35382558241517" lon="14.367880641165835"><ele>175.5</ele><time>2026-04-04T09:04:21Z</time></trkpt><trkpt lat="41.353848272640995" lon="14.367984998838935"><ele>175.0</ele><time>2026-04-04T09:04:22Z</time></trkpt><trkpt lat="41.35387770476483" lon="14.368093698829819"><ele>175.0</ele><time>2026-04-04T09:04:23Z</time></trkpt><trkpt lat="41.35390456626731" lon="14.368214864256442"><ele>175.0</ele><time>2026-04-04T09:04:24Z</time></trkpt><trkpt lat="41.353931376240446" lon="14.36832561177006"><ele>175.0</ele><time>2026-04-04T09:04:25Z</time></trkpt><trkpt lat="41.35395325832592" lon="14.368427742432997"><ele>175.0</ele><time>2026-04-04T09:04:26Z</time></trkpt><trkpt lat="41.35397674349592" lon="14.368519495695464"><ele>175.0</ele><time>2026-04-04T09:04:27Z</time></trkpt><trkpt lat="41.35399737182369" lon="14.368610824156095"><ele>175.0</ele><time>2026-04-04T09:04:28Z</time></trkpt><trkpt lat="41.35401692829983" lon="14.36869470239348"><ele>175.0</ele><time>2026-04-04T09:04:29Z</time></trkpt><trkpt lat="41.3540421632558" lon="14.368788096559033"><ele>175.0</ele><time>2026-04-04T09:04:30Z</time></trkpt><trkpt lat="41.3540676700679" lon="14.368898728840371"><ele>175.0</ele><time>2026-04-04T09:04:31Z</time></trkpt><trkpt lat="41.35408727226226" lon="14.369000171645535"><ele>175.0</ele><time>2026-04-04T09:04:32Z</time></trkpt><trkpt lat="41.35410729839247" lon="14.369091617107946"><ele>175.0</ele><time>2026-04-04T09:04:33Z</time></trkpt><trkpt lat="41.354142673295115" lon="14.369205975208743"><ele>175.0</ele><time>2026-04-04T09:04:35Z</time></trkpt><trkpt lat="41.354174237809275" lon="14.3693325933681"><ele>174.6</ele><time>2026-04-04T09:04:37Z</time></trkpt><trkpt lat="41.35419874983948" lon="14.369458823659238"><ele>174.2</ele><time>2026-04-04T09:04:39Z</time></trkpt><trkpt lat="41.35423385115216" lon="14.369586921769457"><ele>173.8</ele><time>2026-04-04T09:04:41Z</time></trkpt><trkpt lat="41.35428872092298" lon="14.369743630992138"><ele>173.4</ele><time>2026-04-04T09:04:43Z</time></trkpt><trkpt lat="41.35432948431227" lon="14.369882725285201"><ele>173.0</ele><time>2026-04-04T09:04:45.001Z</time></trkpt><trkpt lat="41.35438335870105" lon="14.369981275924879"><ele>172.83333333333331</ele><time>2026-04-04T09:04:47.001Z</time></trkpt><trkpt lat="41.35443637856796" lon="14.370072881227948"><ele>172.66666666666666</ele><time>2026-04-04T09:04:49.001Z</time></trkpt><trkpt lat="41.35449623202142" lon="14.3701498513297"><ele>172.5</ele><time>2026-04-04T09:04:51.001Z</time></trkpt><trkpt lat="41.35455843259895" lon="14.370240401772598"><ele>172.33333333333334</ele><time>2026-04-04T09:04:53.001Z</time></trkpt><trkpt lat="41.35462436939535" lon="14.370327624940165"><ele>172.16666666666669</ele><time>2026-04-04T09:04:55.001Z</time></trkpt><trkpt lat="41.354693093483355" lon="14.37039133255448"><ele>172.0</ele><time>2026-04-04T09:04:58Z</time></trkpt><trkpt lat="41.354737938268876" lon="14.37047117738748"><ele>172.0</ele><time>2026-04-04T09:05:03Z</time></trkpt><trkpt lat="41.354765672624744" lon="14.370550198517046"><ele>172.0</ele><time>2026-04-04T09:05:10Z</time></trkpt><trkpt lat="41.35482860202969" lon="14.37055567851846"><ele>172.0</ele><time>2026-04-04T09:05:15Z</time></trkpt><trkpt lat="41.35478376708774" lon="14.370440632607345"><ele>172.0</ele><time>2026-04-04T09:05:19Z</time></trkpt><trkpt lat="41.354703584125225" lon="14.370388005724541"><ele>172.0</ele><time>2026-04-04T09:05:20Z</time></trkpt><trkpt lat="41.354649613132004" lon="14.370332148209632"><ele>172.0</ele><time>2026-04-04T09:05:22Z</time></trkpt><trkpt lat="41.354676548665694" lon="14.370422873753634"><ele>172.0</ele><time>2026-04-04T09:05:41Z</time></trkpt><trkpt lat="41.354732628950266" lon="14.37046484847978"><ele>172.0</ele><time>2026-04-04T09:05:59Z</time></trkpt><trkpt lat="41.35469939510841" lon="14.37038224029603"><ele>172.0</ele><time>2026-04-04T09:06:02Z</time></trkpt><trkpt lat="41.3546475152872" lon="14.370316335720316"><ele>172.0</ele><time>2026-04-04T09:06:03Z</time></trkpt><trkpt lat="41.35458053650332" lon="14.370292010466704"><ele>172.0</ele><time>2026-04-04T09:06:04Z</time></trkpt><trkpt lat="41.35447099006381" lon="14.370228357125566"><ele>172.0</ele><time>2026-04-04T09:06:06Z</time></trkpt><trkpt lat="41.35435667566796" lon="14.370161933290255"><ele>172.25</ele><time>2026-04-04T09:06:08Z</time></trkpt><trkpt lat="41.35425224154586" lon="14.370101250536326"><ele>172.5</ele><time>2026-04-04T09:06:10Z</time></trkpt><trkpt lat="41.35416248653457" lon="14.37004909723348"><ele>172.75</ele><time>2026-04-04T09:06:12Z</time></trkpt><trkpt lat="41.35407335292516" lon="14.369997386379001"><ele>173.0</ele><time>2026-04-04T09:06:15Z</time></trkpt><trkpt lat="41.354200283160544" lon="14.369361715277154"><ele>173.0</ele><time>2026-04-04T09:06:17Z</time></trkpt><trkpt lat="41.35418079140822" lon="14.369231337459883"><ele>173.0</ele><time>2026-04-04T09:06:19Z</time></trkpt><trkpt lat="41.354159342191274" lon="14.369130245662248"><ele>173.0</ele><time>2026-04-04T09:06:21Z</time></trkpt><trkpt lat="41.35411814580479" lon="14.368979106408588"><ele>173.0</ele><time>2026-04-04T09:06:23Z</time></trkpt><trkpt lat="41.35408735623355" lon="14.368840328574482"><ele>173.0</ele><time>2026-04-04T09:06:25Z</time></trkpt><trkpt lat="41.35405731251029" lon="14.368706827705335"><ele>173.33333333333331</ele><time>2026-04-04T09:06:27Z</time></trkpt><trkpt lat="41.35403638195018" lon="14.36862490141514"><ele>173.66666666666666</ele><time>2026-04-04T09:06:28Z</time></trkpt><trkpt lat="41.35407517016383" lon="14.368532457243054"><ele>174.0</ele><time>2026-04-04T09:06:29Z</time></trkpt><trkpt lat="41.354059650496055" lon="14.368441151390787"><ele>174.33333333333334</ele><time>2026-04-04T09:06:31Z</time></trkpt><trkpt lat="41.35403908960912" lon="14.368353730284907"><ele>174.66666666666669</ele><time>2026-04-04T09:06:33Z</time></trkpt><trkpt lat="41.353969916753975" lon="14.368316548005957"><ele>175.0</ele><time>2026-04-04T09:06:35Z</time></trkpt><trkpt lat="41.353897306973046" lon="14.368427269540787"><ele>174.16666666666669</ele><time>2026-04-04T09:06:37Z</time></trkpt><trkpt lat="41.353865668074924" lon="14.368512883386774"><ele>173.33333333333334</ele><time>2026-04-04T09:06:38Z</time></trkpt><trkpt lat="41.35381661403213" lon="14.368611146696187"><ele>172.5</ele><time>2026-04-04T09:06:39Z</time></trkpt><trkpt lat="41.35377047191037" lon="14.368706070104858"><ele>171.66666666666666</ele><time>2026-04-04T09:06:40Z</time></trkpt><trkpt lat="41.3537251872817" lon="14.368793184273004"><ele>170.83333333333331</ele><time>2026-04-04T09:06:41Z</time></trkpt><trkpt lat="41.35367965787359" lon="14.36889622789641"><ele>170.0</ele><time>2026-04-04T09:06:42Z</time></trkpt><trkpt lat="41.35362671580714" lon="14.368985169351497"><ele>169.71428571428572</ele><time>2026-04-04T09:06:43Z</time></trkpt><trkpt lat="41.353589025896106" lon="14.369067123218263"><ele>169.42857142857142</ele><time>2026-04-04T09:06:44Z</time></trkpt><trkpt lat="41.353556538955395" lon="14.369153596096375"><ele>169.14285714285714</ele><time>2026-04-04T09:06:45Z</time></trkpt><trkpt lat="41.35351438610677" lon="14.36921803442928"><ele>168.85714285714286</ele><time>2026-04-04T09:06:46Z</time></trkpt><trkpt lat="41.35347643296603" lon="14.36929205378824"><ele>168.57142857142856</ele><time>2026-04-04T09:06:47Z</time></trkpt><trkpt lat="41.353434009741676" lon="14.369363494009"><ele>168.28571428571428</ele><time>2026-04-04T09:06:48Z</time></trkpt><trkpt lat="41.35339910375918" lon="14.369436909309897"><ele>168.0</ele><time>2026-04-04T09:06:49Z</time></trkpt><trkpt lat="41.353352748848394" lon="14.36955817953285"><ele>168.0</ele><time>2026-04-04T09:06:51Z</time></trkpt><trkpt lat="41.35331190875914" lon="14.369643463762772"><ele>168.0</ele><time>2026-04-04T09:06:57Z</time></trkpt><trkpt lat="41.35317476720439" lon="14.369556026763728"><ele>168.0</ele><time>2026-04-04T09:07:00.001Z</time></trkpt><trkpt lat="41.35311425352949" lon="14.369502908259928"><ele>168.0</ele><time>2026-04-04T09:07:01.001Z</time></trkpt><trkpt lat="41.35298617589523" lon="14.369445584754857"><ele>168.0</ele><time>2026-04-04T09:07:03Z</time></trkpt><trkpt lat="41.35291679768559" lon="14.369398194824344"><ele>166.66666666666666</ele><time>2026-04-04T09:07:04Z</time></trkpt><trkpt lat="41.352835744354245" lon="14.369354435970944"><ele>165.33333333333334</ele><time>2026-04-04T09:07:05Z</time></trkpt><trkpt lat="41.35274685901555" lon="14.369306252176935"><ele>164.0</ele><time>2026-04-04T09:07:06Z</time></trkpt><trkpt lat="41.35265890690326" lon="14.36925602952667"><ele>162.66666666666669</ele><time>2026-04-04T09:07:07Z</time></trkpt><trkpt lat="41.352581735003575" lon="14.369212189306877"><ele>161.33333333333334</ele><time>2026-04-04T09:07:08Z</time></trkpt><trkpt lat="41.35250972040353" lon="14.36917435466663"><ele>160.0</ele><time>2026-04-04T09:07:09Z</time></trkpt><trkpt lat="41.35244557695513" lon="14.369137616711484"><ele>160.0</ele><time>2026-04-04T09:07:10Z</time></trkpt><trkpt lat="41.35238511984017" lon="14.369098457168844"><ele>160.0</ele><time>2026-04-04T09:07:11Z</time></trkpt><trkpt lat="41.35227339714758" lon="14.369039592876534"><ele>160.0</ele><time>2026-04-04T09:07:13Z</time></trkpt><trkpt lat="41.35221222799085" lon="14.369005219303679"><ele>160.0</ele><time>2026-04-04T09:07:14Z</time></trkpt><trkpt lat="41.3521379993295" lon="14.368963493477398"><ele>160.0</ele><time>2026-04-04T09:07:15Z</time></trkpt><trkpt lat="41.35206179697405" lon="14.36892583250699"><ele>160.0</ele><time>2026-04-04T09:07:16Z</time></trkpt><trkpt lat="41.351986125960025" lon="14.368880489209785"><ele>159.83333333333334</ele><time>2026-04-04T09:07:17Z</time></trkpt><trkpt lat="41.35191438144026" lon="14.368838498006781"><ele>159.66666666666669</ele><time>2026-04-04T09:07:18Z</time></trkpt><trkpt lat="41.35184471522845" lon="14.368802543354917"><ele>159.5</ele><time>2026-04-04T09:07:19Z</time></trkpt><trkpt lat="41.35178391681128" lon="14.368770524091753"><ele>159.33333333333334</ele><time>2026-04-04T09:07:20Z</time></trkpt><trkpt lat="41.35167292951352" lon="14.36869238045064"><ele>159.16666666666666</ele><time>2026-04-04T09:07:22Z</time></trkpt><trkpt lat="41.35160111397236" lon="14.368644306787285"><ele>159.0</ele><time>2026-04-04T09:07:23Z</time></trkpt><trkpt lat="41.35152353243757" lon="14.368600618363729"><ele>159.0</ele><time>2026-04-04T09:07:24Z</time></trkpt><trkpt lat="41.35145113126606" lon="14.36856215263933"><ele>159.0</ele><time>2026-04-04T09:07:26Z</time></trkpt><trkpt lat="41.35137371466009" lon="14.368521678949252"><ele>159.0</ele><time>2026-04-04T09:07:34Z</time></trkpt><trkpt lat="41.35128581754947" lon="14.368477254717554"><ele>159.0</ele><time>2026-04-04T09:07:37Z</time></trkpt><trkpt lat="41.35117191347224" lon="14.368428445134176"><ele>159.0</ele><time>2026-04-04T09:07:39Z</time></trkpt><trkpt lat="41.35109799466013" lon="14.368401474407738"><ele>158.85714285714286</ele><time>2026-04-04T09:07:40Z</time></trkpt><trkpt lat="41.35103098121004" lon="14.368372724602972"><ele>158.71428571428572</ele><time>2026-04-04T09:07:41Z</time></trkpt><trkpt lat="41.35096956695865" lon="14.368346468626422"><ele>158.57142857142858</ele><time>2026-04-04T09:07:42Z</time></trkpt><trkpt lat="41.350901887273906" lon="14.368317544546064"><ele>158.42857142857144</ele><time>2026-04-04T09:07:43Z</time></trkpt><trkpt lat="41.350831866650545" lon="14.36829765722425"><ele>158.28571428571428</ele><time>2026-04-04T09:07:44Z</time></trkpt><trkpt lat="41.350751189614435" lon="14.368279768841361"><ele>158.14285714285717</ele><time>2026-04-04T09:07:45Z</time></trkpt><trkpt lat="41.3506636059906" lon="14.368253291311772"><ele>158.0</ele><time>2026-04-04T09:07:46Z</time></trkpt><trkpt lat="41.350579284087964" lon="14.368228180446543"><ele>157.66666666666666</ele><time>2026-04-04T09:07:47Z</time></trkpt><trkpt lat="41.350500444781" lon="14.368199720490724"><ele>157.33333333333331</ele><time>2026-04-04T09:07:48Z</time></trkpt><trkpt lat="41.35042636497962" lon="14.368171601189111"><ele>157.0</ele><time>2026-04-04T09:07:49Z</time></trkpt><trkpt lat="41.35035827230202" lon="14.368144605749547"><ele>156.66666666666666</ele><time>2026-04-04T09:07:50Z</time></trkpt><trkpt lat="41.350295583403415" lon="14.368119433044932"><ele>156.33333333333334</ele><time>2026-04-04T09:07:51Z</time></trkpt><trkpt lat="41.3501811356513" lon="14.368085316516456"><ele>156.0</ele><time>2026-04-04T09:07:53Z</time></trkpt><trkpt lat="41.35013384214288" lon="14.368015731715163"><ele>155.83333333333334</ele><time>2026-04-04T09:07:57Z</time></trkpt><trkpt lat="41.350110556478356" lon="14.36793617115583"><ele>155.66666666666666</ele><time>2026-04-04T09:10:18Z</time></trkpt><trkpt lat="41.35004737389775" lon="14.367906892603292"><ele>155.5</ele><time>2026-04-04T09:12:45Z</time></trkpt><trkpt lat="41.349963356445805" lon="14.36791265806392"><ele>155.33333333333331</ele><time>2026-04-04T09:19:12Z</time></trkpt><trkpt lat="41.34986726628988" lon="14.367900066526175"><ele>155.16666666666666</ele><time>2026-04-04T09:19:45Z</time></trkpt><trkpt lat="41.34975742697973" lon="14.367898352469346"><ele>155.0</ele><time>2026-04-04T09:19:48Z</time></trkpt><trkpt lat="41.349689420598516" lon="14.367940092217712"><ele>154.66666666666666</ele><time>2026-04-04T09:19:50Z</time></trkpt><trkpt lat="41.34959979208747" lon="14.367962128685974"><ele>154.33333333333331</ele><time>2026-04-04T09:19:53Z</time></trkpt><trkpt lat="41.34953420076758" lon="14.367936528791166"><ele>154.0</ele><time>2026-04-04T09:19:54Z</time></trkpt><trkpt lat="41.34946532122042" lon="14.36789688267786"><ele>153.66666666666666</ele><time>2026-04-04T09:19:55Z</time></trkpt><trkpt lat="41.349387146455456" lon="14.367862827068752"><ele>153.33333333333334</ele><time>2026-04-04T09:19:56Z</time></trkpt><trkpt lat="41.34932615157307" lon="14.367739267743888"><ele>153.0</ele><time>2026-04-04T09:19:57Z</time></trkpt><trkpt lat="41.34926192596134" lon="14.36770053416747"><ele>153.0</ele><time>2026-04-04T09:19:58Z</time></trkpt><trkpt lat="41.34919123214232" lon="14.367655831500876"><ele>153.0</ele><time>2026-04-04T09:19:59Z</time></trkpt><trkpt lat="41.34911619852986" lon="14.367605047462536"><ele>153.0</ele><time>2026-04-04T09:20:00Z</time></trkpt><trkpt lat="41.34904895064081" lon="14.367558890692123"><ele>153.0</ele><time>2026-04-04T09:20:01Z</time></trkpt><trkpt lat="41.34897717132379" lon="14.36750872117013"><ele>153.0</ele><time>2026-04-04T09:20:02Z</time></trkpt><trkpt lat="41.348898494370154" lon="14.367453350387104"><ele>153.0</ele><time>2026-04-04T09:20:03Z</time></trkpt><trkpt lat="41.34881929146597" lon="14.367398564463434"><ele>152.5</ele><time>2026-04-04T09:20:04Z</time></trkpt><trkpt lat="41.34874743338614" lon="14.367349767743894"><ele>152.0</ele><time>2026-04-04T09:20:05Z</time></trkpt><trkpt lat="41.348681965407614" lon="14.367306573040787"><ele>151.5</ele><time>2026-04-04T09:20:06Z</time></trkpt><trkpt lat="41.34862237944052" lon="14.367269727789918"><ele>151.0</ele><time>2026-04-04T09:20:07Z</time></trkpt><trkpt lat="41.348521660265554" lon="14.36721377057195"><ele>150.5</ele><time>2026-04-04T09:20:09Z</time></trkpt><trkpt lat="41.348428106264" lon="14.367177328926758"><ele>150.0</ele><time>2026-04-04T09:20:11Z</time></trkpt><trkpt lat="41.348345252313074" lon="14.367157882976976"><ele>150.0</ele><time>2026-04-04T09:20:13Z</time></trkpt><trkpt lat="41.3482942274079" lon="14.36708914170316"><ele>150.0</ele><time>2026-04-04T09:20:15Z</time></trkpt><trkpt lat="41.348205187892816" lon="14.367063164328124"><ele>150.0</ele><time>2026-04-04T09:20:17Z</time></trkpt><trkpt lat="41.34811284237033" lon="14.36697735300101"><ele>150.0</ele><time>2026-04-04T09:20:19Z</time></trkpt><trkpt lat="41.348090234838565" lon="14.36688622279068"><ele>150.0</ele><time>2026-04-04T09:20:20Z</time></trkpt><trkpt lat="41.34802135713546" lon="14.366808086011106"><ele>150.0</ele><time>2026-04-04T09:20:21Z</time></trkpt><trkpt lat="41.347965787748" lon="14.36670793942388"><ele>150.25</ele><time>2026-04-04T09:20:22Z</time></trkpt><trkpt lat="41.34788148072694" lon="14.366593748603837"><ele>150.5</ele><time>2026-04-04T09:20:23Z</time></trkpt><trkpt lat="41.34777235087495" lon="14.366487095348623"><ele>150.75</ele><time>2026-04-04T09:20:24Z</time></trkpt><trkpt lat="41.34770041318455" lon="14.3663920991446"><ele>151.0</ele><time>2026-04-04T09:20:25Z</time></trkpt><trkpt lat="41.347626706345935" lon="14.366313203430336"><ele>150.66666666666669</ele><time>2026-04-04T09:20:26Z</time></trkpt><trkpt lat="41.34754818374467" lon="14.366221532651863"><ele>150.33333333333334</ele><time>2026-04-04T09:20:27Z</time></trkpt><trkpt lat="41.347467308827966" lon="14.36614020432156"><ele>150.0</ele><time>2026-04-04T09:20:28Z</time></trkpt><trkpt lat="41.34739424360669" lon="14.366076102342905"><ele>149.66666666666666</ele><time>2026-04-04T09:20:29Z</time></trkpt><trkpt lat="41.347332141891904" lon="14.36601538993413"><ele>149.33333333333331</ele><time>2026-04-04T09:20:30Z</time></trkpt><trkpt lat="41.34726995071799" lon="14.365962280997064"><ele>149.0</ele><time>2026-04-04T09:20:31Z</time></trkpt><trkpt lat="41.347202841956516" lon="14.365900448482984"><ele>149.0</ele><time>2026-04-04T09:20:32Z</time></trkpt><trkpt lat="41.347135764504856" lon="14.36583567351844"><ele>149.0</ele><time>2026-04-04T09:20:33Z</time></trkpt><trkpt lat="41.34705446697842" lon="14.365767701741014"><ele>149.0</ele><time>2026-04-04T09:20:34Z</time></trkpt><trkpt lat="41.34696565826129" lon="14.365690909876875"><ele>149.0</ele><time>2026-04-04T09:20:35Z</time></trkpt><trkpt lat="41.34687070736866" lon="14.365616650176682"><ele>149.0</ele><time>2026-04-04T09:20:36Z</time></trkpt><trkpt lat="41.3467760336522" lon="14.365528155895513"><ele>148.5</ele><time>2026-04-04T09:20:37Z</time></trkpt><trkpt lat="41.34667393130202" lon="14.36543903196007"><ele>148.0</ele><time>2026-04-04T09:20:38Z</time></trkpt><trkpt lat="41.34656528313047" lon="14.365340260085748"><ele>147.5</ele><time>2026-04-04T09:20:39Z</time></trkpt><trkpt lat="41.34644836417757" lon="14.365240923177025"><ele>147.0</ele><time>2026-04-04T09:20:40Z</time></trkpt><trkpt lat="41.34632785127501" lon="14.365136472537964"><ele>147.0</ele><time>2026-04-04T09:20:41Z</time></trkpt><trkpt lat="41.346191808392156" lon="14.365018850423887"><ele>147.0</ele><time>2026-04-04T09:20:42Z</time></trkpt><trkpt lat="41.3460649682786" lon="14.364908277314703"><ele>147.0</ele><time>2026-04-04T09:20:43Z</time></trkpt><trkpt lat="41.34593959764365" lon="14.364804107811054"><ele>146.0</ele><time>2026-04-04T09:20:44Z</time></trkpt><trkpt lat="41.34580873612407" lon="14.364693073119904"><ele>145.0</ele><time>2026-04-04T09:20:45Z</time></trkpt><trkpt lat="41.34567974465333" lon="14.36457944880579"><ele>144.0</ele><time>2026-04-04T09:20:46Z</time></trkpt><trkpt lat="41.34556112156285" lon="14.364469637153885"><ele>143.75</ele><time>2026-04-04T09:20:47Z</time></trkpt><trkpt lat="41.345453206910726" lon="14.364370387641612"><ele>143.5</ele><time>2026-04-04T09:20:48Z</time></trkpt><trkpt lat="41.34534272731393" lon="14.36428020906395"><ele>143.25</ele><time>2026-04-04T09:20:49Z</time></trkpt><trkpt lat="41.34523133006363" lon="14.364193325960857"><ele>143.0</ele><time>2026-04-04T09:20:50Z</time></trkpt><trkpt lat="41.34512870265708" lon="14.36410905676883"><ele>143.0</ele><time>2026-04-04T09:20:51Z</time></trkpt><trkpt lat="41.34503567162874" lon="14.364028031880894"><ele>143.0</ele><time>2026-04-04T09:20:52Z</time></trkpt><trkpt lat="41.34494711075028" lon="14.363949303507578"><ele>143.0</ele><time>2026-04-04T09:20:53Z</time></trkpt><trkpt lat="41.34484816335773" lon="14.363862160124091"><ele>143.0</ele><time>2026-04-04T09:20:54Z</time></trkpt><trkpt lat="41.34475514796299" lon="14.363786045441156"><ele>143.0</ele><time>2026-04-04T09:20:55Z</time></trkpt><trkpt lat="41.34467451386112" lon="14.363696021895471"><ele>142.8</ele><time>2026-04-04T09:20:56Z</time></trkpt><trkpt lat="41.344585413050304" lon="14.363643961958083"><ele>142.60000000000002</ele><time>2026-04-04T09:20:57Z</time></trkpt><trkpt lat="41.34451130696996" lon="14.36358084660041"><ele>142.39999999999998</ele><time>2026-04-04T09:20:58Z</time></trkpt><trkpt lat="41.34443822008664" lon="14.363519946841096"><ele>142.2</ele><time>2026-04-04T09:20:59Z</time></trkpt><trkpt lat="41.34436585061864" lon="14.363432493744323"><ele>142.0</ele><time>2026-04-04T09:21:00Z</time></trkpt><trkpt lat="41.34427439570347" lon="14.363354412069931"><ele>142.0</ele><time>2026-04-04T09:21:01Z</time></trkpt><trkpt lat="41.34417921884481" lon="14.363273152732996"><ele>142.0</ele><time>2026-04-04T09:21:02Z</time></trkpt><trkpt lat="41.34407527804181" lon="14.36318441091419"><ele>142.0</ele><time>2026-04-04T09:21:03Z</time></trkpt><trkpt lat="41.3439701770775" lon="14.36309467794885"><ele>142.0</ele><time>2026-04-04T09:21:04Z</time></trkpt><trkpt lat="41.34386707764518" lon="14.363005356845985"><ele>141.25</ele><time>2026-04-04T09:21:05Z</time></trkpt><trkpt lat="41.34376493562084" lon="14.362943753317104"><ele>140.5</ele><time>2026-04-04T09:21:06Z</time></trkpt><trkpt lat="41.34367634472259" lon="14.362841170660225"><ele>139.75</ele><time>2026-04-04T09:21:07Z</time></trkpt><trkpt lat="41.34357235179538" lon="14.3627515580124"><ele>139.0</ele><time>2026-04-04T09:21:08Z</time></trkpt><trkpt lat="41.34346525781488" lon="14.362659272976599"><ele>139.0</ele><time>2026-04-04T09:21:09Z</time></trkpt><trkpt lat="41.3433454711707" lon="14.362556050509795"><ele>139.0</ele><time>2026-04-04T09:21:10Z</time></trkpt><trkpt lat="41.34321467501224" lon="14.362443343583148"><ele>139.0</ele><time>2026-04-04T09:21:11Z</time></trkpt><trkpt lat="41.34309865274895" lon="14.362343833485742"><ele>139.0</ele><time>2026-04-04T09:21:12Z</time></trkpt><trkpt lat="41.34298865320598" lon="14.362270154211592"><ele>139.4</ele><time>2026-04-04T09:21:13Z</time></trkpt><trkpt lat="41.34289449619411" lon="14.362184021161159"><ele>139.8</ele><time>2026-04-04T09:21:14Z</time></trkpt><trkpt lat="41.34280447574443" lon="14.36210610643458"><ele>140.2</ele><time>2026-04-04T09:21:15Z</time></trkpt><trkpt lat="41.34272361742515" lon="14.362030058455328"><ele>140.6</ele><time>2026-04-04T09:21:16Z</time></trkpt><trkpt lat="41.342638430464504" lon="14.361959661503532"><ele>141.0</ele><time>2026-04-04T09:21:17Z</time></trkpt><trkpt lat="41.342547247700494" lon="14.361889942084233"><ele>141.0</ele><time>2026-04-04T09:21:18Z</time></trkpt><trkpt lat="41.342463817028566" lon="14.361818219114395"><ele>141.0</ele><time>2026-04-04T09:21:19Z</time></trkpt><trkpt lat="41.34238439118159" lon="14.361748637900858"><ele>141.0</ele><time>2026-04-04T09:21:20Z</time></trkpt><trkpt lat="41.34229889756624" lon="14.361678259738364"><ele>141.0</ele><time>2026-04-04T09:21:21Z</time></trkpt><trkpt lat="41.342211588911894" lon="14.361605128679601"><ele>141.0</ele><time>2026-04-04T09:21:22Z</time></trkpt><trkpt lat="41.34212471204784" lon="14.361506307203356"><ele>140.25</ele><time>2026-04-04T09:21:23Z</time></trkpt><trkpt lat="41.34202214587289" lon="14.361417482273882"><ele>139.5</ele><time>2026-04-04T09:21:24Z</time></trkpt><trkpt lat="41.34191205896444" lon="14.36132267728888"><ele>138.75</ele><time>2026-04-04T09:21:25Z</time></trkpt><trkpt lat="41.341804079429195" lon="14.361229172607038"><ele>138.0</ele><time>2026-04-04T09:21:26Z</time></trkpt><trkpt lat="41.3416748819734" lon="14.361163787696913"><ele>138.0</ele><time>2026-04-04T09:21:27Z</time></trkpt><trkpt lat="41.34156295282617" lon="14.361062305494665"><ele>138.0</ele><time>2026-04-04T09:21:28Z</time></trkpt><trkpt lat="41.341457255327725" lon="14.360967259774126"><ele>138.0</ele><time>2026-04-04T09:21:29Z</time></trkpt><trkpt lat="41.34135839365627" lon="14.36088194484047"><ele>138.0</ele><time>2026-04-04T09:21:30Z</time></trkpt><trkpt lat="41.341253610402234" lon="14.360797117515522"><ele>137.5</ele><time>2026-04-04T09:21:31Z</time></trkpt><trkpt lat="41.341161599418484" lon="14.360670748039798"><ele>137.0</ele><time>2026-04-04T09:21:32Z</time></trkpt><trkpt lat="41.34105601216011" lon="14.360580041080446"><ele>136.5</ele><time>2026-04-04T09:21:33Z</time></trkpt><trkpt lat="41.340951844732736" lon="14.360491863917048"><ele>136.0</ele><time>2026-04-04T09:21:34Z</time></trkpt><trkpt lat="41.3408425855458" lon="14.360399531132828"><ele>136.0</ele><time>2026-04-04T09:21:35Z</time></trkpt><trkpt lat="41.340729298490814" lon="14.360320526254167"><ele>136.0</ele><time>2026-04-04T09:21:36Z</time></trkpt><trkpt lat="41.34063086991736" lon="14.360234607634833"><ele>136.0</ele><time>2026-04-04T09:21:37Z</time></trkpt><trkpt lat="41.340537539436546" lon="14.360159666476042"><ele>136.0</ele><time>2026-04-04T09:21:38Z</time></trkpt><trkpt lat="41.340447564673525" lon="14.360086876709762"><ele>135.5</ele><time>2026-04-04T09:21:39Z</time></trkpt><trkpt lat="41.34036815469966" lon="14.359994709776489"><ele>135.0</ele><time>2026-04-04T09:21:40Z</time></trkpt><trkpt lat="41.34027135062618" lon="14.359911073843051"><ele>134.5</ele><time>2026-04-04T09:21:41Z</time></trkpt><trkpt lat="41.340163273438385" lon="14.359817304184633"><ele>134.0</ele><time>2026-04-04T09:21:42Z</time></trkpt><trkpt lat="41.3400472255435" lon="14.359716744780865"><ele>134.0</ele><time>2026-04-04T09:21:43Z</time></trkpt><trkpt lat="41.33992561819213" lon="14.359611367233844"><ele>134.0</ele><time>2026-04-04T09:21:44Z</time></trkpt><trkpt lat="41.33979439236097" lon="14.359521183719902"><ele>134.0</ele><time>2026-04-04T09:21:45Z</time></trkpt><trkpt lat="41.33966687762563" lon="14.359410163964819"><ele>134.0</ele><time>2026-04-04T09:21:46Z</time></trkpt><trkpt lat="41.339551012073656" lon="14.359288522035712"><ele>133.0</ele><time>2026-04-04T09:21:47Z</time></trkpt><trkpt lat="41.33941657061908" lon="14.359204767361225"><ele>132.0</ele><time>2026-04-04T09:21:48Z</time></trkpt><trkpt lat="41.33929708071292" lon="14.359099328866625"><ele>131.0</ele><time>2026-04-04T09:21:49Z</time></trkpt><trkpt lat="41.33917921974303" lon="14.358991121459772"><ele>130.0</ele><time>2026-04-04T09:21:50Z</time></trkpt><trkpt lat="41.33906177329502" lon="14.358883260562873"><ele>130.25</ele><time>2026-04-04T09:21:51Z</time></trkpt><trkpt lat="41.338942089000035" lon="14.358778450424563"><ele>130.5</ele><time>2026-04-04T09:21:52Z</time></trkpt><trkpt lat="41.338823071414666" lon="14.35867813197561"><ele>130.75</ele><time>2026-04-04T09:21:53Z</time></trkpt><trkpt lat="41.33870747243153" lon="14.358577283877114"><ele>131.0</ele><time>2026-04-04T09:21:54Z</time></trkpt><trkpt lat="41.338601261240925" lon="14.358481752186124"><ele>131.0</ele><time>2026-04-04T09:21:55Z</time></trkpt><trkpt lat="41.338499776474976" lon="14.358390678426552"><ele>131.0</ele><time>2026-04-04T09:21:56Z</time></trkpt><trkpt lat="41.3384040216352" lon="14.358306500449466"><ele>131.0</ele><time>2026-04-04T09:21:57Z</time></trkpt><trkpt lat="41.33830179081532" lon="14.35821983501152"><ele>131.0</ele><time>2026-04-04T09:21:58Z</time></trkpt><trkpt lat="41.33819111695601" lon="14.358126550583961"><ele>131.0</ele><time>2026-04-04T09:21:59Z</time></trkpt><trkpt lat="41.33807531813348" lon="14.358028553469953"><ele>131.0</ele><time>2026-04-04T09:22:00Z</time></trkpt><trkpt lat="41.33795614962124" lon="14.357929811596108"><ele>131.0</ele><time>2026-04-04T09:22:01Z</time></trkpt><trkpt lat="41.337838783014384" lon="14.357829943915446"><ele>131.0</ele><time>2026-04-04T09:22:02Z</time></trkpt><trkpt lat="41.33772054451541" lon="14.357724904654015"><ele>130.0</ele><time>2026-04-04T09:22:03Z</time></trkpt><trkpt lat="41.33759932977719" lon="14.357616196511907"><ele>129.0</ele><time>2026-04-04T09:22:04Z</time></trkpt><trkpt lat="41.33747694402737" lon="14.357508798474166"><ele>128.0</ele><time>2026-04-04T09:22:05Z</time></trkpt><trkpt lat="41.33734739725218" lon="14.357398268555775"><ele>127.0</ele><time>2026-04-04T09:22:06Z</time></trkpt><trkpt lat="41.3372170481735" lon="14.357287936524296"><ele>127.25</ele><time>2026-04-04T09:22:07Z</time></trkpt><trkpt lat="41.33709369911295" lon="14.357184226690633"><ele>127.5</ele><time>2026-04-04T09:22:08Z</time></trkpt><trkpt lat="41.33698071671121" lon="14.357085490391293"><ele>127.75</ele><time>2026-04-04T09:22:09Z</time></trkpt><trkpt lat="41.33687401557576" lon="14.356989638671587"><ele>128.0</ele><time>2026-04-04T09:22:10Z</time></trkpt><trkpt lat="41.336766244376456" lon="14.356895951763843"><ele>128.0</ele><time>2026-04-04T09:22:11Z</time></trkpt><trkpt lat="41.33665554580751" lon="14.356808422901413"><ele>128.0</ele><time>2026-04-04T09:22:12Z</time></trkpt><trkpt lat="41.33653856734801" lon="14.356703962173615"><ele>128.0</ele><time>2026-04-04T09:22:13Z</time></trkpt><trkpt lat="41.33642133850529" lon="14.35660244670881"><ele>128.0</ele><time>2026-04-04T09:22:14Z</time></trkpt><trkpt lat="41.33630034152844" lon="14.356496606276977"><ele>127.25</ele><time>2026-04-04T09:22:15Z</time></trkpt><trkpt lat="41.33617656444257" lon="14.356390759503634"><ele>126.5</ele><time>2026-04-04T09:22:16Z</time></trkpt><trkpt lat="41.336053865898855" lon="14.35628778119962"><ele>125.75</ele><time>2026-04-04T09:22:17Z</time></trkpt><trkpt lat="41.33592584333044" lon="14.356179000893771"><ele>125.0</ele><time>2026-04-04T09:22:18Z</time></trkpt><trkpt lat="41.33579866789406" lon="14.35606939554737"><ele>125.0</ele><time>2026-04-04T09:22:19Z</time></trkpt><trkpt lat="41.33567001287422" lon="14.355957842882482"><ele>125.0</ele><time>2026-04-04T09:22:20Z</time></trkpt><trkpt lat="41.33554093102468" lon="14.355844083378617"><ele>125.0</ele><time>2026-04-04T09:22:21Z</time></trkpt><trkpt lat="41.335416655701096" lon="14.355738566075013"><ele>124.75</ele><time>2026-04-04T09:22:22Z</time></trkpt><trkpt lat="41.33530031184768" lon="14.355634656286865"><ele>124.5</ele><time>2026-04-04T09:22:23Z</time></trkpt><trkpt lat="41.335190719543135" lon="14.355539150597153"><ele>124.25</ele><time>2026-04-04T09:22:24Z</time></trkpt><trkpt lat="41.33508124961809" lon="14.355446293270393"><ele>124.0</ele><time>2026-04-04T09:22:25Z</time></trkpt><trkpt lat="41.33497948497893" lon="14.355360798725565"><ele>124.0</ele><time>2026-04-04T09:22:26Z</time></trkpt><trkpt lat="41.3348846314124" lon="14.355276656734036"><ele>124.0</ele><time>2026-04-04T09:22:27Z</time></trkpt><trkpt lat="41.334793173089004" lon="14.355194617421894"><ele>124.0</ele><time>2026-04-04T09:22:28Z</time></trkpt><trkpt lat="41.33470491792213" lon="14.35511330942335"><ele>124.0</ele><time>2026-04-04T09:22:29Z</time></trkpt><trkpt lat="41.33461907859861" lon="14.355034300781032"><ele>124.0</ele><time>2026-04-04T09:22:30Z</time></trkpt><trkpt lat="41.33453709638095" lon="14.354971897835869"><ele>123.5</ele><time>2026-04-04T09:22:31Z</time></trkpt><trkpt lat="41.33445145562222" lon="14.354895216089757"><ele>123.0</ele><time>2026-04-04T09:22:32Z</time></trkpt><trkpt lat="41.334350974734775" lon="14.354810344821939"><ele>122.5</ele><time>2026-04-04T09:22:33Z</time></trkpt><trkpt lat="41.33424894159945" lon="14.354723228149734"><ele>122.0</ele><time>2026-04-04T09:22:34Z</time></trkpt><trkpt lat="41.334142550539845" lon="14.35462964753792"><ele>122.0</ele><time>2026-04-04T09:22:35Z</time></trkpt><trkpt lat="41.33403014740027" lon="14.354533949804148"><ele>122.0</ele><time>2026-04-04T09:22:36Z</time></trkpt><trkpt lat="41.33392208455747" lon="14.3544393255619"><ele>122.0</ele><time>2026-04-04T09:22:37Z</time></trkpt><trkpt lat="41.33382087942787" lon="14.35435415365664"><ele>122.0</ele><time>2026-04-04T09:22:38Z</time></trkpt><trkpt lat="41.33372333819104" lon="14.354270096087202"><ele>121.6</ele><time>2026-04-04T09:22:39Z</time></trkpt><trkpt lat="41.33362835166536" lon="14.35418653557998"><ele>121.19999999999999</ele><time>2026-04-04T09:22:40Z</time></trkpt><trkpt lat="41.33353328383706" lon="14.354109917879747"><ele>120.8</ele><time>2026-04-04T09:22:41Z</time></trkpt><trkpt lat="41.333439062454566" lon="14.354045462693668"><ele>120.4</ele><time>2026-04-04T09:22:42Z</time></trkpt><trkpt lat="41.33337177577881" lon="14.353969550419661"><ele>120.0</ele><time>2026-04-04T09:22:43Z</time></trkpt><trkpt lat="41.3332928334644" lon="14.3539246148327"><ele>120.2</ele><time>2026-04-04T09:22:44Z</time></trkpt><trkpt lat="41.333239385761715" lon="14.353844475436874"><ele>120.4</ele><time>2026-04-04T09:22:45Z</time></trkpt><trkpt lat="41.33317774675632" lon="14.353767829833968"><ele>120.6</ele><time>2026-04-04T09:22:47Z</time></trkpt><trkpt lat="41.333105376797356" lon="14.353748256923359"><ele>120.8</ele><time>2026-04-04T09:23:40Z</time></trkpt><trkpt lat="41.33300174960625" lon="14.353650530395868"><ele>121.0</ele><time>2026-04-04T09:23:42Z</time></trkpt><trkpt lat="41.33290884216181" lon="14.353573099061872"><ele>120.0</ele><time>2026-04-04T09:23:43Z</time></trkpt><trkpt lat="41.33279987474779" lon="14.35345146076897"><ele>119.0</ele><time>2026-04-04T09:23:44Z</time></trkpt><trkpt lat="41.332653150965186" lon="14.353326195985519"><ele>118.0</ele><time>2026-04-04T09:23:45Z</time></trkpt><trkpt lat="41.33250525229098" lon="14.353206933164172"><ele>118.0</ele><time>2026-04-04T09:23:46Z</time></trkpt><trkpt lat="41.33237781702148" lon="14.353099370692583"><ele>118.0</ele><time>2026-04-04T09:23:47Z</time></trkpt><trkpt lat="41.33226222258532" lon="14.352999755103193"><ele>118.0</ele><time>2026-04-04T09:23:48Z</time></trkpt><trkpt lat="41.332157376060366" lon="14.35290845424159"><ele>118.0</ele><time>2026-04-04T09:23:49Z</time></trkpt><trkpt lat="41.33205073749471" lon="14.352816969639218"><ele>117.66666666666667</ele><time>2026-04-04T09:23:50Z</time></trkpt><trkpt lat="41.33193006387932" lon="14.35271533037571"><ele>117.33333333333334</ele><time>2026-04-04T09:23:51Z</time></trkpt><trkpt lat="41.33180036539435" lon="14.352609926669409"><ele>117.0</ele><time>2026-04-04T09:23:52Z</time></trkpt><trkpt lat="41.33167034810699" lon="14.35249545097417"><ele>117.0</ele><time>2026-04-04T09:23:53Z</time></trkpt><trkpt lat="41.33154396691477" lon="14.352385599003316"><ele>117.0</ele><time>2026-04-04T09:23:54Z</time></trkpt><trkpt lat="41.33141297761489" lon="14.352271906597922"><ele>117.0</ele><time>2026-04-04T09:23:55Z</time></trkpt><trkpt lat="41.33127551800795" lon="14.352159356156639"><ele>117.66666666666666</ele><time>2026-04-04T09:23:56Z</time></trkpt><trkpt lat="41.3311354217806" lon="14.352038440079443"><ele>118.33333333333333</ele><time>2026-04-04T09:23:57Z</time></trkpt><trkpt lat="41.33099872611503" lon="14.351915303747095"><ele>119.0</ele><time>2026-04-04T09:23:58Z</time></trkpt><trkpt lat="41.33085686331203" lon="14.351793108973206"><ele>119.0</ele><time>2026-04-04T09:23:59Z</time></trkpt><trkpt lat="41.33071291496487" lon="14.35167252684863"><ele>119.0</ele><time>2026-04-04T09:24:00Z</time></trkpt><trkpt lat="41.330567710072465" lon="14.351545091939808"><ele>119.0</ele><time>2026-04-04T09:24:01Z</time></trkpt><trkpt lat="41.3304262712543" lon="14.351413792800813"><ele>117.33333333333333</ele><time>2026-04-04T09:24:02Z</time></trkpt><trkpt lat="41.33027579370154" lon="14.351288384405539"><ele>115.66666666666666</ele><time>2026-04-04T09:24:03Z</time></trkpt><trkpt lat="41.33012784663265" lon="14.351164104303754"><ele>114.0</ele><time>2026-04-04T09:24:04Z</time></trkpt><trkpt lat="41.3299739085211" lon="14.351037466903882"><ele>114.0</ele><time>2026-04-04T09:24:05Z</time></trkpt><trkpt lat="41.32982689464431" lon="14.350910286392823"><ele>114.0</ele><time>2026-04-04T09:24:06Z</time></trkpt><trkpt lat="41.329674881268495" lon="14.350778377955466"><ele>114.0</ele><time>2026-04-04T09:24:07Z</time></trkpt><trkpt lat="41.32952705333669" lon="14.350652265332593"><ele>114.0</ele><time>2026-04-04T09:24:08Z</time></trkpt><trkpt lat="41.32937687943681" lon="14.350522409978744"><ele>114.0</ele><time>2026-04-04T09:24:09Z</time></trkpt><trkpt lat="41.32922921370365" lon="14.350394627415854"><ele>114.0</ele><time>2026-04-04T09:24:10Z</time></trkpt><trkpt lat="41.32909896967437" lon="14.350282924029733"><ele>114.0</ele><time>2026-04-04T09:24:11Z</time></trkpt><trkpt lat="41.328973387310384" lon="14.350175785794232"><ele>114.0</ele><time>2026-04-04T09:24:12Z</time></trkpt><trkpt lat="41.328857461625674" lon="14.350076614016437"><ele>114.0</ele><time>2026-04-04T09:24:13Z</time></trkpt><trkpt lat="41.328746597277295" lon="14.349980911979952"><ele>114.0</ele><time>2026-04-04T09:24:14Z</time></trkpt><trkpt lat="41.32864248972537" lon="14.349891218203226"><ele>113.80000000000001</ele><time>2026-04-04T09:24:15Z</time></trkpt><trkpt lat="41.32854550473288" lon="14.34980356825511"><ele>113.60000000000001</ele><time>2026-04-04T09:24:16Z</time></trkpt><trkpt lat="41.328452964652335" lon="14.349721659914314"><ele>113.4</ele><time>2026-04-04T09:24:17Z</time></trkpt><trkpt lat="41.32836361302897" lon="14.349644261130122"><ele>113.2</ele><time>2026-04-04T09:24:18Z</time></trkpt><trkpt lat="41.32827956487337" lon="14.349571565706352"><ele>113.0</ele><time>2026-04-04T09:24:19Z</time></trkpt><trkpt lat="41.32820079031903" lon="14.349503337758478"><ele>113.0</ele><time>2026-04-04T09:24:20Z</time></trkpt><trkpt lat="41.32812601273827" lon="14.349436138965267"><ele>113.00000000000001</ele><time>2026-04-04T09:24:21Z</time></trkpt><trkpt lat="41.3280498590606" lon="14.34937244073387"><ele>113.00000000000001</ele><time>2026-04-04T09:24:22Z</time></trkpt><trkpt lat="41.32795917713508" lon="14.349296980819663"><ele>113.0</ele><time>2026-04-04T09:24:23Z</time></trkpt><trkpt lat="41.32785712413297" lon="14.34921307094265"><ele>113.0</ele><time>2026-04-04T09:24:24Z</time></trkpt><trkpt lat="41.327740519820296" lon="14.349111411417802"><ele>113.0</ele><time>2026-04-04T09:24:25Z</time></trkpt><trkpt lat="41.32761437769796" lon="14.349001170422511"><ele>113.0</ele><time>2026-04-04T09:24:26Z</time></trkpt><trkpt lat="41.32747275818825" lon="14.348880764103136"><ele>113.0</ele><time>2026-04-04T09:24:27Z</time></trkpt><trkpt lat="41.327314339466916" lon="14.348746443474129"><ele>112.66666666666666</ele><time>2026-04-04T09:24:28Z</time></trkpt><trkpt lat="41.32714981350036" lon="14.348605341899397"><ele>112.33333333333334</ele><time>2026-04-04T09:24:29Z</time></trkpt><trkpt lat="41.326987981590314" lon="14.348468271906516"><ele>112.0</ele><time>2026-04-04T09:24:30Z</time></trkpt><trkpt lat="41.32682206602149" lon="14.348328904031533"><ele>112.0</ele><time>2026-04-04T09:24:31Z</time></trkpt><trkpt lat="41.32666921105057" lon="14.348195793576707"><ele>112.0</ele><time>2026-04-04T09:24:32Z</time></trkpt><trkpt lat="41.32650997934733" lon="14.348055942932644"><ele>112.0</ele><time>2026-04-04T09:24:33Z</time></trkpt><trkpt lat="41.32635642027765" lon="14.347925085693541"><ele>111.33333333333334</ele><time>2026-04-04T09:24:34Z</time></trkpt><trkpt lat="41.32620550236576" lon="14.347795322035084"><ele>110.66666666666666</ele><time>2026-04-04T09:24:35Z</time></trkpt><trkpt lat="41.32605449402418" lon="14.347667542495447"><ele>110.0</ele><time>2026-04-04T09:24:36Z</time></trkpt><trkpt lat="41.325915459541285" lon="14.347549479945124"><ele>110.0</ele><time>2026-04-04T09:24:37Z</time></trkpt><trkpt lat="41.325785242214856" lon="14.347434146064039"><ele>110.0</ele><time>2026-04-04T09:24:38Z</time></trkpt><trkpt lat="41.325666679234025" lon="14.34732668499763"><ele>110.0</ele><time>2026-04-04T09:24:39Z</time></trkpt><trkpt lat="41.325553823601325" lon="14.347228687862877"><ele>110.0</ele><time>2026-04-04T09:24:40Z</time></trkpt><trkpt lat="41.325435100999556" lon="14.347129419164245"><ele>110.0</ele><time>2026-04-04T09:24:41Z</time></trkpt><trkpt lat="41.32530818615745" lon="14.34702535421334"><ele>110.0</ele><time>2026-04-04T09:24:42Z</time></trkpt><trkpt lat="41.325181329117065" lon="14.346918389534611"><ele>110.0</ele><time>2026-04-04T09:24:43Z</time></trkpt><trkpt lat="41.32505361131257" lon="14.346808403186403"><ele>110.0</ele><time>2026-04-04T09:24:44Z</time></trkpt><trkpt lat="41.32492482075705" lon="14.34670096267016"><ele>110.0</ele><time>2026-04-04T09:24:45Z</time></trkpt><trkpt lat="41.32479192196159" lon="14.346588648827824"><ele>110.0</ele><time>2026-04-04T09:24:46Z</time></trkpt><trkpt lat="41.324655951030415" lon="14.346471301729514"><ele>109.33333333333333</ele><time>2026-04-04T09:24:47Z</time></trkpt><trkpt lat="41.324522091183866" lon="14.346358535256952"><ele>108.66666666666666</ele><time>2026-04-04T09:24:48Z</time></trkpt><trkpt lat="41.32438366079571" lon="14.346246812711641"><ele>108.0</ele><time>2026-04-04T09:24:49Z</time></trkpt><trkpt lat="41.324242390965594" lon="14.346126766393299"><ele>108.0</ele><time>2026-04-04T09:24:50Z</time></trkpt><trkpt lat="41.3241055263681" lon="14.346006273111152"><ele>108.0</ele><time>2026-04-04T09:24:51Z</time></trkpt><trkpt lat="41.323960899404454" lon="14.345876721045176"><ele>108.0</ele><time>2026-04-04T09:24:52Z</time></trkpt><trkpt lat="41.32381132870807" lon="14.345743964142164"><ele>108.0</ele><time>2026-04-04T09:24:53Z</time></trkpt><trkpt lat="41.32365032697468" lon="14.345611905999672"><ele>108.0</ele><time>2026-04-04T09:24:54Z</time></trkpt><trkpt lat="41.323474482743485" lon="14.345463156263536"><ele>108.0</ele><time>2026-04-04T09:24:55Z</time></trkpt><trkpt lat="41.323315646706455" lon="14.345326012821308"><ele>108.0</ele><time>2026-04-04T09:24:56Z</time></trkpt><trkpt lat="41.32316989193295" lon="14.345198945463274"><ele>108.0</ele><time>2026-04-04T09:24:57Z</time></trkpt><trkpt lat="41.323023647607265" lon="14.34507113813332"><ele>108.0</ele><time>2026-04-04T09:24:58Z</time></trkpt><trkpt lat="41.32287777213933" lon="14.3449453240892"><ele>108.0</ele><time>2026-04-04T09:24:59Z</time></trkpt><trkpt lat="41.322745299479294" lon="14.344833335351108"><ele>108.0</ele><time>2026-04-04T09:25:00Z</time></trkpt><trkpt lat="41.3226149376559" lon="14.344724911060018"><ele>108.0</ele><time>2026-04-04T09:25:01Z</time></trkpt><trkpt lat="41.32249520879315" lon="14.344622759814506"><ele>107.5</ele><time>2026-04-04T09:25:02Z</time></trkpt><trkpt lat="41.322384507339564" lon="14.3445306617896"><ele>107.0</ele><time>2026-04-04T09:25:03Z</time></trkpt><trkpt lat="41.322275612127946" lon="14.344439651173804"><ele>106.5</ele><time>2026-04-04T09:25:04Z</time></trkpt><trkpt lat="41.32217265776818" lon="14.344351001404792"><ele>106.0</ele><time>2026-04-04T09:25:05Z</time></trkpt><trkpt lat="41.32206919222852" lon="14.344260580499991"><ele>106.0</ele><time>2026-04-04T09:25:06Z</time></trkpt><trkpt lat="41.321959388040796" lon="14.344166107706993"><ele>106.0</ele><time>2026-04-04T09:25:07Z</time></trkpt><trkpt lat="41.32184238962419" lon="14.344065679554426"><ele>106.0</ele><time>2026-04-04T09:25:08Z</time></trkpt><trkpt lat="41.321719682167256" lon="14.343964818010722"><ele>106.0</ele><time>2026-04-04T09:25:09Z</time></trkpt><trkpt lat="41.32160475507403" lon="14.343868105700952"><ele>106.0</ele><time>2026-04-04T09:25:10Z</time></trkpt><trkpt lat="41.32150183038945" lon="14.343779027417394"><ele>106.0</ele><time>2026-04-04T09:25:11Z</time></trkpt><trkpt lat="41.32139952301721" lon="14.343694164583749"><ele>106.0</ele><time>2026-04-04T09:25:12Z</time></trkpt><trkpt lat="41.321285549243186" lon="14.343602607258378"><ele>106.0</ele><time>2026-04-04T09:25:13Z</time></trkpt><trkpt lat="41.321157499165366" lon="14.343498431424674"><ele>106.0</ele><time>2026-04-04T09:25:14Z</time></trkpt><trkpt lat="41.32103726259997" lon="14.343391947172782"><ele>106.0</ele><time>2026-04-04T09:25:15Z</time></trkpt><trkpt lat="41.32093315621489" lon="14.343298572532687"><ele>106.0</ele><time>2026-04-04T09:25:16Z</time></trkpt><trkpt lat="41.32085062844453" lon="14.343228665711063"><ele>106.0</ele><time>2026-04-04T09:25:17Z</time></trkpt><trkpt lat="41.320789822473394" lon="14.343178693012012"><ele>106.0</ele><time>2026-04-04T09:25:18Z</time></trkpt><trkpt lat="41.320723670540616" lon="14.343126501568339"><ele>106.0</ele><time>2026-04-04T09:25:19Z</time></trkpt><trkpt lat="41.32064185221413" lon="14.343054538082084"><ele>106.0</ele><time>2026-04-04T09:25:20Z</time></trkpt><trkpt lat="41.32055124527921" lon="14.34297012317178"><ele>106.0</ele><time>2026-04-04T09:25:21Z</time></trkpt><trkpt lat="41.32048948336974" lon="14.342914333948848"><ele>106.0</ele><time>2026-04-04T09:25:23Z</time></trkpt><trkpt lat="41.32039868738251" lon="14.342840252120254"><ele>106.0</ele><time>2026-04-04T09:25:25Z</time></trkpt><trkpt lat="41.32030306999712" lon="14.342759316983054"><ele>105.5</ele><time>2026-04-04T09:25:26Z</time></trkpt><trkpt lat="41.320174133033944" lon="14.342651826957914"><ele>105.0</ele><time>2026-04-04T09:25:27Z</time></trkpt><trkpt lat="41.320058438945125" lon="14.342548999023046"><ele>104.5</ele><time>2026-04-04T09:25:28Z</time></trkpt><trkpt lat="41.31999942654801" lon="14.342489997709489"><ele>104.0</ele><time>2026-04-04T09:25:29Z</time></trkpt><trkpt lat="41.3199167301507" lon="14.342391740716986"><ele>103.99999999999999</ele><time>2026-04-04T09:25:31Z</time></trkpt><trkpt lat="41.31987601138102" lon="14.342271538490794"><ele>104.0</ele><time>2026-04-04T09:25:33Z</time></trkpt><trkpt lat="41.319811967469015" lon="14.342133282149305"><ele>104.0</ele><time>2026-04-04T09:25:35Z</time></trkpt><trkpt lat="41.319751792448876" lon="14.342107197372336"><ele>104.0</ele><time>2026-04-04T09:25:36Z</time></trkpt><trkpt lat="41.319679677458694" lon="14.342105405599725"><ele>103.99999999999999</ele><time>2026-04-04T09:25:37Z</time></trkpt><trkpt lat="41.319622609679065" lon="14.342149802555037"><ele>104.0</ele><time>2026-04-04T09:25:38Z</time></trkpt><trkpt lat="41.31959162876722" lon="14.342290758061143"><ele>103.80000000000001</ele><time>2026-04-04T09:25:40Z</time></trkpt><trkpt lat="41.319580954791455" lon="14.342383059730226"><ele>103.60000000000001</ele><time>2026-04-04T09:25:41Z</time></trkpt><trkpt lat="41.31954417349634" lon="14.342486635001492"><ele>103.4</ele><time>2026-04-04T09:25:42Z</time></trkpt><trkpt lat="41.31947834707329" lon="14.342603439750304"><ele>103.2</ele><time>2026-04-04T09:25:43Z</time></trkpt><trkpt lat="41.319411484010054" lon="14.3426882911862"><ele>103.0</ele><time>2026-04-04T09:25:44Z</time></trkpt><trkpt lat="41.31933326206647" lon="14.342762578816384"><ele>103.0</ele><time>2026-04-04T09:25:46Z</time></trkpt><trkpt lat="41.31926896766792" lon="14.342847915232007"><ele>103.0</ele><time>2026-04-04T09:25:49Z</time></trkpt><trkpt lat="41.319186734032236" lon="14.342958057456249"><ele>103.0</ele><time>2026-04-04T09:25:50Z</time></trkpt><trkpt lat="41.31905692612934" lon="14.343088660909592"><ele>103.0</ele><time>2026-04-04T09:25:51Z</time></trkpt><trkpt lat="41.318889565365744" lon="14.343264711689985"><ele>102.5</ele><time>2026-04-04T09:25:52Z</time></trkpt><trkpt lat="41.31870148514299" lon="14.343484778397725"><ele>102.0</ele><time>2026-04-04T09:25:53Z</time></trkpt><trkpt lat="41.31852048626302" lon="14.343695994627309"><ele>102.0</ele><time>2026-04-04T09:25:54Z</time></trkpt><trkpt lat="41.31836027149921" lon="14.343877830242281"><ele>102.0</ele><time>2026-04-04T09:25:55Z</time></trkpt><trkpt lat="41.31821299352516" lon="14.34405043890776"><ele>102.0</ele><time>2026-04-04T09:25:56Z</time></trkpt><trkpt lat="41.31807353847097" lon="14.344212003172581"><ele>101.66666666666666</ele><time>2026-04-04T09:25:57Z</time></trkpt><trkpt lat="41.31794249335886" lon="14.344362690648895"><ele>101.33333333333333</ele><time>2026-04-04T09:25:58Z</time></trkpt><trkpt lat="41.317819007043155" lon="14.34450084480237"><ele>101.0</ele><time>2026-04-04T09:25:59Z</time></trkpt><trkpt lat="41.3177040093196" lon="14.344628418483873"><ele>101.0</ele><time>2026-04-04T09:26:00Z</time></trkpt><trkpt lat="41.317595322501035" lon="14.344754216428969"><ele>101.0</ele><time>2026-04-04T09:26:01Z</time></trkpt><trkpt lat="41.317487848159224" lon="14.344886763742291"><ele>101.0</ele><time>2026-04-04T09:26:02Z</time></trkpt><trkpt lat="41.31738437168983" lon="14.345012549734482"><ele>101.0</ele><time>2026-04-04T09:26:03Z</time></trkpt><trkpt lat="41.31727693932277" lon="14.345133795396292"><ele>101.0</ele><time>2026-04-04T09:26:04Z</time></trkpt><trkpt lat="41.31716630709786" lon="14.345260595394075"><ele>101.0</ele><time>2026-04-04T09:26:05Z</time></trkpt><trkpt lat="41.317049237754254" lon="14.345394849687729"><ele>101.0</ele><time>2026-04-04T09:26:06Z</time></trkpt><trkpt lat="41.31693161915326" lon="14.345529640635775"><ele>101.66666666666666</ele><time>2026-04-04T09:26:07Z</time></trkpt><trkpt lat="41.31681332333331" lon="14.3456676699553"><ele>102.33333333333334</ele><time>2026-04-04T09:26:08Z</time></trkpt><trkpt lat="41.31669337660381" lon="14.345803528306371"><ele>103.0</ele><time>2026-04-04T09:26:09Z</time></trkpt><trkpt lat="41.316576007741375" lon="14.345941751505075"><ele>103.0</ele><time>2026-04-04T09:26:10Z</time></trkpt><trkpt lat="41.316463951842856" lon="14.346072484374256"><ele>103.0</ele><time>2026-04-04T09:26:11Z</time></trkpt><trkpt lat="41.316361752165705" lon="14.346189287043236"><ele>103.0</ele><time>2026-04-04T09:26:12Z</time></trkpt><trkpt lat="41.31627024710084" lon="14.346292328641498"><ele>103.0</ele><time>2026-04-04T09:26:13Z</time></trkpt><trkpt lat="41.31618623172881" lon="14.346390275785513"><ele>102.5</ele><time>2026-04-04T09:26:14Z</time></trkpt><trkpt lat="41.316101328285484" lon="14.346490200353017"><ele>102.0</ele><time>2026-04-04T09:26:15Z</time></trkpt><trkpt lat="41.316004800595785" lon="14.346599300056207"><ele>101.5</ele><time>2026-04-04T09:26:16Z</time></trkpt><trkpt lat="41.3159050597068" lon="14.346712842500326"><ele>101.0</ele><time>2026-04-04T09:26:17Z</time></trkpt><trkpt lat="41.315804139773654" lon="14.346830470883301"><ele>101.0</ele><time>2026-04-04T09:26:18Z</time></trkpt><trkpt lat="41.315697350565664" lon="14.34695242621107"><ele>101.0</ele><time>2026-04-04T09:26:19Z</time></trkpt><trkpt lat="41.31558398899776" lon="14.347080950826998"><ele>101.0</ele><time>2026-04-04T09:26:20Z</time></trkpt><trkpt lat="41.31548088566642" lon="14.34719545391775"><ele>101.0</ele><time>2026-04-04T09:26:21Z</time></trkpt><trkpt lat="41.315381836131294" lon="14.347311004491317"><ele>100.66666666666666</ele><time>2026-04-04T09:26:22Z</time></trkpt><trkpt lat="41.31527357580132" lon="14.34742161891279"><ele>100.33333333333334</ele><time>2026-04-04T09:26:23Z</time></trkpt><trkpt lat="41.31513963309997" lon="14.347518501903373"><ele>100.0</ele><time>2026-04-04T09:26:24Z</time></trkpt><trkpt lat="41.31495848642594" lon="14.347598062229286"><ele>100.0</ele><time>2026-04-04T09:26:25Z</time></trkpt><trkpt lat="41.31473137512531" lon="14.347665445359045"><ele>100.0</ele><time>2026-04-04T09:26:26Z</time></trkpt><trkpt lat="41.31446161010096" lon="14.347744789698417"><ele>100.0</ele><time>2026-04-04T09:26:27Z</time></trkpt><trkpt lat="41.31414846506774" lon="14.347849324707708"><ele>100.0</ele><time>2026-04-04T09:26:28Z</time></trkpt><trkpt lat="41.313840498635656" lon="14.347958701406336"><ele>98.5</ele><time>2026-04-04T09:26:29Z</time></trkpt><trkpt lat="41.3135121217037" lon="14.348069092154342"><ele>97.0</ele><time>2026-04-04T09:26:30Z</time></trkpt><trkpt lat="41.313380993582946" lon="14.34809102085259"><ele>97.0</ele><time>2026-04-04T09:26:31Z</time></trkpt><trkpt lat="41.31311840027" lon="14.348166703417991"><ele>97.0</ele><time>2026-04-04T09:26:32Z</time></trkpt><trkpt lat="41.312876321145666" lon="14.348252195883195"><ele>97.5</ele><time>2026-04-04T09:26:33Z</time></trkpt><trkpt lat="41.31265267171881" lon="14.348331183689536"><ele>98.0</ele><time>2026-04-04T09:26:34Z</time></trkpt><trkpt lat="41.312438824221076" lon="14.348399039137854"><ele>97.33333333333333</ele><time>2026-04-04T09:26:35Z</time></trkpt><trkpt lat="41.312226704372115" lon="14.348470040729138"><ele>96.66666666666666</ele><time>2026-04-04T09:26:36Z</time></trkpt><trkpt lat="41.31201915255873" lon="14.348542749354513"><ele>96.0</ele><time>2026-04-04T09:26:37Z</time></trkpt><trkpt lat="41.311814148699185" lon="14.348609695936034"><ele>96.0</ele><time>2026-04-04T09:26:38Z</time></trkpt><trkpt lat="41.31162703236993" lon="14.348668209012388"><ele>96.0</ele><time>2026-04-04T09:26:39Z</time></trkpt><trkpt lat="41.3114522488159" lon="14.348718526089753"><ele>96.0</ele><time>2026-04-04T09:26:40Z</time></trkpt><trkpt lat="41.31128264353625" lon="14.348764764100187"><ele>95.66666666666667</ele><time>2026-04-04T09:26:41Z</time></trkpt><trkpt lat="41.311117735428645" lon="14.348823353356387"><ele>95.33333333333334</ele><time>2026-04-04T09:26:42Z</time></trkpt><trkpt lat="41.310951279517916" lon="14.34887822295992"><ele>95.0</ele><time>2026-04-04T09:26:43Z</time></trkpt><trkpt lat="41.31078083786934" lon="14.34893506641545"><ele>95.0</ele><time>2026-04-04T09:26:44Z</time></trkpt><trkpt lat="41.31061735562054" lon="14.348998921702488"><ele>95.0</ele><time>2026-04-04T09:26:45Z</time></trkpt><trkpt lat="41.31042896773576" lon="14.349043923276135"><ele>95.0</ele><time>2026-04-04T09:26:46Z</time></trkpt><trkpt lat="41.31019210583654" lon="14.349119157160194"><ele>95.0</ele><time>2026-04-04T09:26:47Z</time></trkpt><trkpt lat="41.309974618476865" lon="14.349205409516113"><ele>95.0</ele><time>2026-04-04T09:26:48Z</time></trkpt><trkpt lat="41.309779527996696" lon="14.34925514825804"><ele>95.0</ele><time>2026-04-04T09:26:49Z</time></trkpt><trkpt lat="41.30961612546065" lon="14.349309448351153"><ele>95.0</ele><time>2026-04-04T09:26:50Z</time></trkpt><trkpt lat="41.309483629195185" lon="14.349357391161863"><ele>95.0</ele><time>2026-04-04T09:26:51Z</time></trkpt><trkpt lat="41.309351819808" lon="14.349405019372703"><ele>95.0</ele><time>2026-04-04T09:26:52Z</time></trkpt><trkpt lat="41.309162192090504" lon="14.349451958561236"><ele>94.0</ele><time>2026-04-04T09:26:53Z</time></trkpt><trkpt lat="41.308907274363136" lon="14.34953396465984"><ele>93.0</ele><time>2026-04-04T09:26:54Z</time></trkpt><trkpt lat="41.308624514790594" lon="14.349633947468487"><ele>93.5</ele><time>2026-04-04T09:26:55Z</time></trkpt><trkpt lat="41.30831684747547" lon="14.349726367663294"><ele>94.0</ele><time>2026-04-04T09:26:56Z</time></trkpt><trkpt lat="41.30798956776105" lon="14.349835143118552"><ele>95.0</ele><time>2026-04-04T09:26:57Z</time></trkpt><trkpt lat="41.30765494195782" lon="14.34994629606631"><ele>96.0</ele><time>2026-04-04T09:26:58Z</time></trkpt><trkpt lat="41.30730257858625" lon="14.350059965494951"><ele>94.0</ele><time>2026-04-04T09:26:59Z</time></trkpt><trkpt lat="41.306959218442444" lon="14.350168930097023"><ele>92.0</ele><time>2026-04-04T09:27:00Z</time></trkpt><trkpt lat="41.306652591696796" lon="14.350269733560403"><ele>91.0</ele><time>2026-04-04T09:27:01Z</time></trkpt><trkpt lat="41.30637166933818" lon="14.350361295182335"><ele>90.0</ele><time>2026-04-04T09:27:02Z</time></trkpt><trkpt lat="41.30611133690424" lon="14.35044870928642"><ele>90.0</ele><time>2026-04-04T09:27:03Z</time></trkpt><trkpt lat="41.305883649811776" lon="14.35052845262176"><ele>90.0</ele><time>2026-04-04T09:27:04Z</time></trkpt><trkpt lat="41.305621985940036" lon="14.350608853508048"><ele>90.5</ele><time>2026-04-04T09:27:05Z</time></trkpt><trkpt lat="41.30538767024122" lon="14.350685049617528"><ele>91.0</ele><time>2026-04-04T09:27:06Z</time></trkpt><trkpt lat="41.30516310588276" lon="14.350761220017498"><ele>91.0</ele><time>2026-04-04T09:27:07Z</time></trkpt><trkpt lat="41.30496556363278" lon="14.350830103772537"><ele>91.0</ele><time>2026-04-04T09:27:08Z</time></trkpt><trkpt lat="41.304785609891454" lon="14.350896293789733"><ele>91.0</ele><time>2026-04-04T09:27:09Z</time></trkpt><trkpt lat="41.304596187005764" lon="14.350959934013531"><ele>90.0</ele><time>2026-04-04T09:27:10Z</time></trkpt><trkpt lat="41.304370945117384" lon="14.351020260482764"><ele>89.0</ele><time>2026-04-04T09:27:11Z</time></trkpt><trkpt lat="41.304118523027306" lon="14.351081663587758"><ele>89.5</ele><time>2026-04-04T09:27:12Z</time></trkpt><trkpt lat="41.30385724568407" lon="14.35115751090622"><ele>90.0</ele><time>2026-04-04T09:27:13Z</time></trkpt><trkpt lat="41.303583801810035" lon="14.351246907389571"><ele>90.0</ele><time>2026-04-04T09:27:14Z</time></trkpt><trkpt lat="41.30332997496225" lon="14.351335736126964"><ele>90.0</ele><time>2026-04-04T09:27:15Z</time></trkpt><trkpt lat="41.30310159637414" lon="14.351413587260042"><ele>89.66666666666667</ele><time>2026-04-04T09:27:16Z</time></trkpt><trkpt lat="41.302879998432736" lon="14.351482826174367"><ele>89.33333333333334</ele><time>2026-04-04T09:27:17Z</time></trkpt><trkpt lat="41.302664495782906" lon="14.351548511887133"><ele>89.0</ele><time>2026-04-04T09:27:18Z</time></trkpt><trkpt lat="41.30244504228284" lon="14.351619499196008"><ele>89.0</ele><time>2026-04-04T09:27:19Z</time></trkpt><trkpt lat="41.302220200117745" lon="14.351696235997395"><ele>89.0</ele><time>2026-04-04T09:27:20Z</time></trkpt><trkpt lat="41.3019852379953" lon="14.351773264916476"><ele>89.0</ele><time>2026-04-04T09:27:21Z</time></trkpt><trkpt lat="41.301755515201755" lon="14.351845428913832"><ele>89.0</ele><time>2026-04-04T09:27:22Z</time></trkpt><trkpt lat="41.301540065952786" lon="14.351916990319477"><ele>88.66666666666667</ele><time>2026-04-04T09:27:23Z</time></trkpt><trkpt lat="41.30134205682868" lon="14.351988959097628"><ele>88.33333333333333</ele><time>2026-04-04T09:27:24Z</time></trkpt><trkpt lat="41.30115441161821" lon="14.352055852850405"><ele>88.0</ele><time>2026-04-04T09:27:25Z</time></trkpt><trkpt lat="41.30096753146461" lon="14.352119461190822"><ele>88.0</ele><time>2026-04-04T09:27:26Z</time></trkpt><trkpt lat="41.30077120222906" lon="14.352187002419099"><ele>88.0</ele><time>2026-04-04T09:27:27Z</time></trkpt><trkpt lat="41.30056036099823" lon="14.352256066188023"><ele>88.0</ele><time>2026-04-04T09:27:28Z</time></trkpt><trkpt lat="41.300341548295656" lon="14.352324685713151"><ele>88.0</ele><time>2026-04-04T09:27:29Z</time></trkpt><trkpt lat="41.30011702648618" lon="14.352392357609359"><ele>88.0</ele><time>2026-04-04T09:27:30Z</time></trkpt><trkpt lat="41.29987920313421" lon="14.352467589031937"><ele>87.5</ele><time>2026-04-04T09:27:31Z</time></trkpt><trkpt lat="41.299646773981884" lon="14.352545325713793"><ele>87.0</ele><time>2026-04-04T09:27:32Z</time></trkpt><trkpt lat="41.29943063395591" lon="14.352616543219302"><ele>87.0</ele><time>2026-04-04T09:27:33Z</time></trkpt><trkpt lat="41.299222928345706" lon="14.352683327915635"><ele>87.0</ele><time>2026-04-04T09:27:34Z</time></trkpt><trkpt lat="41.29901770916102" lon="14.352749991028372"><ele>87.0</ele><time>2026-04-04T09:27:35Z</time></trkpt><trkpt lat="41.29881001383182" lon="14.352818754654422"><ele>86.33333333333333</ele><time>2026-04-04T09:27:36Z</time></trkpt><trkpt lat="41.29860928926466" lon="14.352886453513511"><ele>85.66666666666666</ele><time>2026-04-04T09:27:37Z</time></trkpt><trkpt lat="41.29840929595407" lon="14.35295262944396"><ele>85.0</ele><time>2026-04-04T09:27:38Z</time></trkpt><trkpt lat="41.29821694039657" lon="14.353015033968287"><ele>85.33333333333333</ele><time>2026-04-04T09:27:39Z</time></trkpt><trkpt lat="41.29803769051914" lon="14.353071830404177"><ele>85.66666666666667</ele><time>2026-04-04T09:27:40Z</time></trkpt><trkpt lat="41.297860566375086" lon="14.353124840319392"><ele>86.0</ele><time>2026-04-04T09:27:41Z</time></trkpt><trkpt lat="41.297684264952345" lon="14.353180245052476"><ele>86.0</ele><time>2026-04-04T09:27:42Z</time></trkpt><trkpt lat="41.29750668057998" lon="14.353240408208524"><ele>86.0</ele><time>2026-04-04T09:27:43Z</time></trkpt><trkpt lat="41.29732562661696" lon="14.353301918238353"><ele>86.0</ele><time>2026-04-04T09:27:44Z</time></trkpt><trkpt lat="41.29714552325438" lon="14.353361262615294"><ele>85.0</ele><time>2026-04-04T09:27:45Z</time></trkpt><trkpt lat="41.29696208274763" lon="14.353421178396085"><ele>84.0</ele><time>2026-04-04T09:27:46Z</time></trkpt><trkpt lat="41.29677789483622" lon="14.353479908009952"><ele>83.0</ele><time>2026-04-04T09:27:47Z</time></trkpt><trkpt lat="41.296581968995135" lon="14.353541044088551"><ele>82.0</ele><time>2026-04-04T09:27:48Z</time></trkpt><trkpt lat="41.296361790285715" lon="14.35361249501465"><ele>81.0</ele><time>2026-04-04T09:27:49Z</time></trkpt><trkpt lat="41.296152071507656" lon="14.353680158963577"><ele>80.0</ele><time>2026-04-04T09:27:50Z</time></trkpt><trkpt lat="41.29596146976035" lon="14.35374077800617"><ele>80.0</ele><time>2026-04-04T09:27:51Z</time></trkpt><trkpt lat="41.29578693408696" lon="14.353799031040223"><ele>80.0</ele><time>2026-04-04T09:27:52Z</time></trkpt><trkpt lat="41.29563938034329" lon="14.353852202375778"><ele>80.0</ele><time>2026-04-04T09:27:53Z</time></trkpt><trkpt lat="41.29552593745955" lon="14.353892345574709"><ele>80.4</ele><time>2026-04-04T09:27:54Z</time></trkpt><trkpt lat="41.29543986135249" lon="14.353912792368307"><ele>80.8</ele><time>2026-04-04T09:27:55Z</time></trkpt><trkpt lat="41.295369198718035" lon="14.353917686337299"><ele>81.19999999999999</ele><time>2026-04-04T09:27:56Z</time></trkpt><trkpt lat="41.29524240264815" lon="14.353829808758322"><ele>81.6</ele><time>2026-04-04T09:27:58Z</time></trkpt><trkpt lat="41.29516054620497" lon="14.353761355415488"><ele>82.0</ele><time>2026-04-04T09:27:59Z</time></trkpt><trkpt lat="41.295072201214445" lon="14.353722278513926"><ele>82.0</ele><time>2026-04-04T09:28:00Z</time></trkpt><trkpt lat="41.29498472348587" lon="14.353736239509683"><ele>82.0</ele><time>2026-04-04T09:28:01Z</time></trkpt><trkpt lat="41.294909005134684" lon="14.353791261549286"><ele>82.0</ele><time>2026-04-04T09:28:02Z</time></trkpt><trkpt lat="41.29483680664731" lon="14.35388404920202"><ele>82.0</ele><time>2026-04-04T09:28:03Z</time></trkpt><trkpt lat="41.29478072034693" lon="14.353995698382205"><ele>82.0</ele><time>2026-04-04T09:28:04Z</time></trkpt><trkpt lat="41.29474640130842" lon="14.354095300160001"><ele>82.19999999999999</ele><time>2026-04-04T09:28:05Z</time></trkpt><trkpt lat="41.2946780763755" lon="14.354157806496003"><ele>82.4</ele><time>2026-04-04T09:28:06Z</time></trkpt><trkpt lat="41.29457605742355" lon="14.354188973982723"><ele>82.6</ele><time>2026-04-04T09:28:07Z</time></trkpt><trkpt lat="41.294455460440865" lon="14.354215204146744"><ele>82.80000000000001</ele><time>2026-04-04T09:28:08Z</time></trkpt><trkpt lat="41.29433346759351" lon="14.354257815933483"><ele>83.0</ele><time>2026-04-04T09:28:09Z</time></trkpt><trkpt lat="41.29421304197436" lon="14.354298049010412"><ele>83.0</ele><time>2026-04-04T09:28:10Z</time></trkpt><trkpt lat="41.2940782099518" lon="14.354342104231126"><ele>83.0</ele><time>2026-04-04T09:28:11Z</time></trkpt><trkpt lat="41.293925880139916" lon="14.354386552134395"><ele>83.0</ele><time>2026-04-04T09:28:12Z</time></trkpt><trkpt lat="41.293779164208374" lon="14.354440037605738"><ele>83.0</ele><time>2026-04-04T09:28:13Z</time></trkpt><trkpt lat="41.29362467936845" lon="14.354484273740933"><ele>82.66666666666667</ele><time>2026-04-04T09:28:14Z</time></trkpt><trkpt lat="41.293457939844025" lon="14.354543044806318"><ele>82.33333333333333</ele><time>2026-04-04T09:28:15Z</time></trkpt><trkpt lat="41.29324965970341" lon="14.354617514631778"><ele>82.0</ele><time>2026-04-04T09:28:16Z</time></trkpt><trkpt lat="41.29299966076755" lon="14.354691261026028"><ele>81.0</ele><time>2026-04-04T09:28:17Z</time></trkpt><trkpt lat="41.29272086333338" lon="14.354800373015324"><ele>80.0</ele><time>2026-04-04T09:28:18Z</time></trkpt><trkpt lat="41.292440742973234" lon="14.3548707370031"><ele>79.5</ele><time>2026-04-04T09:28:19Z</time></trkpt><trkpt lat="41.29207121360952" lon="14.354987136994326"><ele>79.0</ele><time>2026-04-04T09:28:20Z</time></trkpt><trkpt lat="41.291725237345545" lon="14.355099261834471"><ele>79.0</ele><time>2026-04-04T09:28:21Z</time></trkpt><trkpt lat="41.291375132048685" lon="14.355218192373002"><ele>79.0</ele><time>2026-04-04T09:28:22Z</time></trkpt><trkpt lat="41.2910589934425" lon="14.355317017615354"><ele>79.0</ele><time>2026-04-04T09:28:23Z</time></trkpt><trkpt lat="41.290767745137074" lon="14.355410906553676"><ele>79.0</ele><time>2026-04-04T09:28:24Z</time></trkpt><trkpt lat="41.29050117172723" lon="14.355497194918787"><ele>79.5</ele><time>2026-04-04T09:28:25Z</time></trkpt><trkpt lat="41.2902717215476" lon="14.355579029112711"><ele>80.0</ele><time>2026-04-04T09:28:26Z</time></trkpt><trkpt lat="41.29003266815316" lon="14.355660316229514"><ele>80.0</ele><time>2026-04-04T09:28:27Z</time></trkpt><trkpt lat="41.28976872121072" lon="14.355737926585247"><ele>80.0</ele><time>2026-04-04T09:28:28Z</time></trkpt><trkpt lat="41.28954693780036" lon="14.355810258382528"><ele>80.0</ele><time>2026-04-04T09:28:29Z</time></trkpt><trkpt lat="41.28934243896452" lon="14.355878131414329"><ele>80.0</ele><time>2026-04-04T09:28:30Z</time></trkpt><trkpt lat="41.289155416493124" lon="14.355939631829848"><ele>80.0</ele><time>2026-04-04T09:28:31Z</time></trkpt><trkpt lat="41.28899708530013" lon="14.35599061225621"><ele>79.2</ele><time>2026-04-04T09:28:32Z</time></trkpt><trkpt lat="41.28888407738218" lon="14.356027326422668"><ele>78.4</ele><time>2026-04-04T09:28:33Z</time></trkpt><trkpt lat="41.28879685547381" lon="14.356050884468242"><ele>77.6</ele><time>2026-04-04T09:28:34Z</time></trkpt><trkpt lat="41.288712909813455" lon="14.356053788481281"><ele>76.8</ele><time>2026-04-04T09:28:35Z</time></trkpt><trkpt lat="41.28861935965203" lon="14.35601461908176"><ele>76.0</ele><time>2026-04-04T09:28:36Z</time></trkpt><trkpt lat="41.28853728579509" lon="14.355936907450763"><ele>76.0</ele><time>2026-04-04T09:28:37Z</time></trkpt><trkpt lat="41.2884608893682" lon="14.355888618534463"><ele>76.0</ele><time>2026-04-04T09:28:38Z</time></trkpt><trkpt lat="41.288378396711195" lon="14.355879702599461"><ele>76.0</ele><time>2026-04-04T09:28:39Z</time></trkpt><trkpt lat="41.28828715890437" lon="14.355924272682254"><ele>76.0</ele><time>2026-04-04T09:28:40Z</time></trkpt><trkpt lat="41.28820823361988" lon="14.3560140077028"><ele>76.0</ele><time>2026-04-04T09:28:41Z</time></trkpt><trkpt lat="41.28815178734856" lon="14.356138057610679"><ele>76.0</ele><time>2026-04-04T09:28:42Z</time></trkpt><trkpt lat="41.28812900053147" lon="14.356267045922747"><ele>76.0</ele><time>2026-04-04T09:28:43Z</time></trkpt><trkpt lat="41.288132812720896" lon="14.356370618310722"><ele>76.0</ele><time>2026-04-04T09:28:44Z</time></trkpt><trkpt lat="41.28792000897508" lon="14.356370707090267"><ele>76.0</ele><time>2026-04-04T09:28:45Z</time></trkpt><trkpt lat="41.28777008215543" lon="14.356426398480567"><ele>76.33333333333333</ele><time>2026-04-04T09:28:46Z</time></trkpt><trkpt lat="41.287576482830296" lon="14.356483979106763"><ele>76.66666666666667</ele><time>2026-04-04T09:28:47Z</time></trkpt><trkpt lat="41.28733848692149" lon="14.35656809741154"><ele>77.0</ele><time>2026-04-04T09:28:48Z</time></trkpt><trkpt lat="41.287077228056766" lon="14.356655106421275"><ele>76.0</ele><time>2026-04-04T09:28:49Z</time></trkpt><trkpt lat="41.28680216869409" lon="14.356744608954111"><ele>75.0</ele><time>2026-04-04T09:28:50Z</time></trkpt><trkpt lat="41.28650548062274" lon="14.356841628497799"><ele>75.0</ele><time>2026-04-04T09:28:51Z</time></trkpt><trkpt lat="41.286203262929504" lon="14.356940821069609"><ele>75.0</ele><time>2026-04-04T09:28:52Z</time></trkpt><trkpt lat="41.28587443818847" lon="14.35704979013597"><ele>74.5</ele><time>2026-04-04T09:28:53Z</time></trkpt><trkpt lat="41.28553524655212" lon="14.357157221838303"><ele>74.0</ele><time>2026-04-04T09:28:54Z</time></trkpt><trkpt lat="41.28519039620383" lon="14.357267608946778"><ele>73.0</ele><time>2026-04-04T09:28:55Z</time></trkpt><trkpt lat="41.28485670025448" lon="14.357377656791359"><ele>72.0</ele><time>2026-04-04T09:28:56Z</time></trkpt><trkpt lat="41.28453504692708" lon="14.357480785442709"><ele>72.0</ele><time>2026-04-04T09:28:57Z</time></trkpt><trkpt lat="41.28421890438257" lon="14.357582870381263"><ele>72.0</ele><time>2026-04-04T09:28:58Z</time></trkpt><trkpt lat="41.283895849102336" lon="14.357685122389364"><ele>72.0</ele><time>2026-04-04T09:28:59Z</time></trkpt><trkpt lat="41.28356927110697" lon="14.357789222733375"><ele>72.0</ele><time>2026-04-04T09:29:00Z</time></trkpt><trkpt lat="41.283237928174444" lon="14.357896424918348"><ele>71.5</ele><time>2026-04-04T09:29:01Z</time></trkpt><trkpt lat="41.28290256764915" lon="14.358006695689589"><ele>71.0</ele><time>2026-04-04T09:29:02Z</time></trkpt><trkpt lat="41.28256462545345" lon="14.358120553630789"><ele>71.5</ele><time>2026-04-04T09:29:03Z</time></trkpt><trkpt lat="41.282224849745795" lon="14.358228813190863"><ele>72.0</ele><time>2026-04-04T09:29:04Z</time></trkpt><trkpt lat="41.281894108281925" lon="14.358331579532477"><ele>72.0</ele><time>2026-04-04T09:29:05Z</time></trkpt><trkpt lat="41.28156213402973" lon="14.358439551499163"><ele>72.0</ele><time>2026-04-04T09:29:06Z</time></trkpt><trkpt lat="41.28123881761097" lon="14.358545140870278"><ele>70.5</ele><time>2026-04-04T09:29:07Z</time></trkpt><trkpt lat="41.28094253536606" lon="14.358640417444645"><ele>69.0</ele><time>2026-04-04T09:29:08Z</time></trkpt><trkpt lat="41.28067732778503" lon="14.358729643770609"><ele>70.0</ele><time>2026-04-04T09:29:09Z</time></trkpt><trkpt lat="41.28038022805241" lon="14.358821586823147"><ele>71.0</ele><time>2026-04-04T09:29:10Z</time></trkpt><trkpt lat="41.280098960553524" lon="14.358915126616175"><ele>71.0</ele><time>2026-04-04T09:29:11Z</time></trkpt><trkpt lat="41.27983066113384" lon="14.359004816890184"><ele>71.0</ele><time>2026-04-04T09:29:12Z</time></trkpt><trkpt lat="41.279580155914" lon="14.359089985551837"><ele>72.5</ele><time>2026-04-04T09:29:13Z</time></trkpt><trkpt lat="41.27933218899234" lon="14.359179565990944"><ele>74.0</ele><time>2026-04-04T09:29:14Z</time></trkpt><trkpt lat="41.2790933904329" lon="14.359281818424298"><ele>72.5</ele><time>2026-04-04T09:29:15Z</time></trkpt><trkpt lat="41.27885166333278" lon="14.359406127776774"><ele>71.0</ele><time>2026-04-04T09:29:16Z</time></trkpt><trkpt lat="41.278624580364976" lon="14.359548827910684"><ele>70.5</ele><time>2026-04-04T09:29:17Z</time></trkpt><trkpt lat="41.27840256948906" lon="14.35972371560271"><ele>70.0</ele><time>2026-04-04T09:29:18Z</time></trkpt><trkpt lat="41.27818317209743" lon="14.359920568846116"><ele>69.5</ele><time>2026-04-04T09:29:19Z</time></trkpt><trkpt lat="41.277970605907534" lon="14.360138364649362"><ele>69.0</ele><time>2026-04-04T09:29:20Z</time></trkpt><trkpt lat="41.27776593238137" lon="14.360376410169824"><ele>68.5</ele><time>2026-04-04T09:29:21Z</time></trkpt><trkpt lat="41.277558446271605" lon="14.360622799106016"><ele>68.0</ele><time>2026-04-04T09:29:22Z</time></trkpt><trkpt lat="41.27733745688698" lon="14.36089160450054"><ele>68.0</ele><time>2026-04-04T09:29:23Z</time></trkpt><trkpt lat="41.277101971910305" lon="14.361170920424481"><ele>68.0</ele><time>2026-04-04T09:29:24Z</time></trkpt><trkpt lat="41.276849188743554" lon="14.361469142419393"><ele>68.0</ele><time>2026-04-04T09:29:25Z</time></trkpt><trkpt lat="41.27657831940382" lon="14.361775775027217"><ele>68.0</ele><time>2026-04-04T09:29:26Z</time></trkpt><trkpt lat="41.27636078221691" lon="14.362047835146836"><ele>69.0</ele><time>2026-04-04T09:29:27Z</time></trkpt><trkpt lat="41.2761727414796" lon="14.362253333445963"><ele>70.0</ele><time>2026-04-04T09:29:28Z</time></trkpt><trkpt lat="41.27600036883721" lon="14.362453612149"><ele>70.0</ele><time>2026-04-04T09:29:29Z</time></trkpt><trkpt lat="41.275724163395644" lon="14.362790270372649"><ele>70.0</ele><time>2026-04-04T09:29:30Z</time></trkpt><trkpt lat="41.27554108531314" lon="14.363003240515082"><ele>70.33333333333333</ele><time>2026-04-04T09:29:31Z</time></trkpt><trkpt lat="41.275367170190734" lon="14.363187186068979"><ele>70.66666666666667</ele><time>2026-04-04T09:29:32Z</time></trkpt><trkpt lat="41.275186744547526" lon="14.363347792262381"><ele>71.0</ele><time>2026-04-04T09:29:33Z</time></trkpt><trkpt lat="41.27497537220213" lon="14.36346063611883"><ele>71.5</ele><time>2026-04-04T09:29:34Z</time></trkpt><trkpt lat="41.27474656255302" lon="14.363581863998114"><ele>72.0</ele><time>2026-04-04T09:29:35Z</time></trkpt><trkpt lat="41.27452418067585" lon="14.363663073077083"><ele>72.0</ele><time>2026-04-04T09:29:36Z</time></trkpt><trkpt lat="41.27428799722638" lon="14.363719241004343"><ele>72.0</ele><time>2026-04-04T09:29:37Z</time></trkpt><trkpt lat="41.27404828579314" lon="14.363746567901186"><ele>75.5</ele><time>2026-04-04T09:29:38Z</time></trkpt><trkpt lat="41.27378626590018" lon="14.363766660430004"><ele>79.0</ele><time>2026-04-04T09:29:39Z</time></trkpt><trkpt lat="41.27352951627572" lon="14.363746191914437"><ele>79.0</ele><time>2026-04-04T09:29:40Z</time></trkpt><trkpt lat="41.273259835981534" lon="14.363710982529323"><ele>79.0</ele><time>2026-04-04T09:29:41Z</time></trkpt><trkpt lat="41.2729674950041" lon="14.363670246243581"><ele>81.0</ele><time>2026-04-04T09:29:42Z</time></trkpt><trkpt lat="41.272693541599104" lon="14.363625712856143"><ele>83.0</ele><time>2026-04-04T09:29:43Z</time></trkpt><trkpt lat="41.27244671437835" lon="14.363585733811778"><ele>84.5</ele><time>2026-04-04T09:29:44Z</time></trkpt><trkpt lat="41.27221304221061" lon="14.363554821634231"><ele>86.0</ele><time>2026-04-04T09:29:45Z</time></trkpt><trkpt lat="41.27199687786097" lon="14.363530785544926"><ele>86.0</ele><time>2026-04-04T09:29:46Z</time></trkpt><trkpt lat="41.271793665242356" lon="14.36350411461458"><ele>86.0</ele><time>2026-04-04T09:29:47Z</time></trkpt><trkpt lat="41.271604079172334" lon="14.36348331813107"><ele>86.0</ele><time>2026-04-04T09:29:48Z</time></trkpt><trkpt lat="41.271432872287846" lon="14.363468017733247"><ele>86.6</ele><time>2026-04-04T09:29:49Z</time></trkpt><trkpt lat="41.271299608768174" lon="14.363451252908934"><ele>87.19999999999999</ele><time>2026-04-04T09:29:50Z</time></trkpt><trkpt lat="41.27120487549139" lon="14.363437733059767"><ele>87.80000000000001</ele><time>2026-04-04T09:29:51Z</time></trkpt><trkpt lat="41.27110478464467" lon="14.363423133493116"><ele>88.4</ele><time>2026-04-04T09:29:53Z</time></trkpt><trkpt lat="41.27104338737627" lon="14.363400211486127"><ele>89.0</ele><time>2026-04-04T09:29:55Z</time></trkpt><trkpt lat="41.27099783894733" lon="14.363658456307475"><ele>89.0</ele><time>2026-04-04T09:29:57Z</time></trkpt><trkpt lat="41.27099445801572" lon="14.363778462806968"><ele>89.0</ele><time>2026-04-04T09:29:58Z</time></trkpt><trkpt lat="41.27099104277848" lon="14.363902752846144"><ele>89.0</ele><time>2026-04-04T09:29:59Z</time></trkpt><trkpt lat="41.27098326431391" lon="14.364035037577278"><ele>89.0</ele><time>2026-04-04T09:30:00Z</time></trkpt><trkpt lat="41.27097181549155" lon="14.36418033811074"><ele>89.0</ele><time>2026-04-04T09:30:01Z</time></trkpt><trkpt lat="41.27096156797965" lon="14.364343630276467"><ele>89.0</ele><time>2026-04-04T09:30:02Z</time></trkpt><trkpt lat="41.270953187274365" lon="14.364515886904082"><ele>89.0</ele><time>2026-04-04T09:30:03Z</time></trkpt><trkpt lat="41.2709482293113" lon="14.364681754684657"><ele>89.0</ele><time>2026-04-04T09:30:04Z</time></trkpt><trkpt lat="41.27095000973158" lon="14.36483227899791"><ele>89.0</ele><time>2026-04-04T09:30:05Z</time></trkpt><trkpt lat="41.270970153881635" lon="14.364989626392559"><ele>89.0</ele><time>2026-04-04T09:30:06Z</time></trkpt><trkpt lat="41.27101805557617" lon="14.365143474686855"><ele>89.0</ele><time>2026-04-04T09:30:07Z</time></trkpt><trkpt lat="41.27108800331607" lon="14.365271052700226"><ele>89.0</ele><time>2026-04-04T09:30:08Z</time></trkpt><trkpt lat="41.27116303020277" lon="14.365367374923204"><ele>89.0</ele><time>2026-04-04T09:30:09Z</time></trkpt><trkpt lat="41.27124968890414" lon="14.365429737694956"><ele>89.0</ele><time>2026-04-04T09:30:10Z</time></trkpt><trkpt lat="41.27135611063852" lon="14.365466078292268"><ele>88.75</ele><time>2026-04-04T09:30:11Z</time></trkpt><trkpt lat="41.27146456692165" lon="14.3654848694619"><ele>88.5</ele><time>2026-04-04T09:30:12Z</time></trkpt><trkpt lat="41.27156573382356" lon="14.365510589854292"><ele>88.25</ele><time>2026-04-04T09:30:13Z</time></trkpt><trkpt lat="41.27167369575146" lon="14.36555962655632"><ele>88.0</ele><time>2026-04-04T09:30:14Z</time></trkpt><trkpt lat="41.27179158713075" lon="14.365634680173368"><ele>87.75</ele><time>2026-04-04T09:30:15Z</time></trkpt><trkpt lat="41.271909354424345" lon="14.365737044986345"><ele>87.5</ele><time>2026-04-04T09:30:16Z</time></trkpt><trkpt lat="41.27201729829335" lon="14.365875106965044"><ele>87.25</ele><time>2026-04-04T09:30:17Z</time></trkpt><trkpt lat="41.27211033471302" lon="14.366040166177898"><ele>87.0</ele><time>2026-04-04T09:30:18Z</time></trkpt><trkpt lat="41.27219673559342" lon="14.366223768644728"><ele>87.33333333333333</ele><time>2026-04-04T09:30:19Z</time></trkpt><trkpt lat="41.27229194747173" lon="14.366399793468634"><ele>87.66666666666666</ele><time>2026-04-04T09:30:20Z</time></trkpt><trkpt lat="41.27235945213185" lon="14.366626984393422"><ele>88.0</ele><time>2026-04-04T09:30:21Z</time></trkpt><trkpt lat="41.27244913541077" lon="14.366873455175387"><ele>88.0</ele><time>2026-04-04T09:30:22Z</time></trkpt><trkpt lat="41.27255304229914" lon="14.367165686145238"><ele>88.0</ele><time>2026-04-04T09:30:23Z</time></trkpt><trkpt lat="41.27263026735682" lon="14.367497187244235"><ele>88.5</ele><time>2026-04-04T09:30:24Z</time></trkpt><trkpt lat="41.27272898754205" lon="14.367814891821656"><ele>89.0</ele><time>2026-04-04T09:30:25Z</time></trkpt><trkpt lat="41.27279104081246" lon="14.368138940778811"><ele>90.0</ele><time>2026-04-04T09:30:26Z</time></trkpt><trkpt lat="41.27290553943375" lon="14.368688550807702"><ele>91.0</ele><time>2026-04-04T09:30:27Z</time></trkpt><trkpt lat="41.27299823273624" lon="14.369137930857637"><ele>92.5</ele><time>2026-04-04T09:30:28Z</time></trkpt><trkpt lat="41.27308236410757" lon="14.369573420201164"><ele>94.0</ele><time>2026-04-04T09:30:29Z</time></trkpt><trkpt lat="41.27315159152572" lon="14.369965169564308"><ele>84.5</ele><time>2026-04-04T09:30:30Z</time></trkpt><trkpt lat="41.27321948261909" lon="14.370353614171886"><ele>75.0</ele><time>2026-04-04T09:30:31Z</time></trkpt><trkpt lat="41.27327805265473" lon="14.370745119304404"><ele>73.0</ele><time>2026-04-04T09:30:32Z</time></trkpt><trkpt lat="41.273331045303905" lon="14.371132835129604"><ele>71.0</ele><time>2026-04-04T09:30:33Z</time></trkpt><trkpt lat="41.27337817992438" lon="14.37151969381852"><ele>71.0</ele><time>2026-04-04T09:30:34Z</time></trkpt><trkpt lat="41.27341876362954" lon="14.37189980178455"><ele>71.0</ele><time>2026-04-04T09:30:35Z</time></trkpt><trkpt lat="41.27345685695864" lon="14.372274052884768"><ele>71.5</ele><time>2026-04-04T09:30:36Z</time></trkpt><trkpt lat="41.273500137603705" lon="14.372643788871068"><ele>72.0</ele><time>2026-04-04T09:30:37Z</time></trkpt><trkpt lat="41.273547939568495" lon="14.373001080680329"><ele>69.5</ele><time>2026-04-04T09:30:38Z</time></trkpt><trkpt lat="41.273592451264335" lon="14.373365576963083"><ele>67.0</ele><time>2026-04-04T09:30:39Z</time></trkpt><trkpt lat="41.27363344963396" lon="14.373745711601751"><ele>68.0</ele><time>2026-04-04T09:30:40Z</time></trkpt><trkpt lat="41.27367553064053" lon="14.374137781918243"><ele>69.0</ele><time>2026-04-04T09:30:41Z</time></trkpt><trkpt lat="41.27371260084946" lon="14.374542188402446"><ele>68.0</ele><time>2026-04-04T09:30:42Z</time></trkpt><trkpt lat="41.273758062437956" lon="14.374937633662226"><ele>67.0</ele><time>2026-04-04T09:30:43Z</time></trkpt><trkpt lat="41.27379878999972" lon="14.375325387389353"><ele>67.0</ele><time>2026-04-04T09:30:44Z</time></trkpt><trkpt lat="41.273833259109466" lon="14.375683525783053"><ele>67.0</ele><time>2026-04-04T09:30:45Z</time></trkpt><trkpt lat="41.273858507861036" lon="14.37600949558324"><ele>67.0</ele><time>2026-04-04T09:30:46Z</time></trkpt><trkpt lat="41.27387608757791" lon="14.376303410693785"><ele>67.0</ele><time>2026-04-04T09:30:47Z</time></trkpt><trkpt lat="41.27388967364786" lon="14.376589040575368"><ele>67.0</ele><time>2026-04-04T09:30:48Z</time></trkpt><trkpt lat="41.273899769672724" lon="14.376873771145311"><ele>67.33333333333333</ele><time>2026-04-04T09:30:49Z</time></trkpt><trkpt lat="41.273904847657725" lon="14.377155998854613"><ele>67.66666666666667</ele><time>2026-04-04T09:30:50Z</time></trkpt><trkpt lat="41.27389530942924" lon="14.377411994095645"><ele>68.0</ele><time>2026-04-04T09:30:51Z</time></trkpt><trkpt lat="41.27388024511162" lon="14.377666962663934"><ele>68.66666666666667</ele><time>2026-04-04T09:30:52Z</time></trkpt><trkpt lat="41.27385806472767" lon="14.377935569930917"><ele>69.33333333333333</ele><time>2026-04-04T09:30:53Z</time></trkpt><trkpt lat="41.273826840627315" lon="14.378215338170202"><ele>70.0</ele><time>2026-04-04T09:30:54Z</time></trkpt><trkpt lat="41.27376620861447" lon="14.378504968625696"><ele>70.5</ele><time>2026-04-04T09:30:55Z</time></trkpt><trkpt lat="41.27370267320075" lon="14.37880262607453"><ele>71.0</ele><time>2026-04-04T09:30:56Z</time></trkpt><trkpt lat="41.27362422084671" lon="14.379117823854703"><ele>73.0</ele><time>2026-04-04T09:30:57Z</time></trkpt><trkpt lat="41.27353045090573" lon="14.379427333807552"><ele>75.0</ele><time>2026-04-04T09:30:58Z</time></trkpt><trkpt lat="41.273424842599034" lon="14.379725917626565"><ele>75.0</ele><time>2026-04-04T09:30:59Z</time></trkpt><trkpt lat="41.273312012524116" lon="14.38002496797829"><ele>75.0</ele><time>2026-04-04T09:31:00Z</time></trkpt><trkpt lat="41.273188744294096" lon="14.380333770278272"><ele>75.0</ele><time>2026-04-04T09:31:01Z</time></trkpt><trkpt lat="41.273070909687924" lon="14.380657466557441"><ele>75.0</ele><time>2026-04-04T09:31:02Z</time></trkpt><trkpt lat="41.27290937105586" lon="14.380974424077667"><ele>75.0</ele><time>2026-04-04T09:31:03Z</time></trkpt><trkpt lat="41.27277047097603" lon="14.381291595090577"><ele>75.0</ele><time>2026-04-04T09:31:04Z</time></trkpt><trkpt lat="41.27263748598072" lon="14.38160311717852"><ele>76.5</ele><time>2026-04-04T09:31:05Z</time></trkpt><trkpt lat="41.272513607653345" lon="14.381911920639734"><ele>78.0</ele><time>2026-04-04T09:31:06Z</time></trkpt><trkpt lat="41.272384767270104" lon="14.382231435861803"><ele>86.0</ele><time>2026-04-04T09:31:07Z</time></trkpt><trkpt lat="41.27223786325085" lon="14.38257211767393"><ele>94.0</ele><time>2026-04-04T09:31:08Z</time></trkpt><trkpt lat="41.27207559463194" lon="14.382929388227804"><ele>93.5</ele><time>2026-04-04T09:31:09Z</time></trkpt><trkpt lat="41.271941092483274" lon="14.383255479559999"><ele>93.0</ele><time>2026-04-04T09:31:10Z</time></trkpt><trkpt lat="41.271782788746414" lon="14.38362114290944"><ele>91.5</ele><time>2026-04-04T09:31:11Z</time></trkpt><trkpt lat="41.27161516883264" lon="14.383991667418472"><ele>90.0</ele><time>2026-04-04T09:31:12Z</time></trkpt><trkpt lat="41.27143254106966" lon="14.384376367889836"><ele>94.0</ele><time>2026-04-04T09:31:13Z</time></trkpt><trkpt lat="41.27124723085208" lon="14.384791884799878"><ele>98.0</ele><time>2026-04-04T09:31:14Z</time></trkpt><trkpt lat="41.271065584238926" lon="14.385208687946484"><ele>91.5</ele><time>2026-04-04T09:31:15Z</time></trkpt><trkpt lat="41.27088876223128" lon="14.38562567772646"><ele>85.0</ele><time>2026-04-04T09:31:16Z</time></trkpt><trkpt lat="41.27073035063789" lon="14.386029334855749"><ele>83.5</ele><time>2026-04-04T09:31:17Z</time></trkpt><trkpt lat="41.2705881251651" lon="14.386419353238448"><ele>82.0</ele><time>2026-04-04T09:31:18Z</time></trkpt><trkpt lat="41.27045300080433" lon="14.386823158012955"><ele>78.0</ele><time>2026-04-04T09:31:19Z</time></trkpt><trkpt lat="41.27035315161902" lon="14.387233655306467"><ele>74.0</ele><time>2026-04-04T09:31:20Z</time></trkpt><trkpt lat="41.27027073754019" lon="14.387657090297678"><ele>73.0</ele><time>2026-04-04T09:31:21Z</time></trkpt><trkpt lat="41.27019773546188" lon="14.388078782143586"><ele>72.0</ele><time>2026-04-04T09:31:22Z</time></trkpt><trkpt lat="41.27013598350379" lon="14.388461744725284"><ele>72.0</ele><time>2026-04-04T09:31:23Z</time></trkpt><trkpt lat="41.27008317976417" lon="14.38882531582956"><ele>72.0</ele><time>2026-04-04T09:31:24Z</time></trkpt><trkpt lat="41.2700295718811" lon="14.389167381780489"><ele>70.5</ele><time>2026-04-04T09:31:25Z</time></trkpt><trkpt lat="41.2699718068815" lon="14.38949827729747"><ele>69.0</ele><time>2026-04-04T09:31:26Z</time></trkpt><trkpt lat="41.26992060180021" lon="14.38982281017906"><ele>68.5</ele><time>2026-04-04T09:31:27Z</time></trkpt><trkpt lat="41.26986342437801" lon="14.390132618157653"><ele>68.0</ele><time>2026-04-04T09:31:28Z</time></trkpt><trkpt lat="41.269775000663074" lon="14.390438049584667"><ele>65.0</ele><time>2026-04-04T09:31:29Z</time></trkpt><trkpt lat="41.269684127630164" lon="14.390745534575025"><ele>62.0</ele><time>2026-04-04T09:31:30Z</time></trkpt><trkpt lat="41.269580297690396" lon="14.391055243808056"><ele>63.0</ele><time>2026-04-04T09:31:31Z</time></trkpt><trkpt lat="41.26945238651703" lon="14.391387245251824"><ele>64.0</ele><time>2026-04-04T09:31:32Z</time></trkpt><trkpt lat="41.269288794190025" lon="14.39172584748081"><ele>64.0</ele><time>2026-04-04T09:31:33Z</time></trkpt><trkpt lat="41.269100833478205" lon="14.392076269183134"><ele>64.0</ele><time>2026-04-04T09:31:34Z</time></trkpt><trkpt lat="41.26889087584837" lon="14.39241465342831"><ele>63.5</ele><time>2026-04-04T09:31:35Z</time></trkpt><trkpt lat="41.268657415114724" lon="14.392742706702958"><ele>63.0</ele><time>2026-04-04T09:31:36Z</time></trkpt><trkpt lat="41.26839970428784" lon="14.393043914970443"><ele>63.0</ele><time>2026-04-04T09:31:37Z</time></trkpt><trkpt lat="41.268124501456924" lon="14.393320175066515"><ele>63.0</ele><time>2026-04-04T09:31:38Z</time></trkpt><trkpt lat="41.26783393107566" lon="14.393566584650875"><ele>63.0</ele><time>2026-04-04T09:31:39Z</time></trkpt><trkpt lat="41.267530292674955" lon="14.393793371453768"><ele>63.0</ele><time>2026-04-04T09:31:40Z</time></trkpt><trkpt lat="41.26720073557602" lon="14.39398739871754"><ele>65.0</ele><time>2026-04-04T09:31:41Z</time></trkpt><trkpt lat="41.266847478725964" lon="14.394157694071291"><ele>67.0</ele><time>2026-04-04T09:31:42Z</time></trkpt><trkpt lat="41.26647917229795" lon="14.394313627864706"><ele>65.0</ele><time>2026-04-04T09:31:43Z</time></trkpt><trkpt lat="41.26611231844831" lon="14.394470639238625"><ele>63.0</ele><time>2026-04-04T09:31:44Z</time></trkpt><trkpt lat="41.26576683487606" lon="14.394625863909594"><ele>66.0</ele><time>2026-04-04T09:31:45Z</time></trkpt><trkpt lat="41.265457404275764" lon="14.394758075985084"><ele>69.0</ele><time>2026-04-04T09:31:46Z</time></trkpt><trkpt lat="41.26517765155577" lon="14.394904160538898"><ele>69.0</ele><time>2026-04-04T09:31:47Z</time></trkpt><trkpt lat="41.26492163942925" lon="14.395064572142926"><ele>69.0</ele><time>2026-04-04T09:31:48Z</time></trkpt><trkpt lat="41.264669349469166" lon="14.395255381418146"><ele>71.5</ele><time>2026-04-04T09:31:49Z</time></trkpt><trkpt lat="41.264413747631906" lon="14.395468817878083"><ele>74.0</ele><time>2026-04-04T09:31:50Z</time></trkpt><trkpt lat="41.2641668421836" lon="14.395713752831902"><ele>69.5</ele><time>2026-04-04T09:31:51Z</time></trkpt><trkpt lat="41.26392957609712" lon="14.395992717905454"><ele>65.0</ele><time>2026-04-04T09:31:52Z</time></trkpt><trkpt lat="41.2636994185178" lon="14.39630426061589"><ele>65.5</ele><time>2026-04-04T09:31:53Z</time></trkpt><trkpt lat="41.26348552999145" lon="14.396653975476696"><ele>66.0</ele><time>2026-04-04T09:31:54Z</time></trkpt><trkpt lat="41.26328617604938" lon="14.397019574112493"><ele>65.5</ele><time>2026-04-04T09:31:55Z</time></trkpt><trkpt lat="41.26310009785112" lon="14.397417829967768"><ele>65.0</ele><time>2026-04-04T09:31:56Z</time></trkpt><trkpt lat="41.26292887075436" lon="14.397839577897994"><ele>65.5</ele><time>2026-04-04T09:31:57Z</time></trkpt><trkpt lat="41.26276111353413" lon="14.398227019917792"><ele>66.0</ele><time>2026-04-04T09:31:58Z</time></trkpt><trkpt lat="41.26257777551793" lon="14.39859067039317"><ele>66.0</ele><time>2026-04-04T09:31:59Z</time></trkpt><trkpt lat="41.262365335789255" lon="14.398942622293449"><ele>66.0</ele><time>2026-04-04T09:32:00Z</time></trkpt><trkpt lat="41.26212772998022" lon="14.399278544625298"><ele>66.0</ele><time>2026-04-04T09:32:01Z</time></trkpt><trkpt lat="41.26185424727749" lon="14.399603632783627"><ele>66.0</ele><time>2026-04-04T09:32:02Z</time></trkpt><trkpt lat="41.261575684712284" lon="14.399924749457865"><ele>65.5</ele><time>2026-04-04T09:32:03Z</time></trkpt><trkpt lat="41.26129081255091" lon="14.400222056876354"><ele>65.0</ele><time>2026-04-04T09:32:04Z</time></trkpt><trkpt lat="41.26099953664885" lon="14.400522758699113"><ele>65.0</ele><time>2026-04-04T09:32:05Z</time></trkpt><trkpt lat="41.260706685224456" lon="14.400831006684477"><ele>65.0</ele><time>2026-04-04T09:32:06Z</time></trkpt><trkpt lat="41.26042267921549" lon="14.401138092830307"><ele>68.0</ele><time>2026-04-04T09:32:07Z</time></trkpt><trkpt lat="41.26014594541319" lon="14.4014379279188"><ele>71.0</ele><time>2026-04-04T09:32:08Z</time></trkpt><trkpt lat="41.25985272208502" lon="14.401737936698588"><ele>69.5</ele><time>2026-04-04T09:32:09Z</time></trkpt><trkpt lat="41.25958011355046" lon="14.402028833669215"><ele>68.0</ele><time>2026-04-04T09:32:10Z</time></trkpt><trkpt lat="41.259311529090354" lon="14.402302805787356"><ele>68.0</ele><time>2026-04-04T09:32:11Z</time></trkpt><trkpt lat="41.259047964079606" lon="14.402572689444767"><ele>68.0</ele><time>2026-04-04T09:32:12Z</time></trkpt><trkpt lat="41.25878178559888" lon="14.40284922662873"><ele>67.0</ele><time>2026-04-04T09:32:13Z</time></trkpt><trkpt lat="41.25852046385935" lon="14.403123342511497"><ele>66.0</ele><time>2026-04-04T09:32:14Z</time></trkpt><trkpt lat="41.258256367365384" lon="14.40339857861979"><ele>66.5</ele><time>2026-04-04T09:32:15Z</time></trkpt><trkpt lat="41.25799481894082" lon="14.403671011706427"><ele>67.0</ele><time>2026-04-04T09:32:16Z</time></trkpt><trkpt lat="41.257736142173705" lon="14.403945381565652"><ele>67.0</ele><time>2026-04-04T09:32:17Z</time></trkpt><trkpt lat="41.25747920899288" lon="14.404218269030322"><ele>67.0</ele><time>2026-04-04T09:32:18Z</time></trkpt><trkpt lat="41.25724670931902" lon="14.40446462331123"><ele>67.5</ele><time>2026-04-04T09:32:19Z</time></trkpt><trkpt lat="41.257030543952986" lon="14.404696037506765"><ele>68.0</ele><time>2026-04-04T09:32:20Z</time></trkpt><trkpt lat="41.25683064558237" lon="14.404912482046663"><ele>68.0</ele><time>2026-04-04T09:32:21Z</time></trkpt><trkpt lat="41.25664193392454" lon="14.405126052613028"><ele>68.0</ele><time>2026-04-04T09:32:22Z</time></trkpt><trkpt lat="41.25646800234166" lon="14.405337914128502"><ele>68.0</ele><time>2026-04-04T09:32:23Z</time></trkpt><trkpt lat="41.256307360726666" lon="14.405541600805357"><ele>68.0</ele><time>2026-04-04T09:32:24Z</time></trkpt><trkpt lat="41.25615843786929" lon="14.405744421264783"><ele>68.0</ele><time>2026-04-04T09:32:25Z</time></trkpt><trkpt lat="41.25601239306366" lon="14.405957705595418"><ele>68.0</ele><time>2026-04-04T09:32:26Z</time></trkpt><trkpt lat="41.25587224590982" lon="14.406173449604118"><ele>68.0</ele><time>2026-04-04T09:32:27Z</time></trkpt><trkpt lat="41.255732817087825" lon="14.406400378849117"><ele>68.0</ele><time>2026-04-04T09:32:28Z</time></trkpt><trkpt lat="41.25559389756436" lon="14.40663691622345"><ele>72.0</ele><time>2026-04-04T09:32:29Z</time></trkpt><trkpt lat="41.25545592792667" lon="14.406889844861348"><ele>76.0</ele><time>2026-04-04T09:32:30Z</time></trkpt><trkpt lat="41.25532363651544" lon="14.407148094982785"><ele>77.0</ele><time>2026-04-04T09:32:31Z</time></trkpt><trkpt lat="41.2552008237449" lon="14.407386482744652"><ele>78.0</ele><time>2026-04-04T09:32:32Z</time></trkpt><trkpt lat="41.25510418809331" lon="14.40757100987892"><ele>79.0</ele><time>2026-04-04T09:32:33Z</time></trkpt><trkpt lat="41.25503761333854" lon="14.407698858385608"><ele>79.0</ele><time>2026-04-04T09:32:34Z</time></trkpt><trkpt lat="41.25498897945781" lon="14.40779099721345"><ele>79.0</ele><time>2026-04-04T09:32:35Z</time></trkpt><trkpt lat="41.25494020435938" lon="14.40789031792977"><ele>79.0</ele><time>2026-04-04T09:32:37Z</time></trkpt><trkpt lat="41.25490718433406" lon="14.407986808540747"><ele>79.0</ele><time>2026-04-04T09:33:59Z</time></trkpt><trkpt lat="41.25486265641232" lon="14.408074359316911"><ele>79.0</ele><time>2026-04-04T09:34:00Z</time></trkpt><trkpt lat="41.254807977727815" lon="14.408212057521691"><ele>79.25</ele><time>2026-04-04T09:34:01Z</time></trkpt><trkpt lat="41.254763641949154" lon="14.408327452457453"><ele>79.5</ele><time>2026-04-04T09:34:02Z</time></trkpt><trkpt lat="41.254722085686346" lon="14.408437855595732"><ele>79.75</ele><time>2026-04-04T09:34:03Z</time></trkpt><trkpt lat="41.25464496055474" lon="14.408624170579664"><ele>80.0</ele><time>2026-04-04T09:34:04Z</time></trkpt><trkpt lat="41.2545604272435" lon="14.408864790033794"><ele>79.0</ele><time>2026-04-04T09:34:05Z</time></trkpt><trkpt lat="41.25447564192752" lon="14.409109502087132"><ele>78.0</ele><time>2026-04-04T09:34:06Z</time></trkpt><trkpt lat="41.25438773716648" lon="14.409381688369475"><ele>77.0</ele><time>2026-04-04T09:34:07Z</time></trkpt><trkpt lat="41.2543119603071" lon="14.409650901518798"><ele>75.33333333333334</ele><time>2026-04-04T09:34:08Z</time></trkpt><trkpt lat="41.25423614447794" lon="14.409921533088994"><ele>73.66666666666667</ele><time>2026-04-04T09:34:09Z</time></trkpt><trkpt lat="41.25415794951688" lon="14.410206212003091"><ele>72.0</ele><time>2026-04-04T09:34:10Z</time></trkpt><trkpt lat="41.25407904425332" lon="14.41048927175719"><ele>70.5</ele><time>2026-04-04T09:34:11Z</time></trkpt><trkpt lat="41.25400108116225" lon="14.41077109702239"><ele>69.0</ele><time>2026-04-04T09:34:12Z</time></trkpt><trkpt lat="41.25391455289998" lon="14.4110737806408"><ele>67.5</ele><time>2026-04-04T09:34:13Z</time></trkpt><trkpt lat="41.253825955049386" lon="14.411382831622864"><ele>66.0</ele><time>2026-04-04T09:34:14Z</time></trkpt><trkpt lat="41.25373942655643" lon="14.411684288240592"><ele>66.0</ele><time>2026-04-04T09:34:15Z</time></trkpt><trkpt lat="41.253653376442685" lon="14.411977605164422"><ele>66.0</ele><time>2026-04-04T09:34:16Z</time></trkpt><trkpt lat="41.253570125196326" lon="14.412260284108893"><ele>64.0</ele><time>2026-04-04T09:34:17Z</time></trkpt><trkpt lat="41.253488445866736" lon="14.412544386437085"><ele>62.0</ele><time>2026-04-04T09:34:18Z</time></trkpt><trkpt lat="41.253409764493504" lon="14.412820385778131"><ele>61.333333333333336</ele><time>2026-04-04T09:34:19Z</time></trkpt><trkpt lat="41.25333368533526" lon="14.413095677864943"><ele>60.66666666666667</ele><time>2026-04-04T09:34:20Z</time></trkpt><trkpt lat="41.25325551697419" lon="14.413376098935966"><ele>60.0</ele><time>2026-04-04T09:34:21Z</time></trkpt><trkpt lat="41.25317614073481" lon="14.413650352334038"><ele>58.33333333333333</ele><time>2026-04-04T09:34:22Z</time></trkpt><trkpt lat="41.25309782875826" lon="14.413919470302591"><ele>56.666666666666664</ele><time>2026-04-04T09:34:23Z</time></trkpt><trkpt lat="41.253021552802835" lon="14.414184354493369"><ele>55.0</ele><time>2026-04-04T09:34:24Z</time></trkpt><trkpt lat="41.25294754911833" lon="14.41444778238304"><ele>55.0</ele><time>2026-04-04T09:34:25Z</time></trkpt><trkpt lat="41.25287780959951" lon="14.414694461560654"><ele>55.0</ele><time>2026-04-04T09:34:26Z</time></trkpt><trkpt lat="41.25280996403076" lon="14.414930213669301"><ele>55.0</ele><time>2026-04-04T09:34:27Z</time></trkpt><trkpt lat="41.25274321609307" lon="14.415163212697845"><ele>55.0</ele><time>2026-04-04T09:34:28Z</time></trkpt><trkpt lat="41.25266951984335" lon="14.415423942397055"><ele>55.0</ele><time>2026-04-04T09:34:29Z</time></trkpt><trkpt lat="41.2525897399907" lon="14.415695844954096"><ele>55.0</ele><time>2026-04-04T09:34:30Z</time></trkpt><trkpt lat="41.25250616675509" lon="14.415977027978226"><ele>55.5</ele><time>2026-04-04T09:34:31Z</time></trkpt><trkpt lat="41.252422389234354" lon="14.416271259553039"><ele>56.0</ele><time>2026-04-04T09:34:32Z</time></trkpt><trkpt lat="41.25233658715703" lon="14.416576910794012"><ele>55.5</ele><time>2026-04-04T09:34:33Z</time></trkpt><trkpt lat="41.25225072668922" lon="14.416886849224342"><ele>55.0</ele><time>2026-04-04T09:34:34Z</time></trkpt><trkpt lat="41.25214343576177" lon="14.417198652700991"><ele>55.0</ele><time>2026-04-04T09:34:35Z</time></trkpt><trkpt lat="41.25204437602569" lon="14.417538571234495"><ele>55.0</ele><time>2026-04-04T09:34:36Z</time></trkpt><trkpt lat="41.25194156605094" lon="14.417891871745438"><ele>55.0</ele><time>2026-04-04T09:34:37Z</time></trkpt><trkpt lat="41.2518394244361" lon="14.418245985565333"><ele>55.0</ele><time>2026-04-04T09:34:38Z</time></trkpt><trkpt lat="41.25174704372556" lon="14.418563086615086"><ele>55.0</ele><time>2026-04-04T09:34:39Z</time></trkpt><trkpt lat="41.25166274357592" lon="14.418856224260496"><ele>55.0</ele><time>2026-04-04T09:34:40Z</time></trkpt><trkpt lat="41.25153354055" lon="14.419354951537256"><ele>55.0</ele><time>2026-04-04T09:34:41Z</time></trkpt><trkpt lat="41.25140375551385" lon="14.419748810546638"><ele>55.0</ele><time>2026-04-04T09:34:42Z</time></trkpt><trkpt lat="41.25127947326703" lon="14.420172438645443"><ele>54.5</ele><time>2026-04-04T09:34:43Z</time></trkpt><trkpt lat="41.25114898384766" lon="14.42061655001582"><ele>54.0</ele><time>2026-04-04T09:34:44Z</time></trkpt><trkpt lat="41.25102477459453" lon="14.421093820512658"><ele>54.5</ele><time>2026-04-04T09:34:45Z</time></trkpt><trkpt lat="41.25088006074063" lon="14.421554256138997"><ele>55.0</ele><time>2026-04-04T09:34:46Z</time></trkpt><trkpt lat="41.25074763818758" lon="14.42199276776178"><ele>55.0</ele><time>2026-04-04T09:34:47Z</time></trkpt><trkpt lat="41.25062250822398" lon="14.422417931465395"><ele>55.0</ele><time>2026-04-04T09:34:48Z</time></trkpt><trkpt lat="41.25050788899711" lon="14.422820816139414"><ele>55.5</ele><time>2026-04-04T09:34:49Z</time></trkpt><trkpt lat="41.25038775479936" lon="14.423186349255554"><ele>56.0</ele><time>2026-04-04T09:34:50Z</time></trkpt><trkpt lat="41.250279079043935" lon="14.423547071768262"><ele>56.5</ele><time>2026-04-04T09:34:51Z</time></trkpt><trkpt lat="41.25016467265206" lon="14.423917080728433"><ele>57.0</ele><time>2026-04-04T09:34:52Z</time></trkpt><trkpt lat="41.25004638277842" lon="14.42429924704702"><ele>61.5</ele><time>2026-04-04T09:34:53Z</time></trkpt><trkpt lat="41.24994336507489" lon="14.424669625459883"><ele>66.0</ele><time>2026-04-04T09:34:54Z</time></trkpt><trkpt lat="41.249827797811406" lon="14.424999336147563"><ele>66.5</ele><time>2026-04-04T09:34:55Z</time></trkpt><trkpt lat="41.24972762122393" lon="14.425307837384718"><ele>67.0</ele><time>2026-04-04T09:34:56Z</time></trkpt><trkpt lat="41.249645169388934" lon="14.425583648641354"><ele>67.0</ele><time>2026-04-04T09:34:57Z</time></trkpt><trkpt lat="41.249564479983526" lon="14.425849845036664"><ele>67.0</ele><time>2026-04-04T09:34:58Z</time></trkpt><trkpt lat="41.24945887510462" lon="14.42612870038751"><ele>67.0</ele><time>2026-04-04T09:34:59Z</time></trkpt><trkpt lat="41.24936039934439" lon="14.426427382654339"><ele>67.0</ele><time>2026-04-04T09:35:00Z</time></trkpt><trkpt lat="41.24926481197685" lon="14.426716157847409"><ele>67.0</ele><time>2026-04-04T09:35:01Z</time></trkpt><trkpt lat="41.24916837938864" lon="14.427004446158032"><ele>67.0</ele><time>2026-04-04T09:35:02Z</time></trkpt><trkpt lat="41.249088084387914" lon="14.427285003394363"><ele>65.33333333333333</ele><time>2026-04-04T09:35:03Z</time></trkpt><trkpt lat="41.24899082238895" lon="14.427562420476418"><ele>63.66666666666667</ele><time>2026-04-04T09:35:04Z</time></trkpt><trkpt lat="41.24890252419146" lon="14.427824625389903"><ele>62.0</ele><time>2026-04-04T09:35:05Z</time></trkpt><trkpt lat="41.24882174098839" lon="14.428062649614352"><ele>62.0</ele><time>2026-04-04T09:35:06Z</time></trkpt><trkpt lat="41.24874430538619" lon="14.428289918691066"><ele>62.0</ele><time>2026-04-04T09:35:07Z</time></trkpt><trkpt lat="41.24865970199757" lon="14.428540050055263"><ele>62.0</ele><time>2026-04-04T09:35:08Z</time></trkpt><trkpt lat="41.24857145257216" lon="14.42879923433455"><ele>62.0</ele><time>2026-04-04T09:35:09Z</time></trkpt><trkpt lat="41.24848360865402" lon="14.42905383525568"><ele>62.0</ele><time>2026-04-04T09:35:10Z</time></trkpt><trkpt lat="41.24839314694717" lon="14.429320443294198"><ele>62.0</ele><time>2026-04-04T09:35:11Z</time></trkpt><trkpt lat="41.24827955856466" lon="14.429605961635847"><ele>62.5</ele><time>2026-04-04T09:35:12Z</time></trkpt><trkpt lat="41.2481661845797" lon="14.429935836164345"><ele>63.0</ele><time>2026-04-04T09:35:13Z</time></trkpt><trkpt lat="41.24804842527112" lon="14.43027847026628"><ele>61.5</ele><time>2026-04-04T09:35:14Z</time></trkpt><trkpt lat="41.247935691161835" lon="14.430606750109273"><ele>60.0</ele><time>2026-04-04T09:35:15Z</time></trkpt><trkpt lat="41.2478023493944" lon="14.431031502311313"><ele>61.0</ele><time>2026-04-04T09:35:16Z</time></trkpt><trkpt lat="41.24765212935728" lon="14.431436284148631"><ele>62.0</ele><time>2026-04-04T09:35:17Z</time></trkpt><trkpt lat="41.24752252055083" lon="14.431816984776127"><ele>61.0</ele><time>2026-04-04T09:35:18Z</time></trkpt><trkpt lat="41.247390950738335" lon="14.432200852803787"><ele>60.0</ele><time>2026-04-04T09:35:19Z</time></trkpt><trkpt lat="41.2472548063124" lon="14.43258814426178"><ele>60.0</ele><time>2026-04-04T09:35:20Z</time></trkpt><trkpt lat="41.24708684109569" lon="14.432991274200297"><ele>60.0</ele><time>2026-04-04T09:35:21Z</time></trkpt><trkpt lat="41.24698186975498" lon="14.433362986250954"><ele>60.0</ele><time>2026-04-04T09:35:22Z</time></trkpt><trkpt lat="41.24684888680967" lon="14.433758596427307"><ele>60.0</ele><time>2026-04-04T09:35:23Z</time></trkpt><trkpt lat="41.24671548304674" lon="14.434157013364826"><ele>60.5</ele><time>2026-04-04T09:35:24Z</time></trkpt><trkpt lat="41.246580848152995" lon="14.43455848786474"><ele>61.0</ele><time>2026-04-04T09:35:25Z</time></trkpt><trkpt lat="41.246449920524704" lon="14.434954821265627"><ele>62.0</ele><time>2026-04-04T09:35:26Z</time></trkpt><trkpt lat="41.246314583742496" lon="14.435349813464802"><ele>63.0</ele><time>2026-04-04T09:35:27Z</time></trkpt><trkpt lat="41.246177655836114" lon="14.435742075741137"><ele>64.0</ele><time>2026-04-04T09:35:28Z</time></trkpt><trkpt lat="41.24604259529837" lon="14.436137407479308"><ele>65.0</ele><time>2026-04-04T09:35:29Z</time></trkpt><trkpt lat="41.245908113084035" lon="14.436524337056415"><ele>65.5</ele><time>2026-04-04T09:35:30Z</time></trkpt><trkpt lat="41.245774262963906" lon="14.436919480507855"><ele>66.0</ele><time>2026-04-04T09:35:31Z</time></trkpt><trkpt lat="41.245639887597086" lon="14.43731474379151"><ele>67.5</ele><time>2026-04-04T09:35:32Z</time></trkpt><trkpt lat="41.245506781577014" lon="14.437704755782182"><ele>69.0</ele><time>2026-04-04T09:35:33Z</time></trkpt><trkpt lat="41.24537520542214" lon="14.438099427749018"><ele>69.0</ele><time>2026-04-04T09:35:34Z</time></trkpt><trkpt lat="41.245242774234086" lon="14.43849559335433"><ele>69.0</ele><time>2026-04-04T09:35:35Z</time></trkpt><trkpt lat="41.24510845648168" lon="14.438890931226172"><ele>69.0</ele><time>2026-04-04T09:35:36Z</time></trkpt><trkpt lat="41.24497654810691" lon="14.43929101255558"><ele>69.0</ele><time>2026-04-04T09:35:37Z</time></trkpt><trkpt lat="41.244845593110135" lon="14.439691901028498"><ele>69.5</ele><time>2026-04-04T09:35:38Z</time></trkpt><trkpt lat="41.24471385452708" lon="14.440094337430747"><ele>70.0</ele><time>2026-04-04T09:35:39Z</time></trkpt><trkpt lat="41.244585984318945" lon="14.440501047010585"><ele>70.5</ele><time>2026-04-04T09:35:40Z</time></trkpt><trkpt lat="41.24445664185088" lon="14.440916096220237"><ele>71.0</ele><time>2026-04-04T09:35:41Z</time></trkpt><trkpt lat="41.24432602071894" lon="14.441331769819014"><ele>71.5</ele><time>2026-04-04T09:35:42Z</time></trkpt><trkpt lat="41.244198972131976" lon="14.44174759373645"><ele>72.0</ele><time>2026-04-04T09:35:43Z</time></trkpt><trkpt lat="41.24406824284905" lon="14.442162109955529"><ele>72.0</ele><time>2026-04-04T09:35:44Z</time></trkpt><trkpt lat="41.243939884655155" lon="14.44257933719308"><ele>72.0</ele><time>2026-04-04T09:35:45Z</time></trkpt><trkpt lat="41.24380822405582" lon="14.442996292782787"><ele>72.0</ele><time>2026-04-04T09:35:46Z</time></trkpt><trkpt lat="41.243677677840765" lon="14.44341483609636"><ele>72.0</ele><time>2026-04-04T09:35:47Z</time></trkpt><trkpt lat="41.243549118618795" lon="14.44383995698271"><ele>72.0</ele><time>2026-04-04T09:35:48Z</time></trkpt><trkpt lat="41.24342052543788" lon="14.444258661010618"><ele>72.0</ele><time>2026-04-04T09:35:49Z</time></trkpt><trkpt lat="41.24329154260453" lon="14.444669892029701"><ele>72.5</ele><time>2026-04-04T09:35:50Z</time></trkpt><trkpt lat="41.24316124219691" lon="14.445078481166114"><ele>73.0</ele><time>2026-04-04T09:35:51Z</time></trkpt><trkpt lat="41.243034108963094" lon="14.445481841198275"><ele>73.0</ele><time>2026-04-04T09:35:52Z</time></trkpt><trkpt lat="41.24291473960823" lon="14.44585541305966"><ele>73.0</ele><time>2026-04-04T09:35:53Z</time></trkpt><trkpt lat="41.24281571240423" lon="14.446149647734861"><ele>73.5</ele><time>2026-04-04T09:35:54Z</time></trkpt><trkpt lat="41.24268593120451" lon="14.446578580517118"><ele>74.0</ele><time>2026-04-04T09:35:55Z</time></trkpt><trkpt lat="41.24258239729255" lon="14.44692709843145"><ele>74.0</ele><time>2026-04-04T09:35:56Z</time></trkpt><trkpt lat="41.24247669574312" lon="14.447290636927125"><ele>74.0</ele><time>2026-04-04T09:35:57Z</time></trkpt><trkpt lat="41.242359636622176" lon="14.447668484776013"><ele>74.0</ele><time>2026-04-04T09:35:58Z</time></trkpt><trkpt lat="41.24223068460535" lon="14.448055668307356"><ele>74.0</ele><time>2026-04-04T09:35:59Z</time></trkpt><trkpt lat="41.24210047431607" lon="14.44844160409089"><ele>74.5</ele><time>2026-04-04T09:36:00Z</time></trkpt><trkpt lat="41.24197616955693" lon="14.448822766532848"><ele>75.0</ele><time>2026-04-04T09:36:01Z</time></trkpt><trkpt lat="41.24185048178148" lon="14.449205471193947"><ele>75.0</ele><time>2026-04-04T09:36:02Z</time></trkpt><trkpt lat="41.24172552720839" lon="14.449605400388949"><ele>75.0</ele><time>2026-04-04T09:36:03Z</time></trkpt><trkpt lat="41.24160345294863" lon="14.450008875660766"><ele>74.5</ele><time>2026-04-04T09:36:04Z</time></trkpt><trkpt lat="41.24148285289079" lon="14.450411152597955"><ele>74.0</ele><time>2026-04-04T09:36:05Z</time></trkpt><trkpt lat="41.24136587514227" lon="14.450820662663252"><ele>74.0</ele><time>2026-04-04T09:36:06Z</time></trkpt><trkpt lat="41.241244864941066" lon="14.451233713497327"><ele>74.0</ele><time>2026-04-04T09:36:07Z</time></trkpt><trkpt lat="41.241122160578314" lon="14.451646918082531"><ele>75.0</ele><time>2026-04-04T09:36:08Z</time></trkpt><trkpt lat="41.240993660613164" lon="14.452050873668504"><ele>76.0</ele><time>2026-04-04T09:36:09Z</time></trkpt><trkpt lat="41.24085752581804" lon="14.452454087845197"><ele>76.0</ele><time>2026-04-04T09:36:10Z</time></trkpt><trkpt lat="41.24072098373851" lon="14.452859072987174"><ele>76.0</ele><time>2026-04-04T09:36:11Z</time></trkpt><trkpt lat="41.24058899195925" lon="14.453264373210676"><ele>76.0</ele><time>2026-04-04T09:36:12Z</time></trkpt><trkpt lat="41.24045011799324" lon="14.45367006985507"><ele>76.0</ele><time>2026-04-04T09:36:13Z</time></trkpt><trkpt lat="41.24032056122983" lon="14.45408010591203"><ele>77.0</ele><time>2026-04-04T09:36:14Z</time></trkpt><trkpt lat="41.24019012372051" lon="14.454492158609296"><ele>78.0</ele><time>2026-04-04T09:36:15Z</time></trkpt><trkpt lat="41.24006651843188" lon="14.454898533235847"><ele>78.5</ele><time>2026-04-04T09:36:16Z</time></trkpt><trkpt lat="41.23994184124675" lon="14.45529987311384"><ele>79.0</ele><time>2026-04-04T09:36:17Z</time></trkpt><trkpt lat="41.23981862857291" lon="14.455689095155615"><ele>79.5</ele><time>2026-04-04T09:36:18Z</time></trkpt><trkpt lat="41.23970099648477" lon="14.456060061751318"><ele>80.0</ele><time>2026-04-04T09:36:19Z</time></trkpt><trkpt lat="41.23959061006517" lon="14.456417019545214"><ele>80.0</ele><time>2026-04-04T09:36:20Z</time></trkpt><trkpt lat="41.23949106574993" lon="14.45675684439414"><ele>80.0</ele><time>2026-04-04T09:36:21Z</time></trkpt><trkpt lat="41.23939606442915" lon="14.45707166833194"><ele>80.0</ele><time>2026-04-04T09:36:22Z</time></trkpt><trkpt lat="41.23929861194635" lon="14.457379257346723"><ele>80.0</ele><time>2026-04-04T09:36:23Z</time></trkpt><trkpt lat="41.23920744530941" lon="14.457684282597066"><ele>82.0</ele><time>2026-04-04T09:36:24Z</time></trkpt><trkpt lat="41.239112239596714" lon="14.4579981643875"><ele>84.0</ele><time>2026-04-04T09:36:25Z</time></trkpt><trkpt lat="41.23901147052523" lon="14.458319695640649"><ele>83.5</ele><time>2026-04-04T09:36:26Z</time></trkpt><trkpt lat="41.23890814216747" lon="14.458627548797864"><ele>83.0</ele><time>2026-04-04T09:36:27Z</time></trkpt><trkpt lat="41.23881754204143" lon="14.458893024512802"><ele>83.33333333333334</ele><time>2026-04-04T09:36:28Z</time></trkpt><trkpt lat="41.23873648158045" lon="14.459158550696658"><ele>83.66666666666667</ele><time>2026-04-04T09:36:29Z</time></trkpt><trkpt lat="41.238654846772185" lon="14.459433166794948"><ele>84.0</ele><time>2026-04-04T09:36:30Z</time></trkpt><trkpt lat="41.238567406737445" lon="14.459712022623314"><ele>84.0</ele><time>2026-04-04T09:36:31Z</time></trkpt><trkpt lat="41.238477623005856" lon="14.46000027193817"><ele>84.0</ele><time>2026-04-04T09:36:32Z</time></trkpt><trkpt lat="41.238388805698264" lon="14.46029121205935"><ele>85.5</ele><time>2026-04-04T09:36:33Z</time></trkpt><trkpt lat="41.23828692616136" lon="14.460594735477862"><ele>87.0</ele><time>2026-04-04T09:36:34Z</time></trkpt><trkpt lat="41.238177401667265" lon="14.460905870890832"><ele>86.0</ele><time>2026-04-04T09:36:35Z</time></trkpt><trkpt lat="41.23806947620433" lon="14.461225588985622"><ele>85.0</ele><time>2026-04-04T09:36:36Z</time></trkpt><trkpt lat="41.23796378503263" lon="14.46156237807003"><ele>85.0</ele><time>2026-04-04T09:36:37Z</time></trkpt><trkpt lat="41.237861386381866" lon="14.461898710207443"><ele>85.0</ele><time>2026-04-04T09:36:38Z</time></trkpt><trkpt lat="41.23775674940408" lon="14.462242625248999"><ele>84.5</ele><time>2026-04-04T09:36:39Z</time></trkpt><trkpt lat="41.23764914446567" lon="14.462585467787079"><ele>84.0</ele><time>2026-04-04T09:36:40Z</time></trkpt><trkpt lat="41.23754129285128" lon="14.462927171590769"><ele>84.5</ele><time>2026-04-04T09:36:41Z</time></trkpt><trkpt lat="41.2374338430207" lon="14.463273511329822"><ele>85.0</ele><time>2026-04-04T09:36:42Z</time></trkpt><trkpt lat="41.23732504459103" lon="14.463623571896997"><ele>86.0</ele><time>2026-04-04T09:36:43Z</time></trkpt><trkpt lat="41.23721516352682" lon="14.463971447709882"><ele>87.0</ele><time>2026-04-04T09:36:44Z</time></trkpt><trkpt lat="41.237104372432725" lon="14.464324430433471"><ele>89.0</ele><time>2026-04-04T09:36:45Z</time></trkpt><trkpt lat="41.23699370319477" lon="14.46467137351285"><ele>91.0</ele><time>2026-04-04T09:36:46Z</time></trkpt><trkpt lat="41.23688384976012" lon="14.465020337245647"><ele>91.0</ele><time>2026-04-04T09:36:47Z</time></trkpt><trkpt lat="41.23677379694616" lon="14.465372358590733"><ele>91.0</ele><time>2026-04-04T09:36:48Z</time></trkpt><trkpt lat="41.23666535412412" lon="14.465722653720247"><ele>91.5</ele><time>2026-04-04T09:36:49Z</time></trkpt><trkpt lat="41.236560110882685" lon="14.466062562204913"><ele>92.0</ele><time>2026-04-04T09:36:50Z</time></trkpt><trkpt lat="41.236451554473405" lon="14.466404914263416"><ele>89.5</ele><time>2026-04-04T09:36:51Z</time></trkpt><trkpt lat="41.236343714325386" lon="14.466748340268866"><ele>87.0</ele><time>2026-04-04T09:36:52Z</time></trkpt><trkpt lat="41.23623367519327" lon="14.46709191089852"><ele>88.0</ele><time>2026-04-04T09:36:53Z</time></trkpt><trkpt lat="41.23612162986306" lon="14.467436927624371"><ele>89.0</ele><time>2026-04-04T09:36:54Z</time></trkpt><trkpt lat="41.23601000388023" lon="14.467783258269643"><ele>89.5</ele><time>2026-04-04T09:36:55Z</time></trkpt><trkpt lat="41.23590218135091" lon="14.468123805260806"><ele>90.0</ele><time>2026-04-04T09:36:56Z</time></trkpt><trkpt lat="41.235807620057194" lon="14.468422073787432"><ele>90.0</ele><time>2026-04-04T09:36:57Z</time></trkpt><trkpt lat="41.23572348255934" lon="14.4686826073894"><ele>90.0</ele><time>2026-04-04T09:36:58Z</time></trkpt><trkpt lat="41.235644914272804" lon="14.468925819942893"><ele>90.0</ele><time>2026-04-04T09:36:59Z</time></trkpt><trkpt lat="41.23557104052446" lon="14.46915559255231"><ele>89.0</ele><time>2026-04-04T09:37:00Z</time></trkpt><trkpt lat="41.23550177800679" lon="14.469376377687116"><ele>88.0</ele><time>2026-04-04T09:37:01Z</time></trkpt><trkpt lat="41.23543594710956" lon="14.469587651700794"><ele>87.0</ele><time>2026-04-04T09:37:02Z</time></trkpt><trkpt lat="41.23537352411393" lon="14.469790964595026"><ele>87.0</ele><time>2026-04-04T09:37:03Z</time></trkpt><trkpt lat="41.23530620272619" lon="14.470004225073247"><ele>87.0</ele><time>2026-04-04T09:37:04Z</time></trkpt><trkpt lat="41.23523934763496" lon="14.47021785403211"><ele>87.0</ele><time>2026-04-04T09:37:05Z</time></trkpt><trkpt lat="41.23517086445746" lon="14.470429784894858"><ele>88.0</ele><time>2026-04-04T09:37:06Z</time></trkpt><trkpt lat="41.23510131100482" lon="14.470648787447718"><ele>89.0</ele><time>2026-04-04T09:37:07Z</time></trkpt><trkpt lat="41.23503229321059" lon="14.470869516318732"><ele>90.0</ele><time>2026-04-04T09:37:08Z</time></trkpt><trkpt lat="41.23496331931433" lon="14.471095999425104"><ele>90.33333333333333</ele><time>2026-04-04T09:37:09Z</time></trkpt><trkpt lat="41.23488758859516" lon="14.471344794482746"><ele>90.66666666666666</ele><time>2026-04-04T09:37:10Z</time></trkpt><trkpt lat="41.23480529999061" lon="14.471612833775625"><ele>91.0</ele><time>2026-04-04T09:37:11Z</time></trkpt><trkpt lat="41.234713935548804" lon="14.471900256994253"><ele>91.0</ele><time>2026-04-04T09:37:12Z</time></trkpt><trkpt lat="41.23461716216833" lon="14.472206562795606"><ele>91.0</ele><time>2026-04-04T09:37:13Z</time></trkpt><trkpt lat="41.234517042553016" lon="14.472519308825074"><ele>91.0</ele><time>2026-04-04T09:37:14Z</time></trkpt><trkpt lat="41.23441544358658" lon="14.472843181337758"><ele>91.0</ele><time>2026-04-04T09:37:15Z</time></trkpt><trkpt lat="41.23431456904514" lon="14.473170255990423"><ele>91.5</ele><time>2026-04-04T09:37:16Z</time></trkpt><trkpt lat="41.23421002187494" lon="14.473507633509538"><ele>92.0</ele><time>2026-04-04T09:37:17Z</time></trkpt><trkpt lat="41.2341087812281" lon="14.47383106389093"><ele>92.5</ele><time>2026-04-04T09:37:18Z</time></trkpt><trkpt lat="41.234011817066865" lon="14.47413220344241"><ele>93.0</ele><time>2026-04-04T09:37:19Z</time></trkpt><trkpt lat="41.2339214236748" lon="14.47440999383558"><ele>93.33333333333333</ele><time>2026-04-04T09:37:20Z</time></trkpt><trkpt lat="41.23383480778185" lon="14.474667663199526"><ele>93.66666666666666</ele><time>2026-04-04T09:37:21Z</time></trkpt><trkpt lat="41.233749010701324" lon="14.474900595402344"><ele>94.0</ele><time>2026-04-04T09:37:22Z</time></trkpt><trkpt lat="41.23366279738858" lon="14.475106449719519"><ele>94.0</ele><time>2026-04-04T09:37:23Z</time></trkpt><trkpt lat="41.23356287085509" lon="14.475283196978706"><ele>94.0</ele><time>2026-04-04T09:37:24Z</time></trkpt><trkpt lat="41.2334401900258" lon="14.47544551730627"><ele>94.0</ele><time>2026-04-04T09:37:25Z</time></trkpt><trkpt lat="41.23329357338656" lon="14.475580907839761"><ele>94.66666666666666</ele><time>2026-04-04T09:37:26Z</time></trkpt><trkpt lat="41.233121413408725" lon="14.475681575281476"><ele>95.33333333333333</ele><time>2026-04-04T09:37:27Z</time></trkpt><trkpt lat="41.23292671796038" lon="14.47573816276767"><ele>96.0</ele><time>2026-04-04T09:37:28Z</time></trkpt><trkpt lat="41.232708203742796" lon="14.475757511219452"><ele>96.0</ele><time>2026-04-04T09:37:29Z</time></trkpt><trkpt lat="41.23248442593884" lon="14.47573251243078"><ele>96.0</ele><time>2026-04-04T09:37:30Z</time></trkpt><trkpt lat="41.2322621399477" lon="14.475673219321825"><ele>93.5</ele><time>2026-04-04T09:37:31Z</time></trkpt><trkpt lat="41.23205084278327" lon="14.475584849841402"><ele>91.0</ele><time>2026-04-04T09:37:32Z</time></trkpt><trkpt lat="41.2318202943058" lon="14.475528141999487"><ele>91.0</ele><time>2026-04-04T09:37:33Z</time></trkpt><trkpt lat="41.2315907859588" lon="14.475327324297616"><ele>91.0</ele><time>2026-04-04T09:37:34Z</time></trkpt><trkpt lat="41.231332206711635" lon="14.475183909000783"><ele>90.0</ele><time>2026-04-04T09:37:35Z</time></trkpt><trkpt lat="41.23105313930584" lon="14.475045710870326"><ele>89.0</ele><time>2026-04-04T09:37:36Z</time></trkpt><trkpt lat="41.23077859547811" lon="14.474916042301736"><ele>87.0</ele><time>2026-04-04T09:37:37Z</time></trkpt><trkpt lat="41.23050264739708" lon="14.474779969474657"><ele>85.0</ele><time>2026-04-04T09:37:38Z</time></trkpt><trkpt lat="41.23023779950128" lon="14.4746561862081"><ele>84.5</ele><time>2026-04-04T09:37:39Z</time></trkpt><trkpt lat="41.22997008165687" lon="14.47455105023895"><ele>84.0</ele><time>2026-04-04T09:37:40Z</time></trkpt><trkpt lat="41.22969001124888" lon="14.474472501496162"><ele>83.5</ele><time>2026-04-04T09:37:41Z</time></trkpt><trkpt lat="41.229399456614644" lon="14.474368362427212"><ele>83.0</ele><time>2026-04-04T09:37:42Z</time></trkpt><trkpt lat="41.2290915541753" lon="14.47429492200214"><ele>83.0</ele><time>2026-04-04T09:37:43Z</time></trkpt><trkpt lat="41.22877681002886" lon="14.474235068696476"><ele>83.0</ele><time>2026-04-04T09:37:44Z</time></trkpt><trkpt lat="41.2284695745133" lon="14.474162265490671"><ele>83.0</ele><time>2026-04-04T09:37:45Z</time></trkpt><trkpt lat="41.228163136273594" lon="14.474096570326601"><ele>83.0</ele><time>2026-04-04T09:37:46Z</time></trkpt><trkpt lat="41.22785814884838" lon="14.47403381369635"><ele>83.0</ele><time>2026-04-04T09:37:47Z</time></trkpt><trkpt lat="41.22755707080417" lon="14.473972416324678"><ele>83.0</ele><time>2026-04-04T09:37:48Z</time></trkpt><trkpt lat="41.22726185510027" lon="14.47391033139092"><ele>82.5</ele><time>2026-04-04T09:37:49Z</time></trkpt><trkpt lat="41.226963544681986" lon="14.473848184687686"><ele>82.0</ele><time>2026-04-04T09:37:50Z</time></trkpt><trkpt lat="41.22669330123379" lon="14.473787145303207"><ele>82.0</ele><time>2026-04-04T09:37:51Z</time></trkpt><trkpt lat="41.226408966403085" lon="14.473728725268174"><ele>82.0</ele><time>2026-04-04T09:37:52Z</time></trkpt><trkpt lat="41.226140860564556" lon="14.473674518916114"><ele>82.0</ele><time>2026-04-04T09:37:53Z</time></trkpt><trkpt lat="41.225888980052254" lon="14.473623189746645"><ele>82.0</ele><time>2026-04-04T09:37:54Z</time></trkpt><trkpt lat="41.22565497512648" lon="14.473578869305408"><ele>83.0</ele><time>2026-04-04T09:37:55Z</time></trkpt><trkpt lat="41.225423704862024" lon="14.47353270196324"><ele>84.0</ele><time>2026-04-04T09:37:56Z</time></trkpt><trkpt lat="41.225202370100305" lon="14.473490403539992"><ele>84.0</ele><time>2026-04-04T09:37:57Z</time></trkpt><trkpt lat="41.224991022474796" lon="14.473456739340175"><ele>84.0</ele><time>2026-04-04T09:37:58Z</time></trkpt><trkpt lat="41.224781924438645" lon="14.473430059093415"><ele>84.0</ele><time>2026-04-04T09:37:59Z</time></trkpt><trkpt lat="41.22454342829307" lon="14.473403819347322"><ele>83.0</ele><time>2026-04-04T09:38:00Z</time></trkpt><trkpt lat="41.22429986085281" lon="14.473382198338596"><ele>82.0</ele><time>2026-04-04T09:38:01Z</time></trkpt><trkpt lat="41.22406213964991" lon="14.473359273361073"><ele>82.5</ele><time>2026-04-04T09:38:02Z</time></trkpt><trkpt lat="41.22382549978295" lon="14.473345963259472"><ele>83.0</ele><time>2026-04-04T09:38:03Z</time></trkpt><trkpt lat="41.22359327902862" lon="14.473354674272255"><ele>83.0</ele><time>2026-04-04T09:38:04Z</time></trkpt><trkpt lat="41.22335791352333" lon="14.473375049636585"><ele>83.0</ele><time>2026-04-04T09:38:05Z</time></trkpt><trkpt lat="41.223127376127614" lon="14.473404533924286"><ele>83.0</ele><time>2026-04-04T09:38:06Z</time></trkpt><trkpt lat="41.22289829581433" lon="14.473445537501073"><ele>83.0</ele><time>2026-04-04T09:38:07Z</time></trkpt><trkpt lat="41.22266927726736" lon="14.473494705179593"><ele>83.0</ele><time>2026-04-04T09:38:08Z</time></trkpt><trkpt lat="41.22244291594427" lon="14.473551406031527"><ele>83.0</ele><time>2026-04-04T09:38:09Z</time></trkpt><trkpt lat="41.22222299892261" lon="14.47361626426089"><ele>83.5</ele><time>2026-04-04T09:38:10Z</time></trkpt><trkpt lat="41.22200533127085" lon="14.473696611830027"><ele>84.0</ele><time>2026-04-04T09:38:11Z</time></trkpt><trkpt lat="41.221791816893166" lon="14.473787507766582"><ele>84.0</ele><time>2026-04-04T09:38:12Z</time></trkpt><trkpt lat="41.22157366776786" lon="14.47389284591897"><ele>84.0</ele><time>2026-04-04T09:38:13Z</time></trkpt><trkpt lat="41.221368648323065" lon="14.474002527649242"><ele>84.0</ele><time>2026-04-04T09:38:14Z</time></trkpt><trkpt lat="41.221159855872855" lon="14.474125133465261"><ele>84.0</ele><time>2026-04-04T09:38:15Z</time></trkpt><trkpt lat="41.220956844742865" lon="14.474253118867386"><ele>84.0</ele><time>2026-04-04T09:38:16Z</time></trkpt><trkpt lat="41.220755001936425" lon="14.474390131390528"><ele>84.0</ele><time>2026-04-04T09:38:17Z</time></trkpt><trkpt lat="41.220561504808686" lon="14.474539125640662"><ele>83.0</ele><time>2026-04-04T09:38:18Z</time></trkpt><trkpt lat="41.2203694363786" lon="14.474700017068969"><ele>82.0</ele><time>2026-04-04T09:38:19Z</time></trkpt><trkpt lat="41.22017817727251" lon="14.474872520792868"><ele>82.0</ele><time>2026-04-04T09:38:20Z</time></trkpt><trkpt lat="41.219994292125435" lon="14.47504921638849"><ele>82.0</ele><time>2026-04-04T09:38:21Z</time></trkpt><trkpt lat="41.21980945036884" lon="14.475237002597646"><ele>81.5</ele><time>2026-04-04T09:38:22Z</time></trkpt><trkpt lat="41.219628042835836" lon="14.475441564337478"><ele>81.0</ele><time>2026-04-04T09:38:23Z</time></trkpt><trkpt lat="41.21944933912395" lon="14.475658965309574"><ele>81.0</ele><time>2026-04-04T09:38:24Z</time></trkpt><trkpt lat="41.2192700219829" lon="14.475890348764297"><ele>81.0</ele><time>2026-04-04T09:38:25Z</time></trkpt><trkpt lat="41.21909891212764" lon="14.476134243000194"><ele>80.0</ele><time>2026-04-04T09:38:26Z</time></trkpt><trkpt lat="41.21893545227062" lon="14.476388237142"><ele>79.0</ele><time>2026-04-04T09:38:27Z</time></trkpt><trkpt lat="41.21877764032488" lon="14.476647907937577"><ele>79.0</ele><time>2026-04-04T09:38:28Z</time></trkpt><trkpt lat="41.21862429285858" lon="14.476919515057832"><ele>79.0</ele><time>2026-04-04T09:38:29Z</time></trkpt><trkpt lat="41.21848019692918" lon="14.47720450433489"><ele>80.0</ele><time>2026-04-04T09:38:30Z</time></trkpt><trkpt lat="41.21834379473124" lon="14.477498450086127"><ele>81.0</ele><time>2026-04-04T09:38:31Z</time></trkpt><trkpt lat="41.218214002480224" lon="14.477800541767385"><ele>81.5</ele><time>2026-04-04T09:38:32Z</time></trkpt><trkpt lat="41.218088040029954" lon="14.47810009077087"><ele>82.0</ele><time>2026-04-04T09:38:33Z</time></trkpt><trkpt lat="41.21796405174225" lon="14.478390110820948"><ele>82.0</ele><time>2026-04-04T09:38:34Z</time></trkpt><trkpt lat="41.21784612404571" lon="14.4786615510467"><ele>82.0</ele><time>2026-04-04T09:38:35Z</time></trkpt><trkpt lat="41.217739001402336" lon="14.47891282435392"><ele>82.0</ele><time>2026-04-04T09:38:36Z</time></trkpt><trkpt lat="41.2176394427177" lon="14.47914651621497"><ele>82.0</ele><time>2026-04-04T09:38:37Z</time></trkpt><trkpt lat="41.217544592902584" lon="14.479373633236142"><ele>82.0</ele><time>2026-04-04T09:38:38Z</time></trkpt><trkpt lat="41.21745829305514" lon="14.479581967466055"><ele>82.66666666666666</ele><time>2026-04-04T09:38:39Z</time></trkpt><trkpt lat="41.217376636175246" lon="14.479779130163543"><ele>83.33333333333333</ele><time>2026-04-04T09:38:40Z</time></trkpt><trkpt lat="41.21729664393318" lon="14.479973694888685"><ele>84.0</ele><time>2026-04-04T09:38:41Z</time></trkpt><trkpt lat="41.217217751172264" lon="14.480172547686983"><ele>84.0</ele><time>2026-04-04T09:38:42Z</time></trkpt><trkpt lat="41.217142008626986" lon="14.480370795215595"><ele>84.0</ele><time>2026-04-04T09:38:43Z</time></trkpt><trkpt lat="41.217061672698435" lon="14.480568482567998"><ele>84.0</ele><time>2026-04-04T09:38:44Z</time></trkpt><trkpt lat="41.21697615965365" lon="14.480773386440886"><ele>84.0</ele><time>2026-04-04T09:38:45Z</time></trkpt><trkpt lat="41.216891765179085" lon="14.480978016926723"><ele>84.0</ele><time>2026-04-04T09:38:46Z</time></trkpt><trkpt lat="41.21680416846329" lon="14.481190791692493"><ele>84.0</ele><time>2026-04-04T09:38:47Z</time></trkpt><trkpt lat="41.216717823564736" lon="14.481406802512659"><ele>83.66666666666667</ele><time>2026-04-04T09:38:48Z</time></trkpt><trkpt lat="41.21663239697013" lon="14.481620213500173"><ele>83.33333333333334</ele><time>2026-04-04T09:38:49Z</time></trkpt><trkpt lat="41.2165447169563" lon="14.481840087981663"><ele>83.0</ele><time>2026-04-04T09:38:50Z</time></trkpt><trkpt lat="41.21645818397338" lon="14.482051162189764"><ele>83.0</ele><time>2026-04-04T09:38:51Z</time></trkpt><trkpt lat="41.21636635847165" lon="14.482271172958"><ele>83.0</ele><time>2026-04-04T09:38:52Z</time></trkpt><trkpt lat="41.21627849779029" lon="14.482482414408398"><ele>83.0</ele><time>2026-04-04T09:38:53Z</time></trkpt><trkpt lat="41.216186191969705" lon="14.48270404200782"><ele>83.0</ele><time>2026-04-04T09:38:54Z</time></trkpt><trkpt lat="41.21609435992986" lon="14.482927134043184"><ele>83.0</ele><time>2026-04-04T09:38:55Z</time></trkpt><trkpt lat="41.215997874622005" lon="14.48315396528202"><ele>83.0</ele><time>2026-04-04T09:38:56Z</time></trkpt><trkpt lat="41.21589800595418" lon="14.483390295241703"><ele>82.66666666666667</ele><time>2026-04-04T09:38:57Z</time></trkpt><trkpt lat="41.21580272621333" lon="14.483623998701844"><ele>82.33333333333333</ele><time>2026-04-04T09:38:58Z</time></trkpt><trkpt lat="41.21570623385222" lon="14.483866705248463"><ele>82.0</ele><time>2026-04-04T09:38:59Z</time></trkpt><trkpt lat="41.21560614742063" lon="14.484109479419603"><ele>81.66666666666666</ele><time>2026-04-04T09:39:00Z</time></trkpt><trkpt lat="41.21550322525477" lon="14.48434968425437"><ele>81.33333333333333</ele><time>2026-04-04T09:39:01Z</time></trkpt><trkpt lat="41.215405857193396" lon="14.484592087525472"><ele>81.0</ele><time>2026-04-04T09:39:02Z</time></trkpt><trkpt lat="41.21531176192711" lon="14.484837827177897"><ele>80.66666666666667</ele><time>2026-04-04T09:39:03Z</time></trkpt><trkpt lat="41.21521374306635" lon="14.485084588998655"><ele>80.33333333333334</ele><time>2026-04-04T09:39:04Z</time></trkpt><trkpt lat="41.21511373400218" lon="14.485327085036907"><ele>80.0</ele><time>2026-04-04T09:39:05Z</time></trkpt><trkpt lat="41.215012320126206" lon="14.485570343482172"><ele>79.66666666666667</ele><time>2026-04-04T09:39:06Z</time></trkpt><trkpt lat="41.21490696696354" lon="14.485809375617368"><ele>79.33333333333333</ele><time>2026-04-04T09:39:07Z</time></trkpt><trkpt lat="41.21479492914562" lon="14.486046278282613"><ele>79.0</ele><time>2026-04-04T09:39:08Z</time></trkpt><trkpt lat="41.21467939453798" lon="14.486280246593942"><ele>78.66666666666666</ele><time>2026-04-04T09:39:09Z</time></trkpt><trkpt lat="41.21456031255714" lon="14.486503402156004"><ele>78.33333333333333</ele><time>2026-04-04T09:39:10Z</time></trkpt><trkpt lat="41.21444414340186" lon="14.486702542726679"><ele>78.0</ele><time>2026-04-04T09:39:11Z</time></trkpt><trkpt lat="41.21432375088615" lon="14.486896063968905"><ele>78.0</ele><time>2026-04-04T09:39:12Z</time></trkpt><trkpt lat="41.21418956384624" lon="14.487094094861739"><ele>78.0</ele><time>2026-04-04T09:39:13Z</time></trkpt><trkpt lat="41.21404468964191" lon="14.487287519977533"><ele>78.0</ele><time>2026-04-04T09:39:14Z</time></trkpt><trkpt lat="41.21388801154682" lon="14.48747688003067"><ele>77.66666666666667</ele><time>2026-04-04T09:39:15Z</time></trkpt><trkpt lat="41.21372337685529" lon="14.487653055916772"><ele>77.33333333333334</ele><time>2026-04-04T09:39:16Z</time></trkpt><trkpt lat="41.21354979266702" lon="14.487825074565517"><ele>77.0</ele><time>2026-04-04T09:39:17Z</time></trkpt><trkpt lat="41.21337279204798" lon="14.487987882615387"><ele>77.0</ele><time>2026-04-04T09:39:18Z</time></trkpt><trkpt lat="41.21317902964507" lon="14.488150620187008"><ele>77.0</ele><time>2026-04-04T09:39:19Z</time></trkpt><trkpt lat="41.212979845632326" lon="14.48829810256874"><ele>76.5</ele><time>2026-04-04T09:39:20Z</time></trkpt><trkpt lat="41.21277473108266" lon="14.488427123602468"><ele>76.0</ele><time>2026-04-04T09:39:21Z</time></trkpt><trkpt lat="41.212559148183054" lon="14.488542329511215"><ele>76.0</ele><time>2026-04-04T09:39:22Z</time></trkpt><trkpt lat="41.212340061315764" lon="14.488641937594373"><ele>76.0</ele><time>2026-04-04T09:39:23Z</time></trkpt><trkpt lat="41.21211515353405" lon="14.488732647237532"><ele>75.0</ele><time>2026-04-04T09:39:24Z</time></trkpt><trkpt lat="41.21188908111523" lon="14.488808528703531"><ele>74.0</ele><time>2026-04-04T09:39:25Z</time></trkpt><trkpt lat="41.21165595841055" lon="14.488870042680775"><ele>74.0</ele><time>2026-04-04T09:39:26Z</time></trkpt><trkpt lat="41.21141913999508" lon="14.488915026575976"><ele>74.0</ele><time>2026-04-04T09:39:27Z</time></trkpt><trkpt lat="41.211179377313016" lon="14.488943516502639"><ele>74.0</ele><time>2026-04-04T09:39:28Z</time></trkpt><trkpt lat="41.21094213358011" lon="14.4889520294569"><ele>74.0</ele><time>2026-04-04T09:39:29Z</time></trkpt><trkpt lat="41.21070320654812" lon="14.488943504819291"><ele>74.0</ele><time>2026-04-04T09:39:30Z</time></trkpt><trkpt lat="41.21046095221198" lon="14.488919169117143"><ele>74.0</ele><time>2026-04-04T09:39:31Z</time></trkpt><trkpt lat="41.21022225861045" lon="14.488878989927445"><ele>74.0</ele><time>2026-04-04T09:39:32Z</time></trkpt><trkpt lat="41.20998015223988" lon="14.488820309089544"><ele>74.0</ele><time>2026-04-04T09:39:33Z</time></trkpt><trkpt lat="41.209742709335124" lon="14.4887447323883"><ele>73.5</ele><time>2026-04-04T09:39:34Z</time></trkpt><trkpt lat="41.20950576150413" lon="14.488651529781649"><ele>73.0</ele><time>2026-04-04T09:39:35Z</time></trkpt><trkpt lat="41.209269217823994" lon="14.488540185276749"><ele>73.0</ele><time>2026-04-04T09:39:36Z</time></trkpt><trkpt lat="41.209036178415886" lon="14.488420107070214"><ele>73.0</ele><time>2026-04-04T09:39:37Z</time></trkpt><trkpt lat="41.20880486153067" lon="14.48829901639096"><ele>73.5</ele><time>2026-04-04T09:39:38Z</time></trkpt><trkpt lat="41.20856945781466" lon="14.488174454312754"><ele>74.0</ele><time>2026-04-04T09:39:39Z</time></trkpt><trkpt lat="41.2083379983705" lon="14.488054246906417"><ele>73.0</ele><time>2026-04-04T09:39:40Z</time></trkpt><trkpt lat="41.20810914787412" lon="14.487922874005372"><ele>72.0</ele><time>2026-04-04T09:39:41Z</time></trkpt><trkpt lat="41.207879032179804" lon="14.487777581990452"><ele>72.0</ele><time>2026-04-04T09:39:42Z</time></trkpt><trkpt lat="41.20765460536185" lon="14.487615810552734"><ele>72.0</ele><time>2026-04-04T09:39:43Z</time></trkpt><trkpt lat="41.207439552974186" lon="14.4874425312877"><ele>72.5</ele><time>2026-04-04T09:39:44Z</time></trkpt><trkpt lat="41.207223472128256" lon="14.487251396245535"><ele>73.0</ele><time>2026-04-04T09:39:45Z</time></trkpt><trkpt lat="41.20701050023107" lon="14.487040509300831"><ele>72.0</ele><time>2026-04-04T09:39:46Z</time></trkpt><trkpt lat="41.20681481333372" lon="14.486818729522739"><ele>71.0</ele><time>2026-04-04T09:39:47Z</time></trkpt><trkpt lat="41.20662184243799" lon="14.486581935700308"><ele>71.5</ele><time>2026-04-04T09:39:48Z</time></trkpt><trkpt lat="41.20643700639203" lon="14.48633454020708"><ele>72.0</ele><time>2026-04-04T09:39:49Z</time></trkpt><trkpt lat="41.206261939319845" lon="14.486082287282075"><ele>72.0</ele><time>2026-04-04T09:39:50Z</time></trkpt><trkpt lat="41.20609932837029" lon="14.485828954481082"><ele>72.0</ele><time>2026-04-04T09:39:51Z</time></trkpt><trkpt lat="41.205957203085745" lon="14.485542466401572"><ele>71.5</ele><time>2026-04-04T09:39:52Z</time></trkpt><trkpt lat="41.205804975631644" lon="14.485264509626923"><ele>71.0</ele><time>2026-04-04T09:39:53Z</time></trkpt><trkpt lat="41.20564788603543" lon="14.48497600603791"><ele>70.5</ele><time>2026-04-04T09:39:54Z</time></trkpt><trkpt lat="41.20547810175901" lon="14.484693561639947"><ele>70.0</ele><time>2026-04-04T09:39:55Z</time></trkpt><trkpt lat="41.20532438972861" lon="14.484400791898235"><ele>69.0</ele><time>2026-04-04T09:39:56Z</time></trkpt><trkpt lat="41.20517272295458" lon="14.484118319834659"><ele>68.0</ele><time>2026-04-04T09:39:57Z</time></trkpt><trkpt lat="41.205001118985074" lon="14.48385072467164"><ele>68.0</ele><time>2026-04-04T09:39:58Z</time></trkpt><trkpt lat="41.20480617949122" lon="14.483603411537336"><ele>68.0</ele><time>2026-04-04T09:39:59Z</time></trkpt><trkpt lat="41.20460459086751" lon="14.483378369514877"><ele>68.0</ele><time>2026-04-04T09:40:00Z</time></trkpt><trkpt lat="41.20438928141053" lon="14.48316207059816"><ele>68.0</ele><time>2026-04-04T09:40:01Z</time></trkpt><trkpt lat="41.20416613894225" lon="14.482963280054568"><ele>68.5</ele><time>2026-04-04T09:40:02Z</time></trkpt><trkpt lat="41.20393113043644" lon="14.482780006131788"><ele>69.0</ele><time>2026-04-04T09:40:03Z</time></trkpt><trkpt lat="41.203687644840436" lon="14.482622158765846"><ele>69.0</ele><time>2026-04-04T09:40:04Z</time></trkpt><trkpt lat="41.203444874379095" lon="14.482498127572635"><ele>69.0</ele><time>2026-04-04T09:40:05Z</time></trkpt><trkpt lat="41.20318405131548" lon="14.482386321056707"><ele>68.5</ele><time>2026-04-04T09:40:06Z</time></trkpt><trkpt lat="41.202922808704315" lon="14.482298205668739"><ele>68.0</ele><time>2026-04-04T09:40:07Z</time></trkpt><trkpt lat="41.20265746814803" lon="14.482232297826112"><ele>68.0</ele><time>2026-04-04T09:40:08Z</time></trkpt><trkpt lat="41.20239460327229" lon="14.482189728227816"><ele>68.0</ele><time>2026-04-04T09:40:09Z</time></trkpt><trkpt lat="41.20212515348435" lon="14.482166850785548"><ele>66.0</ele><time>2026-04-04T09:40:10Z</time></trkpt><trkpt lat="41.20185779011843" lon="14.482167979243531"><ele>64.0</ele><time>2026-04-04T09:40:11Z</time></trkpt><trkpt lat="41.201588571196375" lon="14.482191577112804"><ele>62.0</ele><time>2026-04-04T09:40:12Z</time></trkpt><trkpt lat="41.20132703654573" lon="14.482236757858965"><ele>60.0</ele><time>2026-04-04T09:40:13Z</time></trkpt><trkpt lat="41.20106392831607" lon="14.48229601240471"><ele>60.0</ele><time>2026-04-04T09:40:14Z</time></trkpt><trkpt lat="41.2008025872954" lon="14.482333527887025"><ele>60.0</ele><time>2026-04-04T09:40:15Z</time></trkpt><trkpt lat="41.200538948446024" lon="14.482384593067723"><ele>58.0</ele><time>2026-04-04T09:40:16Z</time></trkpt><trkpt lat="41.20027853766806" lon="14.482450210618442"><ele>56.0</ele><time>2026-04-04T09:40:17Z</time></trkpt><trkpt lat="41.200016653766646" lon="14.482495638656358"><ele>55.5</ele><time>2026-04-04T09:40:18Z</time></trkpt><trkpt lat="41.19975472042289" lon="14.482547846796272"><ele>55.0</ele><time>2026-04-04T09:40:19Z</time></trkpt><trkpt lat="41.199484661605396" lon="14.482602103156548"><ele>55.0</ele><time>2026-04-04T09:40:20Z</time></trkpt><trkpt lat="41.19921971943427" lon="14.482650978749529"><ele>55.0</ele><time>2026-04-04T09:40:21Z</time></trkpt><trkpt lat="41.1989484823795" lon="14.482691911205187"><ele>55.5</ele><time>2026-04-04T09:40:22Z</time></trkpt><trkpt lat="41.198678943193435" lon="14.482716710479176"><ele>56.0</ele><time>2026-04-04T09:40:23Z</time></trkpt><trkpt lat="41.19841046016851" lon="14.482712066017422"><ele>57.0</ele><time>2026-04-04T09:40:24Z</time></trkpt><trkpt lat="41.19813583372733" lon="14.482684350256244"><ele>58.0</ele><time>2026-04-04T09:40:25Z</time></trkpt><trkpt lat="41.19785947166511" lon="14.48264282918581"><ele>58.0</ele><time>2026-04-04T09:40:26Z</time></trkpt><trkpt lat="41.19759097919596" lon="14.482578902871932"><ele>58.0</ele><time>2026-04-04T09:40:27Z</time></trkpt><trkpt lat="41.19732324636529" lon="14.482492686637574"><ele>59.0</ele><time>2026-04-04T09:40:28Z</time></trkpt><trkpt lat="41.19705739306727" lon="14.48237121560008"><ele>60.0</ele><time>2026-04-04T09:40:29Z</time></trkpt><trkpt lat="41.19679869332293" lon="14.482223380865276"><ele>58.0</ele><time>2026-04-04T09:40:30Z</time></trkpt><trkpt lat="41.19654770742761" lon="14.482057947092683"><ele>56.0</ele><time>2026-04-04T09:40:31Z</time></trkpt><trkpt lat="41.1963053281775" lon="14.481872902774809"><ele>54.5</ele><time>2026-04-04T09:40:32Z</time></trkpt><trkpt lat="41.196081474524185" lon="14.481641026554389"><ele>53.0</ele><time>2026-04-04T09:40:33Z</time></trkpt><trkpt lat="41.19586164751745" lon="14.48140686001982"><ele>48.0</ele><time>2026-04-04T09:40:34Z</time></trkpt><trkpt lat="41.19565362946008" lon="14.481154319503958"><ele>43.0</ele><time>2026-04-04T09:40:35Z</time></trkpt><trkpt lat="41.19546078178665" lon="14.480879740713002"><ele>43.0</ele><time>2026-04-04T09:40:36Z</time></trkpt><trkpt lat="41.19527050915216" lon="14.480601020255067"><ele>43.0</ele><time>2026-04-04T09:40:37Z</time></trkpt><trkpt lat="41.195109074031606" lon="14.480287079346091"><ele>44.0</ele><time>2026-04-04T09:40:38Z</time></trkpt><trkpt lat="41.19496220606238" lon="14.47997121852977"><ele>45.0</ele><time>2026-04-04T09:40:39Z</time></trkpt><trkpt lat="41.194821393845956" lon="14.47966029800919"><ele>44.0</ele><time>2026-04-04T09:40:40Z</time></trkpt><trkpt lat="41.19468740288502" lon="14.479372595917882"><ele>43.0</ele><time>2026-04-04T09:40:41Z</time></trkpt><trkpt lat="41.194560389673725" lon="14.479098911357463"><ele>43.0</ele><time>2026-04-04T09:40:42Z</time></trkpt><trkpt lat="41.19443384860333" lon="14.478832161126107"><ele>43.0</ele><time>2026-04-04T09:40:43Z</time></trkpt><trkpt lat="41.19430027701196" lon="14.478564965734304"><ele>43.0</ele><time>2026-04-04T09:40:44Z</time></trkpt><trkpt lat="41.19415749764065" lon="14.478310849917134"><ele>43.0</ele><time>2026-04-04T09:40:45Z</time></trkpt><trkpt lat="41.194002344232025" lon="14.478061281934844"><ele>43.0</ele><time>2026-04-04T09:40:46Z</time></trkpt><trkpt lat="41.19384363961687" lon="14.477825575111863"><ele>43.0</ele><time>2026-04-04T09:40:47Z</time></trkpt><trkpt lat="41.193678624491234" lon="14.477595768242065"><ele>43.0</ele><time>2026-04-04T09:40:48Z</time></trkpt><trkpt lat="41.19352075817697" lon="14.4773941170958"><ele>43.0</ele><time>2026-04-04T09:40:49Z</time></trkpt><trkpt lat="41.193360419024685" lon="14.477206359777712"><ele>43.0</ele><time>2026-04-04T09:40:50Z</time></trkpt><trkpt lat="41.19320704106653" lon="14.47703839777503"><ele>42.333333333333336</ele><time>2026-04-04T09:40:51Z</time></trkpt><trkpt lat="41.19304770992248" lon="14.47687612332375"><ele>41.666666666666664</ele><time>2026-04-04T09:40:52Z</time></trkpt><trkpt lat="41.192880251282325" lon="14.476720549459012"><ele>41.0</ele><time>2026-04-04T09:40:53Z</time></trkpt><trkpt lat="41.192708903351935" lon="14.476570297268793"><ele>41.0</ele><time>2026-04-04T09:40:54Z</time></trkpt><trkpt lat="41.192538309543934" lon="14.476421402231075"><ele>41.0</ele><time>2026-04-04T09:40:55Z</time></trkpt><trkpt lat="41.192358928365145" lon="14.476276589385545"><ele>41.0</ele><time>2026-04-04T09:40:56Z</time></trkpt><trkpt lat="41.19217154926535" lon="14.476141633665058"><ele>40.666666666666664</ele><time>2026-04-04T09:40:57Z</time></trkpt><trkpt lat="41.191967566750435" lon="14.476014823803366"><ele>40.333333333333336</ele><time>2026-04-04T09:40:58Z</time></trkpt><trkpt lat="41.19177098989477" lon="14.47590025674008"><ele>40.0</ele><time>2026-04-04T09:40:59Z</time></trkpt><trkpt lat="41.19156357846951" lon="14.475791540887068"><ele>40.66666666666667</ele><time>2026-04-04T09:41:00Z</time></trkpt><trkpt lat="41.19136024255802" lon="14.475680310890873"><ele>41.333333333333336</ele><time>2026-04-04T09:41:01Z</time></trkpt><trkpt lat="41.19115631681538" lon="14.475573794428234"><ele>42.0</ele><time>2026-04-04T09:41:02Z</time></trkpt><trkpt lat="41.19094964757955" lon="14.475467780939073"><ele>42.0</ele><time>2026-04-04T09:41:03Z</time></trkpt><trkpt lat="41.19073884592341" lon="14.475367594359803"><ele>42.0</ele><time>2026-04-04T09:41:04Z</time></trkpt><trkpt lat="41.1905310838107" lon="14.475255101588605"><ele>42.0</ele><time>2026-04-04T09:41:05Z</time></trkpt><trkpt lat="41.19032637968207" lon="14.475151949690755"><ele>42.0</ele><time>2026-04-04T09:41:06Z</time></trkpt><trkpt lat="41.190122548107105" lon="14.475046562254612"><ele>42.0</ele><time>2026-04-04T09:41:07Z</time></trkpt><trkpt lat="41.18992000035162" lon="14.47494016847486"><ele>42.0</ele><time>2026-04-04T09:41:08Z</time></trkpt><trkpt lat="41.18971457676048" lon="14.47482991685161"><ele>41.666666666666664</ele><time>2026-04-04T09:41:09Z</time></trkpt><trkpt lat="41.189511566674845" lon="14.474727999388977"><ele>41.33333333333333</ele><time>2026-04-04T09:41:10Z</time></trkpt><trkpt lat="41.18930396250458" lon="14.474622702820845"><ele>41.0</ele><time>2026-04-04T09:41:11Z</time></trkpt><trkpt lat="41.18909777557484" lon="14.474519817286923"><ele>41.0</ele><time>2026-04-04T09:41:12Z</time></trkpt><trkpt lat="41.1888941333641" lon="14.474414900503415"><ele>41.0</ele><time>2026-04-04T09:41:13Z</time></trkpt><trkpt lat="41.18869624033037" lon="14.474313669873201"><ele>41.0</ele><time>2026-04-04T09:41:14Z</time></trkpt><trkpt lat="41.18850077969421" lon="14.47420994032646"><ele>41.0</ele><time>2026-04-04T09:41:15Z</time></trkpt><trkpt lat="41.18830326161397" lon="14.474108309127791"><ele>41.0</ele><time>2026-04-04T09:41:16Z</time></trkpt><trkpt lat="41.188108984836006" lon="14.474012611308385"><ele>41.0</ele><time>2026-04-04T09:41:17Z</time></trkpt><trkpt lat="41.187913022977575" lon="14.473916687759074"><ele>41.0</ele><time>2026-04-04T09:41:18Z</time></trkpt><trkpt lat="41.18772095063781" lon="14.473812749508525"><ele>41.0</ele><time>2026-04-04T09:41:19Z</time></trkpt><trkpt lat="41.187526334654436" lon="14.473714540874226"><ele>41.0</ele><time>2026-04-04T09:41:20Z</time></trkpt><trkpt lat="41.18732608507962" lon="14.473621006999194"><ele>40.33333333333333</ele><time>2026-04-04T09:41:21Z</time></trkpt><trkpt lat="41.18712110074327" lon="14.473514207798583"><ele>39.666666666666664</ele><time>2026-04-04T09:41:22Z</time></trkpt><trkpt lat="41.18692303165477" lon="14.473411258932304"><ele>39.0</ele><time>2026-04-04T09:41:23Z</time></trkpt><trkpt lat="41.18671228375839" lon="14.473304343154352"><ele>39.333333333333336</ele><time>2026-04-04T09:41:24Z</time></trkpt><trkpt lat="41.18650589431199" lon="14.473207253477545"><ele>39.66666666666667</ele><time>2026-04-04T09:41:25Z</time></trkpt><trkpt lat="41.186296354700886" lon="14.473124557906694"><ele>40.0</ele><time>2026-04-04T09:41:26Z</time></trkpt><trkpt lat="41.18609288705677" lon="14.47305795892275"><ele>40.0</ele><time>2026-04-04T09:41:27Z</time></trkpt><trkpt lat="41.185880809936414" lon="14.473006765075848"><ele>40.0</ele><time>2026-04-04T09:41:28Z</time></trkpt><trkpt lat="41.18566843470193" lon="14.47297516372144"><ele>40.0</ele><time>2026-04-04T09:41:29Z</time></trkpt><trkpt lat="41.18545863389844" lon="14.472952170095628"><ele>39.66666666666667</ele><time>2026-04-04T09:41:30Z</time></trkpt><trkpt lat="41.18524744460671" lon="14.47293836321679"><ele>39.333333333333336</ele><time>2026-04-04T09:41:31Z</time></trkpt><trkpt lat="41.185032820780556" lon="14.472941942969118"><ele>39.0</ele><time>2026-04-04T09:41:32Z</time></trkpt><trkpt lat="41.18482040236417" lon="14.472964148198113"><ele>38.666666666666664</ele><time>2026-04-04T09:41:33Z</time></trkpt><trkpt lat="41.18459949582643" lon="14.4730008798797"><ele>38.33333333333333</ele><time>2026-04-04T09:41:34Z</time></trkpt><trkpt lat="41.184379591116674" lon="14.47305933717597"><ele>38.0</ele><time>2026-04-04T09:41:35Z</time></trkpt><trkpt lat="41.18415332679754" lon="14.473129616057298"><ele>37.0</ele><time>2026-04-04T09:41:36Z</time></trkpt><trkpt lat="41.1839111785508" lon="14.473200070598388"><ele>36.0</ele><time>2026-04-04T09:41:37Z</time></trkpt><trkpt lat="41.18364760037842" lon="14.473271789578655"><ele>36.0</ele><time>2026-04-04T09:41:38Z</time></trkpt><trkpt lat="41.18336839205535" lon="14.473341833878944"><ele>36.0</ele><time>2026-04-04T09:41:39Z</time></trkpt><trkpt lat="41.18309985299612" lon="14.473402186764233"><ele>37.5</ele><time>2026-04-04T09:41:40Z</time></trkpt><trkpt lat="41.18285329423561" lon="14.473446372680057"><ele>39.0</ele><time>2026-04-04T09:41:41Z</time></trkpt><trkpt lat="41.18261914178368" lon="14.473490632949693"><ele>39.0</ele><time>2026-04-04T09:41:42Z</time></trkpt><trkpt lat="41.182383383051636" lon="14.47355050799544"><ele>39.0</ele><time>2026-04-04T09:41:43Z</time></trkpt><trkpt lat="41.18214871695769" lon="14.473616859337888"><ele>39.0</ele><time>2026-04-04T09:41:44Z</time></trkpt><trkpt lat="41.18191214768662" lon="14.473670782910995"><ele>39.0</ele><time>2026-04-04T09:41:45Z</time></trkpt><trkpt lat="41.181665161967615" lon="14.473697627121165"><ele>39.5</ele><time>2026-04-04T09:41:46Z</time></trkpt><trkpt lat="41.18139284970901" lon="14.473701354723698"><ele>40.0</ele><time>2026-04-04T09:41:47Z</time></trkpt><trkpt lat="41.18109661135982" lon="14.473676331826512"><ele>40.0</ele><time>2026-04-04T09:41:48Z</time></trkpt><trkpt lat="41.18078810150915" lon="14.473610014146137"><ele>40.0</ele><time>2026-04-04T09:41:49Z</time></trkpt><trkpt lat="41.18046817971664" lon="14.473504857165343"><ele>39.5</ele><time>2026-04-04T09:41:50Z</time></trkpt><trkpt lat="41.180136453107764" lon="14.473365515900626"><ele>39.0</ele><time>2026-04-04T09:41:51Z</time></trkpt><trkpt lat="41.179794836446874" lon="14.473191595196278"><ele>39.5</ele><time>2026-04-04T09:41:52Z</time></trkpt><trkpt lat="41.17947934283239" lon="14.47299903535785"><ele>40.0</ele><time>2026-04-04T09:41:53Z</time></trkpt><trkpt lat="41.179183190867384" lon="14.472813197745326"><ele>40.0</ele><time>2026-04-04T09:41:54Z</time></trkpt><trkpt lat="41.17891185681981" lon="14.47264808936955"><ele>40.0</ele><time>2026-04-04T09:41:55Z</time></trkpt><trkpt lat="41.178641981448266" lon="14.472490273416192"><ele>40.0</ele><time>2026-04-04T09:41:56Z</time></trkpt><trkpt lat="41.17836910542714" lon="14.472330979940384"><ele>40.0</ele><time>2026-04-04T09:41:57Z</time></trkpt><trkpt lat="41.17809168061879" lon="14.472171306907128"><ele>40.0</ele><time>2026-04-04T09:41:58Z</time></trkpt><trkpt lat="41.17781896990101" lon="14.472014941736504"><ele>40.0</ele><time>2026-04-04T09:41:59Z</time></trkpt><trkpt lat="41.177549430674496" lon="14.471862223316544"><ele>42.0</ele><time>2026-04-04T09:42:00Z</time></trkpt><trkpt lat="41.17727348369807" lon="14.471708858267691"><ele>44.0</ele><time>2026-04-04T09:42:01Z</time></trkpt><trkpt lat="41.1770117000814" lon="14.471558383080627"><ele>44.0</ele><time>2026-04-04T09:42:02Z</time></trkpt><trkpt lat="41.17674924575493" lon="14.471406914040237"><ele>44.0</ele><time>2026-04-04T09:42:03Z</time></trkpt><trkpt lat="41.176489744458216" lon="14.471255652998048"><ele>43.0</ele><time>2026-04-04T09:42:04Z</time></trkpt><trkpt lat="41.176226980802866" lon="14.471105245774892"><ele>42.0</ele><time>2026-04-04T09:42:05Z</time></trkpt><trkpt lat="41.17596988063267" lon="14.470957091381509"><ele>42.0</ele><time>2026-04-04T09:42:06Z</time></trkpt><trkpt lat="41.17571736544164" lon="14.470806637272933"><ele>42.0</ele><time>2026-04-04T09:42:07Z</time></trkpt><trkpt lat="41.17547516713108" lon="14.470652152732727"><ele>42.0</ele><time>2026-04-04T09:42:08Z</time></trkpt><trkpt lat="41.1752398250446" lon="14.470495465856237"><ele>42.0</ele><time>2026-04-04T09:42:09Z</time></trkpt><trkpt lat="41.17502129696658" lon="14.470343880245604"><ele>42.0</ele><time>2026-04-04T09:42:10Z</time></trkpt><trkpt lat="41.17481839824119" lon="14.470199364777693"><ele>42.0</ele><time>2026-04-04T09:42:11Z</time></trkpt><trkpt lat="41.174621300406734" lon="14.470059217709148"><ele>42.0</ele><time>2026-04-04T09:42:12Z</time></trkpt><trkpt lat="41.17442859801107" lon="14.469923213155363"><ele>42.0</ele><time>2026-04-04T09:42:13Z</time></trkpt><trkpt lat="41.17423600279492" lon="14.469787200671027"><ele>42.0</ele><time>2026-04-04T09:42:14Z</time></trkpt><trkpt lat="41.17404805394339" lon="14.46965333748559"><ele>42.0</ele><time>2026-04-04T09:42:15Z</time></trkpt><trkpt lat="41.17385352881681" lon="14.469515503395575"><ele>42.0</ele><time>2026-04-04T09:42:16Z</time></trkpt><trkpt lat="41.17367351680423" lon="14.469381722518536"><ele>42.0</ele><time>2026-04-04T09:42:17Z</time></trkpt><trkpt lat="41.17350417192472" lon="14.469257205504592"><ele>42.0</ele><time>2026-04-04T09:42:18Z</time></trkpt><trkpt lat="41.17334958240145" lon="14.469118127447183"><ele>42.0</ele><time>2026-04-04T09:42:19Z</time></trkpt><trkpt lat="41.17318490818111" lon="14.469020621777489"><ele>42.0</ele><time>2026-04-04T09:42:20Z</time></trkpt><trkpt lat="41.17303634505696" lon="14.46890891375384"><ele>43.333333333333336</ele><time>2026-04-04T09:42:21Z</time></trkpt><trkpt lat="41.17289697804113" lon="14.468778510714063"><ele>44.66666666666667</ele><time>2026-04-04T09:42:22Z</time></trkpt><trkpt lat="41.17274139607776" lon="14.468661271391738"><ele>46.0</ele><time>2026-04-04T09:42:23Z</time></trkpt><trkpt lat="41.1725674454045" lon="14.468530190245968"><ele>45.0</ele><time>2026-04-04T09:42:24Z</time></trkpt><trkpt lat="41.17236014173552" lon="14.468373975870357"><ele>44.0</ele><time>2026-04-04T09:42:25Z</time></trkpt><trkpt lat="41.17213167565252" lon="14.468201814475528"><ele>44.0</ele><time>2026-04-04T09:42:26Z</time></trkpt><trkpt lat="41.17188916547474" lon="14.468017618112448"><ele>44.0</ele><time>2026-04-04T09:42:27Z</time></trkpt><trkpt lat="41.1716187425218" lon="14.467812071155373"><ele>40.0</ele><time>2026-04-04T09:42:28Z</time></trkpt><trkpt lat="41.17129815157512" lon="14.467570028114686"><ele>36.0</ele><time>2026-04-04T09:42:29Z</time></trkpt><trkpt lat="41.1710662011892" lon="14.4673951797612"><ele>36.0</ele><time>2026-04-04T09:42:30Z</time></trkpt><trkpt lat="41.17075379075384" lon="14.46718099865416"><ele>36.0</ele><time>2026-04-04T09:42:31Z</time></trkpt><trkpt lat="41.1704419383367" lon="14.46693734114099"><ele>37.0</ele><time>2026-04-04T09:42:32Z</time></trkpt><trkpt lat="41.17011753011619" lon="14.466690749408608"><ele>38.0</ele><time>2026-04-04T09:42:33Z</time></trkpt><trkpt lat="41.16982020082517" lon="14.46645470272404"><ele>36.5</ele><time>2026-04-04T09:42:34Z</time></trkpt><trkpt lat="41.16955169441491" lon="14.466249069621028"><ele>35.0</ele><time>2026-04-04T09:42:35Z</time></trkpt><trkpt lat="41.16930310486599" lon="14.46605713206025"><ele>35.0</ele><time>2026-04-04T09:42:36Z</time></trkpt><trkpt lat="41.16906779391694" lon="14.465887924011842"><ele>35.0</ele><time>2026-04-04T09:42:37Z</time></trkpt><trkpt lat="41.16884025174204" lon="14.465725202751342"><ele>34.5</ele><time>2026-04-04T09:42:38Z</time></trkpt><trkpt lat="41.16862977977553" lon="14.465571837744786"><ele>34.0</ele><time>2026-04-04T09:42:39Z</time></trkpt><trkpt lat="41.16842616495793" lon="14.46543017759578"><ele>34.0</ele><time>2026-04-04T09:42:40Z</time></trkpt><trkpt lat="41.16822889486322" lon="14.465291219925893"><ele>34.0</ele><time>2026-04-04T09:42:41Z</time></trkpt><trkpt lat="41.16802812369134" lon="14.465149644287623"><ele>35.5</ele><time>2026-04-04T09:42:42Z</time></trkpt><trkpt lat="41.16782275262818" lon="14.465010123370735"><ele>37.0</ele><time>2026-04-04T09:42:43Z</time></trkpt><trkpt lat="41.16760550122488" lon="14.46487093050049"><ele>37.0</ele><time>2026-04-04T09:42:44Z</time></trkpt><trkpt lat="41.16738776344704" lon="14.464742436543265"><ele>37.0</ele><time>2026-04-04T09:42:45Z</time></trkpt><trkpt lat="41.16717107538671" lon="14.464621371277897"><ele>37.0</ele><time>2026-04-04T09:42:46Z</time></trkpt><trkpt lat="41.1669467690381" lon="14.464502119944807"><ele>37.0</ele><time>2026-04-04T09:42:47Z</time></trkpt><trkpt lat="41.16671365744491" lon="14.464389112002701"><ele>36.5</ele><time>2026-04-04T09:42:48Z</time></trkpt><trkpt lat="41.166473326716314" lon="14.464280844334072"><ele>36.0</ele><time>2026-04-04T09:42:49Z</time></trkpt><trkpt lat="41.1662301453311" lon="14.464173862964866"><ele>36.0</ele><time>2026-04-04T09:42:50Z</time></trkpt><trkpt lat="41.16598547853865" lon="14.464070274857196"><ele>36.0</ele><time>2026-04-04T09:42:51Z</time></trkpt><trkpt lat="41.16573341989847" lon="14.463973114781128"><ele>36.5</ele><time>2026-04-04T09:42:52Z</time></trkpt><trkpt lat="41.16547696687676" lon="14.463884144163481"><ele>37.0</ele><time>2026-04-04T09:42:53Z</time></trkpt><trkpt lat="41.16522362132118" lon="14.463816221065796"><ele>37.5</ele><time>2026-04-04T09:42:54Z</time></trkpt><trkpt lat="41.164974539568014" lon="14.463747925547635"><ele>38.0</ele><time>2026-04-04T09:42:55Z</time></trkpt><trkpt lat="41.16472899051044" lon="14.463672507409948"><ele>38.0</ele><time>2026-04-04T09:42:56Z</time></trkpt><trkpt lat="41.16448214391802" lon="14.463601794159425"><ele>38.0</ele><time>2026-04-04T09:42:57Z</time></trkpt><trkpt lat="41.16423471079262" lon="14.463528559645933"><ele>38.0</ele><time>2026-04-04T09:42:58Z</time></trkpt><trkpt lat="41.16398787275039" lon="14.46345249600691"><ele>38.0</ele><time>2026-04-04T09:42:59Z</time></trkpt><trkpt lat="41.16375974849011" lon="14.463376566398162"><ele>38.0</ele><time>2026-04-04T09:43:00Z</time></trkpt><trkpt lat="41.16354837943173" lon="14.463311649691228"><ele>38.0</ele><time>2026-04-04T09:43:01Z</time></trkpt><trkpt lat="41.16335577633621" lon="14.463257258165806"><ele>38.0</ele><time>2026-04-04T09:43:02Z</time></trkpt><trkpt lat="41.16318220306568" lon="14.463204970472466"><ele>37.0</ele><time>2026-04-04T09:43:03Z</time></trkpt><trkpt lat="41.16301527332662" lon="14.463158446784119"><ele>36.0</ele><time>2026-04-04T09:43:04Z</time></trkpt><trkpt lat="41.16284890071186" lon="14.463110837574103"><ele>35.0</ele><time>2026-04-04T09:43:05Z</time></trkpt><trkpt lat="41.16267867710224" lon="14.46306468406446"><ele>35.0</ele><time>2026-04-04T09:43:06Z</time></trkpt><trkpt lat="41.162511587906025" lon="14.463017768282862"><ele>35.0</ele><time>2026-04-04T09:43:07Z</time></trkpt><trkpt lat="41.1623413921296" lon="14.462969578618397"><ele>35.0</ele><time>2026-04-04T09:43:08Z</time></trkpt><trkpt lat="41.16216997902704" lon="14.462920798688682"><ele>35.666666666666664</ele><time>2026-04-04T09:43:09Z</time></trkpt><trkpt lat="41.16197904789935" lon="14.46286706172664"><ele>36.333333333333336</ele><time>2026-04-04T09:43:10Z</time></trkpt><trkpt lat="41.161764630090744" lon="14.462809703949446"><ele>37.0</ele><time>2026-04-04T09:43:11Z</time></trkpt><trkpt lat="41.161528141913095" lon="14.46274591944418"><ele>37.0</ele><time>2026-04-04T09:43:12Z</time></trkpt><trkpt lat="41.16127802159043" lon="14.462679495775083"><ele>37.0</ele><time>2026-04-04T09:43:13Z</time></trkpt><trkpt lat="41.16100705225025" lon="14.46260212560802"><ele>37.0</ele><time>2026-04-04T09:43:14Z</time></trkpt><trkpt lat="41.1607271416151" lon="14.462520168997164"><ele>37.0</ele><time>2026-04-04T09:43:15Z</time></trkpt><trkpt lat="41.16043274370233" lon="14.462430656116416"><ele>36.5</ele><time>2026-04-04T09:43:16Z</time></trkpt><trkpt lat="41.160138003895796" lon="14.462344462186136"><ele>36.0</ele><time>2026-04-04T09:43:17Z</time></trkpt><trkpt lat="41.15984405438157" lon="14.46225447675808"><ele>36.0</ele><time>2026-04-04T09:43:18Z</time></trkpt><trkpt lat="41.15956413070724" lon="14.462168142832917"><ele>36.0</ele><time>2026-04-04T09:43:19Z</time></trkpt><trkpt lat="41.159318215348335" lon="14.462099734283314"><ele>36.5</ele><time>2026-04-04T09:43:20Z</time></trkpt><trkpt lat="41.159059007446" lon="14.462028259822356"><ele>37.0</ele><time>2026-04-04T09:43:21Z</time></trkpt><trkpt lat="41.158829155651205" lon="14.461962646023078"><ele>36.0</ele><time>2026-04-04T09:43:22Z</time></trkpt><trkpt lat="41.158597914165405" lon="14.461886560662133"><ele>35.0</ele><time>2026-04-04T09:43:23Z</time></trkpt><trkpt lat="41.158377206129465" lon="14.461799884596601"><ele>35.5</ele><time>2026-04-04T09:43:24Z</time></trkpt><trkpt lat="41.15813586694469" lon="14.46170091911603"><ele>36.0</ele><time>2026-04-04T09:43:25Z</time></trkpt><trkpt lat="41.15789274723781" lon="14.461600957944173"><ele>36.0</ele><time>2026-04-04T09:43:26Z</time></trkpt><trkpt lat="41.157662989493105" lon="14.461497580191669"><ele>36.0</ele><time>2026-04-04T09:43:27Z</time></trkpt><trkpt lat="41.1574208542584" lon="14.461381129438601"><ele>36.0</ele><time>2026-04-04T09:43:28Z</time></trkpt><trkpt lat="41.1571833362612" lon="14.461254444018175"><ele>36.0</ele><time>2026-04-04T09:43:29Z</time></trkpt><trkpt lat="41.156939055104964" lon="14.46112029361382"><ele>36.0</ele><time>2026-04-04T09:43:30Z</time></trkpt><trkpt lat="41.15669669078193" lon="14.46098595640308"><ele>36.0</ele><time>2026-04-04T09:43:31Z</time></trkpt><trkpt lat="41.15644575739459" lon="14.460840821839342"><ele>34.5</ele><time>2026-04-04T09:43:32Z</time></trkpt><trkpt lat="41.15619390700965" lon="14.46068978037493"><ele>33.0</ele><time>2026-04-04T09:43:33Z</time></trkpt><trkpt lat="41.15594097963327" lon="14.460535650393268"><ele>35.5</ele><time>2026-04-04T09:43:34Z</time></trkpt><trkpt lat="41.15567145819186" lon="14.460369284124232"><ele>38.0</ele><time>2026-04-04T09:43:35Z</time></trkpt><trkpt lat="41.15540315075732" lon="14.460207807433195"><ele>38.0</ele><time>2026-04-04T09:43:36Z</time></trkpt><trkpt lat="41.15514325286078" lon="14.460051209388697"><ele>38.0</ele><time>2026-04-04T09:43:37Z</time></trkpt><trkpt lat="41.15488365397065" lon="14.459893900641408"><ele>39.5</ele><time>2026-04-04T09:43:38Z</time></trkpt><trkpt lat="41.15462897985106" lon="14.459739035937652"><ele>41.0</ele><time>2026-04-04T09:43:39Z</time></trkpt><trkpt lat="41.154370817564825" lon="14.45958326425607"><ele>41.0</ele><time>2026-04-04T09:43:40Z</time></trkpt><trkpt lat="41.15410300005521" lon="14.459439153684253"><ele>41.0</ele><time>2026-04-04T09:43:41Z</time></trkpt><trkpt lat="41.15382205799552" lon="14.45931614398999"><ele>43.0</ele><time>2026-04-04T09:43:42Z</time></trkpt><trkpt lat="41.153526378272495" lon="14.45922350319174"><ele>45.0</ele><time>2026-04-04T09:43:43Z</time></trkpt><trkpt lat="41.1532279787116" lon="14.459168926194227"><ele>47.0</ele><time>2026-04-04T09:43:44Z</time></trkpt><trkpt lat="41.15294922134682" lon="14.459142370303892"><ele>49.0</ele><time>2026-04-04T09:43:45Z</time></trkpt><trkpt lat="41.15268357349117" lon="14.459131163110733"><ele>49.0</ele><time>2026-04-04T09:43:46Z</time></trkpt><trkpt lat="41.15241225268641" lon="14.459138621438207"><ele>49.0</ele><time>2026-04-04T09:43:47Z</time></trkpt><trkpt lat="41.152133466706026" lon="14.459172775848307"><ele>46.5</ele><time>2026-04-04T09:43:48Z</time></trkpt><trkpt lat="41.151839678966304" lon="14.45924764762872"><ele>44.0</ele><time>2026-04-04T09:43:49Z</time></trkpt><trkpt lat="41.151544084330894" lon="14.459357321633089"><ele>44.0</ele><time>2026-04-04T09:43:50Z</time></trkpt><trkpt lat="41.151270108695506" lon="14.459483252419995"><ele>44.0</ele><time>2026-04-04T09:43:51Z</time></trkpt><trkpt lat="41.151006714736994" lon="14.45962345918625"><ele>44.0</ele><time>2026-04-04T09:43:52Z</time></trkpt><trkpt lat="41.150757486478106" lon="14.459777804981352"><ele>44.0</ele><time>2026-04-04T09:43:53Z</time></trkpt><trkpt lat="41.15051997148495" lon="14.459954064427897"><ele>43.5</ele><time>2026-04-04T09:43:54Z</time></trkpt><trkpt lat="41.15028344012688" lon="14.46014207941275"><ele>43.0</ele><time>2026-04-04T09:43:55Z</time></trkpt><trkpt lat="41.150035750807284" lon="14.460332703399654"><ele>43.0</ele><time>2026-04-04T09:43:56Z</time></trkpt><trkpt lat="41.149779755534446" lon="14.460523902955112"><ele>43.0</ele><time>2026-04-04T09:43:57Z</time></trkpt><trkpt lat="41.14952271962593" lon="14.46070843144018"><ele>43.0</ele><time>2026-04-04T09:43:58Z</time></trkpt><trkpt lat="41.149256260385044" lon="14.46090171873225"><ele>43.0</ele><time>2026-04-04T09:43:59Z</time></trkpt><trkpt lat="41.14899225654412" lon="14.461099165244361"><ele>46.0</ele><time>2026-04-04T09:44:00Z</time></trkpt><trkpt lat="41.1487236162404" lon="14.461303173245062"><ele>49.0</ele><time>2026-04-04T09:44:01Z</time></trkpt><trkpt lat="41.14844638414579" lon="14.461510679080495"><ele>50.5</ele><time>2026-04-04T09:44:02Z</time></trkpt><trkpt lat="41.14815595738901" lon="14.461728326459854"><ele>52.0</ele><time>2026-04-04T09:44:03Z</time></trkpt><trkpt lat="41.14780374528858" lon="14.461970617121079"><ele>52.5</ele><time>2026-04-04T09:44:04Z</time></trkpt><trkpt lat="41.14758434435947" lon="14.462145352296199"><ele>53.0</ele><time>2026-04-04T09:44:05Z</time></trkpt><trkpt lat="41.14732823081953" lon="14.46232785157368"><ele>53.5</ele><time>2026-04-04T09:44:06Z</time></trkpt><trkpt lat="41.14709257090489" lon="14.462485774560012"><ele>54.0</ele><time>2026-04-04T09:44:07Z</time></trkpt><trkpt lat="41.14687391158118" lon="14.462646661421552"><ele>54.0</ele><time>2026-04-04T09:44:08Z</time></trkpt><trkpt lat="41.146659495864796" lon="14.46279824027504"><ele>54.0</ele><time>2026-04-04T09:44:09Z</time></trkpt><trkpt lat="41.14642670623864" lon="14.46289751534444"><ele>55.0</ele><time>2026-04-04T09:44:10Z</time></trkpt><trkpt lat="41.14618019635534" lon="14.462989416579308"><ele>56.0</ele><time>2026-04-04T09:44:11Z</time></trkpt><trkpt lat="41.14592291721072" lon="14.463059486916068"><ele>56.0</ele><time>2026-04-04T09:44:12Z</time></trkpt><trkpt lat="41.14568855231253" lon="14.463093586770492"><ele>56.0</ele><time>2026-04-04T09:44:13Z</time></trkpt><trkpt lat="41.145475409999506" lon="14.463106919947409"><ele>56.0</ele><time>2026-04-04T09:44:14Z</time></trkpt><trkpt lat="41.14526565863708" lon="14.463102008020835"><ele>56.0</ele><time>2026-04-04T09:44:15Z</time></trkpt><trkpt lat="41.145046967152666" lon="14.46307607418319"><ele>56.0</ele><time>2026-04-04T09:44:16Z</time></trkpt><trkpt lat="41.14480432368738" lon="14.463023783434013"><ele>56.0</ele><time>2026-04-04T09:44:17Z</time></trkpt><trkpt lat="41.1445472652142" lon="14.46294155492727"><ele>56.0</ele><time>2026-04-04T09:44:18Z</time></trkpt><trkpt lat="41.14426885012247" lon="14.46284888102371"><ele>55.0</ele><time>2026-04-04T09:44:19Z</time></trkpt><trkpt lat="41.143985268127174" lon="14.462723939197396"><ele>54.0</ele><time>2026-04-04T09:44:20Z</time></trkpt><trkpt lat="41.143694443922875" lon="14.462595591887833"><ele>54.0</ele><time>2026-04-04T09:44:21Z</time></trkpt><trkpt lat="41.143407450064906" lon="14.462466315297872"><ele>54.0</ele><time>2026-04-04T09:44:22Z</time></trkpt><trkpt lat="41.14311009594968" lon="14.462339764554313"><ele>55.0</ele><time>2026-04-04T09:44:23Z</time></trkpt><trkpt lat="41.14281195668558" lon="14.462214418973215"><ele>56.0</ele><time>2026-04-04T09:44:24Z</time></trkpt><trkpt lat="41.14250174020333" lon="14.462089049455217"><ele>56.5</ele><time>2026-04-04T09:44:25Z</time></trkpt><trkpt lat="41.142249254859614" lon="14.461986482463887"><ele>57.0</ele><time>2026-04-04T09:44:26Z</time></trkpt><trkpt lat="41.14199584741268" lon="14.461893376028812"><ele>57.0</ele><time>2026-04-04T09:44:27Z</time></trkpt><trkpt lat="41.14175119971111" lon="14.461794577157107"><ele>57.0</ele><time>2026-04-04T09:44:28Z</time></trkpt><trkpt lat="41.141489098997376" lon="14.461714787960814"><ele>56.5</ele><time>2026-04-04T09:44:29Z</time></trkpt><trkpt lat="41.1412235414065" lon="14.46165462711741"><ele>56.0</ele><time>2026-04-04T09:44:30Z</time></trkpt><trkpt lat="41.140934335426145" lon="14.4616084397351"><ele>56.0</ele><time>2026-04-04T09:44:31Z</time></trkpt><trkpt lat="41.140649058702266" lon="14.46156881362669"><ele>56.0</ele><time>2026-04-04T09:44:32Z</time></trkpt><trkpt lat="41.14036222786593" lon="14.461516021399913"><ele>56.0</ele><time>2026-04-04T09:44:33Z</time></trkpt><trkpt lat="41.14007658273924" lon="14.46151447624828"><ele>56.0</ele><time>2026-04-04T09:44:34Z</time></trkpt><trkpt lat="41.139792093830714" lon="14.461503098060298"><ele>56.0</ele><time>2026-04-04T09:44:35Z</time></trkpt><trkpt lat="41.13952049987054" lon="14.461480413841286"><ele>56.0</ele><time>2026-04-04T09:44:36Z</time></trkpt><trkpt lat="41.13926380604608" lon="14.461474426204123"><ele>55.5</ele><time>2026-04-04T09:44:37Z</time></trkpt><trkpt lat="41.13902406495611" lon="14.461468834008143"><ele>55.0</ele><time>2026-04-04T09:44:38Z</time></trkpt><trkpt lat="41.13878600369012" lon="14.461463280994513"><ele>55.0</ele><time>2026-04-04T09:44:39Z</time></trkpt><trkpt lat="41.138537653953044" lon="14.461453870984895"><ele>55.0</ele><time>2026-04-04T09:44:40Z</time></trkpt><trkpt lat="41.13828382743873" lon="14.461436401926754"><ele>55.0</ele><time>2026-04-04T09:44:41Z</time></trkpt><trkpt lat="41.13801298530008" lon="14.46140503322687"><ele>55.0</ele><time>2026-04-04T09:44:42Z</time></trkpt><trkpt lat="41.137731033390054" lon="14.461355440714089"><ele>55.0</ele><time>2026-04-04T09:44:43Z</time></trkpt><trkpt lat="41.137437111129124" lon="14.461286906862286"><ele>55.0</ele><time>2026-04-04T09:44:44Z</time></trkpt><trkpt lat="41.137138155348076" lon="14.461198323832567"><ele>55.0</ele><time>2026-04-04T09:44:45Z</time></trkpt><trkpt lat="41.136828503242036" lon="14.461105527175988"><ele>55.0</ele><time>2026-04-04T09:44:46Z</time></trkpt><trkpt lat="41.136520866370546" lon="14.460978096248203"><ele>56.5</ele><time>2026-04-04T09:44:47Z</time></trkpt><trkpt lat="41.13621572081675" lon="14.460838688684351"><ele>58.0</ele><time>2026-04-04T09:44:48Z</time></trkpt><trkpt lat="41.135919638505136" lon="14.46070630692479"><ele>58.0</ele><time>2026-04-04T09:44:49Z</time></trkpt><trkpt lat="41.13562925678826" lon="14.460579378152103"><ele>58.0</ele><time>2026-04-04T09:44:50Z</time></trkpt><trkpt lat="41.135346604406145" lon="14.460465744985287"><ele>58.0</ele><time>2026-04-04T09:44:51Z</time></trkpt><trkpt lat="41.13504910209736" lon="14.460366445201219"><ele>58.0</ele><time>2026-04-04T09:44:52Z</time></trkpt><trkpt lat="41.13473751453985" lon="14.460288505007586"><ele>57.5</ele><time>2026-04-04T09:44:53Z</time></trkpt><trkpt lat="41.134418259218144" lon="14.460242757746697"><ele>57.0</ele><time>2026-04-04T09:44:54Z</time></trkpt><trkpt lat="41.13409726568687" lon="14.460210236046196"><ele>53.5</ele><time>2026-04-04T09:44:55Z</time></trkpt><trkpt lat="41.13379962329804" lon="14.460178284261504"><ele>50.0</ele><time>2026-04-04T09:44:56Z</time></trkpt><trkpt lat="41.13341375672042" lon="14.460135871072422"><ele>49.5</ele><time>2026-04-04T09:44:57Z</time></trkpt><trkpt lat="41.13305967000376" lon="14.460087372648303"><ele>49.0</ele><time>2026-04-04T09:44:58Z</time></trkpt><trkpt lat="41.132712939364815" lon="14.460039335011853"><ele>52.0</ele><time>2026-04-04T09:44:59Z</time></trkpt><trkpt lat="41.132382370684155" lon="14.459978530645033"><ele>55.0</ele><time>2026-04-04T09:45:00Z</time></trkpt><trkpt lat="41.13204973858259" lon="14.459934710943099"><ele>55.0</ele><time>2026-04-04T09:45:01Z</time></trkpt><trkpt lat="41.131713914352304" lon="14.459909117662106"><ele>55.0</ele><time>2026-04-04T09:45:02Z</time></trkpt><trkpt lat="41.13137624170897" lon="14.459858477020914"><ele>56.5</ele><time>2026-04-04T09:45:03Z</time></trkpt><trkpt lat="41.131050846636136" lon="14.459814312332716"><ele>58.0</ele><time>2026-04-04T09:45:04Z</time></trkpt><trkpt lat="41.13072094760565" lon="14.459773587036192"><ele>58.0</ele><time>2026-04-04T09:45:05Z</time></trkpt><trkpt lat="41.13035573713672" lon="14.45970345944724"><ele>58.0</ele><time>2026-04-04T09:45:06Z</time></trkpt><trkpt lat="41.13011391573464" lon="14.459683620739701"><ele>58.0</ele><time>2026-04-04T09:45:07Z</time></trkpt><trkpt lat="41.129816378251135" lon="14.459618952134164"><ele>58.0</ele><time>2026-04-04T09:45:08Z</time></trkpt><trkpt lat="41.12951434904815" lon="14.459564063011136"><ele>58.0</ele><time>2026-04-04T09:45:09Z</time></trkpt><trkpt lat="41.12920935707718" lon="14.459501126337436"><ele>58.0</ele><time>2026-04-04T09:45:10Z</time></trkpt><trkpt lat="41.12889907615516" lon="14.459430462454796"><ele>57.5</ele><time>2026-04-04T09:45:11Z</time></trkpt><trkpt lat="41.12858025365454" lon="14.459352299812275"><ele>57.0</ele><time>2026-04-04T09:45:12Z</time></trkpt><trkpt lat="41.128267045591684" lon="14.459266193915965"><ele>57.5</ele><time>2026-04-04T09:45:13Z</time></trkpt><trkpt lat="41.12794911363977" lon="14.459168477650717"><ele>58.0</ele><time>2026-04-04T09:45:14Z</time></trkpt><trkpt lat="41.12763266619175" lon="14.459068449085375"><ele>58.0</ele><time>2026-04-04T09:45:15Z</time></trkpt><trkpt lat="41.1273170968782" lon="14.458954566240845"><ele>58.0</ele><time>2026-04-04T09:45:16Z</time></trkpt><trkpt lat="41.12700412903391" lon="14.45883301991502"><ele>57.5</ele><time>2026-04-04T09:45:17Z</time></trkpt><trkpt lat="41.12669222293325" lon="14.458706230708085"><ele>57.0</ele><time>2026-04-04T09:45:18Z</time></trkpt><trkpt lat="41.12637807947348" lon="14.45857224334103"><ele>57.0</ele><time>2026-04-04T09:45:19Z</time></trkpt><trkpt lat="41.12606168120874" lon="14.458434320346935"><ele>57.0</ele><time>2026-04-04T09:45:20Z</time></trkpt><trkpt lat="41.12574688824886" lon="14.458306743530377"><ele>57.0</ele><time>2026-04-04T09:45:21Z</time></trkpt><trkpt lat="41.125426583558436" lon="14.458173660891271"><ele>57.0</ele><time>2026-04-04T09:45:22Z</time></trkpt><trkpt lat="41.12511079881949" lon="14.458038488658481"><ele>56.5</ele><time>2026-04-04T09:45:23Z</time></trkpt><trkpt lat="41.124793562783886" lon="14.457913694774243"><ele>56.0</ele><time>2026-04-04T09:45:24Z</time></trkpt><trkpt lat="41.12447368121906" lon="14.457787560834259"><ele>56.0</ele><time>2026-04-04T09:45:25Z</time></trkpt><trkpt lat="41.12415996825974" lon="14.457654084751434"><ele>56.0</ele><time>2026-04-04T09:45:26Z</time></trkpt><trkpt lat="41.12385229063067" lon="14.457505245363427"><ele>57.0</ele><time>2026-04-04T09:45:27Z</time></trkpt><trkpt lat="41.12354443199402" lon="14.457376833737737"><ele>58.0</ele><time>2026-04-04T09:45:28Z</time></trkpt><trkpt lat="41.123232942187656" lon="14.457253850709376"><ele>59.0</ele><time>2026-04-04T09:45:29Z</time></trkpt><trkpt lat="41.12292251568727" lon="14.457114531970992"><ele>60.0</ele><time>2026-04-04T09:45:30Z</time></trkpt><trkpt lat="41.12260912344153" lon="14.45699397425826"><ele>60.5</ele><time>2026-04-04T09:45:31Z</time></trkpt><trkpt lat="41.1222894043125" lon="14.456883364721591"><ele>61.0</ele><time>2026-04-04T09:45:32Z</time></trkpt><trkpt lat="41.12196578934034" lon="14.456782761062986"><ele>61.0</ele><time>2026-04-04T09:45:33Z</time></trkpt><trkpt lat="41.12164033056446" lon="14.456685890200085"><ele>61.0</ele><time>2026-04-04T09:45:34Z</time></trkpt><trkpt lat="41.12131438465626" lon="14.456599482113244"><ele>62.0</ele><time>2026-04-04T09:45:35Z</time></trkpt><trkpt lat="41.1209881575696" lon="14.456509101946626"><ele>63.0</ele><time>2026-04-04T09:45:36Z</time></trkpt><trkpt lat="41.12065941296481" lon="14.456422772362986"><ele>62.5</ele><time>2026-04-04T09:45:37Z</time></trkpt><trkpt lat="41.12033185405201" lon="14.45632869441544"><ele>62.0</ele><time>2026-04-04T09:45:38Z</time></trkpt><trkpt lat="41.12001053143909" lon="14.456244643326675"><ele>64.0</ele><time>2026-04-04T09:45:39Z</time></trkpt><trkpt lat="41.11966353630617" lon="14.456153782382303"><ele>66.0</ele><time>2026-04-04T09:45:40Z</time></trkpt><trkpt lat="41.11932834536848" lon="14.45605162799404"><ele>66.0</ele><time>2026-04-04T09:45:41Z</time></trkpt><trkpt lat="41.11911861215405" lon="14.455991030543123"><ele>66.0</ele><time>2026-04-04T09:45:42Z</time></trkpt><trkpt lat="41.118827660615146" lon="14.455909365459023"><ele>66.5</ele><time>2026-04-04T09:45:43Z</time></trkpt><trkpt lat="41.11854411218976" lon="14.45583479245504"><ele>67.0</ele><time>2026-04-04T09:45:44Z</time></trkpt><trkpt lat="41.11827300562226" lon="14.455763662777525"><ele>66.0</ele><time>2026-04-04T09:45:45Z</time></trkpt><trkpt lat="41.11801350071362" lon="14.455695533084699"><ele>65.0</ele><time>2026-04-04T09:45:46Z</time></trkpt><trkpt lat="41.117767547321684" lon="14.45562944585299"><ele>65.0</ele><time>2026-04-04T09:45:47Z</time></trkpt><trkpt lat="41.11753186757765" lon="14.455557949886662"><ele>65.0</ele><time>2026-04-04T09:45:48Z</time></trkpt><trkpt lat="41.11729512573021" lon="14.455490832526513"><ele>64.0</ele><time>2026-04-04T09:45:49Z</time></trkpt><trkpt lat="41.11707267511524" lon="14.455427768626508"><ele>63.0</ele><time>2026-04-04T09:45:50Z</time></trkpt><trkpt lat="41.116861315616426" lon="14.45536435128206"><ele>62.0</ele><time>2026-04-04T09:45:51Z</time></trkpt><trkpt lat="41.11666547268048" lon="14.455284859779724"><ele>60.66666666666667</ele><time>2026-04-04T09:45:52Z</time></trkpt><trkpt lat="41.11646896816282" lon="14.455170034757648"><ele>59.33333333333333</ele><time>2026-04-04T09:45:53Z</time></trkpt><trkpt lat="41.11629551613345" lon="14.454991014249483"><ele>58.0</ele><time>2026-04-04T09:45:54Z</time></trkpt><trkpt lat="41.11616779634717" lon="14.454741090196677"><ele>57.0</ele><time>2026-04-04T09:45:55Z</time></trkpt><trkpt lat="41.116029309639345" lon="14.454480192401611"><ele>56.0</ele><time>2026-04-04T09:45:56Z</time></trkpt><trkpt lat="41.115904060716026" lon="14.454212514821494"><ele>56.0</ele><time>2026-04-04T09:45:57Z</time></trkpt><trkpt lat="41.115807167682" lon="14.454002744633119"><ele>56.0</ele><time>2026-04-04T09:45:58Z</time></trkpt><trkpt lat="41.11572325071264" lon="14.45380837417833"><ele>56.0</ele><time>2026-04-04T09:45:59Z</time></trkpt><trkpt lat="41.11561604364824" lon="14.453668189108775"><ele>54.66666666666667</ele><time>2026-04-04T09:46:00Z</time></trkpt><trkpt lat="41.11550520792556" lon="14.453506406685289"><ele>53.33333333333333</ele><time>2026-04-04T09:46:01Z</time></trkpt><trkpt lat="41.11534909629709" lon="14.453417553586615"><ele>52.0</ele><time>2026-04-04T09:46:02Z</time></trkpt><trkpt lat="41.11517020306051" lon="14.453370114702802"><ele>52.0</ele><time>2026-04-04T09:46:03Z</time></trkpt><trkpt lat="41.114974406260835" lon="14.453383913920375"><ele>52.0</ele><time>2026-04-04T09:46:04Z</time></trkpt><trkpt lat="41.114743539007634" lon="14.45347771800153"><ele>52.0</ele><time>2026-04-04T09:46:05Z</time></trkpt><trkpt lat="41.114506314823544" lon="14.45358918680168"><ele>54.5</ele><time>2026-04-04T09:46:06Z</time></trkpt><trkpt lat="41.11427086612631" lon="14.45372877872178"><ele>57.0</ele><time>2026-04-04T09:46:07Z</time></trkpt><trkpt lat="41.114004763511474" lon="14.45390650389658"><ele>59.5</ele><time>2026-04-04T09:46:08Z</time></trkpt><trkpt lat="41.1137136582481" lon="14.454120306586937"><ele>62.0</ele><time>2026-04-04T09:46:09Z</time></trkpt><trkpt lat="41.113415532990956" lon="14.454323043225136"><ele>62.0</ele><time>2026-04-04T09:46:10Z</time></trkpt><trkpt lat="41.11313603643676" lon="14.454521751415909"><ele>62.0</ele><time>2026-04-04T09:46:11Z</time></trkpt><trkpt lat="41.11287774874549" lon="14.454729431989833"><ele>62.0</ele><time>2026-04-04T09:46:12Z</time></trkpt><trkpt lat="41.11264108381916" lon="14.454963400645244"><ele>62.0</ele><time>2026-04-04T09:46:13Z</time></trkpt><trkpt lat="41.112411732073" lon="14.455240259636092"><ele>62.5</ele><time>2026-04-04T09:46:14Z</time></trkpt><trkpt lat="41.11219577638875" lon="14.45557618229489"><ele>63.0</ele><time>2026-04-04T09:46:15Z</time></trkpt><trkpt lat="41.11195588248315" lon="14.455947508681515"><ele>63.5</ele><time>2026-04-04T09:46:16Z</time></trkpt><trkpt lat="41.1117301921999" lon="14.456316347579639"><ele>64.0</ele><time>2026-04-04T09:46:17Z</time></trkpt><trkpt lat="41.111513791309335" lon="14.456684423977187"><ele>64.0</ele><time>2026-04-04T09:46:18Z</time></trkpt><trkpt lat="41.111283876840616" lon="14.45706684234979"><ele>64.0</ele><time>2026-04-04T09:46:19Z</time></trkpt><trkpt lat="41.111043169991305" lon="14.457451717536506"><ele>65.0</ele><time>2026-04-04T09:46:20Z</time></trkpt><trkpt lat="41.11080064006116" lon="14.457840910671734"><ele>66.0</ele><time>2026-04-04T09:46:21Z</time></trkpt><trkpt lat="41.110564184405625" lon="14.458228264919605"><ele>67.0</ele><time>2026-04-04T09:46:22Z</time></trkpt><trkpt lat="41.11032778892822" lon="14.458616986418331"><ele>68.0</ele><time>2026-04-04T09:46:23Z</time></trkpt><trkpt lat="41.110093453579736" lon="14.459002335719338"><ele>67.5</ele><time>2026-04-04T09:46:24Z</time></trkpt><trkpt lat="41.10985710076526" lon="14.459388807319165"><ele>67.0</ele><time>2026-04-04T09:46:25Z</time></trkpt><trkpt lat="41.10962061812011" lon="14.459775830883416"><ele>68.5</ele><time>2026-04-04T09:46:26Z</time></trkpt><trkpt lat="41.10938699571623" lon="14.460162832257287"><ele>70.0</ele><time>2026-04-04T09:46:27Z</time></trkpt><trkpt lat="41.10915405610199" lon="14.46055124001709"><ele>71.5</ele><time>2026-04-04T09:46:28Z</time></trkpt><trkpt lat="41.10892416083442" lon="14.460940897289355"><ele>73.0</ele><time>2026-04-04T09:46:29Z</time></trkpt><trkpt lat="41.10868388076042" lon="14.461333672522672"><ele>73.5</ele><time>2026-04-04T09:46:30Z</time></trkpt><trkpt lat="41.10843687200517" lon="14.461705062033152"><ele>74.0</ele><time>2026-04-04T09:46:31Z</time></trkpt><trkpt lat="41.10822354267887" lon="14.462055347896428"><ele>76.5</ele><time>2026-04-04T09:46:32Z</time></trkpt><trkpt lat="41.10804654087087" lon="14.462387022206832"><ele>79.0</ele><time>2026-04-04T09:46:33Z</time></trkpt><trkpt lat="41.10786505799325" lon="14.462690698801248"><ele>79.0</ele><time>2026-04-04T09:46:34Z</time></trkpt><trkpt lat="41.107682897184986" lon="14.463005286507743"><ele>79.0</ele><time>2026-04-04T09:46:35Z</time></trkpt><trkpt lat="41.10751070790638" lon="14.463324717116143"><ele>79.0</ele><time>2026-04-04T09:46:36Z</time></trkpt><trkpt lat="41.107354882980275" lon="14.46364420553921"><ele>79.0</ele><time>2026-04-04T09:46:37Z</time></trkpt><trkpt lat="41.10721196919232" lon="14.463967578550681"><ele>79.5</ele><time>2026-04-04T09:46:38Z</time></trkpt><trkpt lat="41.107081758159055" lon="14.464292088565236"><ele>80.0</ele><time>2026-04-04T09:46:39Z</time></trkpt><trkpt lat="41.106964499651625" lon="14.464618214680588"><ele>80.5</ele><time>2026-04-04T09:46:40Z</time></trkpt><trkpt lat="41.10685447876402" lon="14.464964620191616"><ele>81.0</ele><time>2026-04-04T09:46:41Z</time></trkpt><trkpt lat="41.10675928917271" lon="14.465314381585046"><ele>81.5</ele><time>2026-04-04T09:46:42Z</time></trkpt><trkpt lat="41.10667029587991" lon="14.465677917986154"><ele>82.0</ele><time>2026-04-04T09:46:43Z</time></trkpt><trkpt lat="41.10659246635115" lon="14.466040930669468"><ele>83.5</ele><time>2026-04-04T09:46:44Z</time></trkpt><trkpt lat="41.106516087170824" lon="14.466403568221248"><ele>85.0</ele><time>2026-04-04T09:46:45Z</time></trkpt><trkpt lat="41.10643534779018" lon="14.466780177439619"><ele>85.0</ele><time>2026-04-04T09:46:46Z</time></trkpt><trkpt lat="41.10635003175812" lon="14.467181795846619"><ele>85.0</ele><time>2026-04-04T09:46:47Z</time></trkpt><trkpt lat="41.10625954245084" lon="14.467594445492477"><ele>86.5</ele><time>2026-04-04T09:46:48Z</time></trkpt><trkpt lat="41.10617437008451" lon="14.467996302214361"><ele>88.0</ele><time>2026-04-04T09:46:49Z</time></trkpt><trkpt lat="41.10608689702315" lon="14.468432028065262"><ele>88.0</ele><time>2026-04-04T09:46:50Z</time></trkpt><trkpt lat="41.10599356456835" lon="14.468917236581806"><ele>88.0</ele><time>2026-04-04T09:46:51Z</time></trkpt><trkpt lat="41.10589754820886" lon="14.469284390019423"><ele>87.0</ele><time>2026-04-04T09:46:52Z</time></trkpt><trkpt lat="41.10579128327156" lon="14.469719877427533"><ele>86.0</ele><time>2026-04-04T09:46:53Z</time></trkpt><trkpt lat="41.10568850249949" lon="14.470098129644873"><ele>89.0</ele><time>2026-04-04T09:46:54Z</time></trkpt><trkpt lat="41.105579076863954" lon="14.470442919761382"><ele>92.0</ele><time>2026-04-04T09:46:55Z</time></trkpt><trkpt lat="41.105446464512234" lon="14.470814478424318"><ele>92.0</ele><time>2026-04-04T09:46:56Z</time></trkpt><trkpt lat="41.105297683401986" lon="14.471201258412227"><ele>92.0</ele><time>2026-04-04T09:46:57Z</time></trkpt><trkpt lat="41.10513490796314" lon="14.471603826400214"><ele>93.5</ele><time>2026-04-04T09:46:58Z</time></trkpt><trkpt lat="41.104966156086775" lon="14.472027360198211"><ele>95.0</ele><time>2026-04-04T09:46:59Z</time></trkpt><trkpt lat="41.10480240535096" lon="14.472438169878476"><ele>95.5</ele><time>2026-04-04T09:47:00Z</time></trkpt><trkpt lat="41.104660984092575" lon="14.472805625338538"><ele>96.0</ele><time>2026-04-04T09:47:01Z</time></trkpt><trkpt lat="41.104535190713996" lon="14.473149668401453"><ele>97.0</ele><time>2026-04-04T09:47:02Z</time></trkpt><trkpt lat="41.10441407526769" lon="14.473471718120747"><ele>98.0</ele><time>2026-04-04T09:47:03Z</time></trkpt><trkpt lat="41.10429761961204" lon="14.473775397222308"><ele>98.5</ele><time>2026-04-04T09:47:04Z</time></trkpt><trkpt lat="41.1041964744419" lon="14.474089874669415"><ele>99.0</ele><time>2026-04-04T09:47:05Z</time></trkpt><trkpt lat="41.10411354028517" lon="14.474392449364313"><ele>95.5</ele><time>2026-04-04T09:47:06Z</time></trkpt><trkpt lat="41.104036104927204" lon="14.47471943051128"><ele>92.0</ele><time>2026-04-04T09:47:07Z</time></trkpt><trkpt lat="41.10396057741668" lon="14.47506933475528"><ele>92.0</ele><time>2026-04-04T09:47:08Z</time></trkpt><trkpt lat="41.1038861904352" lon="14.475430416027598"><ele>92.0</ele><time>2026-04-04T09:47:09Z</time></trkpt><trkpt lat="41.1038193257499" lon="14.47581767245604"><ele>94.0</ele><time>2026-04-04T09:47:10Z</time></trkpt><trkpt lat="41.103769964158175" lon="14.476230127844193"><ele>96.0</ele><time>2026-04-04T09:47:11Z</time></trkpt><trkpt lat="41.10373686442759" lon="14.47666899378989"><ele>98.5</ele><time>2026-04-04T09:47:12Z</time></trkpt><trkpt lat="41.1037230664423" lon="14.477127481466846"><ele>101.0</ele><time>2026-04-04T09:47:13Z</time></trkpt><trkpt lat="41.10372305843713" lon="14.477602950871828"><ele>103.5</ele><time>2026-04-04T09:47:14Z</time></trkpt><trkpt lat="41.10372516025717" lon="14.478094481769737"><ele>106.0</ele><time>2026-04-04T09:47:15Z</time></trkpt><trkpt lat="41.10372897709416" lon="14.47860046078979"><ele>107.0</ele><time>2026-04-04T09:47:16Z</time></trkpt><trkpt lat="41.1037282227883" lon="14.47911556708136"><ele>108.0</ele><time>2026-04-04T09:47:17Z</time></trkpt><trkpt lat="41.10372426066295" lon="14.479640255014356"><ele>108.5</ele><time>2026-04-04T09:47:18Z</time></trkpt><trkpt lat="41.103721640768455" lon="14.480149230035746"><ele>109.0</ele><time>2026-04-04T09:47:19Z</time></trkpt><trkpt lat="41.1037165332386" lon="14.480630762244811"><ele>106.0</ele><time>2026-04-04T09:47:20Z</time></trkpt><trkpt lat="41.1037066016868" lon="14.481090816447228"><ele>103.0</ele><time>2026-04-04T09:47:21Z</time></trkpt><trkpt lat="41.10369666467808" lon="14.481532351338686"><ele>101.5</ele><time>2026-04-04T09:47:22Z</time></trkpt><trkpt lat="41.10367502461216" lon="14.481933854866933"><ele>100.0</ele><time>2026-04-04T09:47:23Z</time></trkpt><trkpt lat="41.10363861666747" lon="14.48234267181399"><ele>100.0</ele><time>2026-04-04T09:47:24Z</time></trkpt><trkpt lat="41.10359316547961" lon="14.482764122177278"><ele>100.0</ele><time>2026-04-04T09:47:25Z</time></trkpt><trkpt lat="41.10352941674396" lon="14.483190639131092"><ele>104.0</ele><time>2026-04-04T09:47:26Z</time></trkpt><trkpt lat="41.10344127980323" lon="14.483625529327929"><ele>108.0</ele><time>2026-04-04T09:47:27Z</time></trkpt><trkpt lat="41.10333418265726" lon="14.484067241595197"><ele>108.0</ele><time>2026-04-04T09:47:28Z</time></trkpt><trkpt lat="41.10321410642759" lon="14.484512968659807"><ele>108.0</ele><time>2026-04-04T09:47:29Z</time></trkpt><trkpt lat="41.103077144798625" lon="14.484973418395814"><ele>112.5</ele><time>2026-04-04T09:47:30Z</time></trkpt><trkpt lat="41.10292863808031" lon="14.485435227345382"><ele>117.0</ele><time>2026-04-04T09:47:31Z</time></trkpt><trkpt lat="41.10276498886517" lon="14.485906237578062"><ele>121.0</ele><time>2026-04-04T09:47:32Z</time></trkpt><trkpt lat="41.10259467084494" lon="14.486380440740579"><ele>125.0</ele><time>2026-04-04T09:47:33Z</time></trkpt><trkpt lat="41.10242217966079" lon="14.486860321997257"><ele>125.0</ele><time>2026-04-04T09:47:34Z</time></trkpt><trkpt lat="41.10224787821163" lon="14.487339389378521"><ele>125.0</ele><time>2026-04-04T09:47:35Z</time></trkpt><trkpt lat="41.102070541450956" lon="14.48782667762707"><ele>128.0</ele><time>2026-04-04T09:47:36Z</time></trkpt><trkpt lat="41.10190974359548" lon="14.48831899037333"><ele>131.0</ele><time>2026-04-04T09:47:37Z</time></trkpt><trkpt lat="41.10174684512468" lon="14.48882508315717"><ele>130.0</ele><time>2026-04-04T09:47:38Z</time></trkpt><trkpt lat="41.10157711804458" lon="14.489316843546746"><ele>129.0</ele><time>2026-04-04T09:47:39Z</time></trkpt><trkpt lat="41.1014044169894" lon="14.489820651876627"><ele>132.0</ele><time>2026-04-04T09:47:40Z</time></trkpt><trkpt lat="41.10123005848955" lon="14.490324634521789"><ele>135.0</ele><time>2026-04-04T09:47:41Z</time></trkpt><trkpt lat="41.10105611959421" lon="14.490828971214665"><ele>138.5</ele><time>2026-04-04T09:47:42Z</time></trkpt><trkpt lat="41.100879692791324" lon="14.491336716374358"><ele>142.0</ele><time>2026-04-04T09:47:43Z</time></trkpt><trkpt lat="41.10070375965579" lon="14.491841380466978"><ele>144.0</ele><time>2026-04-04T09:47:44Z</time></trkpt><trkpt lat="41.10054364900406" lon="14.492293085277351"><ele>146.0</ele><time>2026-04-04T09:47:45Z</time></trkpt><trkpt lat="41.100404764188674" lon="14.492706532631118"><ele>148.5</ele><time>2026-04-04T09:47:46Z</time></trkpt><trkpt lat="41.10028374977214" lon="14.493096174396447"><ele>151.0</ele><time>2026-04-04T09:47:47Z</time></trkpt><trkpt lat="41.10016953172633" lon="14.493456284149572"><ele>153.5</ele><time>2026-04-04T09:47:48Z</time></trkpt><trkpt lat="41.10007228852068" lon="14.49379965598536"><ele>156.0</ele><time>2026-04-04T09:47:49Z</time></trkpt><trkpt lat="41.099986612771325" lon="14.494128330441615"><ele>153.0</ele><time>2026-04-04T09:47:50Z</time></trkpt><trkpt lat="41.099906611719355" lon="14.494454658579217"><ele>150.0</ele><time>2026-04-04T09:47:51Z</time></trkpt><trkpt lat="41.09984435225879" lon="14.494772278942584"><ele>150.0</ele><time>2026-04-04T09:47:52Z</time></trkpt><trkpt lat="41.099777929612415" lon="14.495103816613646"><ele>150.0</ele><time>2026-04-04T09:47:53Z</time></trkpt><trkpt lat="41.09970857892267" lon="14.495414705280012"><ele>151.5</ele><time>2026-04-04T09:47:54Z</time></trkpt><trkpt lat="41.09969846997988" lon="14.495720159391748"><ele>153.0</ele><time>2026-04-04T09:47:55Z</time></trkpt><trkpt lat="41.099676946407264" lon="14.496119844820289"><ele>153.5</ele><time>2026-04-04T09:47:56Z</time></trkpt><trkpt lat="41.09966758989766" lon="14.496512552779212"><ele>154.0</ele><time>2026-04-04T09:47:57Z</time></trkpt><trkpt lat="41.099679077734315" lon="14.496877244875158"><ele>154.5</ele><time>2026-04-04T09:47:58Z</time></trkpt><trkpt lat="41.09968310473873" lon="14.497239639574328"><ele>155.0</ele><time>2026-04-04T09:47:59Z</time></trkpt><trkpt lat="41.09969371677591" lon="14.497604516948153"><ele>153.0</ele><time>2026-04-04T09:48:00Z</time></trkpt><trkpt lat="41.099692520073745" lon="14.497940571963452"><ele>151.0</ele><time>2026-04-04T09:48:01Z</time></trkpt><trkpt lat="41.099798433205635" lon="14.498341862759903"><ele>151.0</ele><time>2026-04-04T09:48:02Z</time></trkpt><trkpt lat="41.0998790726367" lon="14.49872120507406"><ele>151.0</ele><time>2026-04-04T09:48:03Z</time></trkpt><trkpt lat="41.099968509283315" lon="14.499094009654634"><ele>150.5</ele><time>2026-04-04T09:48:04Z</time></trkpt><trkpt lat="41.10006159737197" lon="14.499461683444721"><ele>150.0</ele><time>2026-04-04T09:48:05Z</time></trkpt><trkpt lat="41.100154228317464" lon="14.499833711820528"><ele>150.0</ele><time>2026-04-04T09:48:06Z</time></trkpt><trkpt lat="41.10026112231391" lon="14.500232938968928"><ele>150.0</ele><time>2026-04-04T09:48:07Z</time></trkpt><trkpt lat="41.100375437781594" lon="14.500654979959165"><ele>149.5</ele><time>2026-04-04T09:48:08Z</time></trkpt><trkpt lat="41.10050448173465" lon="14.501095806273604"><ele>149.0</ele><time>2026-04-04T09:48:09Z</time></trkpt><trkpt lat="41.100635034748954" lon="14.501560487116805"><ele>149.5</ele><time>2026-04-04T09:48:10Z</time></trkpt><trkpt lat="41.100770865726844" lon="14.502035985534391"><ele>150.0</ele><time>2026-04-04T09:48:11Z</time></trkpt><trkpt lat="41.100903804756115" lon="14.502529957771765"><ele>149.0</ele><time>2026-04-04T09:48:12Z</time></trkpt><trkpt lat="41.10102728828623" lon="14.503035779497582"><ele>148.0</ele><time>2026-04-04T09:48:13Z</time></trkpt><trkpt lat="41.10113908230465" lon="14.503489266685591"><ele>148.0</ele><time>2026-04-04T09:48:14Z</time></trkpt><trkpt lat="41.10124261431753" lon="14.503887418141764"><ele>148.0</ele><time>2026-04-04T09:48:15Z</time></trkpt><trkpt lat="41.1013375727371" lon="14.504237659189117"><ele>148.0</ele><time>2026-04-04T09:48:16Z</time></trkpt><trkpt lat="41.10142628016526" lon="14.504568381383738"><ele>148.0</ele><time>2026-04-04T09:48:17Z</time></trkpt><trkpt lat="41.10152306556779" lon="14.5048649065116"><ele>149.5</ele><time>2026-04-04T09:48:18Z</time></trkpt><trkpt lat="41.10160137204787" lon="14.505162430520652"><ele>151.0</ele><time>2026-04-04T09:48:19Z</time></trkpt><trkpt lat="41.10167375461911" lon="14.505442531425082"><ele>151.33333333333334</ele><time>2026-04-04T09:48:20Z</time></trkpt><trkpt lat="41.1017313711062" lon="14.505729179109485"><ele>151.66666666666666</ele><time>2026-04-04T09:48:21Z</time></trkpt><trkpt lat="41.10179065798761" lon="14.505946270809716"><ele>152.0</ele><time>2026-04-04T09:48:22Z</time></trkpt><trkpt lat="41.10186489495962" lon="14.506137813040969"><ele>151.75</ele><time>2026-04-04T09:48:23Z</time></trkpt><trkpt lat="41.10188376808636" lon="14.506317468952602"><ele>151.5</ele><time>2026-04-04T09:48:24Z</time></trkpt><trkpt lat="41.10189286441006" lon="14.506468680159056"><ele>151.25</ele><time>2026-04-04T09:48:25Z</time></trkpt><trkpt lat="41.101941976337336" lon="14.50658214091158"><ele>151.0</ele><time>2026-04-04T09:48:26Z</time></trkpt><trkpt lat="41.10181619795508" lon="14.506728179491626"><ele>151.0</ele><time>2026-04-04T09:48:27Z</time></trkpt><trkpt lat="41.101736281447295" lon="14.506831336650293"><ele>151.0</ele><time>2026-04-04T09:48:28Z</time></trkpt><trkpt lat="41.10161768020376" lon="14.506882349123801"><ele>151.0</ele><time>2026-04-04T09:48:29Z</time></trkpt><trkpt lat="41.10149597278305" lon="14.506914957693095"><ele>151.0</ele><time>2026-04-04T09:48:30Z</time></trkpt><trkpt lat="41.1013429048014" lon="14.506885299841283"><ele>150.33333333333334</ele><time>2026-04-04T09:48:31Z</time></trkpt><trkpt lat="41.10117600141915" lon="14.506815892939196"><ele>149.66666666666666</ele><time>2026-04-04T09:48:32Z</time></trkpt><trkpt lat="41.1009924589322" lon="14.506747599799803"><ele>149.0</ele><time>2026-04-04T09:48:33Z</time></trkpt><trkpt lat="41.10089660714194" lon="14.506694405287636"><ele>149.0</ele><time>2026-04-04T09:48:34Z</time></trkpt><trkpt lat="41.10082651220045" lon="14.506660548878441"><ele>149.0</ele><time>2026-04-04T09:48:37Z</time></trkpt><trkpt lat="41.1007062234782" lon="14.506855519564997"><ele>149.0</ele><time>2026-04-04T09:48:38Z</time></trkpt><trkpt lat="41.10062456623695" lon="14.507029806549129"><ele>149.0</ele><time>2026-04-04T09:48:39Z</time></trkpt><trkpt lat="41.10051060312511" lon="14.507279598578911"><ele>147.75</ele><time>2026-04-04T09:48:40Z</time></trkpt><trkpt lat="41.10040396695037" lon="14.507480900285067"><ele>146.5</ele><time>2026-04-04T09:48:41Z</time></trkpt><trkpt lat="41.10032755434401" lon="14.507626964600748"><ele>145.25</ele><time>2026-04-04T09:48:42Z</time></trkpt><trkpt lat="41.10025067981224" lon="14.50774428395611"><ele>144.0</ele><time>2026-04-04T09:48:43Z</time></trkpt><trkpt lat="41.100210200511974" lon="14.507839182084306"><ele>144.0</ele><time>2026-04-04T09:48:44Z</time></trkpt><trkpt lat="41.100036454531576" lon="14.50786611779627"><ele>144.0</ele><time>2026-04-04T09:48:46Z</time></trkpt><trkpt lat="41.099923704007075" lon="14.507866678545653"><ele>144.0</ele><time>2026-04-04T09:48:47Z</time></trkpt><trkpt lat="41.09981027894085" lon="14.507776988225103"><ele>144.0</ele><time>2026-04-04T09:48:48Z</time></trkpt><trkpt lat="41.09968634893645" lon="14.50765439189683"><ele>139.33333333333334</ele><time>2026-04-04T09:48:49Z</time></trkpt><trkpt lat="41.0995136588531" lon="14.507504377691545"><ele>134.66666666666669</ele><time>2026-04-04T09:48:50Z</time></trkpt><trkpt lat="41.09931833560335" lon="14.507403250603758"><ele>130.0</ele><time>2026-04-04T09:48:51Z</time></trkpt><trkpt lat="41.09912184800952" lon="14.507320465506188"><ele>125.66666666666667</ele><time>2026-04-04T09:48:52Z</time></trkpt><trkpt lat="41.09891579931573" lon="14.507269779373567"><ele>121.33333333333334</ele><time>2026-04-04T09:48:53Z</time></trkpt><trkpt lat="41.09868946622111" lon="14.507229933019696"><ele>117.0</ele><time>2026-04-04T09:48:54Z</time></trkpt><trkpt lat="41.09850555148518" lon="14.507174697573369"><ele>117.0</ele><time>2026-04-04T09:48:55Z</time></trkpt><trkpt lat="41.09835183760051" lon="14.507124522214474"><ele>117.0</ele><time>2026-04-04T09:48:56Z</time></trkpt><trkpt lat="41.09823722244948" lon="14.507030787839772"><ele>117.0</ele><time>2026-04-04T09:48:57Z</time></trkpt><trkpt lat="41.09815277435303" lon="14.50690722292169"><ele>117.0</ele><time>2026-04-04T09:48:58Z</time></trkpt><trkpt lat="41.09805069156345" lon="14.506731299560878"><ele>115.0</ele><time>2026-04-04T09:48:59Z</time></trkpt><trkpt lat="41.09793414357028" lon="14.506484563722063"><ele>113.0</ele><time>2026-04-04T09:49:00Z</time></trkpt><trkpt lat="41.097844676693256" lon="14.50620982123702"><ele>111.0</ele><time>2026-04-04T09:49:01Z</time></trkpt><trkpt lat="41.097762880893605" lon="14.50588972571556"><ele>111.0</ele><time>2026-04-04T09:49:02Z</time></trkpt><trkpt lat="41.09768878576509" lon="14.50560531744658"><ele>111.0</ele><time>2026-04-04T09:49:03Z</time></trkpt><trkpt lat="41.09760656789412" lon="14.505382557930801"><ele>111.0</ele><time>2026-04-04T09:49:04Z</time></trkpt><trkpt lat="41.0975273894529" lon="14.505175914917857"><ele>107.0</ele><time>2026-04-04T09:49:05Z</time></trkpt><trkpt lat="41.09743002906816" lon="14.504996665504704"><ele>103.0</ele><time>2026-04-04T09:49:06Z</time></trkpt><trkpt lat="41.09731607171009" lon="14.504836011939316"><ele>99.0</ele><time>2026-04-04T09:49:07Z</time></trkpt><trkpt lat="41.097177328954764" lon="14.50468455714446"><ele>105.0</ele><time>2026-04-04T09:49:08Z</time></trkpt><trkpt lat="41.097021298687444" lon="14.504566478368346"><ele>111.0</ele><time>2026-04-04T09:49:09Z</time></trkpt><trkpt lat="41.09686255916028" lon="14.504485346760028"><ele>117.0</ele><time>2026-04-04T09:49:10Z</time></trkpt><trkpt lat="41.09670580242354" lon="14.50443279874253"><ele>111.0</ele><time>2026-04-04T09:49:11Z</time></trkpt><trkpt lat="41.096563409405746" lon="14.504406389616564"><ele>105.0</ele><time>2026-04-04T09:49:12Z</time></trkpt><trkpt lat="41.09645738760263" lon="14.504388178709357"><ele>99.0</ele><time>2026-04-04T09:49:13Z</time></trkpt><trkpt lat="41.096364972035474" lon="14.504332564072543"><ele>93.0</ele><time>2026-04-04T09:49:14Z</time></trkpt><trkpt lat="41.09629377831779" lon="14.504243862279363"><ele>93.0</ele><time>2026-04-04T09:49:15Z</time></trkpt><trkpt lat="41.09626231103442" lon="14.504137139401582"><ele>93.0</ele><time>2026-04-04T09:49:16Z</time></trkpt><trkpt lat="41.0962585999244" lon="14.50398657678574"><ele>93.0</ele><time>2026-04-04T09:49:17Z</time></trkpt><trkpt lat="41.096285558035596" lon="14.503802848730622"><ele>93.0</ele><time>2026-04-04T09:49:18Z</time></trkpt><trkpt lat="41.09626997006699" lon="14.503670629675408"><ele>93.0</ele><time>2026-04-04T09:49:19Z</time></trkpt><trkpt lat="41.09624044717287" lon="14.503585334751854"><ele>93.0</ele><time>2026-04-04T09:49:20Z</time></trkpt><trkpt lat="41.09618151886408" lon="14.503551536316186"><ele>93.0</ele><time>2026-04-04T09:49:21Z</time></trkpt><trkpt lat="41.09611508595763" lon="14.503558983378415"><ele>93.0</ele><time>2026-04-04T09:49:22Z</time></trkpt><trkpt lat="41.09606681651426" lon="14.503632366764991"><ele>93.0</ele><time>2026-04-04T09:49:23Z</time></trkpt><trkpt lat="41.09604053822492" lon="14.503761836091973"><ele>93.0</ele><time>2026-04-04T09:49:24Z</time></trkpt><trkpt lat="41.09603892280434" lon="14.503972241522376"><ele>93.0</ele><time>2026-04-04T09:49:25Z</time></trkpt><trkpt lat="41.096029644329505" lon="14.504201622701371"><ele>93.0</ele><time>2026-04-04T09:49:26Z</time></trkpt><trkpt lat="41.09599547343867" lon="14.504301144505039"><ele>93.0</ele><time>2026-04-04T09:49:27Z</time></trkpt><trkpt lat="41.09594220795096" lon="14.504355157227549"><ele>93.0</ele><time>2026-04-04T09:49:28Z</time></trkpt><trkpt lat="41.095845402821055" lon="14.504386611479095"><ele>93.0</ele><time>2026-04-04T09:49:29Z</time></trkpt><trkpt lat="41.095722864273895" lon="14.50435966568606"><ele>95.66666666666666</ele><time>2026-04-04T09:49:30Z</time></trkpt><trkpt lat="41.09558611109781" lon="14.504248487683231"><ele>98.33333333333333</ele><time>2026-04-04T09:49:31Z</time></trkpt><trkpt lat="41.09541701888882" lon="14.504160988098995"><ele>101.0</ele><time>2026-04-04T09:49:32Z</time></trkpt><trkpt lat="41.0952992656633" lon="14.504085160896857"><ele>101.0</ele><time>2026-04-04T09:49:33Z</time></trkpt><trkpt lat="41.09522303521696" lon="14.504012406400845"><ele>101.0</ele><time>2026-04-04T09:49:34Z</time></trkpt><trkpt lat="41.0951728661977" lon="14.503896225716522"><ele>101.0</ele><time>2026-04-04T09:49:35Z</time></trkpt><trkpt lat="41.09513369986261" lon="14.503730923624328"><ele>101.0</ele><time>2026-04-04T09:49:36Z</time></trkpt><trkpt lat="41.09507475523682" lon="14.503596803252421"><ele>101.0</ele><time>2026-04-04T09:49:37Z</time></trkpt><trkpt lat="41.09497877990435" lon="14.503545777853617"><ele>104.5</ele><time>2026-04-04T09:49:38Z</time></trkpt><trkpt lat="41.09487383625687" lon="14.503584951680022"><ele>108.0</ele><time>2026-04-04T09:49:39Z</time></trkpt><trkpt lat="41.094771490216566" lon="14.503692195945773"><ele>111.5</ele><time>2026-04-04T09:49:40Z</time></trkpt><trkpt lat="41.09467593676754" lon="14.503865079799365"><ele>115.0</ele><time>2026-04-04T09:49:41Z</time></trkpt><trkpt lat="41.09457573051559" lon="14.50404382353253"><ele>115.0</ele><time>2026-04-04T09:49:42Z</time></trkpt><trkpt lat="41.09444737533124" lon="14.504336561194794"><ele>115.0</ele><time>2026-04-04T09:49:43Z</time></trkpt><trkpt lat="41.09433448244865" lon="14.504623744512871"><ele>115.0</ele><time>2026-04-04T09:49:44Z</time></trkpt><trkpt lat="41.09425179047866" lon="14.504865192992098"><ele>115.0</ele><time>2026-04-04T09:49:45Z</time></trkpt><trkpt lat="41.09416364380624" lon="14.505024747571786"><ele>115.0</ele><time>2026-04-04T09:49:46Z</time></trkpt><trkpt lat="41.09407109417847" lon="14.505139753571136"><ele>120.0</ele><time>2026-04-04T09:49:47Z</time></trkpt><trkpt lat="41.09393856458267" lon="14.505216524842258"><ele>125.0</ele><time>2026-04-04T09:49:48Z</time></trkpt><trkpt lat="41.09375053926855" lon="14.505270815285844"><ele>130.0</ele><time>2026-04-04T09:49:49Z</time></trkpt><trkpt lat="41.09355191103516" lon="14.505324478314204"><ele>127.33333333333334</ele><time>2026-04-04T09:49:50Z</time></trkpt><trkpt lat="41.093395592955886" lon="14.50542997610184"><ele>124.66666666666666</ele><time>2026-04-04T09:49:51Z</time></trkpt><trkpt lat="41.09324872237311" lon="14.505553443788017"><ele>122.0</ele><time>2026-04-04T09:49:52Z</time></trkpt><trkpt lat="41.09303250188666" lon="14.505786684716375"><ele>122.0</ele><time>2026-04-04T09:49:53Z</time></trkpt><trkpt lat="41.09290217604741" lon="14.505931220686618"><ele>122.0</ele><time>2026-04-04T09:49:54Z</time></trkpt><trkpt lat="41.09277987311095" lon="14.506010391967514"><ele>122.0</ele><time>2026-04-04T09:49:55Z</time></trkpt><trkpt lat="41.09266007136374" lon="14.506032156116692"><ele>122.0</ele><time>2026-04-04T09:49:56Z</time></trkpt><trkpt lat="41.092547263979405" lon="14.505993541217633"><ele>123.33333333333333</ele><time>2026-04-04T09:49:57Z</time></trkpt><trkpt lat="41.092363829529646" lon="14.505950606697413"><ele>124.66666666666666</ele><time>2026-04-04T09:49:58Z</time></trkpt><trkpt lat="41.09212988202165" lon="14.505899140385335"><ele>126.0</ele><time>2026-04-04T09:49:59Z</time></trkpt><trkpt lat="41.09193800768757" lon="14.505905058697726"><ele>126.0</ele><time>2026-04-04T09:50:00Z</time></trkpt><trkpt lat="41.091764847964434" lon="14.505893271190464"><ele>126.0</ele><time>2026-04-04T09:50:01Z</time></trkpt><trkpt lat="41.091600349914714" lon="14.505973800690233"><ele>126.0</ele><time>2026-04-04T09:50:02Z</time></trkpt><trkpt lat="41.09141855636881" lon="14.506095353563271"><ele>124.0</ele><time>2026-04-04T09:50:03Z</time></trkpt><trkpt lat="41.091251813917445" lon="14.506205713702222"><ele>122.0</ele><time>2026-04-04T09:50:04Z</time></trkpt><trkpt lat="41.09110403264364" lon="14.506291504137529"><ele>120.0</ele><time>2026-04-04T09:50:05Z</time></trkpt><trkpt lat="41.090909362491004" lon="14.506307053843067"><ele>121.66666666666666</ele><time>2026-04-04T09:50:06Z</time></trkpt><trkpt lat="41.090673576458464" lon="14.506368627409978"><ele>123.33333333333333</ele><time>2026-04-04T09:50:07Z</time></trkpt><trkpt lat="41.090473453688816" lon="14.506397237575326"><ele>125.0</ele><time>2026-04-04T09:50:08Z</time></trkpt><trkpt lat="41.09030466665451" lon="14.506377733446277"><ele>125.0</ele><time>2026-04-04T09:50:09Z</time></trkpt><trkpt lat="41.09013612156754" lon="14.506339096952148"><ele>125.0</ele><time>2026-04-04T09:50:10Z</time></trkpt><trkpt lat="41.089916393336544" lon="14.50627936733558"><ele>125.0</ele><time>2026-04-04T09:50:11Z</time></trkpt><trkpt lat="41.08968449865283" lon="14.506211820423918"><ele>127.66666666666666</ele><time>2026-04-04T09:50:12Z</time></trkpt><trkpt lat="41.089472139365284" lon="14.506154470944054"><ele>130.33333333333334</ele><time>2026-04-04T09:50:13Z</time></trkpt><trkpt lat="41.08930488818254" lon="14.50609300775792"><ele>133.0</ele><time>2026-04-04T09:50:14Z</time></trkpt><trkpt lat="41.089145267103916" lon="14.506006665874454"><ele>132.0</ele><time>2026-04-04T09:50:15Z</time></trkpt><trkpt lat="41.088960867525024" lon="14.505900171560905"><ele>131.0</ele><time>2026-04-04T09:50:16Z</time></trkpt><trkpt lat="41.08873223303585" lon="14.505777583392582"><ele>130.0</ele><time>2026-04-04T09:50:17Z</time></trkpt><trkpt lat="41.088504626905014" lon="14.505604232407629"><ele>130.0</ele><time>2026-04-04T09:50:18Z</time></trkpt><trkpt lat="41.08830784243585" lon="14.505473793775046"><ele>130.0</ele><time>2026-04-04T09:50:19Z</time></trkpt><trkpt lat="41.08816971103133" lon="14.505380111128087"><ele>130.0</ele><time>2026-04-04T09:50:20Z</time></trkpt><trkpt lat="41.08807857833082" lon="14.505314811643073"><ele>131.2</ele><time>2026-04-04T09:50:21Z</time></trkpt><trkpt lat="41.08800197043812" lon="14.505281004692618"><ele>132.4</ele><time>2026-04-04T09:50:22Z</time></trkpt><trkpt lat="41.087920960571346" lon="14.505301796993598"><ele>133.6</ele><time>2026-04-04T09:50:23Z</time></trkpt><trkpt lat="41.087833746760445" lon="14.505404062226933"><ele>134.8</ele><time>2026-04-04T09:50:24Z</time></trkpt><trkpt lat="41.08771817867665" lon="14.505539603631705"><ele>136.0</ele><time>2026-04-04T09:50:25Z</time></trkpt><trkpt lat="41.08759907098193" lon="14.505636594557078"><ele>136.0</ele><time>2026-04-04T09:50:26Z</time></trkpt><trkpt lat="41.08748047200386" lon="14.505675308531604"><ele>136.0</ele><time>2026-04-04T09:50:27Z</time></trkpt><trkpt lat="41.08737834972587" lon="14.50561199110006"><ele>136.0</ele><time>2026-04-04T09:50:28Z</time></trkpt><trkpt lat="41.0872270060745" lon="14.505551756547876"><ele>136.0</ele><time>2026-04-04T09:50:29Z</time></trkpt><trkpt lat="41.08703372131867" lon="14.505446576797237"><ele>137.66666666666669</ele><time>2026-04-04T09:50:30Z</time></trkpt><trkpt lat="41.08684098566972" lon="14.50531741514433"><ele>139.33333333333334</ele><time>2026-04-04T09:50:31Z</time></trkpt><trkpt lat="41.08667051286771" lon="14.505150338678561"><ele>141.0</ele><time>2026-04-04T09:50:32Z</time></trkpt><trkpt lat="41.08650888223551" lon="14.504959234708878"><ele>146.33333333333334</ele><time>2026-04-04T09:50:33Z</time></trkpt><trkpt lat="41.086384140943835" lon="14.504787032894587"><ele>151.66666666666669</ele><time>2026-04-04T09:50:34Z</time></trkpt><trkpt lat="41.086277293310424" lon="14.504627918879267"><ele>157.0</ele><time>2026-04-04T09:50:35Z</time></trkpt><trkpt lat="41.086166593035244" lon="14.504456537471006"><ele>157.0</ele><time>2026-04-04T09:50:36Z</time></trkpt><trkpt lat="41.086053027961135" lon="14.504284074310318"><ele>157.0</ele><time>2026-04-04T09:50:37Z</time></trkpt><trkpt lat="41.085970510085346" lon="14.504111212211443"><ele>157.0</ele><time>2026-04-04T09:50:38Z</time></trkpt><trkpt lat="41.0859207927133" lon="14.50395804764009"><ele>156.99999999999997</ele><time>2026-04-04T09:50:39Z</time></trkpt><trkpt lat="41.08589052986241" lon="14.50386515641352"><ele>157.0</ele><time>2026-04-04T09:50:40Z</time></trkpt><trkpt lat="41.08586144701372" lon="14.503781521664235"><ele>157.0</ele><time>2026-04-04T09:50:42Z</time></trkpt><trkpt lat="41.08580780822089" lon="14.503699771191327"><ele>157.0</ele><time>2026-04-04T09:50:45Z</time></trkpt><trkpt lat="41.08576897721989" lon="14.503631380512328"><ele>157.0</ele><time>2026-04-04T09:50:46Z</time></trkpt><trkpt lat="41.08572538127995" lon="14.50354963835028"><ele>156.99999999999997</ele><time>2026-04-04T09:50:48Z</time></trkpt><trkpt lat="41.085690836218966" lon="14.503476882188332"><ele>157.0</ele><time>2026-04-04T09:50:50Z</time></trkpt><trkpt lat="41.08563671315365" lon="14.503406001735042"><ele>154.75</ele><time>2026-04-04T09:50:52Z</time></trkpt><trkpt lat="41.08576845344529" lon="14.503361303025267"><ele>152.5</ele><time>2026-04-04T09:59:31Z</time></trkpt><trkpt lat="41.085930355127665" lon="14.503256645987797"><ele>150.25</ele><time>2026-04-04T09:59:35Z</time></trkpt><trkpt lat="41.08597336163308" lon="14.503145868873457"><ele>148.0</ele><time>2026-04-04T09:59:36Z</time></trkpt><trkpt lat="41.0860422680421" lon="14.503014929003367"><ele>148.20000000000002</ele><time>2026-04-04T09:59:37Z</time></trkpt><trkpt lat="41.08612818514605" lon="14.502902240458356"><ele>148.4</ele><time>2026-04-04T09:59:38Z</time></trkpt><trkpt lat="41.086187894259076" lon="14.5028363609428"><ele>148.60000000000002</ele><time>2026-04-04T09:59:39Z</time></trkpt><trkpt lat="41.086282457246945" lon="14.502754705660108"><ele>148.8</ele><time>2026-04-04T09:59:41Z</time></trkpt><trkpt lat="41.08634805622094" lon="14.502704053180038"><ele>149.0</ele><time>2026-04-04T09:59:43Z</time></trkpt><trkpt lat="41.08641205287943" lon="14.502679038288004"><ele>149.0</ele><time>2026-04-04T09:59:45Z</time></trkpt><trkpt lat="41.086502480683436" lon="14.502646485430494"><ele>149.0</ele><time>2026-04-04T09:59:47Z</time></trkpt><trkpt lat="41.086614667142435" lon="14.502597440587218"><ele>149.0</ele><time>2026-04-04T09:59:49Z</time></trkpt><trkpt lat="41.086685481151214" lon="14.502559544885385"><ele>149.0</ele><time>2026-04-04T09:59:51Z</time></trkpt><trkpt lat="41.08673399594377" lon="14.502649256826707"><ele>149.0</ele><time>2026-04-04T09:59:52Z</time></trkpt><trkpt lat="41.086790507356305" lon="14.502716224005178"><ele>149.0</ele><time>2026-04-04T09:59:54Z</time></trkpt><trkpt lat="41.0868179624714" lon="14.502801040826576"><ele>149.0</ele><time>2026-04-04T09:59:58Z</time></trkpt><trkpt lat="41.08687126192793" lon="14.502894827055108"><ele>149.0</ele><time>2026-04-04T10:00:08Z</time></trkpt><trkpt lat="41.086923381938774" lon="14.502978365773199"><ele>149.0</ele><time>2026-04-04T10:00:11Z</time></trkpt><trkpt lat="41.08700732551439" lon="14.503072146765756"><ele>149.0</ele><time>2026-04-04T10:00:13Z</time></trkpt><trkpt lat="41.0870601053523" lon="14.503142449043422"><ele>149.0</ele><time>2026-04-04T10:00:14Z</time></trkpt><trkpt lat="41.08711323036495" lon="14.503227972574237"><ele>149.0</ele><time>2026-04-04T10:00:15Z</time></trkpt><trkpt lat="41.087161659146666" lon="14.503301573960156"><ele>148.8</ele><time>2026-04-04T10:00:16Z</time></trkpt><trkpt lat="41.08725422639515" lon="14.503407841124488"><ele>148.60000000000002</ele><time>2026-04-04T10:00:20Z</time></trkpt><trkpt lat="41.08733072749698" lon="14.503458246732224"><ele>148.4</ele><time>2026-04-04T10:00:21Z</time></trkpt><trkpt lat="41.087391074379234" lon="14.503485688943194"><ele>148.20000000000002</ele><time>2026-04-04T10:00:22Z</time></trkpt><trkpt lat="41.0874852581176" lon="14.503507700494797"><ele>148.0</ele><time>2026-04-04T10:00:24Z</time></trkpt><trkpt lat="41.087583898322826" lon="14.503548870228252"><ele>148.42857142857144</ele><time>2026-04-04T10:00:26Z</time></trkpt><trkpt lat="41.08765918767699" lon="14.503571220553834"><ele>148.85714285714286</ele><time>2026-04-04T10:00:29Z</time></trkpt><trkpt lat="41.08772587124676" lon="14.503601875393999"><ele>149.28571428571428</ele><time>2026-04-04T10:00:35Z</time></trkpt><trkpt lat="41.087790743862165" lon="14.503623921222097"><ele>149.71428571428572</ele><time>2026-04-04T10:00:37Z</time></trkpt><trkpt lat="41.087862699813165" lon="14.503650549070548"><ele>150.14285714285714</ele><time>2026-04-04T10:00:40Z</time></trkpt><trkpt lat="41.087941879686674" lon="14.503663557892345"><ele>150.57142857142858</ele><time>2026-04-04T10:00:44Z</time></trkpt><trkpt lat="41.08800382006087" lon="14.503688718533398"><ele>151.0</ele><time>2026-04-04T10:00:47Z</time></trkpt><trkpt lat="41.08807996818558" lon="14.50371557418677"><ele>151.0</ele><time>2026-04-04T10:00:52Z</time></trkpt><trkpt lat="41.0881545260373" lon="14.503726367643866"><ele>151.0</ele><time>2026-04-04T10:00:56Z</time></trkpt><trkpt lat="41.0882301913154" lon="14.503747412801513"><ele>151.0</ele><time>2026-04-04T10:00:59Z</time></trkpt><trkpt lat="41.08829840078057" lon="14.503762500500594"><ele>151.0</ele><time>2026-04-04T10:01:01Z</time></trkpt><trkpt lat="41.08837283115582" lon="14.503784042521804"><ele>151.0</ele><time>2026-04-04T10:01:03Z</time></trkpt><trkpt lat="41.088456906166634" lon="14.503815759778345"><ele>151.0</ele><time>2026-04-04T10:01:06Z</time></trkpt><trkpt lat="41.08854078120034" lon="14.503836942421634"><ele>151.16666666666669</ele><time>2026-04-04T10:01:08Z</time></trkpt><trkpt lat="41.08860540703035" lon="14.503860423515222"><ele>151.33333333333334</ele><time>2026-04-04T10:01:10Z</time></trkpt><trkpt lat="41.088684953199696" lon="14.503855100061083"><ele>151.5</ele><time>2026-04-04T10:01:12Z</time></trkpt><trkpt lat="41.0887296504429" lon="14.503792294443274"><ele>151.66666666666666</ele><time>2026-04-04T10:01:14Z</time></trkpt><trkpt lat="41.0887925800186" lon="14.503662760077473"><ele>151.83333333333331</ele><time>2026-04-04T10:01:16Z</time></trkpt><trkpt lat="41.088812511630664" lon="14.503573219704071"><ele>152.0</ele><time>2026-04-04T10:01:17Z</time></trkpt><trkpt lat="41.08883678377525" lon="14.50346506921643"><ele>151.66666666666666</ele><time>2026-04-04T10:01:18Z</time></trkpt><trkpt lat="41.08885681841244" lon="14.503379592015946"><ele>151.33333333333331</ele><time>2026-04-04T10:01:19Z</time></trkpt><trkpt lat="41.088867418481584" lon="14.503261229309818"><ele>151.0</ele><time>2026-04-04T10:01:21Z</time></trkpt><trkpt lat="41.08891524691017" lon="14.503127302276736"><ele>150.66666666666666</ele><time>2026-04-04T10:01:23Z</time></trkpt><trkpt lat="41.08893629954813" lon="14.503032458557966"><ele>150.33333333333334</ele><time>2026-04-04T10:01:24Z</time></trkpt><trkpt lat="41.08896115073215" lon="14.502920502036938"><ele>150.0</ele><time>2026-04-04T10:01:25Z</time></trkpt><trkpt lat="41.08898566871273" lon="14.502810046741478"><ele>149.33333333333334</ele><time>2026-04-04T10:01:26Z</time></trkpt><trkpt lat="41.08901157948416" lon="14.502693316685894"><ele>148.66666666666666</ele><time>2026-04-04T10:01:27Z</time></trkpt><trkpt lat="41.089034098413556" lon="14.502592614665026"><ele>148.0</ele><time>2026-04-04T10:01:28Z</time></trkpt><trkpt lat="41.089041494834945" lon="14.502498493941182"><ele>147.33333333333331</ele><time>2026-04-04T10:01:29Z</time></trkpt><trkpt lat="41.08906134044806" lon="14.502415732541403"><ele>146.66666666666666</ele><time>2026-04-04T10:01:30Z</time></trkpt><trkpt lat="41.08909458167837" lon="14.502274161386403"><ele>146.0</ele><time>2026-04-04T10:01:32Z</time></trkpt><trkpt lat="41.08911544609283" lon="14.50218266185617"><ele>146.0</ele><time>2026-04-04T10:01:34Z</time></trkpt><trkpt lat="41.08913434707498" lon="14.502102954295498"><ele>146.0</ele><time>2026-04-04T10:01:36Z</time></trkpt><trkpt lat="41.089157239228804" lon="14.502000804808208"><ele>146.0</ele><time>2026-04-04T10:01:38Z</time></trkpt><trkpt lat="41.089183351163115" lon="14.501915384532293"><ele>146.0</ele><time>2026-04-04T10:01:43Z</time></trkpt><trkpt lat="41.089194574721986" lon="14.501822742369137"><ele>146.0</ele><time>2026-04-04T10:01:52Z</time></trkpt><trkpt lat="41.08921306708868" lon="14.501740422154331"><ele>146.0</ele><time>2026-04-04T10:01:55Z</time></trkpt><trkpt lat="41.08924012222176" lon="14.501659465145877"><ele>146.0</ele><time>2026-04-04T10:02:00Z</time></trkpt><trkpt lat="41.08925095372474" lon="14.501576693970454"><ele>147.8</ele><time>2026-04-04T10:02:04Z</time></trkpt><trkpt lat="41.089288235811345" lon="14.501428981845377"><ele>149.6</ele><time>2026-04-04T10:02:06Z</time></trkpt><trkpt lat="41.08932423159622" lon="14.501280633030953"><ele>151.4</ele><time>2026-04-04T10:02:08Z</time></trkpt><trkpt lat="41.08936234326933" lon="14.50116063206968"><ele>153.2</ele><time>2026-04-04T10:02:11Z</time></trkpt><trkpt lat="41.08938853052596" lon="14.50104397357348"><ele>155.0</ele><time>2026-04-04T10:02:14Z</time></trkpt><trkpt lat="41.08941685761805" lon="14.500919759273359"><ele>155.16666666666666</ele><time>2026-04-04T10:02:16Z</time></trkpt><trkpt lat="41.08944232695971" lon="14.500805502936748"><ele>155.33333333333331</ele><time>2026-04-04T10:02:18Z</time></trkpt><trkpt lat="41.08945965247405" lon="14.50070160377388"><ele>155.5</ele><time>2026-04-04T10:02:21Z</time></trkpt><trkpt lat="41.08948905347329" lon="14.50059725081276"><ele>155.66666666666666</ele><time>2026-04-04T10:02:24Z</time></trkpt><trkpt lat="41.08950672833126" lon="14.500512566903254"><ele>155.83333333333334</ele><time>2026-04-04T10:02:26Z</time></trkpt><trkpt lat="41.0895211312036" lon="14.500429341460244"><ele>156.0</ele><time>2026-04-04T10:05:06Z</time></trkpt><trkpt lat="41.08958664012222" lon="14.50032355012861"><ele>156.4</ele><time>2026-04-04T10:05:10Z</time></trkpt><trkpt lat="41.08959171376233" lon="14.500228376381411"><ele>156.8</ele><time>2026-04-04T10:05:11Z</time></trkpt><trkpt lat="41.089613414888156" lon="14.500127108680518"><ele>157.20000000000002</ele><time>2026-04-04T10:05:12Z</time></trkpt><trkpt lat="41.0896431827888" lon="14.50004827439714"><ele>157.6</ele><time>2026-04-04T10:05:13Z</time></trkpt><trkpt lat="41.08968535922641" lon="14.499941046249132"><ele>158.0</ele><time>2026-04-04T10:05:15Z</time></trkpt><trkpt lat="41.08953857290559" lon="14.499761629285581"><ele>158.0</ele><time>2026-04-04T10:05:18Z</time></trkpt><trkpt lat="41.08942371496401" lon="14.499708298277467"><ele>158.0</ele><time>2026-04-04T10:05:19Z</time></trkpt><trkpt lat="41.08936741644541" lon="14.499658680932841"><ele>158.0</ele><time>2026-04-04T10:05:20Z</time></trkpt><trkpt lat="41.08931727874897" lon="14.499586614643407"><ele>158.0</ele><time>2026-04-04T10:05:22Z</time></trkpt><trkpt lat="41.08926269907681" lon="14.499508163841915"><ele>158.0</ele><time>2026-04-04T10:05:24Z</time></trkpt><trkpt lat="41.08919957075217" lon="14.499485185176066"><ele>158.0</ele><time>2026-04-04T10:05:26Z</time></trkpt><trkpt lat="41.08914051535644" lon="14.49941505818438"><ele>158.4</ele><time>2026-04-04T10:05:28Z</time></trkpt><trkpt lat="41.08902162678024" lon="14.499335434457166"><ele>158.8</ele><time>2026-04-04T10:05:30Z</time></trkpt><trkpt lat="41.08894603968713" lon="14.499246833571968"><ele>159.2</ele><time>2026-04-04T10:05:31Z</time></trkpt><trkpt lat="41.0888888102235" lon="14.499176665188818"><ele>159.6</ele><time>2026-04-04T10:05:32Z</time></trkpt><trkpt lat="41.08883608659836" lon="14.499076548417667"><ele>160.0</ele><time>2026-04-04T10:05:33Z</time></trkpt><trkpt lat="41.08876107793469" lon="14.498995448381448"><ele>160.0</ele><time>2026-04-04T10:05:35Z</time></trkpt><trkpt lat="41.088734421798755" lon="14.498906799525228"><ele>160.0</ele><time>2026-04-04T10:05:38Z</time></trkpt><trkpt lat="41.08887384646012" lon="14.498684580086552"><ele>160.0</ele><time>2026-04-04T10:05:41Z</time></trkpt><trkpt lat="41.088922942544116" lon="14.498615481476971"><ele>160.0</ele><time>2026-04-04T10:05:42Z</time></trkpt><trkpt lat="41.08898785778513" lon="14.498500178946568"><ele>160.5</ele><time>2026-04-04T10:05:44Z</time></trkpt><trkpt lat="41.08903612247008" lon="14.498441925088304"><ele>161.0</ele><time>2026-04-04T10:05:45Z</time></trkpt><trkpt lat="41.089098928671206" lon="14.498315401159532"><ele>161.5</ele><time>2026-04-04T10:05:47Z</time></trkpt><trkpt lat="41.08914012725573" lon="14.498239117868042"><ele>162.0</ele><time>2026-04-04T10:05:48Z</time></trkpt><trkpt lat="41.089187533453426" lon="14.49815734544881"><ele>162.5</ele><time>2026-04-04T10:05:49Z</time></trkpt><trkpt lat="41.089227946591706" lon="14.498082217368767"><ele>163.0</ele><time>2026-04-04T10:05:50Z</time></trkpt><trkpt lat="41.08926746368702" lon="14.498011460016228"><ele>163.4</ele><time>2026-04-04T10:05:51Z</time></trkpt><trkpt lat="41.089329017859484" lon="14.497901194608415"><ele>163.8</ele><time>2026-04-04T10:05:53Z</time></trkpt><trkpt lat="41.08936777398713" lon="14.49783171339906"><ele>164.2</ele><time>2026-04-04T10:05:54Z</time></trkpt><trkpt lat="41.08942405137761" lon="14.49777429052642"><ele>164.6</ele><time>2026-04-04T10:05:55Z</time></trkpt><trkpt lat="41.08949102304786" lon="14.497673097050301"><ele>165.0</ele><time>2026-04-04T10:05:56Z</time></trkpt><trkpt lat="41.08956786256837" lon="14.497562215106045"><ele>165.0</ele><time>2026-04-04T10:05:57Z</time></trkpt><trkpt lat="41.08963386753866" lon="14.497460468341327"><ele>165.0</ele><time>2026-04-04T10:05:58Z</time></trkpt><trkpt lat="41.08972939047377" lon="14.497359920481891"><ele>165.0</ele><time>2026-04-04T10:05:59Z</time></trkpt><trkpt lat="41.08981461904429" lon="14.497245599207627"><ele>165.0</ele><time>2026-04-04T10:06:00Z</time></trkpt><trkpt lat="41.08990351776404" lon="14.49711859653868"><ele>166.4</ele><time>2026-04-04T10:06:01Z</time></trkpt><trkpt lat="41.089997263213874" lon="14.496984373159348"><ele>167.8</ele><time>2026-04-04T10:06:02Z</time></trkpt><trkpt lat="41.09008625590735" lon="14.496863663579163"><ele>169.2</ele><time>2026-04-04T10:06:03Z</time></trkpt><trkpt lat="41.0901585589215" lon="14.496769958462725"><ele>170.6</ele><time>2026-04-04T10:06:04Z</time></trkpt><trkpt lat="41.09020610233291" lon="14.496695622801383"><ele>172.0</ele><time>2026-04-04T10:06:05Z</time></trkpt><trkpt lat="41.09024677015185" lon="14.496584983138963"><ele>172.0</ele><time>2026-04-04T10:06:07Z</time></trkpt><trkpt lat="41.09011560309392" lon="14.496439447798132"><ele>172.0</ele><time>2026-04-04T10:06:08Z</time></trkpt><trkpt lat="41.0900277475417" lon="14.496367535228723"><ele>172.0</ele><time>2026-04-04T10:06:09Z</time></trkpt><trkpt lat="41.08991350856973" lon="14.4962852541646"><ele>172.0</ele><time>2026-04-04T10:06:10Z</time></trkpt><trkpt lat="41.0898341950934" lon="14.49616516677044"><ele>172.75</ele><time>2026-04-04T10:06:11Z</time></trkpt><trkpt lat="41.08976504668659" lon="14.496048977905986"><ele>173.5</ele><time>2026-04-04T10:06:12Z</time></trkpt><trkpt lat="41.0896888179721" lon="14.49589368088906"><ele>174.25</ele><time>2026-04-04T10:06:13Z</time></trkpt><trkpt lat="41.089625279001275" lon="14.495695295929998"><ele>175.0</ele><time>2026-04-04T10:06:14Z</time></trkpt><trkpt lat="41.08953799897669" lon="14.495471269550755"><ele>177.33333333333334</ele><time>2026-04-04T10:06:15Z</time></trkpt><trkpt lat="41.08943777990763" lon="14.495244195192395"><ele>179.66666666666666</ele><time>2026-04-04T10:06:16Z</time></trkpt><trkpt lat="41.08935009205261" lon="14.495010145052717"><ele>182.0</ele><time>2026-04-04T10:06:17Z</time></trkpt><trkpt lat="41.08925864564221" lon="14.494792517055888"><ele>183.33333333333331</ele><time>2026-04-04T10:06:18Z</time></trkpt><trkpt lat="41.089181103506796" lon="14.494583720918847"><ele>184.66666666666666</ele><time>2026-04-04T10:06:19Z</time></trkpt><trkpt lat="41.08910240737544" lon="14.494387665819522"><ele>186.0</ele><time>2026-04-04T10:06:20Z</time></trkpt><trkpt lat="41.08902404842177" lon="14.494199528090823"><ele>187.0</ele><time>2026-04-04T10:06:21Z</time></trkpt><trkpt lat="41.08894801616922" lon="14.49400778406757"><ele>188.0</ele><time>2026-04-04T10:06:22Z</time></trkpt><trkpt lat="41.088878906107176" lon="14.493829726210338"><ele>189.0</ele><time>2026-04-04T10:06:23Z</time></trkpt><trkpt lat="41.08880672065428" lon="14.493681341987713"><ele>190.0</ele><time>2026-04-04T10:06:24Z</time></trkpt><trkpt lat="41.08870333215427" lon="14.493558371005873"><ele>192.33333333333334</ele><time>2026-04-04T10:06:25Z</time></trkpt><trkpt lat="41.088569696895995" lon="14.493451495692595"><ele>194.66666666666669</ele><time>2026-04-04T10:06:26Z</time></trkpt><trkpt lat="41.08843178218823" lon="14.493312470712617"><ele>197.0</ele><time>2026-04-04T10:06:27Z</time></trkpt><trkpt lat="41.08828387443912" lon="14.493166512319355"><ele>196.66666666666669</ele><time>2026-04-04T10:06:28Z</time></trkpt><trkpt lat="41.08814571710122" lon="14.493018691009981"><ele>196.33333333333331</ele><time>2026-04-04T10:06:29Z</time></trkpt><trkpt lat="41.08801885340961" lon="14.492871197824067"><ele>196.0</ele><time>2026-04-04T10:06:30Z</time></trkpt><trkpt lat="41.087898834293185" lon="14.49270342479546"><ele>199.66666666666666</ele><time>2026-04-04T10:06:31Z</time></trkpt><trkpt lat="41.0877786262123" lon="14.492511353599294"><ele>203.33333333333331</ele><time>2026-04-04T10:06:32Z</time></trkpt><trkpt lat="41.08765560251554" lon="14.492303651282535"><ele>207.0</ele><time>2026-04-04T10:06:33Z</time></trkpt><trkpt lat="41.0875316385404" lon="14.492092543674584"><ele>209.33333333333331</ele><time>2026-04-04T10:06:34Z</time></trkpt><trkpt lat="41.087406648387486" lon="14.491889670695063"><ele>211.66666666666666</ele><time>2026-04-04T10:06:35Z</time></trkpt><trkpt lat="41.08732786610549" lon="14.491649172709696"><ele>214.0</ele><time>2026-04-04T10:06:36Z</time></trkpt><trkpt lat="41.087238806954375" lon="14.491388064128776"><ele>216.66666666666666</ele><time>2026-04-04T10:06:37Z</time></trkpt><trkpt lat="41.08713372196213" lon="14.491121912776677"><ele>219.33333333333331</ele><time>2026-04-04T10:06:38Z</time></trkpt><trkpt lat="41.08705658963495" lon="14.490869196426123"><ele>222.0</ele><time>2026-04-04T10:06:39Z</time></trkpt><trkpt lat="41.08698476978786" lon="14.490650675600229"><ele>222.0</ele><time>2026-04-04T10:06:40Z</time></trkpt><trkpt lat="41.086924796433706" lon="14.490465633174507"><ele>222.0</ele><time>2026-04-04T10:06:41Z</time></trkpt><trkpt lat="41.08687996112274" lon="14.490295147917982"><ele>222.0</ele><time>2026-04-04T10:06:42Z</time></trkpt><trkpt lat="41.086855317328386" lon="14.490131187919356"><ele>222.0</ele><time>2026-04-04T10:06:43Z</time></trkpt><trkpt lat="41.08686045540558" lon="14.489964289923252"><ele>223.66666666666669</ele><time>2026-04-04T10:06:44Z</time></trkpt><trkpt lat="41.086880752789654" lon="14.489772132342878"><ele>225.33333333333334</ele><time>2026-04-04T10:06:45Z</time></trkpt><trkpt lat="41.08690732769284" lon="14.489561947522013"><ele>227.0</ele><time>2026-04-04T10:06:46Z</time></trkpt><trkpt lat="41.08692397975395" lon="14.48934994845951"><ele>228.33333333333334</ele><time>2026-04-04T10:06:47Z</time></trkpt><trkpt lat="41.0869099563489" lon="14.489129874974635"><ele>229.66666666666669</ele><time>2026-04-04T10:06:48Z</time></trkpt><trkpt lat="41.086857473664715" lon="14.488916293302973"><ele>231.0</ele><time>2026-04-04T10:06:49Z</time></trkpt><trkpt lat="41.08677780489716" lon="14.48869039784036"><ele>230.66666666666669</ele><time>2026-04-04T10:06:50Z</time></trkpt><trkpt lat="41.08667961089374" lon="14.488457747037378"><ele>230.33333333333334</ele><time>2026-04-04T10:06:51Z</time></trkpt><trkpt lat="41.086596200710204" lon="14.488209451060529"><ele>230.0</ele><time>2026-04-04T10:06:52Z</time></trkpt><trkpt lat="41.08652540793515" lon="14.487953881604943"><ele>231.66666666666669</ele><time>2026-04-04T10:06:53Z</time></trkpt><trkpt lat="41.086460289491924" lon="14.487680634580869"><ele>233.33333333333331</ele><time>2026-04-04T10:06:54Z</time></trkpt><trkpt lat="41.086389575653776" lon="14.487401071228279"><ele>235.0</ele><time>2026-04-04T10:06:55Z</time></trkpt><trkpt lat="41.08633202631167" lon="14.487118036669418"><ele>237.66666666666666</ele><time>2026-04-04T10:06:56Z</time></trkpt><trkpt lat="41.08626861421286" lon="14.486843906580617"><ele>240.33333333333331</ele><time>2026-04-04T10:06:57Z</time></trkpt><trkpt lat="41.086205391494794" lon="14.486554884215755"><ele>243.0</ele><time>2026-04-04T10:06:58Z</time></trkpt><trkpt lat="41.08613975999184" lon="14.486261779652564"><ele>245.0</ele><time>2026-04-04T10:06:59Z</time></trkpt><trkpt lat="41.086078905340436" lon="14.485978716878433"><ele>247.0</ele><time>2026-04-04T10:07:00Z</time></trkpt><trkpt lat="41.08602921025952" lon="14.485704734608678"><ele>249.0</ele><time>2026-04-04T10:07:01Z</time></trkpt><trkpt lat="41.08599603646295" lon="14.485439702468819"><ele>251.0</ele><time>2026-04-04T10:07:02Z</time></trkpt><trkpt lat="41.08596551488649" lon="14.485172979395482"><ele>253.0</ele><time>2026-04-04T10:07:03Z</time></trkpt><trkpt lat="41.08592190744094" lon="14.484916003582235"><ele>255.0</ele><time>2026-04-04T10:07:04Z</time></trkpt><trkpt lat="41.08586103109913" lon="14.484656734375417"><ele>256.0</ele><time>2026-04-04T10:07:05Z</time></trkpt><trkpt lat="41.08578962349044" lon="14.484397745907447"><ele>257.0</ele><time>2026-04-04T10:07:06Z</time></trkpt><trkpt lat="41.08570604442655" lon="14.484143070156604"><ele>258.0</ele><time>2026-04-04T10:07:07Z</time></trkpt><trkpt lat="41.08561626300528" lon="14.48388710669317"><ele>256.5</ele><time>2026-04-04T10:07:08Z</time></trkpt><trkpt lat="41.085557464593954" lon="14.483591488627724"><ele>255.0</ele><time>2026-04-04T10:07:09Z</time></trkpt><trkpt lat="41.08545224096977" lon="14.483286518151356"><ele>255.0</ele><time>2026-04-04T10:07:10Z</time></trkpt><trkpt lat="41.08533113003459" lon="14.48303355079917"><ele>255.0</ele><time>2026-04-04T10:07:11Z</time></trkpt><trkpt lat="41.08522601523379" lon="14.482807230343523"><ele>255.0</ele><time>2026-04-04T10:07:12Z</time></trkpt><trkpt lat="41.08512488865581" lon="14.482590271597868"><ele>256.3333333333333</ele><time>2026-04-04T10:07:13Z</time></trkpt><trkpt lat="41.08503108940409" lon="14.48238340148397"><ele>257.66666666666663</ele><time>2026-04-04T10:07:14Z</time></trkpt><trkpt lat="41.084947611517556" lon="14.482196693552131"><ele>259.0</ele><time>2026-04-04T10:07:15Z</time></trkpt><trkpt lat="41.08488413616574" lon="14.482034889529125"><ele>259.4</ele><time>2026-04-04T10:07:16Z</time></trkpt><trkpt lat="41.08483810177995" lon="14.481882507132537"><ele>259.79999999999995</ele><time>2026-04-04T10:07:17Z</time></trkpt><trkpt lat="41.08481385426853" lon="14.481742271753012"><ele>260.20000000000005</ele><time>2026-04-04T10:07:18Z</time></trkpt><trkpt lat="41.08480217222132" lon="14.481617907222372"><ele>260.6</ele><time>2026-04-04T10:07:19Z</time></trkpt><trkpt lat="41.08479502974268" lon="14.48150180618085"><ele>261.0</ele><time>2026-04-04T10:07:20Z</time></trkpt><trkpt lat="41.08478232337624" lon="14.481394307677359"><ele>261.0</ele><time>2026-04-04T10:07:21Z</time></trkpt><trkpt lat="41.084769649612284" lon="14.481292751546459"><ele>261.0</ele><time>2026-04-04T10:07:22Z</time></trkpt><trkpt lat="41.084763827248324" lon="14.481200956839364"><ele>261.0</ele><time>2026-04-04T10:07:23Z</time></trkpt><trkpt lat="41.0847481934989" lon="14.481079364407078"><ele>261.0</ele><time>2026-04-04T10:07:25Z</time></trkpt><trkpt lat="41.084739647532196" lon="14.480992424878023"><ele>261.0</ele><time>2026-04-04T10:07:30Z</time></trkpt><trkpt lat="41.08490435656535" lon="14.480952373639731"><ele>261.3333333333333</ele><time>2026-04-04T10:07:49Z</time></trkpt><trkpt lat="41.08498890060521" lon="14.48099722340206"><ele>261.6666666666667</ele><time>2026-04-04T10:07:51Z</time></trkpt><trkpt lat="41.08502161044563" lon="14.480920838535022"><ele>262.0</ele><time>2026-04-04T10:08:34Z</time></trkpt><trkpt lat="41.08508642800321" lon="14.480899806393698"><ele>262.33333333333337</ele><time>2026-04-04T10:08:39Z</time></trkpt><trkpt lat="41.08515331941143" lon="14.480975866431121"><ele>262.6666666666667</ele><time>2026-04-04T10:08:41Z</time></trkpt><trkpt lat="41.08521676038183" lon="14.48103959805183"><ele>263.0</ele><time>2026-04-04T10:08:43Z</time></trkpt><trkpt lat="41.085308477603945" lon="14.481145495886983"><ele>263.0</ele><time>2026-04-04T10:08:45Z</time></trkpt><trkpt lat="41.085407168597925" lon="14.481240394133733"><ele>263.0</ele><time>2026-04-04T10:08:47Z</time></trkpt><trkpt lat="41.08546950732588" lon="14.481303191364502"><ele>263.0</ele><time>2026-04-04T10:08:48Z</time></trkpt><trkpt lat="41.08554433222931" lon="14.481379454082726"><ele>263.0</ele><time>2026-04-04T10:08:49Z</time></trkpt><trkpt lat="41.08559400827242" lon="14.481433434000461"><ele>263.0</ele><time>2026-04-04T10:08:50Z</time></trkpt><trkpt lat="41.08564705608511" lon="14.48150024387531"><ele>263.0</ele><time>2026-04-04T10:08:54Z</time></trkpt><trkpt lat="41.08558170523468" lon="14.481565208447707"><ele>265.0</ele><time>2026-04-04T10:08:59Z</time></trkpt><trkpt lat="41.08552931424716" lon="14.481663092592175"><ele>265.0</ele><time>2026-04-04T10:09:13Z</time></trkpt></trkseg></trk></gpx>